<?xml version="1.0"?>
<gpx
 version="1.1"
 creator="Satmap Active 20"
 xmlns:xsi="http://www.w3.org/2001/XMLSchema-instance"
 xmlns="http://www.topografix.com/GPX/1/1"
 xmlns:satmap="http://www.satmap.com/updates/xmlschemas/GpxExtensions/v2/GpxExtensions_v2.xsd"
 xsi:schemaLocation="http://www.topografix.com/GPX/1/1 http://www.topografix.com/GPX/1/1/gpx.xsd">
<metadata>
<time>2020-09-18T09:03:28Z</time>
<extensions>
<satmap:platform>43</satmap:platform>
<satmap:software version="3.12.831">SM15.exe</satmap:software>
<satmap:username>Jim Grant</satmap:username>
<satmap:network_ids>
<satmap:network_id type="wifi">00-23-A7-EC-D5-78</satmap:network_id>
<satmap:network_id type="bluetooth">80-BB-EB-D7-5B-7C</satmap:network_id>
</satmap:network_ids>
<satmap:snap_type>simple</satmap:snap_type>
</extensions>
</metadata>
<trk>
<name>2020-09-18_0903</name>
<desc>Track 1</desc>
<number>1</number>
<trkseg>
<trkpt lat="53.119107" lon="-4.122327"><ele>103</ele><time>2020-09-18T09:03:28Z</time><name>PT1</name></trkpt>
<trkpt lat="53.119109" lon="-4.122331"><ele>104</ele><time>2020-09-18T09:03:44Z</time><name>PT2</name></trkpt>
<trkpt lat="53.119115" lon="-4.122343"><ele>104</ele><time>2020-09-18T09:03:45Z</time><name>PT3</name></trkpt>
<trkpt lat="53.119116" lon="-4.122347"><ele>104</ele><time>2020-09-18T09:03:46Z</time><name>PT4</name></trkpt>
<trkpt lat="53.119119" lon="-4.122351"><ele>104</ele><time>2020-09-18T09:03:47Z</time><name>PT5</name></trkpt>
<trkpt lat="53.119124" lon="-4.122357"><ele>104</ele><time>2020-09-18T09:03:48Z</time><name>PT6</name></trkpt>
<trkpt lat="53.119128" lon="-4.122364"><ele>104</ele><time>2020-09-18T09:03:49Z</time><name>PT7</name></trkpt>
<trkpt lat="53.119132" lon="-4.122369"><ele>103</ele><time>2020-09-18T09:03:50Z</time><name>PT8</name></trkpt>
<trkpt lat="53.119138" lon="-4.122371"><ele>103</ele><time>2020-09-18T09:03:51Z</time><name>PT9</name></trkpt>
<trkpt lat="53.119151" lon="-4.122376"><ele>102</ele><time>2020-09-18T09:03:52Z</time><name>PT10</name></trkpt>
<trkpt lat="53.119156" lon="-4.122374"><ele>101</ele><time>2020-09-18T09:03:53Z</time><name>PT11</name></trkpt>
<trkpt lat="53.119161" lon="-4.122373"><ele>101</ele><time>2020-09-18T09:03:54Z</time><name>PT12</name></trkpt>
<trkpt lat="53.119163" lon="-4.122376"><ele>100</ele><time>2020-09-18T09:03:55Z</time><name>PT13</name></trkpt>
<trkpt lat="53.119171" lon="-4.122379"><ele>101</ele><time>2020-09-18T09:03:56Z</time><name>PT14</name></trkpt>
<trkpt lat="53.119170" lon="-4.122385"><ele>100</ele><time>2020-09-18T09:03:57Z</time><name>PT15</name></trkpt>
<trkpt lat="53.119173" lon="-4.122387"><ele>100</ele><time>2020-09-18T09:03:58Z</time><name>PT16</name></trkpt>
<trkpt lat="53.119187" lon="-4.122378"><ele>100</ele><time>2020-09-18T09:04:08Z</time><name>PT17</name></trkpt>
<trkpt lat="53.119191" lon="-4.122372"><ele>100</ele><time>2020-09-18T09:04:09Z</time><name>PT18</name></trkpt>
<trkpt lat="53.119193" lon="-4.122364"><ele>101</ele><time>2020-09-18T09:04:48Z</time><name>PT19</name></trkpt>
<trkpt lat="53.119198" lon="-4.122359"><ele>102</ele><time>2020-09-18T09:04:49Z</time><name>PT20</name></trkpt>
<trkpt lat="53.119198" lon="-4.122363"><ele>102</ele><time>2020-09-18T09:04:50Z</time><name>PT21</name></trkpt>
<trkpt lat="53.119201" lon="-4.122361"><ele>102</ele><time>2020-09-18T09:04:51Z</time><name>PT22</name></trkpt>
<trkpt lat="53.119202" lon="-4.122358"><ele>102</ele><time>2020-09-18T09:04:52Z</time><name>PT23</name></trkpt>
<trkpt lat="53.119201" lon="-4.122360"><ele>103</ele><time>2020-09-18T09:05:26Z</time><name>PT24</name></trkpt>
<trkpt lat="53.119204" lon="-4.122374"><ele>103</ele><time>2020-09-18T09:05:27Z</time><name>PT25</name></trkpt>
<trkpt lat="53.119205" lon="-4.122389"><ele>104</ele><time>2020-09-18T09:05:28Z</time><name>PT26</name></trkpt>
<trkpt lat="53.119211" lon="-4.122375"><ele>103</ele><time>2020-09-18T09:06:12Z</time><name>PT27</name></trkpt>
<trkpt lat="53.119215" lon="-4.122376"><ele>104</ele><time>2020-09-18T09:06:13Z</time><name>PT28</name></trkpt>
<trkpt lat="53.119216" lon="-4.122379"><ele>104</ele><time>2020-09-18T09:06:14Z</time><name>PT29</name></trkpt>
<trkpt lat="53.119218" lon="-4.122383"><ele>105</ele><time>2020-09-18T09:06:15Z</time><name>PT30</name></trkpt>
<trkpt lat="53.119222" lon="-4.122339"><ele>106</ele><time>2020-09-18T09:07:42Z</time><name>PT31</name></trkpt>
<trkpt lat="53.119209" lon="-4.122304"><ele>105</ele><time>2020-09-18T09:07:45Z</time><name>PT32</name></trkpt>
<trkpt lat="53.119189" lon="-4.122321"><ele>105</ele><time>2020-09-18T09:07:49Z</time><name>PT33</name></trkpt>
<trkpt lat="53.119172" lon="-4.122313"><ele>104</ele><time>2020-09-18T09:07:53Z</time><name>PT34</name></trkpt>
<trkpt lat="53.119157" lon="-4.122313"><ele>107</ele><time>2020-09-18T09:07:57Z</time><name>PT35</name></trkpt>
<trkpt lat="53.119156" lon="-4.122309"><ele>106</ele><time>2020-09-18T09:08:07Z</time><name>PT36</name></trkpt>
<trkpt lat="53.119147" lon="-4.122308"><ele>107</ele><time>2020-09-18T09:08:11Z</time><name>PT37</name></trkpt>
<trkpt lat="53.119150" lon="-4.122302"><ele>106</ele><time>2020-09-18T09:08:15Z</time><name>PT38</name></trkpt>
<trkpt lat="53.119131" lon="-4.122291"><ele>105</ele><time>2020-09-18T09:09:07Z</time><name>PT39</name></trkpt>
<trkpt lat="53.119142" lon="-4.122294"><ele>106</ele><time>2020-09-18T09:09:11Z</time><name>PT40</name></trkpt>
<trkpt lat="53.119144" lon="-4.122291"><ele>106</ele><time>2020-09-18T09:09:14Z</time><name>PT41</name></trkpt>
<trkpt lat="53.119150" lon="-4.122295"><ele>107</ele><time>2020-09-18T09:09:17Z</time><name>PT42</name></trkpt>
<trkpt lat="53.119145" lon="-4.122298"><ele>106</ele><time>2020-09-18T09:09:21Z</time><name>PT43</name></trkpt>
<trkpt lat="53.119152" lon="-4.122282"><ele>106</ele><time>2020-09-18T09:09:47Z</time><name>PT44</name></trkpt>
<trkpt lat="53.119146" lon="-4.122289"><ele>107</ele><time>2020-09-18T09:09:50Z</time><name>PT45</name></trkpt>
<trkpt lat="53.119134" lon="-4.122288"><ele>107</ele><time>2020-09-18T09:10:25Z</time><name>PT46</name></trkpt>
<trkpt lat="53.119132" lon="-4.122280"><ele>107</ele><time>2020-09-18T09:10:28Z</time><name>PT47</name></trkpt>
<trkpt lat="53.119138" lon="-4.122267"><ele>107</ele><time>2020-09-18T09:11:05Z</time><name>PT48</name></trkpt>
<trkpt lat="53.119140" lon="-4.122274"><ele>107</ele><time>2020-09-18T09:11:35Z</time><name>PT49</name></trkpt>
<trkpt lat="53.119140" lon="-4.122274"><ele>106</ele><time>2020-09-18T09:11:38Z</time><name>PT50</name></trkpt>
<trkpt lat="53.119143" lon="-4.122278"><ele>105</ele><time>2020-09-18T09:13:21Z</time><name>PT51</name></trkpt>
<trkpt lat="53.119140" lon="-4.122278"><ele>105</ele><time>2020-09-18T09:13:25Z</time><name>PT52</name></trkpt>
<trkpt lat="53.119146" lon="-4.122303"><ele>107</ele><time>2020-09-18T09:18:40Z</time><name>PT53</name></trkpt>
<trkpt lat="53.119140" lon="-4.122327"><ele>108</ele><time>2020-09-18T09:18:44Z</time><name>PT54</name></trkpt>
<trkpt lat="53.119138" lon="-4.122326"><ele>108</ele><time>2020-09-18T09:18:47Z</time><name>PT55</name></trkpt>
<trkpt lat="53.119135" lon="-4.122319"><ele>109</ele><time>2020-09-18T09:18:50Z</time><name>PT56</name></trkpt>
<trkpt lat="53.119136" lon="-4.122316"><ele>109</ele><time>2020-09-18T09:18:53Z</time><name>PT57</name></trkpt>
<trkpt lat="53.119127" lon="-4.122311"><ele>109</ele><time>2020-09-18T09:18:54Z</time><name>PT58</name></trkpt>
<trkpt lat="53.119122" lon="-4.122306"><ele>109</ele><time>2020-09-18T09:18:55Z</time><name>PT59</name></trkpt>
<trkpt lat="53.119117" lon="-4.122302"><ele>109</ele><time>2020-09-18T09:18:56Z</time><name>PT60</name></trkpt>
<trkpt lat="53.119115" lon="-4.122296"><ele>109</ele><time>2020-09-18T09:18:57Z</time><name>PT61</name></trkpt>
<trkpt lat="53.119119" lon="-4.122288"><ele>109</ele><time>2020-09-18T09:18:58Z</time><name>PT62</name></trkpt>
<trkpt lat="53.119119" lon="-4.122285"><ele>109</ele><time>2020-09-18T09:18:59Z</time><name>PT63</name></trkpt>
<trkpt lat="53.119118" lon="-4.122283"><ele>109</ele><time>2020-09-18T09:19:00Z</time><name>PT64</name></trkpt>
<trkpt lat="53.119117" lon="-4.122283"><ele>109</ele><time>2020-09-18T09:19:01Z</time><name>PT65</name></trkpt>
<trkpt lat="53.119107" lon="-4.122284"><ele>109</ele><time>2020-09-18T09:19:05Z</time><name>PT66</name></trkpt>
<trkpt lat="53.119098" lon="-4.122283"><ele>108</ele><time>2020-09-18T09:19:06Z</time><name>PT67</name></trkpt>
<trkpt lat="53.119088" lon="-4.122277"><ele>109</ele><time>2020-09-18T09:19:07Z</time><name>PT68</name></trkpt>
<trkpt lat="53.119079" lon="-4.122265"><ele>109</ele><time>2020-09-18T09:19:08Z</time><name>PT69</name></trkpt>
<trkpt lat="53.119069" lon="-4.122256"><ele>109</ele><time>2020-09-18T09:19:09Z</time><name>PT70</name></trkpt>
<trkpt lat="53.119058" lon="-4.122248"><ele>109</ele><time>2020-09-18T09:19:10Z</time><name>PT71</name></trkpt>
<trkpt lat="53.119052" lon="-4.122241"><ele>109</ele><time>2020-09-18T09:19:11Z</time><name>PT72</name></trkpt>
<trkpt lat="53.119043" lon="-4.122232"><ele>109</ele><time>2020-09-18T09:19:12Z</time><name>PT73</name></trkpt>
<trkpt lat="53.119032" lon="-4.122221"><ele>109</ele><time>2020-09-18T09:19:13Z</time><name>PT74</name></trkpt>
<trkpt lat="53.119022" lon="-4.122209"><ele>109</ele><time>2020-09-18T09:19:14Z</time><name>PT75</name></trkpt>
<trkpt lat="53.119014" lon="-4.122198"><ele>109</ele><time>2020-09-18T09:19:15Z</time><name>PT76</name></trkpt>
<trkpt lat="53.119006" lon="-4.122193"><ele>109</ele><time>2020-09-18T09:19:16Z</time><name>PT77</name></trkpt>
<trkpt lat="53.118997" lon="-4.122188"><ele>109</ele><time>2020-09-18T09:19:17Z</time><name>PT78</name></trkpt>
<trkpt lat="53.118991" lon="-4.122183"><ele>109</ele><time>2020-09-18T09:19:18Z</time><name>PT79</name></trkpt>
<trkpt lat="53.118984" lon="-4.122182"><ele>108</ele><time>2020-09-18T09:19:19Z</time><name>PT80</name></trkpt>
<trkpt lat="53.118973" lon="-4.122180"><ele>108</ele><time>2020-09-18T09:19:20Z</time><name>PT81</name></trkpt>
<trkpt lat="53.118966" lon="-4.122189"><ele>107</ele><time>2020-09-18T09:19:21Z</time><name>PT82</name></trkpt>
<trkpt lat="53.118956" lon="-4.122194"><ele>107</ele><time>2020-09-18T09:19:22Z</time><name>PT83</name></trkpt>
<trkpt lat="53.118949" lon="-4.122195"><ele>107</ele><time>2020-09-18T09:19:23Z</time><name>PT84</name></trkpt>
<trkpt lat="53.118942" lon="-4.122194"><ele>106</ele><time>2020-09-18T09:19:24Z</time><name>PT85</name></trkpt>
<trkpt lat="53.118933" lon="-4.122173"><ele>105</ele><time>2020-09-18T09:19:25Z</time><name>PT86</name></trkpt>
<trkpt lat="53.118930" lon="-4.122173"><ele>105</ele><time>2020-09-18T09:19:26Z</time><name>PT87</name></trkpt>
<trkpt lat="53.118927" lon="-4.122172"><ele>105</ele><time>2020-09-18T09:19:27Z</time><name>PT88</name></trkpt>
<trkpt lat="53.118928" lon="-4.122178"><ele>105</ele><time>2020-09-18T09:19:28Z</time><name>PT89</name></trkpt>
<trkpt lat="53.118927" lon="-4.122182"><ele>105</ele><time>2020-09-18T09:19:29Z</time><name>PT90</name></trkpt>
<trkpt lat="53.118922" lon="-4.122180"><ele>104</ele><time>2020-09-18T09:19:30Z</time><name>PT91</name></trkpt>
<trkpt lat="53.118913" lon="-4.122178"><ele>104</ele><time>2020-09-18T09:19:31Z</time><name>PT92</name></trkpt>
<trkpt lat="53.118903" lon="-4.122171"><ele>105</ele><time>2020-09-18T09:19:32Z</time><name>PT93</name></trkpt>
<trkpt lat="53.118894" lon="-4.122170"><ele>104</ele><time>2020-09-18T09:19:33Z</time><name>PT94</name></trkpt>
<trkpt lat="53.118885" lon="-4.122165"><ele>104</ele><time>2020-09-18T09:19:34Z</time><name>PT95</name></trkpt>
<trkpt lat="53.118872" lon="-4.122163"><ele>104</ele><time>2020-09-18T09:19:35Z</time><name>PT96</name></trkpt>
<trkpt lat="53.118859" lon="-4.122164"><ele>105</ele><time>2020-09-18T09:19:36Z</time><name>PT97</name></trkpt>
<trkpt lat="53.118845" lon="-4.122162"><ele>105</ele><time>2020-09-18T09:19:37Z</time><name>PT98</name></trkpt>
<trkpt lat="53.118832" lon="-4.122160"><ele>105</ele><time>2020-09-18T09:19:38Z</time><name>PT99</name></trkpt>
<trkpt lat="53.118818" lon="-4.122158"><ele>105</ele><time>2020-09-18T09:19:39Z</time><name>PT100</name></trkpt>
<trkpt lat="53.118793" lon="-4.122162"><ele>107</ele><time>2020-09-18T09:19:40Z</time><name>PT101</name></trkpt>
<trkpt lat="53.118781" lon="-4.122170"><ele>107</ele><time>2020-09-18T09:19:41Z</time><name>PT102</name></trkpt>
<trkpt lat="53.118769" lon="-4.122180"><ele>107</ele><time>2020-09-18T09:19:42Z</time><name>PT103</name></trkpt>
<trkpt lat="53.118756" lon="-4.122184"><ele>108</ele><time>2020-09-18T09:19:43Z</time><name>PT104</name></trkpt>
<trkpt lat="53.118743" lon="-4.122191"><ele>108</ele><time>2020-09-18T09:19:44Z</time><name>PT105</name></trkpt>
<trkpt lat="53.118727" lon="-4.122195"><ele>108</ele><time>2020-09-18T09:19:45Z</time><name>PT106</name></trkpt>
<trkpt lat="53.118717" lon="-4.122199"><ele>108</ele><time>2020-09-18T09:19:46Z</time><name>PT107</name></trkpt>
<trkpt lat="53.118708" lon="-4.122203"><ele>109</ele><time>2020-09-18T09:19:47Z</time><name>PT108</name></trkpt>
<trkpt lat="53.118698" lon="-4.122203"><ele>109</ele><time>2020-09-18T09:19:48Z</time><name>PT109</name></trkpt>
<trkpt lat="53.118692" lon="-4.122203"><ele>109</ele><time>2020-09-18T09:19:49Z</time><name>PT110</name></trkpt>
<trkpt lat="53.118688" lon="-4.122204"><ele>110</ele><time>2020-09-18T09:19:50Z</time><name>PT111</name></trkpt>
<trkpt lat="53.118679" lon="-4.122213"><ele>110</ele><time>2020-09-18T09:19:51Z</time><name>PT112</name></trkpt>
<trkpt lat="53.118667" lon="-4.122229"><ele>110</ele><time>2020-09-18T09:19:52Z</time><name>PT113</name></trkpt>
<trkpt lat="53.118660" lon="-4.122248"><ele>110</ele><time>2020-09-18T09:19:53Z</time><name>PT114</name></trkpt>
<trkpt lat="53.118653" lon="-4.122267"><ele>110</ele><time>2020-09-18T09:19:54Z</time><name>PT115</name></trkpt>
<trkpt lat="53.118648" lon="-4.122285"><ele>109</ele><time>2020-09-18T09:19:55Z</time><name>PT116</name></trkpt>
<trkpt lat="53.118649" lon="-4.122299"><ele>109</ele><time>2020-09-18T09:19:56Z</time><name>PT117</name></trkpt>
<trkpt lat="53.118648" lon="-4.122318"><ele>109</ele><time>2020-09-18T09:19:57Z</time><name>PT118</name></trkpt>
<trkpt lat="53.118645" lon="-4.122335"><ele>110</ele><time>2020-09-18T09:19:58Z</time><name>PT119</name></trkpt>
<trkpt lat="53.118641" lon="-4.122352"><ele>110</ele><time>2020-09-18T09:19:59Z</time><name>PT120</name></trkpt>
<trkpt lat="53.118636" lon="-4.122364"><ele>110</ele><time>2020-09-18T09:20:00Z</time><name>PT121</name></trkpt>
<trkpt lat="53.118631" lon="-4.122378"><ele>110</ele><time>2020-09-18T09:20:01Z</time><name>PT122</name></trkpt>
<trkpt lat="53.118625" lon="-4.122391"><ele>111</ele><time>2020-09-18T09:20:02Z</time><name>PT123</name></trkpt>
<trkpt lat="53.118617" lon="-4.122401"><ele>111</ele><time>2020-09-18T09:20:03Z</time><name>PT124</name></trkpt>
<trkpt lat="53.118612" lon="-4.122417"><ele>111</ele><time>2020-09-18T09:20:04Z</time><name>PT125</name></trkpt>
<trkpt lat="53.118607" lon="-4.122432"><ele>111</ele><time>2020-09-18T09:20:05Z</time><name>PT126</name></trkpt>
<trkpt lat="53.118605" lon="-4.122447"><ele>111</ele><time>2020-09-18T09:20:06Z</time><name>PT127</name></trkpt>
<trkpt lat="53.118602" lon="-4.122462"><ele>111</ele><time>2020-09-18T09:20:07Z</time><name>PT128</name></trkpt>
<trkpt lat="53.118601" lon="-4.122476"><ele>112</ele><time>2020-09-18T09:20:08Z</time><name>PT129</name></trkpt>
<trkpt lat="53.118598" lon="-4.122489"><ele>112</ele><time>2020-09-18T09:20:09Z</time><name>PT130</name></trkpt>
<trkpt lat="53.118598" lon="-4.122506"><ele>112</ele><time>2020-09-18T09:20:10Z</time><name>PT131</name></trkpt>
<trkpt lat="53.118596" lon="-4.122525"><ele>112</ele><time>2020-09-18T09:20:11Z</time><name>PT132</name></trkpt>
<trkpt lat="53.118595" lon="-4.122543"><ele>111</ele><time>2020-09-18T09:20:12Z</time><name>PT133</name></trkpt>
<trkpt lat="53.118598" lon="-4.122568"><ele>111</ele><time>2020-09-18T09:20:13Z</time><name>PT134</name></trkpt>
<trkpt lat="53.118604" lon="-4.122582"><ele>111</ele><time>2020-09-18T09:20:14Z</time><name>PT135</name></trkpt>
<trkpt lat="53.118608" lon="-4.122597"><ele>112</ele><time>2020-09-18T09:20:15Z</time><name>PT136</name></trkpt>
<trkpt lat="53.118612" lon="-4.122615"><ele>112</ele><time>2020-09-18T09:20:16Z</time><name>PT137</name></trkpt>
<trkpt lat="53.118617" lon="-4.122631"><ele>111</ele><time>2020-09-18T09:20:17Z</time><name>PT138</name></trkpt>
<trkpt lat="53.118623" lon="-4.122648"><ele>111</ele><time>2020-09-18T09:20:18Z</time><name>PT139</name></trkpt>
<trkpt lat="53.118632" lon="-4.122659"><ele>111</ele><time>2020-09-18T09:20:19Z</time><name>PT140</name></trkpt>
<trkpt lat="53.118639" lon="-4.122677"><ele>111</ele><time>2020-09-18T09:20:20Z</time><name>PT141</name></trkpt>
<trkpt lat="53.118648" lon="-4.122695"><ele>112</ele><time>2020-09-18T09:20:21Z</time><name>PT142</name></trkpt>
<trkpt lat="53.118655" lon="-4.122710"><ele>112</ele><time>2020-09-18T09:20:22Z</time><name>PT143</name></trkpt>
<trkpt lat="53.118663" lon="-4.122725"><ele>112</ele><time>2020-09-18T09:20:23Z</time><name>PT144</name></trkpt>
<trkpt lat="53.118672" lon="-4.122735"><ele>111</ele><time>2020-09-18T09:20:24Z</time><name>PT145</name></trkpt>
<trkpt lat="53.118680" lon="-4.122745"><ele>111</ele><time>2020-09-18T09:20:25Z</time><name>PT146</name></trkpt>
<trkpt lat="53.118691" lon="-4.122757"><ele>111</ele><time>2020-09-18T09:20:26Z</time><name>PT147</name></trkpt>
<trkpt lat="53.118699" lon="-4.122773"><ele>112</ele><time>2020-09-18T09:20:27Z</time><name>PT148</name></trkpt>
<trkpt lat="53.118709" lon="-4.122784"><ele>112</ele><time>2020-09-18T09:20:28Z</time><name>PT149</name></trkpt>
<trkpt lat="53.118715" lon="-4.122794"><ele>112</ele><time>2020-09-18T09:20:29Z</time><name>PT150</name></trkpt>
<trkpt lat="53.118721" lon="-4.122810"><ele>112</ele><time>2020-09-18T09:20:30Z</time><name>PT151</name></trkpt>
<trkpt lat="53.118725" lon="-4.122827"><ele>112</ele><time>2020-09-18T09:20:31Z</time><name>PT152</name></trkpt>
<trkpt lat="53.118730" lon="-4.122843"><ele>112</ele><time>2020-09-18T09:20:32Z</time><name>PT153</name></trkpt>
<trkpt lat="53.118736" lon="-4.122854"><ele>112</ele><time>2020-09-18T09:20:33Z</time><name>PT154</name></trkpt>
<trkpt lat="53.118742" lon="-4.122871"><ele>112</ele><time>2020-09-18T09:20:34Z</time><name>PT155</name></trkpt>
<trkpt lat="53.118748" lon="-4.122891"><ele>112</ele><time>2020-09-18T09:20:35Z</time><name>PT156</name></trkpt>
<trkpt lat="53.118752" lon="-4.122911"><ele>112</ele><time>2020-09-18T09:20:36Z</time><name>PT157</name></trkpt>
<trkpt lat="53.118755" lon="-4.122930"><ele>112</ele><time>2020-09-18T09:20:37Z</time><name>PT158</name></trkpt>
<trkpt lat="53.118756" lon="-4.122947"><ele>111</ele><time>2020-09-18T09:20:38Z</time><name>PT159</name></trkpt>
<trkpt lat="53.118757" lon="-4.122966"><ele>111</ele><time>2020-09-18T09:20:39Z</time><name>PT160</name></trkpt>
<trkpt lat="53.118756" lon="-4.122981"><ele>110</ele><time>2020-09-18T09:20:40Z</time><name>PT161</name></trkpt>
<trkpt lat="53.118754" lon="-4.123005"><ele>110</ele><time>2020-09-18T09:20:41Z</time><name>PT162</name></trkpt>
<trkpt lat="53.118754" lon="-4.123025"><ele>110</ele><time>2020-09-18T09:20:42Z</time><name>PT163</name></trkpt>
<trkpt lat="53.118748" lon="-4.123040"><ele>110</ele><time>2020-09-18T09:20:43Z</time><name>PT164</name></trkpt>
<trkpt lat="53.118741" lon="-4.123055"><ele>110</ele><time>2020-09-18T09:20:44Z</time><name>PT165</name></trkpt>
<trkpt lat="53.118735" lon="-4.123077"><ele>109</ele><time>2020-09-18T09:20:45Z</time><name>PT166</name></trkpt>
<trkpt lat="53.118724" lon="-4.123105"><ele>109</ele><time>2020-09-18T09:20:46Z</time><name>PT167</name></trkpt>
<trkpt lat="53.118719" lon="-4.123127"><ele>108</ele><time>2020-09-18T09:20:47Z</time><name>PT168</name></trkpt>
<trkpt lat="53.118713" lon="-4.123162"><ele>108</ele><time>2020-09-18T09:20:48Z</time><name>PT169</name></trkpt>
<trkpt lat="53.118705" lon="-4.123181"><ele>108</ele><time>2020-09-18T09:20:49Z</time><name>PT170</name></trkpt>
<trkpt lat="53.118696" lon="-4.123216"><ele>109</ele><time>2020-09-18T09:20:50Z</time><name>PT171</name></trkpt>
<trkpt lat="53.118689" lon="-4.123239"><ele>109</ele><time>2020-09-18T09:20:51Z</time><name>PT172</name></trkpt>
<trkpt lat="53.118682" lon="-4.123263"><ele>109</ele><time>2020-09-18T09:20:52Z</time><name>PT173</name></trkpt>
<trkpt lat="53.118673" lon="-4.123282"><ele>109</ele><time>2020-09-18T09:20:53Z</time><name>PT174</name></trkpt>
<trkpt lat="53.118663" lon="-4.123299"><ele>109</ele><time>2020-09-18T09:20:54Z</time><name>PT175</name></trkpt>
<trkpt lat="53.118657" lon="-4.123314"><ele>108</ele><time>2020-09-18T09:20:55Z</time><name>PT176</name></trkpt>
<trkpt lat="53.118649" lon="-4.123330"><ele>108</ele><time>2020-09-18T09:20:56Z</time><name>PT177</name></trkpt>
<trkpt lat="53.118635" lon="-4.123350"><ele>108</ele><time>2020-09-18T09:20:57Z</time><name>PT178</name></trkpt>
<trkpt lat="53.118627" lon="-4.123367"><ele>108</ele><time>2020-09-18T09:20:58Z</time><name>PT179</name></trkpt>
<trkpt lat="53.118622" lon="-4.123383"><ele>108</ele><time>2020-09-18T09:20:59Z</time><name>PT180</name></trkpt>
<trkpt lat="53.118613" lon="-4.123402"><ele>108</ele><time>2020-09-18T09:21:00Z</time><name>PT181</name></trkpt>
<trkpt lat="53.118607" lon="-4.123420"><ele>107</ele><time>2020-09-18T09:21:01Z</time><name>PT182</name></trkpt>
<trkpt lat="53.118604" lon="-4.123434"><ele>106</ele><time>2020-09-18T09:21:02Z</time><name>PT183</name></trkpt>
<trkpt lat="53.118596" lon="-4.123449"><ele>106</ele><time>2020-09-18T09:21:03Z</time><name>PT184</name></trkpt>
<trkpt lat="53.118590" lon="-4.123464"><ele>106</ele><time>2020-09-18T09:21:04Z</time><name>PT185</name></trkpt>
<trkpt lat="53.118585" lon="-4.123479"><ele>105</ele><time>2020-09-18T09:21:05Z</time><name>PT186</name></trkpt>
<trkpt lat="53.118578" lon="-4.123495"><ele>105</ele><time>2020-09-18T09:21:06Z</time><name>PT187</name></trkpt>
<trkpt lat="53.118571" lon="-4.123512"><ele>105</ele><time>2020-09-18T09:21:07Z</time><name>PT188</name></trkpt>
<trkpt lat="53.118565" lon="-4.123530"><ele>106</ele><time>2020-09-18T09:21:08Z</time><name>PT189</name></trkpt>
<trkpt lat="53.118555" lon="-4.123545"><ele>105</ele><time>2020-09-18T09:21:09Z</time><name>PT190</name></trkpt>
<trkpt lat="53.118552" lon="-4.123561"><ele>105</ele><time>2020-09-18T09:21:10Z</time><name>PT191</name></trkpt>
<trkpt lat="53.118547" lon="-4.123572"><ele>104</ele><time>2020-09-18T09:21:11Z</time><name>PT192</name></trkpt>
<trkpt lat="53.118535" lon="-4.123587"><ele>106</ele><time>2020-09-18T09:21:12Z</time><name>PT193</name></trkpt>
<trkpt lat="53.118531" lon="-4.123607"><ele>106</ele><time>2020-09-18T09:21:13Z</time><name>PT194</name></trkpt>
<trkpt lat="53.118529" lon="-4.123622"><ele>106</ele><time>2020-09-18T09:21:14Z</time><name>PT195</name></trkpt>
<trkpt lat="53.118531" lon="-4.123631"><ele>105</ele><time>2020-09-18T09:21:15Z</time><name>PT196</name></trkpt>
<trkpt lat="53.118531" lon="-4.123645"><ele>105</ele><time>2020-09-18T09:21:16Z</time><name>PT197</name></trkpt>
<trkpt lat="53.118532" lon="-4.123660"><ele>106</ele><time>2020-09-18T09:21:17Z</time><name>PT198</name></trkpt>
<trkpt lat="53.118531" lon="-4.123681"><ele>106</ele><time>2020-09-18T09:21:18Z</time><name>PT199</name></trkpt>
<trkpt lat="53.118533" lon="-4.123696"><ele>107</ele><time>2020-09-18T09:21:19Z</time><name>PT200</name></trkpt>
<trkpt lat="53.118534" lon="-4.123710"><ele>107</ele><time>2020-09-18T09:21:20Z</time><name>PT201</name></trkpt>
<trkpt lat="53.118535" lon="-4.123720"><ele>107</ele><time>2020-09-18T09:21:21Z</time><name>PT202</name></trkpt>
<trkpt lat="53.118537" lon="-4.123740"><ele>108</ele><time>2020-09-18T09:21:22Z</time><name>PT203</name></trkpt>
<trkpt lat="53.118540" lon="-4.123753"><ele>108</ele><time>2020-09-18T09:21:23Z</time><name>PT204</name></trkpt>
<trkpt lat="53.118545" lon="-4.123767"><ele>107</ele><time>2020-09-18T09:21:24Z</time><name>PT205</name></trkpt>
<trkpt lat="53.118546" lon="-4.123777"><ele>106</ele><time>2020-09-18T09:21:25Z</time><name>PT206</name></trkpt>
<trkpt lat="53.118546" lon="-4.123807"><ele>108</ele><time>2020-09-18T09:21:26Z</time><name>PT207</name></trkpt>
<trkpt lat="53.118544" lon="-4.123838"><ele>108</ele><time>2020-09-18T09:21:27Z</time><name>PT208</name></trkpt>
<trkpt lat="53.118542" lon="-4.123845"><ele>109</ele><time>2020-09-18T09:21:28Z</time><name>PT209</name></trkpt>
<trkpt lat="53.118539" lon="-4.123855"><ele>109</ele><time>2020-09-18T09:21:37Z</time><name>PT210</name></trkpt>
<trkpt lat="53.118534" lon="-4.123864"><ele>109</ele><time>2020-09-18T09:21:38Z</time><name>PT211</name></trkpt>
<trkpt lat="53.118535" lon="-4.123868"><ele>108</ele><time>2020-09-18T09:21:39Z</time><name>PT212</name></trkpt>
<trkpt lat="53.118537" lon="-4.123872"><ele>107</ele><time>2020-09-18T09:21:40Z</time><name>PT213</name></trkpt>
<trkpt lat="53.118545" lon="-4.123873"><ele>107</ele><time>2020-09-18T09:21:41Z</time><name>PT214</name></trkpt>
<trkpt lat="53.118555" lon="-4.123878"><ele>107</ele><time>2020-09-18T09:21:42Z</time><name>PT215</name></trkpt>
<trkpt lat="53.118563" lon="-4.123884"><ele>106</ele><time>2020-09-18T09:21:43Z</time><name>PT216</name></trkpt>
<trkpt lat="53.118566" lon="-4.123894"><ele>106</ele><time>2020-09-18T09:21:44Z</time><name>PT217</name></trkpt>
<trkpt lat="53.118570" lon="-4.123900"><ele>105</ele><time>2020-09-18T09:21:45Z</time><name>PT218</name></trkpt>
<trkpt lat="53.118574" lon="-4.123913"><ele>106</ele><time>2020-09-18T09:21:46Z</time><name>PT219</name></trkpt>
<trkpt lat="53.118579" lon="-4.123928"><ele>105</ele><time>2020-09-18T09:21:47Z</time><name>PT220</name></trkpt>
<trkpt lat="53.118583" lon="-4.123939"><ele>105</ele><time>2020-09-18T09:21:48Z</time><name>PT221</name></trkpt>
<trkpt lat="53.118589" lon="-4.123946"><ele>105</ele><time>2020-09-18T09:21:49Z</time><name>PT222</name></trkpt>
<trkpt lat="53.118593" lon="-4.123968"><ele>104</ele><time>2020-09-18T09:21:50Z</time><name>PT223</name></trkpt>
<trkpt lat="53.118597" lon="-4.124026"><ele>104</ele><time>2020-09-18T09:21:54Z</time><name>PT224</name></trkpt>
<trkpt lat="53.118600" lon="-4.124089"><ele>107</ele><time>2020-09-18T09:21:57Z</time><name>PT225</name></trkpt>
<trkpt lat="53.118618" lon="-4.124175"><ele>107</ele><time>2020-09-18T09:22:01Z</time><name>PT226</name></trkpt>
<trkpt lat="53.118629" lon="-4.124283"><ele>107</ele><time>2020-09-18T09:22:05Z</time><name>PT227</name></trkpt>
<trkpt lat="53.118640" lon="-4.124382"><ele>109</ele><time>2020-09-18T09:22:08Z</time><name>PT228</name></trkpt>
<trkpt lat="53.118661" lon="-4.124494"><ele>110</ele><time>2020-09-18T09:22:12Z</time><name>PT229</name></trkpt>
<trkpt lat="53.118675" lon="-4.124595"><ele>111</ele><time>2020-09-18T09:22:16Z</time><name>PT230</name></trkpt>
<trkpt lat="53.118689" lon="-4.124694"><ele>110</ele><time>2020-09-18T09:22:20Z</time><name>PT231</name></trkpt>
<trkpt lat="53.118714" lon="-4.124766"><ele>111</ele><time>2020-09-18T09:22:24Z</time><name>PT232</name></trkpt>
<trkpt lat="53.118729" lon="-4.124823"><ele>111</ele><time>2020-09-18T09:22:27Z</time><name>PT233</name></trkpt>
<trkpt lat="53.118756" lon="-4.124916"><ele>112</ele><time>2020-09-18T09:22:31Z</time><name>PT234</name></trkpt>
<trkpt lat="53.118786" lon="-4.125011"><ele>112</ele><time>2020-09-18T09:22:35Z</time><name>PT235</name></trkpt>
<trkpt lat="53.118806" lon="-4.125066"><ele>112</ele><time>2020-09-18T09:22:38Z</time><name>PT236</name></trkpt>
<trkpt lat="53.118830" lon="-4.125135"><ele>112</ele><time>2020-09-18T09:22:42Z</time><name>PT237</name></trkpt>
<trkpt lat="53.118846" lon="-4.125184"><ele>111</ele><time>2020-09-18T09:22:45Z</time><name>PT238</name></trkpt>
<trkpt lat="53.118870" lon="-4.125240"><ele>112</ele><time>2020-09-18T09:22:48Z</time><name>PT239</name></trkpt>
<trkpt lat="53.118891" lon="-4.125298"><ele>112</ele><time>2020-09-18T09:22:51Z</time><name>PT240</name></trkpt>
<trkpt lat="53.118919" lon="-4.125360"><ele>112</ele><time>2020-09-18T09:22:55Z</time><name>PT241</name></trkpt>
<trkpt lat="53.118942" lon="-4.125424"><ele>111</ele><time>2020-09-18T09:22:59Z</time><name>PT242</name></trkpt>
<trkpt lat="53.118968" lon="-4.125505"><ele>111</ele><time>2020-09-18T09:23:03Z</time><name>PT243</name></trkpt>
<trkpt lat="53.118993" lon="-4.125573"><ele>112</ele><time>2020-09-18T09:23:07Z</time><name>PT244</name></trkpt>
<trkpt lat="53.119010" lon="-4.125621"><ele>112</ele><time>2020-09-18T09:23:10Z</time><name>PT245</name></trkpt>
<trkpt lat="53.119022" lon="-4.125694"><ele>114</ele><time>2020-09-18T09:23:14Z</time><name>PT246</name></trkpt>
<trkpt lat="53.119017" lon="-4.125718"><ele>114</ele><time>2020-09-18T09:23:18Z</time><name>PT247</name></trkpt>
<trkpt lat="53.119022" lon="-4.125741"><ele>114</ele><time>2020-09-18T09:23:24Z</time><name>PT248</name></trkpt>
<trkpt lat="53.119039" lon="-4.125775"><ele>114</ele><time>2020-09-18T09:23:28Z</time><name>PT249</name></trkpt>
<trkpt lat="53.119040" lon="-4.125789"><ele>114</ele><time>2020-09-18T09:23:31Z</time><name>PT250</name></trkpt>
<trkpt lat="53.119047" lon="-4.125809"><ele>114</ele><time>2020-09-18T09:23:35Z</time><name>PT251</name></trkpt>
<trkpt lat="53.119070" lon="-4.125849"><ele>112</ele><time>2020-09-18T09:23:38Z</time><name>PT252</name></trkpt>
<trkpt lat="53.119102" lon="-4.125890"><ele>112</ele><time>2020-09-18T09:23:42Z</time><name>PT253</name></trkpt>
<trkpt lat="53.119127" lon="-4.125899"><ele>111</ele><time>2020-09-18T09:23:46Z</time><name>PT254</name></trkpt>
<trkpt lat="53.119118" lon="-4.125935"><ele>111</ele><time>2020-09-18T09:23:49Z</time><name>PT255</name></trkpt>
<trkpt lat="53.119103" lon="-4.125984"><ele>111</ele><time>2020-09-18T09:23:52Z</time><name>PT256</name></trkpt>
<trkpt lat="53.119088" lon="-4.126066"><ele>110</ele><time>2020-09-18T09:23:56Z</time><name>PT257</name></trkpt>
<trkpt lat="53.119069" lon="-4.126113"><ele>108</ele><time>2020-09-18T09:23:59Z</time><name>PT258</name></trkpt>
<trkpt lat="53.119045" lon="-4.126146"><ele>107</ele><time>2020-09-18T09:24:02Z</time><name>PT259</name></trkpt>
<trkpt lat="53.119020" lon="-4.126205"><ele>107</ele><time>2020-09-18T09:24:06Z</time><name>PT260</name></trkpt>
<trkpt lat="53.118999" lon="-4.126297"><ele>109</ele><time>2020-09-18T09:24:10Z</time><name>PT261</name></trkpt>
<trkpt lat="53.118980" lon="-4.126359"><ele>110</ele><time>2020-09-18T09:24:13Z</time><name>PT262</name></trkpt>
<trkpt lat="53.118967" lon="-4.126415"><ele>110</ele><time>2020-09-18T09:24:16Z</time><name>PT263</name></trkpt>
<trkpt lat="53.118927" lon="-4.126476"><ele>111</ele><time>2020-09-18T09:24:20Z</time><name>PT264</name></trkpt>
<trkpt lat="53.118905" lon="-4.126506"><ele>110</ele><time>2020-09-18T09:24:23Z</time><name>PT265</name></trkpt>
<trkpt lat="53.118894" lon="-4.126529"><ele>111</ele><time>2020-09-18T09:24:27Z</time><name>PT266</name></trkpt>
<trkpt lat="53.118877" lon="-4.126607"><ele>112</ele><time>2020-09-18T09:24:45Z</time><name>PT267</name></trkpt>
<trkpt lat="53.118855" lon="-4.126672"><ele>109</ele><time>2020-09-18T09:24:49Z</time><name>PT268</name></trkpt>
<trkpt lat="53.118837" lon="-4.126715"><ele>106</ele><time>2020-09-18T09:24:52Z</time><name>PT269</name></trkpt>
<trkpt lat="53.118821" lon="-4.126760"><ele>105</ele><time>2020-09-18T09:24:55Z</time><name>PT270</name></trkpt>
<trkpt lat="53.118797" lon="-4.126830"><ele>104</ele><time>2020-09-18T09:24:59Z</time><name>PT271</name></trkpt>
<trkpt lat="53.118789" lon="-4.126849"><ele>106</ele><time>2020-09-18T09:25:03Z</time><name>PT272</name></trkpt>
<trkpt lat="53.118769" lon="-4.126912"><ele>106</ele><time>2020-09-18T09:25:06Z</time><name>PT273</name></trkpt>
<trkpt lat="53.118756" lon="-4.126986"><ele>106</ele><time>2020-09-18T09:25:10Z</time><name>PT274</name></trkpt>
<trkpt lat="53.118751" lon="-4.127043"><ele>106</ele><time>2020-09-18T09:25:13Z</time><name>PT275</name></trkpt>
<trkpt lat="53.118752" lon="-4.127118"><ele>106</ele><time>2020-09-18T09:25:16Z</time><name>PT276</name></trkpt>
<trkpt lat="53.118749" lon="-4.127152"><ele>105</ele><time>2020-09-18T09:25:20Z</time><name>PT277</name></trkpt>
<trkpt lat="53.118741" lon="-4.127175"><ele>104</ele><time>2020-09-18T09:25:24Z</time><name>PT278</name></trkpt>
<trkpt lat="53.118728" lon="-4.127200"><ele>102</ele><time>2020-09-18T09:25:27Z</time><name>PT279</name></trkpt>
<trkpt lat="53.118734" lon="-4.127258"><ele>102</ele><time>2020-09-18T09:25:30Z</time><name>PT280</name></trkpt>
<trkpt lat="53.118740" lon="-4.127319"><ele>100</ele><time>2020-09-18T09:25:34Z</time><name>PT281</name></trkpt>
<trkpt lat="53.118734" lon="-4.127433"><ele>102</ele><time>2020-09-18T09:25:38Z</time><name>PT282</name></trkpt>
<trkpt lat="53.118733" lon="-4.127628"><ele>109</ele><time>2020-09-18T09:25:42Z</time><name>PT283</name></trkpt>
<trkpt lat="53.118735" lon="-4.127708"><ele>108</ele><time>2020-09-18T09:25:46Z</time><name>PT284</name></trkpt>
<trkpt lat="53.118726" lon="-4.127752"><ele>107</ele><time>2020-09-18T09:25:49Z</time><name>PT285</name></trkpt>
<trkpt lat="53.118706" lon="-4.127803"><ele>105</ele><time>2020-09-18T09:25:53Z</time><name>PT286</name></trkpt>
<trkpt lat="53.118691" lon="-4.127873"><ele>103</ele><time>2020-09-18T09:25:57Z</time><name>PT287</name></trkpt>
<trkpt lat="53.118668" lon="-4.127924"><ele>102</ele><time>2020-09-18T09:26:00Z</time><name>PT288</name></trkpt>
<trkpt lat="53.118636" lon="-4.128022"><ele>103</ele><time>2020-09-18T09:26:04Z</time><name>PT289</name></trkpt>
<trkpt lat="53.118615" lon="-4.128092"><ele>105</ele><time>2020-09-18T09:26:07Z</time><name>PT290</name></trkpt>
<trkpt lat="53.118593" lon="-4.128163"><ele>105</ele><time>2020-09-18T09:26:11Z</time><name>PT291</name></trkpt>
<trkpt lat="53.118561" lon="-4.128226"><ele>108</ele><time>2020-09-18T09:26:14Z</time><name>PT292</name></trkpt>
<trkpt lat="53.118532" lon="-4.128284"><ele>107</ele><time>2020-09-18T09:26:18Z</time><name>PT293</name></trkpt>
<trkpt lat="53.118517" lon="-4.128324"><ele>106</ele><time>2020-09-18T09:26:21Z</time><name>PT294</name></trkpt>
<trkpt lat="53.118488" lon="-4.128367"><ele>105</ele><time>2020-09-18T09:26:25Z</time><name>PT295</name></trkpt>
<trkpt lat="53.118468" lon="-4.128431"><ele>105</ele><time>2020-09-18T09:26:29Z</time><name>PT296</name></trkpt>
<trkpt lat="53.118458" lon="-4.128554"><ele>106</ele><time>2020-09-18T09:26:33Z</time><name>PT297</name></trkpt>
<trkpt lat="53.118453" lon="-4.128664"><ele>110</ele><time>2020-09-18T09:26:37Z</time><name>PT298</name></trkpt>
<trkpt lat="53.118458" lon="-4.128733"><ele>110</ele><time>2020-09-18T09:26:40Z</time><name>PT299</name></trkpt>
<trkpt lat="53.118468" lon="-4.128802"><ele>112</ele><time>2020-09-18T09:26:43Z</time><name>PT300</name></trkpt>
<trkpt lat="53.118492" lon="-4.128866"><ele>112</ele><time>2020-09-18T09:26:46Z</time><name>PT301</name></trkpt>
<trkpt lat="53.118504" lon="-4.128940"><ele>114</ele><time>2020-09-18T09:26:50Z</time><name>PT302</name></trkpt>
<trkpt lat="53.118530" lon="-4.129011"><ele>116</ele><time>2020-09-18T09:26:54Z</time><name>PT303</name></trkpt>
<trkpt lat="53.118556" lon="-4.129082"><ele>118</ele><time>2020-09-18T09:26:58Z</time><name>PT304</name></trkpt>
<trkpt lat="53.118571" lon="-4.129145"><ele>120</ele><time>2020-09-18T09:27:02Z</time><name>PT305</name></trkpt>
<trkpt lat="53.118581" lon="-4.129181"><ele>120</ele><time>2020-09-18T09:27:05Z</time><name>PT306</name></trkpt>
<trkpt lat="53.118610" lon="-4.129229"><ele>122</ele><time>2020-09-18T09:27:09Z</time><name>PT307</name></trkpt>
<trkpt lat="53.118628" lon="-4.129261"><ele>124</ele><time>2020-09-18T09:27:12Z</time><name>PT308</name></trkpt>
<trkpt lat="53.118650" lon="-4.129311"><ele>124</ele><time>2020-09-18T09:27:16Z</time><name>PT309</name></trkpt>
<trkpt lat="53.118667" lon="-4.129345"><ele>126</ele><time>2020-09-18T09:27:19Z</time><name>PT310</name></trkpt>
<trkpt lat="53.118685" lon="-4.129375"><ele>127</ele><time>2020-09-18T09:27:23Z</time><name>PT311</name></trkpt>
<trkpt lat="53.118697" lon="-4.129379"><ele>126</ele><time>2020-09-18T09:27:27Z</time><name>PT312</name></trkpt>
<trkpt lat="53.118731" lon="-4.129431"><ele>128</ele><time>2020-09-18T09:27:31Z</time><name>PT313</name></trkpt>
<trkpt lat="53.118762" lon="-4.129477"><ele>129</ele><time>2020-09-18T09:27:35Z</time><name>PT314</name></trkpt>
<trkpt lat="53.118787" lon="-4.129507"><ele>128</ele><time>2020-09-18T09:27:38Z</time><name>PT315</name></trkpt>
<trkpt lat="53.118817" lon="-4.129562"><ele>129</ele><time>2020-09-18T09:27:42Z</time><name>PT316</name></trkpt>
<trkpt lat="53.118837" lon="-4.129596"><ele>128</ele><time>2020-09-18T09:27:45Z</time><name>PT317</name></trkpt>
<trkpt lat="53.118858" lon="-4.129634"><ele>128</ele><time>2020-09-18T09:27:48Z</time><name>PT318</name></trkpt>
<trkpt lat="53.118877" lon="-4.129673"><ele>127</ele><time>2020-09-18T09:27:52Z</time><name>PT319</name></trkpt>
<trkpt lat="53.118898" lon="-4.129708"><ele>129</ele><time>2020-09-18T09:27:55Z</time><name>PT320</name></trkpt>
<trkpt lat="53.118921" lon="-4.129752"><ele>129</ele><time>2020-09-18T09:27:58Z</time><name>PT321</name></trkpt>
<trkpt lat="53.118947" lon="-4.129804"><ele>130</ele><time>2020-09-18T09:28:02Z</time><name>PT322</name></trkpt>
<trkpt lat="53.118968" lon="-4.129843"><ele>130</ele><time>2020-09-18T09:28:05Z</time><name>PT323</name></trkpt>
<trkpt lat="53.118980" lon="-4.129900"><ele>132</ele><time>2020-09-18T09:28:08Z</time><name>PT324</name></trkpt>
<trkpt lat="53.119002" lon="-4.129961"><ele>132</ele><time>2020-09-18T09:28:12Z</time><name>PT325</name></trkpt>
<trkpt lat="53.119012" lon="-4.130001"><ele>131</ele><time>2020-09-18T09:28:15Z</time><name>PT326</name></trkpt>
<trkpt lat="53.119022" lon="-4.130058"><ele>131</ele><time>2020-09-18T09:28:19Z</time><name>PT327</name></trkpt>
<trkpt lat="53.119036" lon="-4.130121"><ele>131</ele><time>2020-09-18T09:28:23Z</time><name>PT328</name></trkpt>
<trkpt lat="53.119039" lon="-4.130170"><ele>136</ele><time>2020-09-18T09:28:26Z</time><name>PT329</name></trkpt>
<trkpt lat="53.119035" lon="-4.130234"><ele>137</ele><time>2020-09-18T09:28:30Z</time><name>PT330</name></trkpt>
<trkpt lat="53.119038" lon="-4.130305"><ele>139</ele><time>2020-09-18T09:28:34Z</time><name>PT331</name></trkpt>
<trkpt lat="53.119036" lon="-4.130358"><ele>140</ele><time>2020-09-18T09:28:37Z</time><name>PT332</name></trkpt>
<trkpt lat="53.119009" lon="-4.130423"><ele>140</ele><time>2020-09-18T09:28:41Z</time><name>PT333</name></trkpt>
<trkpt lat="53.118991" lon="-4.130451"><ele>139</ele><time>2020-09-18T09:28:44Z</time><name>PT334</name></trkpt>
<trkpt lat="53.118974" lon="-4.130476"><ele>139</ele><time>2020-09-18T09:28:47Z</time><name>PT335</name></trkpt>
<trkpt lat="53.118945" lon="-4.130510"><ele>139</ele><time>2020-09-18T09:28:51Z</time><name>PT336</name></trkpt>
<trkpt lat="53.118925" lon="-4.130538"><ele>139</ele><time>2020-09-18T09:28:55Z</time><name>PT337</name></trkpt>
<trkpt lat="53.118907" lon="-4.130556"><ele>139</ele><time>2020-09-18T09:28:58Z</time><name>PT338</name></trkpt>
<trkpt lat="53.118878" lon="-4.130586"><ele>139</ele><time>2020-09-18T09:29:02Z</time><name>PT339</name></trkpt>
<trkpt lat="53.118857" lon="-4.130611"><ele>139</ele><time>2020-09-18T09:29:05Z</time><name>PT340</name></trkpt>
<trkpt lat="53.118830" lon="-4.130653"><ele>141</ele><time>2020-09-18T09:29:09Z</time><name>PT341</name></trkpt>
<trkpt lat="53.118809" lon="-4.130684"><ele>141</ele><time>2020-09-18T09:29:12Z</time><name>PT342</name></trkpt>
<trkpt lat="53.118784" lon="-4.130730"><ele>141</ele><time>2020-09-18T09:29:16Z</time><name>PT343</name></trkpt>
<trkpt lat="53.118762" lon="-4.130784"><ele>139</ele><time>2020-09-18T09:29:20Z</time><name>PT344</name></trkpt>
<trkpt lat="53.118748" lon="-4.130827"><ele>138</ele><time>2020-09-18T09:29:23Z</time><name>PT345</name></trkpt>
<trkpt lat="53.118735" lon="-4.130862"><ele>138</ele><time>2020-09-18T09:29:26Z</time><name>PT346</name></trkpt>
<trkpt lat="53.118720" lon="-4.130886"><ele>140</ele><time>2020-09-18T09:29:29Z</time><name>PT347</name></trkpt>
<trkpt lat="53.118713" lon="-4.130893"><ele>141</ele><time>2020-09-18T09:29:33Z</time><name>PT348</name></trkpt>
<trkpt lat="53.118696" lon="-4.130930"><ele>142</ele><time>2020-09-18T09:29:40Z</time><name>PT349</name></trkpt>
<trkpt lat="53.118688" lon="-4.130945"><ele>142</ele><time>2020-09-18T09:29:41Z</time><name>PT350</name></trkpt>
<trkpt lat="53.118672" lon="-4.130964"><ele>142</ele><time>2020-09-18T09:29:42Z</time><name>PT351</name></trkpt>
<trkpt lat="53.118665" lon="-4.130983"><ele>142</ele><time>2020-09-18T09:29:43Z</time><name>PT352</name></trkpt>
<trkpt lat="53.118657" lon="-4.130995"><ele>142</ele><time>2020-09-18T09:29:44Z</time><name>PT353</name></trkpt>
<trkpt lat="53.118648" lon="-4.131010"><ele>142</ele><time>2020-09-18T09:29:45Z</time><name>PT354</name></trkpt>
<trkpt lat="53.118642" lon="-4.131024"><ele>142</ele><time>2020-09-18T09:29:46Z</time><name>PT355</name></trkpt>
<trkpt lat="53.118637" lon="-4.131037"><ele>142</ele><time>2020-09-18T09:29:47Z</time><name>PT356</name></trkpt>
<trkpt lat="53.118631" lon="-4.131052"><ele>142</ele><time>2020-09-18T09:29:48Z</time><name>PT357</name></trkpt>
<trkpt lat="53.118626" lon="-4.131064"><ele>142</ele><time>2020-09-18T09:29:49Z</time><name>PT358</name></trkpt>
<trkpt lat="53.118624" lon="-4.131074"><ele>141</ele><time>2020-09-18T09:29:50Z</time><name>PT359</name></trkpt>
<trkpt lat="53.118619" lon="-4.131090"><ele>141</ele><time>2020-09-18T09:29:51Z</time><name>PT360</name></trkpt>
<trkpt lat="53.118616" lon="-4.131107"><ele>141</ele><time>2020-09-18T09:29:52Z</time><name>PT361</name></trkpt>
<trkpt lat="53.118609" lon="-4.131121"><ele>142</ele><time>2020-09-18T09:29:53Z</time><name>PT362</name></trkpt>
<trkpt lat="53.118603" lon="-4.131133"><ele>142</ele><time>2020-09-18T09:29:54Z</time><name>PT363</name></trkpt>
<trkpt lat="53.118598" lon="-4.131148"><ele>142</ele><time>2020-09-18T09:29:55Z</time><name>PT364</name></trkpt>
<trkpt lat="53.118594" lon="-4.131163"><ele>141</ele><time>2020-09-18T09:29:56Z</time><name>PT365</name></trkpt>
<trkpt lat="53.118588" lon="-4.131178"><ele>142</ele><time>2020-09-18T09:29:57Z</time><name>PT366</name></trkpt>
<trkpt lat="53.118582" lon="-4.131191"><ele>141</ele><time>2020-09-18T09:29:58Z</time><name>PT367</name></trkpt>
<trkpt lat="53.118577" lon="-4.131203"><ele>141</ele><time>2020-09-18T09:29:59Z</time><name>PT368</name></trkpt>
<trkpt lat="53.118573" lon="-4.131214"><ele>141</ele><time>2020-09-18T09:30:00Z</time><name>PT369</name></trkpt>
<trkpt lat="53.118568" lon="-4.131228"><ele>141</ele><time>2020-09-18T09:30:01Z</time><name>PT370</name></trkpt>
<trkpt lat="53.118563" lon="-4.131241"><ele>141</ele><time>2020-09-18T09:30:02Z</time><name>PT371</name></trkpt>
<trkpt lat="53.118558" lon="-4.131251"><ele>141</ele><time>2020-09-18T09:30:03Z</time><name>PT372</name></trkpt>
<trkpt lat="53.118556" lon="-4.131261"><ele>141</ele><time>2020-09-18T09:30:04Z</time><name>PT373</name></trkpt>
<trkpt lat="53.118553" lon="-4.131273"><ele>140</ele><time>2020-09-18T09:30:05Z</time><name>PT374</name></trkpt>
<trkpt lat="53.118549" lon="-4.131286"><ele>141</ele><time>2020-09-18T09:30:06Z</time><name>PT375</name></trkpt>
<trkpt lat="53.118545" lon="-4.131298"><ele>140</ele><time>2020-09-18T09:30:07Z</time><name>PT376</name></trkpt>
<trkpt lat="53.118541" lon="-4.131307"><ele>140</ele><time>2020-09-18T09:30:08Z</time><name>PT377</name></trkpt>
<trkpt lat="53.118540" lon="-4.131310"><ele>141</ele><time>2020-09-18T09:30:09Z</time><name>PT378</name></trkpt>
<trkpt lat="53.118539" lon="-4.131312"><ele>141</ele><time>2020-09-18T09:30:10Z</time><name>PT379</name></trkpt>
<trkpt lat="53.118537" lon="-4.131315"><ele>141</ele><time>2020-09-18T09:30:11Z</time><name>PT380</name></trkpt>
<trkpt lat="53.118535" lon="-4.131326"><ele>141</ele><time>2020-09-18T09:30:13Z</time><name>PT381</name></trkpt>
<trkpt lat="53.118531" lon="-4.131337"><ele>141</ele><time>2020-09-18T09:30:14Z</time><name>PT382</name></trkpt>
<trkpt lat="53.118528" lon="-4.131345"><ele>141</ele><time>2020-09-18T09:30:15Z</time><name>PT383</name></trkpt>
<trkpt lat="53.118526" lon="-4.131354"><ele>141</ele><time>2020-09-18T09:30:16Z</time><name>PT384</name></trkpt>
<trkpt lat="53.118526" lon="-4.131360"><ele>141</ele><time>2020-09-18T09:30:17Z</time><name>PT385</name></trkpt>
<trkpt lat="53.118525" lon="-4.131361"><ele>142</ele><time>2020-09-18T09:30:18Z</time><name>PT386</name></trkpt>
<trkpt lat="53.118524" lon="-4.131361"><ele>142</ele><time>2020-09-18T09:30:19Z</time><name>PT387</name></trkpt>
<trkpt lat="53.118522" lon="-4.131368"><ele>142</ele><time>2020-09-18T09:30:35Z</time><name>PT388</name></trkpt>
<trkpt lat="53.118517" lon="-4.131381"><ele>142</ele><time>2020-09-18T09:30:36Z</time><name>PT389</name></trkpt>
<trkpt lat="53.118510" lon="-4.131395"><ele>142</ele><time>2020-09-18T09:30:37Z</time><name>PT390</name></trkpt>
<trkpt lat="53.118504" lon="-4.131407"><ele>143</ele><time>2020-09-18T09:30:38Z</time><name>PT391</name></trkpt>
<trkpt lat="53.118499" lon="-4.131421"><ele>143</ele><time>2020-09-18T09:30:39Z</time><name>PT392</name></trkpt>
<trkpt lat="53.118493" lon="-4.131435"><ele>143</ele><time>2020-09-18T09:30:40Z</time><name>PT393</name></trkpt>
<trkpt lat="53.118487" lon="-4.131447"><ele>143</ele><time>2020-09-18T09:30:41Z</time><name>PT394</name></trkpt>
<trkpt lat="53.118482" lon="-4.131460"><ele>143</ele><time>2020-09-18T09:30:42Z</time><name>PT395</name></trkpt>
<trkpt lat="53.118477" lon="-4.131467"><ele>143</ele><time>2020-09-18T09:30:43Z</time><name>PT396</name></trkpt>
<trkpt lat="53.118474" lon="-4.131469"><ele>143</ele><time>2020-09-18T09:30:44Z</time><name>PT397</name></trkpt>
<trkpt lat="53.118473" lon="-4.131466"><ele>143</ele><time>2020-09-18T09:30:45Z</time><name>PT398</name></trkpt>
<trkpt lat="53.118473" lon="-4.131465"><ele>143</ele><time>2020-09-18T09:30:46Z</time><name>PT399</name></trkpt>
<trkpt lat="53.118473" lon="-4.131466"><ele>143</ele><time>2020-09-18T09:30:47Z</time><name>PT400</name></trkpt>
<trkpt lat="53.118472" lon="-4.131467"><ele>143</ele><time>2020-09-18T09:30:48Z</time><name>PT401</name></trkpt>
<trkpt lat="53.118467" lon="-4.131473"><ele>143</ele><time>2020-09-18T09:31:26Z</time><name>PT402</name></trkpt>
<trkpt lat="53.118462" lon="-4.131476"><ele>143</ele><time>2020-09-18T09:31:27Z</time><name>PT403</name></trkpt>
<trkpt lat="53.118457" lon="-4.131477"><ele>143</ele><time>2020-09-18T09:31:28Z</time><name>PT404</name></trkpt>
<trkpt lat="53.118456" lon="-4.131477"><ele>144</ele><time>2020-09-18T09:31:29Z</time><name>PT405</name></trkpt>
<trkpt lat="53.118455" lon="-4.131487"><ele>144</ele><time>2020-09-18T09:31:42Z</time><name>PT406</name></trkpt>
<trkpt lat="53.118451" lon="-4.131501"><ele>144</ele><time>2020-09-18T09:31:43Z</time><name>PT407</name></trkpt>
<trkpt lat="53.118444" lon="-4.131516"><ele>144</ele><time>2020-09-18T09:31:44Z</time><name>PT408</name></trkpt>
<trkpt lat="53.118440" lon="-4.131532"><ele>143</ele><time>2020-09-18T09:31:45Z</time><name>PT409</name></trkpt>
<trkpt lat="53.118436" lon="-4.131547"><ele>143</ele><time>2020-09-18T09:31:46Z</time><name>PT410</name></trkpt>
<trkpt lat="53.118432" lon="-4.131561"><ele>144</ele><time>2020-09-18T09:31:47Z</time><name>PT411</name></trkpt>
<trkpt lat="53.118427" lon="-4.131579"><ele>144</ele><time>2020-09-18T09:31:48Z</time><name>PT412</name></trkpt>
<trkpt lat="53.118424" lon="-4.131595"><ele>144</ele><time>2020-09-18T09:31:49Z</time><name>PT413</name></trkpt>
<trkpt lat="53.118420" lon="-4.131610"><ele>144</ele><time>2020-09-18T09:31:50Z</time><name>PT414</name></trkpt>
<trkpt lat="53.118417" lon="-4.131627"><ele>144</ele><time>2020-09-18T09:31:51Z</time><name>PT415</name></trkpt>
<trkpt lat="53.118414" lon="-4.131639"><ele>144</ele><time>2020-09-18T09:31:52Z</time><name>PT416</name></trkpt>
<trkpt lat="53.118411" lon="-4.131650"><ele>145</ele><time>2020-09-18T09:31:53Z</time><name>PT417</name></trkpt>
<trkpt lat="53.118406" lon="-4.131664"><ele>144</ele><time>2020-09-18T09:31:54Z</time><name>PT418</name></trkpt>
<trkpt lat="53.118402" lon="-4.131678"><ele>145</ele><time>2020-09-18T09:31:55Z</time><name>PT419</name></trkpt>
<trkpt lat="53.118399" lon="-4.131693"><ele>144</ele><time>2020-09-18T09:31:56Z</time><name>PT420</name></trkpt>
<trkpt lat="53.118395" lon="-4.131714"><ele>145</ele><time>2020-09-18T09:31:57Z</time><name>PT421</name></trkpt>
<trkpt lat="53.118389" lon="-4.131730"><ele>145</ele><time>2020-09-18T09:31:58Z</time><name>PT422</name></trkpt>
<trkpt lat="53.118387" lon="-4.131743"><ele>145</ele><time>2020-09-18T09:31:59Z</time><name>PT423</name></trkpt>
<trkpt lat="53.118381" lon="-4.131759"><ele>145</ele><time>2020-09-18T09:32:00Z</time><name>PT424</name></trkpt>
<trkpt lat="53.118377" lon="-4.131779"><ele>146</ele><time>2020-09-18T09:32:01Z</time><name>PT425</name></trkpt>
<trkpt lat="53.118372" lon="-4.131796"><ele>146</ele><time>2020-09-18T09:32:02Z</time><name>PT426</name></trkpt>
<trkpt lat="53.118368" lon="-4.131812"><ele>146</ele><time>2020-09-18T09:32:03Z</time><name>PT427</name></trkpt>
<trkpt lat="53.118367" lon="-4.131828"><ele>146</ele><time>2020-09-18T09:32:04Z</time><name>PT428</name></trkpt>
<trkpt lat="53.118367" lon="-4.131847"><ele>146</ele><time>2020-09-18T09:32:05Z</time><name>PT429</name></trkpt>
<trkpt lat="53.118364" lon="-4.131863"><ele>147</ele><time>2020-09-18T09:32:06Z</time><name>PT430</name></trkpt>
<trkpt lat="53.118364" lon="-4.131876"><ele>147</ele><time>2020-09-18T09:32:07Z</time><name>PT431</name></trkpt>
<trkpt lat="53.118362" lon="-4.131896"><ele>147</ele><time>2020-09-18T09:32:08Z</time><name>PT432</name></trkpt>
<trkpt lat="53.118360" lon="-4.131912"><ele>147</ele><time>2020-09-18T09:32:09Z</time><name>PT433</name></trkpt>
<trkpt lat="53.118359" lon="-4.131928"><ele>148</ele><time>2020-09-18T09:32:10Z</time><name>PT434</name></trkpt>
<trkpt lat="53.118356" lon="-4.131945"><ele>148</ele><time>2020-09-18T09:32:11Z</time><name>PT435</name></trkpt>
<trkpt lat="53.118353" lon="-4.131961"><ele>148</ele><time>2020-09-18T09:32:12Z</time><name>PT436</name></trkpt>
<trkpt lat="53.118349" lon="-4.131976"><ele>149</ele><time>2020-09-18T09:32:13Z</time><name>PT437</name></trkpt>
<trkpt lat="53.118346" lon="-4.131993"><ele>149</ele><time>2020-09-18T09:32:14Z</time><name>PT438</name></trkpt>
<trkpt lat="53.118343" lon="-4.132009"><ele>150</ele><time>2020-09-18T09:32:15Z</time><name>PT439</name></trkpt>
<trkpt lat="53.118340" lon="-4.132025"><ele>150</ele><time>2020-09-18T09:32:16Z</time><name>PT440</name></trkpt>
<trkpt lat="53.118336" lon="-4.132039"><ele>151</ele><time>2020-09-18T09:32:17Z</time><name>PT441</name></trkpt>
<trkpt lat="53.118332" lon="-4.132059"><ele>151</ele><time>2020-09-18T09:32:18Z</time><name>PT442</name></trkpt>
<trkpt lat="53.118329" lon="-4.132072"><ele>151</ele><time>2020-09-18T09:32:19Z</time><name>PT443</name></trkpt>
<trkpt lat="53.118324" lon="-4.132086"><ele>152</ele><time>2020-09-18T09:32:20Z</time><name>PT444</name></trkpt>
<trkpt lat="53.118320" lon="-4.132102"><ele>152</ele><time>2020-09-18T09:32:21Z</time><name>PT445</name></trkpt>
<trkpt lat="53.118317" lon="-4.132120"><ele>152</ele><time>2020-09-18T09:32:22Z</time><name>PT446</name></trkpt>
<trkpt lat="53.118315" lon="-4.132137"><ele>152</ele><time>2020-09-18T09:32:23Z</time><name>PT447</name></trkpt>
<trkpt lat="53.118317" lon="-4.132151"><ele>151</ele><time>2020-09-18T09:32:24Z</time><name>PT448</name></trkpt>
<trkpt lat="53.118314" lon="-4.132169"><ele>151</ele><time>2020-09-18T09:32:25Z</time><name>PT449</name></trkpt>
<trkpt lat="53.118309" lon="-4.132185"><ele>152</ele><time>2020-09-18T09:32:26Z</time><name>PT450</name></trkpt>
<trkpt lat="53.118304" lon="-4.132201"><ele>151</ele><time>2020-09-18T09:32:27Z</time><name>PT451</name></trkpt>
<trkpt lat="53.118300" lon="-4.132221"><ele>151</ele><time>2020-09-18T09:32:28Z</time><name>PT452</name></trkpt>
<trkpt lat="53.118295" lon="-4.132235"><ele>151</ele><time>2020-09-18T09:32:29Z</time><name>PT453</name></trkpt>
<trkpt lat="53.118289" lon="-4.132252"><ele>151</ele><time>2020-09-18T09:32:30Z</time><name>PT454</name></trkpt>
<trkpt lat="53.118285" lon="-4.132268"><ele>152</ele><time>2020-09-18T09:32:31Z</time><name>PT455</name></trkpt>
<trkpt lat="53.118281" lon="-4.132286"><ele>152</ele><time>2020-09-18T09:32:32Z</time><name>PT456</name></trkpt>
<trkpt lat="53.118279" lon="-4.132304"><ele>153</ele><time>2020-09-18T09:32:33Z</time><name>PT457</name></trkpt>
<trkpt lat="53.118274" lon="-4.132322"><ele>152</ele><time>2020-09-18T09:32:34Z</time><name>PT458</name></trkpt>
<trkpt lat="53.118271" lon="-4.132338"><ele>153</ele><time>2020-09-18T09:32:35Z</time><name>PT459</name></trkpt>
<trkpt lat="53.118268" lon="-4.132359"><ele>152</ele><time>2020-09-18T09:32:36Z</time><name>PT460</name></trkpt>
<trkpt lat="53.118266" lon="-4.132380"><ele>152</ele><time>2020-09-18T09:32:37Z</time><name>PT461</name></trkpt>
<trkpt lat="53.118262" lon="-4.132396"><ele>152</ele><time>2020-09-18T09:32:38Z</time><name>PT462</name></trkpt>
<trkpt lat="53.118258" lon="-4.132410"><ele>151</ele><time>2020-09-18T09:32:39Z</time><name>PT463</name></trkpt>
<trkpt lat="53.118253" lon="-4.132419"><ele>151</ele><time>2020-09-18T09:32:40Z</time><name>PT464</name></trkpt>
<trkpt lat="53.118249" lon="-4.132434"><ele>152</ele><time>2020-09-18T09:32:41Z</time><name>PT465</name></trkpt>
<trkpt lat="53.118246" lon="-4.132448"><ele>152</ele><time>2020-09-18T09:32:42Z</time><name>PT466</name></trkpt>
<trkpt lat="53.118242" lon="-4.132466"><ele>152</ele><time>2020-09-18T09:32:43Z</time><name>PT467</name></trkpt>
<trkpt lat="53.118238" lon="-4.132484"><ele>153</ele><time>2020-09-18T09:32:44Z</time><name>PT468</name></trkpt>
<trkpt lat="53.118236" lon="-4.132495"><ele>154</ele><time>2020-09-18T09:32:45Z</time><name>PT469</name></trkpt>
<trkpt lat="53.118233" lon="-4.132508"><ele>155</ele><time>2020-09-18T09:32:46Z</time><name>PT470</name></trkpt>
<trkpt lat="53.118229" lon="-4.132525"><ele>154</ele><time>2020-09-18T09:32:47Z</time><name>PT471</name></trkpt>
<trkpt lat="53.118223" lon="-4.132536"><ele>154</ele><time>2020-09-18T09:32:48Z</time><name>PT472</name></trkpt>
<trkpt lat="53.118217" lon="-4.132553"><ele>154</ele><time>2020-09-18T09:32:49Z</time><name>PT473</name></trkpt>
<trkpt lat="53.118215" lon="-4.132566"><ele>154</ele><time>2020-09-18T09:32:50Z</time><name>PT474</name></trkpt>
<trkpt lat="53.118211" lon="-4.132582"><ele>154</ele><time>2020-09-18T09:32:51Z</time><name>PT475</name></trkpt>
<trkpt lat="53.118209" lon="-4.132597"><ele>154</ele><time>2020-09-18T09:32:52Z</time><name>PT476</name></trkpt>
<trkpt lat="53.118208" lon="-4.132612"><ele>153</ele><time>2020-09-18T09:32:53Z</time><name>PT477</name></trkpt>
<trkpt lat="53.118204" lon="-4.132629"><ele>153</ele><time>2020-09-18T09:32:54Z</time><name>PT478</name></trkpt>
<trkpt lat="53.118202" lon="-4.132645"><ele>153</ele><time>2020-09-18T09:32:55Z</time><name>PT479</name></trkpt>
<trkpt lat="53.118199" lon="-4.132666"><ele>152</ele><time>2020-09-18T09:32:56Z</time><name>PT480</name></trkpt>
<trkpt lat="53.118194" lon="-4.132679"><ele>153</ele><time>2020-09-18T09:32:57Z</time><name>PT481</name></trkpt>
<trkpt lat="53.118188" lon="-4.132694"><ele>153</ele><time>2020-09-18T09:32:58Z</time><name>PT482</name></trkpt>
<trkpt lat="53.118184" lon="-4.132709"><ele>154</ele><time>2020-09-18T09:32:59Z</time><name>PT483</name></trkpt>
<trkpt lat="53.118180" lon="-4.132722"><ele>153</ele><time>2020-09-18T09:33:00Z</time><name>PT484</name></trkpt>
<trkpt lat="53.118173" lon="-4.132742"><ele>154</ele><time>2020-09-18T09:33:01Z</time><name>PT485</name></trkpt>
<trkpt lat="53.118167" lon="-4.132759"><ele>153</ele><time>2020-09-18T09:33:02Z</time><name>PT486</name></trkpt>
<trkpt lat="53.118161" lon="-4.132777"><ele>153</ele><time>2020-09-18T09:33:03Z</time><name>PT487</name></trkpt>
<trkpt lat="53.118157" lon="-4.132794"><ele>153</ele><time>2020-09-18T09:33:04Z</time><name>PT488</name></trkpt>
<trkpt lat="53.118151" lon="-4.132810"><ele>154</ele><time>2020-09-18T09:33:05Z</time><name>PT489</name></trkpt>
<trkpt lat="53.118147" lon="-4.132829"><ele>154</ele><time>2020-09-18T09:33:06Z</time><name>PT490</name></trkpt>
<trkpt lat="53.118141" lon="-4.132849"><ele>154</ele><time>2020-09-18T09:33:07Z</time><name>PT491</name></trkpt>
<trkpt lat="53.118135" lon="-4.132869"><ele>154</ele><time>2020-09-18T09:33:08Z</time><name>PT492</name></trkpt>
<trkpt lat="53.118129" lon="-4.132883"><ele>154</ele><time>2020-09-18T09:33:09Z</time><name>PT493</name></trkpt>
<trkpt lat="53.118123" lon="-4.132897"><ele>155</ele><time>2020-09-18T09:33:10Z</time><name>PT494</name></trkpt>
<trkpt lat="53.118117" lon="-4.132915"><ele>155</ele><time>2020-09-18T09:33:11Z</time><name>PT495</name></trkpt>
<trkpt lat="53.118111" lon="-4.132935"><ele>156</ele><time>2020-09-18T09:33:12Z</time><name>PT496</name></trkpt>
<trkpt lat="53.118105" lon="-4.132948"><ele>156</ele><time>2020-09-18T09:33:13Z</time><name>PT497</name></trkpt>
<trkpt lat="53.118102" lon="-4.132959"><ele>157</ele><time>2020-09-18T09:33:14Z</time><name>PT498</name></trkpt>
<trkpt lat="53.118099" lon="-4.132974"><ele>156</ele><time>2020-09-18T09:33:15Z</time><name>PT499</name></trkpt>
<trkpt lat="53.118095" lon="-4.132990"><ele>157</ele><time>2020-09-18T09:33:16Z</time><name>PT500</name></trkpt>
<trkpt lat="53.118090" lon="-4.133006"><ele>157</ele><time>2020-09-18T09:33:17Z</time><name>PT501</name></trkpt>
<trkpt lat="53.118087" lon="-4.133022"><ele>157</ele><time>2020-09-18T09:33:18Z</time><name>PT502</name></trkpt>
<trkpt lat="53.118081" lon="-4.133041"><ele>158</ele><time>2020-09-18T09:33:19Z</time><name>PT503</name></trkpt>
<trkpt lat="53.118077" lon="-4.133056"><ele>158</ele><time>2020-09-18T09:33:20Z</time><name>PT504</name></trkpt>
<trkpt lat="53.118073" lon="-4.133075"><ele>158</ele><time>2020-09-18T09:33:21Z</time><name>PT505</name></trkpt>
<trkpt lat="53.118069" lon="-4.133093"><ele>158</ele><time>2020-09-18T09:33:22Z</time><name>PT506</name></trkpt>
<trkpt lat="53.118064" lon="-4.133107"><ele>158</ele><time>2020-09-18T09:33:23Z</time><name>PT507</name></trkpt>
<trkpt lat="53.118060" lon="-4.133120"><ele>158</ele><time>2020-09-18T09:33:24Z</time><name>PT508</name></trkpt>
<trkpt lat="53.118057" lon="-4.133136"><ele>157</ele><time>2020-09-18T09:33:25Z</time><name>PT509</name></trkpt>
<trkpt lat="53.118051" lon="-4.133146"><ele>157</ele><time>2020-09-18T09:33:26Z</time><name>PT510</name></trkpt>
<trkpt lat="53.118047" lon="-4.133158"><ele>157</ele><time>2020-09-18T09:33:27Z</time><name>PT511</name></trkpt>
<trkpt lat="53.118044" lon="-4.133174"><ele>157</ele><time>2020-09-18T09:33:28Z</time><name>PT512</name></trkpt>
<trkpt lat="53.118042" lon="-4.133184"><ele>157</ele><time>2020-09-18T09:33:29Z</time><name>PT513</name></trkpt>
<trkpt lat="53.118040" lon="-4.133198"><ele>157</ele><time>2020-09-18T09:33:30Z</time><name>PT514</name></trkpt>
<trkpt lat="53.118039" lon="-4.133212"><ele>157</ele><time>2020-09-18T09:33:31Z</time><name>PT515</name></trkpt>
<trkpt lat="53.118040" lon="-4.133227"><ele>157</ele><time>2020-09-18T09:33:32Z</time><name>PT516</name></trkpt>
<trkpt lat="53.118041" lon="-4.133243"><ele>157</ele><time>2020-09-18T09:33:33Z</time><name>PT517</name></trkpt>
<trkpt lat="53.118041" lon="-4.133257"><ele>157</ele><time>2020-09-18T09:33:34Z</time><name>PT518</name></trkpt>
<trkpt lat="53.118044" lon="-4.133270"><ele>157</ele><time>2020-09-18T09:33:35Z</time><name>PT519</name></trkpt>
<trkpt lat="53.118045" lon="-4.133284"><ele>158</ele><time>2020-09-18T09:33:36Z</time><name>PT520</name></trkpt>
<trkpt lat="53.118049" lon="-4.133297"><ele>158</ele><time>2020-09-18T09:33:37Z</time><name>PT521</name></trkpt>
<trkpt lat="53.118055" lon="-4.133307"><ele>158</ele><time>2020-09-18T09:33:38Z</time><name>PT522</name></trkpt>
<trkpt lat="53.118060" lon="-4.133318"><ele>158</ele><time>2020-09-18T09:33:39Z</time><name>PT523</name></trkpt>
<trkpt lat="53.118065" lon="-4.133329"><ele>158</ele><time>2020-09-18T09:33:40Z</time><name>PT524</name></trkpt>
<trkpt lat="53.118069" lon="-4.133345"><ele>158</ele><time>2020-09-18T09:33:41Z</time><name>PT525</name></trkpt>
<trkpt lat="53.118074" lon="-4.133358"><ele>158</ele><time>2020-09-18T09:33:42Z</time><name>PT526</name></trkpt>
<trkpt lat="53.118080" lon="-4.133368"><ele>158</ele><time>2020-09-18T09:33:43Z</time><name>PT527</name></trkpt>
<trkpt lat="53.118086" lon="-4.133379"><ele>158</ele><time>2020-09-18T09:33:44Z</time><name>PT528</name></trkpt>
<trkpt lat="53.118092" lon="-4.133390"><ele>158</ele><time>2020-09-18T09:33:45Z</time><name>PT529</name></trkpt>
<trkpt lat="53.118098" lon="-4.133401"><ele>159</ele><time>2020-09-18T09:33:46Z</time><name>PT530</name></trkpt>
<trkpt lat="53.118104" lon="-4.133412"><ele>159</ele><time>2020-09-18T09:33:47Z</time><name>PT531</name></trkpt>
<trkpt lat="53.118110" lon="-4.133426"><ele>159</ele><time>2020-09-18T09:33:48Z</time><name>PT532</name></trkpt>
<trkpt lat="53.118116" lon="-4.133436"><ele>159</ele><time>2020-09-18T09:33:49Z</time><name>PT533</name></trkpt>
<trkpt lat="53.118124" lon="-4.133448"><ele>159</ele><time>2020-09-18T09:33:50Z</time><name>PT534</name></trkpt>
<trkpt lat="53.118132" lon="-4.133461"><ele>159</ele><time>2020-09-18T09:33:51Z</time><name>PT535</name></trkpt>
<trkpt lat="53.118138" lon="-4.133473"><ele>159</ele><time>2020-09-18T09:33:52Z</time><name>PT536</name></trkpt>
<trkpt lat="53.118146" lon="-4.133485"><ele>159</ele><time>2020-09-18T09:33:53Z</time><name>PT537</name></trkpt>
<trkpt lat="53.118153" lon="-4.133498"><ele>159</ele><time>2020-09-18T09:33:54Z</time><name>PT538</name></trkpt>
<trkpt lat="53.118161" lon="-4.133512"><ele>159</ele><time>2020-09-18T09:33:55Z</time><name>PT539</name></trkpt>
<trkpt lat="53.118167" lon="-4.133525"><ele>159</ele><time>2020-09-18T09:33:56Z</time><name>PT540</name></trkpt>
<trkpt lat="53.118173" lon="-4.133542"><ele>159</ele><time>2020-09-18T09:33:57Z</time><name>PT541</name></trkpt>
<trkpt lat="53.118179" lon="-4.133556"><ele>159</ele><time>2020-09-18T09:33:58Z</time><name>PT542</name></trkpt>
<trkpt lat="53.118184" lon="-4.133569"><ele>159</ele><time>2020-09-18T09:33:59Z</time><name>PT543</name></trkpt>
<trkpt lat="53.118190" lon="-4.133581"><ele>159</ele><time>2020-09-18T09:34:00Z</time><name>PT544</name></trkpt>
<trkpt lat="53.118193" lon="-4.133595"><ele>159</ele><time>2020-09-18T09:34:01Z</time><name>PT545</name></trkpt>
<trkpt lat="53.118198" lon="-4.133614"><ele>159</ele><time>2020-09-18T09:34:02Z</time><name>PT546</name></trkpt>
<trkpt lat="53.118203" lon="-4.133631"><ele>160</ele><time>2020-09-18T09:34:03Z</time><name>PT547</name></trkpt>
<trkpt lat="53.118207" lon="-4.133645"><ele>160</ele><time>2020-09-18T09:34:04Z</time><name>PT548</name></trkpt>
<trkpt lat="53.118210" lon="-4.133661"><ele>160</ele><time>2020-09-18T09:34:05Z</time><name>PT549</name></trkpt>
<trkpt lat="53.118212" lon="-4.133676"><ele>160</ele><time>2020-09-18T09:34:06Z</time><name>PT550</name></trkpt>
<trkpt lat="53.118215" lon="-4.133691"><ele>160</ele><time>2020-09-18T09:34:07Z</time><name>PT551</name></trkpt>
<trkpt lat="53.118216" lon="-4.133708"><ele>160</ele><time>2020-09-18T09:34:08Z</time><name>PT552</name></trkpt>
<trkpt lat="53.118218" lon="-4.133722"><ele>160</ele><time>2020-09-18T09:34:09Z</time><name>PT553</name></trkpt>
<trkpt lat="53.118222" lon="-4.133741"><ele>160</ele><time>2020-09-18T09:34:10Z</time><name>PT554</name></trkpt>
<trkpt lat="53.118225" lon="-4.133758"><ele>160</ele><time>2020-09-18T09:34:11Z</time><name>PT555</name></trkpt>
<trkpt lat="53.118227" lon="-4.133774"><ele>160</ele><time>2020-09-18T09:34:12Z</time><name>PT556</name></trkpt>
<trkpt lat="53.118228" lon="-4.133792"><ele>160</ele><time>2020-09-18T09:34:13Z</time><name>PT557</name></trkpt>
<trkpt lat="53.118230" lon="-4.133807"><ele>161</ele><time>2020-09-18T09:34:14Z</time><name>PT558</name></trkpt>
<trkpt lat="53.118231" lon="-4.133821"><ele>160</ele><time>2020-09-18T09:34:15Z</time><name>PT559</name></trkpt>
<trkpt lat="53.118232" lon="-4.133836"><ele>160</ele><time>2020-09-18T09:34:16Z</time><name>PT560</name></trkpt>
<trkpt lat="53.118232" lon="-4.133852"><ele>160</ele><time>2020-09-18T09:34:17Z</time><name>PT561</name></trkpt>
<trkpt lat="53.118234" lon="-4.133872"><ele>160</ele><time>2020-09-18T09:34:18Z</time><name>PT562</name></trkpt>
<trkpt lat="53.118236" lon="-4.133889"><ele>160</ele><time>2020-09-18T09:34:19Z</time><name>PT563</name></trkpt>
<trkpt lat="53.118237" lon="-4.133905"><ele>160</ele><time>2020-09-18T09:34:20Z</time><name>PT564</name></trkpt>
<trkpt lat="53.118238" lon="-4.133919"><ele>160</ele><time>2020-09-18T09:34:21Z</time><name>PT565</name></trkpt>
<trkpt lat="53.118239" lon="-4.133927"><ele>161</ele><time>2020-09-18T09:34:22Z</time><name>PT566</name></trkpt>
<trkpt lat="53.118240" lon="-4.133940"><ele>161</ele><time>2020-09-18T09:34:23Z</time><name>PT567</name></trkpt>
<trkpt lat="53.118241" lon="-4.133948"><ele>161</ele><time>2020-09-18T09:34:24Z</time><name>PT568</name></trkpt>
<trkpt lat="53.118241" lon="-4.133954"><ele>161</ele><time>2020-09-18T09:34:25Z</time><name>PT569</name></trkpt>
<trkpt lat="53.118241" lon="-4.133961"><ele>161</ele><time>2020-09-18T09:34:26Z</time><name>PT570</name></trkpt>
<trkpt lat="53.118240" lon="-4.133970"><ele>161</ele><time>2020-09-18T09:34:27Z</time><name>PT571</name></trkpt>
<trkpt lat="53.118238" lon="-4.133980"><ele>161</ele><time>2020-09-18T09:34:28Z</time><name>PT572</name></trkpt>
<trkpt lat="53.118238" lon="-4.133991"><ele>161</ele><time>2020-09-18T09:34:29Z</time><name>PT573</name></trkpt>
<trkpt lat="53.118238" lon="-4.134002"><ele>161</ele><time>2020-09-18T09:34:30Z</time><name>PT574</name></trkpt>
<trkpt lat="53.118238" lon="-4.134017"><ele>161</ele><time>2020-09-18T09:34:31Z</time><name>PT575</name></trkpt>
<trkpt lat="53.118236" lon="-4.134036"><ele>161</ele><time>2020-09-18T09:34:32Z</time><name>PT576</name></trkpt>
<trkpt lat="53.118233" lon="-4.134055"><ele>161</ele><time>2020-09-18T09:34:33Z</time><name>PT577</name></trkpt>
<trkpt lat="53.118230" lon="-4.134068"><ele>161</ele><time>2020-09-18T09:34:34Z</time><name>PT578</name></trkpt>
<trkpt lat="53.118226" lon="-4.134082"><ele>161</ele><time>2020-09-18T09:34:35Z</time><name>PT579</name></trkpt>
<trkpt lat="53.118223" lon="-4.134098"><ele>161</ele><time>2020-09-18T09:34:36Z</time><name>PT580</name></trkpt>
<trkpt lat="53.118219" lon="-4.134114"><ele>162</ele><time>2020-09-18T09:34:37Z</time><name>PT581</name></trkpt>
<trkpt lat="53.118215" lon="-4.134132"><ele>162</ele><time>2020-09-18T09:34:38Z</time><name>PT582</name></trkpt>
<trkpt lat="53.118210" lon="-4.134142"><ele>162</ele><time>2020-09-18T09:34:39Z</time><name>PT583</name></trkpt>
<trkpt lat="53.118206" lon="-4.134153"><ele>161</ele><time>2020-09-18T09:34:40Z</time><name>PT584</name></trkpt>
<trkpt lat="53.118200" lon="-4.134166"><ele>161</ele><time>2020-09-18T09:34:41Z</time><name>PT585</name></trkpt>
<trkpt lat="53.118198" lon="-4.134181"><ele>161</ele><time>2020-09-18T09:34:42Z</time><name>PT586</name></trkpt>
<trkpt lat="53.118196" lon="-4.134203"><ele>161</ele><time>2020-09-18T09:34:43Z</time><name>PT587</name></trkpt>
<trkpt lat="53.118194" lon="-4.134217"><ele>160</ele><time>2020-09-18T09:34:44Z</time><name>PT588</name></trkpt>
<trkpt lat="53.118191" lon="-4.134226"><ele>161</ele><time>2020-09-18T09:34:45Z</time><name>PT589</name></trkpt>
<trkpt lat="53.118185" lon="-4.134241"><ele>161</ele><time>2020-09-18T09:34:46Z</time><name>PT590</name></trkpt>
<trkpt lat="53.118181" lon="-4.134253"><ele>162</ele><time>2020-09-18T09:34:47Z</time><name>PT591</name></trkpt>
<trkpt lat="53.118179" lon="-4.134260"><ele>161</ele><time>2020-09-18T09:34:48Z</time><name>PT592</name></trkpt>
<trkpt lat="53.118177" lon="-4.134284"><ele>162</ele><time>2020-09-18T09:34:52Z</time><name>PT593</name></trkpt>
<trkpt lat="53.118177" lon="-4.134282"><ele>162</ele><time>2020-09-18T09:34:55Z</time><name>PT594</name></trkpt>
<trkpt lat="53.118172" lon="-4.134279"><ele>162</ele><time>2020-09-18T09:34:59Z</time><name>PT595</name></trkpt>
<trkpt lat="53.118165" lon="-4.134303"><ele>162</ele><time>2020-09-18T09:35:02Z</time><name>PT596</name></trkpt>
<trkpt lat="53.118161" lon="-4.134303"><ele>162</ele><time>2020-09-18T09:35:03Z</time><name>PT597</name></trkpt>
<trkpt lat="53.118161" lon="-4.134305"><ele>162</ele><time>2020-09-18T09:35:04Z</time><name>PT598</name></trkpt>
<trkpt lat="53.118156" lon="-4.134302"><ele>163</ele><time>2020-09-18T09:35:11Z</time><name>PT599</name></trkpt>
<trkpt lat="53.118161" lon="-4.134288"><ele>162</ele><time>2020-09-18T09:35:12Z</time><name>PT600</name></trkpt>
<trkpt lat="53.118163" lon="-4.134270"><ele>162</ele><time>2020-09-18T09:35:13Z</time><name>PT601</name></trkpt>
<trkpt lat="53.118166" lon="-4.134254"><ele>162</ele><time>2020-09-18T09:35:14Z</time><name>PT602</name></trkpt>
<trkpt lat="53.118172" lon="-4.134240"><ele>162</ele><time>2020-09-18T09:35:15Z</time><name>PT603</name></trkpt>
<trkpt lat="53.118177" lon="-4.134224"><ele>162</ele><time>2020-09-18T09:35:16Z</time><name>PT604</name></trkpt>
<trkpt lat="53.118183" lon="-4.134209"><ele>162</ele><time>2020-09-18T09:35:17Z</time><name>PT605</name></trkpt>
<trkpt lat="53.118189" lon="-4.134193"><ele>162</ele><time>2020-09-18T09:35:18Z</time><name>PT606</name></trkpt>
<trkpt lat="53.118190" lon="-4.134181"><ele>162</ele><time>2020-09-18T09:35:19Z</time><name>PT607</name></trkpt>
<trkpt lat="53.118193" lon="-4.134166"><ele>161</ele><time>2020-09-18T09:35:20Z</time><name>PT608</name></trkpt>
<trkpt lat="53.118197" lon="-4.134155"><ele>161</ele><time>2020-09-18T09:35:21Z</time><name>PT609</name></trkpt>
<trkpt lat="53.118202" lon="-4.134144"><ele>161</ele><time>2020-09-18T09:35:22Z</time><name>PT610</name></trkpt>
<trkpt lat="53.118207" lon="-4.134133"><ele>161</ele><time>2020-09-18T09:35:23Z</time><name>PT611</name></trkpt>
<trkpt lat="53.118210" lon="-4.134117"><ele>161</ele><time>2020-09-18T09:35:24Z</time><name>PT612</name></trkpt>
<trkpt lat="53.118211" lon="-4.134104"><ele>160</ele><time>2020-09-18T09:35:25Z</time><name>PT613</name></trkpt>
<trkpt lat="53.118214" lon="-4.134090"><ele>160</ele><time>2020-09-18T09:35:26Z</time><name>PT614</name></trkpt>
<trkpt lat="53.118218" lon="-4.134077"><ele>160</ele><time>2020-09-18T09:35:27Z</time><name>PT615</name></trkpt>
<trkpt lat="53.118223" lon="-4.134064"><ele>159</ele><time>2020-09-18T09:35:28Z</time><name>PT616</name></trkpt>
<trkpt lat="53.118226" lon="-4.134054"><ele>159</ele><time>2020-09-18T09:35:29Z</time><name>PT617</name></trkpt>
<trkpt lat="53.118228" lon="-4.134038"><ele>159</ele><time>2020-09-18T09:35:30Z</time><name>PT618</name></trkpt>
<trkpt lat="53.118229" lon="-4.134027"><ele>159</ele><time>2020-09-18T09:35:31Z</time><name>PT619</name></trkpt>
<trkpt lat="53.118231" lon="-4.134020"><ele>159</ele><time>2020-09-18T09:35:32Z</time><name>PT620</name></trkpt>
<trkpt lat="53.118231" lon="-4.134007"><ele>159</ele><time>2020-09-18T09:35:33Z</time><name>PT621</name></trkpt>
<trkpt lat="53.118231" lon="-4.133994"><ele>159</ele><time>2020-09-18T09:35:34Z</time><name>PT622</name></trkpt>
<trkpt lat="53.118230" lon="-4.133984"><ele>159</ele><time>2020-09-18T09:35:35Z</time><name>PT623</name></trkpt>
<trkpt lat="53.118230" lon="-4.133968"><ele>159</ele><time>2020-09-18T09:35:36Z</time><name>PT624</name></trkpt>
<trkpt lat="53.118230" lon="-4.133950"><ele>159</ele><time>2020-09-18T09:35:37Z</time><name>PT625</name></trkpt>
<trkpt lat="53.118231" lon="-4.133933"><ele>159</ele><time>2020-09-18T09:35:38Z</time><name>PT626</name></trkpt>
<trkpt lat="53.118231" lon="-4.133918"><ele>159</ele><time>2020-09-18T09:35:39Z</time><name>PT627</name></trkpt>
<trkpt lat="53.118230" lon="-4.133905"><ele>159</ele><time>2020-09-18T09:35:40Z</time><name>PT628</name></trkpt>
<trkpt lat="53.118228" lon="-4.133887"><ele>159</ele><time>2020-09-18T09:35:41Z</time><name>PT629</name></trkpt>
<trkpt lat="53.118226" lon="-4.133874"><ele>159</ele><time>2020-09-18T09:35:42Z</time><name>PT630</name></trkpt>
<trkpt lat="53.118223" lon="-4.133860"><ele>159</ele><time>2020-09-18T09:35:43Z</time><name>PT631</name></trkpt>
<trkpt lat="53.118223" lon="-4.133845"><ele>159</ele><time>2020-09-18T09:35:44Z</time><name>PT632</name></trkpt>
<trkpt lat="53.118223" lon="-4.133828"><ele>159</ele><time>2020-09-18T09:35:45Z</time><name>PT633</name></trkpt>
<trkpt lat="53.118222" lon="-4.133813"><ele>159</ele><time>2020-09-18T09:35:46Z</time><name>PT634</name></trkpt>
<trkpt lat="53.118219" lon="-4.133793"><ele>159</ele><time>2020-09-18T09:35:47Z</time><name>PT635</name></trkpt>
<trkpt lat="53.118217" lon="-4.133771"><ele>159</ele><time>2020-09-18T09:35:48Z</time><name>PT636</name></trkpt>
<trkpt lat="53.118216" lon="-4.133751"><ele>159</ele><time>2020-09-18T09:35:49Z</time><name>PT637</name></trkpt>
<trkpt lat="53.118214" lon="-4.133731"><ele>159</ele><time>2020-09-18T09:35:50Z</time><name>PT638</name></trkpt>
<trkpt lat="53.118212" lon="-4.133710"><ele>159</ele><time>2020-09-18T09:35:51Z</time><name>PT639</name></trkpt>
<trkpt lat="53.118209" lon="-4.133694"><ele>159</ele><time>2020-09-18T09:35:52Z</time><name>PT640</name></trkpt>
<trkpt lat="53.118206" lon="-4.133671"><ele>159</ele><time>2020-09-18T09:35:53Z</time><name>PT641</name></trkpt>
<trkpt lat="53.118203" lon="-4.133655"><ele>159</ele><time>2020-09-18T09:35:54Z</time><name>PT642</name></trkpt>
<trkpt lat="53.118199" lon="-4.133637"><ele>159</ele><time>2020-09-18T09:35:55Z</time><name>PT643</name></trkpt>
<trkpt lat="53.118195" lon="-4.133620"><ele>159</ele><time>2020-09-18T09:35:56Z</time><name>PT644</name></trkpt>
<trkpt lat="53.118190" lon="-4.133602"><ele>159</ele><time>2020-09-18T09:35:57Z</time><name>PT645</name></trkpt>
<trkpt lat="53.118184" lon="-4.133582"><ele>159</ele><time>2020-09-18T09:35:58Z</time><name>PT646</name></trkpt>
<trkpt lat="53.118180" lon="-4.133567"><ele>159</ele><time>2020-09-18T09:35:59Z</time><name>PT647</name></trkpt>
<trkpt lat="53.118175" lon="-4.133552"><ele>159</ele><time>2020-09-18T09:36:00Z</time><name>PT648</name></trkpt>
<trkpt lat="53.118168" lon="-4.133539"><ele>159</ele><time>2020-09-18T09:36:01Z</time><name>PT649</name></trkpt>
<trkpt lat="53.118160" lon="-4.133529"><ele>159</ele><time>2020-09-18T09:36:02Z</time><name>PT650</name></trkpt>
<trkpt lat="53.118152" lon="-4.133514"><ele>159</ele><time>2020-09-18T09:36:03Z</time><name>PT651</name></trkpt>
<trkpt lat="53.118145" lon="-4.133506"><ele>158</ele><time>2020-09-18T09:36:04Z</time><name>PT652</name></trkpt>
<trkpt lat="53.118138" lon="-4.133496"><ele>158</ele><time>2020-09-18T09:36:05Z</time><name>PT653</name></trkpt>
<trkpt lat="53.118131" lon="-4.133484"><ele>158</ele><time>2020-09-18T09:36:06Z</time><name>PT654</name></trkpt>
<trkpt lat="53.118127" lon="-4.133478"><ele>158</ele><time>2020-09-18T09:36:07Z</time><name>PT655</name></trkpt>
<trkpt lat="53.118125" lon="-4.133474"><ele>158</ele><time>2020-09-18T09:36:08Z</time><name>PT656</name></trkpt>
<trkpt lat="53.118124" lon="-4.133472"><ele>158</ele><time>2020-09-18T09:36:09Z</time><name>PT657</name></trkpt>
<trkpt lat="53.118119" lon="-4.133468"><ele>158</ele><time>2020-09-18T09:36:10Z</time><name>PT658</name></trkpt>
<trkpt lat="53.118115" lon="-4.133464"><ele>157</ele><time>2020-09-18T09:36:11Z</time><name>PT659</name></trkpt>
<trkpt lat="53.118108" lon="-4.133456"><ele>157</ele><time>2020-09-18T09:36:12Z</time><name>PT660</name></trkpt>
<trkpt lat="53.118101" lon="-4.133445"><ele>157</ele><time>2020-09-18T09:36:13Z</time><name>PT661</name></trkpt>
<trkpt lat="53.118093" lon="-4.133436"><ele>157</ele><time>2020-09-18T09:36:14Z</time><name>PT662</name></trkpt>
<trkpt lat="53.118085" lon="-4.133430"><ele>157</ele><time>2020-09-18T09:36:15Z</time><name>PT663</name></trkpt>
<trkpt lat="53.118077" lon="-4.133425"><ele>156</ele><time>2020-09-18T09:36:16Z</time><name>PT664</name></trkpt>
<trkpt lat="53.118067" lon="-4.133421"><ele>156</ele><time>2020-09-18T09:36:17Z</time><name>PT665</name></trkpt>
<trkpt lat="53.118055" lon="-4.133416"><ele>156</ele><time>2020-09-18T09:36:18Z</time><name>PT666</name></trkpt>
<trkpt lat="53.118047" lon="-4.133414"><ele>156</ele><time>2020-09-18T09:36:19Z</time><name>PT667</name></trkpt>
<trkpt lat="53.118038" lon="-4.133417"><ele>155</ele><time>2020-09-18T09:36:20Z</time><name>PT668</name></trkpt>
<trkpt lat="53.118030" lon="-4.133423"><ele>155</ele><time>2020-09-18T09:36:21Z</time><name>PT669</name></trkpt>
<trkpt lat="53.118022" lon="-4.133432"><ele>156</ele><time>2020-09-18T09:36:22Z</time><name>PT670</name></trkpt>
<trkpt lat="53.118015" lon="-4.133439"><ele>156</ele><time>2020-09-18T09:36:23Z</time><name>PT671</name></trkpt>
<trkpt lat="53.118009" lon="-4.133448"><ele>156</ele><time>2020-09-18T09:36:24Z</time><name>PT672</name></trkpt>
<trkpt lat="53.118006" lon="-4.133459"><ele>157</ele><time>2020-09-18T09:36:25Z</time><name>PT673</name></trkpt>
<trkpt lat="53.118003" lon="-4.133469"><ele>157</ele><time>2020-09-18T09:36:26Z</time><name>PT674</name></trkpt>
<trkpt lat="53.117999" lon="-4.133482"><ele>157</ele><time>2020-09-18T09:36:27Z</time><name>PT675</name></trkpt>
<trkpt lat="53.117996" lon="-4.133495"><ele>158</ele><time>2020-09-18T09:36:28Z</time><name>PT676</name></trkpt>
<trkpt lat="53.117991" lon="-4.133509"><ele>158</ele><time>2020-09-18T09:36:29Z</time><name>PT677</name></trkpt>
<trkpt lat="53.117989" lon="-4.133521"><ele>158</ele><time>2020-09-18T09:36:30Z</time><name>PT678</name></trkpt>
<trkpt lat="53.117986" lon="-4.133537"><ele>158</ele><time>2020-09-18T09:36:31Z</time><name>PT679</name></trkpt>
<trkpt lat="53.117981" lon="-4.133550"><ele>158</ele><time>2020-09-18T09:36:32Z</time><name>PT680</name></trkpt>
<trkpt lat="53.117977" lon="-4.133564"><ele>158</ele><time>2020-09-18T09:36:33Z</time><name>PT681</name></trkpt>
<trkpt lat="53.117974" lon="-4.133578"><ele>158</ele><time>2020-09-18T09:36:34Z</time><name>PT682</name></trkpt>
<trkpt lat="53.117969" lon="-4.133592"><ele>158</ele><time>2020-09-18T09:36:35Z</time><name>PT683</name></trkpt>
<trkpt lat="53.117966" lon="-4.133606"><ele>158</ele><time>2020-09-18T09:36:36Z</time><name>PT684</name></trkpt>
<trkpt lat="53.117960" lon="-4.133619"><ele>158</ele><time>2020-09-18T09:36:37Z</time><name>PT685</name></trkpt>
<trkpt lat="53.117955" lon="-4.133633"><ele>158</ele><time>2020-09-18T09:36:38Z</time><name>PT686</name></trkpt>
<trkpt lat="53.117947" lon="-4.133648"><ele>159</ele><time>2020-09-18T09:36:39Z</time><name>PT687</name></trkpt>
<trkpt lat="53.117942" lon="-4.133661"><ele>159</ele><time>2020-09-18T09:36:40Z</time><name>PT688</name></trkpt>
<trkpt lat="53.117937" lon="-4.133673"><ele>158</ele><time>2020-09-18T09:36:41Z</time><name>PT689</name></trkpt>
<trkpt lat="53.117930" lon="-4.133687"><ele>159</ele><time>2020-09-18T09:36:42Z</time><name>PT690</name></trkpt>
<trkpt lat="53.117923" lon="-4.133698"><ele>159</ele><time>2020-09-18T09:36:43Z</time><name>PT691</name></trkpt>
<trkpt lat="53.117914" lon="-4.133711"><ele>159</ele><time>2020-09-18T09:36:44Z</time><name>PT692</name></trkpt>
<trkpt lat="53.117909" lon="-4.133722"><ele>160</ele><time>2020-09-18T09:36:45Z</time><name>PT693</name></trkpt>
<trkpt lat="53.117902" lon="-4.133736"><ele>160</ele><time>2020-09-18T09:36:46Z</time><name>PT694</name></trkpt>
<trkpt lat="53.117898" lon="-4.133748"><ele>160</ele><time>2020-09-18T09:36:47Z</time><name>PT695</name></trkpt>
<trkpt lat="53.117893" lon="-4.133762"><ele>160</ele><time>2020-09-18T09:36:48Z</time><name>PT696</name></trkpt>
<trkpt lat="53.117886" lon="-4.133772"><ele>160</ele><time>2020-09-18T09:36:49Z</time><name>PT697</name></trkpt>
<trkpt lat="53.117881" lon="-4.133780"><ele>161</ele><time>2020-09-18T09:36:50Z</time><name>PT698</name></trkpt>
<trkpt lat="53.117876" lon="-4.133790"><ele>161</ele><time>2020-09-18T09:36:51Z</time><name>PT699</name></trkpt>
<trkpt lat="53.117869" lon="-4.133802"><ele>161</ele><time>2020-09-18T09:36:52Z</time><name>PT700</name></trkpt>
<trkpt lat="53.117862" lon="-4.133817"><ele>161</ele><time>2020-09-18T09:36:53Z</time><name>PT701</name></trkpt>
<trkpt lat="53.117856" lon="-4.133832"><ele>162</ele><time>2020-09-18T09:36:54Z</time><name>PT702</name></trkpt>
<trkpt lat="53.117850" lon="-4.133845"><ele>162</ele><time>2020-09-18T09:36:55Z</time><name>PT703</name></trkpt>
<trkpt lat="53.117844" lon="-4.133858"><ele>162</ele><time>2020-09-18T09:36:56Z</time><name>PT704</name></trkpt>
<trkpt lat="53.117842" lon="-4.133870"><ele>162</ele><time>2020-09-18T09:36:57Z</time><name>PT705</name></trkpt>
<trkpt lat="53.117837" lon="-4.133879"><ele>163</ele><time>2020-09-18T09:36:58Z</time><name>PT706</name></trkpt>
<trkpt lat="53.117830" lon="-4.133889"><ele>163</ele><time>2020-09-18T09:36:59Z</time><name>PT707</name></trkpt>
<trkpt lat="53.117826" lon="-4.133899"><ele>163</ele><time>2020-09-18T09:37:00Z</time><name>PT708</name></trkpt>
<trkpt lat="53.117822" lon="-4.133912"><ele>163</ele><time>2020-09-18T09:37:01Z</time><name>PT709</name></trkpt>
<trkpt lat="53.117818" lon="-4.133923"><ele>163</ele><time>2020-09-18T09:37:02Z</time><name>PT710</name></trkpt>
<trkpt lat="53.117814" lon="-4.133933"><ele>162</ele><time>2020-09-18T09:37:03Z</time><name>PT711</name></trkpt>
<trkpt lat="53.117810" lon="-4.133942"><ele>162</ele><time>2020-09-18T09:37:04Z</time><name>PT712</name></trkpt>
<trkpt lat="53.117809" lon="-4.133953"><ele>162</ele><time>2020-09-18T09:37:05Z</time><name>PT713</name></trkpt>
<trkpt lat="53.117802" lon="-4.133965"><ele>162</ele><time>2020-09-18T09:37:06Z</time><name>PT714</name></trkpt>
<trkpt lat="53.117799" lon="-4.133978"><ele>162</ele><time>2020-09-18T09:37:07Z</time><name>PT715</name></trkpt>
<trkpt lat="53.117794" lon="-4.133991"><ele>162</ele><time>2020-09-18T09:37:08Z</time><name>PT716</name></trkpt>
<trkpt lat="53.117791" lon="-4.134003"><ele>162</ele><time>2020-09-18T09:37:09Z</time><name>PT717</name></trkpt>
<trkpt lat="53.117781" lon="-4.134000"><ele>162</ele><time>2020-09-18T09:37:10Z</time><name>PT718</name></trkpt>
<trkpt lat="53.117778" lon="-4.134013"><ele>162</ele><time>2020-09-18T09:37:11Z</time><name>PT719</name></trkpt>
<trkpt lat="53.117770" lon="-4.134024"><ele>163</ele><time>2020-09-18T09:37:12Z</time><name>PT720</name></trkpt>
<trkpt lat="53.117765" lon="-4.134035"><ele>163</ele><time>2020-09-18T09:37:13Z</time><name>PT721</name></trkpt>
<trkpt lat="53.117760" lon="-4.134045"><ele>163</ele><time>2020-09-18T09:37:14Z</time><name>PT722</name></trkpt>
<trkpt lat="53.117754" lon="-4.134060"><ele>163</ele><time>2020-09-18T09:37:15Z</time><name>PT723</name></trkpt>
<trkpt lat="53.117750" lon="-4.134074"><ele>163</ele><time>2020-09-18T09:37:16Z</time><name>PT724</name></trkpt>
<trkpt lat="53.117746" lon="-4.134087"><ele>163</ele><time>2020-09-18T09:37:17Z</time><name>PT725</name></trkpt>
<trkpt lat="53.117740" lon="-4.134097"><ele>163</ele><time>2020-09-18T09:37:18Z</time><name>PT726</name></trkpt>
<trkpt lat="53.117736" lon="-4.134110"><ele>163</ele><time>2020-09-18T09:37:19Z</time><name>PT727</name></trkpt>
<trkpt lat="53.117731" lon="-4.134121"><ele>163</ele><time>2020-09-18T09:37:20Z</time><name>PT728</name></trkpt>
<trkpt lat="53.117728" lon="-4.134131"><ele>163</ele><time>2020-09-18T09:37:21Z</time><name>PT729</name></trkpt>
<trkpt lat="53.117720" lon="-4.134145"><ele>163</ele><time>2020-09-18T09:37:22Z</time><name>PT730</name></trkpt>
<trkpt lat="53.117713" lon="-4.134159"><ele>163</ele><time>2020-09-18T09:37:23Z</time><name>PT731</name></trkpt>
<trkpt lat="53.117704" lon="-4.134175"><ele>164</ele><time>2020-09-18T09:37:24Z</time><name>PT732</name></trkpt>
<trkpt lat="53.117699" lon="-4.134188"><ele>164</ele><time>2020-09-18T09:37:25Z</time><name>PT733</name></trkpt>
<trkpt lat="53.117695" lon="-4.134200"><ele>164</ele><time>2020-09-18T09:37:26Z</time><name>PT734</name></trkpt>
<trkpt lat="53.117682" lon="-4.134214"><ele>166</ele><time>2020-09-18T09:37:27Z</time><name>PT735</name></trkpt>
<trkpt lat="53.117676" lon="-4.134220"><ele>166</ele><time>2020-09-18T09:37:28Z</time><name>PT736</name></trkpt>
<trkpt lat="53.117674" lon="-4.134222"><ele>166</ele><time>2020-09-18T09:37:29Z</time><name>PT737</name></trkpt>
<trkpt lat="53.117672" lon="-4.134234"><ele>166</ele><time>2020-09-18T09:37:33Z</time><name>PT738</name></trkpt>
<trkpt lat="53.117673" lon="-4.134259"><ele>166</ele><time>2020-09-18T09:37:34Z</time><name>PT739</name></trkpt>
<trkpt lat="53.117670" lon="-4.134273"><ele>167</ele><time>2020-09-18T09:37:35Z</time><name>PT740</name></trkpt>
<trkpt lat="53.117671" lon="-4.134292"><ele>167</ele><time>2020-09-18T09:37:36Z</time><name>PT741</name></trkpt>
<trkpt lat="53.117668" lon="-4.134310"><ele>167</ele><time>2020-09-18T09:37:37Z</time><name>PT742</name></trkpt>
<trkpt lat="53.117663" lon="-4.134325"><ele>167</ele><time>2020-09-18T09:37:38Z</time><name>PT743</name></trkpt>
<trkpt lat="53.117657" lon="-4.134343"><ele>167</ele><time>2020-09-18T09:37:39Z</time><name>PT744</name></trkpt>
<trkpt lat="53.117649" lon="-4.134358"><ele>168</ele><time>2020-09-18T09:37:40Z</time><name>PT745</name></trkpt>
<trkpt lat="53.117643" lon="-4.134373"><ele>168</ele><time>2020-09-18T09:37:41Z</time><name>PT746</name></trkpt>
<trkpt lat="53.117639" lon="-4.134387"><ele>168</ele><time>2020-09-18T09:37:42Z</time><name>PT747</name></trkpt>
<trkpt lat="53.117635" lon="-4.134403"><ele>169</ele><time>2020-09-18T09:37:43Z</time><name>PT748</name></trkpt>
<trkpt lat="53.117632" lon="-4.134418"><ele>169</ele><time>2020-09-18T09:37:44Z</time><name>PT749</name></trkpt>
<trkpt lat="53.117628" lon="-4.134433"><ele>169</ele><time>2020-09-18T09:37:45Z</time><name>PT750</name></trkpt>
<trkpt lat="53.117625" lon="-4.134445"><ele>169</ele><time>2020-09-18T09:37:46Z</time><name>PT751</name></trkpt>
<trkpt lat="53.117622" lon="-4.134461"><ele>170</ele><time>2020-09-18T09:37:47Z</time><name>PT752</name></trkpt>
<trkpt lat="53.117620" lon="-4.134472"><ele>170</ele><time>2020-09-18T09:37:48Z</time><name>PT753</name></trkpt>
<trkpt lat="53.117620" lon="-4.134483"><ele>170</ele><time>2020-09-18T09:37:49Z</time><name>PT754</name></trkpt>
<trkpt lat="53.117620" lon="-4.134498"><ele>170</ele><time>2020-09-18T09:37:50Z</time><name>PT755</name></trkpt>
<trkpt lat="53.117619" lon="-4.134511"><ele>170</ele><time>2020-09-18T09:37:51Z</time><name>PT756</name></trkpt>
<trkpt lat="53.117620" lon="-4.134524"><ele>170</ele><time>2020-09-18T09:37:52Z</time><name>PT757</name></trkpt>
<trkpt lat="53.117617" lon="-4.134537"><ele>170</ele><time>2020-09-18T09:37:53Z</time><name>PT758</name></trkpt>
<trkpt lat="53.117614" lon="-4.134556"><ele>170</ele><time>2020-09-18T09:37:54Z</time><name>PT759</name></trkpt>
<trkpt lat="53.117613" lon="-4.134571"><ele>170</ele><time>2020-09-18T09:37:55Z</time><name>PT760</name></trkpt>
<trkpt lat="53.117611" lon="-4.134584"><ele>170</ele><time>2020-09-18T09:37:56Z</time><name>PT761</name></trkpt>
<trkpt lat="53.117611" lon="-4.134596"><ele>170</ele><time>2020-09-18T09:37:57Z</time><name>PT762</name></trkpt>
<trkpt lat="53.117609" lon="-4.134610"><ele>170</ele><time>2020-09-18T09:37:58Z</time><name>PT763</name></trkpt>
<trkpt lat="53.117608" lon="-4.134621"><ele>170</ele><time>2020-09-18T09:37:59Z</time><name>PT764</name></trkpt>
<trkpt lat="53.117604" lon="-4.134634"><ele>171</ele><time>2020-09-18T09:38:00Z</time><name>PT765</name></trkpt>
<trkpt lat="53.117601" lon="-4.134647"><ele>171</ele><time>2020-09-18T09:38:01Z</time><name>PT766</name></trkpt>
<trkpt lat="53.117600" lon="-4.134667"><ele>170</ele><time>2020-09-18T09:38:02Z</time><name>PT767</name></trkpt>
<trkpt lat="53.117588" lon="-4.134724"><ele>171</ele><time>2020-09-18T09:38:05Z</time><name>PT768</name></trkpt>
<trkpt lat="53.117580" lon="-4.134776"><ele>172</ele><time>2020-09-18T09:38:08Z</time><name>PT769</name></trkpt>
<trkpt lat="53.117569" lon="-4.134845"><ele>172</ele><time>2020-09-18T09:38:12Z</time><name>PT770</name></trkpt>
<trkpt lat="53.117561" lon="-4.134893"><ele>171</ele><time>2020-09-18T09:38:15Z</time><name>PT771</name></trkpt>
<trkpt lat="53.117551" lon="-4.134945"><ele>172</ele><time>2020-09-18T09:38:18Z</time><name>PT772</name></trkpt>
<trkpt lat="53.117533" lon="-4.135027"><ele>173</ele><time>2020-09-18T09:38:22Z</time><name>PT773</name></trkpt>
<trkpt lat="53.117519" lon="-4.135098"><ele>173</ele><time>2020-09-18T09:38:26Z</time><name>PT774</name></trkpt>
<trkpt lat="53.117496" lon="-4.135169"><ele>174</ele><time>2020-09-18T09:38:30Z</time><name>PT775</name></trkpt>
<trkpt lat="53.117473" lon="-4.135240"><ele>174</ele><time>2020-09-18T09:38:34Z</time><name>PT776</name></trkpt>
<trkpt lat="53.117457" lon="-4.135289"><ele>174</ele><time>2020-09-18T09:38:38Z</time><name>PT777</name></trkpt>
<trkpt lat="53.117434" lon="-4.135333"><ele>174</ele><time>2020-09-18T09:38:42Z</time><name>PT778</name></trkpt>
<trkpt lat="53.117422" lon="-4.135370"><ele>174</ele><time>2020-09-18T09:38:45Z</time><name>PT779</name></trkpt>
<trkpt lat="53.117401" lon="-4.135427"><ele>175</ele><time>2020-09-18T09:38:49Z</time><name>PT780</name></trkpt>
<trkpt lat="53.117386" lon="-4.135474"><ele>176</ele><time>2020-09-18T09:38:53Z</time><name>PT781</name></trkpt>
<trkpt lat="53.117374" lon="-4.135509"><ele>175</ele><time>2020-09-18T09:38:56Z</time><name>PT782</name></trkpt>
<trkpt lat="53.117352" lon="-4.135562"><ele>177</ele><time>2020-09-18T09:39:00Z</time><name>PT783</name></trkpt>
<trkpt lat="53.117337" lon="-4.135611"><ele>177</ele><time>2020-09-18T09:39:03Z</time><name>PT784</name></trkpt>
<trkpt lat="53.117313" lon="-4.135686"><ele>179</ele><time>2020-09-18T09:39:07Z</time><name>PT785</name></trkpt>
<trkpt lat="53.117289" lon="-4.135748"><ele>179</ele><time>2020-09-18T09:39:11Z</time><name>PT786</name></trkpt>
<trkpt lat="53.117273" lon="-4.135778"><ele>178</ele><time>2020-09-18T09:39:14Z</time><name>PT787</name></trkpt>
<trkpt lat="53.117244" lon="-4.135813"><ele>180</ele><time>2020-09-18T09:39:18Z</time><name>PT788</name></trkpt>
<trkpt lat="53.117230" lon="-4.135856"><ele>182</ele><time>2020-09-18T09:39:21Z</time><name>PT789</name></trkpt>
<trkpt lat="53.117203" lon="-4.135930"><ele>182</ele><time>2020-09-18T09:39:25Z</time><name>PT790</name></trkpt>
<trkpt lat="53.117178" lon="-4.135987"><ele>184</ele><time>2020-09-18T09:39:28Z</time><name>PT791</name></trkpt>
<trkpt lat="53.117153" lon="-4.136048"><ele>185</ele><time>2020-09-18T09:39:32Z</time><name>PT792</name></trkpt>
<trkpt lat="53.117130" lon="-4.136100"><ele>185</ele><time>2020-09-18T09:39:36Z</time><name>PT793</name></trkpt>
<trkpt lat="53.117111" lon="-4.136138"><ele>185</ele><time>2020-09-18T09:39:39Z</time><name>PT794</name></trkpt>
<trkpt lat="53.117092" lon="-4.136172"><ele>185</ele><time>2020-09-18T09:39:42Z</time><name>PT795</name></trkpt>
<trkpt lat="53.117075" lon="-4.136202"><ele>185</ele><time>2020-09-18T09:39:45Z</time><name>PT796</name></trkpt>
<trkpt lat="53.117061" lon="-4.136238"><ele>185</ele><time>2020-09-18T09:39:48Z</time><name>PT797</name></trkpt>
<trkpt lat="53.117042" lon="-4.136285"><ele>185</ele><time>2020-09-18T09:39:51Z</time><name>PT798</name></trkpt>
<trkpt lat="53.117016" lon="-4.136340"><ele>185</ele><time>2020-09-18T09:39:55Z</time><name>PT799</name></trkpt>
<trkpt lat="53.116985" lon="-4.136394"><ele>186</ele><time>2020-09-18T09:39:59Z</time><name>PT800</name></trkpt>
<trkpt lat="53.116962" lon="-4.136453"><ele>186</ele><time>2020-09-18T09:40:03Z</time><name>PT801</name></trkpt>
<trkpt lat="53.116948" lon="-4.136509"><ele>185</ele><time>2020-09-18T09:40:07Z</time><name>PT802</name></trkpt>
<trkpt lat="53.116936" lon="-4.136532"><ele>185</ele><time>2020-09-18T09:40:10Z</time><name>PT803</name></trkpt>
<trkpt lat="53.116931" lon="-4.136565"><ele>186</ele><time>2020-09-18T09:40:14Z</time><name>PT804</name></trkpt>
<trkpt lat="53.116924" lon="-4.136592"><ele>187</ele><time>2020-09-18T09:40:17Z</time><name>PT805</name></trkpt>
<trkpt lat="53.116928" lon="-4.136635"><ele>186</ele><time>2020-09-18T09:40:21Z</time><name>PT806</name></trkpt>
<trkpt lat="53.116928" lon="-4.136678"><ele>186</ele><time>2020-09-18T09:40:24Z</time><name>PT807</name></trkpt>
<trkpt lat="53.116922" lon="-4.136736"><ele>186</ele><time>2020-09-18T09:40:28Z</time><name>PT808</name></trkpt>
<trkpt lat="53.116913" lon="-4.136805"><ele>187</ele><time>2020-09-18T09:40:32Z</time><name>PT809</name></trkpt>
<trkpt lat="53.116906" lon="-4.136848"><ele>187</ele><time>2020-09-18T09:40:35Z</time><name>PT810</name></trkpt>
<trkpt lat="53.116898" lon="-4.136918"><ele>187</ele><time>2020-09-18T09:40:39Z</time><name>PT811</name></trkpt>
<trkpt lat="53.116890" lon="-4.136979"><ele>186</ele><time>2020-09-18T09:40:42Z</time><name>PT812</name></trkpt>
<trkpt lat="53.116878" lon="-4.137048"><ele>186</ele><time>2020-09-18T09:40:46Z</time><name>PT813</name></trkpt>
<trkpt lat="53.116867" lon="-4.137103"><ele>186</ele><time>2020-09-18T09:40:50Z</time><name>PT814</name></trkpt>
<trkpt lat="53.116849" lon="-4.137141"><ele>185</ele><time>2020-09-18T09:40:53Z</time><name>PT815</name></trkpt>
<trkpt lat="53.116835" lon="-4.137204"><ele>185</ele><time>2020-09-18T09:40:57Z</time><name>PT816</name></trkpt>
<trkpt lat="53.116823" lon="-4.137249"><ele>186</ele><time>2020-09-18T09:41:00Z</time><name>PT817</name></trkpt>
<trkpt lat="53.116813" lon="-4.137287"><ele>186</ele><time>2020-09-18T09:41:03Z</time><name>PT818</name></trkpt>
<trkpt lat="53.116801" lon="-4.137329"><ele>184</ele><time>2020-09-18T09:41:06Z</time><name>PT819</name></trkpt>
<trkpt lat="53.116786" lon="-4.137386"><ele>185</ele><time>2020-09-18T09:41:10Z</time><name>PT820</name></trkpt>
<trkpt lat="53.116776" lon="-4.137441"><ele>185</ele><time>2020-09-18T09:41:14Z</time><name>PT821</name></trkpt>
<trkpt lat="53.116763" lon="-4.137485"><ele>184</ele><time>2020-09-18T09:41:17Z</time><name>PT822</name></trkpt>
<trkpt lat="53.116745" lon="-4.137529"><ele>185</ele><time>2020-09-18T09:41:21Z</time><name>PT823</name></trkpt>
<trkpt lat="53.116728" lon="-4.137558"><ele>184</ele><time>2020-09-18T09:41:24Z</time><name>PT824</name></trkpt>
<trkpt lat="53.116711" lon="-4.137604"><ele>185</ele><time>2020-09-18T09:41:28Z</time><name>PT825</name></trkpt>
<trkpt lat="53.116695" lon="-4.137651"><ele>187</ele><time>2020-09-18T09:41:32Z</time><name>PT826</name></trkpt>
<trkpt lat="53.116685" lon="-4.137684"><ele>187</ele><time>2020-09-18T09:41:35Z</time><name>PT827</name></trkpt>
<trkpt lat="53.116673" lon="-4.137732"><ele>189</ele><time>2020-09-18T09:41:39Z</time><name>PT828</name></trkpt>
<trkpt lat="53.116662" lon="-4.137776"><ele>191</ele><time>2020-09-18T09:41:42Z</time><name>PT829</name></trkpt>
<trkpt lat="53.116642" lon="-4.137819"><ele>193</ele><time>2020-09-18T09:41:46Z</time><name>PT830</name></trkpt>
<trkpt lat="53.116622" lon="-4.137848"><ele>195</ele><time>2020-09-18T09:41:50Z</time><name>PT831</name></trkpt>
<trkpt lat="53.116601" lon="-4.137864"><ele>196</ele><time>2020-09-18T09:41:53Z</time><name>PT832</name></trkpt>
<trkpt lat="53.116572" lon="-4.137880"><ele>198</ele><time>2020-09-18T09:41:57Z</time><name>PT833</name></trkpt>
<trkpt lat="53.116545" lon="-4.137895"><ele>200</ele><time>2020-09-18T09:42:01Z</time><name>PT834</name></trkpt>
<trkpt lat="53.116529" lon="-4.137904"><ele>200</ele><time>2020-09-18T09:42:04Z</time><name>PT835</name></trkpt>
<trkpt lat="53.116495" lon="-4.137911"><ele>202</ele><time>2020-09-18T09:42:08Z</time><name>PT836</name></trkpt>
<trkpt lat="53.116467" lon="-4.137919"><ele>202</ele><time>2020-09-18T09:42:12Z</time><name>PT837</name></trkpt>
<trkpt lat="53.116443" lon="-4.137928"><ele>202</ele><time>2020-09-18T09:42:15Z</time><name>PT838</name></trkpt>
<trkpt lat="53.116417" lon="-4.137937"><ele>204</ele><time>2020-09-18T09:42:18Z</time><name>PT839</name></trkpt>
<trkpt lat="53.116382" lon="-4.137949"><ele>205</ele><time>2020-09-18T09:42:22Z</time><name>PT840</name></trkpt>
<trkpt lat="53.116352" lon="-4.137961"><ele>205</ele><time>2020-09-18T09:42:25Z</time><name>PT841</name></trkpt>
<trkpt lat="53.116315" lon="-4.137978"><ele>206</ele><time>2020-09-18T09:42:29Z</time><name>PT842</name></trkpt>
<trkpt lat="53.116292" lon="-4.137996"><ele>206</ele><time>2020-09-18T09:42:32Z</time><name>PT843</name></trkpt>
<trkpt lat="53.116265" lon="-4.138013"><ele>206</ele><time>2020-09-18T09:42:35Z</time><name>PT844</name></trkpt>
<trkpt lat="53.116244" lon="-4.138034"><ele>207</ele><time>2020-09-18T09:42:38Z</time><name>PT845</name></trkpt>
<trkpt lat="53.116222" lon="-4.138065"><ele>206</ele><time>2020-09-18T09:42:42Z</time><name>PT846</name></trkpt>
<trkpt lat="53.116195" lon="-4.138093"><ele>206</ele><time>2020-09-18T09:42:46Z</time><name>PT847</name></trkpt>
<trkpt lat="53.116166" lon="-4.138100"><ele>208</ele><time>2020-09-18T09:42:49Z</time><name>PT848</name></trkpt>
<trkpt lat="53.116142" lon="-4.138133"><ele>209</ele><time>2020-09-18T09:42:53Z</time><name>PT849</name></trkpt>
<trkpt lat="53.116116" lon="-4.138154"><ele>210</ele><time>2020-09-18T09:42:56Z</time><name>PT850</name></trkpt>
<trkpt lat="53.116089" lon="-4.138173"><ele>209</ele><time>2020-09-18T09:43:00Z</time><name>PT851</name></trkpt>
<trkpt lat="53.116090" lon="-4.138174"><ele>210</ele><time>2020-09-18T09:43:04Z</time><name>PT852</name></trkpt>
<trkpt lat="53.116069" lon="-4.138195"><ele>209</ele><time>2020-09-18T09:43:14Z</time><name>PT853</name></trkpt>
<trkpt lat="53.116064" lon="-4.138199"><ele>209</ele><time>2020-09-18T09:43:18Z</time><name>PT854</name></trkpt>
<trkpt lat="53.116064" lon="-4.138200"><ele>208</ele><time>2020-09-18T09:43:21Z</time><name>PT855</name></trkpt>
<trkpt lat="53.116063" lon="-4.138207"><ele>209</ele><time>2020-09-18T09:43:25Z</time><name>PT856</name></trkpt>
<trkpt lat="53.116051" lon="-4.138210"><ele>209</ele><time>2020-09-18T09:43:26Z</time><name>PT857</name></trkpt>
<trkpt lat="53.116040" lon="-4.138223"><ele>209</ele><time>2020-09-18T09:43:27Z</time><name>PT858</name></trkpt>
<trkpt lat="53.116027" lon="-4.138233"><ele>210</ele><time>2020-09-18T09:43:28Z</time><name>PT859</name></trkpt>
<trkpt lat="53.116011" lon="-4.138240"><ele>210</ele><time>2020-09-18T09:43:29Z</time><name>PT860</name></trkpt>
<trkpt lat="53.116000" lon="-4.138246"><ele>209</ele><time>2020-09-18T09:43:30Z</time><name>PT861</name></trkpt>
<trkpt lat="53.115988" lon="-4.138252"><ele>210</ele><time>2020-09-18T09:43:31Z</time><name>PT862</name></trkpt>
<trkpt lat="53.115978" lon="-4.138259"><ele>210</ele><time>2020-09-18T09:43:32Z</time><name>PT863</name></trkpt>
<trkpt lat="53.115969" lon="-4.138264"><ele>210</ele><time>2020-09-18T09:43:33Z</time><name>PT864</name></trkpt>
<trkpt lat="53.115959" lon="-4.138272"><ele>210</ele><time>2020-09-18T09:43:34Z</time><name>PT865</name></trkpt>
<trkpt lat="53.115950" lon="-4.138280"><ele>210</ele><time>2020-09-18T09:43:35Z</time><name>PT866</name></trkpt>
<trkpt lat="53.115943" lon="-4.138289"><ele>210</ele><time>2020-09-18T09:43:36Z</time><name>PT867</name></trkpt>
<trkpt lat="53.115932" lon="-4.138295"><ele>210</ele><time>2020-09-18T09:43:37Z</time><name>PT868</name></trkpt>
<trkpt lat="53.115926" lon="-4.138304"><ele>210</ele><time>2020-09-18T09:43:38Z</time><name>PT869</name></trkpt>
<trkpt lat="53.115914" lon="-4.138310"><ele>210</ele><time>2020-09-18T09:43:39Z</time><name>PT870</name></trkpt>
<trkpt lat="53.115903" lon="-4.138318"><ele>210</ele><time>2020-09-18T09:43:40Z</time><name>PT871</name></trkpt>
<trkpt lat="53.115895" lon="-4.138325"><ele>211</ele><time>2020-09-18T09:43:41Z</time><name>PT872</name></trkpt>
<trkpt lat="53.115883" lon="-4.138334"><ele>211</ele><time>2020-09-18T09:43:42Z</time><name>PT873</name></trkpt>
<trkpt lat="53.115871" lon="-4.138343"><ele>211</ele><time>2020-09-18T09:43:43Z</time><name>PT874</name></trkpt>
<trkpt lat="53.115862" lon="-4.138348"><ele>211</ele><time>2020-09-18T09:43:44Z</time><name>PT875</name></trkpt>
<trkpt lat="53.115851" lon="-4.138355"><ele>211</ele><time>2020-09-18T09:43:45Z</time><name>PT876</name></trkpt>
<trkpt lat="53.115841" lon="-4.138361"><ele>212</ele><time>2020-09-18T09:43:46Z</time><name>PT877</name></trkpt>
<trkpt lat="53.115828" lon="-4.138367"><ele>213</ele><time>2020-09-18T09:43:47Z</time><name>PT878</name></trkpt>
<trkpt lat="53.115821" lon="-4.138374"><ele>213</ele><time>2020-09-18T09:43:48Z</time><name>PT879</name></trkpt>
<trkpt lat="53.115812" lon="-4.138378"><ele>213</ele><time>2020-09-18T09:43:49Z</time><name>PT880</name></trkpt>
<trkpt lat="53.115802" lon="-4.138382"><ele>213</ele><time>2020-09-18T09:43:50Z</time><name>PT881</name></trkpt>
<trkpt lat="53.115792" lon="-4.138386"><ele>213</ele><time>2020-09-18T09:43:51Z</time><name>PT882</name></trkpt>
<trkpt lat="53.115784" lon="-4.138392"><ele>213</ele><time>2020-09-18T09:43:52Z</time><name>PT883</name></trkpt>
<trkpt lat="53.115775" lon="-4.138399"><ele>213</ele><time>2020-09-18T09:43:53Z</time><name>PT884</name></trkpt>
<trkpt lat="53.115766" lon="-4.138404"><ele>213</ele><time>2020-09-18T09:43:54Z</time><name>PT885</name></trkpt>
<trkpt lat="53.115757" lon="-4.138410"><ele>213</ele><time>2020-09-18T09:43:55Z</time><name>PT886</name></trkpt>
<trkpt lat="53.115747" lon="-4.138416"><ele>214</ele><time>2020-09-18T09:43:56Z</time><name>PT887</name></trkpt>
<trkpt lat="53.115735" lon="-4.138424"><ele>214</ele><time>2020-09-18T09:43:57Z</time><name>PT888</name></trkpt>
<trkpt lat="53.115727" lon="-4.138431"><ele>214</ele><time>2020-09-18T09:43:58Z</time><name>PT889</name></trkpt>
<trkpt lat="53.115718" lon="-4.138436"><ele>214</ele><time>2020-09-18T09:43:59Z</time><name>PT890</name></trkpt>
<trkpt lat="53.115708" lon="-4.138441"><ele>214</ele><time>2020-09-18T09:44:00Z</time><name>PT891</name></trkpt>
<trkpt lat="53.115698" lon="-4.138446"><ele>214</ele><time>2020-09-18T09:44:01Z</time><name>PT892</name></trkpt>
<trkpt lat="53.115686" lon="-4.138455"><ele>215</ele><time>2020-09-18T09:44:02Z</time><name>PT893</name></trkpt>
<trkpt lat="53.115676" lon="-4.138462"><ele>215</ele><time>2020-09-18T09:44:03Z</time><name>PT894</name></trkpt>
<trkpt lat="53.115667" lon="-4.138468"><ele>215</ele><time>2020-09-18T09:44:04Z</time><name>PT895</name></trkpt>
<trkpt lat="53.115656" lon="-4.138475"><ele>215</ele><time>2020-09-18T09:44:05Z</time><name>PT896</name></trkpt>
<trkpt lat="53.115648" lon="-4.138482"><ele>215</ele><time>2020-09-18T09:44:06Z</time><name>PT897</name></trkpt>
<trkpt lat="53.115637" lon="-4.138489"><ele>216</ele><time>2020-09-18T09:44:07Z</time><name>PT898</name></trkpt>
<trkpt lat="53.115627" lon="-4.138493"><ele>216</ele><time>2020-09-18T09:44:08Z</time><name>PT899</name></trkpt>
<trkpt lat="53.115618" lon="-4.138499"><ele>216</ele><time>2020-09-18T09:44:09Z</time><name>PT900</name></trkpt>
<trkpt lat="53.115609" lon="-4.138505"><ele>216</ele><time>2020-09-18T09:44:10Z</time><name>PT901</name></trkpt>
<trkpt lat="53.115602" lon="-4.138510"><ele>216</ele><time>2020-09-18T09:44:11Z</time><name>PT902</name></trkpt>
<trkpt lat="53.115593" lon="-4.138517"><ele>216</ele><time>2020-09-18T09:44:12Z</time><name>PT903</name></trkpt>
<trkpt lat="53.115586" lon="-4.138525"><ele>216</ele><time>2020-09-18T09:44:13Z</time><name>PT904</name></trkpt>
<trkpt lat="53.115576" lon="-4.138532"><ele>216</ele><time>2020-09-18T09:44:14Z</time><name>PT905</name></trkpt>
<trkpt lat="53.115568" lon="-4.138540"><ele>216</ele><time>2020-09-18T09:44:15Z</time><name>PT906</name></trkpt>
<trkpt lat="53.115563" lon="-4.138548"><ele>216</ele><time>2020-09-18T09:44:16Z</time><name>PT907</name></trkpt>
<trkpt lat="53.115553" lon="-4.138552"><ele>216</ele><time>2020-09-18T09:44:17Z</time><name>PT908</name></trkpt>
<trkpt lat="53.115547" lon="-4.138558"><ele>216</ele><time>2020-09-18T09:44:18Z</time><name>PT909</name></trkpt>
<trkpt lat="53.115540" lon="-4.138565"><ele>216</ele><time>2020-09-18T09:44:19Z</time><name>PT910</name></trkpt>
<trkpt lat="53.115534" lon="-4.138572"><ele>215</ele><time>2020-09-18T09:44:20Z</time><name>PT911</name></trkpt>
<trkpt lat="53.115524" lon="-4.138581"><ele>216</ele><time>2020-09-18T09:44:21Z</time><name>PT912</name></trkpt>
<trkpt lat="53.115516" lon="-4.138587"><ele>216</ele><time>2020-09-18T09:44:22Z</time><name>PT913</name></trkpt>
<trkpt lat="53.115506" lon="-4.138595"><ele>216</ele><time>2020-09-18T09:44:23Z</time><name>PT914</name></trkpt>
<trkpt lat="53.115499" lon="-4.138601"><ele>216</ele><time>2020-09-18T09:44:24Z</time><name>PT915</name></trkpt>
<trkpt lat="53.115490" lon="-4.138609"><ele>216</ele><time>2020-09-18T09:44:25Z</time><name>PT916</name></trkpt>
<trkpt lat="53.115482" lon="-4.138615"><ele>217</ele><time>2020-09-18T09:44:26Z</time><name>PT917</name></trkpt>
<trkpt lat="53.115472" lon="-4.138621"><ele>217</ele><time>2020-09-18T09:44:27Z</time><name>PT918</name></trkpt>
<trkpt lat="53.115463" lon="-4.138626"><ele>217</ele><time>2020-09-18T09:44:28Z</time><name>PT919</name></trkpt>
<trkpt lat="53.115452" lon="-4.138632"><ele>218</ele><time>2020-09-18T09:44:29Z</time><name>PT920</name></trkpt>
<trkpt lat="53.115440" lon="-4.138640"><ele>218</ele><time>2020-09-18T09:44:30Z</time><name>PT921</name></trkpt>
<trkpt lat="53.115430" lon="-4.138645"><ele>219</ele><time>2020-09-18T09:44:31Z</time><name>PT922</name></trkpt>
<trkpt lat="53.115421" lon="-4.138651"><ele>219</ele><time>2020-09-18T09:44:32Z</time><name>PT923</name></trkpt>
<trkpt lat="53.115410" lon="-4.138659"><ele>220</ele><time>2020-09-18T09:44:33Z</time><name>PT924</name></trkpt>
<trkpt lat="53.115397" lon="-4.138666"><ele>220</ele><time>2020-09-18T09:44:34Z</time><name>PT925</name></trkpt>
<trkpt lat="53.115389" lon="-4.138671"><ele>220</ele><time>2020-09-18T09:44:35Z</time><name>PT926</name></trkpt>
<trkpt lat="53.115381" lon="-4.138673"><ele>221</ele><time>2020-09-18T09:44:36Z</time><name>PT927</name></trkpt>
<trkpt lat="53.115374" lon="-4.138675"><ele>221</ele><time>2020-09-18T09:44:37Z</time><name>PT928</name></trkpt>
<trkpt lat="53.115366" lon="-4.138680"><ele>221</ele><time>2020-09-18T09:44:38Z</time><name>PT929</name></trkpt>
<trkpt lat="53.115357" lon="-4.138685"><ele>222</ele><time>2020-09-18T09:44:39Z</time><name>PT930</name></trkpt>
<trkpt lat="53.115348" lon="-4.138691"><ele>221</ele><time>2020-09-18T09:44:40Z</time><name>PT931</name></trkpt>
<trkpt lat="53.115338" lon="-4.138698"><ele>221</ele><time>2020-09-18T09:44:41Z</time><name>PT932</name></trkpt>
<trkpt lat="53.115332" lon="-4.138706"><ele>221</ele><time>2020-09-18T09:44:42Z</time><name>PT933</name></trkpt>
<trkpt lat="53.115322" lon="-4.138709"><ele>221</ele><time>2020-09-18T09:44:43Z</time><name>PT934</name></trkpt>
<trkpt lat="53.115311" lon="-4.138713"><ele>221</ele><time>2020-09-18T09:44:44Z</time><name>PT935</name></trkpt>
<trkpt lat="53.115301" lon="-4.138723"><ele>220</ele><time>2020-09-18T09:44:45Z</time><name>PT936</name></trkpt>
<trkpt lat="53.115291" lon="-4.138729"><ele>221</ele><time>2020-09-18T09:44:46Z</time><name>PT937</name></trkpt>
<trkpt lat="53.115282" lon="-4.138737"><ele>221</ele><time>2020-09-18T09:44:47Z</time><name>PT938</name></trkpt>
<trkpt lat="53.115273" lon="-4.138744"><ele>221</ele><time>2020-09-18T09:44:48Z</time><name>PT939</name></trkpt>
<trkpt lat="53.115265" lon="-4.138750"><ele>221</ele><time>2020-09-18T09:44:49Z</time><name>PT940</name></trkpt>
<trkpt lat="53.115256" lon="-4.138754"><ele>222</ele><time>2020-09-18T09:44:50Z</time><name>PT941</name></trkpt>
<trkpt lat="53.115246" lon="-4.138759"><ele>222</ele><time>2020-09-18T09:44:51Z</time><name>PT942</name></trkpt>
<trkpt lat="53.115240" lon="-4.138767"><ele>222</ele><time>2020-09-18T09:44:52Z</time><name>PT943</name></trkpt>
<trkpt lat="53.115231" lon="-4.138777"><ele>222</ele><time>2020-09-18T09:44:53Z</time><name>PT944</name></trkpt>
<trkpt lat="53.115222" lon="-4.138785"><ele>223</ele><time>2020-09-18T09:44:54Z</time><name>PT945</name></trkpt>
<trkpt lat="53.115213" lon="-4.138788"><ele>223</ele><time>2020-09-18T09:44:55Z</time><name>PT946</name></trkpt>
<trkpt lat="53.115203" lon="-4.138795"><ele>223</ele><time>2020-09-18T09:44:56Z</time><name>PT947</name></trkpt>
<trkpt lat="53.115195" lon="-4.138806"><ele>224</ele><time>2020-09-18T09:44:57Z</time><name>PT948</name></trkpt>
<trkpt lat="53.115187" lon="-4.138816"><ele>224</ele><time>2020-09-18T09:44:58Z</time><name>PT949</name></trkpt>
<trkpt lat="53.115180" lon="-4.138826"><ele>225</ele><time>2020-09-18T09:44:59Z</time><name>PT950</name></trkpt>
<trkpt lat="53.115173" lon="-4.138839"><ele>225</ele><time>2020-09-18T09:45:00Z</time><name>PT951</name></trkpt>
<trkpt lat="53.115166" lon="-4.138852"><ele>225</ele><time>2020-09-18T09:45:01Z</time><name>PT952</name></trkpt>
<trkpt lat="53.115159" lon="-4.138864"><ele>224</ele><time>2020-09-18T09:45:02Z</time><name>PT953</name></trkpt>
<trkpt lat="53.115151" lon="-4.138876"><ele>225</ele><time>2020-09-18T09:45:03Z</time><name>PT954</name></trkpt>
<trkpt lat="53.115147" lon="-4.138886"><ele>225</ele><time>2020-09-18T09:45:04Z</time><name>PT955</name></trkpt>
<trkpt lat="53.115140" lon="-4.138896"><ele>225</ele><time>2020-09-18T09:45:05Z</time><name>PT956</name></trkpt>
<trkpt lat="53.115138" lon="-4.138907"><ele>224</ele><time>2020-09-18T09:45:06Z</time><name>PT957</name></trkpt>
<trkpt lat="53.115133" lon="-4.138917"><ele>225</ele><time>2020-09-18T09:45:07Z</time><name>PT958</name></trkpt>
<trkpt lat="53.115124" lon="-4.138927"><ele>225</ele><time>2020-09-18T09:45:08Z</time><name>PT959</name></trkpt>
<trkpt lat="53.115119" lon="-4.138941"><ele>226</ele><time>2020-09-18T09:45:09Z</time><name>PT960</name></trkpt>
<trkpt lat="53.115110" lon="-4.138951"><ele>226</ele><time>2020-09-18T09:45:10Z</time><name>PT961</name></trkpt>
<trkpt lat="53.115102" lon="-4.138960"><ele>226</ele><time>2020-09-18T09:45:11Z</time><name>PT962</name></trkpt>
<trkpt lat="53.115092" lon="-4.138971"><ele>226</ele><time>2020-09-18T09:45:12Z</time><name>PT963</name></trkpt>
<trkpt lat="53.115084" lon="-4.138983"><ele>226</ele><time>2020-09-18T09:45:13Z</time><name>PT964</name></trkpt>
<trkpt lat="53.115074" lon="-4.138995"><ele>226</ele><time>2020-09-18T09:45:14Z</time><name>PT965</name></trkpt>
<trkpt lat="53.115065" lon="-4.139005"><ele>227</ele><time>2020-09-18T09:45:15Z</time><name>PT966</name></trkpt>
<trkpt lat="53.115055" lon="-4.139019"><ele>227</ele><time>2020-09-18T09:45:16Z</time><name>PT967</name></trkpt>
<trkpt lat="53.115046" lon="-4.139031"><ele>227</ele><time>2020-09-18T09:45:17Z</time><name>PT968</name></trkpt>
<trkpt lat="53.115037" lon="-4.139043"><ele>227</ele><time>2020-09-18T09:45:18Z</time><name>PT969</name></trkpt>
<trkpt lat="53.115028" lon="-4.139051"><ele>227</ele><time>2020-09-18T09:45:19Z</time><name>PT970</name></trkpt>
<trkpt lat="53.115017" lon="-4.139060"><ele>227</ele><time>2020-09-18T09:45:20Z</time><name>PT971</name></trkpt>
<trkpt lat="53.115008" lon="-4.139070"><ele>227</ele><time>2020-09-18T09:45:21Z</time><name>PT972</name></trkpt>
<trkpt lat="53.115001" lon="-4.139077"><ele>227</ele><time>2020-09-18T09:45:22Z</time><name>PT973</name></trkpt>
<trkpt lat="53.114994" lon="-4.139088"><ele>227</ele><time>2020-09-18T09:45:23Z</time><name>PT974</name></trkpt>
<trkpt lat="53.114987" lon="-4.139097"><ele>227</ele><time>2020-09-18T09:45:24Z</time><name>PT975</name></trkpt>
<trkpt lat="53.114980" lon="-4.139110"><ele>227</ele><time>2020-09-18T09:45:25Z</time><name>PT976</name></trkpt>
<trkpt lat="53.114972" lon="-4.139122"><ele>227</ele><time>2020-09-18T09:45:26Z</time><name>PT977</name></trkpt>
<trkpt lat="53.114963" lon="-4.139132"><ele>227</ele><time>2020-09-18T09:45:27Z</time><name>PT978</name></trkpt>
<trkpt lat="53.114956" lon="-4.139144"><ele>227</ele><time>2020-09-18T09:45:28Z</time><name>PT979</name></trkpt>
<trkpt lat="53.114948" lon="-4.139154"><ele>228</ele><time>2020-09-18T09:45:29Z</time><name>PT980</name></trkpt>
<trkpt lat="53.114944" lon="-4.139166"><ele>227</ele><time>2020-09-18T09:45:30Z</time><name>PT981</name></trkpt>
<trkpt lat="53.114936" lon="-4.139176"><ele>228</ele><time>2020-09-18T09:45:31Z</time><name>PT982</name></trkpt>
<trkpt lat="53.114931" lon="-4.139187"><ele>228</ele><time>2020-09-18T09:45:32Z</time><name>PT983</name></trkpt>
<trkpt lat="53.114924" lon="-4.139199"><ele>228</ele><time>2020-09-18T09:45:33Z</time><name>PT984</name></trkpt>
<trkpt lat="53.114919" lon="-4.139209"><ele>228</ele><time>2020-09-18T09:45:34Z</time><name>PT985</name></trkpt>
<trkpt lat="53.114915" lon="-4.139220"><ele>228</ele><time>2020-09-18T09:45:35Z</time><name>PT986</name></trkpt>
<trkpt lat="53.114908" lon="-4.139232"><ele>228</ele><time>2020-09-18T09:45:36Z</time><name>PT987</name></trkpt>
<trkpt lat="53.114903" lon="-4.139243"><ele>228</ele><time>2020-09-18T09:45:37Z</time><name>PT988</name></trkpt>
<trkpt lat="53.114895" lon="-4.139254"><ele>228</ele><time>2020-09-18T09:45:38Z</time><name>PT989</name></trkpt>
<trkpt lat="53.114890" lon="-4.139262"><ele>228</ele><time>2020-09-18T09:45:39Z</time><name>PT990</name></trkpt>
<trkpt lat="53.114883" lon="-4.139273"><ele>229</ele><time>2020-09-18T09:45:40Z</time><name>PT991</name></trkpt>
<trkpt lat="53.114878" lon="-4.139287"><ele>229</ele><time>2020-09-18T09:45:41Z</time><name>PT992</name></trkpt>
<trkpt lat="53.114874" lon="-4.139302"><ele>229</ele><time>2020-09-18T09:45:42Z</time><name>PT993</name></trkpt>
<trkpt lat="53.114869" lon="-4.139317"><ele>229</ele><time>2020-09-18T09:45:43Z</time><name>PT994</name></trkpt>
<trkpt lat="53.114863" lon="-4.139329"><ele>229</ele><time>2020-09-18T09:45:44Z</time><name>PT995</name></trkpt>
<trkpt lat="53.114857" lon="-4.139338"><ele>230</ele><time>2020-09-18T09:45:45Z</time><name>PT996</name></trkpt>
<trkpt lat="53.114848" lon="-4.139353"><ele>230</ele><time>2020-09-18T09:45:46Z</time><name>PT997</name></trkpt>
<trkpt lat="53.114839" lon="-4.139367"><ele>231</ele><time>2020-09-18T09:45:47Z</time><name>PT998</name></trkpt>
<trkpt lat="53.114834" lon="-4.139382"><ele>231</ele><time>2020-09-18T09:45:48Z</time><name>PT999</name></trkpt>
<trkpt lat="53.114828" lon="-4.139397"><ele>231</ele><time>2020-09-18T09:45:49Z</time><name>PT1000</name></trkpt>
<trkpt lat="53.114822" lon="-4.139412"><ele>232</ele><time>2020-09-18T09:45:50Z</time><name>PT1001</name></trkpt>
<trkpt lat="53.114816" lon="-4.139424"><ele>232</ele><time>2020-09-18T09:45:51Z</time><name>PT1002</name></trkpt>
<trkpt lat="53.114807" lon="-4.139438"><ele>232</ele><time>2020-09-18T09:45:52Z</time><name>PT1003</name></trkpt>
<trkpt lat="53.114803" lon="-4.139454"><ele>232</ele><time>2020-09-18T09:45:53Z</time><name>PT1004</name></trkpt>
<trkpt lat="53.114794" lon="-4.139471"><ele>232</ele><time>2020-09-18T09:45:54Z</time><name>PT1005</name></trkpt>
<trkpt lat="53.114786" lon="-4.139485"><ele>233</ele><time>2020-09-18T09:45:55Z</time><name>PT1006</name></trkpt>
<trkpt lat="53.114776" lon="-4.139500"><ele>233</ele><time>2020-09-18T09:45:56Z</time><name>PT1007</name></trkpt>
<trkpt lat="53.114770" lon="-4.139510"><ele>233</ele><time>2020-09-18T09:45:57Z</time><name>PT1008</name></trkpt>
<trkpt lat="53.114764" lon="-4.139521"><ele>234</ele><time>2020-09-18T09:45:58Z</time><name>PT1009</name></trkpt>
<trkpt lat="53.114757" lon="-4.139533"><ele>234</ele><time>2020-09-18T09:45:59Z</time><name>PT1010</name></trkpt>
<trkpt lat="53.114750" lon="-4.139546"><ele>234</ele><time>2020-09-18T09:46:00Z</time><name>PT1011</name></trkpt>
<trkpt lat="53.114741" lon="-4.139559"><ele>234</ele><time>2020-09-18T09:46:01Z</time><name>PT1012</name></trkpt>
<trkpt lat="53.114733" lon="-4.139574"><ele>233</ele><time>2020-09-18T09:46:02Z</time><name>PT1013</name></trkpt>
<trkpt lat="53.114724" lon="-4.139588"><ele>234</ele><time>2020-09-18T09:46:03Z</time><name>PT1014</name></trkpt>
<trkpt lat="53.114713" lon="-4.139602"><ele>234</ele><time>2020-09-18T09:46:04Z</time><name>PT1015</name></trkpt>
<trkpt lat="53.114703" lon="-4.139615"><ele>234</ele><time>2020-09-18T09:46:05Z</time><name>PT1016</name></trkpt>
<trkpt lat="53.114694" lon="-4.139627"><ele>234</ele><time>2020-09-18T09:46:06Z</time><name>PT1017</name></trkpt>
<trkpt lat="53.114684" lon="-4.139636"><ele>234</ele><time>2020-09-18T09:46:07Z</time><name>PT1018</name></trkpt>
<trkpt lat="53.114674" lon="-4.139646"><ele>234</ele><time>2020-09-18T09:46:08Z</time><name>PT1019</name></trkpt>
<trkpt lat="53.114665" lon="-4.139652"><ele>234</ele><time>2020-09-18T09:46:09Z</time><name>PT1020</name></trkpt>
<trkpt lat="53.114656" lon="-4.139660"><ele>234</ele><time>2020-09-18T09:46:10Z</time><name>PT1021</name></trkpt>
<trkpt lat="53.114645" lon="-4.139667"><ele>234</ele><time>2020-09-18T09:46:11Z</time><name>PT1022</name></trkpt>
<trkpt lat="53.114633" lon="-4.139675"><ele>234</ele><time>2020-09-18T09:46:12Z</time><name>PT1023</name></trkpt>
<trkpt lat="53.114618" lon="-4.139682"><ele>234</ele><time>2020-09-18T09:46:13Z</time><name>PT1024</name></trkpt>
<trkpt lat="53.114604" lon="-4.139689"><ele>234</ele><time>2020-09-18T09:46:14Z</time><name>PT1025</name></trkpt>
<trkpt lat="53.114593" lon="-4.139693"><ele>234</ele><time>2020-09-18T09:46:15Z</time><name>PT1026</name></trkpt>
<trkpt lat="53.114584" lon="-4.139699"><ele>234</ele><time>2020-09-18T09:46:16Z</time><name>PT1027</name></trkpt>
<trkpt lat="53.114573" lon="-4.139707"><ele>235</ele><time>2020-09-18T09:46:17Z</time><name>PT1028</name></trkpt>
<trkpt lat="53.114562" lon="-4.139716"><ele>235</ele><time>2020-09-18T09:46:18Z</time><name>PT1029</name></trkpt>
<trkpt lat="53.114553" lon="-4.139720"><ele>234</ele><time>2020-09-18T09:46:19Z</time><name>PT1030</name></trkpt>
<trkpt lat="53.114544" lon="-4.139729"><ele>234</ele><time>2020-09-18T09:46:20Z</time><name>PT1031</name></trkpt>
<trkpt lat="53.114511" lon="-4.139761"><ele>235</ele><time>2020-09-18T09:46:24Z</time><name>PT1032</name></trkpt>
<trkpt lat="53.114485" lon="-4.139786"><ele>235</ele><time>2020-09-18T09:46:27Z</time><name>PT1033</name></trkpt>
<trkpt lat="53.114462" lon="-4.139813"><ele>235</ele><time>2020-09-18T09:46:30Z</time><name>PT1034</name></trkpt>
<trkpt lat="53.114429" lon="-4.139848"><ele>235</ele><time>2020-09-18T09:46:34Z</time><name>PT1035</name></trkpt>
<trkpt lat="53.114401" lon="-4.139888"><ele>236</ele><time>2020-09-18T09:46:38Z</time><name>PT1036</name></trkpt>
<trkpt lat="53.114382" lon="-4.139920"><ele>236</ele><time>2020-09-18T09:46:41Z</time><name>PT1037</name></trkpt>
<trkpt lat="53.114361" lon="-4.139953"><ele>236</ele><time>2020-09-18T09:46:44Z</time><name>PT1038</name></trkpt>
<trkpt lat="53.114337" lon="-4.139995"><ele>237</ele><time>2020-09-18T09:46:48Z</time><name>PT1039</name></trkpt>
<trkpt lat="53.114323" lon="-4.140030"><ele>237</ele><time>2020-09-18T09:46:51Z</time><name>PT1040</name></trkpt>
<trkpt lat="53.114301" lon="-4.140065"><ele>237</ele><time>2020-09-18T09:46:54Z</time><name>PT1041</name></trkpt>
<trkpt lat="53.114270" lon="-4.140110"><ele>238</ele><time>2020-09-18T09:46:58Z</time><name>PT1042</name></trkpt>
<trkpt lat="53.114234" lon="-4.140150"><ele>239</ele><time>2020-09-18T09:47:02Z</time><name>PT1043</name></trkpt>
<trkpt lat="53.114206" lon="-4.140192"><ele>240</ele><time>2020-09-18T09:47:06Z</time><name>PT1044</name></trkpt>
<trkpt lat="53.114182" lon="-4.140224"><ele>240</ele><time>2020-09-18T09:47:09Z</time><name>PT1045</name></trkpt>
<trkpt lat="53.114158" lon="-4.140250"><ele>241</ele><time>2020-09-18T09:47:13Z</time><name>PT1046</name></trkpt>
<trkpt lat="53.114140" lon="-4.140269"><ele>242</ele><time>2020-09-18T09:47:17Z</time><name>PT1047</name></trkpt>
<trkpt lat="53.114140" lon="-4.140270"><ele>242</ele><time>2020-09-18T09:47:20Z</time><name>PT1048</name></trkpt>
<trkpt lat="53.114140" lon="-4.140276"><ele>242</ele><time>2020-09-18T09:47:24Z</time><name>PT1049</name></trkpt>
<trkpt lat="53.114140" lon="-4.140280"><ele>242</ele><time>2020-09-18T09:47:27Z</time><name>PT1050</name></trkpt>
<trkpt lat="53.114137" lon="-4.140284"><ele>242</ele><time>2020-09-18T09:47:31Z</time><name>PT1051</name></trkpt>
<trkpt lat="53.114139" lon="-4.140284"><ele>243</ele><time>2020-09-18T09:47:42Z</time><name>PT1052</name></trkpt>
<trkpt lat="53.114143" lon="-4.140293"><ele>243</ele><time>2020-09-18T09:47:45Z</time><name>PT1053</name></trkpt>
<trkpt lat="53.114141" lon="-4.140302"><ele>243</ele><time>2020-09-18T09:47:49Z</time><name>PT1054</name></trkpt>
<trkpt lat="53.114132" lon="-4.140308"><ele>244</ele><time>2020-09-18T09:48:22Z</time><name>PT1055</name></trkpt>
<trkpt lat="53.114103" lon="-4.140339"><ele>245</ele><time>2020-09-18T09:48:26Z</time><name>PT1056</name></trkpt>
<trkpt lat="53.114072" lon="-4.140377"><ele>244</ele><time>2020-09-18T09:48:30Z</time><name>PT1057</name></trkpt>
<trkpt lat="53.114053" lon="-4.140391"><ele>244</ele><time>2020-09-18T09:48:33Z</time><name>PT1058</name></trkpt>
<trkpt lat="53.114036" lon="-4.140411"><ele>243</ele><time>2020-09-18T09:48:36Z</time><name>PT1059</name></trkpt>
<trkpt lat="53.114004" lon="-4.140442"><ele>244</ele><time>2020-09-18T09:48:40Z</time><name>PT1060</name></trkpt>
<trkpt lat="53.113980" lon="-4.140452"><ele>245</ele><time>2020-09-18T09:48:43Z</time><name>PT1061</name></trkpt>
<trkpt lat="53.113947" lon="-4.140466"><ele>246</ele><time>2020-09-18T09:48:47Z</time><name>PT1062</name></trkpt>
<trkpt lat="53.113923" lon="-4.140486"><ele>246</ele><time>2020-09-18T09:48:50Z</time><name>PT1063</name></trkpt>
<trkpt lat="53.113911" lon="-4.140490"><ele>246</ele><time>2020-09-18T09:48:53Z</time><name>PT1064</name></trkpt>
<trkpt lat="53.113907" lon="-4.140491"><ele>247</ele><time>2020-09-18T09:48:57Z</time><name>PT1065</name></trkpt>
<trkpt lat="53.113897" lon="-4.140490"><ele>247</ele><time>2020-09-18T09:51:43Z</time><name>PT1066</name></trkpt>
<trkpt lat="53.113885" lon="-4.140504"><ele>247</ele><time>2020-09-18T09:51:47Z</time><name>PT1067</name></trkpt>
<trkpt lat="53.113856" lon="-4.140527"><ele>248</ele><time>2020-09-18T09:51:50Z</time><name>PT1068</name></trkpt>
<trkpt lat="53.113835" lon="-4.140564"><ele>249</ele><time>2020-09-18T09:51:53Z</time><name>PT1069</name></trkpt>
<trkpt lat="53.113823" lon="-4.140603"><ele>249</ele><time>2020-09-18T09:51:56Z</time><name>PT1070</name></trkpt>
<trkpt lat="53.113802" lon="-4.140648"><ele>248</ele><time>2020-09-18T09:52:00Z</time><name>PT1071</name></trkpt>
<trkpt lat="53.113777" lon="-4.140684"><ele>248</ele><time>2020-09-18T09:52:04Z</time><name>PT1072</name></trkpt>
<trkpt lat="53.113755" lon="-4.140709"><ele>249</ele><time>2020-09-18T09:52:07Z</time><name>PT1073</name></trkpt>
<trkpt lat="53.113725" lon="-4.140738"><ele>249</ele><time>2020-09-18T09:52:11Z</time><name>PT1074</name></trkpt>
<trkpt lat="53.113695" lon="-4.140761"><ele>250</ele><time>2020-09-18T09:52:14Z</time><name>PT1075</name></trkpt>
<trkpt lat="53.113673" lon="-4.140786"><ele>249</ele><time>2020-09-18T09:52:18Z</time><name>PT1076</name></trkpt>
<trkpt lat="53.113653" lon="-4.140806"><ele>249</ele><time>2020-09-18T09:52:21Z</time><name>PT1077</name></trkpt>
<trkpt lat="53.113635" lon="-4.140823"><ele>248</ele><time>2020-09-18T09:52:24Z</time><name>PT1078</name></trkpt>
<trkpt lat="53.113617" lon="-4.140838"><ele>248</ele><time>2020-09-18T09:52:28Z</time><name>PT1079</name></trkpt>
<trkpt lat="53.113592" lon="-4.140866"><ele>249</ele><time>2020-09-18T09:52:39Z</time><name>PT1080</name></trkpt>
<trkpt lat="53.113568" lon="-4.140907"><ele>250</ele><time>2020-09-18T09:52:43Z</time><name>PT1081</name></trkpt>
<trkpt lat="53.113544" lon="-4.140934"><ele>251</ele><time>2020-09-18T09:52:47Z</time><name>PT1082</name></trkpt>
<trkpt lat="53.113533" lon="-4.140930"><ele>252</ele><time>2020-09-18T09:52:50Z</time><name>PT1083</name></trkpt>
<trkpt lat="53.113527" lon="-4.140931"><ele>253</ele><time>2020-09-18T09:52:54Z</time><name>PT1084</name></trkpt>
<trkpt lat="53.113516" lon="-4.140958"><ele>253</ele><time>2020-09-18T09:53:06Z</time><name>PT1085</name></trkpt>
<trkpt lat="53.113486" lon="-4.141013"><ele>255</ele><time>2020-09-18T09:53:10Z</time><name>PT1086</name></trkpt>
<trkpt lat="53.113473" lon="-4.141058"><ele>255</ele><time>2020-09-18T09:53:13Z</time><name>PT1087</name></trkpt>
<trkpt lat="53.113459" lon="-4.141101"><ele>256</ele><time>2020-09-18T09:53:17Z</time><name>PT1088</name></trkpt>
<trkpt lat="53.113460" lon="-4.141095"><ele>256</ele><time>2020-09-18T09:53:20Z</time><name>PT1089</name></trkpt>
<trkpt lat="53.113458" lon="-4.141108"><ele>256</ele><time>2020-09-18T09:53:24Z</time><name>PT1090</name></trkpt>
<trkpt lat="53.113453" lon="-4.141108"><ele>257</ele><time>2020-09-18T09:53:27Z</time><name>PT1091</name></trkpt>
<trkpt lat="53.113441" lon="-4.141097"><ele>258</ele><time>2020-09-18T09:53:31Z</time><name>PT1092</name></trkpt>
<trkpt lat="53.113437" lon="-4.141097"><ele>258</ele><time>2020-09-18T09:53:35Z</time><name>PT1093</name></trkpt>
<trkpt lat="53.113435" lon="-4.141096"><ele>259</ele><time>2020-09-18T09:53:52Z</time><name>PT1094</name></trkpt>
<trkpt lat="53.113434" lon="-4.141122"><ele>260</ele><time>2020-09-18T09:53:55Z</time><name>PT1095</name></trkpt>
<trkpt lat="53.113435" lon="-4.141136"><ele>260</ele><time>2020-09-18T09:53:59Z</time><name>PT1096</name></trkpt>
<trkpt lat="53.113423" lon="-4.141187"><ele>261</ele><time>2020-09-18T09:54:03Z</time><name>PT1097</name></trkpt>
<trkpt lat="53.113417" lon="-4.141247"><ele>262</ele><time>2020-09-18T09:54:07Z</time><name>PT1098</name></trkpt>
<trkpt lat="53.113410" lon="-4.141306"><ele>264</ele><time>2020-09-18T09:54:11Z</time><name>PT1099</name></trkpt>
<trkpt lat="53.113406" lon="-4.141367"><ele>265</ele><time>2020-09-18T09:54:15Z</time><name>PT1100</name></trkpt>
<trkpt lat="53.113404" lon="-4.141412"><ele>266</ele><time>2020-09-18T09:54:18Z</time><name>PT1101</name></trkpt>
<trkpt lat="53.113395" lon="-4.141473"><ele>267</ele><time>2020-09-18T09:54:22Z</time><name>PT1102</name></trkpt>
<trkpt lat="53.113386" lon="-4.141522"><ele>268</ele><time>2020-09-18T09:54:25Z</time><name>PT1103</name></trkpt>
<trkpt lat="53.113380" lon="-4.141587"><ele>268</ele><time>2020-09-18T09:54:29Z</time><name>PT1104</name></trkpt>
<trkpt lat="53.113375" lon="-4.141648"><ele>269</ele><time>2020-09-18T09:54:33Z</time><name>PT1105</name></trkpt>
<trkpt lat="53.113364" lon="-4.141697"><ele>268</ele><time>2020-09-18T09:54:36Z</time><name>PT1106</name></trkpt>
<trkpt lat="53.113354" lon="-4.141757"><ele>270</ele><time>2020-09-18T09:54:40Z</time><name>PT1107</name></trkpt>
<trkpt lat="53.113348" lon="-4.141816"><ele>271</ele><time>2020-09-18T09:54:44Z</time><name>PT1108</name></trkpt>
<trkpt lat="53.113338" lon="-4.141882"><ele>272</ele><time>2020-09-18T09:54:48Z</time><name>PT1109</name></trkpt>
<trkpt lat="53.113329" lon="-4.141945"><ele>273</ele><time>2020-09-18T09:54:52Z</time><name>PT1110</name></trkpt>
<trkpt lat="53.113321" lon="-4.141998"><ele>273</ele><time>2020-09-18T09:54:55Z</time><name>PT1111</name></trkpt>
<trkpt lat="53.113309" lon="-4.142061"><ele>273</ele><time>2020-09-18T09:54:59Z</time><name>PT1112</name></trkpt>
<trkpt lat="53.113301" lon="-4.142103"><ele>273</ele><time>2020-09-18T09:55:02Z</time><name>PT1113</name></trkpt>
<trkpt lat="53.113297" lon="-4.142144"><ele>273</ele><time>2020-09-18T09:55:06Z</time><name>PT1114</name></trkpt>
<trkpt lat="53.113298" lon="-4.142146"><ele>274</ele><time>2020-09-18T09:55:10Z</time><name>PT1115</name></trkpt>
<trkpt lat="53.113302" lon="-4.142166"><ele>274</ele><time>2020-09-18T09:55:27Z</time><name>PT1116</name></trkpt>
<trkpt lat="53.113292" lon="-4.142241"><ele>275</ele><time>2020-09-18T09:55:31Z</time><name>PT1117</name></trkpt>
<trkpt lat="53.113280" lon="-4.142285"><ele>276</ele><time>2020-09-18T09:55:34Z</time><name>PT1118</name></trkpt>
<trkpt lat="53.113265" lon="-4.142330"><ele>274</ele><time>2020-09-18T09:55:38Z</time><name>PT1119</name></trkpt>
<trkpt lat="53.113237" lon="-4.142332"><ele>273</ele><time>2020-09-18T09:55:42Z</time><name>PT1120</name></trkpt>
<trkpt lat="53.113233" lon="-4.142323"><ele>273</ele><time>2020-09-18T09:55:45Z</time><name>PT1121</name></trkpt>
<trkpt lat="53.113235" lon="-4.142322"><ele>273</ele><time>2020-09-18T09:55:49Z</time><name>PT1122</name></trkpt>
<trkpt lat="53.113244" lon="-4.142331"><ele>273</ele><time>2020-09-18T09:55:59Z</time><name>PT1123</name></trkpt>
<trkpt lat="53.113239" lon="-4.142345"><ele>274</ele><time>2020-09-18T09:56:03Z</time><name>PT1124</name></trkpt>
<trkpt lat="53.113232" lon="-4.142353"><ele>274</ele><time>2020-09-18T09:56:10Z</time><name>PT1125</name></trkpt>
<trkpt lat="53.113228" lon="-4.142377"><ele>273</ele><time>2020-09-18T09:56:14Z</time><name>PT1126</name></trkpt>
<trkpt lat="53.113227" lon="-4.142390"><ele>273</ele><time>2020-09-18T09:56:17Z</time><name>PT1127</name></trkpt>
<trkpt lat="53.113217" lon="-4.142424"><ele>273</ele><time>2020-09-18T09:56:21Z</time><name>PT1128</name></trkpt>
<trkpt lat="53.113209" lon="-4.142429"><ele>273</ele><time>2020-09-18T09:56:24Z</time><name>PT1129</name></trkpt>
<trkpt lat="53.113203" lon="-4.142435"><ele>273</ele><time>2020-09-18T09:56:27Z</time><name>PT1130</name></trkpt>
<trkpt lat="53.113205" lon="-4.142431"><ele>273</ele><time>2020-09-18T09:56:45Z</time><name>PT1131</name></trkpt>
<trkpt lat="53.113209" lon="-4.142445"><ele>273</ele><time>2020-09-18T09:56:49Z</time><name>PT1132</name></trkpt>
<trkpt lat="53.113207" lon="-4.142440"><ele>272</ele><time>2020-09-18T09:56:53Z</time><name>PT1133</name></trkpt>
<trkpt lat="53.113212" lon="-4.142447"><ele>273</ele><time>2020-09-18T09:56:56Z</time><name>PT1134</name></trkpt>
<trkpt lat="53.113214" lon="-4.142460"><ele>272</ele><time>2020-09-18T09:57:00Z</time><name>PT1135</name></trkpt>
<trkpt lat="53.113214" lon="-4.142465"><ele>272</ele><time>2020-09-18T09:57:04Z</time><name>PT1136</name></trkpt>
<trkpt lat="53.113213" lon="-4.142473"><ele>272</ele><time>2020-09-18T09:57:17Z</time><name>PT1137</name></trkpt>
<trkpt lat="53.113195" lon="-4.142484"><ele>272</ele><time>2020-09-18T09:57:21Z</time><name>PT1138</name></trkpt>
<trkpt lat="53.113192" lon="-4.142498"><ele>272</ele><time>2020-09-18T09:57:25Z</time><name>PT1139</name></trkpt>
<trkpt lat="53.113195" lon="-4.142525"><ele>272</ele><time>2020-09-18T09:57:29Z</time><name>PT1140</name></trkpt>
<trkpt lat="53.113217" lon="-4.142532"><ele>272</ele><time>2020-09-18T09:57:33Z</time><name>PT1141</name></trkpt>
<trkpt lat="53.113242" lon="-4.142505"><ele>272</ele><time>2020-09-18T09:57:37Z</time><name>PT1142</name></trkpt>
<trkpt lat="53.113255" lon="-4.142483"><ele>272</ele><time>2020-09-18T09:57:41Z</time><name>PT1143</name></trkpt>
<trkpt lat="53.113281" lon="-4.142500"><ele>272</ele><time>2020-09-18T09:57:45Z</time><name>PT1144</name></trkpt>
<trkpt lat="53.113289" lon="-4.142534"><ele>273</ele><time>2020-09-18T09:57:49Z</time><name>PT1145</name></trkpt>
<trkpt lat="53.113293" lon="-4.142537"><ele>274</ele><time>2020-09-18T09:57:52Z</time><name>PT1146</name></trkpt>
<trkpt lat="53.113318" lon="-4.142602"><ele>276</ele><time>2020-09-18T09:58:09Z</time><name>PT1147</name></trkpt>
<trkpt lat="53.113339" lon="-4.142634"><ele>277</ele><time>2020-09-18T09:58:12Z</time><name>PT1148</name></trkpt>
<trkpt lat="53.113360" lon="-4.142654"><ele>277</ele><time>2020-09-18T09:58:15Z</time><name>PT1149</name></trkpt>
<trkpt lat="53.113389" lon="-4.142683"><ele>277</ele><time>2020-09-18T09:58:19Z</time><name>PT1150</name></trkpt>
<trkpt lat="53.113423" lon="-4.142710"><ele>277</ele><time>2020-09-18T09:58:23Z</time><name>PT1151</name></trkpt>
<trkpt lat="53.113454" lon="-4.142728"><ele>277</ele><time>2020-09-18T09:58:26Z</time><name>PT1152</name></trkpt>
<trkpt lat="53.113485" lon="-4.142737"><ele>277</ele><time>2020-09-18T09:58:29Z</time><name>PT1153</name></trkpt>
<trkpt lat="53.113517" lon="-4.142752"><ele>278</ele><time>2020-09-18T09:58:32Z</time><name>PT1154</name></trkpt>
<trkpt lat="53.113562" lon="-4.142768"><ele>278</ele><time>2020-09-18T09:58:36Z</time><name>PT1155</name></trkpt>
<trkpt lat="53.113604" lon="-4.142785"><ele>279</ele><time>2020-09-18T09:58:40Z</time><name>PT1156</name></trkpt>
<trkpt lat="53.113630" lon="-4.142796"><ele>279</ele><time>2020-09-18T09:58:43Z</time><name>PT1157</name></trkpt>
<trkpt lat="53.113654" lon="-4.142810"><ele>280</ele><time>2020-09-18T09:58:46Z</time><name>PT1158</name></trkpt>
<trkpt lat="53.113697" lon="-4.142822"><ele>280</ele><time>2020-09-18T09:58:50Z</time><name>PT1159</name></trkpt>
<trkpt lat="53.113728" lon="-4.142831"><ele>281</ele><time>2020-09-18T09:58:53Z</time><name>PT1160</name></trkpt>
<trkpt lat="53.113763" lon="-4.142857"><ele>280</ele><time>2020-09-18T09:58:57Z</time><name>PT1161</name></trkpt>
<trkpt lat="53.113796" lon="-4.142870"><ele>280</ele><time>2020-09-18T09:59:00Z</time><name>PT1162</name></trkpt>
<trkpt lat="53.113834" lon="-4.142887"><ele>282</ele><time>2020-09-18T09:59:04Z</time><name>PT1163</name></trkpt>
<trkpt lat="53.113875" lon="-4.142891"><ele>284</ele><time>2020-09-18T09:59:08Z</time><name>PT1164</name></trkpt>
<trkpt lat="53.113906" lon="-4.142904"><ele>285</ele><time>2020-09-18T09:59:11Z</time><name>PT1165</name></trkpt>
<trkpt lat="53.113951" lon="-4.142922"><ele>287</ele><time>2020-09-18T09:59:15Z</time><name>PT1166</name></trkpt>
<trkpt lat="53.113980" lon="-4.142936"><ele>287</ele><time>2020-09-18T09:59:18Z</time><name>PT1167</name></trkpt>
<trkpt lat="53.114009" lon="-4.142953"><ele>288</ele><time>2020-09-18T09:59:21Z</time><name>PT1168</name></trkpt>
<trkpt lat="53.114047" lon="-4.142970"><ele>288</ele><time>2020-09-18T09:59:25Z</time><name>PT1169</name></trkpt>
<trkpt lat="53.114074" lon="-4.142987"><ele>289</ele><time>2020-09-18T09:59:28Z</time><name>PT1170</name></trkpt>
<trkpt lat="53.114113" lon="-4.143009"><ele>291</ele><time>2020-09-18T09:59:32Z</time><name>PT1171</name></trkpt>
<trkpt lat="53.114138" lon="-4.143028"><ele>291</ele><time>2020-09-18T09:59:35Z</time><name>PT1172</name></trkpt>
<trkpt lat="53.114170" lon="-4.143046"><ele>292</ele><time>2020-09-18T09:59:39Z</time><name>PT1173</name></trkpt>
<trkpt lat="53.114190" lon="-4.143057"><ele>291</ele><time>2020-09-18T09:59:42Z</time><name>PT1174</name></trkpt>
<trkpt lat="53.114221" lon="-4.143071"><ele>293</ele><time>2020-09-18T09:59:45Z</time><name>PT1175</name></trkpt>
<trkpt lat="53.114253" lon="-4.143086"><ele>294</ele><time>2020-09-18T09:59:49Z</time><name>PT1176</name></trkpt>
<trkpt lat="53.114289" lon="-4.143101"><ele>294</ele><time>2020-09-18T09:59:53Z</time><name>PT1177</name></trkpt>
<trkpt lat="53.114313" lon="-4.143113"><ele>295</ele><time>2020-09-18T09:59:56Z</time><name>PT1178</name></trkpt>
<trkpt lat="53.114346" lon="-4.143125"><ele>296</ele><time>2020-09-18T10:00:00Z</time><name>PT1179</name></trkpt>
<trkpt lat="53.114378" lon="-4.143139"><ele>296</ele><time>2020-09-18T10:00:03Z</time><name>PT1180</name></trkpt>
<trkpt lat="53.114415" lon="-4.143150"><ele>298</ele><time>2020-09-18T10:00:07Z</time><name>PT1181</name></trkpt>
<trkpt lat="53.114448" lon="-4.143170"><ele>298</ele><time>2020-09-18T10:00:11Z</time><name>PT1182</name></trkpt>
<trkpt lat="53.114478" lon="-4.143176"><ele>299</ele><time>2020-09-18T10:00:14Z</time><name>PT1183</name></trkpt>
<trkpt lat="53.114516" lon="-4.143181"><ele>299</ele><time>2020-09-18T10:00:18Z</time><name>PT1184</name></trkpt>
<trkpt lat="53.114534" lon="-4.143182"><ele>301</ele><time>2020-09-18T10:00:21Z</time><name>PT1185</name></trkpt>
<trkpt lat="53.114564" lon="-4.143195"><ele>301</ele><time>2020-09-18T10:00:25Z</time><name>PT1186</name></trkpt>
<trkpt lat="53.114594" lon="-4.143208"><ele>300</ele><time>2020-09-18T10:00:29Z</time><name>PT1187</name></trkpt>
<trkpt lat="53.114620" lon="-4.143215"><ele>300</ele><time>2020-09-18T10:00:32Z</time><name>PT1188</name></trkpt>
<trkpt lat="53.114648" lon="-4.143224"><ele>301</ele><time>2020-09-18T10:00:35Z</time><name>PT1189</name></trkpt>
<trkpt lat="53.114668" lon="-4.143235"><ele>301</ele><time>2020-09-18T10:00:38Z</time><name>PT1190</name></trkpt>
<trkpt lat="53.114698" lon="-4.143255"><ele>301</ele><time>2020-09-18T10:00:42Z</time><name>PT1191</name></trkpt>
<trkpt lat="53.114718" lon="-4.143275"><ele>302</ele><time>2020-09-18T10:00:45Z</time><name>PT1192</name></trkpt>
<trkpt lat="53.114736" lon="-4.143294"><ele>302</ele><time>2020-09-18T10:00:48Z</time><name>PT1193</name></trkpt>
<trkpt lat="53.114764" lon="-4.143307"><ele>303</ele><time>2020-09-18T10:00:52Z</time><name>PT1194</name></trkpt>
<trkpt lat="53.114788" lon="-4.143316"><ele>304</ele><time>2020-09-18T10:00:55Z</time><name>PT1195</name></trkpt>
<trkpt lat="53.114824" lon="-4.143324"><ele>304</ele><time>2020-09-18T10:00:59Z</time><name>PT1196</name></trkpt>
<trkpt lat="53.114850" lon="-4.143325"><ele>304</ele><time>2020-09-18T10:01:03Z</time><name>PT1197</name></trkpt>
<trkpt lat="53.114882" lon="-4.143349"><ele>307</ele><time>2020-09-18T10:01:07Z</time><name>PT1198</name></trkpt>
<trkpt lat="53.114909" lon="-4.143374"><ele>308</ele><time>2020-09-18T10:01:10Z</time><name>PT1199</name></trkpt>
<trkpt lat="53.114916" lon="-4.143388"><ele>308</ele><time>2020-09-18T10:01:13Z</time><name>PT1200</name></trkpt>
<trkpt lat="53.114917" lon="-4.143394"><ele>309</ele><time>2020-09-18T10:01:17Z</time><name>PT1201</name></trkpt>
<trkpt lat="53.114915" lon="-4.143414"><ele>309</ele><time>2020-09-18T10:01:20Z</time><name>PT1202</name></trkpt>
<trkpt lat="53.114918" lon="-4.143416"><ele>309</ele><time>2020-09-18T10:01:24Z</time><name>PT1203</name></trkpt>
<trkpt lat="53.114942" lon="-4.143429"><ele>310</ele><time>2020-09-18T10:01:28Z</time><name>PT1204</name></trkpt>
<trkpt lat="53.114973" lon="-4.143466"><ele>310</ele><time>2020-09-18T10:01:32Z</time><name>PT1205</name></trkpt>
<trkpt lat="53.114991" lon="-4.143513"><ele>311</ele><time>2020-09-18T10:01:35Z</time><name>PT1206</name></trkpt>
<trkpt lat="53.115014" lon="-4.143573"><ele>313</ele><time>2020-09-18T10:01:39Z</time><name>PT1207</name></trkpt>
<trkpt lat="53.115030" lon="-4.143628"><ele>314</ele><time>2020-09-18T10:01:43Z</time><name>PT1208</name></trkpt>
<trkpt lat="53.115042" lon="-4.143679"><ele>314</ele><time>2020-09-18T10:01:47Z</time><name>PT1209</name></trkpt>
<trkpt lat="53.115049" lon="-4.143716"><ele>314</ele><time>2020-09-18T10:01:50Z</time><name>PT1210</name></trkpt>
<trkpt lat="53.115057" lon="-4.143764"><ele>315</ele><time>2020-09-18T10:01:54Z</time><name>PT1211</name></trkpt>
<trkpt lat="53.115064" lon="-4.143806"><ele>316</ele><time>2020-09-18T10:01:57Z</time><name>PT1212</name></trkpt>
<trkpt lat="53.115072" lon="-4.143855"><ele>316</ele><time>2020-09-18T10:02:01Z</time><name>PT1213</name></trkpt>
<trkpt lat="53.115080" lon="-4.143897"><ele>316</ele><time>2020-09-18T10:02:04Z</time><name>PT1214</name></trkpt>
<trkpt lat="53.115094" lon="-4.143951"><ele>318</ele><time>2020-09-18T10:02:08Z</time><name>PT1215</name></trkpt>
<trkpt lat="53.115102" lon="-4.143985"><ele>318</ele><time>2020-09-18T10:02:11Z</time><name>PT1216</name></trkpt>
<trkpt lat="53.115118" lon="-4.144035"><ele>319</ele><time>2020-09-18T10:02:15Z</time><name>PT1217</name></trkpt>
<trkpt lat="53.115132" lon="-4.144086"><ele>320</ele><time>2020-09-18T10:02:19Z</time><name>PT1218</name></trkpt>
<trkpt lat="53.115136" lon="-4.144141"><ele>321</ele><time>2020-09-18T10:02:23Z</time><name>PT1219</name></trkpt>
<trkpt lat="53.115126" lon="-4.144201"><ele>322</ele><time>2020-09-18T10:02:27Z</time><name>PT1220</name></trkpt>
<trkpt lat="53.115118" lon="-4.144257"><ele>322</ele><time>2020-09-18T10:02:31Z</time><name>PT1221</name></trkpt>
<trkpt lat="53.115113" lon="-4.144295"><ele>323</ele><time>2020-09-18T10:02:34Z</time><name>PT1222</name></trkpt>
<trkpt lat="53.115122" lon="-4.144361"><ele>323</ele><time>2020-09-18T10:02:38Z</time><name>PT1223</name></trkpt>
<trkpt lat="53.115128" lon="-4.144414"><ele>324</ele><time>2020-09-18T10:02:41Z</time><name>PT1224</name></trkpt>
<trkpt lat="53.115138" lon="-4.144463"><ele>324</ele><time>2020-09-18T10:02:44Z</time><name>PT1225</name></trkpt>
<trkpt lat="53.115148" lon="-4.144512"><ele>325</ele><time>2020-09-18T10:02:47Z</time><name>PT1226</name></trkpt>
<trkpt lat="53.115158" lon="-4.144578"><ele>326</ele><time>2020-09-18T10:02:51Z</time><name>PT1227</name></trkpt>
<trkpt lat="53.115166" lon="-4.144626"><ele>326</ele><time>2020-09-18T10:02:54Z</time><name>PT1228</name></trkpt>
<trkpt lat="53.115176" lon="-4.144691"><ele>326</ele><time>2020-09-18T10:02:58Z</time><name>PT1229</name></trkpt>
<trkpt lat="53.115186" lon="-4.144731"><ele>326</ele><time>2020-09-18T10:03:01Z</time><name>PT1230</name></trkpt>
<trkpt lat="53.115198" lon="-4.144801"><ele>326</ele><time>2020-09-18T10:03:05Z</time><name>PT1231</name></trkpt>
<trkpt lat="53.115206" lon="-4.144867"><ele>326</ele><time>2020-09-18T10:03:09Z</time><name>PT1232</name></trkpt>
<trkpt lat="53.115214" lon="-4.144916"><ele>326</ele><time>2020-09-18T10:03:12Z</time><name>PT1233</name></trkpt>
<trkpt lat="53.115222" lon="-4.144962"><ele>327</ele><time>2020-09-18T10:03:15Z</time><name>PT1234</name></trkpt>
<trkpt lat="53.115226" lon="-4.145013"><ele>328</ele><time>2020-09-18T10:03:18Z</time><name>PT1235</name></trkpt>
<trkpt lat="53.115227" lon="-4.145074"><ele>328</ele><time>2020-09-18T10:03:22Z</time><name>PT1236</name></trkpt>
<trkpt lat="53.115230" lon="-4.145117"><ele>328</ele><time>2020-09-18T10:03:25Z</time><name>PT1237</name></trkpt>
<trkpt lat="53.115229" lon="-4.145165"><ele>328</ele><time>2020-09-18T10:03:29Z</time><name>PT1238</name></trkpt>
<trkpt lat="53.115234" lon="-4.145228"><ele>330</ele><time>2020-09-18T10:03:33Z</time><name>PT1239</name></trkpt>
<trkpt lat="53.115234" lon="-4.145275"><ele>330</ele><time>2020-09-18T10:03:36Z</time><name>PT1240</name></trkpt>
<trkpt lat="53.115229" lon="-4.145325"><ele>331</ele><time>2020-09-18T10:03:39Z</time><name>PT1241</name></trkpt>
<trkpt lat="53.115229" lon="-4.145383"><ele>331</ele><time>2020-09-18T10:03:43Z</time><name>PT1242</name></trkpt>
<trkpt lat="53.115225" lon="-4.145441"><ele>332</ele><time>2020-09-18T10:03:47Z</time><name>PT1243</name></trkpt>
<trkpt lat="53.115220" lon="-4.145495"><ele>333</ele><time>2020-09-18T10:03:51Z</time><name>PT1244</name></trkpt>
<trkpt lat="53.115220" lon="-4.145559"><ele>333</ele><time>2020-09-18T10:03:55Z</time><name>PT1245</name></trkpt>
<trkpt lat="53.115211" lon="-4.145600"><ele>334</ele><time>2020-09-18T10:03:58Z</time><name>PT1246</name></trkpt>
<trkpt lat="53.115205" lon="-4.145646"><ele>334</ele><time>2020-09-18T10:04:01Z</time><name>PT1247</name></trkpt>
<trkpt lat="53.115209" lon="-4.145691"><ele>335</ele><time>2020-09-18T10:04:04Z</time><name>PT1248</name></trkpt>
<trkpt lat="53.115206" lon="-4.145740"><ele>336</ele><time>2020-09-18T10:04:08Z</time><name>PT1249</name></trkpt>
<trkpt lat="53.115196" lon="-4.145799"><ele>336</ele><time>2020-09-18T10:04:12Z</time><name>PT1250</name></trkpt>
<trkpt lat="53.115193" lon="-4.145838"><ele>337</ele><time>2020-09-18T10:04:15Z</time><name>PT1251</name></trkpt>
<trkpt lat="53.115190" lon="-4.145902"><ele>337</ele><time>2020-09-18T10:04:19Z</time><name>PT1252</name></trkpt>
<trkpt lat="53.115188" lon="-4.145951"><ele>337</ele><time>2020-09-18T10:04:23Z</time><name>PT1253</name></trkpt>
<trkpt lat="53.115184" lon="-4.146015"><ele>338</ele><time>2020-09-18T10:04:27Z</time><name>PT1254</name></trkpt>
<trkpt lat="53.115181" lon="-4.146072"><ele>340</ele><time>2020-09-18T10:04:31Z</time><name>PT1255</name></trkpt>
<trkpt lat="53.115179" lon="-4.146105"><ele>340</ele><time>2020-09-18T10:04:34Z</time><name>PT1256</name></trkpt>
<trkpt lat="53.115176" lon="-4.146164"><ele>341</ele><time>2020-09-18T10:04:38Z</time><name>PT1257</name></trkpt>
<trkpt lat="53.115174" lon="-4.146205"><ele>341</ele><time>2020-09-18T10:04:41Z</time><name>PT1258</name></trkpt>
<trkpt lat="53.115173" lon="-4.146252"><ele>342</ele><time>2020-09-18T10:04:44Z</time><name>PT1259</name></trkpt>
<trkpt lat="53.115171" lon="-4.146312"><ele>343</ele><time>2020-09-18T10:04:47Z</time><name>PT1260</name></trkpt>
<trkpt lat="53.115175" lon="-4.146375"><ele>344</ele><time>2020-09-18T10:04:51Z</time><name>PT1261</name></trkpt>
<trkpt lat="53.115178" lon="-4.146425"><ele>345</ele><time>2020-09-18T10:04:54Z</time><name>PT1262</name></trkpt>
<trkpt lat="53.115183" lon="-4.146471"><ele>345</ele><time>2020-09-18T10:04:57Z</time><name>PT1263</name></trkpt>
<trkpt lat="53.115187" lon="-4.146538"><ele>345</ele><time>2020-09-18T10:05:01Z</time><name>PT1264</name></trkpt>
<trkpt lat="53.115201" lon="-4.146611"><ele>346</ele><time>2020-09-18T10:05:05Z</time><name>PT1265</name></trkpt>
<trkpt lat="53.115213" lon="-4.146663"><ele>346</ele><time>2020-09-18T10:05:08Z</time><name>PT1266</name></trkpt>
<trkpt lat="53.115219" lon="-4.146707"><ele>347</ele><time>2020-09-18T10:05:11Z</time><name>PT1267</name></trkpt>
<trkpt lat="53.115234" lon="-4.146775"><ele>346</ele><time>2020-09-18T10:05:15Z</time><name>PT1268</name></trkpt>
<trkpt lat="53.115242" lon="-4.146837"><ele>345</ele><time>2020-09-18T10:05:19Z</time><name>PT1269</name></trkpt>
<trkpt lat="53.115252" lon="-4.146901"><ele>346</ele><time>2020-09-18T10:05:23Z</time><name>PT1270</name></trkpt>
<trkpt lat="53.115262" lon="-4.146953"><ele>347</ele><time>2020-09-18T10:05:26Z</time><name>PT1271</name></trkpt>
<trkpt lat="53.115273" lon="-4.147014"><ele>347</ele><time>2020-09-18T10:05:30Z</time><name>PT1272</name></trkpt>
<trkpt lat="53.115280" lon="-4.147077"><ele>348</ele><time>2020-09-18T10:05:34Z</time><name>PT1273</name></trkpt>
<trkpt lat="53.115286" lon="-4.147131"><ele>348</ele><time>2020-09-18T10:05:38Z</time><name>PT1274</name></trkpt>
<trkpt lat="53.115294" lon="-4.147190"><ele>349</ele><time>2020-09-18T10:05:42Z</time><name>PT1275</name></trkpt>
<trkpt lat="53.115306" lon="-4.147249"><ele>350</ele><time>2020-09-18T10:05:46Z</time><name>PT1276</name></trkpt>
<trkpt lat="53.115318" lon="-4.147304"><ele>350</ele><time>2020-09-18T10:05:50Z</time><name>PT1277</name></trkpt>
<trkpt lat="53.115330" lon="-4.147354"><ele>351</ele><time>2020-09-18T10:05:53Z</time><name>PT1278</name></trkpt>
<trkpt lat="53.115350" lon="-4.147418"><ele>351</ele><time>2020-09-18T10:05:57Z</time><name>PT1279</name></trkpt>
<trkpt lat="53.115369" lon="-4.147493"><ele>352</ele><time>2020-09-18T10:06:01Z</time><name>PT1280</name></trkpt>
<trkpt lat="53.115379" lon="-4.147565"><ele>352</ele><time>2020-09-18T10:06:05Z</time><name>PT1281</name></trkpt>
<trkpt lat="53.115392" lon="-4.147648"><ele>353</ele><time>2020-09-18T10:06:09Z</time><name>PT1282</name></trkpt>
<trkpt lat="53.115403" lon="-4.147737"><ele>353</ele><time>2020-09-18T10:06:13Z</time><name>PT1283</name></trkpt>
<trkpt lat="53.115415" lon="-4.147813"><ele>354</ele><time>2020-09-18T10:06:17Z</time><name>PT1284</name></trkpt>
<trkpt lat="53.115425" lon="-4.147866"><ele>354</ele><time>2020-09-18T10:06:20Z</time><name>PT1285</name></trkpt>
<trkpt lat="53.115436" lon="-4.147934"><ele>354</ele><time>2020-09-18T10:06:24Z</time><name>PT1286</name></trkpt>
<trkpt lat="53.115447" lon="-4.147992"><ele>355</ele><time>2020-09-18T10:06:27Z</time><name>PT1287</name></trkpt>
<trkpt lat="53.115467" lon="-4.148070"><ele>356</ele><time>2020-09-18T10:06:31Z</time><name>PT1288</name></trkpt>
<trkpt lat="53.115481" lon="-4.148141"><ele>356</ele><time>2020-09-18T10:06:35Z</time><name>PT1289</name></trkpt>
<trkpt lat="53.115496" lon="-4.148217"><ele>357</ele><time>2020-09-18T10:06:39Z</time><name>PT1290</name></trkpt>
<trkpt lat="53.115506" lon="-4.148293"><ele>356</ele><time>2020-09-18T10:06:43Z</time><name>PT1291</name></trkpt>
<trkpt lat="53.115515" lon="-4.148352"><ele>357</ele><time>2020-09-18T10:06:46Z</time><name>PT1292</name></trkpt>
<trkpt lat="53.115527" lon="-4.148426"><ele>358</ele><time>2020-09-18T10:06:50Z</time><name>PT1293</name></trkpt>
<trkpt lat="53.115536" lon="-4.148483"><ele>358</ele><time>2020-09-18T10:06:53Z</time><name>PT1294</name></trkpt>
<trkpt lat="53.115547" lon="-4.148529"><ele>358</ele><time>2020-09-18T10:06:56Z</time><name>PT1295</name></trkpt>
<trkpt lat="53.115557" lon="-4.148588"><ele>357</ele><time>2020-09-18T10:06:59Z</time><name>PT1296</name></trkpt>
<trkpt lat="53.115575" lon="-4.148661"><ele>358</ele><time>2020-09-18T10:07:03Z</time><name>PT1297</name></trkpt>
<trkpt lat="53.115586" lon="-4.148717"><ele>358</ele><time>2020-09-18T10:07:06Z</time><name>PT1298</name></trkpt>
<trkpt lat="53.115599" lon="-4.148784"><ele>358</ele><time>2020-09-18T10:07:10Z</time><name>PT1299</name></trkpt>
<trkpt lat="53.115613" lon="-4.148855"><ele>358</ele><time>2020-09-18T10:07:14Z</time><name>PT1300</name></trkpt>
<trkpt lat="53.115620" lon="-4.148904"><ele>358</ele><time>2020-09-18T10:07:17Z</time><name>PT1301</name></trkpt>
<trkpt lat="53.115631" lon="-4.148965"><ele>359</ele><time>2020-09-18T10:07:21Z</time><name>PT1302</name></trkpt>
<trkpt lat="53.115642" lon="-4.149003"><ele>360</ele><time>2020-09-18T10:07:24Z</time><name>PT1303</name></trkpt>
<trkpt lat="53.115649" lon="-4.149044"><ele>359</ele><time>2020-09-18T10:07:28Z</time><name>PT1304</name></trkpt>
<trkpt lat="53.115660" lon="-4.149071"><ele>359</ele><time>2020-09-18T10:07:32Z</time><name>PT1305</name></trkpt>
<trkpt lat="53.115658" lon="-4.149105"><ele>359</ele><time>2020-09-18T10:07:35Z</time><name>PT1306</name></trkpt>
<trkpt lat="53.115664" lon="-4.149127"><ele>359</ele><time>2020-09-18T10:07:38Z</time><name>PT1307</name></trkpt>
<trkpt lat="53.115665" lon="-4.149127"><ele>359</ele><time>2020-09-18T10:07:42Z</time><name>PT1308</name></trkpt>
<trkpt lat="53.115668" lon="-4.149131"><ele>359</ele><time>2020-09-18T10:07:46Z</time><name>PT1309</name></trkpt>
<trkpt lat="53.115653" lon="-4.149187"><ele>361</ele><time>2020-09-18T10:08:01Z</time><name>PT1310</name></trkpt>
<trkpt lat="53.115637" lon="-4.149248"><ele>361</ele><time>2020-09-18T10:08:05Z</time><name>PT1311</name></trkpt>
<trkpt lat="53.115621" lon="-4.149272"><ele>362</ele><time>2020-09-18T10:08:08Z</time><name>PT1312</name></trkpt>
<trkpt lat="53.115595" lon="-4.149300"><ele>362</ele><time>2020-09-18T10:08:12Z</time><name>PT1313</name></trkpt>
<trkpt lat="53.115574" lon="-4.149345"><ele>363</ele><time>2020-09-18T10:08:16Z</time><name>PT1314</name></trkpt>
<trkpt lat="53.115563" lon="-4.149388"><ele>364</ele><time>2020-09-18T10:08:20Z</time><name>PT1315</name></trkpt>
<trkpt lat="53.115551" lon="-4.149429"><ele>365</ele><time>2020-09-18T10:08:24Z</time><name>PT1316</name></trkpt>
<trkpt lat="53.115533" lon="-4.149469"><ele>366</ele><time>2020-09-18T10:08:28Z</time><name>PT1317</name></trkpt>
<trkpt lat="53.115514" lon="-4.149505"><ele>367</ele><time>2020-09-18T10:08:32Z</time><name>PT1318</name></trkpt>
<trkpt lat="53.115501" lon="-4.149530"><ele>368</ele><time>2020-09-18T10:08:35Z</time><name>PT1319</name></trkpt>
<trkpt lat="53.115486" lon="-4.149573"><ele>369</ele><time>2020-09-18T10:08:39Z</time><name>PT1320</name></trkpt>
<trkpt lat="53.115475" lon="-4.149617"><ele>370</ele><time>2020-09-18T10:08:43Z</time><name>PT1321</name></trkpt>
<trkpt lat="53.115470" lon="-4.149660"><ele>371</ele><time>2020-09-18T10:08:47Z</time><name>PT1322</name></trkpt>
<trkpt lat="53.115470" lon="-4.149685"><ele>372</ele><time>2020-09-18T10:08:51Z</time><name>PT1323</name></trkpt>
<trkpt lat="53.115475" lon="-4.149723"><ele>372</ele><time>2020-09-18T10:08:55Z</time><name>PT1324</name></trkpt>
<trkpt lat="53.115477" lon="-4.149766"><ele>372</ele><time>2020-09-18T10:08:58Z</time><name>PT1325</name></trkpt>
<trkpt lat="53.115491" lon="-4.149816"><ele>373</ele><time>2020-09-18T10:09:02Z</time><name>PT1326</name></trkpt>
<trkpt lat="53.115502" lon="-4.149874"><ele>375</ele><time>2020-09-18T10:09:06Z</time><name>PT1327</name></trkpt>
<trkpt lat="53.115501" lon="-4.149900"><ele>376</ele><time>2020-09-18T10:09:09Z</time><name>PT1328</name></trkpt>
<trkpt lat="53.115503" lon="-4.149929"><ele>377</ele><time>2020-09-18T10:09:12Z</time><name>PT1329</name></trkpt>
<trkpt lat="53.115502" lon="-4.149958"><ele>377</ele><time>2020-09-18T10:09:16Z</time><name>PT1330</name></trkpt>
<trkpt lat="53.115498" lon="-4.149999"><ele>378</ele><time>2020-09-18T10:09:20Z</time><name>PT1331</name></trkpt>
<trkpt lat="53.115495" lon="-4.150036"><ele>379</ele><time>2020-09-18T10:09:23Z</time><name>PT1332</name></trkpt>
<trkpt lat="53.115481" lon="-4.150067"><ele>380</ele><time>2020-09-18T10:09:27Z</time><name>PT1333</name></trkpt>
<trkpt lat="53.115471" lon="-4.150098"><ele>380</ele><time>2020-09-18T10:09:30Z</time><name>PT1334</name></trkpt>
<trkpt lat="53.115460" lon="-4.150144"><ele>381</ele><time>2020-09-18T10:09:34Z</time><name>PT1335</name></trkpt>
<trkpt lat="53.115455" lon="-4.150200"><ele>382</ele><time>2020-09-18T10:09:38Z</time><name>PT1336</name></trkpt>
<trkpt lat="53.115462" lon="-4.150250"><ele>383</ele><time>2020-09-18T10:09:42Z</time><name>PT1337</name></trkpt>
<trkpt lat="53.115465" lon="-4.150294"><ele>384</ele><time>2020-09-18T10:09:46Z</time><name>PT1338</name></trkpt>
<trkpt lat="53.115465" lon="-4.150329"><ele>385</ele><time>2020-09-18T10:09:49Z</time><name>PT1339</name></trkpt>
<trkpt lat="53.115458" lon="-4.150370"><ele>386</ele><time>2020-09-18T10:09:53Z</time><name>PT1340</name></trkpt>
<trkpt lat="53.115456" lon="-4.150408"><ele>386</ele><time>2020-09-18T10:09:56Z</time><name>PT1341</name></trkpt>
<trkpt lat="53.115452" lon="-4.150467"><ele>388</ele><time>2020-09-18T10:10:00Z</time><name>PT1342</name></trkpt>
<trkpt lat="53.115449" lon="-4.150526"><ele>388</ele><time>2020-09-18T10:10:04Z</time><name>PT1343</name></trkpt>
<trkpt lat="53.115448" lon="-4.150573"><ele>388</ele><time>2020-09-18T10:10:08Z</time><name>PT1344</name></trkpt>
<trkpt lat="53.115446" lon="-4.150621"><ele>389</ele><time>2020-09-18T10:10:12Z</time><name>PT1345</name></trkpt>
<trkpt lat="53.115435" lon="-4.150663"><ele>390</ele><time>2020-09-18T10:10:15Z</time><name>PT1346</name></trkpt>
<trkpt lat="53.115424" lon="-4.150711"><ele>390</ele><time>2020-09-18T10:10:19Z</time><name>PT1347</name></trkpt>
<trkpt lat="53.115408" lon="-4.150766"><ele>391</ele><time>2020-09-18T10:10:23Z</time><name>PT1348</name></trkpt>
<trkpt lat="53.115399" lon="-4.150805"><ele>391</ele><time>2020-09-18T10:10:26Z</time><name>PT1349</name></trkpt>
<trkpt lat="53.115377" lon="-4.150853"><ele>392</ele><time>2020-09-18T10:10:30Z</time><name>PT1350</name></trkpt>
<trkpt lat="53.115369" lon="-4.150899"><ele>392</ele><time>2020-09-18T10:10:33Z</time><name>PT1351</name></trkpt>
<trkpt lat="53.115366" lon="-4.150942"><ele>393</ele><time>2020-09-18T10:10:36Z</time><name>PT1352</name></trkpt>
<trkpt lat="53.115354" lon="-4.150984"><ele>393</ele><time>2020-09-18T10:10:39Z</time><name>PT1353</name></trkpt>
<trkpt lat="53.115335" lon="-4.151020"><ele>394</ele><time>2020-09-18T10:10:43Z</time><name>PT1354</name></trkpt>
<trkpt lat="53.115323" lon="-4.151062"><ele>394</ele><time>2020-09-18T10:10:46Z</time><name>PT1355</name></trkpt>
<trkpt lat="53.115306" lon="-4.151100"><ele>396</ele><time>2020-09-18T10:10:50Z</time><name>PT1356</name></trkpt>
<trkpt lat="53.115283" lon="-4.151140"><ele>397</ele><time>2020-09-18T10:10:54Z</time><name>PT1357</name></trkpt>
<trkpt lat="53.115268" lon="-4.151163"><ele>397</ele><time>2020-09-18T10:10:57Z</time><name>PT1358</name></trkpt>
<trkpt lat="53.115260" lon="-4.151206"><ele>398</ele><time>2020-09-18T10:11:01Z</time><name>PT1359</name></trkpt>
<trkpt lat="53.115252" lon="-4.151237"><ele>399</ele><time>2020-09-18T10:11:04Z</time><name>PT1360</name></trkpt>
<trkpt lat="53.115233" lon="-4.151288"><ele>400</ele><time>2020-09-18T10:11:08Z</time><name>PT1361</name></trkpt>
<trkpt lat="53.115219" lon="-4.151319"><ele>400</ele><time>2020-09-18T10:11:11Z</time><name>PT1362</name></trkpt>
<trkpt lat="53.115195" lon="-4.151350"><ele>401</ele><time>2020-09-18T10:11:15Z</time><name>PT1363</name></trkpt>
<trkpt lat="53.115176" lon="-4.151369"><ele>400</ele><time>2020-09-18T10:11:18Z</time><name>PT1364</name></trkpt>
<trkpt lat="53.115159" lon="-4.151388"><ele>401</ele><time>2020-09-18T10:11:21Z</time><name>PT1365</name></trkpt>
<trkpt lat="53.115138" lon="-4.151431"><ele>402</ele><time>2020-09-18T10:11:25Z</time><name>PT1366</name></trkpt>
<trkpt lat="53.115130" lon="-4.151464"><ele>403</ele><time>2020-09-18T10:11:28Z</time><name>PT1367</name></trkpt>
<trkpt lat="53.115111" lon="-4.151506"><ele>404</ele><time>2020-09-18T10:11:32Z</time><name>PT1368</name></trkpt>
<trkpt lat="53.115099" lon="-4.151561"><ele>404</ele><time>2020-09-18T10:11:36Z</time><name>PT1369</name></trkpt>
<trkpt lat="53.115089" lon="-4.151626"><ele>405</ele><time>2020-09-18T10:11:40Z</time><name>PT1370</name></trkpt>
<trkpt lat="53.115079" lon="-4.151672"><ele>406</ele><time>2020-09-18T10:11:43Z</time><name>PT1371</name></trkpt>
<trkpt lat="53.115069" lon="-4.151728"><ele>407</ele><time>2020-09-18T10:11:47Z</time><name>PT1372</name></trkpt>
<trkpt lat="53.115058" lon="-4.151767"><ele>407</ele><time>2020-09-18T10:11:50Z</time><name>PT1373</name></trkpt>
<trkpt lat="53.115044" lon="-4.151808"><ele>407</ele><time>2020-09-18T10:11:53Z</time><name>PT1374</name></trkpt>
<trkpt lat="53.115029" lon="-4.151862"><ele>406</ele><time>2020-09-18T10:11:57Z</time><name>PT1375</name></trkpt>
<trkpt lat="53.115019" lon="-4.151908"><ele>407</ele><time>2020-09-18T10:12:00Z</time><name>PT1376</name></trkpt>
<trkpt lat="53.115001" lon="-4.151961"><ele>407</ele><time>2020-09-18T10:12:04Z</time><name>PT1377</name></trkpt>
<trkpt lat="53.114982" lon="-4.152010"><ele>407</ele><time>2020-09-18T10:12:07Z</time><name>PT1378</name></trkpt>
<trkpt lat="53.114962" lon="-4.152069"><ele>407</ele><time>2020-09-18T10:12:11Z</time><name>PT1379</name></trkpt>
<trkpt lat="53.114945" lon="-4.152144"><ele>409</ele><time>2020-09-18T10:12:15Z</time><name>PT1380</name></trkpt>
<trkpt lat="53.114925" lon="-4.152209"><ele>410</ele><time>2020-09-18T10:12:19Z</time><name>PT1381</name></trkpt>
<trkpt lat="53.114914" lon="-4.152248"><ele>410</ele><time>2020-09-18T10:12:22Z</time><name>PT1382</name></trkpt>
<trkpt lat="53.114899" lon="-4.152295"><ele>410</ele><time>2020-09-18T10:12:25Z</time><name>PT1383</name></trkpt>
<trkpt lat="53.114877" lon="-4.152356"><ele>409</ele><time>2020-09-18T10:12:29Z</time><name>PT1384</name></trkpt>
<trkpt lat="53.114852" lon="-4.152402"><ele>410</ele><time>2020-09-18T10:12:32Z</time><name>PT1385</name></trkpt>
<trkpt lat="53.114823" lon="-4.152462"><ele>410</ele><time>2020-09-18T10:12:36Z</time><name>PT1386</name></trkpt>
<trkpt lat="53.114795" lon="-4.152526"><ele>410</ele><time>2020-09-18T10:12:40Z</time><name>PT1387</name></trkpt>
<trkpt lat="53.114772" lon="-4.152581"><ele>411</ele><time>2020-09-18T10:12:44Z</time><name>PT1388</name></trkpt>
<trkpt lat="53.114751" lon="-4.152617"><ele>412</ele><time>2020-09-18T10:12:47Z</time><name>PT1389</name></trkpt>
<trkpt lat="53.114720" lon="-4.152679"><ele>412</ele><time>2020-09-18T10:12:51Z</time><name>PT1390</name></trkpt>
<trkpt lat="53.114698" lon="-4.152718"><ele>413</ele><time>2020-09-18T10:12:54Z</time><name>PT1391</name></trkpt>
<trkpt lat="53.114676" lon="-4.152762"><ele>413</ele><time>2020-09-18T10:12:57Z</time><name>PT1392</name></trkpt>
<trkpt lat="53.114650" lon="-4.152822"><ele>413</ele><time>2020-09-18T10:13:01Z</time><name>PT1393</name></trkpt>
<trkpt lat="53.114632" lon="-4.152871"><ele>414</ele><time>2020-09-18T10:13:04Z</time><name>PT1394</name></trkpt>
<trkpt lat="53.114608" lon="-4.152942"><ele>414</ele><time>2020-09-18T10:13:08Z</time><name>PT1395</name></trkpt>
<trkpt lat="53.114594" lon="-4.152990"><ele>415</ele><time>2020-09-18T10:13:11Z</time><name>PT1396</name></trkpt>
<trkpt lat="53.114570" lon="-4.153051"><ele>415</ele><time>2020-09-18T10:13:15Z</time><name>PT1397</name></trkpt>
<trkpt lat="53.114543" lon="-4.153115"><ele>415</ele><time>2020-09-18T10:13:19Z</time><name>PT1398</name></trkpt>
<trkpt lat="53.114526" lon="-4.153178"><ele>416</ele><time>2020-09-18T10:13:23Z</time><name>PT1399</name></trkpt>
<trkpt lat="53.114497" lon="-4.153250"><ele>417</ele><time>2020-09-18T10:13:27Z</time><name>PT1400</name></trkpt>
<trkpt lat="53.114468" lon="-4.153319"><ele>417</ele><time>2020-09-18T10:13:31Z</time><name>PT1401</name></trkpt>
<trkpt lat="53.114447" lon="-4.153385"><ele>417</ele><time>2020-09-18T10:13:35Z</time><name>PT1402</name></trkpt>
<trkpt lat="53.114416" lon="-4.153440"><ele>418</ele><time>2020-09-18T10:13:39Z</time><name>PT1403</name></trkpt>
<trkpt lat="53.114391" lon="-4.153482"><ele>419</ele><time>2020-09-18T10:13:42Z</time><name>PT1404</name></trkpt>
<trkpt lat="53.114371" lon="-4.153526"><ele>419</ele><time>2020-09-18T10:13:45Z</time><name>PT1405</name></trkpt>
<trkpt lat="53.114347" lon="-4.153574"><ele>420</ele><time>2020-09-18T10:13:48Z</time><name>PT1406</name></trkpt>
<trkpt lat="53.114332" lon="-4.153642"><ele>419</ele><time>2020-09-18T10:13:52Z</time><name>PT1407</name></trkpt>
<trkpt lat="53.114322" lon="-4.153715"><ele>419</ele><time>2020-09-18T10:13:56Z</time><name>PT1408</name></trkpt>
<trkpt lat="53.114307" lon="-4.153758"><ele>419</ele><time>2020-09-18T10:13:59Z</time><name>PT1409</name></trkpt>
<trkpt lat="53.114285" lon="-4.153807"><ele>419</ele><time>2020-09-18T10:14:03Z</time><name>PT1410</name></trkpt>
<trkpt lat="53.114269" lon="-4.153869"><ele>420</ele><time>2020-09-18T10:14:07Z</time><name>PT1411</name></trkpt>
<trkpt lat="53.114256" lon="-4.153912"><ele>421</ele><time>2020-09-18T10:14:10Z</time><name>PT1412</name></trkpt>
<trkpt lat="53.114239" lon="-4.153968"><ele>421</ele><time>2020-09-18T10:14:14Z</time><name>PT1413</name></trkpt>
<trkpt lat="53.114224" lon="-4.154010"><ele>421</ele><time>2020-09-18T10:14:17Z</time><name>PT1414</name></trkpt>
<trkpt lat="53.114204" lon="-4.154057"><ele>422</ele><time>2020-09-18T10:14:20Z</time><name>PT1415</name></trkpt>
<trkpt lat="53.114202" lon="-4.154059"><ele>423</ele><time>2020-09-18T10:14:24Z</time><name>PT1416</name></trkpt>
<trkpt lat="53.114195" lon="-4.154070"><ele>423</ele><time>2020-09-18T10:15:13Z</time><name>PT1417</name></trkpt>
<trkpt lat="53.114192" lon="-4.154081"><ele>423</ele><time>2020-09-18T10:15:21Z</time><name>PT1418</name></trkpt>
<trkpt lat="53.114164" lon="-4.154151"><ele>424</ele><time>2020-09-18T10:15:24Z</time><name>PT1419</name></trkpt>
<trkpt lat="53.114142" lon="-4.154203"><ele>424</ele><time>2020-09-18T10:15:27Z</time><name>PT1420</name></trkpt>
<trkpt lat="53.114106" lon="-4.154269"><ele>425</ele><time>2020-09-18T10:15:31Z</time><name>PT1421</name></trkpt>
<trkpt lat="53.114083" lon="-4.154314"><ele>426</ele><time>2020-09-18T10:15:34Z</time><name>PT1422</name></trkpt>
<trkpt lat="53.114055" lon="-4.154390"><ele>426</ele><time>2020-09-18T10:15:38Z</time><name>PT1423</name></trkpt>
<trkpt lat="53.114032" lon="-4.154443"><ele>425</ele><time>2020-09-18T10:15:41Z</time><name>PT1424</name></trkpt>
<trkpt lat="53.114005" lon="-4.154519"><ele>425</ele><time>2020-09-18T10:15:45Z</time><name>PT1425</name></trkpt>
<trkpt lat="53.113983" lon="-4.154585"><ele>426</ele><time>2020-09-18T10:15:49Z</time><name>PT1426</name></trkpt>
<trkpt lat="53.113957" lon="-4.154631"><ele>426</ele><time>2020-09-18T10:15:52Z</time><name>PT1427</name></trkpt>
<trkpt lat="53.113931" lon="-4.154695"><ele>426</ele><time>2020-09-18T10:15:56Z</time><name>PT1428</name></trkpt>
<trkpt lat="53.113901" lon="-4.154758"><ele>426</ele><time>2020-09-18T10:16:00Z</time><name>PT1429</name></trkpt>
<trkpt lat="53.113881" lon="-4.154798"><ele>427</ele><time>2020-09-18T10:16:03Z</time><name>PT1430</name></trkpt>
<trkpt lat="53.113860" lon="-4.154849"><ele>427</ele><time>2020-09-18T10:16:06Z</time><name>PT1431</name></trkpt>
<trkpt lat="53.113830" lon="-4.154900"><ele>428</ele><time>2020-09-18T10:16:10Z</time><name>PT1432</name></trkpt>
<trkpt lat="53.113807" lon="-4.154945"><ele>429</ele><time>2020-09-18T10:16:13Z</time><name>PT1433</name></trkpt>
<trkpt lat="53.113771" lon="-4.155000"><ele>430</ele><time>2020-09-18T10:16:17Z</time><name>PT1434</name></trkpt>
<trkpt lat="53.113737" lon="-4.155049"><ele>429</ele><time>2020-09-18T10:16:21Z</time><name>PT1435</name></trkpt>
<trkpt lat="53.113708" lon="-4.155098"><ele>430</ele><time>2020-09-18T10:16:25Z</time><name>PT1436</name></trkpt>
<trkpt lat="53.113688" lon="-4.155138"><ele>430</ele><time>2020-09-18T10:16:28Z</time><name>PT1437</name></trkpt>
<trkpt lat="53.113666" lon="-4.155203"><ele>431</ele><time>2020-09-18T10:16:32Z</time><name>PT1438</name></trkpt>
<trkpt lat="53.113639" lon="-4.155259"><ele>431</ele><time>2020-09-18T10:16:36Z</time><name>PT1439</name></trkpt>
<trkpt lat="53.113622" lon="-4.155294"><ele>431</ele><time>2020-09-18T10:16:39Z</time><name>PT1440</name></trkpt>
<trkpt lat="53.113600" lon="-4.155339"><ele>432</ele><time>2020-09-18T10:16:43Z</time><name>PT1441</name></trkpt>
<trkpt lat="53.113581" lon="-4.155377"><ele>432</ele><time>2020-09-18T10:16:46Z</time><name>PT1442</name></trkpt>
<trkpt lat="53.113558" lon="-4.155446"><ele>433</ele><time>2020-09-18T10:16:50Z</time><name>PT1443</name></trkpt>
<trkpt lat="53.113542" lon="-4.155494"><ele>434</ele><time>2020-09-18T10:16:54Z</time><name>PT1444</name></trkpt>
<trkpt lat="53.113524" lon="-4.155525"><ele>434</ele><time>2020-09-18T10:16:57Z</time><name>PT1445</name></trkpt>
<trkpt lat="53.113496" lon="-4.155575"><ele>435</ele><time>2020-09-18T10:17:01Z</time><name>PT1446</name></trkpt>
<trkpt lat="53.113477" lon="-4.155614"><ele>435</ele><time>2020-09-18T10:17:05Z</time><name>PT1447</name></trkpt>
<trkpt lat="53.113460" lon="-4.155646"><ele>435</ele><time>2020-09-18T10:17:08Z</time><name>PT1448</name></trkpt>
<trkpt lat="53.113442" lon="-4.155699"><ele>434</ele><time>2020-09-18T10:17:12Z</time><name>PT1449</name></trkpt>
<trkpt lat="53.113411" lon="-4.155755"><ele>435</ele><time>2020-09-18T10:17:16Z</time><name>PT1450</name></trkpt>
<trkpt lat="53.113386" lon="-4.155789"><ele>436</ele><time>2020-09-18T10:17:19Z</time><name>PT1451</name></trkpt>
<trkpt lat="53.113365" lon="-4.155824"><ele>437</ele><time>2020-09-18T10:17:22Z</time><name>PT1452</name></trkpt>
<trkpt lat="53.113341" lon="-4.155859"><ele>438</ele><time>2020-09-18T10:17:26Z</time><name>PT1453</name></trkpt>
<trkpt lat="53.113315" lon="-4.155877"><ele>437</ele><time>2020-09-18T10:17:29Z</time><name>PT1454</name></trkpt>
<trkpt lat="53.113294" lon="-4.155898"><ele>438</ele><time>2020-09-18T10:17:32Z</time><name>PT1455</name></trkpt>
<trkpt lat="53.113282" lon="-4.155933"><ele>439</ele><time>2020-09-18T10:17:35Z</time><name>PT1456</name></trkpt>
<trkpt lat="53.113262" lon="-4.155984"><ele>441</ele><time>2020-09-18T10:17:39Z</time><name>PT1457</name></trkpt>
<trkpt lat="53.113251" lon="-4.156026"><ele>441</ele><time>2020-09-18T10:17:42Z</time><name>PT1458</name></trkpt>
<trkpt lat="53.113239" lon="-4.156073"><ele>441</ele><time>2020-09-18T10:17:45Z</time><name>PT1459</name></trkpt>
<trkpt lat="53.113205" lon="-4.156126"><ele>441</ele><time>2020-09-18T10:17:49Z</time><name>PT1460</name></trkpt>
<trkpt lat="53.113180" lon="-4.156167"><ele>441</ele><time>2020-09-18T10:17:52Z</time><name>PT1461</name></trkpt>
<trkpt lat="53.113149" lon="-4.156191"><ele>442</ele><time>2020-09-18T10:17:55Z</time><name>PT1462</name></trkpt>
<trkpt lat="53.113126" lon="-4.156223"><ele>442</ele><time>2020-09-18T10:17:58Z</time><name>PT1463</name></trkpt>
<trkpt lat="53.113102" lon="-4.156251"><ele>442</ele><time>2020-09-18T10:18:01Z</time><name>PT1464</name></trkpt>
<trkpt lat="53.113074" lon="-4.156278"><ele>442</ele><time>2020-09-18T10:18:04Z</time><name>PT1465</name></trkpt>
<trkpt lat="53.113049" lon="-4.156311"><ele>442</ele><time>2020-09-18T10:18:07Z</time><name>PT1466</name></trkpt>
<trkpt lat="53.113025" lon="-4.156341"><ele>443</ele><time>2020-09-18T10:18:10Z</time><name>PT1467</name></trkpt>
<trkpt lat="53.112996" lon="-4.156373"><ele>442</ele><time>2020-09-18T10:18:13Z</time><name>PT1468</name></trkpt>
<trkpt lat="53.112974" lon="-4.156406"><ele>442</ele><time>2020-09-18T10:18:16Z</time><name>PT1469</name></trkpt>
<trkpt lat="53.112935" lon="-4.156455"><ele>443</ele><time>2020-09-18T10:18:20Z</time><name>PT1470</name></trkpt>
<trkpt lat="53.112910" lon="-4.156481"><ele>443</ele><time>2020-09-18T10:18:23Z</time><name>PT1471</name></trkpt>
<trkpt lat="53.112887" lon="-4.156514"><ele>443</ele><time>2020-09-18T10:18:26Z</time><name>PT1472</name></trkpt>
<trkpt lat="53.112864" lon="-4.156538"><ele>443</ele><time>2020-09-18T10:18:29Z</time><name>PT1473</name></trkpt>
<trkpt lat="53.112835" lon="-4.156574"><ele>443</ele><time>2020-09-18T10:18:33Z</time><name>PT1474</name></trkpt>
<trkpt lat="53.112809" lon="-4.156606"><ele>443</ele><time>2020-09-18T10:18:36Z</time><name>PT1475</name></trkpt>
<trkpt lat="53.112779" lon="-4.156640"><ele>443</ele><time>2020-09-18T10:18:39Z</time><name>PT1476</name></trkpt>
<trkpt lat="53.112743" lon="-4.156693"><ele>443</ele><time>2020-09-18T10:18:43Z</time><name>PT1477</name></trkpt>
<trkpt lat="53.112711" lon="-4.156728"><ele>443</ele><time>2020-09-18T10:18:46Z</time><name>PT1478</name></trkpt>
<trkpt lat="53.112673" lon="-4.156764"><ele>444</ele><time>2020-09-18T10:18:49Z</time><name>PT1479</name></trkpt>
<trkpt lat="53.112625" lon="-4.156802"><ele>445</ele><time>2020-09-18T10:18:53Z</time><name>PT1480</name></trkpt>
<trkpt lat="53.112594" lon="-4.156836"><ele>447</ele><time>2020-09-18T10:18:56Z</time><name>PT1481</name></trkpt>
<trkpt lat="53.112560" lon="-4.156867"><ele>448</ele><time>2020-09-18T10:18:59Z</time><name>PT1482</name></trkpt>
<trkpt lat="53.112522" lon="-4.156901"><ele>448</ele><time>2020-09-18T10:19:03Z</time><name>PT1483</name></trkpt>
<trkpt lat="53.112482" lon="-4.156925"><ele>447</ele><time>2020-09-18T10:19:07Z</time><name>PT1484</name></trkpt>
<trkpt lat="53.112450" lon="-4.156942"><ele>447</ele><time>2020-09-18T10:19:10Z</time><name>PT1485</name></trkpt>
<trkpt lat="53.112407" lon="-4.156971"><ele>448</ele><time>2020-09-18T10:19:14Z</time><name>PT1486</name></trkpt>
<trkpt lat="53.112368" lon="-4.156982"><ele>449</ele><time>2020-09-18T10:19:17Z</time><name>PT1487</name></trkpt>
<trkpt lat="53.112333" lon="-4.156996"><ele>449</ele><time>2020-09-18T10:19:20Z</time><name>PT1488</name></trkpt>
<trkpt lat="53.112286" lon="-4.157007"><ele>449</ele><time>2020-09-18T10:19:24Z</time><name>PT1489</name></trkpt>
<trkpt lat="53.112250" lon="-4.157015"><ele>450</ele><time>2020-09-18T10:19:27Z</time><name>PT1490</name></trkpt>
<trkpt lat="53.112214" lon="-4.157009"><ele>450</ele><time>2020-09-18T10:19:30Z</time><name>PT1491</name></trkpt>
<trkpt lat="53.112168" lon="-4.157006"><ele>449</ele><time>2020-09-18T10:19:34Z</time><name>PT1492</name></trkpt>
<trkpt lat="53.112121" lon="-4.157010"><ele>448</ele><time>2020-09-18T10:19:38Z</time><name>PT1493</name></trkpt>
<trkpt lat="53.112082" lon="-4.157003"><ele>448</ele><time>2020-09-18T10:19:41Z</time><name>PT1494</name></trkpt>
<trkpt lat="53.112031" lon="-4.157007"><ele>448</ele><time>2020-09-18T10:19:45Z</time><name>PT1495</name></trkpt>
<trkpt lat="53.111997" lon="-4.157008"><ele>448</ele><time>2020-09-18T10:19:48Z</time><name>PT1496</name></trkpt>
<trkpt lat="53.111946" lon="-4.157019"><ele>447</ele><time>2020-09-18T10:19:52Z</time><name>PT1497</name></trkpt>
<trkpt lat="53.111909" lon="-4.157027"><ele>446</ele><time>2020-09-18T10:19:55Z</time><name>PT1498</name></trkpt>
<trkpt lat="53.111877" lon="-4.157041"><ele>445</ele><time>2020-09-18T10:19:58Z</time><name>PT1499</name></trkpt>
<trkpt lat="53.111826" lon="-4.157050"><ele>445</ele><time>2020-09-18T10:20:02Z</time><name>PT1500</name></trkpt>
<trkpt lat="53.111790" lon="-4.157072"><ele>446</ele><time>2020-09-18T10:20:05Z</time><name>PT1501</name></trkpt>
<trkpt lat="53.111744" lon="-4.157097"><ele>446</ele><time>2020-09-18T10:20:09Z</time><name>PT1502</name></trkpt>
<trkpt lat="53.111706" lon="-4.157109"><ele>447</ele><time>2020-09-18T10:20:12Z</time><name>PT1503</name></trkpt>
<trkpt lat="53.111659" lon="-4.157138"><ele>445</ele><time>2020-09-18T10:20:16Z</time><name>PT1504</name></trkpt>
<trkpt lat="53.111621" lon="-4.157162"><ele>446</ele><time>2020-09-18T10:20:19Z</time><name>PT1505</name></trkpt>
<trkpt lat="53.111575" lon="-4.157188"><ele>447</ele><time>2020-09-18T10:20:23Z</time><name>PT1506</name></trkpt>
<trkpt lat="53.111544" lon="-4.157207"><ele>446</ele><time>2020-09-18T10:20:26Z</time><name>PT1507</name></trkpt>
<trkpt lat="53.111508" lon="-4.157227"><ele>448</ele><time>2020-09-18T10:20:30Z</time><name>PT1508</name></trkpt>
<trkpt lat="53.111478" lon="-4.157247"><ele>448</ele><time>2020-09-18T10:20:33Z</time><name>PT1509</name></trkpt>
<trkpt lat="53.111434" lon="-4.157271"><ele>448</ele><time>2020-09-18T10:20:37Z</time><name>PT1510</name></trkpt>
<trkpt lat="53.111383" lon="-4.157300"><ele>449</ele><time>2020-09-18T10:20:41Z</time><name>PT1511</name></trkpt>
<trkpt lat="53.111351" lon="-4.157312"><ele>449</ele><time>2020-09-18T10:20:44Z</time><name>PT1512</name></trkpt>
<trkpt lat="53.111309" lon="-4.157331"><ele>451</ele><time>2020-09-18T10:20:48Z</time><name>PT1513</name></trkpt>
<trkpt lat="53.111270" lon="-4.157347"><ele>452</ele><time>2020-09-18T10:20:52Z</time><name>PT1514</name></trkpt>
<trkpt lat="53.111241" lon="-4.157354"><ele>452</ele><time>2020-09-18T10:20:55Z</time><name>PT1515</name></trkpt>
<trkpt lat="53.111210" lon="-4.157371"><ele>452</ele><time>2020-09-18T10:20:58Z</time><name>PT1516</name></trkpt>
<trkpt lat="53.111172" lon="-4.157400"><ele>452</ele><time>2020-09-18T10:21:02Z</time><name>PT1517</name></trkpt>
<trkpt lat="53.111129" lon="-4.157413"><ele>452</ele><time>2020-09-18T10:21:06Z</time><name>PT1518</name></trkpt>
<trkpt lat="53.111102" lon="-4.157436"><ele>453</ele><time>2020-09-18T10:21:09Z</time><name>PT1519</name></trkpt>
<trkpt lat="53.111072" lon="-4.157445"><ele>454</ele><time>2020-09-18T10:21:13Z</time><name>PT1520</name></trkpt>
<trkpt lat="53.111043" lon="-4.157475"><ele>454</ele><time>2020-09-18T10:21:17Z</time><name>PT1521</name></trkpt>
<trkpt lat="53.111019" lon="-4.157490"><ele>454</ele><time>2020-09-18T10:21:20Z</time><name>PT1522</name></trkpt>
<trkpt lat="53.110984" lon="-4.157503"><ele>455</ele><time>2020-09-18T10:21:24Z</time><name>PT1523</name></trkpt>
<trkpt lat="53.110952" lon="-4.157511"><ele>456</ele><time>2020-09-18T10:21:27Z</time><name>PT1524</name></trkpt>
<trkpt lat="53.110916" lon="-4.157519"><ele>456</ele><time>2020-09-18T10:21:31Z</time><name>PT1525</name></trkpt>
<trkpt lat="53.110872" lon="-4.157524"><ele>457</ele><time>2020-09-18T10:21:35Z</time><name>PT1526</name></trkpt>
<trkpt lat="53.110839" lon="-4.157544"><ele>458</ele><time>2020-09-18T10:21:38Z</time><name>PT1527</name></trkpt>
<trkpt lat="53.110817" lon="-4.157561"><ele>457</ele><time>2020-09-18T10:21:41Z</time><name>PT1528</name></trkpt>
<trkpt lat="53.110778" lon="-4.157589"><ele>458</ele><time>2020-09-18T10:21:45Z</time><name>PT1529</name></trkpt>
<trkpt lat="53.110751" lon="-4.157623"><ele>458</ele><time>2020-09-18T10:21:48Z</time><name>PT1530</name></trkpt>
<trkpt lat="53.110711" lon="-4.157653"><ele>458</ele><time>2020-09-18T10:21:52Z</time><name>PT1531</name></trkpt>
<trkpt lat="53.110675" lon="-4.157668"><ele>458</ele><time>2020-09-18T10:21:55Z</time><name>PT1532</name></trkpt>
<trkpt lat="53.110631" lon="-4.157695"><ele>457</ele><time>2020-09-18T10:21:59Z</time><name>PT1533</name></trkpt>
<trkpt lat="53.110589" lon="-4.157727"><ele>458</ele><time>2020-09-18T10:22:03Z</time><name>PT1534</name></trkpt>
<trkpt lat="53.110554" lon="-4.157752"><ele>459</ele><time>2020-09-18T10:22:06Z</time><name>PT1535</name></trkpt>
<trkpt lat="53.110514" lon="-4.157757"><ele>459</ele><time>2020-09-18T10:22:09Z</time><name>PT1536</name></trkpt>
<trkpt lat="53.110484" lon="-4.157739"><ele>459</ele><time>2020-09-18T10:22:12Z</time><name>PT1537</name></trkpt>
<trkpt lat="53.110439" lon="-4.157711"><ele>459</ele><time>2020-09-18T10:22:16Z</time><name>PT1538</name></trkpt>
<trkpt lat="53.110398" lon="-4.157692"><ele>459</ele><time>2020-09-18T10:22:20Z</time><name>PT1539</name></trkpt>
<trkpt lat="53.110370" lon="-4.157687"><ele>459</ele><time>2020-09-18T10:22:23Z</time><name>PT1540</name></trkpt>
<trkpt lat="53.110341" lon="-4.157685"><ele>459</ele><time>2020-09-18T10:22:26Z</time><name>PT1541</name></trkpt>
<trkpt lat="53.110289" lon="-4.157676"><ele>460</ele><time>2020-09-18T10:22:30Z</time><name>PT1542</name></trkpt>
<trkpt lat="53.110256" lon="-4.157673"><ele>459</ele><time>2020-09-18T10:22:33Z</time><name>PT1543</name></trkpt>
<trkpt lat="53.110227" lon="-4.157681"><ele>458</ele><time>2020-09-18T10:22:36Z</time><name>PT1544</name></trkpt>
<trkpt lat="53.110195" lon="-4.157683"><ele>458</ele><time>2020-09-18T10:22:39Z</time><name>PT1545</name></trkpt>
<trkpt lat="53.110161" lon="-4.157689"><ele>458</ele><time>2020-09-18T10:22:42Z</time><name>PT1546</name></trkpt>
<trkpt lat="53.110115" lon="-4.157706"><ele>458</ele><time>2020-09-18T10:22:46Z</time><name>PT1547</name></trkpt>
<trkpt lat="53.110075" lon="-4.157723"><ele>459</ele><time>2020-09-18T10:22:49Z</time><name>PT1548</name></trkpt>
<trkpt lat="53.110023" lon="-4.157721"><ele>460</ele><time>2020-09-18T10:22:53Z</time><name>PT1549</name></trkpt>
<trkpt lat="53.109995" lon="-4.157699"><ele>460</ele><time>2020-09-18T10:22:56Z</time><name>PT1550</name></trkpt>
<trkpt lat="53.109964" lon="-4.157683"><ele>459</ele><time>2020-09-18T10:22:59Z</time><name>PT1551</name></trkpt>
<trkpt lat="53.109934" lon="-4.157663"><ele>460</ele><time>2020-09-18T10:23:02Z</time><name>PT1552</name></trkpt>
<trkpt lat="53.109892" lon="-4.157645"><ele>461</ele><time>2020-09-18T10:23:06Z</time><name>PT1553</name></trkpt>
<trkpt lat="53.109854" lon="-4.157638"><ele>461</ele><time>2020-09-18T10:23:10Z</time><name>PT1554</name></trkpt>
<trkpt lat="53.109826" lon="-4.157634"><ele>461</ele><time>2020-09-18T10:23:13Z</time><name>PT1555</name></trkpt>
<trkpt lat="53.109791" lon="-4.157629"><ele>462</ele><time>2020-09-18T10:23:17Z</time><name>PT1556</name></trkpt>
<trkpt lat="53.109762" lon="-4.157619"><ele>462</ele><time>2020-09-18T10:23:20Z</time><name>PT1557</name></trkpt>
<trkpt lat="53.109732" lon="-4.157606"><ele>463</ele><time>2020-09-18T10:23:24Z</time><name>PT1558</name></trkpt>
<trkpt lat="53.109701" lon="-4.157600"><ele>461</ele><time>2020-09-18T10:23:27Z</time><name>PT1559</name></trkpt>
<trkpt lat="53.109660" lon="-4.157583"><ele>461</ele><time>2020-09-18T10:23:31Z</time><name>PT1560</name></trkpt>
<trkpt lat="53.109625" lon="-4.157576"><ele>463</ele><time>2020-09-18T10:23:34Z</time><name>PT1561</name></trkpt>
<trkpt lat="53.109579" lon="-4.157564"><ele>464</ele><time>2020-09-18T10:23:38Z</time><name>PT1562</name></trkpt>
<trkpt lat="53.109545" lon="-4.157557"><ele>464</ele><time>2020-09-18T10:23:41Z</time><name>PT1563</name></trkpt>
<trkpt lat="53.109507" lon="-4.157558"><ele>464</ele><time>2020-09-18T10:23:45Z</time><name>PT1564</name></trkpt>
<trkpt lat="53.109477" lon="-4.157570"><ele>464</ele><time>2020-09-18T10:23:48Z</time><name>PT1565</name></trkpt>
<trkpt lat="53.109438" lon="-4.157589"><ele>465</ele><time>2020-09-18T10:23:52Z</time><name>PT1566</name></trkpt>
<trkpt lat="53.109406" lon="-4.157597"><ele>466</ele><time>2020-09-18T10:23:55Z</time><name>PT1567</name></trkpt>
<trkpt lat="53.109369" lon="-4.157616"><ele>468</ele><time>2020-09-18T10:23:59Z</time><name>PT1568</name></trkpt>
<trkpt lat="53.109337" lon="-4.157617"><ele>469</ele><time>2020-09-18T10:24:02Z</time><name>PT1569</name></trkpt>
<trkpt lat="53.109310" lon="-4.157627"><ele>469</ele><time>2020-09-18T10:24:05Z</time><name>PT1570</name></trkpt>
<trkpt lat="53.109280" lon="-4.157609"><ele>469</ele><time>2020-09-18T10:24:09Z</time><name>PT1571</name></trkpt>
<trkpt lat="53.109244" lon="-4.157606"><ele>471</ele><time>2020-09-18T10:24:13Z</time><name>PT1572</name></trkpt>
<trkpt lat="53.109220" lon="-4.157618"><ele>471</ele><time>2020-09-18T10:24:17Z</time><name>PT1573</name></trkpt>
<trkpt lat="53.109190" lon="-4.157612"><ele>471</ele><time>2020-09-18T10:24:21Z</time><name>PT1574</name></trkpt>
<trkpt lat="53.109168" lon="-4.157613"><ele>472</ele><time>2020-09-18T10:24:24Z</time><name>PT1575</name></trkpt>
<trkpt lat="53.109139" lon="-4.157621"><ele>473</ele><time>2020-09-18T10:24:28Z</time><name>PT1576</name></trkpt>
<trkpt lat="53.109108" lon="-4.157632"><ele>473</ele><time>2020-09-18T10:24:32Z</time><name>PT1577</name></trkpt>
<trkpt lat="53.109082" lon="-4.157648"><ele>473</ele><time>2020-09-18T10:24:35Z</time><name>PT1578</name></trkpt>
<trkpt lat="53.109056" lon="-4.157651"><ele>473</ele><time>2020-09-18T10:24:38Z</time><name>PT1579</name></trkpt>
<trkpt lat="53.109030" lon="-4.157646"><ele>474</ele><time>2020-09-18T10:24:42Z</time><name>PT1580</name></trkpt>
<trkpt lat="53.109011" lon="-4.157637"><ele>474</ele><time>2020-09-18T10:24:45Z</time><name>PT1581</name></trkpt>
<trkpt lat="53.108982" lon="-4.157621"><ele>475</ele><time>2020-09-18T10:24:49Z</time><name>PT1582</name></trkpt>
<trkpt lat="53.108953" lon="-4.157619"><ele>475</ele><time>2020-09-18T10:24:52Z</time><name>PT1583</name></trkpt>
<trkpt lat="53.108915" lon="-4.157629"><ele>477</ele><time>2020-09-18T10:24:56Z</time><name>PT1584</name></trkpt>
<trkpt lat="53.108884" lon="-4.157645"><ele>476</ele><time>2020-09-18T10:25:00Z</time><name>PT1585</name></trkpt>
<trkpt lat="53.108847" lon="-4.157643"><ele>475</ele><time>2020-09-18T10:25:04Z</time><name>PT1586</name></trkpt>
<trkpt lat="53.108821" lon="-4.157643"><ele>476</ele><time>2020-09-18T10:25:07Z</time><name>PT1587</name></trkpt>
<trkpt lat="53.108791" lon="-4.157644"><ele>477</ele><time>2020-09-18T10:25:10Z</time><name>PT1588</name></trkpt>
<trkpt lat="53.108759" lon="-4.157639"><ele>479</ele><time>2020-09-18T10:25:14Z</time><name>PT1589</name></trkpt>
<trkpt lat="53.108722" lon="-4.157624"><ele>480</ele><time>2020-09-18T10:25:18Z</time><name>PT1590</name></trkpt>
<trkpt lat="53.108700" lon="-4.157617"><ele>480</ele><time>2020-09-18T10:25:21Z</time><name>PT1591</name></trkpt>
<trkpt lat="53.108665" lon="-4.157607"><ele>482</ele><time>2020-09-18T10:25:25Z</time><name>PT1592</name></trkpt>
<trkpt lat="53.108641" lon="-4.157600"><ele>482</ele><time>2020-09-18T10:25:28Z</time><name>PT1593</name></trkpt>
<trkpt lat="53.108607" lon="-4.157585"><ele>483</ele><time>2020-09-18T10:25:32Z</time><name>PT1594</name></trkpt>
<trkpt lat="53.108584" lon="-4.157592"><ele>483</ele><time>2020-09-18T10:25:36Z</time><name>PT1595</name></trkpt>
<trkpt lat="53.108567" lon="-4.157600"><ele>482</ele><time>2020-09-18T10:25:39Z</time><name>PT1596</name></trkpt>
<trkpt lat="53.108546" lon="-4.157594"><ele>482</ele><time>2020-09-18T10:25:42Z</time><name>PT1597</name></trkpt>
<trkpt lat="53.108520" lon="-4.157583"><ele>483</ele><time>2020-09-18T10:25:45Z</time><name>PT1598</name></trkpt>
<trkpt lat="53.108489" lon="-4.157584"><ele>484</ele><time>2020-09-18T10:25:48Z</time><name>PT1599</name></trkpt>
<trkpt lat="53.108452" lon="-4.157588"><ele>484</ele><time>2020-09-18T10:25:52Z</time><name>PT1600</name></trkpt>
<trkpt lat="53.108423" lon="-4.157592"><ele>484</ele><time>2020-09-18T10:25:55Z</time><name>PT1601</name></trkpt>
<trkpt lat="53.108386" lon="-4.157599"><ele>485</ele><time>2020-09-18T10:25:59Z</time><name>PT1602</name></trkpt>
<trkpt lat="53.108342" lon="-4.157607"><ele>487</ele><time>2020-09-18T10:26:03Z</time><name>PT1603</name></trkpt>
<trkpt lat="53.108301" lon="-4.157617"><ele>487</ele><time>2020-09-18T10:26:07Z</time><name>PT1604</name></trkpt>
<trkpt lat="53.108274" lon="-4.157624"><ele>488</ele><time>2020-09-18T10:26:10Z</time><name>PT1605</name></trkpt>
<trkpt lat="53.108237" lon="-4.157631"><ele>488</ele><time>2020-09-18T10:26:14Z</time><name>PT1606</name></trkpt>
<trkpt lat="53.108214" lon="-4.157632"><ele>489</ele><time>2020-09-18T10:26:17Z</time><name>PT1607</name></trkpt>
<trkpt lat="53.108185" lon="-4.157621"><ele>490</ele><time>2020-09-18T10:26:21Z</time><name>PT1608</name></trkpt>
<trkpt lat="53.108153" lon="-4.157613"><ele>490</ele><time>2020-09-18T10:26:24Z</time><name>PT1609</name></trkpt>
<trkpt lat="53.108116" lon="-4.157615"><ele>491</ele><time>2020-09-18T10:26:28Z</time><name>PT1610</name></trkpt>
<trkpt lat="53.108080" lon="-4.157620"><ele>491</ele><time>2020-09-18T10:26:32Z</time><name>PT1611</name></trkpt>
<trkpt lat="53.108049" lon="-4.157618"><ele>491</ele><time>2020-09-18T10:26:36Z</time><name>PT1612</name></trkpt>
<trkpt lat="53.108023" lon="-4.157619"><ele>492</ele><time>2020-09-18T10:26:40Z</time><name>PT1613</name></trkpt>
<trkpt lat="53.107996" lon="-4.157638"><ele>493</ele><time>2020-09-18T10:26:44Z</time><name>PT1614</name></trkpt>
<trkpt lat="53.107970" lon="-4.157631"><ele>495</ele><time>2020-09-18T10:26:47Z</time><name>PT1615</name></trkpt>
<trkpt lat="53.107937" lon="-4.157634"><ele>496</ele><time>2020-09-18T10:26:51Z</time><name>PT1616</name></trkpt>
<trkpt lat="53.107912" lon="-4.157636"><ele>497</ele><time>2020-09-18T10:26:54Z</time><name>PT1617</name></trkpt>
<trkpt lat="53.107887" lon="-4.157645"><ele>497</ele><time>2020-09-18T10:26:57Z</time><name>PT1618</name></trkpt>
<trkpt lat="53.107864" lon="-4.157654"><ele>498</ele><time>2020-09-18T10:27:00Z</time><name>PT1619</name></trkpt>
<trkpt lat="53.107842" lon="-4.157656"><ele>497</ele><time>2020-09-18T10:27:03Z</time><name>PT1620</name></trkpt>
<trkpt lat="53.107804" lon="-4.157661"><ele>499</ele><time>2020-09-18T10:27:06Z</time><name>PT1621</name></trkpt>
<trkpt lat="53.107767" lon="-4.157677"><ele>499</ele><time>2020-09-18T10:27:10Z</time><name>PT1622</name></trkpt>
<trkpt lat="53.107742" lon="-4.157696"><ele>500</ele><time>2020-09-18T10:27:13Z</time><name>PT1623</name></trkpt>
<trkpt lat="53.107711" lon="-4.157699"><ele>500</ele><time>2020-09-18T10:27:16Z</time><name>PT1624</name></trkpt>
<trkpt lat="53.107676" lon="-4.157703"><ele>503</ele><time>2020-09-18T10:27:20Z</time><name>PT1625</name></trkpt>
<trkpt lat="53.107646" lon="-4.157694"><ele>502</ele><time>2020-09-18T10:27:24Z</time><name>PT1626</name></trkpt>
<trkpt lat="53.107609" lon="-4.157680"><ele>502</ele><time>2020-09-18T10:27:28Z</time><name>PT1627</name></trkpt>
<trkpt lat="53.107577" lon="-4.157667"><ele>502</ele><time>2020-09-18T10:27:31Z</time><name>PT1628</name></trkpt>
<trkpt lat="53.107530" lon="-4.157654"><ele>503</ele><time>2020-09-18T10:27:35Z</time><name>PT1629</name></trkpt>
<trkpt lat="53.107483" lon="-4.157645"><ele>504</ele><time>2020-09-18T10:27:39Z</time><name>PT1630</name></trkpt>
<trkpt lat="53.107445" lon="-4.157632"><ele>505</ele><time>2020-09-18T10:27:43Z</time><name>PT1631</name></trkpt>
<trkpt lat="53.107424" lon="-4.157634"><ele>504</ele><time>2020-09-18T10:27:46Z</time><name>PT1632</name></trkpt>
<trkpt lat="53.107394" lon="-4.157623"><ele>505</ele><time>2020-09-18T10:27:49Z</time><name>PT1633</name></trkpt>
<trkpt lat="53.107356" lon="-4.157612"><ele>506</ele><time>2020-09-18T10:27:53Z</time><name>PT1634</name></trkpt>
<trkpt lat="53.107328" lon="-4.157604"><ele>507</ele><time>2020-09-18T10:27:56Z</time><name>PT1635</name></trkpt>
<trkpt lat="53.107298" lon="-4.157594"><ele>506</ele><time>2020-09-18T10:27:59Z</time><name>PT1636</name></trkpt>
<trkpt lat="53.107260" lon="-4.157581"><ele>506</ele><time>2020-09-18T10:28:03Z</time><name>PT1637</name></trkpt>
<trkpt lat="53.107231" lon="-4.157570"><ele>506</ele><time>2020-09-18T10:28:06Z</time><name>PT1638</name></trkpt>
<trkpt lat="53.107202" lon="-4.157557"><ele>506</ele><time>2020-09-18T10:28:09Z</time><name>PT1639</name></trkpt>
<trkpt lat="53.107172" lon="-4.157546"><ele>505</ele><time>2020-09-18T10:28:12Z</time><name>PT1640</name></trkpt>
<trkpt lat="53.107128" lon="-4.157534"><ele>506</ele><time>2020-09-18T10:28:16Z</time><name>PT1641</name></trkpt>
<trkpt lat="53.107089" lon="-4.157528"><ele>507</ele><time>2020-09-18T10:28:20Z</time><name>PT1642</name></trkpt>
<trkpt lat="53.107055" lon="-4.157533"><ele>508</ele><time>2020-09-18T10:28:24Z</time><name>PT1643</name></trkpt>
<trkpt lat="53.107023" lon="-4.157525"><ele>508</ele><time>2020-09-18T10:28:28Z</time><name>PT1644</name></trkpt>
<trkpt lat="53.106999" lon="-4.157520"><ele>509</ele><time>2020-09-18T10:28:31Z</time><name>PT1645</name></trkpt>
<trkpt lat="53.106973" lon="-4.157507"><ele>510</ele><time>2020-09-18T10:28:34Z</time><name>PT1646</name></trkpt>
<trkpt lat="53.106928" lon="-4.157513"><ele>511</ele><time>2020-09-18T10:28:38Z</time><name>PT1647</name></trkpt>
<trkpt lat="53.106903" lon="-4.157493"><ele>510</ele><time>2020-09-18T10:28:41Z</time><name>PT1648</name></trkpt>
<trkpt lat="53.106862" lon="-4.157480"><ele>511</ele><time>2020-09-18T10:28:45Z</time><name>PT1649</name></trkpt>
<trkpt lat="53.106823" lon="-4.157447"><ele>512</ele><time>2020-09-18T10:28:49Z</time><name>PT1650</name></trkpt>
<trkpt lat="53.106783" lon="-4.157416"><ele>512</ele><time>2020-09-18T10:28:53Z</time><name>PT1651</name></trkpt>
<trkpt lat="53.106757" lon="-4.157401"><ele>512</ele><time>2020-09-18T10:28:56Z</time><name>PT1652</name></trkpt>
<trkpt lat="53.106730" lon="-4.157386"><ele>512</ele><time>2020-09-18T10:28:59Z</time><name>PT1653</name></trkpt>
<trkpt lat="53.106707" lon="-4.157373"><ele>512</ele><time>2020-09-18T10:29:02Z</time><name>PT1654</name></trkpt>
<trkpt lat="53.106681" lon="-4.157361"><ele>512</ele><time>2020-09-18T10:29:06Z</time><name>PT1655</name></trkpt>
<trkpt lat="53.106657" lon="-4.157347"><ele>513</ele><time>2020-09-18T10:29:10Z</time><name>PT1656</name></trkpt>
<trkpt lat="53.106633" lon="-4.157344"><ele>513</ele><time>2020-09-18T10:29:14Z</time><name>PT1657</name></trkpt>
<trkpt lat="53.106613" lon="-4.157335"><ele>514</ele><time>2020-09-18T10:29:17Z</time><name>PT1658</name></trkpt>
<trkpt lat="53.106594" lon="-4.157325"><ele>514</ele><time>2020-09-18T10:29:20Z</time><name>PT1659</name></trkpt>
<trkpt lat="53.106575" lon="-4.157306"><ele>515</ele><time>2020-09-18T10:29:24Z</time><name>PT1660</name></trkpt>
<trkpt lat="53.106560" lon="-4.157300"><ele>515</ele><time>2020-09-18T10:29:27Z</time><name>PT1661</name></trkpt>
<trkpt lat="53.106542" lon="-4.157292"><ele>516</ele><time>2020-09-18T10:29:31Z</time><name>PT1662</name></trkpt>
<trkpt lat="53.106533" lon="-4.157294"><ele>517</ele><time>2020-09-18T10:29:35Z</time><name>PT1663</name></trkpt>
<trkpt lat="53.106523" lon="-4.157290"><ele>517</ele><time>2020-09-18T10:29:39Z</time><name>PT1664</name></trkpt>
<trkpt lat="53.106495" lon="-4.157281"><ele>517</ele><time>2020-09-18T10:29:42Z</time><name>PT1665</name></trkpt>
<trkpt lat="53.106475" lon="-4.157274"><ele>518</ele><time>2020-09-18T10:29:45Z</time><name>PT1666</name></trkpt>
<trkpt lat="53.106445" lon="-4.157259"><ele>519</ele><time>2020-09-18T10:29:49Z</time><name>PT1667</name></trkpt>
<trkpt lat="53.106413" lon="-4.157251"><ele>520</ele><time>2020-09-18T10:29:53Z</time><name>PT1668</name></trkpt>
<trkpt lat="53.106386" lon="-4.157239"><ele>521</ele><time>2020-09-18T10:29:57Z</time><name>PT1669</name></trkpt>
<trkpt lat="53.106369" lon="-4.157233"><ele>519</ele><time>2020-09-18T10:30:00Z</time><name>PT1670</name></trkpt>
<trkpt lat="53.106344" lon="-4.157225"><ele>520</ele><time>2020-09-18T10:30:03Z</time><name>PT1671</name></trkpt>
<trkpt lat="53.106305" lon="-4.157222"><ele>522</ele><time>2020-09-18T10:30:07Z</time><name>PT1672</name></trkpt>
<trkpt lat="53.106273" lon="-4.157220"><ele>523</ele><time>2020-09-18T10:30:11Z</time><name>PT1673</name></trkpt>
<trkpt lat="53.106237" lon="-4.157210"><ele>525</ele><time>2020-09-18T10:30:15Z</time><name>PT1674</name></trkpt>
<trkpt lat="53.106199" lon="-4.157200"><ele>526</ele><time>2020-09-18T10:30:19Z</time><name>PT1675</name></trkpt>
<trkpt lat="53.106167" lon="-4.157188"><ele>527</ele><time>2020-09-18T10:30:23Z</time><name>PT1676</name></trkpt>
<trkpt lat="53.106138" lon="-4.157184"><ele>527</ele><time>2020-09-18T10:30:27Z</time><name>PT1677</name></trkpt>
<trkpt lat="53.106117" lon="-4.157181"><ele>528</ele><time>2020-09-18T10:30:30Z</time><name>PT1678</name></trkpt>
<trkpt lat="53.106093" lon="-4.157179"><ele>528</ele><time>2020-09-18T10:30:33Z</time><name>PT1679</name></trkpt>
<trkpt lat="53.106066" lon="-4.157180"><ele>527</ele><time>2020-09-18T10:30:36Z</time><name>PT1680</name></trkpt>
<trkpt lat="53.106017" lon="-4.157168"><ele>528</ele><time>2020-09-18T10:30:40Z</time><name>PT1681</name></trkpt>
<trkpt lat="53.105990" lon="-4.157164"><ele>528</ele><time>2020-09-18T10:30:43Z</time><name>PT1682</name></trkpt>
<trkpt lat="53.105945" lon="-4.157161"><ele>530</ele><time>2020-09-18T10:30:47Z</time><name>PT1683</name></trkpt>
<trkpt lat="53.105918" lon="-4.157161"><ele>530</ele><time>2020-09-18T10:30:50Z</time><name>PT1684</name></trkpt>
<trkpt lat="53.105878" lon="-4.157158"><ele>531</ele><time>2020-09-18T10:30:54Z</time><name>PT1685</name></trkpt>
<trkpt lat="53.105846" lon="-4.157156"><ele>532</ele><time>2020-09-18T10:30:57Z</time><name>PT1686</name></trkpt>
<trkpt lat="53.105811" lon="-4.157167"><ele>533</ele><time>2020-09-18T10:31:01Z</time><name>PT1687</name></trkpt>
<trkpt lat="53.105792" lon="-4.157156"><ele>533</ele><time>2020-09-18T10:31:04Z</time><name>PT1688</name></trkpt>
<trkpt lat="53.105772" lon="-4.157151"><ele>533</ele><time>2020-09-18T10:31:07Z</time><name>PT1689</name></trkpt>
<trkpt lat="53.105740" lon="-4.157152"><ele>534</ele><time>2020-09-18T10:31:11Z</time><name>PT1690</name></trkpt>
<trkpt lat="53.105714" lon="-4.157147"><ele>534</ele><time>2020-09-18T10:31:14Z</time><name>PT1691</name></trkpt>
<trkpt lat="53.105684" lon="-4.157140"><ele>534</ele><time>2020-09-18T10:31:18Z</time><name>PT1692</name></trkpt>
<trkpt lat="53.105658" lon="-4.157138"><ele>535</ele><time>2020-09-18T10:31:21Z</time><name>PT1693</name></trkpt>
<trkpt lat="53.105623" lon="-4.157137"><ele>536</ele><time>2020-09-18T10:31:25Z</time><name>PT1694</name></trkpt>
<trkpt lat="53.105598" lon="-4.157132"><ele>536</ele><time>2020-09-18T10:31:28Z</time><name>PT1695</name></trkpt>
<trkpt lat="53.105568" lon="-4.157132"><ele>536</ele><time>2020-09-18T10:31:31Z</time><name>PT1696</name></trkpt>
<trkpt lat="53.105532" lon="-4.157128"><ele>536</ele><time>2020-09-18T10:31:35Z</time><name>PT1697</name></trkpt>
<trkpt lat="53.105503" lon="-4.157128"><ele>537</ele><time>2020-09-18T10:31:38Z</time><name>PT1698</name></trkpt>
<trkpt lat="53.105478" lon="-4.157129"><ele>537</ele><time>2020-09-18T10:31:41Z</time><name>PT1699</name></trkpt>
<trkpt lat="53.105447" lon="-4.157131"><ele>536</ele><time>2020-09-18T10:31:44Z</time><name>PT1700</name></trkpt>
<trkpt lat="53.105420" lon="-4.157143"><ele>537</ele><time>2020-09-18T10:31:47Z</time><name>PT1701</name></trkpt>
<trkpt lat="53.105385" lon="-4.157150"><ele>537</ele><time>2020-09-18T10:31:51Z</time><name>PT1702</name></trkpt>
<trkpt lat="53.105347" lon="-4.157155"><ele>538</ele><time>2020-09-18T10:31:55Z</time><name>PT1703</name></trkpt>
<trkpt lat="53.105302" lon="-4.157157"><ele>538</ele><time>2020-09-18T10:31:59Z</time><name>PT1704</name></trkpt>
<trkpt lat="53.105261" lon="-4.157169"><ele>538</ele><time>2020-09-18T10:32:03Z</time><name>PT1705</name></trkpt>
<trkpt lat="53.105220" lon="-4.157174"><ele>539</ele><time>2020-09-18T10:32:07Z</time><name>PT1706</name></trkpt>
<trkpt lat="53.105181" lon="-4.157179"><ele>538</ele><time>2020-09-18T10:32:11Z</time><name>PT1707</name></trkpt>
<trkpt lat="53.105146" lon="-4.157201"><ele>538</ele><time>2020-09-18T10:32:15Z</time><name>PT1708</name></trkpt>
<trkpt lat="53.105104" lon="-4.157221"><ele>538</ele><time>2020-09-18T10:32:19Z</time><name>PT1709</name></trkpt>
<trkpt lat="53.105066" lon="-4.157230"><ele>540</ele><time>2020-09-18T10:32:22Z</time><name>PT1710</name></trkpt>
<trkpt lat="53.105027" lon="-4.157221"><ele>541</ele><time>2020-09-18T10:32:26Z</time><name>PT1711</name></trkpt>
<trkpt lat="53.104998" lon="-4.157222"><ele>542</ele><time>2020-09-18T10:32:29Z</time><name>PT1712</name></trkpt>
<trkpt lat="53.104962" lon="-4.157224"><ele>543</ele><time>2020-09-18T10:32:33Z</time><name>PT1713</name></trkpt>
<trkpt lat="53.104930" lon="-4.157224"><ele>543</ele><time>2020-09-18T10:32:36Z</time><name>PT1714</name></trkpt>
<trkpt lat="53.104894" lon="-4.157222"><ele>543</ele><time>2020-09-18T10:32:40Z</time><name>PT1715</name></trkpt>
<trkpt lat="53.104852" lon="-4.157221"><ele>544</ele><time>2020-09-18T10:32:44Z</time><name>PT1716</name></trkpt>
<trkpt lat="53.104823" lon="-4.157221"><ele>545</ele><time>2020-09-18T10:32:47Z</time><name>PT1717</name></trkpt>
<trkpt lat="53.104784" lon="-4.157220"><ele>545</ele><time>2020-09-18T10:32:51Z</time><name>PT1718</name></trkpt>
<trkpt lat="53.104746" lon="-4.157215"><ele>546</ele><time>2020-09-18T10:32:54Z</time><name>PT1719</name></trkpt>
<trkpt lat="53.104707" lon="-4.157214"><ele>546</ele><time>2020-09-18T10:32:58Z</time><name>PT1720</name></trkpt>
<trkpt lat="53.104675" lon="-4.157215"><ele>546</ele><time>2020-09-18T10:33:01Z</time><name>PT1721</name></trkpt>
<trkpt lat="53.104625" lon="-4.157216"><ele>547</ele><time>2020-09-18T10:33:05Z</time><name>PT1722</name></trkpt>
<trkpt lat="53.104576" lon="-4.157216"><ele>547</ele><time>2020-09-18T10:33:09Z</time><name>PT1723</name></trkpt>
<trkpt lat="53.104540" lon="-4.157198"><ele>547</ele><time>2020-09-18T10:33:13Z</time><name>PT1724</name></trkpt>
<trkpt lat="53.104510" lon="-4.157176"><ele>547</ele><time>2020-09-18T10:33:16Z</time><name>PT1725</name></trkpt>
<trkpt lat="53.104475" lon="-4.157163"><ele>547</ele><time>2020-09-18T10:33:19Z</time><name>PT1726</name></trkpt>
<trkpt lat="53.104439" lon="-4.157164"><ele>548</ele><time>2020-09-18T10:33:22Z</time><name>PT1727</name></trkpt>
<trkpt lat="53.104386" lon="-4.157152"><ele>548</ele><time>2020-09-18T10:33:26Z</time><name>PT1728</name></trkpt>
<trkpt lat="53.104344" lon="-4.157147"><ele>549</ele><time>2020-09-18T10:33:30Z</time><name>PT1729</name></trkpt>
<trkpt lat="53.104292" lon="-4.157143"><ele>549</ele><time>2020-09-18T10:33:34Z</time><name>PT1730</name></trkpt>
<trkpt lat="53.104252" lon="-4.157142"><ele>549</ele><time>2020-09-18T10:33:37Z</time><name>PT1731</name></trkpt>
<trkpt lat="53.104214" lon="-4.157155"><ele>548</ele><time>2020-09-18T10:33:41Z</time><name>PT1732</name></trkpt>
<trkpt lat="53.104176" lon="-4.157159"><ele>549</ele><time>2020-09-18T10:33:44Z</time><name>PT1733</name></trkpt>
<trkpt lat="53.104131" lon="-4.157172"><ele>550</ele><time>2020-09-18T10:33:48Z</time><name>PT1734</name></trkpt>
<trkpt lat="53.104098" lon="-4.157181"><ele>551</ele><time>2020-09-18T10:33:51Z</time><name>PT1735</name></trkpt>
<trkpt lat="53.104068" lon="-4.157189"><ele>551</ele><time>2020-09-18T10:33:54Z</time><name>PT1736</name></trkpt>
<trkpt lat="53.104039" lon="-4.157197"><ele>551</ele><time>2020-09-18T10:33:57Z</time><name>PT1737</name></trkpt>
<trkpt lat="53.104001" lon="-4.157201"><ele>552</ele><time>2020-09-18T10:34:01Z</time><name>PT1738</name></trkpt>
<trkpt lat="53.103952" lon="-4.157214"><ele>552</ele><time>2020-09-18T10:34:05Z</time><name>PT1739</name></trkpt>
<trkpt lat="53.103915" lon="-4.157230"><ele>553</ele><time>2020-09-18T10:34:09Z</time><name>PT1740</name></trkpt>
<trkpt lat="53.103886" lon="-4.157221"><ele>553</ele><time>2020-09-18T10:34:12Z</time><name>PT1741</name></trkpt>
<trkpt lat="53.103858" lon="-4.157189"><ele>553</ele><time>2020-09-18T10:34:16Z</time><name>PT1742</name></trkpt>
<trkpt lat="53.103839" lon="-4.157162"><ele>554</ele><time>2020-09-18T10:34:19Z</time><name>PT1743</name></trkpt>
<trkpt lat="53.103807" lon="-4.157126"><ele>554</ele><time>2020-09-18T10:34:23Z</time><name>PT1744</name></trkpt>
<trkpt lat="53.103778" lon="-4.157093"><ele>554</ele><time>2020-09-18T10:34:27Z</time><name>PT1745</name></trkpt>
<trkpt lat="53.103758" lon="-4.157062"><ele>554</ele><time>2020-09-18T10:34:30Z</time><name>PT1746</name></trkpt>
<trkpt lat="53.103731" lon="-4.157037"><ele>554</ele><time>2020-09-18T10:34:34Z</time><name>PT1747</name></trkpt>
<trkpt lat="53.103702" lon="-4.157008"><ele>555</ele><time>2020-09-18T10:34:38Z</time><name>PT1748</name></trkpt>
<trkpt lat="53.103685" lon="-4.156988"><ele>555</ele><time>2020-09-18T10:34:41Z</time><name>PT1749</name></trkpt>
<trkpt lat="53.103680" lon="-4.156981"><ele>556</ele><time>2020-09-18T10:34:45Z</time><name>PT1750</name></trkpt>
<trkpt lat="53.103673" lon="-4.156967"><ele>556</ele><time>2020-09-18T10:34:48Z</time><name>PT1751</name></trkpt>
<trkpt lat="53.103643" lon="-4.156961"><ele>557</ele><time>2020-09-18T10:34:52Z</time><name>PT1752</name></trkpt>
<trkpt lat="53.103614" lon="-4.156963"><ele>558</ele><time>2020-09-18T10:34:56Z</time><name>PT1753</name></trkpt>
<trkpt lat="53.103581" lon="-4.156974"><ele>559</ele><time>2020-09-18T10:35:00Z</time><name>PT1754</name></trkpt>
<trkpt lat="53.103561" lon="-4.156986"><ele>560</ele><time>2020-09-18T10:35:03Z</time><name>PT1755</name></trkpt>
<trkpt lat="53.103536" lon="-4.156988"><ele>561</ele><time>2020-09-18T10:35:07Z</time><name>PT1756</name></trkpt>
<trkpt lat="53.103514" lon="-4.156996"><ele>562</ele><time>2020-09-18T10:35:10Z</time><name>PT1757</name></trkpt>
<trkpt lat="53.103486" lon="-4.157004"><ele>563</ele><time>2020-09-18T10:35:14Z</time><name>PT1758</name></trkpt>
<trkpt lat="53.103460" lon="-4.157000"><ele>563</ele><time>2020-09-18T10:35:18Z</time><name>PT1759</name></trkpt>
<trkpt lat="53.103441" lon="-4.156996"><ele>563</ele><time>2020-09-18T10:35:21Z</time><name>PT1760</name></trkpt>
<trkpt lat="53.103410" lon="-4.156986"><ele>565</ele><time>2020-09-18T10:35:25Z</time><name>PT1761</name></trkpt>
<trkpt lat="53.103383" lon="-4.156986"><ele>565</ele><time>2020-09-18T10:35:28Z</time><name>PT1762</name></trkpt>
<trkpt lat="53.103352" lon="-4.156990"><ele>566</ele><time>2020-09-18T10:35:32Z</time><name>PT1763</name></trkpt>
<trkpt lat="53.103332" lon="-4.156989"><ele>567</ele><time>2020-09-18T10:35:35Z</time><name>PT1764</name></trkpt>
<trkpt lat="53.103307" lon="-4.156987"><ele>566</ele><time>2020-09-18T10:35:38Z</time><name>PT1765</name></trkpt>
<trkpt lat="53.103270" lon="-4.156986"><ele>567</ele><time>2020-09-18T10:35:42Z</time><name>PT1766</name></trkpt>
<trkpt lat="53.103252" lon="-4.156994"><ele>567</ele><time>2020-09-18T10:35:45Z</time><name>PT1767</name></trkpt>
<trkpt lat="53.103223" lon="-4.156988"><ele>568</ele><time>2020-09-18T10:35:49Z</time><name>PT1768</name></trkpt>
<trkpt lat="53.103194" lon="-4.156994"><ele>569</ele><time>2020-09-18T10:35:53Z</time><name>PT1769</name></trkpt>
<trkpt lat="53.103174" lon="-4.156991"><ele>568</ele><time>2020-09-18T10:35:56Z</time><name>PT1770</name></trkpt>
<trkpt lat="53.103142" lon="-4.157002"><ele>570</ele><time>2020-09-18T10:36:00Z</time><name>PT1771</name></trkpt>
<trkpt lat="53.103116" lon="-4.157008"><ele>571</ele><time>2020-09-18T10:36:03Z</time><name>PT1772</name></trkpt>
<trkpt lat="53.103088" lon="-4.157016"><ele>572</ele><time>2020-09-18T10:36:07Z</time><name>PT1773</name></trkpt>
<trkpt lat="53.103065" lon="-4.157012"><ele>572</ele><time>2020-09-18T10:36:10Z</time><name>PT1774</name></trkpt>
<trkpt lat="53.103036" lon="-4.157012"><ele>573</ele><time>2020-09-18T10:36:14Z</time><name>PT1775</name></trkpt>
<trkpt lat="53.103013" lon="-4.157005"><ele>572</ele><time>2020-09-18T10:36:18Z</time><name>PT1776</name></trkpt>
<trkpt lat="53.102996" lon="-4.157007"><ele>573</ele><time>2020-09-18T10:36:21Z</time><name>PT1777</name></trkpt>
<trkpt lat="53.102975" lon="-4.157001"><ele>573</ele><time>2020-09-18T10:36:25Z</time><name>PT1778</name></trkpt>
<trkpt lat="53.102951" lon="-4.156998"><ele>573</ele><time>2020-09-18T10:36:29Z</time><name>PT1779</name></trkpt>
<trkpt lat="53.102928" lon="-4.156990"><ele>574</ele><time>2020-09-18T10:36:33Z</time><name>PT1780</name></trkpt>
<trkpt lat="53.102909" lon="-4.156994"><ele>575</ele><time>2020-09-18T10:36:36Z</time><name>PT1781</name></trkpt>
<trkpt lat="53.102884" lon="-4.156993"><ele>576</ele><time>2020-09-18T10:36:40Z</time><name>PT1782</name></trkpt>
<trkpt lat="53.102859" lon="-4.156982"><ele>577</ele><time>2020-09-18T10:36:44Z</time><name>PT1783</name></trkpt>
<trkpt lat="53.102837" lon="-4.156980"><ele>578</ele><time>2020-09-18T10:36:47Z</time><name>PT1784</name></trkpt>
<trkpt lat="53.102815" lon="-4.156968"><ele>578</ele><time>2020-09-18T10:36:50Z</time><name>PT1785</name></trkpt>
<trkpt lat="53.102802" lon="-4.156967"><ele>579</ele><time>2020-09-18T10:36:54Z</time><name>PT1786</name></trkpt>
<trkpt lat="53.102772" lon="-4.156969"><ele>581</ele><time>2020-09-18T10:36:58Z</time><name>PT1787</name></trkpt>
<trkpt lat="53.102740" lon="-4.156967"><ele>581</ele><time>2020-09-18T10:37:02Z</time><name>PT1788</name></trkpt>
<trkpt lat="53.102713" lon="-4.156957"><ele>582</ele><time>2020-09-18T10:37:06Z</time><name>PT1789</name></trkpt>
<trkpt lat="53.102710" lon="-4.156974"><ele>586</ele><time>2020-09-18T10:37:10Z</time><name>PT1790</name></trkpt>
<trkpt lat="53.102688" lon="-4.156966"><ele>586</ele><time>2020-09-18T10:37:13Z</time><name>PT1791</name></trkpt>
<trkpt lat="53.102662" lon="-4.156962"><ele>587</ele><time>2020-09-18T10:37:17Z</time><name>PT1792</name></trkpt>
<trkpt lat="53.102641" lon="-4.156961"><ele>587</ele><time>2020-09-18T10:37:20Z</time><name>PT1793</name></trkpt>
<trkpt lat="53.102619" lon="-4.156956"><ele>588</ele><time>2020-09-18T10:37:23Z</time><name>PT1794</name></trkpt>
<trkpt lat="53.102598" lon="-4.156945"><ele>588</ele><time>2020-09-18T10:37:26Z</time><name>PT1795</name></trkpt>
<trkpt lat="53.102582" lon="-4.156939"><ele>589</ele><time>2020-09-18T10:37:29Z</time><name>PT1796</name></trkpt>
<trkpt lat="53.102559" lon="-4.156941"><ele>589</ele><time>2020-09-18T10:37:32Z</time><name>PT1797</name></trkpt>
<trkpt lat="53.102534" lon="-4.156924"><ele>590</ele><time>2020-09-18T10:37:36Z</time><name>PT1798</name></trkpt>
<trkpt lat="53.102513" lon="-4.156922"><ele>591</ele><time>2020-09-18T10:37:39Z</time><name>PT1799</name></trkpt>
<trkpt lat="53.102494" lon="-4.156920"><ele>592</ele><time>2020-09-18T10:37:42Z</time><name>PT1800</name></trkpt>
<trkpt lat="53.102480" lon="-4.156918"><ele>593</ele><time>2020-09-18T10:37:45Z</time><name>PT1801</name></trkpt>
<trkpt lat="53.102461" lon="-4.156907"><ele>593</ele><time>2020-09-18T10:37:49Z</time><name>PT1802</name></trkpt>
<trkpt lat="53.102442" lon="-4.156893"><ele>593</ele><time>2020-09-18T10:37:52Z</time><name>PT1803</name></trkpt>
<trkpt lat="53.102421" lon="-4.156896"><ele>594</ele><time>2020-09-18T10:37:55Z</time><name>PT1804</name></trkpt>
<trkpt lat="53.102413" lon="-4.156910"><ele>594</ele><time>2020-09-18T10:37:58Z</time><name>PT1805</name></trkpt>
<trkpt lat="53.102391" lon="-4.156907"><ele>595</ele><time>2020-09-18T10:38:01Z</time><name>PT1806</name></trkpt>
<trkpt lat="53.102373" lon="-4.156900"><ele>595</ele><time>2020-09-18T10:38:04Z</time><name>PT1807</name></trkpt>
<trkpt lat="53.102351" lon="-4.156895"><ele>595</ele><time>2020-09-18T10:38:07Z</time><name>PT1808</name></trkpt>
<trkpt lat="53.102331" lon="-4.156892"><ele>595</ele><time>2020-09-18T10:38:10Z</time><name>PT1809</name></trkpt>
<trkpt lat="53.102305" lon="-4.156886"><ele>596</ele><time>2020-09-18T10:38:14Z</time><name>PT1810</name></trkpt>
<trkpt lat="53.102289" lon="-4.156883"><ele>596</ele><time>2020-09-18T10:38:17Z</time><name>PT1811</name></trkpt>
<trkpt lat="53.102260" lon="-4.156886"><ele>596</ele><time>2020-09-18T10:38:21Z</time><name>PT1812</name></trkpt>
<trkpt lat="53.102240" lon="-4.156892"><ele>597</ele><time>2020-09-18T10:38:24Z</time><name>PT1813</name></trkpt>
<trkpt lat="53.102225" lon="-4.156911"><ele>598</ele><time>2020-09-18T10:38:27Z</time><name>PT1814</name></trkpt>
<trkpt lat="53.102211" lon="-4.156908"><ele>598</ele><time>2020-09-18T10:38:30Z</time><name>PT1815</name></trkpt>
<trkpt lat="53.102187" lon="-4.156908"><ele>598</ele><time>2020-09-18T10:38:34Z</time><name>PT1816</name></trkpt>
<trkpt lat="53.102169" lon="-4.156908"><ele>599</ele><time>2020-09-18T10:38:37Z</time><name>PT1817</name></trkpt>
<trkpt lat="53.102151" lon="-4.156907"><ele>599</ele><time>2020-09-18T10:38:40Z</time><name>PT1818</name></trkpt>
<trkpt lat="53.102131" lon="-4.156903"><ele>600</ele><time>2020-09-18T10:38:44Z</time><name>PT1819</name></trkpt>
<trkpt lat="53.102114" lon="-4.156894"><ele>601</ele><time>2020-09-18T10:38:47Z</time><name>PT1820</name></trkpt>
<trkpt lat="53.102091" lon="-4.156887"><ele>602</ele><time>2020-09-18T10:38:51Z</time><name>PT1821</name></trkpt>
<trkpt lat="53.102069" lon="-4.156879"><ele>603</ele><time>2020-09-18T10:38:54Z</time><name>PT1822</name></trkpt>
<trkpt lat="53.102044" lon="-4.156871"><ele>603</ele><time>2020-09-18T10:38:58Z</time><name>PT1823</name></trkpt>
<trkpt lat="53.102031" lon="-4.156865"><ele>604</ele><time>2020-09-18T10:39:01Z</time><name>PT1824</name></trkpt>
<trkpt lat="53.102014" lon="-4.156861"><ele>604</ele><time>2020-09-18T10:39:04Z</time><name>PT1825</name></trkpt>
<trkpt lat="53.101991" lon="-4.156850"><ele>604</ele><time>2020-09-18T10:39:08Z</time><name>PT1826</name></trkpt>
<trkpt lat="53.101964" lon="-4.156828"><ele>606</ele><time>2020-09-18T10:39:12Z</time><name>PT1827</name></trkpt>
<trkpt lat="53.101942" lon="-4.156821"><ele>607</ele><time>2020-09-18T10:39:16Z</time><name>PT1828</name></trkpt>
<trkpt lat="53.101927" lon="-4.156804"><ele>608</ele><time>2020-09-18T10:39:19Z</time><name>PT1829</name></trkpt>
<trkpt lat="53.101906" lon="-4.156790"><ele>608</ele><time>2020-09-18T10:39:22Z</time><name>PT1830</name></trkpt>
<trkpt lat="53.101884" lon="-4.156782"><ele>609</ele><time>2020-09-18T10:39:25Z</time><name>PT1831</name></trkpt>
<trkpt lat="53.101856" lon="-4.156776"><ele>610</ele><time>2020-09-18T10:39:29Z</time><name>PT1832</name></trkpt>
<trkpt lat="53.101831" lon="-4.156774"><ele>611</ele><time>2020-09-18T10:39:33Z</time><name>PT1833</name></trkpt>
<trkpt lat="53.101808" lon="-4.156742"><ele>612</ele><time>2020-09-18T10:39:37Z</time><name>PT1834</name></trkpt>
<trkpt lat="53.101791" lon="-4.156717"><ele>612</ele><time>2020-09-18T10:39:41Z</time><name>PT1835</name></trkpt>
<trkpt lat="53.101773" lon="-4.156695"><ele>613</ele><time>2020-09-18T10:39:45Z</time><name>PT1836</name></trkpt>
<trkpt lat="53.101759" lon="-4.156680"><ele>614</ele><time>2020-09-18T10:39:48Z</time><name>PT1837</name></trkpt>
<trkpt lat="53.101738" lon="-4.156656"><ele>616</ele><time>2020-09-18T10:39:52Z</time><name>PT1838</name></trkpt>
<trkpt lat="53.101714" lon="-4.156648"><ele>617</ele><time>2020-09-18T10:39:56Z</time><name>PT1839</name></trkpt>
<trkpt lat="53.101698" lon="-4.156636"><ele>617</ele><time>2020-09-18T10:39:59Z</time><name>PT1840</name></trkpt>
<trkpt lat="53.101685" lon="-4.156620"><ele>618</ele><time>2020-09-18T10:40:02Z</time><name>PT1841</name></trkpt>
<trkpt lat="53.101661" lon="-4.156610"><ele>619</ele><time>2020-09-18T10:40:06Z</time><name>PT1842</name></trkpt>
<trkpt lat="53.101642" lon="-4.156613"><ele>619</ele><time>2020-09-18T10:40:09Z</time><name>PT1843</name></trkpt>
<trkpt lat="53.101624" lon="-4.156607"><ele>619</ele><time>2020-09-18T10:40:12Z</time><name>PT1844</name></trkpt>
<trkpt lat="53.101603" lon="-4.156607"><ele>620</ele><time>2020-09-18T10:40:15Z</time><name>PT1845</name></trkpt>
<trkpt lat="53.101577" lon="-4.156602"><ele>621</ele><time>2020-09-18T10:40:19Z</time><name>PT1846</name></trkpt>
<trkpt lat="53.101562" lon="-4.156591"><ele>620</ele><time>2020-09-18T10:40:22Z</time><name>PT1847</name></trkpt>
<trkpt lat="53.101539" lon="-4.156580"><ele>621</ele><time>2020-09-18T10:40:26Z</time><name>PT1848</name></trkpt>
<trkpt lat="53.101522" lon="-4.156584"><ele>621</ele><time>2020-09-18T10:40:29Z</time><name>PT1849</name></trkpt>
<trkpt lat="53.101495" lon="-4.156581"><ele>623</ele><time>2020-09-18T10:40:33Z</time><name>PT1850</name></trkpt>
<trkpt lat="53.101470" lon="-4.156579"><ele>624</ele><time>2020-09-18T10:40:37Z</time><name>PT1851</name></trkpt>
<trkpt lat="53.101445" lon="-4.156579"><ele>626</ele><time>2020-09-18T10:40:41Z</time><name>PT1852</name></trkpt>
<trkpt lat="53.101422" lon="-4.156571"><ele>627</ele><time>2020-09-18T10:40:45Z</time><name>PT1853</name></trkpt>
<trkpt lat="53.101391" lon="-4.156575"><ele>628</ele><time>2020-09-18T10:40:49Z</time><name>PT1854</name></trkpt>
<trkpt lat="53.101369" lon="-4.156576"><ele>628</ele><time>2020-09-18T10:40:53Z</time><name>PT1855</name></trkpt>
<trkpt lat="53.101348" lon="-4.156573"><ele>629</ele><time>2020-09-18T10:40:57Z</time><name>PT1856</name></trkpt>
<trkpt lat="53.101330" lon="-4.156575"><ele>629</ele><time>2020-09-18T10:41:00Z</time><name>PT1857</name></trkpt>
<trkpt lat="53.101299" lon="-4.156574"><ele>630</ele><time>2020-09-18T10:41:04Z</time><name>PT1858</name></trkpt>
<trkpt lat="53.101280" lon="-4.156572"><ele>630</ele><time>2020-09-18T10:41:07Z</time><name>PT1859</name></trkpt>
<trkpt lat="53.101263" lon="-4.156568"><ele>632</ele><time>2020-09-18T10:41:10Z</time><name>PT1860</name></trkpt>
<trkpt lat="53.101250" lon="-4.156565"><ele>633</ele><time>2020-09-18T10:41:13Z</time><name>PT1861</name></trkpt>
<trkpt lat="53.101226" lon="-4.156553"><ele>635</ele><time>2020-09-18T10:41:17Z</time><name>PT1862</name></trkpt>
<trkpt lat="53.101205" lon="-4.156545"><ele>636</ele><time>2020-09-18T10:41:21Z</time><name>PT1863</name></trkpt>
<trkpt lat="53.101187" lon="-4.156525"><ele>636</ele><time>2020-09-18T10:41:25Z</time><name>PT1864</name></trkpt>
<trkpt lat="53.101169" lon="-4.156515"><ele>636</ele><time>2020-09-18T10:41:28Z</time><name>PT1865</name></trkpt>
<trkpt lat="53.101141" lon="-4.156513"><ele>637</ele><time>2020-09-18T10:41:32Z</time><name>PT1866</name></trkpt>
<trkpt lat="53.101108" lon="-4.156489"><ele>639</ele><time>2020-09-18T10:41:36Z</time><name>PT1867</name></trkpt>
<trkpt lat="53.101098" lon="-4.156485"><ele>639</ele><time>2020-09-18T10:41:39Z</time><name>PT1868</name></trkpt>
<trkpt lat="53.101078" lon="-4.156475"><ele>639</ele><time>2020-09-18T10:41:43Z</time><name>PT1869</name></trkpt>
<trkpt lat="53.101067" lon="-4.156467"><ele>640</ele><time>2020-09-18T10:41:46Z</time><name>PT1870</name></trkpt>
<trkpt lat="53.101040" lon="-4.156457"><ele>640</ele><time>2020-09-18T10:41:50Z</time><name>PT1871</name></trkpt>
<trkpt lat="53.101018" lon="-4.156433"><ele>640</ele><time>2020-09-18T10:41:54Z</time><name>PT1872</name></trkpt>
<trkpt lat="53.100998" lon="-4.156422"><ele>639</ele><time>2020-09-18T10:41:57Z</time><name>PT1873</name></trkpt>
<trkpt lat="53.100976" lon="-4.156417"><ele>639</ele><time>2020-09-18T10:42:00Z</time><name>PT1874</name></trkpt>
<trkpt lat="53.100947" lon="-4.156414"><ele>639</ele><time>2020-09-18T10:42:04Z</time><name>PT1875</name></trkpt>
<trkpt lat="53.100930" lon="-4.156405"><ele>640</ele><time>2020-09-18T10:42:07Z</time><name>PT1876</name></trkpt>
<trkpt lat="53.100912" lon="-4.156397"><ele>640</ele><time>2020-09-18T10:42:10Z</time><name>PT1877</name></trkpt>
<trkpt lat="53.100893" lon="-4.156393"><ele>641</ele><time>2020-09-18T10:42:13Z</time><name>PT1878</name></trkpt>
<trkpt lat="53.100871" lon="-4.156399"><ele>642</ele><time>2020-09-18T10:42:17Z</time><name>PT1879</name></trkpt>
<trkpt lat="53.100846" lon="-4.156407"><ele>643</ele><time>2020-09-18T10:42:21Z</time><name>PT1880</name></trkpt>
<trkpt lat="53.100830" lon="-4.156413"><ele>644</ele><time>2020-09-18T10:42:25Z</time><name>PT1881</name></trkpt>
<trkpt lat="53.100806" lon="-4.156425"><ele>646</ele><time>2020-09-18T10:42:36Z</time><name>PT1882</name></trkpt>
<trkpt lat="53.100785" lon="-4.156430"><ele>646</ele><time>2020-09-18T10:42:39Z</time><name>PT1883</name></trkpt>
<trkpt lat="53.100778" lon="-4.156431"><ele>646</ele><time>2020-09-18T10:42:43Z</time><name>PT1884</name></trkpt>
<trkpt lat="53.100740" lon="-4.156446"><ele>647</ele><time>2020-09-18T10:42:50Z</time><name>PT1885</name></trkpt>
<trkpt lat="53.100707" lon="-4.156463"><ele>649</ele><time>2020-09-18T10:42:53Z</time><name>PT1886</name></trkpt>
<trkpt lat="53.100687" lon="-4.156473"><ele>650</ele><time>2020-09-18T10:42:56Z</time><name>PT1887</name></trkpt>
<trkpt lat="53.100657" lon="-4.156497"><ele>654</ele><time>2020-09-18T10:42:59Z</time><name>PT1888</name></trkpt>
<trkpt lat="53.100631" lon="-4.156522"><ele>655</ele><time>2020-09-18T10:43:03Z</time><name>PT1889</name></trkpt>
<trkpt lat="53.100611" lon="-4.156535"><ele>656</ele><time>2020-09-18T10:43:06Z</time><name>PT1890</name></trkpt>
<trkpt lat="53.100586" lon="-4.156550"><ele>655</ele><time>2020-09-18T10:43:10Z</time><name>PT1891</name></trkpt>
<trkpt lat="53.100568" lon="-4.156557"><ele>655</ele><time>2020-09-18T10:43:13Z</time><name>PT1892</name></trkpt>
<trkpt lat="53.100547" lon="-4.156559"><ele>654</ele><time>2020-09-18T10:43:17Z</time><name>PT1893</name></trkpt>
<trkpt lat="53.100530" lon="-4.156554"><ele>654</ele><time>2020-09-18T10:43:20Z</time><name>PT1894</name></trkpt>
<trkpt lat="53.100507" lon="-4.156554"><ele>655</ele><time>2020-09-18T10:43:24Z</time><name>PT1895</name></trkpt>
<trkpt lat="53.100493" lon="-4.156563"><ele>655</ele><time>2020-09-18T10:43:28Z</time><name>PT1896</name></trkpt>
<trkpt lat="53.100471" lon="-4.156568"><ele>656</ele><time>2020-09-18T10:43:31Z</time><name>PT1897</name></trkpt>
<trkpt lat="53.100445" lon="-4.156584"><ele>658</ele><time>2020-09-18T10:43:35Z</time><name>PT1898</name></trkpt>
<trkpt lat="53.100435" lon="-4.156613"><ele>658</ele><time>2020-09-18T10:43:38Z</time><name>PT1899</name></trkpt>
<trkpt lat="53.100406" lon="-4.156643"><ele>660</ele><time>2020-09-18T10:43:42Z</time><name>PT1900</name></trkpt>
<trkpt lat="53.100379" lon="-4.156665"><ele>661</ele><time>2020-09-18T10:43:46Z</time><name>PT1901</name></trkpt>
<trkpt lat="53.100367" lon="-4.156696"><ele>662</ele><time>2020-09-18T10:43:49Z</time><name>PT1902</name></trkpt>
<trkpt lat="53.100352" lon="-4.156725"><ele>663</ele><time>2020-09-18T10:43:52Z</time><name>PT1903</name></trkpt>
<trkpt lat="53.100331" lon="-4.156745"><ele>663</ele><time>2020-09-18T10:43:56Z</time><name>PT1904</name></trkpt>
<trkpt lat="53.100304" lon="-4.156755"><ele>663</ele><time>2020-09-18T10:44:00Z</time><name>PT1905</name></trkpt>
<trkpt lat="53.100293" lon="-4.156744"><ele>663</ele><time>2020-09-18T10:44:03Z</time><name>PT1906</name></trkpt>
<trkpt lat="53.100292" lon="-4.156741"><ele>663</ele><time>2020-09-18T10:44:07Z</time><name>PT1907</name></trkpt>
<trkpt lat="53.100281" lon="-4.156741"><ele>664</ele><time>2020-09-18T10:44:11Z</time><name>PT1908</name></trkpt>
<trkpt lat="53.100264" lon="-4.156742"><ele>663</ele><time>2020-09-18T10:44:14Z</time><name>PT1909</name></trkpt>
<trkpt lat="53.100247" lon="-4.156745"><ele>664</ele><time>2020-09-18T10:44:17Z</time><name>PT1910</name></trkpt>
<trkpt lat="53.100219" lon="-4.156759"><ele>664</ele><time>2020-09-18T10:44:21Z</time><name>PT1911</name></trkpt>
<trkpt lat="53.100192" lon="-4.156774"><ele>665</ele><time>2020-09-18T10:44:25Z</time><name>PT1912</name></trkpt>
<trkpt lat="53.100167" lon="-4.156789"><ele>666</ele><time>2020-09-18T10:44:29Z</time><name>PT1913</name></trkpt>
<trkpt lat="53.100145" lon="-4.156803"><ele>666</ele><time>2020-09-18T10:44:33Z</time><name>PT1914</name></trkpt>
<trkpt lat="53.100128" lon="-4.156812"><ele>666</ele><time>2020-09-18T10:44:36Z</time><name>PT1915</name></trkpt>
<trkpt lat="53.100107" lon="-4.156830"><ele>667</ele><time>2020-09-18T10:44:40Z</time><name>PT1916</name></trkpt>
<trkpt lat="53.100086" lon="-4.156860"><ele>668</ele><time>2020-09-18T10:44:44Z</time><name>PT1917</name></trkpt>
<trkpt lat="53.100072" lon="-4.156855"><ele>668</ele><time>2020-09-18T10:44:47Z</time><name>PT1918</name></trkpt>
<trkpt lat="53.100046" lon="-4.156860"><ele>668</ele><time>2020-09-18T10:44:50Z</time><name>PT1919</name></trkpt>
<trkpt lat="53.100028" lon="-4.156865"><ele>669</ele><time>2020-09-18T10:44:53Z</time><name>PT1920</name></trkpt>
<trkpt lat="53.100006" lon="-4.156884"><ele>669</ele><time>2020-09-18T10:44:57Z</time><name>PT1921</name></trkpt>
<trkpt lat="53.099979" lon="-4.156900"><ele>670</ele><time>2020-09-18T10:45:01Z</time><name>PT1922</name></trkpt>
<trkpt lat="53.099959" lon="-4.156902"><ele>670</ele><time>2020-09-18T10:45:04Z</time><name>PT1923</name></trkpt>
<trkpt lat="53.099939" lon="-4.156911"><ele>671</ele><time>2020-09-18T10:45:07Z</time><name>PT1924</name></trkpt>
<trkpt lat="53.099915" lon="-4.156920"><ele>670</ele><time>2020-09-18T10:45:11Z</time><name>PT1925</name></trkpt>
<trkpt lat="53.099888" lon="-4.156936"><ele>671</ele><time>2020-09-18T10:45:15Z</time><name>PT1926</name></trkpt>
<trkpt lat="53.099867" lon="-4.156944"><ele>671</ele><time>2020-09-18T10:45:18Z</time><name>PT1927</name></trkpt>
<trkpt lat="53.099837" lon="-4.156948"><ele>672</ele><time>2020-09-18T10:45:22Z</time><name>PT1928</name></trkpt>
<trkpt lat="53.099807" lon="-4.156947"><ele>673</ele><time>2020-09-18T10:45:26Z</time><name>PT1929</name></trkpt>
<trkpt lat="53.099788" lon="-4.156944"><ele>673</ele><time>2020-09-18T10:45:29Z</time><name>PT1930</name></trkpt>
<trkpt lat="53.099762" lon="-4.156962"><ele>674</ele><time>2020-09-18T10:45:33Z</time><name>PT1931</name></trkpt>
<trkpt lat="53.099744" lon="-4.156979"><ele>674</ele><time>2020-09-18T10:45:36Z</time><name>PT1932</name></trkpt>
<trkpt lat="53.099713" lon="-4.156992"><ele>675</ele><time>2020-09-18T10:45:40Z</time><name>PT1933</name></trkpt>
<trkpt lat="53.099693" lon="-4.157009"><ele>676</ele><time>2020-09-18T10:45:43Z</time><name>PT1934</name></trkpt>
<trkpt lat="53.099666" lon="-4.157016"><ele>677</ele><time>2020-09-18T10:45:47Z</time><name>PT1935</name></trkpt>
<trkpt lat="53.099645" lon="-4.157025"><ele>678</ele><time>2020-09-18T10:45:51Z</time><name>PT1936</name></trkpt>
<trkpt lat="53.099626" lon="-4.157034"><ele>679</ele><time>2020-09-18T10:45:55Z</time><name>PT1937</name></trkpt>
<trkpt lat="53.099604" lon="-4.157036"><ele>679</ele><time>2020-09-18T10:45:59Z</time><name>PT1938</name></trkpt>
<trkpt lat="53.099579" lon="-4.157040"><ele>680</ele><time>2020-09-18T10:46:03Z</time><name>PT1939</name></trkpt>
<trkpt lat="53.099556" lon="-4.157051"><ele>681</ele><time>2020-09-18T10:46:07Z</time><name>PT1940</name></trkpt>
<trkpt lat="53.099531" lon="-4.157067"><ele>681</ele><time>2020-09-18T10:46:11Z</time><name>PT1941</name></trkpt>
<trkpt lat="53.099499" lon="-4.157083"><ele>682</ele><time>2020-09-18T10:46:15Z</time><name>PT1942</name></trkpt>
<trkpt lat="53.099474" lon="-4.157092"><ele>683</ele><time>2020-09-18T10:46:19Z</time><name>PT1943</name></trkpt>
<trkpt lat="53.099452" lon="-4.157102"><ele>685</ele><time>2020-09-18T10:46:22Z</time><name>PT1944</name></trkpt>
<trkpt lat="53.099419" lon="-4.157110"><ele>685</ele><time>2020-09-18T10:46:26Z</time><name>PT1945</name></trkpt>
<trkpt lat="53.099387" lon="-4.157119"><ele>686</ele><time>2020-09-18T10:46:30Z</time><name>PT1946</name></trkpt>
<trkpt lat="53.099363" lon="-4.157122"><ele>687</ele><time>2020-09-18T10:46:33Z</time><name>PT1947</name></trkpt>
<trkpt lat="53.099340" lon="-4.157130"><ele>689</ele><time>2020-09-18T10:46:37Z</time><name>PT1948</name></trkpt>
<trkpt lat="53.099313" lon="-4.157138"><ele>689</ele><time>2020-09-18T10:46:41Z</time><name>PT1949</name></trkpt>
<trkpt lat="53.099295" lon="-4.157141"><ele>689</ele><time>2020-09-18T10:46:44Z</time><name>PT1950</name></trkpt>
<trkpt lat="53.099279" lon="-4.157140"><ele>689</ele><time>2020-09-18T10:46:47Z</time><name>PT1951</name></trkpt>
<trkpt lat="53.099259" lon="-4.157151"><ele>690</ele><time>2020-09-18T10:46:51Z</time><name>PT1952</name></trkpt>
<trkpt lat="53.099237" lon="-4.157165"><ele>691</ele><time>2020-09-18T10:46:54Z</time><name>PT1953</name></trkpt>
<trkpt lat="53.099205" lon="-4.157175"><ele>691</ele><time>2020-09-18T10:46:58Z</time><name>PT1954</name></trkpt>
<trkpt lat="53.099178" lon="-4.157184"><ele>691</ele><time>2020-09-18T10:47:01Z</time><name>PT1955</name></trkpt>
<trkpt lat="53.099149" lon="-4.157199"><ele>691</ele><time>2020-09-18T10:47:05Z</time><name>PT1956</name></trkpt>
<trkpt lat="53.099118" lon="-4.157217"><ele>691</ele><time>2020-09-18T10:47:09Z</time><name>PT1957</name></trkpt>
<trkpt lat="53.099093" lon="-4.157232"><ele>692</ele><time>2020-09-18T10:47:12Z</time><name>PT1958</name></trkpt>
<trkpt lat="53.099061" lon="-4.157247"><ele>692</ele><time>2020-09-18T10:47:16Z</time><name>PT1959</name></trkpt>
<trkpt lat="53.099023" lon="-4.157256"><ele>694</ele><time>2020-09-18T10:47:20Z</time><name>PT1960</name></trkpt>
<trkpt lat="53.099001" lon="-4.157261"><ele>695</ele><time>2020-09-18T10:47:23Z</time><name>PT1961</name></trkpt>
<trkpt lat="53.098972" lon="-4.157266"><ele>695</ele><time>2020-09-18T10:47:27Z</time><name>PT1962</name></trkpt>
<trkpt lat="53.098953" lon="-4.157278"><ele>696</ele><time>2020-09-18T10:47:30Z</time><name>PT1963</name></trkpt>
<trkpt lat="53.098930" lon="-4.157294"><ele>697</ele><time>2020-09-18T10:47:34Z</time><name>PT1964</name></trkpt>
<trkpt lat="53.098915" lon="-4.157295"><ele>697</ele><time>2020-09-18T10:47:37Z</time><name>PT1965</name></trkpt>
<trkpt lat="53.098895" lon="-4.157304"><ele>698</ele><time>2020-09-18T10:47:41Z</time><name>PT1966</name></trkpt>
<trkpt lat="53.098880" lon="-4.157311"><ele>698</ele><time>2020-09-18T10:47:44Z</time><name>PT1967</name></trkpt>
<trkpt lat="53.098852" lon="-4.157319"><ele>698</ele><time>2020-09-18T10:47:48Z</time><name>PT1968</name></trkpt>
<trkpt lat="53.098831" lon="-4.157322"><ele>698</ele><time>2020-09-18T10:47:52Z</time><name>PT1969</name></trkpt>
<trkpt lat="53.098808" lon="-4.157330"><ele>698</ele><time>2020-09-18T10:47:55Z</time><name>PT1970</name></trkpt>
<trkpt lat="53.098792" lon="-4.157344"><ele>699</ele><time>2020-09-18T10:47:58Z</time><name>PT1971</name></trkpt>
<trkpt lat="53.098766" lon="-4.157350"><ele>701</ele><time>2020-09-18T10:48:02Z</time><name>PT1972</name></trkpt>
<trkpt lat="53.098738" lon="-4.157358"><ele>702</ele><time>2020-09-18T10:48:06Z</time><name>PT1973</name></trkpt>
<trkpt lat="53.098717" lon="-4.157367"><ele>702</ele><time>2020-09-18T10:48:09Z</time><name>PT1974</name></trkpt>
<trkpt lat="53.098689" lon="-4.157384"><ele>703</ele><time>2020-09-18T10:48:13Z</time><name>PT1975</name></trkpt>
<trkpt lat="53.098672" lon="-4.157390"><ele>704</ele><time>2020-09-18T10:48:16Z</time><name>PT1976</name></trkpt>
<trkpt lat="53.098656" lon="-4.157400"><ele>704</ele><time>2020-09-18T10:48:20Z</time><name>PT1977</name></trkpt>
<trkpt lat="53.098635" lon="-4.157410"><ele>704</ele><time>2020-09-18T10:48:23Z</time><name>PT1978</name></trkpt>
<trkpt lat="53.098618" lon="-4.157420"><ele>705</ele><time>2020-09-18T10:48:26Z</time><name>PT1979</name></trkpt>
<trkpt lat="53.098593" lon="-4.157438"><ele>705</ele><time>2020-09-18T10:48:30Z</time><name>PT1980</name></trkpt>
<trkpt lat="53.098567" lon="-4.157454"><ele>706</ele><time>2020-09-18T10:48:34Z</time><name>PT1981</name></trkpt>
<trkpt lat="53.098542" lon="-4.157466"><ele>706</ele><time>2020-09-18T10:48:37Z</time><name>PT1982</name></trkpt>
<trkpt lat="53.098517" lon="-4.157484"><ele>707</ele><time>2020-09-18T10:48:40Z</time><name>PT1983</name></trkpt>
<trkpt lat="53.098487" lon="-4.157499"><ele>708</ele><time>2020-09-18T10:48:44Z</time><name>PT1984</name></trkpt>
<trkpt lat="53.098460" lon="-4.157510"><ele>709</ele><time>2020-09-18T10:48:48Z</time><name>PT1985</name></trkpt>
<trkpt lat="53.098434" lon="-4.157525"><ele>709</ele><time>2020-09-18T10:48:52Z</time><name>PT1986</name></trkpt>
<trkpt lat="53.098400" lon="-4.157535"><ele>710</ele><time>2020-09-18T10:48:56Z</time><name>PT1987</name></trkpt>
<trkpt lat="53.098377" lon="-4.157542"><ele>710</ele><time>2020-09-18T10:48:59Z</time><name>PT1988</name></trkpt>
<trkpt lat="53.098346" lon="-4.157568"><ele>710</ele><time>2020-09-18T10:49:03Z</time><name>PT1989</name></trkpt>
<trkpt lat="53.098322" lon="-4.157581"><ele>710</ele><time>2020-09-18T10:49:06Z</time><name>PT1990</name></trkpt>
<trkpt lat="53.098299" lon="-4.157595"><ele>711</ele><time>2020-09-18T10:49:09Z</time><name>PT1991</name></trkpt>
<trkpt lat="53.098270" lon="-4.157619"><ele>712</ele><time>2020-09-18T10:49:13Z</time><name>PT1992</name></trkpt>
<trkpt lat="53.098241" lon="-4.157627"><ele>713</ele><time>2020-09-18T10:49:17Z</time><name>PT1993</name></trkpt>
<trkpt lat="53.098195" lon="-4.157642"><ele>715</ele><time>2020-09-18T10:49:21Z</time><name>PT1994</name></trkpt>
<trkpt lat="53.098178" lon="-4.157657"><ele>715</ele><time>2020-09-18T10:49:25Z</time><name>PT1995</name></trkpt>
<trkpt lat="53.098172" lon="-4.157666"><ele>716</ele><time>2020-09-18T10:49:28Z</time><name>PT1996</name></trkpt>
<trkpt lat="53.098162" lon="-4.157664"><ele>716</ele><time>2020-09-18T10:49:32Z</time><name>PT1997</name></trkpt>
<trkpt lat="53.098127" lon="-4.157679"><ele>716</ele><time>2020-09-18T10:49:36Z</time><name>PT1998</name></trkpt>
<trkpt lat="53.098105" lon="-4.157694"><ele>717</ele><time>2020-09-18T10:49:39Z</time><name>PT1999</name></trkpt>
<trkpt lat="53.098085" lon="-4.157714"><ele>717</ele><time>2020-09-18T10:49:42Z</time><name>PT2000</name></trkpt>
<trkpt lat="53.098056" lon="-4.157730"><ele>718</ele><time>2020-09-18T10:49:46Z</time><name>PT2001</name></trkpt>
<trkpt lat="53.098027" lon="-4.157742"><ele>718</ele><time>2020-09-18T10:49:49Z</time><name>PT2002</name></trkpt>
<trkpt lat="53.098006" lon="-4.157766"><ele>719</ele><time>2020-09-18T10:49:52Z</time><name>PT2003</name></trkpt>
<trkpt lat="53.097978" lon="-4.157791"><ele>719</ele><time>2020-09-18T10:49:56Z</time><name>PT2004</name></trkpt>
<trkpt lat="53.097959" lon="-4.157805"><ele>719</ele><time>2020-09-18T10:49:59Z</time><name>PT2005</name></trkpt>
<trkpt lat="53.097933" lon="-4.157822"><ele>719</ele><time>2020-09-18T10:50:03Z</time><name>PT2006</name></trkpt>
<trkpt lat="53.097915" lon="-4.157836"><ele>719</ele><time>2020-09-18T10:50:06Z</time><name>PT2007</name></trkpt>
<trkpt lat="53.097882" lon="-4.157847"><ele>720</ele><time>2020-09-18T10:50:10Z</time><name>PT2008</name></trkpt>
<trkpt lat="53.097858" lon="-4.157864"><ele>720</ele><time>2020-09-18T10:50:13Z</time><name>PT2009</name></trkpt>
<trkpt lat="53.097821" lon="-4.157875"><ele>720</ele><time>2020-09-18T10:50:17Z</time><name>PT2010</name></trkpt>
<trkpt lat="53.097795" lon="-4.157892"><ele>721</ele><time>2020-09-18T10:50:20Z</time><name>PT2011</name></trkpt>
<trkpt lat="53.097760" lon="-4.157912"><ele>722</ele><time>2020-09-18T10:50:24Z</time><name>PT2012</name></trkpt>
<trkpt lat="53.097724" lon="-4.157930"><ele>722</ele><time>2020-09-18T10:50:27Z</time><name>PT2013</name></trkpt>
<trkpt lat="53.097683" lon="-4.157954"><ele>724</ele><time>2020-09-18T10:50:31Z</time><name>PT2014</name></trkpt>
<trkpt lat="53.097649" lon="-4.157973"><ele>725</ele><time>2020-09-18T10:50:34Z</time><name>PT2015</name></trkpt>
<trkpt lat="53.097606" lon="-4.157996"><ele>725</ele><time>2020-09-18T10:50:38Z</time><name>PT2016</name></trkpt>
<trkpt lat="53.097565" lon="-4.158013"><ele>724</ele><time>2020-09-18T10:50:42Z</time><name>PT2017</name></trkpt>
<trkpt lat="53.097535" lon="-4.158029"><ele>724</ele><time>2020-09-18T10:50:45Z</time><name>PT2018</name></trkpt>
<trkpt lat="53.097495" lon="-4.158042"><ele>725</ele><time>2020-09-18T10:50:49Z</time><name>PT2019</name></trkpt>
<trkpt lat="53.097462" lon="-4.158056"><ele>725</ele><time>2020-09-18T10:50:53Z</time><name>PT2020</name></trkpt>
<trkpt lat="53.097435" lon="-4.158064"><ele>726</ele><time>2020-09-18T10:50:56Z</time><name>PT2021</name></trkpt>
<trkpt lat="53.097399" lon="-4.158097"><ele>726</ele><time>2020-09-18T10:50:59Z</time><name>PT2022</name></trkpt>
<trkpt lat="53.097371" lon="-4.158128"><ele>726</ele><time>2020-09-18T10:51:02Z</time><name>PT2023</name></trkpt>
<trkpt lat="53.097342" lon="-4.158152"><ele>727</ele><time>2020-09-18T10:51:05Z</time><name>PT2024</name></trkpt>
<trkpt lat="53.097309" lon="-4.158169"><ele>727</ele><time>2020-09-18T10:51:08Z</time><name>PT2025</name></trkpt>
<trkpt lat="53.097277" lon="-4.158188"><ele>728</ele><time>2020-09-18T10:51:11Z</time><name>PT2026</name></trkpt>
<trkpt lat="53.097239" lon="-4.158217"><ele>727</ele><time>2020-09-18T10:51:15Z</time><name>PT2027</name></trkpt>
<trkpt lat="53.097195" lon="-4.158245"><ele>728</ele><time>2020-09-18T10:51:19Z</time><name>PT2028</name></trkpt>
<trkpt lat="53.097162" lon="-4.158270"><ele>728</ele><time>2020-09-18T10:51:23Z</time><name>PT2029</name></trkpt>
<trkpt lat="53.097133" lon="-4.158286"><ele>727</ele><time>2020-09-18T10:51:26Z</time><name>PT2030</name></trkpt>
<trkpt lat="53.097110" lon="-4.158313"><ele>727</ele><time>2020-09-18T10:51:30Z</time><name>PT2031</name></trkpt>
<trkpt lat="53.097095" lon="-4.158322"><ele>727</ele><time>2020-09-18T10:51:33Z</time><name>PT2032</name></trkpt>
<trkpt lat="53.097082" lon="-4.158347"><ele>728</ele><time>2020-09-18T10:51:36Z</time><name>PT2033</name></trkpt>
<trkpt lat="53.097080" lon="-4.158355"><ele>728</ele><time>2020-09-18T10:51:40Z</time><name>PT2034</name></trkpt>
<trkpt lat="53.097076" lon="-4.158358"><ele>729</ele><time>2020-09-18T10:51:44Z</time><name>PT2035</name></trkpt>
<trkpt lat="53.097072" lon="-4.158371"><ele>729</ele><time>2020-09-18T10:51:47Z</time><name>PT2036</name></trkpt>
<trkpt lat="53.097063" lon="-4.158390"><ele>729</ele><time>2020-09-18T10:52:41Z</time><name>PT2037</name></trkpt>
<trkpt lat="53.097063" lon="-4.158403"><ele>727</ele><time>2020-09-18T10:52:45Z</time><name>PT2038</name></trkpt>
<trkpt lat="53.097063" lon="-4.158416"><ele>728</ele><time>2020-09-18T10:54:09Z</time><name>PT2039</name></trkpt>
<trkpt lat="53.097072" lon="-4.158386"><ele>731</ele><time>2020-09-18T10:56:24Z</time><name>PT2040</name></trkpt>
<trkpt lat="53.097086" lon="-4.158372"><ele>731</ele><time>2020-09-18T10:56:27Z</time><name>PT2041</name></trkpt>
<trkpt lat="53.097092" lon="-4.158346"><ele>730</ele><time>2020-09-18T10:56:30Z</time><name>PT2042</name></trkpt>
<trkpt lat="53.097092" lon="-4.158348"><ele>729</ele><time>2020-09-18T10:56:33Z</time><name>PT2043</name></trkpt>
<trkpt lat="53.097092" lon="-4.158347"><ele>729</ele><time>2020-09-18T10:56:57Z</time><name>PT2044</name></trkpt>
<trkpt lat="53.097082" lon="-4.158334"><ele>728</ele><time>2020-09-18T10:57:00Z</time><name>PT2045</name></trkpt>
<trkpt lat="53.097057" lon="-4.158321"><ele>728</ele><time>2020-09-18T10:57:03Z</time><name>PT2046</name></trkpt>
<trkpt lat="53.097036" lon="-4.158317"><ele>728</ele><time>2020-09-18T10:57:07Z</time><name>PT2047</name></trkpt>
<trkpt lat="53.097031" lon="-4.158314"><ele>728</ele><time>2020-09-18T10:57:11Z</time><name>PT2048</name></trkpt>
<trkpt lat="53.097027" lon="-4.158314"><ele>728</ele><time>2020-09-18T10:57:28Z</time><name>PT2049</name></trkpt>
<trkpt lat="53.097020" lon="-4.158310"><ele>728</ele><time>2020-09-18T10:57:32Z</time><name>PT2050</name></trkpt>
<trkpt lat="53.097020" lon="-4.158309"><ele>728</ele><time>2020-09-18T10:57:36Z</time><name>PT2051</name></trkpt>
<trkpt lat="53.096995" lon="-4.158260"><ele>728</ele><time>2020-09-18T10:57:44Z</time><name>PT2052</name></trkpt>
<trkpt lat="53.096980" lon="-4.158245"><ele>728</ele><time>2020-09-18T10:57:46Z</time><name>PT2053</name></trkpt>
<trkpt lat="53.096975" lon="-4.158237"><ele>728</ele><time>2020-09-18T10:57:47Z</time><name>PT2054</name></trkpt>
<trkpt lat="53.096968" lon="-4.158229"><ele>728</ele><time>2020-09-18T10:57:48Z</time><name>PT2055</name></trkpt>
<trkpt lat="53.096961" lon="-4.158223"><ele>728</ele><time>2020-09-18T10:57:49Z</time><name>PT2056</name></trkpt>
<trkpt lat="53.096953" lon="-4.158212"><ele>728</ele><time>2020-09-18T10:57:50Z</time><name>PT2057</name></trkpt>
<trkpt lat="53.096947" lon="-4.158204"><ele>728</ele><time>2020-09-18T10:57:51Z</time><name>PT2058</name></trkpt>
<trkpt lat="53.096941" lon="-4.158195"><ele>728</ele><time>2020-09-18T10:57:52Z</time><name>PT2059</name></trkpt>
<trkpt lat="53.096935" lon="-4.158186"><ele>728</ele><time>2020-09-18T10:57:53Z</time><name>PT2060</name></trkpt>
<trkpt lat="53.096930" lon="-4.158177"><ele>728</ele><time>2020-09-18T10:57:54Z</time><name>PT2061</name></trkpt>
<trkpt lat="53.096918" lon="-4.158164"><ele>728</ele><time>2020-09-18T10:57:55Z</time><name>PT2062</name></trkpt>
<trkpt lat="53.096909" lon="-4.158150"><ele>728</ele><time>2020-09-18T10:57:56Z</time><name>PT2063</name></trkpt>
<trkpt lat="53.096900" lon="-4.158143"><ele>728</ele><time>2020-09-18T10:57:57Z</time><name>PT2064</name></trkpt>
<trkpt lat="53.096891" lon="-4.158136"><ele>728</ele><time>2020-09-18T10:57:58Z</time><name>PT2065</name></trkpt>
<trkpt lat="53.096883" lon="-4.158127"><ele>728</ele><time>2020-09-18T10:57:59Z</time><name>PT2066</name></trkpt>
<trkpt lat="53.096875" lon="-4.158115"><ele>728</ele><time>2020-09-18T10:58:00Z</time><name>PT2067</name></trkpt>
<trkpt lat="53.096866" lon="-4.158101"><ele>728</ele><time>2020-09-18T10:58:01Z</time><name>PT2068</name></trkpt>
<trkpt lat="53.096858" lon="-4.158087"><ele>728</ele><time>2020-09-18T10:58:02Z</time><name>PT2069</name></trkpt>
<trkpt lat="53.096849" lon="-4.158077"><ele>727</ele><time>2020-09-18T10:58:03Z</time><name>PT2070</name></trkpt>
<trkpt lat="53.096840" lon="-4.158068"><ele>727</ele><time>2020-09-18T10:58:04Z</time><name>PT2071</name></trkpt>
<trkpt lat="53.096832" lon="-4.158056"><ele>727</ele><time>2020-09-18T10:58:05Z</time><name>PT2072</name></trkpt>
<trkpt lat="53.096826" lon="-4.158046"><ele>727</ele><time>2020-09-18T10:58:06Z</time><name>PT2073</name></trkpt>
<trkpt lat="53.096819" lon="-4.158038"><ele>727</ele><time>2020-09-18T10:58:07Z</time><name>PT2074</name></trkpt>
<trkpt lat="53.096809" lon="-4.158029"><ele>727</ele><time>2020-09-18T10:58:08Z</time><name>PT2075</name></trkpt>
<trkpt lat="53.096803" lon="-4.158018"><ele>727</ele><time>2020-09-18T10:58:09Z</time><name>PT2076</name></trkpt>
<trkpt lat="53.096795" lon="-4.158008"><ele>727</ele><time>2020-09-18T10:58:10Z</time><name>PT2077</name></trkpt>
<trkpt lat="53.096787" lon="-4.157999"><ele>727</ele><time>2020-09-18T10:58:11Z</time><name>PT2078</name></trkpt>
<trkpt lat="53.096780" lon="-4.157994"><ele>727</ele><time>2020-09-18T10:58:12Z</time><name>PT2079</name></trkpt>
<trkpt lat="53.096774" lon="-4.157987"><ele>726</ele><time>2020-09-18T10:58:13Z</time><name>PT2080</name></trkpt>
<trkpt lat="53.096769" lon="-4.157977"><ele>726</ele><time>2020-09-18T10:58:14Z</time><name>PT2081</name></trkpt>
<trkpt lat="53.096759" lon="-4.157968"><ele>726</ele><time>2020-09-18T10:58:15Z</time><name>PT2082</name></trkpt>
<trkpt lat="53.096752" lon="-4.157960"><ele>726</ele><time>2020-09-18T10:58:16Z</time><name>PT2083</name></trkpt>
<trkpt lat="53.096746" lon="-4.157957"><ele>726</ele><time>2020-09-18T10:58:17Z</time><name>PT2084</name></trkpt>
<trkpt lat="53.096740" lon="-4.157951"><ele>726</ele><time>2020-09-18T10:58:18Z</time><name>PT2085</name></trkpt>
<trkpt lat="53.096734" lon="-4.157940"><ele>726</ele><time>2020-09-18T10:58:19Z</time><name>PT2086</name></trkpt>
<trkpt lat="53.096730" lon="-4.157932"><ele>726</ele><time>2020-09-18T10:58:20Z</time><name>PT2087</name></trkpt>
<trkpt lat="53.096729" lon="-4.157930"><ele>725</ele><time>2020-09-18T10:58:21Z</time><name>PT2088</name></trkpt>
<trkpt lat="53.096726" lon="-4.157928"><ele>725</ele><time>2020-09-18T10:58:22Z</time><name>PT2089</name></trkpt>
<trkpt lat="53.096723" lon="-4.157926"><ele>725</ele><time>2020-09-18T10:58:23Z</time><name>PT2090</name></trkpt>
<trkpt lat="53.096719" lon="-4.157925"><ele>725</ele><time>2020-09-18T10:58:24Z</time><name>PT2091</name></trkpt>
<trkpt lat="53.096712" lon="-4.157916"><ele>724</ele><time>2020-09-18T10:58:25Z</time><name>PT2092</name></trkpt>
<trkpt lat="53.096704" lon="-4.157902"><ele>724</ele><time>2020-09-18T10:58:26Z</time><name>PT2093</name></trkpt>
<trkpt lat="53.096699" lon="-4.157892"><ele>724</ele><time>2020-09-18T10:58:27Z</time><name>PT2094</name></trkpt>
<trkpt lat="53.096692" lon="-4.157883"><ele>724</ele><time>2020-09-18T10:58:28Z</time><name>PT2095</name></trkpt>
<trkpt lat="53.096682" lon="-4.157873"><ele>723</ele><time>2020-09-18T10:58:29Z</time><name>PT2096</name></trkpt>
<trkpt lat="53.096673" lon="-4.157863"><ele>723</ele><time>2020-09-18T10:58:30Z</time><name>PT2097</name></trkpt>
<trkpt lat="53.096663" lon="-4.157851"><ele>722</ele><time>2020-09-18T10:58:31Z</time><name>PT2098</name></trkpt>
<trkpt lat="53.096655" lon="-4.157839"><ele>722</ele><time>2020-09-18T10:58:32Z</time><name>PT2099</name></trkpt>
<trkpt lat="53.096647" lon="-4.157825"><ele>721</ele><time>2020-09-18T10:58:33Z</time><name>PT2100</name></trkpt>
<trkpt lat="53.096638" lon="-4.157814"><ele>721</ele><time>2020-09-18T10:58:34Z</time><name>PT2101</name></trkpt>
<trkpt lat="53.096629" lon="-4.157803"><ele>720</ele><time>2020-09-18T10:58:35Z</time><name>PT2102</name></trkpt>
<trkpt lat="53.096621" lon="-4.157794"><ele>720</ele><time>2020-09-18T10:58:36Z</time><name>PT2103</name></trkpt>
<trkpt lat="53.096613" lon="-4.157787"><ele>720</ele><time>2020-09-18T10:58:37Z</time><name>PT2104</name></trkpt>
<trkpt lat="53.096604" lon="-4.157779"><ele>719</ele><time>2020-09-18T10:58:38Z</time><name>PT2105</name></trkpt>
<trkpt lat="53.096595" lon="-4.157769"><ele>719</ele><time>2020-09-18T10:58:39Z</time><name>PT2106</name></trkpt>
<trkpt lat="53.096586" lon="-4.157756"><ele>719</ele><time>2020-09-18T10:58:40Z</time><name>PT2107</name></trkpt>
<trkpt lat="53.096577" lon="-4.157745"><ele>719</ele><time>2020-09-18T10:58:41Z</time><name>PT2108</name></trkpt>
<trkpt lat="53.096568" lon="-4.157736"><ele>718</ele><time>2020-09-18T10:58:42Z</time><name>PT2109</name></trkpt>
<trkpt lat="53.096562" lon="-4.157722"><ele>717</ele><time>2020-09-18T10:58:43Z</time><name>PT2110</name></trkpt>
<trkpt lat="53.096556" lon="-4.157711"><ele>717</ele><time>2020-09-18T10:58:44Z</time><name>PT2111</name></trkpt>
<trkpt lat="53.096548" lon="-4.157699"><ele>717</ele><time>2020-09-18T10:58:45Z</time><name>PT2112</name></trkpt>
<trkpt lat="53.096542" lon="-4.157691"><ele>717</ele><time>2020-09-18T10:58:46Z</time><name>PT2113</name></trkpt>
<trkpt lat="53.096536" lon="-4.157681"><ele>716</ele><time>2020-09-18T10:58:47Z</time><name>PT2114</name></trkpt>
<trkpt lat="53.096530" lon="-4.157678"><ele>716</ele><time>2020-09-18T10:58:48Z</time><name>PT2115</name></trkpt>
<trkpt lat="53.096522" lon="-4.157672"><ele>715</ele><time>2020-09-18T10:58:49Z</time><name>PT2116</name></trkpt>
<trkpt lat="53.096514" lon="-4.157662"><ele>715</ele><time>2020-09-18T10:58:50Z</time><name>PT2117</name></trkpt>
<trkpt lat="53.096508" lon="-4.157654"><ele>715</ele><time>2020-09-18T10:58:51Z</time><name>PT2118</name></trkpt>
<trkpt lat="53.096506" lon="-4.157648"><ele>715</ele><time>2020-09-18T10:58:52Z</time><name>PT2119</name></trkpt>
<trkpt lat="53.096504" lon="-4.157646"><ele>715</ele><time>2020-09-18T10:58:53Z</time><name>PT2120</name></trkpt>
<trkpt lat="53.096504" lon="-4.157647"><ele>715</ele><time>2020-09-18T10:58:54Z</time><name>PT2121</name></trkpt>
<trkpt lat="53.096504" lon="-4.157647"><ele>715</ele><time>2020-09-18T10:58:55Z</time><name>PT2122</name></trkpt>
<trkpt lat="53.096504" lon="-4.157651"><ele>715</ele><time>2020-09-18T10:59:03Z</time><name>PT2123</name></trkpt>
<trkpt lat="53.096505" lon="-4.157654"><ele>715</ele><time>2020-09-18T10:59:04Z</time><name>PT2124</name></trkpt>
<trkpt lat="53.096505" lon="-4.157655"><ele>715</ele><time>2020-09-18T10:59:05Z</time><name>PT2125</name></trkpt>
<trkpt lat="53.096505" lon="-4.157659"><ele>715</ele><time>2020-09-18T10:59:06Z</time><name>PT2126</name></trkpt>
<trkpt lat="53.096497" lon="-4.157651"><ele>716</ele><time>2020-09-18T10:59:34Z</time><name>PT2127</name></trkpt>
<trkpt lat="53.096488" lon="-4.157641"><ele>715</ele><time>2020-09-18T10:59:35Z</time><name>PT2128</name></trkpt>
<trkpt lat="53.096479" lon="-4.157627"><ele>715</ele><time>2020-09-18T10:59:36Z</time><name>PT2129</name></trkpt>
<trkpt lat="53.096469" lon="-4.157611"><ele>715</ele><time>2020-09-18T10:59:37Z</time><name>PT2130</name></trkpt>
<trkpt lat="53.096460" lon="-4.157601"><ele>715</ele><time>2020-09-18T10:59:38Z</time><name>PT2131</name></trkpt>
<trkpt lat="53.096451" lon="-4.157589"><ele>714</ele><time>2020-09-18T10:59:39Z</time><name>PT2132</name></trkpt>
<trkpt lat="53.096438" lon="-4.157576"><ele>714</ele><time>2020-09-18T10:59:40Z</time><name>PT2133</name></trkpt>
<trkpt lat="53.096428" lon="-4.157566"><ele>714</ele><time>2020-09-18T10:59:41Z</time><name>PT2134</name></trkpt>
<trkpt lat="53.096419" lon="-4.157556"><ele>713</ele><time>2020-09-18T10:59:42Z</time><name>PT2135</name></trkpt>
<trkpt lat="53.096414" lon="-4.157546"><ele>713</ele><time>2020-09-18T10:59:43Z</time><name>PT2136</name></trkpt>
<trkpt lat="53.096408" lon="-4.157539"><ele>713</ele><time>2020-09-18T10:59:44Z</time><name>PT2137</name></trkpt>
<trkpt lat="53.096400" lon="-4.157531"><ele>713</ele><time>2020-09-18T10:59:45Z</time><name>PT2138</name></trkpt>
<trkpt lat="53.096395" lon="-4.157524"><ele>713</ele><time>2020-09-18T10:59:46Z</time><name>PT2139</name></trkpt>
<trkpt lat="53.096389" lon="-4.157515"><ele>712</ele><time>2020-09-18T10:59:47Z</time><name>PT2140</name></trkpt>
<trkpt lat="53.096383" lon="-4.157507"><ele>712</ele><time>2020-09-18T10:59:48Z</time><name>PT2141</name></trkpt>
<trkpt lat="53.096377" lon="-4.157502"><ele>712</ele><time>2020-09-18T10:59:49Z</time><name>PT2142</name></trkpt>
<trkpt lat="53.096369" lon="-4.157496"><ele>712</ele><time>2020-09-18T10:59:50Z</time><name>PT2143</name></trkpt>
<trkpt lat="53.096362" lon="-4.157487"><ele>711</ele><time>2020-09-18T10:59:51Z</time><name>PT2144</name></trkpt>
<trkpt lat="53.096360" lon="-4.157481"><ele>711</ele><time>2020-09-18T10:59:52Z</time><name>PT2145</name></trkpt>
<trkpt lat="53.096362" lon="-4.157479"><ele>711</ele><time>2020-09-18T10:59:53Z</time><name>PT2146</name></trkpt>
<trkpt lat="53.096364" lon="-4.157480"><ele>711</ele><time>2020-09-18T10:59:54Z</time><name>PT2147</name></trkpt>
<trkpt lat="53.096363" lon="-4.157482"><ele>712</ele><time>2020-09-18T10:59:55Z</time><name>PT2148</name></trkpt>
<trkpt lat="53.096363" lon="-4.157477"><ele>712</ele><time>2020-09-18T10:59:56Z</time><name>PT2149</name></trkpt>
<trkpt lat="53.096358" lon="-4.157472"><ele>711</ele><time>2020-09-18T10:59:57Z</time><name>PT2150</name></trkpt>
<trkpt lat="53.096353" lon="-4.157462"><ele>711</ele><time>2020-09-18T10:59:58Z</time><name>PT2151</name></trkpt>
<trkpt lat="53.096350" lon="-4.157451"><ele>711</ele><time>2020-09-18T10:59:59Z</time><name>PT2152</name></trkpt>
<trkpt lat="53.096346" lon="-4.157440"><ele>711</ele><time>2020-09-18T11:00:00Z</time><name>PT2153</name></trkpt>
<trkpt lat="53.096342" lon="-4.157431"><ele>711</ele><time>2020-09-18T11:00:01Z</time><name>PT2154</name></trkpt>
<trkpt lat="53.096339" lon="-4.157424"><ele>710</ele><time>2020-09-18T11:00:02Z</time><name>PT2155</name></trkpt>
<trkpt lat="53.096338" lon="-4.157419"><ele>710</ele><time>2020-09-18T11:00:03Z</time><name>PT2156</name></trkpt>
<trkpt lat="53.096337" lon="-4.157417"><ele>710</ele><time>2020-09-18T11:00:04Z</time><name>PT2157</name></trkpt>
<trkpt lat="53.096337" lon="-4.157414"><ele>710</ele><time>2020-09-18T11:00:05Z</time><name>PT2158</name></trkpt>
<trkpt lat="53.096340" lon="-4.157414"><ele>710</ele><time>2020-09-18T11:00:10Z</time><name>PT2159</name></trkpt>
<trkpt lat="53.096341" lon="-4.157407"><ele>710</ele><time>2020-09-18T11:00:11Z</time><name>PT2160</name></trkpt>
<trkpt lat="53.096339" lon="-4.157398"><ele>711</ele><time>2020-09-18T11:00:12Z</time><name>PT2161</name></trkpt>
<trkpt lat="53.096339" lon="-4.157395"><ele>710</ele><time>2020-09-18T11:00:13Z</time><name>PT2162</name></trkpt>
<trkpt lat="53.096339" lon="-4.157394"><ele>710</ele><time>2020-09-18T11:00:14Z</time><name>PT2163</name></trkpt>
<trkpt lat="53.096333" lon="-4.157386"><ele>710</ele><time>2020-09-18T11:00:38Z</time><name>PT2164</name></trkpt>
<trkpt lat="53.096322" lon="-4.157373"><ele>710</ele><time>2020-09-18T11:00:39Z</time><name>PT2165</name></trkpt>
<trkpt lat="53.096305" lon="-4.157363"><ele>710</ele><time>2020-09-18T11:00:40Z</time><name>PT2166</name></trkpt>
<trkpt lat="53.096292" lon="-4.157353"><ele>710</ele><time>2020-09-18T11:00:41Z</time><name>PT2167</name></trkpt>
<trkpt lat="53.096278" lon="-4.157343"><ele>709</ele><time>2020-09-18T11:00:42Z</time><name>PT2168</name></trkpt>
<trkpt lat="53.096267" lon="-4.157328"><ele>709</ele><time>2020-09-18T11:00:43Z</time><name>PT2169</name></trkpt>
<trkpt lat="53.096257" lon="-4.157315"><ele>709</ele><time>2020-09-18T11:00:44Z</time><name>PT2170</name></trkpt>
<trkpt lat="53.096248" lon="-4.157305"><ele>708</ele><time>2020-09-18T11:00:45Z</time><name>PT2171</name></trkpt>
<trkpt lat="53.096241" lon="-4.157293"><ele>708</ele><time>2020-09-18T11:00:46Z</time><name>PT2172</name></trkpt>
<trkpt lat="53.096231" lon="-4.157281"><ele>708</ele><time>2020-09-18T11:00:47Z</time><name>PT2173</name></trkpt>
<trkpt lat="53.096190" lon="-4.157236"><ele>707</ele><time>2020-09-18T11:00:51Z</time><name>PT2174</name></trkpt>
<trkpt lat="53.096158" lon="-4.157185"><ele>706</ele><time>2020-09-18T11:00:55Z</time><name>PT2175</name></trkpt>
<trkpt lat="53.096142" lon="-4.157136"><ele>706</ele><time>2020-09-18T11:00:58Z</time><name>PT2176</name></trkpt>
<trkpt lat="53.096119" lon="-4.157083"><ele>705</ele><time>2020-09-18T11:01:02Z</time><name>PT2177</name></trkpt>
<trkpt lat="53.096103" lon="-4.157038"><ele>705</ele><time>2020-09-18T11:01:05Z</time><name>PT2178</name></trkpt>
<trkpt lat="53.096091" lon="-4.157024"><ele>704</ele><time>2020-09-18T11:01:08Z</time><name>PT2179</name></trkpt>
<trkpt lat="53.096084" lon="-4.157023"><ele>704</ele><time>2020-09-18T11:01:12Z</time><name>PT2180</name></trkpt>
<trkpt lat="53.096078" lon="-4.157023"><ele>704</ele><time>2020-09-18T11:01:23Z</time><name>PT2181</name></trkpt>
<trkpt lat="53.096040" lon="-4.157012"><ele>702</ele><time>2020-09-18T11:01:26Z</time><name>PT2182</name></trkpt>
<trkpt lat="53.095997" lon="-4.156997"><ele>701</ele><time>2020-09-18T11:01:30Z</time><name>PT2183</name></trkpt>
<trkpt lat="53.095960" lon="-4.156978"><ele>700</ele><time>2020-09-18T11:01:34Z</time><name>PT2184</name></trkpt>
<trkpt lat="53.095937" lon="-4.156971"><ele>699</ele><time>2020-09-18T11:01:37Z</time><name>PT2185</name></trkpt>
<trkpt lat="53.095905" lon="-4.156968"><ele>698</ele><time>2020-09-18T11:01:41Z</time><name>PT2186</name></trkpt>
<trkpt lat="53.095867" lon="-4.156965"><ele>697</ele><time>2020-09-18T11:01:45Z</time><name>PT2187</name></trkpt>
<trkpt lat="53.095841" lon="-4.156972"><ele>696</ele><time>2020-09-18T11:01:48Z</time><name>PT2188</name></trkpt>
<trkpt lat="53.095811" lon="-4.156976"><ele>695</ele><time>2020-09-18T11:01:51Z</time><name>PT2189</name></trkpt>
<trkpt lat="53.095778" lon="-4.156971"><ele>694</ele><time>2020-09-18T11:01:54Z</time><name>PT2190</name></trkpt>
<trkpt lat="53.095737" lon="-4.156955"><ele>693</ele><time>2020-09-18T11:01:58Z</time><name>PT2191</name></trkpt>
<trkpt lat="53.095698" lon="-4.156943"><ele>692</ele><time>2020-09-18T11:02:02Z</time><name>PT2192</name></trkpt>
<trkpt lat="53.095654" lon="-4.156917"><ele>691</ele><time>2020-09-18T11:02:06Z</time><name>PT2193</name></trkpt>
<trkpt lat="53.095616" lon="-4.156887"><ele>690</ele><time>2020-09-18T11:02:10Z</time><name>PT2194</name></trkpt>
<trkpt lat="53.095594" lon="-4.156856"><ele>690</ele><time>2020-09-18T11:02:13Z</time><name>PT2195</name></trkpt>
<trkpt lat="53.095556" lon="-4.156824"><ele>689</ele><time>2020-09-18T11:02:17Z</time><name>PT2196</name></trkpt>
<trkpt lat="53.095523" lon="-4.156793"><ele>689</ele><time>2020-09-18T11:02:20Z</time><name>PT2197</name></trkpt>
<trkpt lat="53.095496" lon="-4.156775"><ele>688</ele><time>2020-09-18T11:02:23Z</time><name>PT2198</name></trkpt>
<trkpt lat="53.095457" lon="-4.156737"><ele>687</ele><time>2020-09-18T11:02:27Z</time><name>PT2199</name></trkpt>
<trkpt lat="53.095417" lon="-4.156700"><ele>686</ele><time>2020-09-18T11:02:31Z</time><name>PT2200</name></trkpt>
<trkpt lat="53.095380" lon="-4.156668"><ele>685</ele><time>2020-09-18T11:02:35Z</time><name>PT2201</name></trkpt>
<trkpt lat="53.095348" lon="-4.156646"><ele>684</ele><time>2020-09-18T11:02:38Z</time><name>PT2202</name></trkpt>
<trkpt lat="53.095307" lon="-4.156626"><ele>683</ele><time>2020-09-18T11:02:42Z</time><name>PT2203</name></trkpt>
<trkpt lat="53.095282" lon="-4.156609"><ele>682</ele><time>2020-09-18T11:02:45Z</time><name>PT2204</name></trkpt>
<trkpt lat="53.095233" lon="-4.156573"><ele>681</ele><time>2020-09-18T11:02:49Z</time><name>PT2205</name></trkpt>
<trkpt lat="53.095194" lon="-4.156537"><ele>681</ele><time>2020-09-18T11:02:53Z</time><name>PT2206</name></trkpt>
<trkpt lat="53.095159" lon="-4.156526"><ele>681</ele><time>2020-09-18T11:02:56Z</time><name>PT2207</name></trkpt>
<trkpt lat="53.095130" lon="-4.156499"><ele>680</ele><time>2020-09-18T11:03:00Z</time><name>PT2208</name></trkpt>
<trkpt lat="53.095105" lon="-4.156473"><ele>679</ele><time>2020-09-18T11:03:03Z</time><name>PT2209</name></trkpt>
<trkpt lat="53.095075" lon="-4.156462"><ele>677</ele><time>2020-09-18T11:03:07Z</time><name>PT2210</name></trkpt>
<trkpt lat="53.095043" lon="-4.156455"><ele>677</ele><time>2020-09-18T11:03:11Z</time><name>PT2211</name></trkpt>
<trkpt lat="53.095018" lon="-4.156443"><ele>676</ele><time>2020-09-18T11:03:14Z</time><name>PT2212</name></trkpt>
<trkpt lat="53.094983" lon="-4.156428"><ele>675</ele><time>2020-09-18T11:03:18Z</time><name>PT2213</name></trkpt>
<trkpt lat="53.094957" lon="-4.156414"><ele>673</ele><time>2020-09-18T11:03:21Z</time><name>PT2214</name></trkpt>
<trkpt lat="53.094922" lon="-4.156380"><ele>672</ele><time>2020-09-18T11:03:25Z</time><name>PT2215</name></trkpt>
<trkpt lat="53.094885" lon="-4.156348"><ele>671</ele><time>2020-09-18T11:03:29Z</time><name>PT2216</name></trkpt>
<trkpt lat="53.094850" lon="-4.156324"><ele>670</ele><time>2020-09-18T11:03:33Z</time><name>PT2217</name></trkpt>
<trkpt lat="53.094816" lon="-4.156304"><ele>669</ele><time>2020-09-18T11:03:37Z</time><name>PT2218</name></trkpt>
<trkpt lat="53.094790" lon="-4.156283"><ele>669</ele><time>2020-09-18T11:03:41Z</time><name>PT2219</name></trkpt>
<trkpt lat="53.094788" lon="-4.156279"><ele>669</ele><time>2020-09-18T11:03:44Z</time><name>PT2220</name></trkpt>
<trkpt lat="53.094786" lon="-4.156277"><ele>669</ele><time>2020-09-18T11:03:47Z</time><name>PT2221</name></trkpt>
<trkpt lat="53.094787" lon="-4.156272"><ele>669</ele><time>2020-09-18T11:03:55Z</time><name>PT2222</name></trkpt>
<trkpt lat="53.094761" lon="-4.156251"><ele>669</ele><time>2020-09-18T11:03:59Z</time><name>PT2223</name></trkpt>
<trkpt lat="53.094741" lon="-4.156256"><ele>670</ele><time>2020-09-18T11:04:03Z</time><name>PT2224</name></trkpt>
<trkpt lat="53.094711" lon="-4.156261"><ele>669</ele><time>2020-09-18T11:04:07Z</time><name>PT2225</name></trkpt>
<trkpt lat="53.094692" lon="-4.156261"><ele>669</ele><time>2020-09-18T11:04:10Z</time><name>PT2226</name></trkpt>
<trkpt lat="53.094668" lon="-4.156232"><ele>668</ele><time>2020-09-18T11:04:14Z</time><name>PT2227</name></trkpt>
<trkpt lat="53.094644" lon="-4.156222"><ele>666</ele><time>2020-09-18T11:04:17Z</time><name>PT2228</name></trkpt>
<trkpt lat="53.094626" lon="-4.156207"><ele>666</ele><time>2020-09-18T11:04:20Z</time><name>PT2229</name></trkpt>
<trkpt lat="53.094602" lon="-4.156173"><ele>664</ele><time>2020-09-18T11:04:24Z</time><name>PT2230</name></trkpt>
<trkpt lat="53.094566" lon="-4.156180"><ele>663</ele><time>2020-09-18T11:04:28Z</time><name>PT2231</name></trkpt>
<trkpt lat="53.094547" lon="-4.156155"><ele>663</ele><time>2020-09-18T11:04:31Z</time><name>PT2232</name></trkpt>
<trkpt lat="53.094519" lon="-4.156123"><ele>662</ele><time>2020-09-18T11:04:35Z</time><name>PT2233</name></trkpt>
<trkpt lat="53.094497" lon="-4.156105"><ele>661</ele><time>2020-09-18T11:04:38Z</time><name>PT2234</name></trkpt>
<trkpt lat="53.094466" lon="-4.156076"><ele>660</ele><time>2020-09-18T11:04:42Z</time><name>PT2235</name></trkpt>
<trkpt lat="53.094439" lon="-4.156051"><ele>659</ele><time>2020-09-18T11:04:45Z</time><name>PT2236</name></trkpt>
<trkpt lat="53.094416" lon="-4.156031"><ele>658</ele><time>2020-09-18T11:04:48Z</time><name>PT2237</name></trkpt>
<trkpt lat="53.094376" lon="-4.155976"><ele>658</ele><time>2020-09-18T11:04:52Z</time><name>PT2238</name></trkpt>
<trkpt lat="53.094336" lon="-4.155941"><ele>657</ele><time>2020-09-18T11:04:56Z</time><name>PT2239</name></trkpt>
<trkpt lat="53.094311" lon="-4.155924"><ele>656</ele><time>2020-09-18T11:04:59Z</time><name>PT2240</name></trkpt>
<trkpt lat="53.094289" lon="-4.155891"><ele>656</ele><time>2020-09-18T11:05:02Z</time><name>PT2241</name></trkpt>
<trkpt lat="53.094253" lon="-4.155856"><ele>654</ele><time>2020-09-18T11:05:06Z</time><name>PT2242</name></trkpt>
<trkpt lat="53.094232" lon="-4.155836"><ele>653</ele><time>2020-09-18T11:05:09Z</time><name>PT2243</name></trkpt>
<trkpt lat="53.094196" lon="-4.155813"><ele>652</ele><time>2020-09-18T11:05:13Z</time><name>PT2244</name></trkpt>
<trkpt lat="53.094158" lon="-4.155799"><ele>651</ele><time>2020-09-18T11:05:17Z</time><name>PT2245</name></trkpt>
<trkpt lat="53.094128" lon="-4.155780"><ele>649</ele><time>2020-09-18T11:05:21Z</time><name>PT2246</name></trkpt>
<trkpt lat="53.094095" lon="-4.155750"><ele>649</ele><time>2020-09-18T11:05:25Z</time><name>PT2247</name></trkpt>
<trkpt lat="53.094061" lon="-4.155733"><ele>648</ele><time>2020-09-18T11:05:29Z</time><name>PT2248</name></trkpt>
<trkpt lat="53.094022" lon="-4.155737"><ele>648</ele><time>2020-09-18T11:05:33Z</time><name>PT2249</name></trkpt>
<trkpt lat="53.093990" lon="-4.155730"><ele>646</ele><time>2020-09-18T11:05:37Z</time><name>PT2250</name></trkpt>
<trkpt lat="53.093967" lon="-4.155721"><ele>645</ele><time>2020-09-18T11:05:40Z</time><name>PT2251</name></trkpt>
<trkpt lat="53.093949" lon="-4.155707"><ele>644</ele><time>2020-09-18T11:05:43Z</time><name>PT2252</name></trkpt>
<trkpt lat="53.093932" lon="-4.155686"><ele>643</ele><time>2020-09-18T11:05:46Z</time><name>PT2253</name></trkpt>
<trkpt lat="53.093920" lon="-4.155655"><ele>643</ele><time>2020-09-18T11:05:49Z</time><name>PT2254</name></trkpt>
<trkpt lat="53.093891" lon="-4.155618"><ele>642</ele><time>2020-09-18T11:05:53Z</time><name>PT2255</name></trkpt>
<trkpt lat="53.093865" lon="-4.155590"><ele>641</ele><time>2020-09-18T11:05:57Z</time><name>PT2256</name></trkpt>
<trkpt lat="53.093840" lon="-4.155581"><ele>641</ele><time>2020-09-18T11:06:00Z</time><name>PT2257</name></trkpt>
<trkpt lat="53.093812" lon="-4.155548"><ele>640</ele><time>2020-09-18T11:06:04Z</time><name>PT2258</name></trkpt>
<trkpt lat="53.093802" lon="-4.155518"><ele>639</ele><time>2020-09-18T11:06:07Z</time><name>PT2259</name></trkpt>
<trkpt lat="53.093789" lon="-4.155471"><ele>638</ele><time>2020-09-18T11:06:11Z</time><name>PT2260</name></trkpt>
<trkpt lat="53.093759" lon="-4.155437"><ele>637</ele><time>2020-09-18T11:06:15Z</time><name>PT2261</name></trkpt>
<trkpt lat="53.093735" lon="-4.155417"><ele>637</ele><time>2020-09-18T11:06:18Z</time><name>PT2262</name></trkpt>
<trkpt lat="53.093705" lon="-4.155378"><ele>636</ele><time>2020-09-18T11:06:22Z</time><name>PT2263</name></trkpt>
<trkpt lat="53.093677" lon="-4.155349"><ele>634</ele><time>2020-09-18T11:06:26Z</time><name>PT2264</name></trkpt>
<trkpt lat="53.093650" lon="-4.155336"><ele>633</ele><time>2020-09-18T11:06:29Z</time><name>PT2265</name></trkpt>
<trkpt lat="53.093615" lon="-4.155320"><ele>632</ele><time>2020-09-18T11:06:33Z</time><name>PT2266</name></trkpt>
<trkpt lat="53.093578" lon="-4.155305"><ele>631</ele><time>2020-09-18T11:06:37Z</time><name>PT2267</name></trkpt>
<trkpt lat="53.093551" lon="-4.155270"><ele>630</ele><time>2020-09-18T11:06:41Z</time><name>PT2268</name></trkpt>
<trkpt lat="53.093537" lon="-4.155254"><ele>630</ele><time>2020-09-18T11:06:44Z</time><name>PT2269</name></trkpt>
<trkpt lat="53.093512" lon="-4.155212"><ele>628</ele><time>2020-09-18T11:06:48Z</time><name>PT2270</name></trkpt>
<trkpt lat="53.093495" lon="-4.155179"><ele>627</ele><time>2020-09-18T11:06:51Z</time><name>PT2271</name></trkpt>
<trkpt lat="53.093475" lon="-4.155145"><ele>627</ele><time>2020-09-18T11:06:54Z</time><name>PT2272</name></trkpt>
<trkpt lat="53.093458" lon="-4.155136"><ele>626</ele><time>2020-09-18T11:06:58Z</time><name>PT2273</name></trkpt>
<trkpt lat="53.093441" lon="-4.155130"><ele>626</ele><time>2020-09-18T11:07:01Z</time><name>PT2274</name></trkpt>
<trkpt lat="53.093436" lon="-4.155123"><ele>626</ele><time>2020-09-18T11:07:05Z</time><name>PT2275</name></trkpt>
<trkpt lat="53.093419" lon="-4.155102"><ele>626</ele><time>2020-09-18T11:07:38Z</time><name>PT2276</name></trkpt>
<trkpt lat="53.093389" lon="-4.155056"><ele>626</ele><time>2020-09-18T11:07:42Z</time><name>PT2277</name></trkpt>
<trkpt lat="53.093367" lon="-4.155014"><ele>625</ele><time>2020-09-18T11:07:46Z</time><name>PT2278</name></trkpt>
<trkpt lat="53.093343" lon="-4.154985"><ele>624</ele><time>2020-09-18T11:07:49Z</time><name>PT2279</name></trkpt>
<trkpt lat="53.093318" lon="-4.154950"><ele>623</ele><time>2020-09-18T11:07:52Z</time><name>PT2280</name></trkpt>
<trkpt lat="53.093298" lon="-4.154923"><ele>621</ele><time>2020-09-18T11:07:55Z</time><name>PT2281</name></trkpt>
<trkpt lat="53.093268" lon="-4.154881"><ele>620</ele><time>2020-09-18T11:07:59Z</time><name>PT2282</name></trkpt>
<trkpt lat="53.093236" lon="-4.154832"><ele>619</ele><time>2020-09-18T11:08:03Z</time><name>PT2283</name></trkpt>
<trkpt lat="53.093213" lon="-4.154795"><ele>619</ele><time>2020-09-18T11:08:06Z</time><name>PT2284</name></trkpt>
<trkpt lat="53.093182" lon="-4.154760"><ele>619</ele><time>2020-09-18T11:08:09Z</time><name>PT2285</name></trkpt>
<trkpt lat="53.093144" lon="-4.154745"><ele>618</ele><time>2020-09-18T11:08:13Z</time><name>PT2286</name></trkpt>
<trkpt lat="53.093112" lon="-4.154728"><ele>617</ele><time>2020-09-18T11:08:17Z</time><name>PT2287</name></trkpt>
<trkpt lat="53.093089" lon="-4.154715"><ele>616</ele><time>2020-09-18T11:08:20Z</time><name>PT2288</name></trkpt>
<trkpt lat="53.093071" lon="-4.154687"><ele>615</ele><time>2020-09-18T11:08:23Z</time><name>PT2289</name></trkpt>
<trkpt lat="53.093050" lon="-4.154636"><ele>614</ele><time>2020-09-18T11:08:27Z</time><name>PT2290</name></trkpt>
<trkpt lat="53.093020" lon="-4.154604"><ele>612</ele><time>2020-09-18T11:08:31Z</time><name>PT2291</name></trkpt>
<trkpt lat="53.092997" lon="-4.154590"><ele>611</ele><time>2020-09-18T11:08:34Z</time><name>PT2292</name></trkpt>
<trkpt lat="53.092960" lon="-4.154561"><ele>610</ele><time>2020-09-18T11:08:38Z</time><name>PT2293</name></trkpt>
<trkpt lat="53.092923" lon="-4.154532"><ele>609</ele><time>2020-09-18T11:08:41Z</time><name>PT2294</name></trkpt>
<trkpt lat="53.092887" lon="-4.154481"><ele>609</ele><time>2020-09-18T11:08:45Z</time><name>PT2295</name></trkpt>
<trkpt lat="53.092855" lon="-4.154445"><ele>609</ele><time>2020-09-18T11:08:48Z</time><name>PT2296</name></trkpt>
<trkpt lat="53.092814" lon="-4.154423"><ele>608</ele><time>2020-09-18T11:08:51Z</time><name>PT2297</name></trkpt>
<trkpt lat="53.092766" lon="-4.154387"><ele>607</ele><time>2020-09-18T11:08:55Z</time><name>PT2298</name></trkpt>
<trkpt lat="53.092725" lon="-4.154359"><ele>608</ele><time>2020-09-18T11:08:58Z</time><name>PT2299</name></trkpt>
<trkpt lat="53.092679" lon="-4.154307"><ele>608</ele><time>2020-09-18T11:09:02Z</time><name>PT2300</name></trkpt>
<trkpt lat="53.092631" lon="-4.154260"><ele>608</ele><time>2020-09-18T11:09:06Z</time><name>PT2301</name></trkpt>
<trkpt lat="53.092586" lon="-4.154218"><ele>607</ele><time>2020-09-18T11:09:09Z</time><name>PT2302</name></trkpt>
<trkpt lat="53.092565" lon="-4.154183"><ele>607</ele><time>2020-09-18T11:09:13Z</time><name>PT2303</name></trkpt>
<trkpt lat="53.092564" lon="-4.154181"><ele>608</ele><time>2020-09-18T11:09:16Z</time><name>PT2304</name></trkpt>
<trkpt lat="53.092564" lon="-4.154183"><ele>608</ele><time>2020-09-18T11:09:20Z</time><name>PT2305</name></trkpt>
<trkpt lat="53.092574" lon="-4.154188"><ele>608</ele><time>2020-09-18T11:09:45Z</time><name>PT2306</name></trkpt>
<trkpt lat="53.092588" lon="-4.154205"><ele>607</ele><time>2020-09-18T11:09:48Z</time><name>PT2307</name></trkpt>
<trkpt lat="53.092591" lon="-4.154204"><ele>608</ele><time>2020-09-18T11:09:52Z</time><name>PT2308</name></trkpt>
<trkpt lat="53.092592" lon="-4.154206"><ele>608</ele><time>2020-09-18T11:09:55Z</time><name>PT2309</name></trkpt>
<trkpt lat="53.092595" lon="-4.154212"><ele>607</ele><time>2020-09-18T11:09:58Z</time><name>PT2310</name></trkpt>
<trkpt lat="53.092593" lon="-4.154221"><ele>608</ele><time>2020-09-18T11:10:20Z</time><name>PT2311</name></trkpt>
<trkpt lat="53.092596" lon="-4.154233"><ele>608</ele><time>2020-09-18T11:10:23Z</time><name>PT2312</name></trkpt>
<trkpt lat="53.092591" lon="-4.154235"><ele>608</ele><time>2020-09-18T11:10:26Z</time><name>PT2313</name></trkpt>
<trkpt lat="53.092596" lon="-4.154226"><ele>609</ele><time>2020-09-18T11:10:29Z</time><name>PT2314</name></trkpt>
<trkpt lat="53.092589" lon="-4.154238"><ele>608</ele><time>2020-09-18T11:10:33Z</time><name>PT2315</name></trkpt>
<trkpt lat="53.092589" lon="-4.154242"><ele>608</ele><time>2020-09-18T11:10:37Z</time><name>PT2316</name></trkpt>
<trkpt lat="53.092587" lon="-4.154232"><ele>608</ele><time>2020-09-18T11:10:41Z</time><name>PT2317</name></trkpt>
<trkpt lat="53.092593" lon="-4.154221"><ele>609</ele><time>2020-09-18T11:10:45Z</time><name>PT2318</name></trkpt>
<trkpt lat="53.092592" lon="-4.154211"><ele>609</ele><time>2020-09-18T11:10:48Z</time><name>PT2319</name></trkpt>
<trkpt lat="53.092585" lon="-4.154221"><ele>608</ele><time>2020-09-18T11:10:52Z</time><name>PT2320</name></trkpt>
<trkpt lat="53.092585" lon="-4.154210"><ele>607</ele><time>2020-09-18T11:10:56Z</time><name>PT2321</name></trkpt>
<trkpt lat="53.092583" lon="-4.154198"><ele>608</ele><time>2020-09-18T11:11:00Z</time><name>PT2322</name></trkpt>
<trkpt lat="53.092566" lon="-4.154201"><ele>607</ele><time>2020-09-18T11:11:04Z</time><name>PT2323</name></trkpt>
<trkpt lat="53.092564" lon="-4.154210"><ele>607</ele><time>2020-09-18T11:11:07Z</time><name>PT2324</name></trkpt>
<trkpt lat="53.092562" lon="-4.154211"><ele>607</ele><time>2020-09-18T11:11:11Z</time><name>PT2325</name></trkpt>
<trkpt lat="53.092533" lon="-4.154185"><ele>607</ele><time>2020-09-18T11:11:31Z</time><name>PT2326</name></trkpt>
<trkpt lat="53.092485" lon="-4.154142"><ele>606</ele><time>2020-09-18T11:11:35Z</time><name>PT2327</name></trkpt>
<trkpt lat="53.092444" lon="-4.154105"><ele>605</ele><time>2020-09-18T11:11:39Z</time><name>PT2328</name></trkpt>
<trkpt lat="53.092414" lon="-4.154079"><ele>605</ele><time>2020-09-18T11:11:42Z</time><name>PT2329</name></trkpt>
<trkpt lat="53.092386" lon="-4.154051"><ele>605</ele><time>2020-09-18T11:11:45Z</time><name>PT2330</name></trkpt>
<trkpt lat="53.092340" lon="-4.154019"><ele>605</ele><time>2020-09-18T11:11:49Z</time><name>PT2331</name></trkpt>
<trkpt lat="53.092306" lon="-4.153990"><ele>605</ele><time>2020-09-18T11:11:52Z</time><name>PT2332</name></trkpt>
<trkpt lat="53.092274" lon="-4.153972"><ele>604</ele><time>2020-09-18T11:11:55Z</time><name>PT2333</name></trkpt>
<trkpt lat="53.092229" lon="-4.153946"><ele>603</ele><time>2020-09-18T11:11:59Z</time><name>PT2334</name></trkpt>
<trkpt lat="53.092192" lon="-4.153923"><ele>603</ele><time>2020-09-18T11:12:02Z</time><name>PT2335</name></trkpt>
<trkpt lat="53.092142" lon="-4.153898"><ele>603</ele><time>2020-09-18T11:12:06Z</time><name>PT2336</name></trkpt>
<trkpt lat="53.092103" lon="-4.153872"><ele>603</ele><time>2020-09-18T11:12:09Z</time><name>PT2337</name></trkpt>
<trkpt lat="53.092069" lon="-4.153856"><ele>602</ele><time>2020-09-18T11:12:12Z</time><name>PT2338</name></trkpt>
<trkpt lat="53.092023" lon="-4.153834"><ele>602</ele><time>2020-09-18T11:12:16Z</time><name>PT2339</name></trkpt>
<trkpt lat="53.091989" lon="-4.153816"><ele>602</ele><time>2020-09-18T11:12:19Z</time><name>PT2340</name></trkpt>
<trkpt lat="53.091938" lon="-4.153785"><ele>602</ele><time>2020-09-18T11:12:23Z</time><name>PT2341</name></trkpt>
<trkpt lat="53.091886" lon="-4.153760"><ele>602</ele><time>2020-09-18T11:12:27Z</time><name>PT2342</name></trkpt>
<trkpt lat="53.091839" lon="-4.153728"><ele>602</ele><time>2020-09-18T11:12:31Z</time><name>PT2343</name></trkpt>
<trkpt lat="53.091789" lon="-4.153704"><ele>601</ele><time>2020-09-18T11:12:35Z</time><name>PT2344</name></trkpt>
<trkpt lat="53.091751" lon="-4.153681"><ele>601</ele><time>2020-09-18T11:12:38Z</time><name>PT2345</name></trkpt>
<trkpt lat="53.091702" lon="-4.153649"><ele>601</ele><time>2020-09-18T11:12:42Z</time><name>PT2346</name></trkpt>
<trkpt lat="53.091670" lon="-4.153622"><ele>601</ele><time>2020-09-18T11:12:45Z</time><name>PT2347</name></trkpt>
<trkpt lat="53.091633" lon="-4.153601"><ele>601</ele><time>2020-09-18T11:12:48Z</time><name>PT2348</name></trkpt>
<trkpt lat="53.091589" lon="-4.153573"><ele>601</ele><time>2020-09-18T11:12:52Z</time><name>PT2349</name></trkpt>
<trkpt lat="53.091559" lon="-4.153550"><ele>600</ele><time>2020-09-18T11:12:55Z</time><name>PT2350</name></trkpt>
<trkpt lat="53.091522" lon="-4.153522"><ele>600</ele><time>2020-09-18T11:12:58Z</time><name>PT2351</name></trkpt>
<trkpt lat="53.091485" lon="-4.153515"><ele>600</ele><time>2020-09-18T11:13:01Z</time><name>PT2352</name></trkpt>
<trkpt lat="53.091438" lon="-4.153496"><ele>600</ele><time>2020-09-18T11:13:05Z</time><name>PT2353</name></trkpt>
<trkpt lat="53.091389" lon="-4.153479"><ele>602</ele><time>2020-09-18T11:13:09Z</time><name>PT2354</name></trkpt>
<trkpt lat="53.091360" lon="-4.153482"><ele>602</ele><time>2020-09-18T11:13:12Z</time><name>PT2355</name></trkpt>
<trkpt lat="53.091314" lon="-4.153488"><ele>604</ele><time>2020-09-18T11:13:16Z</time><name>PT2356</name></trkpt>
<trkpt lat="53.091267" lon="-4.153496"><ele>604</ele><time>2020-09-18T11:13:20Z</time><name>PT2357</name></trkpt>
<trkpt lat="53.091231" lon="-4.153496"><ele>604</ele><time>2020-09-18T11:13:23Z</time><name>PT2358</name></trkpt>
<trkpt lat="53.091197" lon="-4.153496"><ele>604</ele><time>2020-09-18T11:13:26Z</time><name>PT2359</name></trkpt>
<trkpt lat="53.091157" lon="-4.153487"><ele>603</ele><time>2020-09-18T11:13:30Z</time><name>PT2360</name></trkpt>
<trkpt lat="53.091122" lon="-4.153479"><ele>604</ele><time>2020-09-18T11:13:33Z</time><name>PT2361</name></trkpt>
<trkpt lat="53.091082" lon="-4.153466"><ele>603</ele><time>2020-09-18T11:13:37Z</time><name>PT2362</name></trkpt>
<trkpt lat="53.091049" lon="-4.153458"><ele>604</ele><time>2020-09-18T11:13:40Z</time><name>PT2363</name></trkpt>
<trkpt lat="53.091015" lon="-4.153450"><ele>603</ele><time>2020-09-18T11:13:43Z</time><name>PT2364</name></trkpt>
<trkpt lat="53.090972" lon="-4.153443"><ele>604</ele><time>2020-09-18T11:13:47Z</time><name>PT2365</name></trkpt>
<trkpt lat="53.090940" lon="-4.153430"><ele>604</ele><time>2020-09-18T11:13:50Z</time><name>PT2366</name></trkpt>
<trkpt lat="53.090887" lon="-4.153408"><ele>605</ele><time>2020-09-18T11:13:54Z</time><name>PT2367</name></trkpt>
<trkpt lat="53.090843" lon="-4.153385"><ele>605</ele><time>2020-09-18T11:13:58Z</time><name>PT2368</name></trkpt>
<trkpt lat="53.090811" lon="-4.153370"><ele>606</ele><time>2020-09-18T11:14:01Z</time><name>PT2369</name></trkpt>
<trkpt lat="53.090774" lon="-4.153354"><ele>606</ele><time>2020-09-18T11:14:04Z</time><name>PT2370</name></trkpt>
<trkpt lat="53.090733" lon="-4.153335"><ele>606</ele><time>2020-09-18T11:14:08Z</time><name>PT2371</name></trkpt>
<trkpt lat="53.090700" lon="-4.153322"><ele>606</ele><time>2020-09-18T11:14:11Z</time><name>PT2372</name></trkpt>
<trkpt lat="53.090669" lon="-4.153305"><ele>606</ele><time>2020-09-18T11:14:14Z</time><name>PT2373</name></trkpt>
<trkpt lat="53.090635" lon="-4.153292"><ele>606</ele><time>2020-09-18T11:14:17Z</time><name>PT2374</name></trkpt>
<trkpt lat="53.090590" lon="-4.153269"><ele>606</ele><time>2020-09-18T11:14:21Z</time><name>PT2375</name></trkpt>
<trkpt lat="53.090565" lon="-4.153251"><ele>607</ele><time>2020-09-18T11:14:24Z</time><name>PT2376</name></trkpt>
<trkpt lat="53.090538" lon="-4.153228"><ele>608</ele><time>2020-09-18T11:14:27Z</time><name>PT2377</name></trkpt>
<trkpt lat="53.090498" lon="-4.153205"><ele>609</ele><time>2020-09-18T11:14:31Z</time><name>PT2378</name></trkpt>
<trkpt lat="53.090472" lon="-4.153185"><ele>609</ele><time>2020-09-18T11:14:34Z</time><name>PT2379</name></trkpt>
<trkpt lat="53.090440" lon="-4.153159"><ele>610</ele><time>2020-09-18T11:14:38Z</time><name>PT2380</name></trkpt>
<trkpt lat="53.090403" lon="-4.153132"><ele>611</ele><time>2020-09-18T11:14:42Z</time><name>PT2381</name></trkpt>
<trkpt lat="53.090368" lon="-4.153093"><ele>612</ele><time>2020-09-18T11:14:46Z</time><name>PT2382</name></trkpt>
<trkpt lat="53.090339" lon="-4.153072"><ele>613</ele><time>2020-09-18T11:14:49Z</time><name>PT2383</name></trkpt>
<trkpt lat="53.090308" lon="-4.153045"><ele>613</ele><time>2020-09-18T11:14:53Z</time><name>PT2384</name></trkpt>
<trkpt lat="53.090278" lon="-4.153026"><ele>613</ele><time>2020-09-18T11:14:56Z</time><name>PT2385</name></trkpt>
<trkpt lat="53.090241" lon="-4.153006"><ele>615</ele><time>2020-09-18T11:15:00Z</time><name>PT2386</name></trkpt>
<trkpt lat="53.090211" lon="-4.152983"><ele>615</ele><time>2020-09-18T11:15:04Z</time><name>PT2387</name></trkpt>
<trkpt lat="53.090178" lon="-4.152955"><ele>615</ele><time>2020-09-18T11:15:08Z</time><name>PT2388</name></trkpt>
<trkpt lat="53.090151" lon="-4.152932"><ele>615</ele><time>2020-09-18T11:15:11Z</time><name>PT2389</name></trkpt>
<trkpt lat="53.090123" lon="-4.152897"><ele>616</ele><time>2020-09-18T11:15:15Z</time><name>PT2390</name></trkpt>
<trkpt lat="53.090097" lon="-4.152860"><ele>617</ele><time>2020-09-18T11:15:19Z</time><name>PT2391</name></trkpt>
<trkpt lat="53.090079" lon="-4.152835"><ele>617</ele><time>2020-09-18T11:15:22Z</time><name>PT2392</name></trkpt>
<trkpt lat="53.090051" lon="-4.152799"><ele>617</ele><time>2020-09-18T11:15:26Z</time><name>PT2393</name></trkpt>
<trkpt lat="53.090028" lon="-4.152777"><ele>617</ele><time>2020-09-18T11:15:29Z</time><name>PT2394</name></trkpt>
<trkpt lat="53.090010" lon="-4.152761"><ele>617</ele><time>2020-09-18T11:15:32Z</time><name>PT2395</name></trkpt>
<trkpt lat="53.089980" lon="-4.152728"><ele>618</ele><time>2020-09-18T11:15:36Z</time><name>PT2396</name></trkpt>
<trkpt lat="53.089952" lon="-4.152698"><ele>619</ele><time>2020-09-18T11:15:40Z</time><name>PT2397</name></trkpt>
<trkpt lat="53.089929" lon="-4.152659"><ele>620</ele><time>2020-09-18T11:15:44Z</time><name>PT2398</name></trkpt>
<trkpt lat="53.089897" lon="-4.152619"><ele>621</ele><time>2020-09-18T11:15:48Z</time><name>PT2399</name></trkpt>
<trkpt lat="53.089873" lon="-4.152580"><ele>621</ele><time>2020-09-18T11:15:52Z</time><name>PT2400</name></trkpt>
<trkpt lat="53.089854" lon="-4.152555"><ele>621</ele><time>2020-09-18T11:15:55Z</time><name>PT2401</name></trkpt>
<trkpt lat="53.089830" lon="-4.152526"><ele>621</ele><time>2020-09-18T11:15:59Z</time><name>PT2402</name></trkpt>
<trkpt lat="53.089803" lon="-4.152496"><ele>622</ele><time>2020-09-18T11:16:03Z</time><name>PT2403</name></trkpt>
<trkpt lat="53.089780" lon="-4.152470"><ele>622</ele><time>2020-09-18T11:16:06Z</time><name>PT2404</name></trkpt>
<trkpt lat="53.089752" lon="-4.152436"><ele>622</ele><time>2020-09-18T11:16:10Z</time><name>PT2405</name></trkpt>
<trkpt lat="53.089718" lon="-4.152396"><ele>622</ele><time>2020-09-18T11:16:14Z</time><name>PT2406</name></trkpt>
<trkpt lat="53.089681" lon="-4.152346"><ele>623</ele><time>2020-09-18T11:16:18Z</time><name>PT2407</name></trkpt>
<trkpt lat="53.089652" lon="-4.152308"><ele>624</ele><time>2020-09-18T11:16:21Z</time><name>PT2408</name></trkpt>
<trkpt lat="53.089625" lon="-4.152274"><ele>625</ele><time>2020-09-18T11:16:24Z</time><name>PT2409</name></trkpt>
<trkpt lat="53.089597" lon="-4.152226"><ele>626</ele><time>2020-09-18T11:16:28Z</time><name>PT2410</name></trkpt>
<trkpt lat="53.089578" lon="-4.152191"><ele>626</ele><time>2020-09-18T11:16:31Z</time><name>PT2411</name></trkpt>
<trkpt lat="53.089554" lon="-4.152145"><ele>626</ele><time>2020-09-18T11:16:35Z</time><name>PT2412</name></trkpt>
<trkpt lat="53.089526" lon="-4.152095"><ele>628</ele><time>2020-09-18T11:16:39Z</time><name>PT2413</name></trkpt>
<trkpt lat="53.089499" lon="-4.152049"><ele>629</ele><time>2020-09-18T11:16:43Z</time><name>PT2414</name></trkpt>
<trkpt lat="53.089477" lon="-4.152012"><ele>629</ele><time>2020-09-18T11:16:46Z</time><name>PT2415</name></trkpt>
<trkpt lat="53.089448" lon="-4.151969"><ele>629</ele><time>2020-09-18T11:16:50Z</time><name>PT2416</name></trkpt>
<trkpt lat="53.089434" lon="-4.151921"><ele>630</ele><time>2020-09-18T11:16:53Z</time><name>PT2417</name></trkpt>
<trkpt lat="53.089417" lon="-4.151883"><ele>630</ele><time>2020-09-18T11:16:56Z</time><name>PT2418</name></trkpt>
<trkpt lat="53.089405" lon="-4.151837"><ele>631</ele><time>2020-09-18T11:17:00Z</time><name>PT2419</name></trkpt>
<trkpt lat="53.089389" lon="-4.151776"><ele>630</ele><time>2020-09-18T11:17:04Z</time><name>PT2420</name></trkpt>
<trkpt lat="53.089370" lon="-4.151735"><ele>630</ele><time>2020-09-18T11:17:07Z</time><name>PT2421</name></trkpt>
<trkpt lat="53.089363" lon="-4.151663"><ele>630</ele><time>2020-09-18T11:17:11Z</time><name>PT2422</name></trkpt>
<trkpt lat="53.089357" lon="-4.151593"><ele>629</ele><time>2020-09-18T11:17:15Z</time><name>PT2423</name></trkpt>
<trkpt lat="53.089353" lon="-4.151533"><ele>629</ele><time>2020-09-18T11:17:18Z</time><name>PT2424</name></trkpt>
<trkpt lat="53.089344" lon="-4.151479"><ele>630</ele><time>2020-09-18T11:17:22Z</time><name>PT2425</name></trkpt>
<trkpt lat="53.089340" lon="-4.151475"><ele>630</ele><time>2020-09-18T11:17:26Z</time><name>PT2426</name></trkpt>
<trkpt lat="53.089337" lon="-4.151470"><ele>630</ele><time>2020-09-18T11:17:30Z</time><name>PT2427</name></trkpt>
<trkpt lat="53.089304" lon="-4.151419"><ele>630</ele><time>2020-09-18T11:17:37Z</time><name>PT2428</name></trkpt>
<trkpt lat="53.089251" lon="-4.151367"><ele>629</ele><time>2020-09-18T11:17:41Z</time><name>PT2429</name></trkpt>
<trkpt lat="53.089201" lon="-4.151321"><ele>629</ele><time>2020-09-18T11:17:45Z</time><name>PT2430</name></trkpt>
<trkpt lat="53.089166" lon="-4.151281"><ele>629</ele><time>2020-09-18T11:17:48Z</time><name>PT2431</name></trkpt>
<trkpt lat="53.089134" lon="-4.151242"><ele>629</ele><time>2020-09-18T11:17:51Z</time><name>PT2432</name></trkpt>
<trkpt lat="53.089095" lon="-4.151194"><ele>630</ele><time>2020-09-18T11:17:55Z</time><name>PT2433</name></trkpt>
<trkpt lat="53.089063" lon="-4.151140"><ele>630</ele><time>2020-09-18T11:17:59Z</time><name>PT2434</name></trkpt>
<trkpt lat="53.089036" lon="-4.151105"><ele>629</ele><time>2020-09-18T11:18:02Z</time><name>PT2435</name></trkpt>
<trkpt lat="53.089010" lon="-4.151059"><ele>630</ele><time>2020-09-18T11:18:05Z</time><name>PT2436</name></trkpt>
<trkpt lat="53.088984" lon="-4.151010"><ele>629</ele><time>2020-09-18T11:18:08Z</time><name>PT2437</name></trkpt>
<trkpt lat="53.088962" lon="-4.150979"><ele>629</ele><time>2020-09-18T11:18:12Z</time><name>PT2438</name></trkpt>
<trkpt lat="53.088959" lon="-4.150968"><ele>629</ele><time>2020-09-18T11:18:15Z</time><name>PT2439</name></trkpt>
<trkpt lat="53.088960" lon="-4.150972"><ele>629</ele><time>2020-09-18T11:18:18Z</time><name>PT2440</name></trkpt>
<trkpt lat="53.088943" lon="-4.150947"><ele>629</ele><time>2020-09-18T11:19:09Z</time><name>PT2441</name></trkpt>
<trkpt lat="53.088917" lon="-4.150895"><ele>628</ele><time>2020-09-18T11:19:13Z</time><name>PT2442</name></trkpt>
<trkpt lat="53.088901" lon="-4.150869"><ele>628</ele><time>2020-09-18T11:19:16Z</time><name>PT2443</name></trkpt>
<trkpt lat="53.088902" lon="-4.150869"><ele>628</ele><time>2020-09-18T11:19:20Z</time><name>PT2444</name></trkpt>
<trkpt lat="53.088876" lon="-4.150824"><ele>628</ele><time>2020-09-18T11:19:24Z</time><name>PT2445</name></trkpt>
<trkpt lat="53.088846" lon="-4.150774"><ele>628</ele><time>2020-09-18T11:19:28Z</time><name>PT2446</name></trkpt>
<trkpt lat="53.088825" lon="-4.150734"><ele>628</ele><time>2020-09-18T11:19:31Z</time><name>PT2447</name></trkpt>
<trkpt lat="53.088795" lon="-4.150679"><ele>628</ele><time>2020-09-18T11:19:35Z</time><name>PT2448</name></trkpt>
<trkpt lat="53.088766" lon="-4.150614"><ele>627</ele><time>2020-09-18T11:19:39Z</time><name>PT2449</name></trkpt>
<trkpt lat="53.088740" lon="-4.150558"><ele>626</ele><time>2020-09-18T11:19:43Z</time><name>PT2450</name></trkpt>
<trkpt lat="53.088728" lon="-4.150506"><ele>626</ele><time>2020-09-18T11:19:46Z</time><name>PT2451</name></trkpt>
<trkpt lat="53.088705" lon="-4.150446"><ele>624</ele><time>2020-09-18T11:19:50Z</time><name>PT2452</name></trkpt>
<trkpt lat="53.088688" lon="-4.150399"><ele>623</ele><time>2020-09-18T11:19:53Z</time><name>PT2453</name></trkpt>
<trkpt lat="53.088671" lon="-4.150364"><ele>622</ele><time>2020-09-18T11:19:56Z</time><name>PT2454</name></trkpt>
<trkpt lat="53.088644" lon="-4.150319"><ele>621</ele><time>2020-09-18T11:20:00Z</time><name>PT2455</name></trkpt>
<trkpt lat="53.088629" lon="-4.150305"><ele>621</ele><time>2020-09-18T11:20:04Z</time><name>PT2456</name></trkpt>
<trkpt lat="53.088628" lon="-4.150306"><ele>621</ele><time>2020-09-18T11:20:08Z</time><name>PT2457</name></trkpt>
<trkpt lat="53.088610" lon="-4.150280"><ele>620</ele><time>2020-09-18T11:20:23Z</time><name>PT2458</name></trkpt>
<trkpt lat="53.088581" lon="-4.150253"><ele>619</ele><time>2020-09-18T11:20:26Z</time><name>PT2459</name></trkpt>
<trkpt lat="53.088563" lon="-4.150229"><ele>619</ele><time>2020-09-18T11:20:29Z</time><name>PT2460</name></trkpt>
<trkpt lat="53.088547" lon="-4.150215"><ele>618</ele><time>2020-09-18T11:20:33Z</time><name>PT2461</name></trkpt>
<trkpt lat="53.088524" lon="-4.150182"><ele>616</ele><time>2020-09-18T11:20:37Z</time><name>PT2462</name></trkpt>
<trkpt lat="53.088498" lon="-4.150142"><ele>616</ele><time>2020-09-18T11:20:40Z</time><name>PT2463</name></trkpt>
<trkpt lat="53.088484" lon="-4.150112"><ele>616</ele><time>2020-09-18T11:20:43Z</time><name>PT2464</name></trkpt>
<trkpt lat="53.088458" lon="-4.150075"><ele>615</ele><time>2020-09-18T11:20:47Z</time><name>PT2465</name></trkpt>
<trkpt lat="53.088433" lon="-4.150040"><ele>614</ele><time>2020-09-18T11:20:51Z</time><name>PT2466</name></trkpt>
<trkpt lat="53.088416" lon="-4.150009"><ele>614</ele><time>2020-09-18T11:20:54Z</time><name>PT2467</name></trkpt>
<trkpt lat="53.088390" lon="-4.149979"><ele>613</ele><time>2020-09-18T11:20:58Z</time><name>PT2468</name></trkpt>
<trkpt lat="53.088374" lon="-4.149938"><ele>612</ele><time>2020-09-18T11:21:01Z</time><name>PT2469</name></trkpt>
<trkpt lat="53.088350" lon="-4.149896"><ele>611</ele><time>2020-09-18T11:21:05Z</time><name>PT2470</name></trkpt>
<trkpt lat="53.088330" lon="-4.149851"><ele>610</ele><time>2020-09-18T11:21:09Z</time><name>PT2471</name></trkpt>
<trkpt lat="53.088316" lon="-4.149814"><ele>609</ele><time>2020-09-18T11:21:12Z</time><name>PT2472</name></trkpt>
<trkpt lat="53.088298" lon="-4.149763"><ele>608</ele><time>2020-09-18T11:21:16Z</time><name>PT2473</name></trkpt>
<trkpt lat="53.088285" lon="-4.149732"><ele>608</ele><time>2020-09-18T11:21:19Z</time><name>PT2474</name></trkpt>
<trkpt lat="53.088266" lon="-4.149684"><ele>607</ele><time>2020-09-18T11:21:23Z</time><name>PT2475</name></trkpt>
<trkpt lat="53.088252" lon="-4.149656"><ele>606</ele><time>2020-09-18T11:21:26Z</time><name>PT2476</name></trkpt>
<trkpt lat="53.088238" lon="-4.149605"><ele>605</ele><time>2020-09-18T11:21:30Z</time><name>PT2477</name></trkpt>
<trkpt lat="53.088225" lon="-4.149558"><ele>604</ele><time>2020-09-18T11:21:33Z</time><name>PT2478</name></trkpt>
<trkpt lat="53.088212" lon="-4.149493"><ele>604</ele><time>2020-09-18T11:21:37Z</time><name>PT2479</name></trkpt>
<trkpt lat="53.088208" lon="-4.149439"><ele>604</ele><time>2020-09-18T11:21:40Z</time><name>PT2480</name></trkpt>
<trkpt lat="53.088196" lon="-4.149369"><ele>603</ele><time>2020-09-18T11:21:44Z</time><name>PT2481</name></trkpt>
<trkpt lat="53.088179" lon="-4.149302"><ele>603</ele><time>2020-09-18T11:21:48Z</time><name>PT2482</name></trkpt>
<trkpt lat="53.088158" lon="-4.149253"><ele>602</ele><time>2020-09-18T11:21:51Z</time><name>PT2483</name></trkpt>
<trkpt lat="53.088143" lon="-4.149215"><ele>602</ele><time>2020-09-18T11:21:54Z</time><name>PT2484</name></trkpt>
<trkpt lat="53.088130" lon="-4.149165"><ele>601</ele><time>2020-09-18T11:21:58Z</time><name>PT2485</name></trkpt>
<trkpt lat="53.088120" lon="-4.149139"><ele>600</ele><time>2020-09-18T11:22:02Z</time><name>PT2486</name></trkpt>
<trkpt lat="53.088112" lon="-4.149112"><ele>599</ele><time>2020-09-18T11:22:06Z</time><name>PT2487</name></trkpt>
<trkpt lat="53.088108" lon="-4.149084"><ele>599</ele><time>2020-09-18T11:22:09Z</time><name>PT2488</name></trkpt>
<trkpt lat="53.088102" lon="-4.149052"><ele>598</ele><time>2020-09-18T11:22:12Z</time><name>PT2489</name></trkpt>
<trkpt lat="53.088089" lon="-4.149026"><ele>597</ele><time>2020-09-18T11:22:15Z</time><name>PT2490</name></trkpt>
<trkpt lat="53.088069" lon="-4.148978"><ele>596</ele><time>2020-09-18T11:22:19Z</time><name>PT2491</name></trkpt>
<trkpt lat="53.088046" lon="-4.148920"><ele>595</ele><time>2020-09-18T11:22:23Z</time><name>PT2492</name></trkpt>
<trkpt lat="53.088027" lon="-4.148889"><ele>594</ele><time>2020-09-18T11:22:26Z</time><name>PT2493</name></trkpt>
<trkpt lat="53.088003" lon="-4.148834"><ele>593</ele><time>2020-09-18T11:22:30Z</time><name>PT2494</name></trkpt>
<trkpt lat="53.087985" lon="-4.148791"><ele>593</ele><time>2020-09-18T11:22:33Z</time><name>PT2495</name></trkpt>
<trkpt lat="53.087959" lon="-4.148757"><ele>592</ele><time>2020-09-18T11:22:36Z</time><name>PT2496</name></trkpt>
<trkpt lat="53.087929" lon="-4.148701"><ele>592</ele><time>2020-09-18T11:22:40Z</time><name>PT2497</name></trkpt>
<trkpt lat="53.087905" lon="-4.148661"><ele>592</ele><time>2020-09-18T11:22:43Z</time><name>PT2498</name></trkpt>
<trkpt lat="53.087880" lon="-4.148613"><ele>591</ele><time>2020-09-18T11:22:47Z</time><name>PT2499</name></trkpt>
<trkpt lat="53.087859" lon="-4.148582"><ele>590</ele><time>2020-09-18T11:22:50Z</time><name>PT2500</name></trkpt>
<trkpt lat="53.087852" lon="-4.148571"><ele>590</ele><time>2020-09-18T11:22:53Z</time><name>PT2501</name></trkpt>
<trkpt lat="53.087830" lon="-4.148528"><ele>589</ele><time>2020-09-18T11:22:57Z</time><name>PT2502</name></trkpt>
<trkpt lat="53.087811" lon="-4.148501"><ele>588</ele><time>2020-09-18T11:23:00Z</time><name>PT2503</name></trkpt>
<trkpt lat="53.087795" lon="-4.148472"><ele>587</ele><time>2020-09-18T11:23:04Z</time><name>PT2504</name></trkpt>
<trkpt lat="53.087793" lon="-4.148480"><ele>587</ele><time>2020-09-18T11:23:07Z</time><name>PT2505</name></trkpt>
<trkpt lat="53.087781" lon="-4.148440"><ele>588</ele><time>2020-09-18T11:23:43Z</time><name>PT2506</name></trkpt>
<trkpt lat="53.087762" lon="-4.148412"><ele>587</ele><time>2020-09-18T11:23:47Z</time><name>PT2507</name></trkpt>
<trkpt lat="53.087762" lon="-4.148411"><ele>587</ele><time>2020-09-18T11:23:50Z</time><name>PT2508</name></trkpt>
<trkpt lat="53.087755" lon="-4.148387"><ele>587</ele><time>2020-09-18T11:23:56Z</time><name>PT2509</name></trkpt>
<trkpt lat="53.087732" lon="-4.148339"><ele>586</ele><time>2020-09-18T11:24:00Z</time><name>PT2510</name></trkpt>
<trkpt lat="53.087713" lon="-4.148295"><ele>586</ele><time>2020-09-18T11:24:03Z</time><name>PT2511</name></trkpt>
<trkpt lat="53.087682" lon="-4.148238"><ele>584</ele><time>2020-09-18T11:24:07Z</time><name>PT2512</name></trkpt>
<trkpt lat="53.087664" lon="-4.148198"><ele>583</ele><time>2020-09-18T11:24:10Z</time><name>PT2513</name></trkpt>
<trkpt lat="53.087644" lon="-4.148157"><ele>582</ele><time>2020-09-18T11:24:13Z</time><name>PT2514</name></trkpt>
<trkpt lat="53.087621" lon="-4.148137"><ele>582</ele><time>2020-09-18T11:24:16Z</time><name>PT2515</name></trkpt>
<trkpt lat="53.087581" lon="-4.148097"><ele>582</ele><time>2020-09-18T11:24:20Z</time><name>PT2516</name></trkpt>
<trkpt lat="53.087553" lon="-4.148059"><ele>581</ele><time>2020-09-18T11:24:23Z</time><name>PT2517</name></trkpt>
<trkpt lat="53.087530" lon="-4.148012"><ele>581</ele><time>2020-09-18T11:24:26Z</time><name>PT2518</name></trkpt>
<trkpt lat="53.087502" lon="-4.147956"><ele>581</ele><time>2020-09-18T11:24:30Z</time><name>PT2519</name></trkpt>
<trkpt lat="53.087473" lon="-4.147902"><ele>581</ele><time>2020-09-18T11:24:34Z</time><name>PT2520</name></trkpt>
<trkpt lat="53.087447" lon="-4.147854"><ele>582</ele><time>2020-09-18T11:24:38Z</time><name>PT2521</name></trkpt>
<trkpt lat="53.087418" lon="-4.147805"><ele>583</ele><time>2020-09-18T11:24:42Z</time><name>PT2522</name></trkpt>
<trkpt lat="53.087388" lon="-4.147759"><ele>584</ele><time>2020-09-18T11:24:46Z</time><name>PT2523</name></trkpt>
<trkpt lat="53.087353" lon="-4.147705"><ele>585</ele><time>2020-09-18T11:24:50Z</time><name>PT2524</name></trkpt>
<trkpt lat="53.087334" lon="-4.147679"><ele>585</ele><time>2020-09-18T11:24:53Z</time><name>PT2525</name></trkpt>
<trkpt lat="53.087323" lon="-4.147646"><ele>585</ele><time>2020-09-18T11:24:56Z</time><name>PT2526</name></trkpt>
<trkpt lat="53.087313" lon="-4.147592"><ele>585</ele><time>2020-09-18T11:24:59Z</time><name>PT2527</name></trkpt>
<trkpt lat="53.087322" lon="-4.147532"><ele>585</ele><time>2020-09-18T11:25:03Z</time><name>PT2528</name></trkpt>
<trkpt lat="53.087324" lon="-4.147482"><ele>585</ele><time>2020-09-18T11:25:06Z</time><name>PT2529</name></trkpt>
<trkpt lat="53.087319" lon="-4.147411"><ele>586</ele><time>2020-09-18T11:25:10Z</time><name>PT2530</name></trkpt>
<trkpt lat="53.087308" lon="-4.147339"><ele>587</ele><time>2020-09-18T11:25:14Z</time><name>PT2531</name></trkpt>
<trkpt lat="53.087305" lon="-4.147288"><ele>586</ele><time>2020-09-18T11:25:17Z</time><name>PT2532</name></trkpt>
<trkpt lat="53.087308" lon="-4.147217"><ele>587</ele><time>2020-09-18T11:25:21Z</time><name>PT2533</name></trkpt>
<trkpt lat="53.087321" lon="-4.147161"><ele>587</ele><time>2020-09-18T11:25:24Z</time><name>PT2534</name></trkpt>
<trkpt lat="53.087341" lon="-4.147105"><ele>587</ele><time>2020-09-18T11:25:28Z</time><name>PT2535</name></trkpt>
<trkpt lat="53.087359" lon="-4.147029"><ele>586</ele><time>2020-09-18T11:25:32Z</time><name>PT2536</name></trkpt>
<trkpt lat="53.087372" lon="-4.146983"><ele>586</ele><time>2020-09-18T11:25:35Z</time><name>PT2537</name></trkpt>
<trkpt lat="53.087385" lon="-4.146935"><ele>587</ele><time>2020-09-18T11:25:38Z</time><name>PT2538</name></trkpt>
<trkpt lat="53.087401" lon="-4.146879"><ele>587</ele><time>2020-09-18T11:25:41Z</time><name>PT2539</name></trkpt>
<trkpt lat="53.087420" lon="-4.146803"><ele>588</ele><time>2020-09-18T11:25:45Z</time><name>PT2540</name></trkpt>
<trkpt lat="53.087436" lon="-4.146763"><ele>588</ele><time>2020-09-18T11:25:48Z</time><name>PT2541</name></trkpt>
<trkpt lat="53.087455" lon="-4.146751"><ele>588</ele><time>2020-09-18T11:25:51Z</time><name>PT2542</name></trkpt>
<trkpt lat="53.087467" lon="-4.146749"><ele>589</ele><time>2020-09-18T11:25:55Z</time><name>PT2543</name></trkpt>
<trkpt lat="53.087455" lon="-4.146698"><ele>590</ele><time>2020-09-18T11:26:24Z</time><name>PT2544</name></trkpt>
<trkpt lat="53.087440" lon="-4.146656"><ele>589</ele><time>2020-09-18T11:26:27Z</time><name>PT2545</name></trkpt>
<trkpt lat="53.087439" lon="-4.146602"><ele>589</ele><time>2020-09-18T11:26:31Z</time><name>PT2546</name></trkpt>
<trkpt lat="53.087440" lon="-4.146526"><ele>590</ele><time>2020-09-18T11:26:35Z</time><name>PT2547</name></trkpt>
<trkpt lat="53.087434" lon="-4.146464"><ele>590</ele><time>2020-09-18T11:26:38Z</time><name>PT2548</name></trkpt>
<trkpt lat="53.087421" lon="-4.146373"><ele>590</ele><time>2020-09-18T11:26:42Z</time><name>PT2549</name></trkpt>
<trkpt lat="53.087420" lon="-4.146298"><ele>589</ele><time>2020-09-18T11:26:46Z</time><name>PT2550</name></trkpt>
<trkpt lat="53.087425" lon="-4.146225"><ele>589</ele><time>2020-09-18T11:26:50Z</time><name>PT2551</name></trkpt>
<trkpt lat="53.087410" lon="-4.146175"><ele>590</ele><time>2020-09-18T11:26:53Z</time><name>PT2552</name></trkpt>
<trkpt lat="53.087433" lon="-4.146124"><ele>589</ele><time>2020-09-18T11:26:57Z</time><name>PT2553</name></trkpt>
<trkpt lat="53.087448" lon="-4.146091"><ele>589</ele><time>2020-09-18T11:27:00Z</time><name>PT2554</name></trkpt>
<trkpt lat="53.087434" lon="-4.146034"><ele>590</ele><time>2020-09-18T11:27:04Z</time><name>PT2555</name></trkpt>
<trkpt lat="53.087403" lon="-4.145999"><ele>591</ele><time>2020-09-18T11:27:08Z</time><name>PT2556</name></trkpt>
<trkpt lat="53.087367" lon="-4.145978"><ele>592</ele><time>2020-09-18T11:27:12Z</time><name>PT2557</name></trkpt>
<trkpt lat="53.087346" lon="-4.145967"><ele>593</ele><time>2020-09-18T11:27:15Z</time><name>PT2558</name></trkpt>
<trkpt lat="53.087345" lon="-4.145950"><ele>593</ele><time>2020-09-18T11:27:18Z</time><name>PT2559</name></trkpt>
<trkpt lat="53.087345" lon="-4.145921"><ele>594</ele><time>2020-09-18T11:27:22Z</time><name>PT2560</name></trkpt>
<trkpt lat="53.087306" lon="-4.145919"><ele>595</ele><time>2020-09-18T11:27:26Z</time><name>PT2561</name></trkpt>
<trkpt lat="53.087271" lon="-4.145922"><ele>596</ele><time>2020-09-18T11:27:29Z</time><name>PT2562</name></trkpt>
<trkpt lat="53.087227" lon="-4.145939"><ele>596</ele><time>2020-09-18T11:27:33Z</time><name>PT2563</name></trkpt>
<trkpt lat="53.087192" lon="-4.145941"><ele>596</ele><time>2020-09-18T11:27:36Z</time><name>PT2564</name></trkpt>
<trkpt lat="53.087147" lon="-4.145947"><ele>596</ele><time>2020-09-18T11:27:40Z</time><name>PT2565</name></trkpt>
<trkpt lat="53.087111" lon="-4.145964"><ele>598</ele><time>2020-09-18T11:27:43Z</time><name>PT2566</name></trkpt>
<trkpt lat="53.087077" lon="-4.145969"><ele>599</ele><time>2020-09-18T11:27:46Z</time><name>PT2567</name></trkpt>
<trkpt lat="53.087043" lon="-4.145967"><ele>600</ele><time>2020-09-18T11:27:49Z</time><name>PT2568</name></trkpt>
<trkpt lat="53.087023" lon="-4.145958"><ele>599</ele><time>2020-09-18T11:27:51Z</time><name>PT2569</name></trkpt>
<trkpt lat="53.087011" lon="-4.145961"><ele>599</ele><time>2020-09-18T11:27:52Z</time><name>PT2570</name></trkpt>
<trkpt lat="53.087000" lon="-4.145964"><ele>599</ele><time>2020-09-18T11:27:53Z</time><name>PT2571</name></trkpt>
<trkpt lat="53.086992" lon="-4.145962"><ele>599</ele><time>2020-09-18T11:27:54Z</time><name>PT2572</name></trkpt>
<trkpt lat="53.086982" lon="-4.145960"><ele>600</ele><time>2020-09-18T11:27:55Z</time><name>PT2573</name></trkpt>
<trkpt lat="53.086972" lon="-4.145959"><ele>600</ele><time>2020-09-18T11:27:56Z</time><name>PT2574</name></trkpt>
<trkpt lat="53.086960" lon="-4.145960"><ele>600</ele><time>2020-09-18T11:27:57Z</time><name>PT2575</name></trkpt>
<trkpt lat="53.086952" lon="-4.145964"><ele>600</ele><time>2020-09-18T11:27:58Z</time><name>PT2576</name></trkpt>
<trkpt lat="53.086945" lon="-4.145969"><ele>600</ele><time>2020-09-18T11:27:59Z</time><name>PT2577</name></trkpt>
<trkpt lat="53.086938" lon="-4.145970"><ele>600</ele><time>2020-09-18T11:28:00Z</time><name>PT2578</name></trkpt>
<trkpt lat="53.086932" lon="-4.145970"><ele>600</ele><time>2020-09-18T11:28:01Z</time><name>PT2579</name></trkpt>
<trkpt lat="53.086926" lon="-4.145966"><ele>600</ele><time>2020-09-18T11:28:02Z</time><name>PT2580</name></trkpt>
<trkpt lat="53.086922" lon="-4.145963"><ele>600</ele><time>2020-09-18T11:28:03Z</time><name>PT2581</name></trkpt>
<trkpt lat="53.086923" lon="-4.145963"><ele>600</ele><time>2020-09-18T11:28:04Z</time><name>PT2582</name></trkpt>
<trkpt lat="53.086923" lon="-4.145964"><ele>600</ele><time>2020-09-18T11:28:05Z</time><name>PT2583</name></trkpt>
<trkpt lat="53.086922" lon="-4.145963"><ele>601</ele><time>2020-09-18T11:28:06Z</time><name>PT2584</name></trkpt>
<trkpt lat="53.086922" lon="-4.145958"><ele>601</ele><time>2020-09-18T11:28:07Z</time><name>PT2585</name></trkpt>
<trkpt lat="53.086918" lon="-4.145952"><ele>600</ele><time>2020-09-18T11:28:08Z</time><name>PT2586</name></trkpt>
<trkpt lat="53.086913" lon="-4.145948"><ele>600</ele><time>2020-09-18T11:28:09Z</time><name>PT2587</name></trkpt>
<trkpt lat="53.086907" lon="-4.145944"><ele>600</ele><time>2020-09-18T11:28:09Z</time><name>PT2588</name></trkpt>
<trkpt lat="53.086897" lon="-4.145937"><ele>600</ele><time>2020-09-18T11:28:11Z</time><name>PT2589</name></trkpt>
<trkpt lat="53.086889" lon="-4.145931"><ele>600</ele><time>2020-09-18T11:28:12Z</time><name>PT2590</name></trkpt>
<trkpt lat="53.086881" lon="-4.145929"><ele>599</ele><time>2020-09-18T11:28:13Z</time><name>PT2591</name></trkpt>
<trkpt lat="53.086877" lon="-4.145926"><ele>599</ele><time>2020-09-18T11:28:14Z</time><name>PT2592</name></trkpt>
<trkpt lat="53.086872" lon="-4.145917"><ele>599</ele><time>2020-09-18T11:28:15Z</time><name>PT2593</name></trkpt>
<trkpt lat="53.086867" lon="-4.145907"><ele>599</ele><time>2020-09-18T11:28:16Z</time><name>PT2594</name></trkpt>
<trkpt lat="53.086863" lon="-4.145897"><ele>598</ele><time>2020-09-18T11:28:17Z</time><name>PT2595</name></trkpt>
<trkpt lat="53.086857" lon="-4.145890"><ele>598</ele><time>2020-09-18T11:28:18Z</time><name>PT2596</name></trkpt>
<trkpt lat="53.086850" lon="-4.145885"><ele>598</ele><time>2020-09-18T11:28:19Z</time><name>PT2597</name></trkpt>
<trkpt lat="53.086841" lon="-4.145884"><ele>598</ele><time>2020-09-18T11:28:20Z</time><name>PT2598</name></trkpt>
<trkpt lat="53.086837" lon="-4.145885"><ele>598</ele><time>2020-09-18T11:28:21Z</time><name>PT2599</name></trkpt>
<trkpt lat="53.086833" lon="-4.145887"><ele>598</ele><time>2020-09-18T11:28:22Z</time><name>PT2600</name></trkpt>
<trkpt lat="53.086829" lon="-4.145884"><ele>598</ele><time>2020-09-18T11:28:23Z</time><name>PT2601</name></trkpt>
<trkpt lat="53.086824" lon="-4.145884"><ele>597</ele><time>2020-09-18T11:28:24Z</time><name>PT2602</name></trkpt>
<trkpt lat="53.086820" lon="-4.145886"><ele>597</ele><time>2020-09-18T11:28:25Z</time><name>PT2603</name></trkpt>
<trkpt lat="53.086816" lon="-4.145891"><ele>597</ele><time>2020-09-18T11:28:26Z</time><name>PT2604</name></trkpt>
<trkpt lat="53.086808" lon="-4.145899"><ele>597</ele><time>2020-09-18T11:28:27Z</time><name>PT2605</name></trkpt>
<trkpt lat="53.086801" lon="-4.145902"><ele>597</ele><time>2020-09-18T11:28:28Z</time><name>PT2606</name></trkpt>
<trkpt lat="53.086792" lon="-4.145902"><ele>596</ele><time>2020-09-18T11:28:29Z</time><name>PT2607</name></trkpt>
<trkpt lat="53.086786" lon="-4.145902"><ele>596</ele><time>2020-09-18T11:28:30Z</time><name>PT2608</name></trkpt>
<trkpt lat="53.086782" lon="-4.145904"><ele>595</ele><time>2020-09-18T11:28:31Z</time><name>PT2609</name></trkpt>
<trkpt lat="53.086776" lon="-4.145910"><ele>594</ele><time>2020-09-18T11:28:32Z</time><name>PT2610</name></trkpt>
<trkpt lat="53.086768" lon="-4.145912"><ele>594</ele><time>2020-09-18T11:28:33Z</time><name>PT2611</name></trkpt>
<trkpt lat="53.086761" lon="-4.145912"><ele>594</ele><time>2020-09-18T11:28:34Z</time><name>PT2612</name></trkpt>
<trkpt lat="53.086755" lon="-4.145908"><ele>593</ele><time>2020-09-18T11:28:35Z</time><name>PT2613</name></trkpt>
<trkpt lat="53.086743" lon="-4.145907"><ele>593</ele><time>2020-09-18T11:28:36Z</time><name>PT2614</name></trkpt>
<trkpt lat="53.086740" lon="-4.145895"><ele>593</ele><time>2020-09-18T11:28:37Z</time><name>PT2615</name></trkpt>
<trkpt lat="53.086736" lon="-4.145882"><ele>592</ele><time>2020-09-18T11:28:38Z</time><name>PT2616</name></trkpt>
<trkpt lat="53.086731" lon="-4.145874"><ele>592</ele><time>2020-09-18T11:28:39Z</time><name>PT2617</name></trkpt>
<trkpt lat="53.086726" lon="-4.145862"><ele>592</ele><time>2020-09-18T11:28:40Z</time><name>PT2618</name></trkpt>
<trkpt lat="53.086721" lon="-4.145851"><ele>591</ele><time>2020-09-18T11:28:41Z</time><name>PT2619</name></trkpt>
<trkpt lat="53.086718" lon="-4.145836"><ele>591</ele><time>2020-09-18T11:28:42Z</time><name>PT2620</name></trkpt>
<trkpt lat="53.086713" lon="-4.145823"><ele>591</ele><time>2020-09-18T11:28:43Z</time><name>PT2621</name></trkpt>
<trkpt lat="53.086705" lon="-4.145810"><ele>591</ele><time>2020-09-18T11:28:44Z</time><name>PT2622</name></trkpt>
<trkpt lat="53.086700" lon="-4.145800"><ele>591</ele><time>2020-09-18T11:28:45Z</time><name>PT2623</name></trkpt>
<trkpt lat="53.086696" lon="-4.145787"><ele>591</ele><time>2020-09-18T11:28:46Z</time><name>PT2624</name></trkpt>
<trkpt lat="53.086690" lon="-4.145775"><ele>591</ele><time>2020-09-18T11:28:47Z</time><name>PT2625</name></trkpt>
<trkpt lat="53.086681" lon="-4.145764"><ele>591</ele><time>2020-09-18T11:28:48Z</time><name>PT2626</name></trkpt>
<trkpt lat="53.086672" lon="-4.145756"><ele>591</ele><time>2020-09-18T11:28:49Z</time><name>PT2627</name></trkpt>
<trkpt lat="53.086664" lon="-4.145748"><ele>590</ele><time>2020-09-18T11:28:50Z</time><name>PT2628</name></trkpt>
<trkpt lat="53.086657" lon="-4.145740"><ele>590</ele><time>2020-09-18T11:28:51Z</time><name>PT2629</name></trkpt>
<trkpt lat="53.086650" lon="-4.145732"><ele>590</ele><time>2020-09-18T11:28:52Z</time><name>PT2630</name></trkpt>
<trkpt lat="53.086646" lon="-4.145723"><ele>590</ele><time>2020-09-18T11:28:53Z</time><name>PT2631</name></trkpt>
<trkpt lat="53.086644" lon="-4.145715"><ele>589</ele><time>2020-09-18T11:28:54Z</time><name>PT2632</name></trkpt>
<trkpt lat="53.086640" lon="-4.145702"><ele>589</ele><time>2020-09-18T11:28:55Z</time><name>PT2633</name></trkpt>
<trkpt lat="53.086633" lon="-4.145687"><ele>589</ele><time>2020-09-18T11:28:56Z</time><name>PT2634</name></trkpt>
<trkpt lat="53.086627" lon="-4.145674"><ele>588</ele><time>2020-09-18T11:28:57Z</time><name>PT2635</name></trkpt>
<trkpt lat="53.086619" lon="-4.145660"><ele>588</ele><time>2020-09-18T11:28:58Z</time><name>PT2636</name></trkpt>
<trkpt lat="53.086611" lon="-4.145647"><ele>588</ele><time>2020-09-18T11:28:59Z</time><name>PT2637</name></trkpt>
<trkpt lat="53.086601" lon="-4.145633"><ele>588</ele><time>2020-09-18T11:29:00Z</time><name>PT2638</name></trkpt>
<trkpt lat="53.086594" lon="-4.145621"><ele>588</ele><time>2020-09-18T11:29:01Z</time><name>PT2639</name></trkpt>
<trkpt lat="53.086588" lon="-4.145607"><ele>588</ele><time>2020-09-18T11:29:02Z</time><name>PT2640</name></trkpt>
<trkpt lat="53.086581" lon="-4.145592"><ele>588</ele><time>2020-09-18T11:29:03Z</time><name>PT2641</name></trkpt>
<trkpt lat="53.086573" lon="-4.145576"><ele>589</ele><time>2020-09-18T11:29:04Z</time><name>PT2642</name></trkpt>
<trkpt lat="53.086568" lon="-4.145562"><ele>589</ele><time>2020-09-18T11:29:05Z</time><name>PT2643</name></trkpt>
<trkpt lat="53.086562" lon="-4.145549"><ele>589</ele><time>2020-09-18T11:29:06Z</time><name>PT2644</name></trkpt>
<trkpt lat="53.086554" lon="-4.145534"><ele>589</ele><time>2020-09-18T11:29:07Z</time><name>PT2645</name></trkpt>
<trkpt lat="53.086546" lon="-4.145519"><ele>588</ele><time>2020-09-18T11:29:08Z</time><name>PT2646</name></trkpt>
<trkpt lat="53.086538" lon="-4.145505"><ele>588</ele><time>2020-09-18T11:29:09Z</time><name>PT2647</name></trkpt>
<trkpt lat="53.086532" lon="-4.145492"><ele>588</ele><time>2020-09-18T11:29:10Z</time><name>PT2648</name></trkpt>
<trkpt lat="53.086526" lon="-4.145480"><ele>588</ele><time>2020-09-18T11:29:11Z</time><name>PT2649</name></trkpt>
<trkpt lat="53.086521" lon="-4.145465"><ele>588</ele><time>2020-09-18T11:29:12Z</time><name>PT2650</name></trkpt>
<trkpt lat="53.086516" lon="-4.145453"><ele>588</ele><time>2020-09-18T11:29:13Z</time><name>PT2651</name></trkpt>
<trkpt lat="53.086508" lon="-4.145441"><ele>588</ele><time>2020-09-18T11:29:14Z</time><name>PT2652</name></trkpt>
<trkpt lat="53.086499" lon="-4.145429"><ele>588</ele><time>2020-09-18T11:29:15Z</time><name>PT2653</name></trkpt>
<trkpt lat="53.086490" lon="-4.145415"><ele>588</ele><time>2020-09-18T11:29:16Z</time><name>PT2654</name></trkpt>
<trkpt lat="53.086482" lon="-4.145402"><ele>587</ele><time>2020-09-18T11:29:17Z</time><name>PT2655</name></trkpt>
<trkpt lat="53.086474" lon="-4.145388"><ele>587</ele><time>2020-09-18T11:29:18Z</time><name>PT2656</name></trkpt>
<trkpt lat="53.086467" lon="-4.145374"><ele>587</ele><time>2020-09-18T11:29:19Z</time><name>PT2657</name></trkpt>
<trkpt lat="53.086460" lon="-4.145362"><ele>587</ele><time>2020-09-18T11:29:20Z</time><name>PT2658</name></trkpt>
<trkpt lat="53.086454" lon="-4.145347"><ele>587</ele><time>2020-09-18T11:29:21Z</time><name>PT2659</name></trkpt>
<trkpt lat="53.086446" lon="-4.145333"><ele>587</ele><time>2020-09-18T11:29:22Z</time><name>PT2660</name></trkpt>
<trkpt lat="53.086439" lon="-4.145318"><ele>587</ele><time>2020-09-18T11:29:23Z</time><name>PT2661</name></trkpt>
<trkpt lat="53.086433" lon="-4.145309"><ele>586</ele><time>2020-09-18T11:29:24Z</time><name>PT2662</name></trkpt>
<trkpt lat="53.086425" lon="-4.145301"><ele>587</ele><time>2020-09-18T11:29:25Z</time><name>PT2663</name></trkpt>
<trkpt lat="53.086417" lon="-4.145291"><ele>586</ele><time>2020-09-18T11:29:26Z</time><name>PT2664</name></trkpt>
<trkpt lat="53.086410" lon="-4.145280"><ele>586</ele><time>2020-09-18T11:29:27Z</time><name>PT2665</name></trkpt>
<trkpt lat="53.086404" lon="-4.145269"><ele>586</ele><time>2020-09-18T11:29:28Z</time><name>PT2666</name></trkpt>
<trkpt lat="53.086397" lon="-4.145260"><ele>586</ele><time>2020-09-18T11:29:29Z</time><name>PT2667</name></trkpt>
<trkpt lat="53.086391" lon="-4.145249"><ele>585</ele><time>2020-09-18T11:29:30Z</time><name>PT2668</name></trkpt>
<trkpt lat="53.086385" lon="-4.145239"><ele>585</ele><time>2020-09-18T11:29:31Z</time><name>PT2669</name></trkpt>
<trkpt lat="53.086377" lon="-4.145228"><ele>585</ele><time>2020-09-18T11:29:32Z</time><name>PT2670</name></trkpt>
<trkpt lat="53.086369" lon="-4.145219"><ele>585</ele><time>2020-09-18T11:29:33Z</time><name>PT2671</name></trkpt>
<trkpt lat="53.086359" lon="-4.145212"><ele>584</ele><time>2020-09-18T11:29:34Z</time><name>PT2672</name></trkpt>
<trkpt lat="53.086349" lon="-4.145202"><ele>584</ele><time>2020-09-18T11:29:35Z</time><name>PT2673</name></trkpt>
<trkpt lat="53.086340" lon="-4.145188"><ele>584</ele><time>2020-09-18T11:29:36Z</time><name>PT2674</name></trkpt>
<trkpt lat="53.086334" lon="-4.145178"><ele>584</ele><time>2020-09-18T11:29:37Z</time><name>PT2675</name></trkpt>
<trkpt lat="53.086326" lon="-4.145167"><ele>583</ele><time>2020-09-18T11:29:38Z</time><name>PT2676</name></trkpt>
<trkpt lat="53.086318" lon="-4.145156"><ele>583</ele><time>2020-09-18T11:29:39Z</time><name>PT2677</name></trkpt>
<trkpt lat="53.086311" lon="-4.145143"><ele>582</ele><time>2020-09-18T11:29:40Z</time><name>PT2678</name></trkpt>
<trkpt lat="53.086305" lon="-4.145131"><ele>582</ele><time>2020-09-18T11:29:41Z</time><name>PT2679</name></trkpt>
<trkpt lat="53.086301" lon="-4.145118"><ele>581</ele><time>2020-09-18T11:29:42Z</time><name>PT2680</name></trkpt>
<trkpt lat="53.086296" lon="-4.145109"><ele>581</ele><time>2020-09-18T11:29:43Z</time><name>PT2681</name></trkpt>
<trkpt lat="53.086291" lon="-4.145098"><ele>581</ele><time>2020-09-18T11:29:44Z</time><name>PT2682</name></trkpt>
<trkpt lat="53.086286" lon="-4.145087"><ele>580</ele><time>2020-09-18T11:29:45Z</time><name>PT2683</name></trkpt>
<trkpt lat="53.086281" lon="-4.145077"><ele>580</ele><time>2020-09-18T11:29:46Z</time><name>PT2684</name></trkpt>
<trkpt lat="53.086275" lon="-4.145068"><ele>580</ele><time>2020-09-18T11:29:47Z</time><name>PT2685</name></trkpt>
<trkpt lat="53.086269" lon="-4.145059"><ele>580</ele><time>2020-09-18T11:29:48Z</time><name>PT2686</name></trkpt>
<trkpt lat="53.086264" lon="-4.145053"><ele>580</ele><time>2020-09-18T11:29:49Z</time><name>PT2687</name></trkpt>
<trkpt lat="53.086257" lon="-4.145047"><ele>579</ele><time>2020-09-18T11:29:50Z</time><name>PT2688</name></trkpt>
<trkpt lat="53.086251" lon="-4.145039"><ele>579</ele><time>2020-09-18T11:29:51Z</time><name>PT2689</name></trkpt>
<trkpt lat="53.086246" lon="-4.145031"><ele>579</ele><time>2020-09-18T11:29:52Z</time><name>PT2690</name></trkpt>
<trkpt lat="53.086239" lon="-4.145026"><ele>579</ele><time>2020-09-18T11:29:53Z</time><name>PT2691</name></trkpt>
<trkpt lat="53.086232" lon="-4.145022"><ele>579</ele><time>2020-09-18T11:29:54Z</time><name>PT2692</name></trkpt>
<trkpt lat="53.086224" lon="-4.145016"><ele>579</ele><time>2020-09-18T11:29:55Z</time><name>PT2693</name></trkpt>
<trkpt lat="53.086217" lon="-4.145010"><ele>579</ele><time>2020-09-18T11:29:56Z</time><name>PT2694</name></trkpt>
<trkpt lat="53.086210" lon="-4.145003"><ele>578</ele><time>2020-09-18T11:29:57Z</time><name>PT2695</name></trkpt>
<trkpt lat="53.086204" lon="-4.144996"><ele>578</ele><time>2020-09-18T11:29:58Z</time><name>PT2696</name></trkpt>
<trkpt lat="53.086198" lon="-4.144990"><ele>577</ele><time>2020-09-18T11:29:59Z</time><name>PT2697</name></trkpt>
<trkpt lat="53.086194" lon="-4.144984"><ele>577</ele><time>2020-09-18T11:30:00Z</time><name>PT2698</name></trkpt>
<trkpt lat="53.086188" lon="-4.144981"><ele>576</ele><time>2020-09-18T11:30:01Z</time><name>PT2699</name></trkpt>
<trkpt lat="53.086183" lon="-4.144976"><ele>576</ele><time>2020-09-18T11:30:02Z</time><name>PT2700</name></trkpt>
<trkpt lat="53.086180" lon="-4.144968"><ele>576</ele><time>2020-09-18T11:30:03Z</time><name>PT2701</name></trkpt>
<trkpt lat="53.086176" lon="-4.144959"><ele>575</ele><time>2020-09-18T11:30:04Z</time><name>PT2702</name></trkpt>
<trkpt lat="53.086172" lon="-4.144951"><ele>575</ele><time>2020-09-18T11:30:05Z</time><name>PT2703</name></trkpt>
<trkpt lat="53.086168" lon="-4.144947"><ele>574</ele><time>2020-09-18T11:30:06Z</time><name>PT2704</name></trkpt>
<trkpt lat="53.086162" lon="-4.144942"><ele>574</ele><time>2020-09-18T11:30:07Z</time><name>PT2705</name></trkpt>
<trkpt lat="53.086158" lon="-4.144937"><ele>574</ele><time>2020-09-18T11:30:08Z</time><name>PT2706</name></trkpt>
<trkpt lat="53.086153" lon="-4.144927"><ele>573</ele><time>2020-09-18T11:30:09Z</time><name>PT2707</name></trkpt>
<trkpt lat="53.086148" lon="-4.144915"><ele>573</ele><time>2020-09-18T11:30:10Z</time><name>PT2708</name></trkpt>
<trkpt lat="53.086140" lon="-4.144905"><ele>573</ele><time>2020-09-18T11:30:11Z</time><name>PT2709</name></trkpt>
<trkpt lat="53.086135" lon="-4.144895"><ele>573</ele><time>2020-09-18T11:30:12Z</time><name>PT2710</name></trkpt>
<trkpt lat="53.086129" lon="-4.144885"><ele>573</ele><time>2020-09-18T11:30:13Z</time><name>PT2711</name></trkpt>
<trkpt lat="53.086123" lon="-4.144878"><ele>572</ele><time>2020-09-18T11:30:14Z</time><name>PT2712</name></trkpt>
<trkpt lat="53.086117" lon="-4.144867"><ele>572</ele><time>2020-09-18T11:30:15Z</time><name>PT2713</name></trkpt>
<trkpt lat="53.086111" lon="-4.144855"><ele>571</ele><time>2020-09-18T11:30:16Z</time><name>PT2714</name></trkpt>
<trkpt lat="53.086109" lon="-4.144844"><ele>571</ele><time>2020-09-18T11:30:17Z</time><name>PT2715</name></trkpt>
<trkpt lat="53.086108" lon="-4.144837"><ele>571</ele><time>2020-09-18T11:30:18Z</time><name>PT2716</name></trkpt>
<trkpt lat="53.086106" lon="-4.144826"><ele>571</ele><time>2020-09-18T11:30:19Z</time><name>PT2717</name></trkpt>
<trkpt lat="53.086102" lon="-4.144816"><ele>571</ele><time>2020-09-18T11:30:20Z</time><name>PT2718</name></trkpt>
<trkpt lat="53.086098" lon="-4.144808"><ele>570</ele><time>2020-09-18T11:30:21Z</time><name>PT2719</name></trkpt>
<trkpt lat="53.086095" lon="-4.144797"><ele>570</ele><time>2020-09-18T11:30:22Z</time><name>PT2720</name></trkpt>
<trkpt lat="53.086090" lon="-4.144788"><ele>570</ele><time>2020-09-18T11:30:23Z</time><name>PT2721</name></trkpt>
<trkpt lat="53.086085" lon="-4.144780"><ele>570</ele><time>2020-09-18T11:30:24Z</time><name>PT2722</name></trkpt>
<trkpt lat="53.086081" lon="-4.144772"><ele>569</ele><time>2020-09-18T11:30:25Z</time><name>PT2723</name></trkpt>
<trkpt lat="53.086077" lon="-4.144764"><ele>569</ele><time>2020-09-18T11:30:26Z</time><name>PT2724</name></trkpt>
<trkpt lat="53.086075" lon="-4.144756"><ele>569</ele><time>2020-09-18T11:30:27Z</time><name>PT2725</name></trkpt>
<trkpt lat="53.086072" lon="-4.144746"><ele>568</ele><time>2020-09-18T11:30:28Z</time><name>PT2726</name></trkpt>
<trkpt lat="53.086068" lon="-4.144737"><ele>568</ele><time>2020-09-18T11:30:29Z</time><name>PT2727</name></trkpt>
<trkpt lat="53.086064" lon="-4.144729"><ele>568</ele><time>2020-09-18T11:30:30Z</time><name>PT2728</name></trkpt>
<trkpt lat="53.086058" lon="-4.144723"><ele>568</ele><time>2020-09-18T11:30:31Z</time><name>PT2729</name></trkpt>
<trkpt lat="53.086052" lon="-4.144713"><ele>568</ele><time>2020-09-18T11:30:32Z</time><name>PT2730</name></trkpt>
<trkpt lat="53.086047" lon="-4.144707"><ele>567</ele><time>2020-09-18T11:30:33Z</time><name>PT2731</name></trkpt>
<trkpt lat="53.086042" lon="-4.144703"><ele>567</ele><time>2020-09-18T11:30:34Z</time><name>PT2732</name></trkpt>
<trkpt lat="53.086035" lon="-4.144699"><ele>567</ele><time>2020-09-18T11:30:35Z</time><name>PT2733</name></trkpt>
<trkpt lat="53.086028" lon="-4.144693"><ele>567</ele><time>2020-09-18T11:30:36Z</time><name>PT2734</name></trkpt>
<trkpt lat="53.086023" lon="-4.144689"><ele>567</ele><time>2020-09-18T11:30:37Z</time><name>PT2735</name></trkpt>
<trkpt lat="53.086017" lon="-4.144681"><ele>567</ele><time>2020-09-18T11:30:38Z</time><name>PT2736</name></trkpt>
<trkpt lat="53.086012" lon="-4.144675"><ele>566</ele><time>2020-09-18T11:30:39Z</time><name>PT2737</name></trkpt>
<trkpt lat="53.086008" lon="-4.144668"><ele>566</ele><time>2020-09-18T11:30:40Z</time><name>PT2738</name></trkpt>
<trkpt lat="53.086007" lon="-4.144661"><ele>566</ele><time>2020-09-18T11:30:41Z</time><name>PT2739</name></trkpt>
<trkpt lat="53.086004" lon="-4.144653"><ele>565</ele><time>2020-09-18T11:30:42Z</time><name>PT2740</name></trkpt>
<trkpt lat="53.086002" lon="-4.144646"><ele>565</ele><time>2020-09-18T11:30:43Z</time><name>PT2741</name></trkpt>
<trkpt lat="53.086000" lon="-4.144639"><ele>564</ele><time>2020-09-18T11:30:44Z</time><name>PT2742</name></trkpt>
<trkpt lat="53.085999" lon="-4.144630"><ele>564</ele><time>2020-09-18T11:30:45Z</time><name>PT2743</name></trkpt>
<trkpt lat="53.085998" lon="-4.144622"><ele>564</ele><time>2020-09-18T11:30:46Z</time><name>PT2744</name></trkpt>
<trkpt lat="53.085997" lon="-4.144613"><ele>564</ele><time>2020-09-18T11:30:47Z</time><name>PT2745</name></trkpt>
<trkpt lat="53.085993" lon="-4.144605"><ele>563</ele><time>2020-09-18T11:30:48Z</time><name>PT2746</name></trkpt>
<trkpt lat="53.085987" lon="-4.144600"><ele>564</ele><time>2020-09-18T11:30:49Z</time><name>PT2747</name></trkpt>
<trkpt lat="53.085980" lon="-4.144596"><ele>563</ele><time>2020-09-18T11:30:50Z</time><name>PT2748</name></trkpt>
<trkpt lat="53.085976" lon="-4.144589"><ele>563</ele><time>2020-09-18T11:30:51Z</time><name>PT2749</name></trkpt>
<trkpt lat="53.085973" lon="-4.144584"><ele>563</ele><time>2020-09-18T11:30:52Z</time><name>PT2750</name></trkpt>
<trkpt lat="53.085960" lon="-4.144562"><ele>562</ele><time>2020-09-18T11:30:56Z</time><name>PT2751</name></trkpt>
<trkpt lat="53.085948" lon="-4.144527"><ele>561</ele><time>2020-09-18T11:31:00Z</time><name>PT2752</name></trkpt>
<trkpt lat="53.085939" lon="-4.144504"><ele>560</ele><time>2020-09-18T11:31:03Z</time><name>PT2753</name></trkpt>
<trkpt lat="53.085933" lon="-4.144466"><ele>558</ele><time>2020-09-18T11:31:07Z</time><name>PT2754</name></trkpt>
<trkpt lat="53.085924" lon="-4.144432"><ele>558</ele><time>2020-09-18T11:31:11Z</time><name>PT2755</name></trkpt>
<trkpt lat="53.085921" lon="-4.144399"><ele>557</ele><time>2020-09-18T11:31:14Z</time><name>PT2756</name></trkpt>
<trkpt lat="53.085918" lon="-4.144364"><ele>557</ele><time>2020-09-18T11:31:17Z</time><name>PT2757</name></trkpt>
<trkpt lat="53.085914" lon="-4.144315"><ele>556</ele><time>2020-09-18T11:31:21Z</time><name>PT2758</name></trkpt>
<trkpt lat="53.085905" lon="-4.144280"><ele>555</ele><time>2020-09-18T11:31:24Z</time><name>PT2759</name></trkpt>
<trkpt lat="53.085891" lon="-4.144243"><ele>554</ele><time>2020-09-18T11:31:28Z</time><name>PT2760</name></trkpt>
<trkpt lat="53.085881" lon="-4.144220"><ele>553</ele><time>2020-09-18T11:31:31Z</time><name>PT2761</name></trkpt>
<trkpt lat="53.085860" lon="-4.144204"><ele>553</ele><time>2020-09-18T11:31:34Z</time><name>PT2762</name></trkpt>
<trkpt lat="53.085844" lon="-4.144173"><ele>551</ele><time>2020-09-18T11:31:38Z</time><name>PT2763</name></trkpt>
<trkpt lat="53.085837" lon="-4.144136"><ele>550</ele><time>2020-09-18T11:31:42Z</time><name>PT2764</name></trkpt>
<trkpt lat="53.085824" lon="-4.144102"><ele>549</ele><time>2020-09-18T11:31:46Z</time><name>PT2765</name></trkpt>
<trkpt lat="53.085815" lon="-4.144080"><ele>548</ele><time>2020-09-18T11:31:49Z</time><name>PT2766</name></trkpt>
<trkpt lat="53.085797" lon="-4.144039"><ele>547</ele><time>2020-09-18T11:31:53Z</time><name>PT2767</name></trkpt>
<trkpt lat="53.085779" lon="-4.144013"><ele>547</ele><time>2020-09-18T11:31:56Z</time><name>PT2768</name></trkpt>
<trkpt lat="53.085769" lon="-4.143975"><ele>545</ele><time>2020-09-18T11:32:00Z</time><name>PT2769</name></trkpt>
<trkpt lat="53.085755" lon="-4.143946"><ele>544</ele><time>2020-09-18T11:32:03Z</time><name>PT2770</name></trkpt>
<trkpt lat="53.085734" lon="-4.143910"><ele>543</ele><time>2020-09-18T11:32:07Z</time><name>PT2771</name></trkpt>
<trkpt lat="53.085721" lon="-4.143880"><ele>541</ele><time>2020-09-18T11:32:10Z</time><name>PT2772</name></trkpt>
<trkpt lat="53.085706" lon="-4.143847"><ele>541</ele><time>2020-09-18T11:32:13Z</time><name>PT2773</name></trkpt>
<trkpt lat="53.085689" lon="-4.143816"><ele>540</ele><time>2020-09-18T11:32:16Z</time><name>PT2774</name></trkpt>
<trkpt lat="53.085676" lon="-4.143786"><ele>539</ele><time>2020-09-18T11:32:19Z</time><name>PT2775</name></trkpt>
<trkpt lat="53.085657" lon="-4.143751"><ele>538</ele><time>2020-09-18T11:32:23Z</time><name>PT2776</name></trkpt>
<trkpt lat="53.085642" lon="-4.143717"><ele>537</ele><time>2020-09-18T11:32:26Z</time><name>PT2777</name></trkpt>
<trkpt lat="53.085623" lon="-4.143682"><ele>536</ele><time>2020-09-18T11:32:30Z</time><name>PT2778</name></trkpt>
<trkpt lat="53.085610" lon="-4.143646"><ele>535</ele><time>2020-09-18T11:32:33Z</time><name>PT2779</name></trkpt>
<trkpt lat="53.085585" lon="-4.143600"><ele>534</ele><time>2020-09-18T11:32:37Z</time><name>PT2780</name></trkpt>
<trkpt lat="53.085571" lon="-4.143561"><ele>533</ele><time>2020-09-18T11:32:40Z</time><name>PT2781</name></trkpt>
<trkpt lat="53.085549" lon="-4.143516"><ele>533</ele><time>2020-09-18T11:32:44Z</time><name>PT2782</name></trkpt>
<trkpt lat="53.085535" lon="-4.143476"><ele>533</ele><time>2020-09-18T11:32:47Z</time><name>PT2783</name></trkpt>
<trkpt lat="53.085516" lon="-4.143432"><ele>531</ele><time>2020-09-18T11:32:51Z</time><name>PT2784</name></trkpt>
<trkpt lat="53.085501" lon="-4.143401"><ele>531</ele><time>2020-09-18T11:32:54Z</time><name>PT2785</name></trkpt>
<trkpt lat="53.085484" lon="-4.143368"><ele>530</ele><time>2020-09-18T11:32:57Z</time><name>PT2786</name></trkpt>
<trkpt lat="53.085469" lon="-4.143327"><ele>530</ele><time>2020-09-18T11:33:00Z</time><name>PT2787</name></trkpt>
<trkpt lat="53.085450" lon="-4.143271"><ele>529</ele><time>2020-09-18T11:33:04Z</time><name>PT2788</name></trkpt>
<trkpt lat="53.085442" lon="-4.143251"><ele>528</ele><time>2020-09-18T11:33:08Z</time><name>PT2789</name></trkpt>
<trkpt lat="53.085429" lon="-4.143214"><ele>528</ele><time>2020-09-18T11:33:11Z</time><name>PT2790</name></trkpt>
<trkpt lat="53.085414" lon="-4.143164"><ele>526</ele><time>2020-09-18T11:33:15Z</time><name>PT2791</name></trkpt>
<trkpt lat="53.085406" lon="-4.143122"><ele>525</ele><time>2020-09-18T11:33:18Z</time><name>PT2792</name></trkpt>
<trkpt lat="53.085391" lon="-4.143090"><ele>524</ele><time>2020-09-18T11:33:22Z</time><name>PT2793</name></trkpt>
<trkpt lat="53.085381" lon="-4.143063"><ele>524</ele><time>2020-09-18T11:33:25Z</time><name>PT2794</name></trkpt>
<trkpt lat="53.085360" lon="-4.143002"><ele>523</ele><time>2020-09-18T11:33:29Z</time><name>PT2795</name></trkpt>
<trkpt lat="53.085347" lon="-4.142953"><ele>522</ele><time>2020-09-18T11:33:33Z</time><name>PT2796</name></trkpt>
<trkpt lat="53.085332" lon="-4.142910"><ele>522</ele><time>2020-09-18T11:33:36Z</time><name>PT2797</name></trkpt>
<trkpt lat="53.085305" lon="-4.142868"><ele>521</ele><time>2020-09-18T11:33:40Z</time><name>PT2798</name></trkpt>
<trkpt lat="53.085291" lon="-4.142845"><ele>520</ele><time>2020-09-18T11:33:43Z</time><name>PT2799</name></trkpt>
<trkpt lat="53.085284" lon="-4.142804"><ele>519</ele><time>2020-09-18T11:33:47Z</time><name>PT2800</name></trkpt>
<trkpt lat="53.085272" lon="-4.142765"><ele>517</ele><time>2020-09-18T11:33:51Z</time><name>PT2801</name></trkpt>
<trkpt lat="53.085256" lon="-4.142720"><ele>516</ele><time>2020-09-18T11:33:55Z</time><name>PT2802</name></trkpt>
<trkpt lat="53.085243" lon="-4.142685"><ele>516</ele><time>2020-09-18T11:33:58Z</time><name>PT2803</name></trkpt>
<trkpt lat="53.085229" lon="-4.142634"><ele>515</ele><time>2020-09-18T11:34:02Z</time><name>PT2804</name></trkpt>
<trkpt lat="53.085217" lon="-4.142581"><ele>515</ele><time>2020-09-18T11:34:05Z</time><name>PT2805</name></trkpt>
<trkpt lat="53.085206" lon="-4.142526"><ele>515</ele><time>2020-09-18T11:34:08Z</time><name>PT2806</name></trkpt>
<trkpt lat="53.085180" lon="-4.142461"><ele>514</ele><time>2020-09-18T11:34:12Z</time><name>PT2807</name></trkpt>
<trkpt lat="53.085162" lon="-4.142412"><ele>514</ele><time>2020-09-18T11:34:15Z</time><name>PT2808</name></trkpt>
<trkpt lat="53.085138" lon="-4.142358"><ele>514</ele><time>2020-09-18T11:34:19Z</time><name>PT2809</name></trkpt>
<trkpt lat="53.085126" lon="-4.142306"><ele>514</ele><time>2020-09-18T11:34:23Z</time><name>PT2810</name></trkpt>
<trkpt lat="53.085127" lon="-4.142301"><ele>514</ele><time>2020-09-18T11:34:26Z</time><name>PT2811</name></trkpt>
<trkpt lat="53.085130" lon="-4.142303"><ele>514</ele><time>2020-09-18T11:34:34Z</time><name>PT2812</name></trkpt>
<trkpt lat="53.085127" lon="-4.142297"><ele>513</ele><time>2020-09-18T11:34:37Z</time><name>PT2813</name></trkpt>
<trkpt lat="53.085127" lon="-4.142296"><ele>513</ele><time>2020-09-18T11:34:40Z</time><name>PT2814</name></trkpt>
<trkpt lat="53.085114" lon="-4.142244"><ele>514</ele><time>2020-09-18T11:34:44Z</time><name>PT2815</name></trkpt>
<trkpt lat="53.085100" lon="-4.142206"><ele>514</ele><time>2020-09-18T11:34:48Z</time><name>PT2816</name></trkpt>
<trkpt lat="53.085094" lon="-4.142157"><ele>516</ele><time>2020-09-18T11:34:51Z</time><name>PT2817</name></trkpt>
<trkpt lat="53.085090" lon="-4.142113"><ele>517</ele><time>2020-09-18T11:34:55Z</time><name>PT2818</name></trkpt>
<trkpt lat="53.085085" lon="-4.142073"><ele>517</ele><time>2020-09-18T11:34:58Z</time><name>PT2819</name></trkpt>
<trkpt lat="53.085076" lon="-4.142014"><ele>517</ele><time>2020-09-18T11:35:02Z</time><name>PT2820</name></trkpt>
<trkpt lat="53.085073" lon="-4.141962"><ele>518</ele><time>2020-09-18T11:35:05Z</time><name>PT2821</name></trkpt>
<trkpt lat="53.085066" lon="-4.141931"><ele>519</ele><time>2020-09-18T11:35:08Z</time><name>PT2822</name></trkpt>
<trkpt lat="53.085058" lon="-4.141882"><ele>521</ele><time>2020-09-18T11:35:12Z</time><name>PT2823</name></trkpt>
<trkpt lat="53.085054" lon="-4.141846"><ele>521</ele><time>2020-09-18T11:35:15Z</time><name>PT2824</name></trkpt>
<trkpt lat="53.085052" lon="-4.141808"><ele>521</ele><time>2020-09-18T11:35:18Z</time><name>PT2825</name></trkpt>
<trkpt lat="53.085043" lon="-4.141762"><ele>522</ele><time>2020-09-18T11:35:22Z</time><name>PT2826</name></trkpt>
<trkpt lat="53.085034" lon="-4.141725"><ele>523</ele><time>2020-09-18T11:35:25Z</time><name>PT2827</name></trkpt>
<trkpt lat="53.085025" lon="-4.141678"><ele>523</ele><time>2020-09-18T11:35:29Z</time><name>PT2828</name></trkpt>
<trkpt lat="53.085015" lon="-4.141625"><ele>523</ele><time>2020-09-18T11:35:33Z</time><name>PT2829</name></trkpt>
<trkpt lat="53.085002" lon="-4.141571"><ele>524</ele><time>2020-09-18T11:35:37Z</time><name>PT2830</name></trkpt>
<trkpt lat="53.084991" lon="-4.141517"><ele>525</ele><time>2020-09-18T11:35:41Z</time><name>PT2831</name></trkpt>
<trkpt lat="53.084987" lon="-4.141473"><ele>526</ele><time>2020-09-18T11:35:45Z</time><name>PT2832</name></trkpt>
<trkpt lat="53.084982" lon="-4.141439"><ele>527</ele><time>2020-09-18T11:35:48Z</time><name>PT2833</name></trkpt>
<trkpt lat="53.084977" lon="-4.141405"><ele>528</ele><time>2020-09-18T11:35:52Z</time><name>PT2834</name></trkpt>
<trkpt lat="53.084963" lon="-4.141369"><ele>528</ele><time>2020-09-18T11:35:56Z</time><name>PT2835</name></trkpt>
<trkpt lat="53.084958" lon="-4.141317"><ele>528</ele><time>2020-09-18T11:36:00Z</time><name>PT2836</name></trkpt>
<trkpt lat="53.084956" lon="-4.141280"><ele>529</ele><time>2020-09-18T11:36:03Z</time><name>PT2837</name></trkpt>
<trkpt lat="53.084948" lon="-4.141240"><ele>530</ele><time>2020-09-18T11:36:07Z</time><name>PT2838</name></trkpt>
<trkpt lat="53.084942" lon="-4.141205"><ele>531</ele><time>2020-09-18T11:36:10Z</time><name>PT2839</name></trkpt>
<trkpt lat="53.084938" lon="-4.141171"><ele>531</ele><time>2020-09-18T11:36:13Z</time><name>PT2840</name></trkpt>
<trkpt lat="53.084937" lon="-4.141143"><ele>530</ele><time>2020-09-18T11:36:16Z</time><name>PT2841</name></trkpt>
<trkpt lat="53.084935" lon="-4.141093"><ele>531</ele><time>2020-09-18T11:36:20Z</time><name>PT2842</name></trkpt>
<trkpt lat="53.084927" lon="-4.141049"><ele>531</ele><time>2020-09-18T11:36:24Z</time><name>PT2843</name></trkpt>
<trkpt lat="53.084914" lon="-4.141006"><ele>532</ele><time>2020-09-18T11:36:28Z</time><name>PT2844</name></trkpt>
<trkpt lat="53.084907" lon="-4.140978"><ele>533</ele><time>2020-09-18T11:36:31Z</time><name>PT2845</name></trkpt>
<trkpt lat="53.084899" lon="-4.140938"><ele>534</ele><time>2020-09-18T11:36:35Z</time><name>PT2846</name></trkpt>
<trkpt lat="53.084904" lon="-4.140895"><ele>535</ele><time>2020-09-18T11:36:39Z</time><name>PT2847</name></trkpt>
<trkpt lat="53.084906" lon="-4.140865"><ele>535</ele><time>2020-09-18T11:36:42Z</time><name>PT2848</name></trkpt>
<trkpt lat="53.084898" lon="-4.140830"><ele>536</ele><time>2020-09-18T11:36:45Z</time><name>PT2849</name></trkpt>
<trkpt lat="53.084883" lon="-4.140782"><ele>536</ele><time>2020-09-18T11:36:49Z</time><name>PT2850</name></trkpt>
<trkpt lat="53.084874" lon="-4.140750"><ele>538</ele><time>2020-09-18T11:36:52Z</time><name>PT2851</name></trkpt>
<trkpt lat="53.084865" lon="-4.140713"><ele>539</ele><time>2020-09-18T11:36:56Z</time><name>PT2852</name></trkpt>
<trkpt lat="53.084858" lon="-4.140677"><ele>541</ele><time>2020-09-18T11:37:00Z</time><name>PT2853</name></trkpt>
<trkpt lat="53.084857" lon="-4.140637"><ele>542</ele><time>2020-09-18T11:37:04Z</time><name>PT2854</name></trkpt>
<trkpt lat="53.084855" lon="-4.140595"><ele>544</ele><time>2020-09-18T11:37:08Z</time><name>PT2855</name></trkpt>
<trkpt lat="53.084849" lon="-4.140570"><ele>543</ele><time>2020-09-18T11:37:11Z</time><name>PT2856</name></trkpt>
<trkpt lat="53.084845" lon="-4.140536"><ele>544</ele><time>2020-09-18T11:37:15Z</time><name>PT2857</name></trkpt>
<trkpt lat="53.084842" lon="-4.140503"><ele>545</ele><time>2020-09-18T11:37:19Z</time><name>PT2858</name></trkpt>
<trkpt lat="53.084837" lon="-4.140472"><ele>545</ele><time>2020-09-18T11:37:23Z</time><name>PT2859</name></trkpt>
<trkpt lat="53.084831" lon="-4.140440"><ele>546</ele><time>2020-09-18T11:37:27Z</time><name>PT2860</name></trkpt>
<trkpt lat="53.084831" lon="-4.140416"><ele>546</ele><time>2020-09-18T11:37:30Z</time><name>PT2861</name></trkpt>
<trkpt lat="53.084833" lon="-4.140389"><ele>546</ele><time>2020-09-18T11:37:33Z</time><name>PT2862</name></trkpt>
<trkpt lat="53.084833" lon="-4.140360"><ele>546</ele><time>2020-09-18T11:37:36Z</time><name>PT2863</name></trkpt>
<trkpt lat="53.084828" lon="-4.140326"><ele>547</ele><time>2020-09-18T11:37:40Z</time><name>PT2864</name></trkpt>
<trkpt lat="53.084827" lon="-4.140293"><ele>548</ele><time>2020-09-18T11:37:44Z</time><name>PT2865</name></trkpt>
<trkpt lat="53.084827" lon="-4.140265"><ele>548</ele><time>2020-09-18T11:37:47Z</time><name>PT2866</name></trkpt>
<trkpt lat="53.084828" lon="-4.140215"><ele>549</ele><time>2020-09-18T11:37:51Z</time><name>PT2867</name></trkpt>
<trkpt lat="53.084828" lon="-4.140174"><ele>549</ele><time>2020-09-18T11:37:54Z</time><name>PT2868</name></trkpt>
<trkpt lat="53.084827" lon="-4.140125"><ele>550</ele><time>2020-09-18T11:37:58Z</time><name>PT2869</name></trkpt>
<trkpt lat="53.084832" lon="-4.140077"><ele>552</ele><time>2020-09-18T11:38:01Z</time><name>PT2870</name></trkpt>
<trkpt lat="53.084841" lon="-4.140044"><ele>553</ele><time>2020-09-18T11:38:04Z</time><name>PT2871</name></trkpt>
<trkpt lat="53.084858" lon="-4.140004"><ele>554</ele><time>2020-09-18T11:38:08Z</time><name>PT2872</name></trkpt>
<trkpt lat="53.084866" lon="-4.139974"><ele>555</ele><time>2020-09-18T11:38:11Z</time><name>PT2873</name></trkpt>
<trkpt lat="53.084869" lon="-4.139945"><ele>555</ele><time>2020-09-18T11:38:14Z</time><name>PT2874</name></trkpt>
<trkpt lat="53.084874" lon="-4.139905"><ele>556</ele><time>2020-09-18T11:38:18Z</time><name>PT2875</name></trkpt>
<trkpt lat="53.084875" lon="-4.139885"><ele>557</ele><time>2020-09-18T11:38:21Z</time><name>PT2876</name></trkpt>
<trkpt lat="53.084876" lon="-4.139873"><ele>557</ele><time>2020-09-18T11:38:25Z</time><name>PT2877</name></trkpt>
<trkpt lat="53.084865" lon="-4.139827"><ele>558</ele><time>2020-09-18T11:38:53Z</time><name>PT2878</name></trkpt>
<trkpt lat="53.084878" lon="-4.139746"><ele>560</ele><time>2020-09-18T11:38:56Z</time><name>PT2879</name></trkpt>
<trkpt lat="53.084892" lon="-4.139643"><ele>563</ele><time>2020-09-18T11:39:00Z</time><name>PT2880</name></trkpt>
<trkpt lat="53.084890" lon="-4.139592"><ele>564</ele><time>2020-09-18T11:39:03Z</time><name>PT2881</name></trkpt>
<trkpt lat="53.084889" lon="-4.139527"><ele>565</ele><time>2020-09-18T11:39:07Z</time><name>PT2882</name></trkpt>
<trkpt lat="53.084892" lon="-4.139486"><ele>566</ele><time>2020-09-18T11:39:10Z</time><name>PT2883</name></trkpt>
<trkpt lat="53.084894" lon="-4.139438"><ele>567</ele><time>2020-09-18T11:39:14Z</time><name>PT2884</name></trkpt>
<trkpt lat="53.084894" lon="-4.139424"><ele>567</ele><time>2020-09-18T11:39:17Z</time><name>PT2885</name></trkpt>
<trkpt lat="53.084894" lon="-4.139410"><ele>568</ele><time>2020-09-18T11:39:20Z</time><name>PT2886</name></trkpt>
<trkpt lat="53.084892" lon="-4.139407"><ele>568</ele><time>2020-09-18T11:39:24Z</time><name>PT2887</name></trkpt>
<trkpt lat="53.084896" lon="-4.139342"><ele>569</ele><time>2020-09-18T11:39:28Z</time><name>PT2888</name></trkpt>
<trkpt lat="53.084902" lon="-4.139278"><ele>570</ele><time>2020-09-18T11:39:32Z</time><name>PT2889</name></trkpt>
<trkpt lat="53.084909" lon="-4.139237"><ele>571</ele><time>2020-09-18T11:39:35Z</time><name>PT2890</name></trkpt>
<trkpt lat="53.084913" lon="-4.139194"><ele>571</ele><time>2020-09-18T11:39:38Z</time><name>PT2891</name></trkpt>
<trkpt lat="53.084917" lon="-4.139154"><ele>572</ele><time>2020-09-18T11:39:41Z</time><name>PT2892</name></trkpt>
<trkpt lat="53.084917" lon="-4.139100"><ele>572</ele><time>2020-09-18T11:39:45Z</time><name>PT2893</name></trkpt>
<trkpt lat="53.084915" lon="-4.139047"><ele>572</ele><time>2020-09-18T11:39:49Z</time><name>PT2894</name></trkpt>
<trkpt lat="53.084912" lon="-4.139009"><ele>573</ele><time>2020-09-18T11:39:52Z</time><name>PT2895</name></trkpt>
<trkpt lat="53.084905" lon="-4.138971"><ele>573</ele><time>2020-09-18T11:39:55Z</time><name>PT2896</name></trkpt>
<trkpt lat="53.084905" lon="-4.138926"><ele>573</ele><time>2020-09-18T11:39:58Z</time><name>PT2897</name></trkpt>
<trkpt lat="53.084913" lon="-4.138864"><ele>573</ele><time>2020-09-18T11:40:02Z</time><name>PT2898</name></trkpt>
<trkpt lat="53.084912" lon="-4.138823"><ele>574</ele><time>2020-09-18T11:40:05Z</time><name>PT2899</name></trkpt>
<trkpt lat="53.084916" lon="-4.138780"><ele>575</ele><time>2020-09-18T11:40:08Z</time><name>PT2900</name></trkpt>
<trkpt lat="53.084921" lon="-4.138728"><ele>575</ele><time>2020-09-18T11:40:12Z</time><name>PT2901</name></trkpt>
<trkpt lat="53.084920" lon="-4.138678"><ele>575</ele><time>2020-09-18T11:40:16Z</time><name>PT2902</name></trkpt>
<trkpt lat="53.084923" lon="-4.138642"><ele>575</ele><time>2020-09-18T11:40:19Z</time><name>PT2903</name></trkpt>
<trkpt lat="53.084925" lon="-4.138591"><ele>575</ele><time>2020-09-18T11:40:23Z</time><name>PT2904</name></trkpt>
<trkpt lat="53.084929" lon="-4.138548"><ele>575</ele><time>2020-09-18T11:40:27Z</time><name>PT2905</name></trkpt>
<trkpt lat="53.084929" lon="-4.138494"><ele>575</ele><time>2020-09-18T11:40:31Z</time><name>PT2906</name></trkpt>
<trkpt lat="53.084930" lon="-4.138453"><ele>575</ele><time>2020-09-18T11:40:34Z</time><name>PT2907</name></trkpt>
<trkpt lat="53.084931" lon="-4.138412"><ele>576</ele><time>2020-09-18T11:40:37Z</time><name>PT2908</name></trkpt>
<trkpt lat="53.084934" lon="-4.138371"><ele>576</ele><time>2020-09-18T11:40:41Z</time><name>PT2909</name></trkpt>
<trkpt lat="53.084935" lon="-4.138340"><ele>576</ele><time>2020-09-18T11:40:44Z</time><name>PT2910</name></trkpt>
<trkpt lat="53.084942" lon="-4.138286"><ele>577</ele><time>2020-09-18T11:40:48Z</time><name>PT2911</name></trkpt>
<trkpt lat="53.084946" lon="-4.138238"><ele>578</ele><time>2020-09-18T11:40:52Z</time><name>PT2912</name></trkpt>
<trkpt lat="53.084947" lon="-4.138202"><ele>578</ele><time>2020-09-18T11:40:55Z</time><name>PT2913</name></trkpt>
<trkpt lat="53.084949" lon="-4.138162"><ele>579</ele><time>2020-09-18T11:40:59Z</time><name>PT2914</name></trkpt>
<trkpt lat="53.084951" lon="-4.138138"><ele>580</ele><time>2020-09-18T11:41:02Z</time><name>PT2915</name></trkpt>
<trkpt lat="53.084957" lon="-4.138103"><ele>581</ele><time>2020-09-18T11:41:06Z</time><name>PT2916</name></trkpt>
<trkpt lat="53.084962" lon="-4.138077"><ele>581</ele><time>2020-09-18T11:41:09Z</time><name>PT2917</name></trkpt>
<trkpt lat="53.084961" lon="-4.138040"><ele>582</ele><time>2020-09-18T11:41:13Z</time><name>PT2918</name></trkpt>
<trkpt lat="53.084962" lon="-4.138006"><ele>582</ele><time>2020-09-18T11:41:16Z</time><name>PT2919</name></trkpt>
<trkpt lat="53.084971" lon="-4.137963"><ele>583</ele><time>2020-09-18T11:41:20Z</time><name>PT2920</name></trkpt>
<trkpt lat="53.084977" lon="-4.137932"><ele>583</ele><time>2020-09-18T11:41:23Z</time><name>PT2921</name></trkpt>
<trkpt lat="53.084985" lon="-4.137904"><ele>584</ele><time>2020-09-18T11:41:27Z</time><name>PT2922</name></trkpt>
<trkpt lat="53.084995" lon="-4.137863"><ele>584</ele><time>2020-09-18T11:41:31Z</time><name>PT2923</name></trkpt>
<trkpt lat="53.084999" lon="-4.137825"><ele>585</ele><time>2020-09-18T11:41:35Z</time><name>PT2924</name></trkpt>
<trkpt lat="53.084997" lon="-4.137784"><ele>586</ele><time>2020-09-18T11:41:39Z</time><name>PT2925</name></trkpt>
<trkpt lat="53.084993" lon="-4.137740"><ele>587</ele><time>2020-09-18T11:41:43Z</time><name>PT2926</name></trkpt>
<trkpt lat="53.084994" lon="-4.137716"><ele>588</ele><time>2020-09-18T11:41:46Z</time><name>PT2927</name></trkpt>
<trkpt lat="53.084994" lon="-4.137680"><ele>590</ele><time>2020-09-18T11:41:50Z</time><name>PT2928</name></trkpt>
<trkpt lat="53.084996" lon="-4.137673"><ele>590</ele><time>2020-09-18T11:41:53Z</time><name>PT2929</name></trkpt>
<trkpt lat="53.084999" lon="-4.137646"><ele>590</ele><time>2020-09-18T11:41:56Z</time><name>PT2930</name></trkpt>
<trkpt lat="53.084994" lon="-4.137606"><ele>590</ele><time>2020-09-18T11:41:59Z</time><name>PT2931</name></trkpt>
<trkpt lat="53.084985" lon="-4.137579"><ele>591</ele><time>2020-09-18T11:42:03Z</time><name>PT2932</name></trkpt>
<trkpt lat="53.084973" lon="-4.137537"><ele>590</ele><time>2020-09-18T11:42:07Z</time><name>PT2933</name></trkpt>
<trkpt lat="53.084968" lon="-4.137498"><ele>590</ele><time>2020-09-18T11:42:10Z</time><name>PT2934</name></trkpt>
<trkpt lat="53.084960" lon="-4.137449"><ele>591</ele><time>2020-09-18T11:42:13Z</time><name>PT2935</name></trkpt>
<trkpt lat="53.084954" lon="-4.137394"><ele>591</ele><time>2020-09-18T11:42:17Z</time><name>PT2936</name></trkpt>
<trkpt lat="53.084940" lon="-4.137338"><ele>591</ele><time>2020-09-18T11:42:20Z</time><name>PT2937</name></trkpt>
<trkpt lat="53.084932" lon="-4.137295"><ele>591</ele><time>2020-09-18T11:42:24Z</time><name>PT2938</name></trkpt>
<trkpt lat="53.084926" lon="-4.137238"><ele>591</ele><time>2020-09-18T11:42:28Z</time><name>PT2939</name></trkpt>
<trkpt lat="53.084921" lon="-4.137196"><ele>591</ele><time>2020-09-18T11:42:31Z</time><name>PT2940</name></trkpt>
<trkpt lat="53.084914" lon="-4.137153"><ele>591</ele><time>2020-09-18T11:42:34Z</time><name>PT2941</name></trkpt>
<trkpt lat="53.084908" lon="-4.137098"><ele>592</ele><time>2020-09-18T11:42:38Z</time><name>PT2942</name></trkpt>
<trkpt lat="53.084897" lon="-4.137048"><ele>592</ele><time>2020-09-18T11:42:42Z</time><name>PT2943</name></trkpt>
<trkpt lat="53.084890" lon="-4.136989"><ele>593</ele><time>2020-09-18T11:42:46Z</time><name>PT2944</name></trkpt>
<trkpt lat="53.084887" lon="-4.136949"><ele>593</ele><time>2020-09-18T11:42:49Z</time><name>PT2945</name></trkpt>
<trkpt lat="53.084882" lon="-4.136911"><ele>595</ele><time>2020-09-18T11:42:52Z</time><name>PT2946</name></trkpt>
<trkpt lat="53.084870" lon="-4.136869"><ele>595</ele><time>2020-09-18T11:42:56Z</time><name>PT2947</name></trkpt>
<trkpt lat="53.084862" lon="-4.136807"><ele>597</ele><time>2020-09-18T11:43:00Z</time><name>PT2948</name></trkpt>
<trkpt lat="53.084857" lon="-4.136757"><ele>598</ele><time>2020-09-18T11:43:03Z</time><name>PT2949</name></trkpt>
<trkpt lat="53.084844" lon="-4.136703"><ele>598</ele><time>2020-09-18T11:43:07Z</time><name>PT2950</name></trkpt>
<trkpt lat="53.084836" lon="-4.136661"><ele>599</ele><time>2020-09-18T11:43:10Z</time><name>PT2951</name></trkpt>
<trkpt lat="53.084828" lon="-4.136623"><ele>599</ele><time>2020-09-18T11:43:13Z</time><name>PT2952</name></trkpt>
<trkpt lat="53.084816" lon="-4.136566"><ele>600</ele><time>2020-09-18T11:43:17Z</time><name>PT2953</name></trkpt>
<trkpt lat="53.084804" lon="-4.136521"><ele>600</ele><time>2020-09-18T11:43:20Z</time><name>PT2954</name></trkpt>
<trkpt lat="53.084795" lon="-4.136476"><ele>601</ele><time>2020-09-18T11:43:23Z</time><name>PT2955</name></trkpt>
<trkpt lat="53.084782" lon="-4.136407"><ele>602</ele><time>2020-09-18T11:43:27Z</time><name>PT2956</name></trkpt>
<trkpt lat="53.084769" lon="-4.136345"><ele>602</ele><time>2020-09-18T11:43:31Z</time><name>PT2957</name></trkpt>
<trkpt lat="53.084758" lon="-4.136294"><ele>602</ele><time>2020-09-18T11:43:34Z</time><name>PT2958</name></trkpt>
<trkpt lat="53.084741" lon="-4.136230"><ele>602</ele><time>2020-09-18T11:43:38Z</time><name>PT2959</name></trkpt>
<trkpt lat="53.084734" lon="-4.136187"><ele>602</ele><time>2020-09-18T11:43:41Z</time><name>PT2960</name></trkpt>
<trkpt lat="53.084718" lon="-4.136132"><ele>602</ele><time>2020-09-18T11:43:45Z</time><name>PT2961</name></trkpt>
<trkpt lat="53.084703" lon="-4.136067"><ele>602</ele><time>2020-09-18T11:43:49Z</time><name>PT2962</name></trkpt>
<trkpt lat="53.084692" lon="-4.136020"><ele>602</ele><time>2020-09-18T11:43:52Z</time><name>PT2963</name></trkpt>
<trkpt lat="53.084682" lon="-4.135969"><ele>602</ele><time>2020-09-18T11:43:55Z</time><name>PT2964</name></trkpt>
<trkpt lat="53.084669" lon="-4.135906"><ele>602</ele><time>2020-09-18T11:43:59Z</time><name>PT2965</name></trkpt>
<trkpt lat="53.084660" lon="-4.135858"><ele>602</ele><time>2020-09-18T11:44:02Z</time><name>PT2966</name></trkpt>
<trkpt lat="53.084646" lon="-4.135821"><ele>602</ele><time>2020-09-18T11:44:05Z</time><name>PT2967</name></trkpt>
<trkpt lat="53.084639" lon="-4.135813"><ele>602</ele><time>2020-09-18T11:44:09Z</time><name>PT2968</name></trkpt>
<trkpt lat="53.084639" lon="-4.135809"><ele>602</ele><time>2020-09-18T11:44:20Z</time><name>PT2969</name></trkpt>
<trkpt lat="53.084638" lon="-4.135813"><ele>603</ele><time>2020-09-18T11:44:37Z</time><name>PT2970</name></trkpt>
<trkpt lat="53.084631" lon="-4.135827"><ele>603</ele><time>2020-09-18T11:44:40Z</time><name>PT2971</name></trkpt>
<trkpt lat="53.084622" lon="-4.135812"><ele>603</ele><time>2020-09-18T11:44:44Z</time><name>PT2972</name></trkpt>
<trkpt lat="53.084605" lon="-4.135773"><ele>603</ele><time>2020-09-18T11:44:48Z</time><name>PT2973</name></trkpt>
<trkpt lat="53.084602" lon="-4.135767"><ele>603</ele><time>2020-09-18T11:44:51Z</time><name>PT2974</name></trkpt>
<trkpt lat="53.084581" lon="-4.135718"><ele>603</ele><time>2020-09-18T11:44:59Z</time><name>PT2975</name></trkpt>
<trkpt lat="53.084540" lon="-4.135657"><ele>603</ele><time>2020-09-18T11:45:03Z</time><name>PT2976</name></trkpt>
<trkpt lat="53.084508" lon="-4.135621"><ele>602</ele><time>2020-09-18T11:45:06Z</time><name>PT2977</name></trkpt>
<trkpt lat="53.084486" lon="-4.135601"><ele>602</ele><time>2020-09-18T11:45:09Z</time><name>PT2978</name></trkpt>
<trkpt lat="53.084459" lon="-4.135568"><ele>602</ele><time>2020-09-18T11:45:13Z</time><name>PT2979</name></trkpt>
<trkpt lat="53.084427" lon="-4.135517"><ele>601</ele><time>2020-09-18T11:45:17Z</time><name>PT2980</name></trkpt>
<trkpt lat="53.084404" lon="-4.135487"><ele>601</ele><time>2020-09-18T11:45:20Z</time><name>PT2981</name></trkpt>
<trkpt lat="53.084380" lon="-4.135479"><ele>601</ele><time>2020-09-18T11:45:23Z</time><name>PT2982</name></trkpt>
<trkpt lat="53.084355" lon="-4.135450"><ele>600</ele><time>2020-09-18T11:45:27Z</time><name>PT2983</name></trkpt>
<trkpt lat="53.084333" lon="-4.135429"><ele>600</ele><time>2020-09-18T11:45:31Z</time><name>PT2984</name></trkpt>
<trkpt lat="53.084317" lon="-4.135413"><ele>600</ele><time>2020-09-18T11:45:34Z</time><name>PT2985</name></trkpt>
<trkpt lat="53.084312" lon="-4.135409"><ele>599</ele><time>2020-09-18T11:45:38Z</time><name>PT2986</name></trkpt>
<trkpt lat="53.084297" lon="-4.135393"><ele>599</ele><time>2020-09-18T11:45:41Z</time><name>PT2987</name></trkpt>
<trkpt lat="53.084263" lon="-4.135388"><ele>598</ele><time>2020-09-18T11:45:44Z</time><name>PT2988</name></trkpt>
<trkpt lat="53.084240" lon="-4.135390"><ele>598</ele><time>2020-09-18T11:45:48Z</time><name>PT2989</name></trkpt>
<trkpt lat="53.084214" lon="-4.135388"><ele>597</ele><time>2020-09-18T11:45:51Z</time><name>PT2990</name></trkpt>
<trkpt lat="53.084208" lon="-4.135383"><ele>597</ele><time>2020-09-18T11:45:55Z</time><name>PT2991</name></trkpt>
<trkpt lat="53.084208" lon="-4.135382"><ele>598</ele><time>2020-09-18T11:45:59Z</time><name>PT2992</name></trkpt>
<trkpt lat="53.084205" lon="-4.135384"><ele>598</ele><time>2020-09-18T11:46:03Z</time><name>PT2993</name></trkpt>
<trkpt lat="53.084205" lon="-4.135383"><ele>598</ele><time>2020-09-18T11:46:07Z</time><name>PT2994</name></trkpt>
<trkpt lat="53.084195" lon="-4.135382"><ele>597</ele><time>2020-09-18T11:46:35Z</time><name>PT2995</name></trkpt>
<trkpt lat="53.084167" lon="-4.135395"><ele>597</ele><time>2020-09-18T11:46:39Z</time><name>PT2996</name></trkpt>
<trkpt lat="53.084139" lon="-4.135397"><ele>596</ele><time>2020-09-18T11:46:43Z</time><name>PT2997</name></trkpt>
<trkpt lat="53.084106" lon="-4.135412"><ele>595</ele><time>2020-09-18T11:46:47Z</time><name>PT2998</name></trkpt>
<trkpt lat="53.084083" lon="-4.135421"><ele>594</ele><time>2020-09-18T11:46:50Z</time><name>PT2999</name></trkpt>
<trkpt lat="53.084052" lon="-4.135442"><ele>594</ele><time>2020-09-18T11:46:54Z</time><name>PT3000</name></trkpt>
<trkpt lat="53.084024" lon="-4.135449"><ele>593</ele><time>2020-09-18T11:46:58Z</time><name>PT3001</name></trkpt>
<trkpt lat="53.084005" lon="-4.135433"><ele>593</ele><time>2020-09-18T11:47:01Z</time><name>PT3002</name></trkpt>
<trkpt lat="53.083988" lon="-4.135423"><ele>592</ele><time>2020-09-18T11:47:05Z</time><name>PT3003</name></trkpt>
<trkpt lat="53.083971" lon="-4.135427"><ele>592</ele><time>2020-09-18T11:47:08Z</time><name>PT3004</name></trkpt>
<trkpt lat="53.083954" lon="-4.135419"><ele>592</ele><time>2020-09-18T11:47:11Z</time><name>PT3005</name></trkpt>
<trkpt lat="53.083941" lon="-4.135432"><ele>591</ele><time>2020-09-18T11:47:15Z</time><name>PT3006</name></trkpt>
<trkpt lat="53.083927" lon="-4.135435"><ele>591</ele><time>2020-09-18T11:47:18Z</time><name>PT3007</name></trkpt>
<trkpt lat="53.083918" lon="-4.135438"><ele>591</ele><time>2020-09-18T11:47:38Z</time><name>PT3008</name></trkpt>
<trkpt lat="53.083881" lon="-4.135446"><ele>590</ele><time>2020-09-18T11:47:41Z</time><name>PT3009</name></trkpt>
<trkpt lat="53.083847" lon="-4.135432"><ele>589</ele><time>2020-09-18T11:47:44Z</time><name>PT3010</name></trkpt>
<trkpt lat="53.083830" lon="-4.135437"><ele>588</ele><time>2020-09-18T11:47:47Z</time><name>PT3011</name></trkpt>
<trkpt lat="53.083821" lon="-4.135442"><ele>588</ele><time>2020-09-18T11:47:50Z</time><name>PT3012</name></trkpt>
<trkpt lat="53.083808" lon="-4.135419"><ele>588</ele><time>2020-09-18T11:48:08Z</time><name>PT3013</name></trkpt>
<trkpt lat="53.083771" lon="-4.135413"><ele>587</ele><time>2020-09-18T11:48:12Z</time><name>PT3014</name></trkpt>
<trkpt lat="53.083752" lon="-4.135377"><ele>585</ele><time>2020-09-18T11:48:16Z</time><name>PT3015</name></trkpt>
<trkpt lat="53.083747" lon="-4.135375"><ele>584</ele><time>2020-09-18T11:48:20Z</time><name>PT3016</name></trkpt>
<trkpt lat="53.083713" lon="-4.135328"><ele>583</ele><time>2020-09-18T11:48:30Z</time><name>PT3017</name></trkpt>
<trkpt lat="53.083693" lon="-4.135313"><ele>581</ele><time>2020-09-18T11:48:34Z</time><name>PT3018</name></trkpt>
<trkpt lat="53.083683" lon="-4.135295"><ele>579</ele><time>2020-09-18T11:48:38Z</time><name>PT3019</name></trkpt>
<trkpt lat="53.083679" lon="-4.135277"><ele>578</ele><time>2020-09-18T11:48:45Z</time><name>PT3020</name></trkpt>
<trkpt lat="53.083677" lon="-4.135273"><ele>578</ele><time>2020-09-18T11:48:48Z</time><name>PT3021</name></trkpt>
<trkpt lat="53.083659" lon="-4.135261"><ele>577</ele><time>2020-09-18T11:48:52Z</time><name>PT3022</name></trkpt>
<trkpt lat="53.083652" lon="-4.135251"><ele>576</ele><time>2020-09-18T11:48:55Z</time><name>PT3023</name></trkpt>
<trkpt lat="53.083650" lon="-4.135251"><ele>575</ele><time>2020-09-18T11:48:58Z</time><name>PT3024</name></trkpt>
<trkpt lat="53.083639" lon="-4.135248"><ele>576</ele><time>2020-09-18T11:49:07Z</time><name>PT3025</name></trkpt>
<trkpt lat="53.083628" lon="-4.135245"><ele>575</ele><time>2020-09-18T11:49:11Z</time><name>PT3026</name></trkpt>
<trkpt lat="53.083623" lon="-4.135216"><ele>574</ele><time>2020-09-18T11:49:17Z</time><name>PT3027</name></trkpt>
<trkpt lat="53.083602" lon="-4.135218"><ele>573</ele><time>2020-09-18T11:49:22Z</time><name>PT3028</name></trkpt>
<trkpt lat="53.083586" lon="-4.135202"><ele>572</ele><time>2020-09-18T11:49:26Z</time><name>PT3029</name></trkpt>
<trkpt lat="53.083584" lon="-4.135201"><ele>572</ele><time>2020-09-18T11:49:29Z</time><name>PT3030</name></trkpt>
<trkpt lat="53.083559" lon="-4.135193"><ele>571</ele><time>2020-09-18T11:49:34Z</time><name>PT3031</name></trkpt>
<trkpt lat="53.083534" lon="-4.135167"><ele>570</ele><time>2020-09-18T11:49:38Z</time><name>PT3032</name></trkpt>
<trkpt lat="53.083525" lon="-4.135154"><ele>569</ele><time>2020-09-18T11:49:41Z</time><name>PT3033</name></trkpt>
<trkpt lat="53.083502" lon="-4.135160"><ele>569</ele><time>2020-09-18T11:49:44Z</time><name>PT3034</name></trkpt>
<trkpt lat="53.083479" lon="-4.135142"><ele>568</ele><time>2020-09-18T11:49:50Z</time><name>PT3035</name></trkpt>
<trkpt lat="53.083446" lon="-4.135132"><ele>566</ele><time>2020-09-18T11:49:55Z</time><name>PT3036</name></trkpt>
<trkpt lat="53.083421" lon="-4.135131"><ele>565</ele><time>2020-09-18T11:49:59Z</time><name>PT3037</name></trkpt>
<trkpt lat="53.083393" lon="-4.135126"><ele>564</ele><time>2020-09-18T11:50:02Z</time><name>PT3038</name></trkpt>
<trkpt lat="53.083368" lon="-4.135107"><ele>563</ele><time>2020-09-18T11:50:07Z</time><name>PT3039</name></trkpt>
<trkpt lat="53.083350" lon="-4.135096"><ele>562</ele><time>2020-09-18T11:50:10Z</time><name>PT3040</name></trkpt>
<trkpt lat="53.083320" lon="-4.135087"><ele>560</ele><time>2020-09-18T11:50:14Z</time><name>PT3041</name></trkpt>
<trkpt lat="53.083293" lon="-4.135079"><ele>559</ele><time>2020-09-18T11:50:17Z</time><name>PT3042</name></trkpt>
<trkpt lat="53.083267" lon="-4.135072"><ele>558</ele><time>2020-09-18T11:50:20Z</time><name>PT3043</name></trkpt>
<trkpt lat="53.083244" lon="-4.135045"><ele>555</ele><time>2020-09-18T11:50:24Z</time><name>PT3044</name></trkpt>
<trkpt lat="53.083222" lon="-4.135019"><ele>554</ele><time>2020-09-18T11:50:27Z</time><name>PT3045</name></trkpt>
<trkpt lat="53.083195" lon="-4.134996"><ele>554</ele><time>2020-09-18T11:50:31Z</time><name>PT3046</name></trkpt>
<trkpt lat="53.083169" lon="-4.134978"><ele>553</ele><time>2020-09-18T11:50:34Z</time><name>PT3047</name></trkpt>
<trkpt lat="53.083147" lon="-4.134969"><ele>553</ele><time>2020-09-18T11:50:37Z</time><name>PT3048</name></trkpt>
<trkpt lat="53.083127" lon="-4.134952"><ele>552</ele><time>2020-09-18T11:50:40Z</time><name>PT3049</name></trkpt>
<trkpt lat="53.083110" lon="-4.134934"><ele>549</ele><time>2020-09-18T11:50:43Z</time><name>PT3050</name></trkpt>
<trkpt lat="53.083094" lon="-4.134912"><ele>549</ele><time>2020-09-18T11:50:46Z</time><name>PT3051</name></trkpt>
<trkpt lat="53.083076" lon="-4.134898"><ele>548</ele><time>2020-09-18T11:50:49Z</time><name>PT3052</name></trkpt>
<trkpt lat="53.083060" lon="-4.134873"><ele>548</ele><time>2020-09-18T11:50:53Z</time><name>PT3053</name></trkpt>
<trkpt lat="53.083047" lon="-4.134854"><ele>547</ele><time>2020-09-18T11:50:56Z</time><name>PT3054</name></trkpt>
<trkpt lat="53.083029" lon="-4.134826"><ele>548</ele><time>2020-09-18T11:50:59Z</time><name>PT3055</name></trkpt>
<trkpt lat="53.083012" lon="-4.134802"><ele>547</ele><time>2020-09-18T11:51:02Z</time><name>PT3056</name></trkpt>
<trkpt lat="53.082994" lon="-4.134785"><ele>546</ele><time>2020-09-18T11:51:05Z</time><name>PT3057</name></trkpt>
<trkpt lat="53.082978" lon="-4.134770"><ele>545</ele><time>2020-09-18T11:51:08Z</time><name>PT3058</name></trkpt>
<trkpt lat="53.082952" lon="-4.134766"><ele>544</ele><time>2020-09-18T11:51:11Z</time><name>PT3059</name></trkpt>
<trkpt lat="53.082919" lon="-4.134773"><ele>542</ele><time>2020-09-18T11:51:16Z</time><name>PT3060</name></trkpt>
<trkpt lat="53.082895" lon="-4.134769"><ele>542</ele><time>2020-09-18T11:51:19Z</time><name>PT3061</name></trkpt>
<trkpt lat="53.082867" lon="-4.134758"><ele>542</ele><time>2020-09-18T11:51:22Z</time><name>PT3062</name></trkpt>
<trkpt lat="53.082842" lon="-4.134742"><ele>542</ele><time>2020-09-18T11:51:25Z</time><name>PT3063</name></trkpt>
<trkpt lat="53.082816" lon="-4.134726"><ele>541</ele><time>2020-09-18T11:51:29Z</time><name>PT3064</name></trkpt>
<trkpt lat="53.082806" lon="-4.134710"><ele>540</ele><time>2020-09-18T11:51:32Z</time><name>PT3065</name></trkpt>
<trkpt lat="53.082785" lon="-4.134688"><ele>540</ele><time>2020-09-18T11:51:35Z</time><name>PT3066</name></trkpt>
<trkpt lat="53.082767" lon="-4.134679"><ele>539</ele><time>2020-09-18T11:51:38Z</time><name>PT3067</name></trkpt>
<trkpt lat="53.082744" lon="-4.134674"><ele>537</ele><time>2020-09-18T11:51:43Z</time><name>PT3068</name></trkpt>
<trkpt lat="53.082721" lon="-4.134659"><ele>537</ele><time>2020-09-18T11:51:47Z</time><name>PT3069</name></trkpt>
<trkpt lat="53.082694" lon="-4.134636"><ele>536</ele><time>2020-09-18T11:51:50Z</time><name>PT3070</name></trkpt>
<trkpt lat="53.082672" lon="-4.134621"><ele>535</ele><time>2020-09-18T11:51:53Z</time><name>PT3071</name></trkpt>
<trkpt lat="53.082657" lon="-4.134607"><ele>534</ele><time>2020-09-18T11:51:56Z</time><name>PT3072</name></trkpt>
<trkpt lat="53.082633" lon="-4.134586"><ele>533</ele><time>2020-09-18T11:52:01Z</time><name>PT3073</name></trkpt>
<trkpt lat="53.082618" lon="-4.134568"><ele>532</ele><time>2020-09-18T11:52:04Z</time><name>PT3074</name></trkpt>
<trkpt lat="53.082600" lon="-4.134561"><ele>532</ele><time>2020-09-18T11:52:07Z</time><name>PT3075</name></trkpt>
<trkpt lat="53.082570" lon="-4.134548"><ele>531</ele><time>2020-09-18T11:52:11Z</time><name>PT3076</name></trkpt>
<trkpt lat="53.082546" lon="-4.134532"><ele>530</ele><time>2020-09-18T11:52:15Z</time><name>PT3077</name></trkpt>
<trkpt lat="53.082522" lon="-4.134518"><ele>529</ele><time>2020-09-18T11:52:19Z</time><name>PT3078</name></trkpt>
<trkpt lat="53.082501" lon="-4.134499"><ele>529</ele><time>2020-09-18T11:52:22Z</time><name>PT3079</name></trkpt>
<trkpt lat="53.082484" lon="-4.134481"><ele>528</ele><time>2020-09-18T11:52:25Z</time><name>PT3080</name></trkpt>
<trkpt lat="53.082458" lon="-4.134468"><ele>527</ele><time>2020-09-18T11:52:29Z</time><name>PT3081</name></trkpt>
<trkpt lat="53.082440" lon="-4.134455"><ele>525</ele><time>2020-09-18T11:52:32Z</time><name>PT3082</name></trkpt>
<trkpt lat="53.082422" lon="-4.134430"><ele>523</ele><time>2020-09-18T11:52:35Z</time><name>PT3083</name></trkpt>
<trkpt lat="53.082403" lon="-4.134405"><ele>522</ele><time>2020-09-18T11:52:40Z</time><name>PT3084</name></trkpt>
<trkpt lat="53.082384" lon="-4.134399"><ele>522</ele><time>2020-09-18T11:52:43Z</time><name>PT3085</name></trkpt>
<trkpt lat="53.082357" lon="-4.134387"><ele>521</ele><time>2020-09-18T11:52:47Z</time><name>PT3086</name></trkpt>
<trkpt lat="53.082338" lon="-4.134375"><ele>520</ele><time>2020-09-18T11:52:50Z</time><name>PT3087</name></trkpt>
<trkpt lat="53.082322" lon="-4.134367"><ele>520</ele><time>2020-09-18T11:52:53Z</time><name>PT3088</name></trkpt>
<trkpt lat="53.082295" lon="-4.134351"><ele>519</ele><time>2020-09-18T11:52:58Z</time><name>PT3089</name></trkpt>
<trkpt lat="53.082262" lon="-4.134360"><ele>518</ele><time>2020-09-18T11:53:02Z</time><name>PT3090</name></trkpt>
<trkpt lat="53.082233" lon="-4.134364"><ele>517</ele><time>2020-09-18T11:53:05Z</time><name>PT3091</name></trkpt>
<trkpt lat="53.082200" lon="-4.134354"><ele>516</ele><time>2020-09-18T11:53:10Z</time><name>PT3092</name></trkpt>
<trkpt lat="53.082166" lon="-4.134337"><ele>514</ele><time>2020-09-18T11:53:14Z</time><name>PT3093</name></trkpt>
<trkpt lat="53.082145" lon="-4.134321"><ele>514</ele><time>2020-09-18T11:53:17Z</time><name>PT3094</name></trkpt>
<trkpt lat="53.082125" lon="-4.134302"><ele>513</ele><time>2020-09-18T11:53:20Z</time><name>PT3095</name></trkpt>
<trkpt lat="53.082106" lon="-4.134271"><ele>512</ele><time>2020-09-18T11:53:23Z</time><name>PT3096</name></trkpt>
<trkpt lat="53.082087" lon="-4.134263"><ele>511</ele><time>2020-09-18T11:53:28Z</time><name>PT3097</name></trkpt>
<trkpt lat="53.082070" lon="-4.134256"><ele>510</ele><time>2020-09-18T11:53:31Z</time><name>PT3098</name></trkpt>
<trkpt lat="53.082052" lon="-4.134254"><ele>509</ele><time>2020-09-18T11:53:34Z</time><name>PT3099</name></trkpt>
<trkpt lat="53.082027" lon="-4.134236"><ele>508</ele><time>2020-09-18T11:53:37Z</time><name>PT3100</name></trkpt>
<trkpt lat="53.081999" lon="-4.134206"><ele>507</ele><time>2020-09-18T11:53:41Z</time><name>PT3101</name></trkpt>
<trkpt lat="53.081967" lon="-4.134179"><ele>505</ele><time>2020-09-18T11:53:44Z</time><name>PT3102</name></trkpt>
<trkpt lat="53.081946" lon="-4.134161"><ele>505</ele><time>2020-09-18T11:53:47Z</time><name>PT3103</name></trkpt>
<trkpt lat="53.081916" lon="-4.134153"><ele>504</ele><time>2020-09-18T11:53:52Z</time><name>PT3104</name></trkpt>
<trkpt lat="53.081894" lon="-4.134143"><ele>503</ele><time>2020-09-18T11:53:55Z</time><name>PT3105</name></trkpt>
<trkpt lat="53.081871" lon="-4.134132"><ele>503</ele><time>2020-09-18T11:53:58Z</time><name>PT3106</name></trkpt>
<trkpt lat="53.081844" lon="-4.134112"><ele>503</ele><time>2020-09-18T11:54:02Z</time><name>PT3107</name></trkpt>
<trkpt lat="53.081816" lon="-4.134097"><ele>503</ele><time>2020-09-18T11:54:05Z</time><name>PT3108</name></trkpt>
<trkpt lat="53.081790" lon="-4.134076"><ele>503</ele><time>2020-09-18T11:54:08Z</time><name>PT3109</name></trkpt>
<trkpt lat="53.081768" lon="-4.134061"><ele>502</ele><time>2020-09-18T11:54:11Z</time><name>PT3110</name></trkpt>
<trkpt lat="53.081741" lon="-4.134033"><ele>501</ele><time>2020-09-18T11:54:15Z</time><name>PT3111</name></trkpt>
<trkpt lat="53.081720" lon="-4.134005"><ele>500</ele><time>2020-09-18T11:54:18Z</time><name>PT3112</name></trkpt>
<trkpt lat="53.081700" lon="-4.133975"><ele>500</ele><time>2020-09-18T11:54:21Z</time><name>PT3113</name></trkpt>
<trkpt lat="53.081672" lon="-4.133943"><ele>499</ele><time>2020-09-18T11:54:24Z</time><name>PT3114</name></trkpt>
<trkpt lat="53.081637" lon="-4.133915"><ele>499</ele><time>2020-09-18T11:54:28Z</time><name>PT3115</name></trkpt>
<trkpt lat="53.081612" lon="-4.133888"><ele>498</ele><time>2020-09-18T11:54:31Z</time><name>PT3116</name></trkpt>
<trkpt lat="53.081581" lon="-4.133873"><ele>497</ele><time>2020-09-18T11:54:35Z</time><name>PT3117</name></trkpt>
<trkpt lat="53.081550" lon="-4.133849"><ele>496</ele><time>2020-09-18T11:54:38Z</time><name>PT3118</name></trkpt>
<trkpt lat="53.081529" lon="-4.133840"><ele>496</ele><time>2020-09-18T11:54:41Z</time><name>PT3119</name></trkpt>
<trkpt lat="53.081502" lon="-4.133832"><ele>496</ele><time>2020-09-18T11:54:44Z</time><name>PT3120</name></trkpt>
<trkpt lat="53.081480" lon="-4.133827"><ele>496</ele><time>2020-09-18T11:54:49Z</time><name>PT3121</name></trkpt>
<trkpt lat="53.081452" lon="-4.133831"><ele>495</ele><time>2020-09-18T11:54:53Z</time><name>PT3122</name></trkpt>
<trkpt lat="53.081431" lon="-4.133824"><ele>494</ele><time>2020-09-18T11:54:56Z</time><name>PT3123</name></trkpt>
<trkpt lat="53.081413" lon="-4.133811"><ele>493</ele><time>2020-09-18T11:54:59Z</time><name>PT3124</name></trkpt>
<trkpt lat="53.081391" lon="-4.133789"><ele>492</ele><time>2020-09-18T11:55:02Z</time><name>PT3125</name></trkpt>
<trkpt lat="53.081379" lon="-4.133778"><ele>491</ele><time>2020-09-18T11:55:05Z</time><name>PT3126</name></trkpt>
<trkpt lat="53.081355" lon="-4.133755"><ele>490</ele><time>2020-09-18T11:55:10Z</time><name>PT3127</name></trkpt>
<trkpt lat="53.081333" lon="-4.133737"><ele>490</ele><time>2020-09-18T11:55:14Z</time><name>PT3128</name></trkpt>
<trkpt lat="53.081308" lon="-4.133720"><ele>489</ele><time>2020-09-18T11:55:18Z</time><name>PT3129</name></trkpt>
<trkpt lat="53.081291" lon="-4.133696"><ele>488</ele><time>2020-09-18T11:55:21Z</time><name>PT3130</name></trkpt>
<trkpt lat="53.081275" lon="-4.133667"><ele>487</ele><time>2020-09-18T11:55:24Z</time><name>PT3131</name></trkpt>
<trkpt lat="53.081259" lon="-4.133631"><ele>486</ele><time>2020-09-18T11:55:28Z</time><name>PT3132</name></trkpt>
<trkpt lat="53.081236" lon="-4.133601"><ele>485</ele><time>2020-09-18T11:55:31Z</time><name>PT3133</name></trkpt>
<trkpt lat="53.081207" lon="-4.133559"><ele>484</ele><time>2020-09-18T11:55:35Z</time><name>PT3134</name></trkpt>
<trkpt lat="53.081179" lon="-4.133540"><ele>483</ele><time>2020-09-18T11:55:38Z</time><name>PT3135</name></trkpt>
<trkpt lat="53.081155" lon="-4.133515"><ele>483</ele><time>2020-09-18T11:55:41Z</time><name>PT3136</name></trkpt>
<trkpt lat="53.081135" lon="-4.133476"><ele>481</ele><time>2020-09-18T11:55:46Z</time><name>PT3137</name></trkpt>
<trkpt lat="53.081112" lon="-4.133447"><ele>480</ele><time>2020-09-18T11:55:49Z</time><name>PT3138</name></trkpt>
<trkpt lat="53.081078" lon="-4.133383"><ele>481</ele><time>2020-09-18T11:55:53Z</time><name>PT3139</name></trkpt>
<trkpt lat="53.081054" lon="-4.133334"><ele>481</ele><time>2020-09-18T11:55:56Z</time><name>PT3140</name></trkpt>
<trkpt lat="53.081027" lon="-4.133295"><ele>479</ele><time>2020-09-18T11:55:59Z</time><name>PT3141</name></trkpt>
<trkpt lat="53.081012" lon="-4.133255"><ele>478</ele><time>2020-09-18T11:56:02Z</time><name>PT3142</name></trkpt>
<trkpt lat="53.081012" lon="-4.133225"><ele>477</ele><time>2020-09-18T11:56:05Z</time><name>PT3143</name></trkpt>
<trkpt lat="53.081006" lon="-4.133159"><ele>476</ele><time>2020-09-18T11:56:10Z</time><name>PT3144</name></trkpt>
<trkpt lat="53.081002" lon="-4.133100"><ele>476</ele><time>2020-09-18T11:56:14Z</time><name>PT3145</name></trkpt>
<trkpt lat="53.081001" lon="-4.133057"><ele>475</ele><time>2020-09-18T11:56:17Z</time><name>PT3146</name></trkpt>
<trkpt lat="53.080992" lon="-4.132996"><ele>475</ele><time>2020-09-18T11:56:20Z</time><name>PT3147</name></trkpt>
<trkpt lat="53.080990" lon="-4.132982"><ele>475</ele><time>2020-09-18T11:56:23Z</time><name>PT3148</name></trkpt>
<trkpt lat="53.080991" lon="-4.132994"><ele>474</ele><time>2020-09-18T11:56:28Z</time><name>PT3149</name></trkpt>
<trkpt lat="53.080973" lon="-4.132962"><ele>474</ele><time>2020-09-18T11:56:32Z</time><name>PT3150</name></trkpt>
<trkpt lat="53.080941" lon="-4.132921"><ele>474</ele><time>2020-09-18T11:56:35Z</time><name>PT3151</name></trkpt>
<trkpt lat="53.080916" lon="-4.132888"><ele>473</ele><time>2020-09-18T11:56:40Z</time><name>PT3152</name></trkpt>
<trkpt lat="53.080889" lon="-4.132877"><ele>473</ele><time>2020-09-18T11:56:43Z</time><name>PT3153</name></trkpt>
<trkpt lat="53.080857" lon="-4.132865"><ele>473</ele><time>2020-09-18T11:56:47Z</time><name>PT3154</name></trkpt>
<trkpt lat="53.080828" lon="-4.132834"><ele>473</ele><time>2020-09-18T11:56:50Z</time><name>PT3155</name></trkpt>
<trkpt lat="53.080813" lon="-4.132824"><ele>473</ele><time>2020-09-18T11:56:55Z</time><name>PT3156</name></trkpt>
<trkpt lat="53.080806" lon="-4.132826"><ele>473</ele><time>2020-09-18T11:56:59Z</time><name>PT3157</name></trkpt>
<trkpt lat="53.080806" lon="-4.132825"><ele>473</ele><time>2020-09-18T11:57:02Z</time><name>PT3158</name></trkpt>
<trkpt lat="53.080807" lon="-4.132821"><ele>473</ele><time>2020-09-18T11:57:05Z</time><name>PT3159</name></trkpt>
<trkpt lat="53.080807" lon="-4.132824"><ele>472</ele><time>2020-09-18T11:57:14Z</time><name>PT3160</name></trkpt>
<trkpt lat="53.080808" lon="-4.132827"><ele>472</ele><time>2020-09-18T11:57:22Z</time><name>PT3161</name></trkpt>
<trkpt lat="53.080805" lon="-4.132828"><ele>472</ele><time>2020-09-18T11:57:26Z</time><name>PT3162</name></trkpt>
<trkpt lat="53.080804" lon="-4.132828"><ele>472</ele><time>2020-09-18T11:57:29Z</time><name>PT3163</name></trkpt>
<trkpt lat="53.080804" lon="-4.132808"><ele>472</ele><time>2020-09-18T11:57:40Z</time><name>PT3164</name></trkpt>
<trkpt lat="53.080826" lon="-4.132819"><ele>470</ele><time>2020-09-18T11:57:44Z</time><name>PT3165</name></trkpt>
<trkpt lat="53.080823" lon="-4.132797"><ele>469</ele><time>2020-09-18T11:57:47Z</time><name>PT3166</name></trkpt>
<trkpt lat="53.080819" lon="-4.132794"><ele>470</ele><time>2020-09-18T11:57:52Z</time><name>PT3167</name></trkpt>
<trkpt lat="53.080820" lon="-4.132803"><ele>470</ele><time>2020-09-18T11:57:58Z</time><name>PT3168</name></trkpt>
<trkpt lat="53.080823" lon="-4.132795"><ele>470</ele><time>2020-09-18T11:58:02Z</time><name>PT3169</name></trkpt>
<trkpt lat="53.080823" lon="-4.132783"><ele>470</ele><time>2020-09-18T11:58:21Z</time><name>PT3170</name></trkpt>
<trkpt lat="53.080824" lon="-4.132778"><ele>470</ele><time>2020-09-18T11:58:24Z</time><name>PT3171</name></trkpt>
<trkpt lat="53.080827" lon="-4.132774"><ele>470</ele><time>2020-09-18T11:58:27Z</time><name>PT3172</name></trkpt>
<trkpt lat="53.080822" lon="-4.132783"><ele>470</ele><time>2020-09-18T11:58:31Z</time><name>PT3173</name></trkpt>
<trkpt lat="53.080818" lon="-4.132757"><ele>469</ele><time>2020-09-18T11:59:11Z</time><name>PT3174</name></trkpt>
<trkpt lat="53.080818" lon="-4.132761"><ele>469</ele><time>2020-09-18T11:59:14Z</time><name>PT3175</name></trkpt>
<trkpt lat="53.080816" lon="-4.132763"><ele>469</ele><time>2020-09-18T12:00:17Z</time><name>PT3176</name></trkpt>
<trkpt lat="53.080814" lon="-4.132763"><ele>469</ele><time>2020-09-18T12:00:32Z</time><name>PT3177</name></trkpt>
<trkpt lat="53.080815" lon="-4.132762"><ele>469</ele><time>2020-09-18T12:00:37Z</time><name>PT3178</name></trkpt>
<trkpt lat="53.080818" lon="-4.132767"><ele>469</ele><time>2020-09-18T12:00:40Z</time><name>PT3179</name></trkpt>
<trkpt lat="53.080824" lon="-4.132785"><ele>469</ele><time>2020-09-18T12:00:44Z</time><name>PT3180</name></trkpt>
<trkpt lat="53.080830" lon="-4.132790"><ele>469</ele><time>2020-09-18T12:00:47Z</time><name>PT3181</name></trkpt>
<trkpt lat="53.080839" lon="-4.132784"><ele>470</ele><time>2020-09-18T12:00:52Z</time><name>PT3182</name></trkpt>
<trkpt lat="53.080827" lon="-4.132769"><ele>469</ele><time>2020-09-18T12:00:56Z</time><name>PT3183</name></trkpt>
<trkpt lat="53.080818" lon="-4.132736"><ele>469</ele><time>2020-09-18T12:00:59Z</time><name>PT3184</name></trkpt>
<trkpt lat="53.080815" lon="-4.132725"><ele>470</ele><time>2020-09-18T12:01:02Z</time><name>PT3185</name></trkpt>
<trkpt lat="53.080803" lon="-4.132730"><ele>469</ele><time>2020-09-18T12:01:07Z</time><name>PT3186</name></trkpt>
<trkpt lat="53.080798" lon="-4.132760"><ele>468</ele><time>2020-09-18T12:01:23Z</time><name>PT3187</name></trkpt>
<trkpt lat="53.080796" lon="-4.132816"><ele>465</ele><time>2020-09-18T12:01:26Z</time><name>PT3188</name></trkpt>
<trkpt lat="53.080799" lon="-4.132824"><ele>465</ele><time>2020-09-18T12:01:31Z</time><name>PT3189</name></trkpt>
<trkpt lat="53.080795" lon="-4.132827"><ele>466</ele><time>2020-09-18T12:01:50Z</time><name>PT3190</name></trkpt>
<trkpt lat="53.080784" lon="-4.132835"><ele>466</ele><time>2020-09-18T12:01:53Z</time><name>PT3191</name></trkpt>
<trkpt lat="53.080795" lon="-4.132830"><ele>467</ele><time>2020-09-18T12:02:53Z</time><name>PT3192</name></trkpt>
<trkpt lat="53.080818" lon="-4.132813"><ele>468</ele><time>2020-09-18T12:02:58Z</time><name>PT3193</name></trkpt>
<trkpt lat="53.080822" lon="-4.132810"><ele>468</ele><time>2020-09-18T12:03:14Z</time><name>PT3194</name></trkpt>
<trkpt lat="53.080823" lon="-4.132817"><ele>468</ele><time>2020-09-18T12:03:19Z</time><name>PT3195</name></trkpt>
<trkpt lat="53.080813" lon="-4.132826"><ele>469</ele><time>2020-09-18T12:03:58Z</time><name>PT3196</name></trkpt>
<trkpt lat="53.080811" lon="-4.132827"><ele>469</ele><time>2020-09-18T12:04:20Z</time><name>PT3197</name></trkpt>
<trkpt lat="53.080816" lon="-4.132817"><ele>469</ele><time>2020-09-18T12:04:23Z</time><name>PT3198</name></trkpt>
<trkpt lat="53.080811" lon="-4.132812"><ele>468</ele><time>2020-09-18T12:05:08Z</time><name>PT3199</name></trkpt>
<trkpt lat="53.080811" lon="-4.132816"><ele>467</ele><time>2020-09-18T12:05:11Z</time><name>PT3200</name></trkpt>
<trkpt lat="53.080805" lon="-4.132812"><ele>467</ele><time>2020-09-18T12:05:41Z</time><name>PT3201</name></trkpt>
<trkpt lat="53.080807" lon="-4.132811"><ele>466</ele><time>2020-09-18T12:05:47Z</time><name>PT3202</name></trkpt>
<trkpt lat="53.080808" lon="-4.132813"><ele>466</ele><time>2020-09-18T12:05:50Z</time><name>PT3203</name></trkpt>
<trkpt lat="53.080818" lon="-4.132816"><ele>466</ele><time>2020-09-18T12:05:55Z</time><name>PT3204</name></trkpt>
<trkpt lat="53.080819" lon="-4.132812"><ele>465</ele><time>2020-09-18T12:05:58Z</time><name>PT3205</name></trkpt>
<trkpt lat="53.080821" lon="-4.132811"><ele>465</ele><time>2020-09-18T12:06:02Z</time><name>PT3206</name></trkpt>
<trkpt lat="53.080827" lon="-4.132806"><ele>466</ele><time>2020-09-18T12:06:47Z</time><name>PT3207</name></trkpt>
<trkpt lat="53.080833" lon="-4.132802"><ele>466</ele><time>2020-09-18T12:06:50Z</time><name>PT3208</name></trkpt>
<trkpt lat="53.080828" lon="-4.132791"><ele>466</ele><time>2020-09-18T12:07:05Z</time><name>PT3209</name></trkpt>
<trkpt lat="53.080834" lon="-4.132789"><ele>467</ele><time>2020-09-18T12:07:08Z</time><name>PT3210</name></trkpt>
<trkpt lat="53.080834" lon="-4.132781"><ele>466</ele><time>2020-09-18T12:07:11Z</time><name>PT3211</name></trkpt>
<trkpt lat="53.080832" lon="-4.132772"><ele>466</ele><time>2020-09-18T12:07:14Z</time><name>PT3212</name></trkpt>
<trkpt lat="53.080827" lon="-4.132772"><ele>467</ele><time>2020-09-18T12:09:55Z</time><name>PT3213</name></trkpt>
<trkpt lat="53.080825" lon="-4.132774"><ele>467</ele><time>2020-09-18T12:09:58Z</time><name>PT3214</name></trkpt>
<trkpt lat="53.080838" lon="-4.132776"><ele>466</ele><time>2020-09-18T12:11:41Z</time><name>PT3215</name></trkpt>
<trkpt lat="53.080840" lon="-4.132775"><ele>466</ele><time>2020-09-18T12:11:44Z</time><name>PT3216</name></trkpt>
<trkpt lat="53.080838" lon="-4.132778"><ele>466</ele><time>2020-09-18T12:12:13Z</time><name>PT3217</name></trkpt>
<trkpt lat="53.080828" lon="-4.132777"><ele>466</ele><time>2020-09-18T12:12:17Z</time><name>PT3218</name></trkpt>
<trkpt lat="53.080819" lon="-4.132774"><ele>466</ele><time>2020-09-18T12:13:11Z</time><name>PT3219</name></trkpt>
<trkpt lat="53.080805" lon="-4.132778"><ele>466</ele><time>2020-09-18T12:13:16Z</time><name>PT3220</name></trkpt>
<trkpt lat="53.080811" lon="-4.132792"><ele>467</ele><time>2020-09-18T12:13:19Z</time><name>PT3221</name></trkpt>
<trkpt lat="53.080814" lon="-4.132793"><ele>467</ele><time>2020-09-18T12:13:23Z</time><name>PT3222</name></trkpt>
<trkpt lat="53.080809" lon="-4.132789"><ele>466</ele><time>2020-09-18T12:13:26Z</time><name>PT3223</name></trkpt>
<trkpt lat="53.080821" lon="-4.132789"><ele>466</ele><time>2020-09-18T12:13:37Z</time><name>PT3224</name></trkpt>
<trkpt lat="53.080825" lon="-4.132787"><ele>467</ele><time>2020-09-18T12:13:41Z</time><name>PT3225</name></trkpt>
<trkpt lat="53.080820" lon="-4.132782"><ele>467</ele><time>2020-09-18T12:13:44Z</time><name>PT3226</name></trkpt>
<trkpt lat="53.080824" lon="-4.132787"><ele>467</ele><time>2020-09-18T12:13:53Z</time><name>PT3227</name></trkpt>
<trkpt lat="53.080821" lon="-4.132796"><ele>468</ele><time>2020-09-18T12:13:56Z</time><name>PT3228</name></trkpt>
<trkpt lat="53.080818" lon="-4.132795"><ele>468</ele><time>2020-09-18T12:14:01Z</time><name>PT3229</name></trkpt>
<trkpt lat="53.080819" lon="-4.132803"><ele>468</ele><time>2020-09-18T12:14:05Z</time><name>PT3230</name></trkpt>
<trkpt lat="53.080819" lon="-4.132807"><ele>469</ele><time>2020-09-18T12:14:08Z</time><name>PT3231</name></trkpt>
<trkpt lat="53.080823" lon="-4.132807"><ele>469</ele><time>2020-09-18T12:14:11Z</time><name>PT3232</name></trkpt>
<trkpt lat="53.080839" lon="-4.132813"><ele>470</ele><time>2020-09-18T12:14:20Z</time><name>PT3233</name></trkpt>
<trkpt lat="53.080844" lon="-4.132811"><ele>470</ele><time>2020-09-18T12:14:23Z</time><name>PT3234</name></trkpt>
<trkpt lat="53.080845" lon="-4.132812"><ele>470</ele><time>2020-09-18T12:14:28Z</time><name>PT3235</name></trkpt>
<trkpt lat="53.080839" lon="-4.132812"><ele>470</ele><time>2020-09-18T12:15:03Z</time><name>PT3236</name></trkpt>
<trkpt lat="53.080841" lon="-4.132808"><ele>471</ele><time>2020-09-18T12:15:07Z</time><name>PT3237</name></trkpt>
<trkpt lat="53.080839" lon="-4.132803"><ele>472</ele><time>2020-09-18T12:15:22Z</time><name>PT3238</name></trkpt>
<trkpt lat="53.080840" lon="-4.132798"><ele>472</ele><time>2020-09-18T12:15:25Z</time><name>PT3239</name></trkpt>
<trkpt lat="53.080842" lon="-4.132799"><ele>471</ele><time>2020-09-18T12:16:50Z</time><name>PT3240</name></trkpt>
<trkpt lat="53.080841" lon="-4.132799"><ele>471</ele><time>2020-09-18T12:16:53Z</time><name>PT3241</name></trkpt>
<trkpt lat="53.080840" lon="-4.132793"><ele>470</ele><time>2020-09-18T12:16:56Z</time><name>PT3242</name></trkpt>
<trkpt lat="53.080839" lon="-4.132788"><ele>470</ele><time>2020-09-18T12:17:04Z</time><name>PT3243</name></trkpt>
<trkpt lat="53.080839" lon="-4.132788"><ele>469</ele><time>2020-09-18T12:17:17Z</time><name>PT3244</name></trkpt>
<trkpt lat="53.080835" lon="-4.132786"><ele>469</ele><time>2020-09-18T12:17:21Z</time><name>PT3245</name></trkpt>
<trkpt lat="53.080835" lon="-4.132790"><ele>469</ele><time>2020-09-18T12:17:43Z</time><name>PT3246</name></trkpt>
<trkpt lat="53.080831" lon="-4.132793"><ele>469</ele><time>2020-09-18T12:17:47Z</time><name>PT3247</name></trkpt>
<trkpt lat="53.080836" lon="-4.132796"><ele>469</ele><time>2020-09-18T12:18:40Z</time><name>PT3248</name></trkpt>
<trkpt lat="53.080837" lon="-4.132797"><ele>469</ele><time>2020-09-18T12:18:44Z</time><name>PT3249</name></trkpt>
<trkpt lat="53.080838" lon="-4.132797"><ele>469</ele><time>2020-09-18T12:18:52Z</time><name>PT3250</name></trkpt>
<trkpt lat="53.080838" lon="-4.132796"><ele>469</ele><time>2020-09-18T12:18:55Z</time><name>PT3251</name></trkpt>
<trkpt lat="53.080837" lon="-4.132800"><ele>468</ele><time>2020-09-18T12:19:43Z</time><name>PT3252</name></trkpt>
<trkpt lat="53.080838" lon="-4.132796"><ele>469</ele><time>2020-09-18T12:20:01Z</time><name>PT3253</name></trkpt>
<trkpt lat="53.080839" lon="-4.132798"><ele>468</ele><time>2020-09-18T12:20:05Z</time><name>PT3254</name></trkpt>
<trkpt lat="53.080841" lon="-4.132789"><ele>468</ele><time>2020-09-18T12:20:17Z</time><name>PT3255</name></trkpt>
<trkpt lat="53.080840" lon="-4.132786"><ele>468</ele><time>2020-09-18T12:20:43Z</time><name>PT3256</name></trkpt>
<trkpt lat="53.080831" lon="-4.132766"><ele>468</ele><time>2020-09-18T12:20:46Z</time><name>PT3257</name></trkpt>
<trkpt lat="53.080827" lon="-4.132766"><ele>468</ele><time>2020-09-18T12:20:49Z</time><name>PT3258</name></trkpt>
<trkpt lat="53.080818" lon="-4.132782"><ele>469</ele><time>2020-09-18T12:20:55Z</time><name>PT3259</name></trkpt>
<trkpt lat="53.080810" lon="-4.132794"><ele>468</ele><time>2020-09-18T12:20:59Z</time><name>PT3260</name></trkpt>
<trkpt lat="53.080797" lon="-4.132799"><ele>467</ele><time>2020-09-18T12:21:02Z</time><name>PT3261</name></trkpt>
<trkpt lat="53.080787" lon="-4.132789"><ele>467</ele><time>2020-09-18T12:21:05Z</time><name>PT3262</name></trkpt>
<trkpt lat="53.080784" lon="-4.132757"><ele>467</ele><time>2020-09-18T12:21:10Z</time><name>PT3263</name></trkpt>
<trkpt lat="53.080792" lon="-4.132709"><ele>468</ele><time>2020-09-18T12:21:13Z</time><name>PT3264</name></trkpt>
<trkpt lat="53.080808" lon="-4.132658"><ele>468</ele><time>2020-09-18T12:21:16Z</time><name>PT3265</name></trkpt>
<trkpt lat="53.080832" lon="-4.132596"><ele>469</ele><time>2020-09-18T12:21:20Z</time><name>PT3266</name></trkpt>
<trkpt lat="53.080850" lon="-4.132535"><ele>469</ele><time>2020-09-18T12:21:23Z</time><name>PT3267</name></trkpt>
<trkpt lat="53.080862" lon="-4.132474"><ele>469</ele><time>2020-09-18T12:21:28Z</time><name>PT3268</name></trkpt>
<trkpt lat="53.080876" lon="-4.132428"><ele>470</ele><time>2020-09-18T12:21:31Z</time><name>PT3269</name></trkpt>
<trkpt lat="53.080896" lon="-4.132375"><ele>469</ele><time>2020-09-18T12:21:35Z</time><name>PT3270</name></trkpt>
<trkpt lat="53.080921" lon="-4.132342"><ele>470</ele><time>2020-09-18T12:21:38Z</time><name>PT3271</name></trkpt>
<trkpt lat="53.080943" lon="-4.132310"><ele>471</ele><time>2020-09-18T12:21:43Z</time><name>PT3272</name></trkpt>
<trkpt lat="53.080958" lon="-4.132281"><ele>471</ele><time>2020-09-18T12:21:46Z</time><name>PT3273</name></trkpt>
<trkpt lat="53.080970" lon="-4.132250"><ele>471</ele><time>2020-09-18T12:21:49Z</time><name>PT3274</name></trkpt>
<trkpt lat="53.080983" lon="-4.132212"><ele>472</ele><time>2020-09-18T12:21:52Z</time><name>PT3275</name></trkpt>
<trkpt lat="53.080985" lon="-4.132169"><ele>472</ele><time>2020-09-18T12:21:55Z</time><name>PT3276</name></trkpt>
<trkpt lat="53.080995" lon="-4.132112"><ele>472</ele><time>2020-09-18T12:21:59Z</time><name>PT3277</name></trkpt>
<trkpt lat="53.081006" lon="-4.132051"><ele>472</ele><time>2020-09-18T12:22:02Z</time><name>PT3278</name></trkpt>
<trkpt lat="53.081018" lon="-4.132020"><ele>472</ele><time>2020-09-18T12:22:05Z</time><name>PT3279</name></trkpt>
<trkpt lat="53.081042" lon="-4.131985"><ele>473</ele><time>2020-09-18T12:22:10Z</time><name>PT3280</name></trkpt>
<trkpt lat="53.081062" lon="-4.131962"><ele>473</ele><time>2020-09-18T12:22:13Z</time><name>PT3281</name></trkpt>
<trkpt lat="53.081087" lon="-4.131919"><ele>474</ele><time>2020-09-18T12:22:17Z</time><name>PT3282</name></trkpt>
<trkpt lat="53.081107" lon="-4.131877"><ele>475</ele><time>2020-09-18T12:22:20Z</time><name>PT3283</name></trkpt>
<trkpt lat="53.081122" lon="-4.131839"><ele>475</ele><time>2020-09-18T12:22:23Z</time><name>PT3284</name></trkpt>
<trkpt lat="53.081142" lon="-4.131784"><ele>476</ele><time>2020-09-18T12:22:28Z</time><name>PT3285</name></trkpt>
<trkpt lat="53.081153" lon="-4.131744"><ele>477</ele><time>2020-09-18T12:22:31Z</time><name>PT3286</name></trkpt>
<trkpt lat="53.081170" lon="-4.131691"><ele>478</ele><time>2020-09-18T12:22:35Z</time><name>PT3287</name></trkpt>
<trkpt lat="53.081185" lon="-4.131642"><ele>478</ele><time>2020-09-18T12:22:38Z</time><name>PT3288</name></trkpt>
<trkpt lat="53.081208" lon="-4.131602"><ele>480</ele><time>2020-09-18T12:22:43Z</time><name>PT3289</name></trkpt>
<trkpt lat="53.081228" lon="-4.131564"><ele>481</ele><time>2020-09-18T12:22:47Z</time><name>PT3290</name></trkpt>
<trkpt lat="53.081237" lon="-4.131545"><ele>481</ele><time>2020-09-18T12:22:50Z</time><name>PT3291</name></trkpt>
<trkpt lat="53.081247" lon="-4.131522"><ele>483</ele><time>2020-09-18T12:22:53Z</time><name>PT3292</name></trkpt>
<trkpt lat="53.081256" lon="-4.131482"><ele>483</ele><time>2020-09-18T12:22:56Z</time><name>PT3293</name></trkpt>
<trkpt lat="53.081258" lon="-4.131426"><ele>484</ele><time>2020-09-18T12:23:01Z</time><name>PT3294</name></trkpt>
<trkpt lat="53.081252" lon="-4.131384"><ele>485</ele><time>2020-09-18T12:23:04Z</time><name>PT3295</name></trkpt>
<trkpt lat="53.081252" lon="-4.131330"><ele>485</ele><time>2020-09-18T12:23:08Z</time><name>PT3296</name></trkpt>
<trkpt lat="53.081257" lon="-4.131288"><ele>486</ele><time>2020-09-18T12:23:11Z</time><name>PT3297</name></trkpt>
<trkpt lat="53.081267" lon="-4.131254"><ele>487</ele><time>2020-09-18T12:23:14Z</time><name>PT3298</name></trkpt>
<trkpt lat="53.081272" lon="-4.131216"><ele>487</ele><time>2020-09-18T12:23:17Z</time><name>PT3299</name></trkpt>
<trkpt lat="53.081283" lon="-4.131173"><ele>488</ele><time>2020-09-18T12:23:22Z</time><name>PT3300</name></trkpt>
<trkpt lat="53.081286" lon="-4.131122"><ele>489</ele><time>2020-09-18T12:23:26Z</time><name>PT3301</name></trkpt>
<trkpt lat="53.081287" lon="-4.131081"><ele>489</ele><time>2020-09-18T12:23:29Z</time><name>PT3302</name></trkpt>
<trkpt lat="53.081295" lon="-4.131037"><ele>489</ele><time>2020-09-18T12:23:32Z</time><name>PT3303</name></trkpt>
<trkpt lat="53.081305" lon="-4.130995"><ele>490</ele><time>2020-09-18T12:23:35Z</time><name>PT3304</name></trkpt>
<trkpt lat="53.081318" lon="-4.130939"><ele>490</ele><time>2020-09-18T12:23:38Z</time><name>PT3305</name></trkpt>
<trkpt lat="53.081322" lon="-4.130902"><ele>491</ele><time>2020-09-18T12:23:42Z</time><name>PT3306</name></trkpt>
<trkpt lat="53.081328" lon="-4.130857"><ele>492</ele><time>2020-09-18T12:23:45Z</time><name>PT3307</name></trkpt>
<trkpt lat="53.081336" lon="-4.130809"><ele>491</ele><time>2020-09-18T12:23:48Z</time><name>PT3308</name></trkpt>
<trkpt lat="53.081343" lon="-4.130762"><ele>492</ele><time>2020-09-18T12:23:51Z</time><name>PT3309</name></trkpt>
<trkpt lat="53.081354" lon="-4.130696"><ele>493</ele><time>2020-09-18T12:23:55Z</time><name>PT3310</name></trkpt>
<trkpt lat="53.081360" lon="-4.130659"><ele>493</ele><time>2020-09-18T12:23:58Z</time><name>PT3311</name></trkpt>
<trkpt lat="53.081370" lon="-4.130610"><ele>494</ele><time>2020-09-18T12:24:02Z</time><name>PT3312</name></trkpt>
<trkpt lat="53.081380" lon="-4.130563"><ele>495</ele><time>2020-09-18T12:24:05Z</time><name>PT3313</name></trkpt>
<trkpt lat="53.081387" lon="-4.130526"><ele>495</ele><time>2020-09-18T12:24:08Z</time><name>PT3314</name></trkpt>
<trkpt lat="53.081380" lon="-4.130520"><ele>496</ele><time>2020-09-18T12:24:13Z</time><name>PT3315</name></trkpt>
<trkpt lat="53.081382" lon="-4.130489"><ele>496</ele><time>2020-09-18T12:24:17Z</time><name>PT3316</name></trkpt>
<trkpt lat="53.081385" lon="-4.130451"><ele>495</ele><time>2020-09-18T12:24:20Z</time><name>PT3317</name></trkpt>
<trkpt lat="53.081394" lon="-4.130401"><ele>497</ele><time>2020-09-18T12:24:23Z</time><name>PT3318</name></trkpt>
<trkpt lat="53.081406" lon="-4.130353"><ele>497</ele><time>2020-09-18T12:24:26Z</time><name>PT3319</name></trkpt>
<trkpt lat="53.081424" lon="-4.130322"><ele>498</ele><time>2020-09-18T12:24:29Z</time><name>PT3320</name></trkpt>
<trkpt lat="53.081443" lon="-4.130272"><ele>498</ele><time>2020-09-18T12:24:32Z</time><name>PT3321</name></trkpt>
<trkpt lat="53.081450" lon="-4.130233"><ele>498</ele><time>2020-09-18T12:24:37Z</time><name>PT3322</name></trkpt>
<trkpt lat="53.081457" lon="-4.130203"><ele>499</ele><time>2020-09-18T12:24:40Z</time><name>PT3323</name></trkpt>
<trkpt lat="53.081458" lon="-4.130170"><ele>500</ele><time>2020-09-18T12:24:44Z</time><name>PT3324</name></trkpt>
<trkpt lat="53.081462" lon="-4.130133"><ele>501</ele><time>2020-09-18T12:24:47Z</time><name>PT3325</name></trkpt>
<trkpt lat="53.081471" lon="-4.130096"><ele>501</ele><time>2020-09-18T12:24:50Z</time><name>PT3326</name></trkpt>
<trkpt lat="53.081473" lon="-4.130097"><ele>501</ele><time>2020-09-18T12:24:53Z</time><name>PT3327</name></trkpt>
<trkpt lat="53.081488" lon="-4.130044"><ele>502</ele><time>2020-09-18T12:24:58Z</time><name>PT3328</name></trkpt>
<trkpt lat="53.081490" lon="-4.129977"><ele>502</ele><time>2020-09-18T12:25:02Z</time><name>PT3329</name></trkpt>
<trkpt lat="53.081486" lon="-4.129941"><ele>502</ele><time>2020-09-18T12:25:05Z</time><name>PT3330</name></trkpt>
<trkpt lat="53.081482" lon="-4.129897"><ele>503</ele><time>2020-09-18T12:25:08Z</time><name>PT3331</name></trkpt>
<trkpt lat="53.081481" lon="-4.129854"><ele>504</ele><time>2020-09-18T12:25:13Z</time><name>PT3332</name></trkpt>
<trkpt lat="53.081480" lon="-4.129818"><ele>505</ele><time>2020-09-18T12:25:16Z</time><name>PT3333</name></trkpt>
<trkpt lat="53.081477" lon="-4.129777"><ele>506</ele><time>2020-09-18T12:25:20Z</time><name>PT3334</name></trkpt>
<trkpt lat="53.081472" lon="-4.129760"><ele>506</ele><time>2020-09-18T12:25:23Z</time><name>PT3335</name></trkpt>
<trkpt lat="53.081467" lon="-4.129743"><ele>506</ele><time>2020-09-18T12:25:26Z</time><name>PT3336</name></trkpt>
<trkpt lat="53.081465" lon="-4.129724"><ele>507</ele><time>2020-09-18T12:25:29Z</time><name>PT3337</name></trkpt>
<trkpt lat="53.081468" lon="-4.129678"><ele>507</ele><time>2020-09-18T12:25:34Z</time><name>PT3338</name></trkpt>
<trkpt lat="53.081459" lon="-4.129647"><ele>509</ele><time>2020-09-18T12:25:38Z</time><name>PT3339</name></trkpt>
<trkpt lat="53.081469" lon="-4.129578"><ele>511</ele><time>2020-09-18T12:25:41Z</time><name>PT3340</name></trkpt>
<trkpt lat="53.081481" lon="-4.129494"><ele>510</ele><time>2020-09-18T12:25:44Z</time><name>PT3341</name></trkpt>
<trkpt lat="53.081476" lon="-4.129499"><ele>509</ele><time>2020-09-18T12:25:47Z</time><name>PT3342</name></trkpt>
<trkpt lat="53.081486" lon="-4.129471"><ele>509</ele><time>2020-09-18T12:25:50Z</time><name>PT3343</name></trkpt>
<trkpt lat="53.081480" lon="-4.129437"><ele>510</ele><time>2020-09-18T12:25:55Z</time><name>PT3344</name></trkpt>
<trkpt lat="53.081482" lon="-4.129463"><ele>512</ele><time>2020-09-18T12:25:58Z</time><name>PT3345</name></trkpt>
<trkpt lat="53.081472" lon="-4.129497"><ele>510</ele><time>2020-09-18T12:26:02Z</time><name>PT3346</name></trkpt>
<trkpt lat="53.081467" lon="-4.129499"><ele>508</ele><time>2020-09-18T12:26:05Z</time><name>PT3347</name></trkpt>
<trkpt lat="53.081477" lon="-4.129524"><ele>512</ele><time>2020-09-18T12:26:08Z</time><name>PT3348</name></trkpt>
<trkpt lat="53.081480" lon="-4.129441"><ele>511</ele><time>2020-09-18T12:26:13Z</time><name>PT3349</name></trkpt>
<trkpt lat="53.081493" lon="-4.129347"><ele>517</ele><time>2020-09-18T12:26:17Z</time><name>PT3350</name></trkpt>
<trkpt lat="53.081510" lon="-4.129315"><ele>522</ele><time>2020-09-18T12:26:20Z</time><name>PT3351</name></trkpt>
<trkpt lat="53.081522" lon="-4.129255"><ele>523</ele><time>2020-09-18T12:26:23Z</time><name>PT3352</name></trkpt>
<trkpt lat="53.081511" lon="-4.129146"><ele>522</ele><time>2020-09-18T12:26:26Z</time><name>PT3353</name></trkpt>
<trkpt lat="53.081490" lon="-4.129071"><ele>521</ele><time>2020-09-18T12:26:31Z</time><name>PT3354</name></trkpt>
<trkpt lat="53.081481" lon="-4.129020"><ele>522</ele><time>2020-09-18T12:26:35Z</time><name>PT3355</name></trkpt>
<trkpt lat="53.081483" lon="-4.128977"><ele>522</ele><time>2020-09-18T12:26:38Z</time><name>PT3356</name></trkpt>
<trkpt lat="53.081483" lon="-4.128943"><ele>523</ele><time>2020-09-18T12:26:41Z</time><name>PT3357</name></trkpt>
<trkpt lat="53.081481" lon="-4.128904"><ele>524</ele><time>2020-09-18T12:26:46Z</time><name>PT3358</name></trkpt>
<trkpt lat="53.081488" lon="-4.128869"><ele>524</ele><time>2020-09-18T12:26:50Z</time><name>PT3359</name></trkpt>
<trkpt lat="53.081485" lon="-4.128847"><ele>524</ele><time>2020-09-18T12:26:53Z</time><name>PT3360</name></trkpt>
<trkpt lat="53.081486" lon="-4.128827"><ele>524</ele><time>2020-09-18T12:26:56Z</time><name>PT3361</name></trkpt>
<trkpt lat="53.081486" lon="-4.128791"><ele>525</ele><time>2020-09-18T12:26:59Z</time><name>PT3362</name></trkpt>
<trkpt lat="53.081480" lon="-4.128754"><ele>525</ele><time>2020-09-18T12:27:04Z</time><name>PT3363</name></trkpt>
<trkpt lat="53.081478" lon="-4.128723"><ele>525</ele><time>2020-09-18T12:27:07Z</time><name>PT3364</name></trkpt>
<trkpt lat="53.081478" lon="-4.128689"><ele>525</ele><time>2020-09-18T12:27:10Z</time><name>PT3365</name></trkpt>
<trkpt lat="53.081480" lon="-4.128637"><ele>526</ele><time>2020-09-18T12:27:14Z</time><name>PT3366</name></trkpt>
<trkpt lat="53.081478" lon="-4.128599"><ele>526</ele><time>2020-09-18T12:27:17Z</time><name>PT3367</name></trkpt>
<trkpt lat="53.081482" lon="-4.128567"><ele>527</ele><time>2020-09-18T12:27:20Z</time><name>PT3368</name></trkpt>
<trkpt lat="53.081485" lon="-4.128523"><ele>527</ele><time>2020-09-18T12:27:23Z</time><name>PT3369</name></trkpt>
<trkpt lat="53.081491" lon="-4.128499"><ele>528</ele><time>2020-09-18T12:27:26Z</time><name>PT3370</name></trkpt>
<trkpt lat="53.081491" lon="-4.128464"><ele>529</ele><time>2020-09-18T12:27:31Z</time><name>PT3371</name></trkpt>
<trkpt lat="53.081493" lon="-4.128430"><ele>530</ele><time>2020-09-18T12:27:34Z</time><name>PT3372</name></trkpt>
<trkpt lat="53.081495" lon="-4.128399"><ele>530</ele><time>2020-09-18T12:27:38Z</time><name>PT3373</name></trkpt>
<trkpt lat="53.081494" lon="-4.128373"><ele>531</ele><time>2020-09-18T12:27:41Z</time><name>PT3374</name></trkpt>
<trkpt lat="53.081495" lon="-4.128326"><ele>532</ele><time>2020-09-18T12:27:44Z</time><name>PT3375</name></trkpt>
<trkpt lat="53.081496" lon="-4.128292"><ele>533</ele><time>2020-09-18T12:27:48Z</time><name>PT3376</name></trkpt>
<trkpt lat="53.081496" lon="-4.128257"><ele>534</ele><time>2020-09-18T12:27:52Z</time><name>PT3377</name></trkpt>
<trkpt lat="53.081497" lon="-4.128227"><ele>535</ele><time>2020-09-18T12:27:56Z</time><name>PT3378</name></trkpt>
<trkpt lat="53.081497" lon="-4.128208"><ele>536</ele><time>2020-09-18T12:27:59Z</time><name>PT3379</name></trkpt>
<trkpt lat="53.081499" lon="-4.128176"><ele>537</ele><time>2020-09-18T12:28:03Z</time><name>PT3380</name></trkpt>
<trkpt lat="53.081497" lon="-4.128174"><ele>537</ele><time>2020-09-18T12:28:06Z</time><name>PT3381</name></trkpt>
<trkpt lat="53.081497" lon="-4.128158"><ele>537</ele><time>2020-09-18T12:28:10Z</time><name>PT3382</name></trkpt>
<trkpt lat="53.081498" lon="-4.128145"><ele>537</ele><time>2020-09-18T12:28:13Z</time><name>PT3383</name></trkpt>
<trkpt lat="53.081505" lon="-4.128113"><ele>539</ele><time>2020-09-18T12:28:16Z</time><name>PT3384</name></trkpt>
<trkpt lat="53.081509" lon="-4.128077"><ele>540</ele><time>2020-09-18T12:28:20Z</time><name>PT3385</name></trkpt>
<trkpt lat="53.081517" lon="-4.128044"><ele>540</ele><time>2020-09-18T12:28:23Z</time><name>PT3386</name></trkpt>
<trkpt lat="53.081524" lon="-4.128011"><ele>540</ele><time>2020-09-18T12:28:26Z</time><name>PT3387</name></trkpt>
<trkpt lat="53.081546" lon="-4.127976"><ele>541</ele><time>2020-09-18T12:28:29Z</time><name>PT3388</name></trkpt>
<trkpt lat="53.081562" lon="-4.127937"><ele>541</ele><time>2020-09-18T12:28:34Z</time><name>PT3389</name></trkpt>
<trkpt lat="53.081575" lon="-4.127902"><ele>542</ele><time>2020-09-18T12:28:37Z</time><name>PT3390</name></trkpt>
<trkpt lat="53.081596" lon="-4.127855"><ele>542</ele><time>2020-09-18T12:28:41Z</time><name>PT3391</name></trkpt>
<trkpt lat="53.081604" lon="-4.127823"><ele>542</ele><time>2020-09-18T12:28:44Z</time><name>PT3392</name></trkpt>
<trkpt lat="53.081614" lon="-4.127788"><ele>543</ele><time>2020-09-18T12:28:47Z</time><name>PT3393</name></trkpt>
<trkpt lat="53.081623" lon="-4.127740"><ele>544</ele><time>2020-09-18T12:28:50Z</time><name>PT3394</name></trkpt>
<trkpt lat="53.081633" lon="-4.127705"><ele>544</ele><time>2020-09-18T12:28:53Z</time><name>PT3395</name></trkpt>
<trkpt lat="53.081647" lon="-4.127668"><ele>544</ele><time>2020-09-18T12:28:58Z</time><name>PT3396</name></trkpt>
<trkpt lat="53.081655" lon="-4.127631"><ele>545</ele><time>2020-09-18T12:29:02Z</time><name>PT3397</name></trkpt>
<trkpt lat="53.081666" lon="-4.127595"><ele>546</ele><time>2020-09-18T12:29:05Z</time><name>PT3398</name></trkpt>
<trkpt lat="53.081671" lon="-4.127551"><ele>546</ele><time>2020-09-18T12:29:10Z</time><name>PT3399</name></trkpt>
<trkpt lat="53.081675" lon="-4.127511"><ele>546</ele><time>2020-09-18T12:29:14Z</time><name>PT3400</name></trkpt>
<trkpt lat="53.081679" lon="-4.127477"><ele>547</ele><time>2020-09-18T12:29:17Z</time><name>PT3401</name></trkpt>
<trkpt lat="53.081684" lon="-4.127442"><ele>548</ele><time>2020-09-18T12:29:20Z</time><name>PT3402</name></trkpt>
<trkpt lat="53.081687" lon="-4.127411"><ele>550</ele><time>2020-09-18T12:29:23Z</time><name>PT3403</name></trkpt>
<trkpt lat="53.081692" lon="-4.127367"><ele>550</ele><time>2020-09-18T12:29:26Z</time><name>PT3404</name></trkpt>
<trkpt lat="53.081695" lon="-4.127330"><ele>551</ele><time>2020-09-18T12:29:29Z</time><name>PT3405</name></trkpt>
<trkpt lat="53.081693" lon="-4.127299"><ele>552</ele><time>2020-09-18T12:29:32Z</time><name>PT3406</name></trkpt>
<trkpt lat="53.081686" lon="-4.127255"><ele>552</ele><time>2020-09-18T12:29:37Z</time><name>PT3407</name></trkpt>
<trkpt lat="53.081691" lon="-4.127220"><ele>553</ele><time>2020-09-18T12:29:40Z</time><name>PT3408</name></trkpt>
<trkpt lat="53.081691" lon="-4.127174"><ele>555</ele><time>2020-09-18T12:29:44Z</time><name>PT3409</name></trkpt>
<trkpt lat="53.081690" lon="-4.127136"><ele>555</ele><time>2020-09-18T12:29:47Z</time><name>PT3410</name></trkpt>
<trkpt lat="53.081692" lon="-4.127079"><ele>555</ele><time>2020-09-18T12:29:50Z</time><name>PT3411</name></trkpt>
<trkpt lat="53.081699" lon="-4.127021"><ele>555</ele><time>2020-09-18T12:29:53Z</time><name>PT3412</name></trkpt>
<trkpt lat="53.081698" lon="-4.126952"><ele>556</ele><time>2020-09-18T12:29:58Z</time><name>PT3413</name></trkpt>
<trkpt lat="53.081697" lon="-4.126900"><ele>556</ele><time>2020-09-18T12:30:01Z</time><name>PT3414</name></trkpt>
<trkpt lat="53.081690" lon="-4.126835"><ele>557</ele><time>2020-09-18T12:30:05Z</time><name>PT3415</name></trkpt>
<trkpt lat="53.081687" lon="-4.126793"><ele>557</ele><time>2020-09-18T12:30:08Z</time><name>PT3416</name></trkpt>
<trkpt lat="53.081677" lon="-4.126754"><ele>557</ele><time>2020-09-18T12:30:11Z</time><name>PT3417</name></trkpt>
<trkpt lat="53.081677" lon="-4.126694"><ele>557</ele><time>2020-09-18T12:30:16Z</time><name>PT3418</name></trkpt>
<trkpt lat="53.081680" lon="-4.126658"><ele>557</ele><time>2020-09-18T12:30:19Z</time><name>PT3419</name></trkpt>
<trkpt lat="53.081681" lon="-4.126628"><ele>558</ele><time>2020-09-18T12:30:23Z</time><name>PT3420</name></trkpt>
<trkpt lat="53.081683" lon="-4.126616"><ele>558</ele><time>2020-09-18T12:30:26Z</time><name>PT3421</name></trkpt>
<trkpt lat="53.081686" lon="-4.126603"><ele>559</ele><time>2020-09-18T12:30:29Z</time><name>PT3422</name></trkpt>
<trkpt lat="53.081703" lon="-4.126559"><ele>559</ele><time>2020-09-18T12:30:32Z</time><name>PT3423</name></trkpt>
<trkpt lat="53.081716" lon="-4.126499"><ele>559</ele><time>2020-09-18T12:30:37Z</time><name>PT3424</name></trkpt>
<trkpt lat="53.081741" lon="-4.126445"><ele>559</ele><time>2020-09-18T12:30:41Z</time><name>PT3425</name></trkpt>
<trkpt lat="53.081756" lon="-4.126408"><ele>559</ele><time>2020-09-18T12:30:44Z</time><name>PT3426</name></trkpt>
<trkpt lat="53.081774" lon="-4.126360"><ele>559</ele><time>2020-09-18T12:30:47Z</time><name>PT3427</name></trkpt>
<trkpt lat="53.081800" lon="-4.126295"><ele>558</ele><time>2020-09-18T12:30:50Z</time><name>PT3428</name></trkpt>
<trkpt lat="53.081823" lon="-4.126231"><ele>559</ele><time>2020-09-18T12:30:55Z</time><name>PT3429</name></trkpt>
<trkpt lat="53.081839" lon="-4.126188"><ele>558</ele><time>2020-09-18T12:30:58Z</time><name>PT3430</name></trkpt>
<trkpt lat="53.081856" lon="-4.126137"><ele>558</ele><time>2020-09-18T12:31:01Z</time><name>PT3431</name></trkpt>
<trkpt lat="53.081877" lon="-4.126087"><ele>558</ele><time>2020-09-18T12:31:04Z</time><name>PT3432</name></trkpt>
<trkpt lat="53.081907" lon="-4.126018"><ele>558</ele><time>2020-09-18T12:31:08Z</time><name>PT3433</name></trkpt>
<trkpt lat="53.081933" lon="-4.125955"><ele>558</ele><time>2020-09-18T12:31:11Z</time><name>PT3434</name></trkpt>
<trkpt lat="53.081960" lon="-4.125899"><ele>558</ele><time>2020-09-18T12:31:16Z</time><name>PT3435</name></trkpt>
<trkpt lat="53.081988" lon="-4.125851"><ele>557</ele><time>2020-09-18T12:31:20Z</time><name>PT3436</name></trkpt>
<trkpt lat="53.082019" lon="-4.125800"><ele>557</ele><time>2020-09-18T12:31:24Z</time><name>PT3437</name></trkpt>
<trkpt lat="53.082049" lon="-4.125743"><ele>557</ele><time>2020-09-18T12:31:28Z</time><name>PT3438</name></trkpt>
<trkpt lat="53.082070" lon="-4.125707"><ele>558</ele><time>2020-09-18T12:31:31Z</time><name>PT3439</name></trkpt>
<trkpt lat="53.082089" lon="-4.125666"><ele>558</ele><time>2020-09-18T12:31:34Z</time><name>PT3440</name></trkpt>
<trkpt lat="53.082114" lon="-4.125611"><ele>558</ele><time>2020-09-18T12:31:38Z</time><name>PT3441</name></trkpt>
<trkpt lat="53.082133" lon="-4.125567"><ele>558</ele><time>2020-09-18T12:31:41Z</time><name>PT3442</name></trkpt>
<trkpt lat="53.082159" lon="-4.125519"><ele>558</ele><time>2020-09-18T12:31:44Z</time><name>PT3443</name></trkpt>
<trkpt lat="53.082179" lon="-4.125480"><ele>559</ele><time>2020-09-18T12:31:47Z</time><name>PT3444</name></trkpt>
<trkpt lat="53.082207" lon="-4.125420"><ele>558</ele><time>2020-09-18T12:31:52Z</time><name>PT3445</name></trkpt>
<trkpt lat="53.082225" lon="-4.125379"><ele>557</ele><time>2020-09-18T12:31:55Z</time><name>PT3446</name></trkpt>
<trkpt lat="53.082244" lon="-4.125343"><ele>558</ele><time>2020-09-18T12:31:58Z</time><name>PT3447</name></trkpt>
<trkpt lat="53.082268" lon="-4.125305"><ele>559</ele><time>2020-09-18T12:32:02Z</time><name>PT3448</name></trkpt>
<trkpt lat="53.082283" lon="-4.125269"><ele>559</ele><time>2020-09-18T12:32:05Z</time><name>PT3449</name></trkpt>
<trkpt lat="53.082303" lon="-4.125224"><ele>559</ele><time>2020-09-18T12:32:08Z</time><name>PT3450</name></trkpt>
<trkpt lat="53.082317" lon="-4.125184"><ele>559</ele><time>2020-09-18T12:32:11Z</time><name>PT3451</name></trkpt>
<trkpt lat="53.082342" lon="-4.125130"><ele>560</ele><time>2020-09-18T12:32:16Z</time><name>PT3452</name></trkpt>
<trkpt lat="53.082357" lon="-4.125073"><ele>560</ele><time>2020-09-18T12:32:20Z</time><name>PT3453</name></trkpt>
<trkpt lat="53.082379" lon="-4.125025"><ele>562</ele><time>2020-09-18T12:32:23Z</time><name>PT3454</name></trkpt>
<trkpt lat="53.082401" lon="-4.124972"><ele>562</ele><time>2020-09-18T12:32:28Z</time><name>PT3455</name></trkpt>
<trkpt lat="53.082412" lon="-4.124933"><ele>563</ele><time>2020-09-18T12:32:32Z</time><name>PT3456</name></trkpt>
<trkpt lat="53.082427" lon="-4.124892"><ele>563</ele><time>2020-09-18T12:32:35Z</time><name>PT3457</name></trkpt>
<trkpt lat="53.082447" lon="-4.124845"><ele>564</ele><time>2020-09-18T12:32:38Z</time><name>PT3458</name></trkpt>
<trkpt lat="53.082457" lon="-4.124809"><ele>564</ele><time>2020-09-18T12:32:41Z</time><name>PT3459</name></trkpt>
<trkpt lat="53.082465" lon="-4.124768"><ele>564</ele><time>2020-09-18T12:32:44Z</time><name>PT3460</name></trkpt>
<trkpt lat="53.082480" lon="-4.124731"><ele>565</ele><time>2020-09-18T12:32:47Z</time><name>PT3461</name></trkpt>
<trkpt lat="53.082497" lon="-4.124677"><ele>566</ele><time>2020-09-18T12:32:52Z</time><name>PT3462</name></trkpt>
<trkpt lat="53.082511" lon="-4.124641"><ele>566</ele><time>2020-09-18T12:32:55Z</time><name>PT3463</name></trkpt>
<trkpt lat="53.082526" lon="-4.124605"><ele>566</ele><time>2020-09-18T12:32:58Z</time><name>PT3464</name></trkpt>
<trkpt lat="53.082545" lon="-4.124559"><ele>567</ele><time>2020-09-18T12:33:02Z</time><name>PT3465</name></trkpt>
<trkpt lat="53.082564" lon="-4.124515"><ele>567</ele><time>2020-09-18T12:33:05Z</time><name>PT3466</name></trkpt>
<trkpt lat="53.082583" lon="-4.124482"><ele>567</ele><time>2020-09-18T12:33:08Z</time><name>PT3467</name></trkpt>
<trkpt lat="53.082601" lon="-4.124459"><ele>568</ele><time>2020-09-18T12:33:11Z</time><name>PT3468</name></trkpt>
<trkpt lat="53.082623" lon="-4.124422"><ele>568</ele><time>2020-09-18T12:33:16Z</time><name>PT3469</name></trkpt>
<trkpt lat="53.082635" lon="-4.124394"><ele>569</ele><time>2020-09-18T12:33:19Z</time><name>PT3470</name></trkpt>
<trkpt lat="53.082654" lon="-4.124356"><ele>570</ele><time>2020-09-18T12:33:23Z</time><name>PT3471</name></trkpt>
<trkpt lat="53.082681" lon="-4.124299"><ele>571</ele><time>2020-09-18T12:33:26Z</time><name>PT3472</name></trkpt>
<trkpt lat="53.082696" lon="-4.124269"><ele>573</ele><time>2020-09-18T12:33:29Z</time><name>PT3473</name></trkpt>
<trkpt lat="53.082712" lon="-4.124230"><ele>573</ele><time>2020-09-18T12:33:32Z</time><name>PT3474</name></trkpt>
<trkpt lat="53.082738" lon="-4.124178"><ele>574</ele><time>2020-09-18T12:33:37Z</time><name>PT3475</name></trkpt>
<trkpt lat="53.082753" lon="-4.124151"><ele>574</ele><time>2020-09-18T12:33:40Z</time><name>PT3476</name></trkpt>
<trkpt lat="53.082775" lon="-4.124110"><ele>575</ele><time>2020-09-18T12:33:44Z</time><name>PT3477</name></trkpt>
<trkpt lat="53.082799" lon="-4.124070"><ele>576</ele><time>2020-09-18T12:33:47Z</time><name>PT3478</name></trkpt>
<trkpt lat="53.082813" lon="-4.124044"><ele>577</ele><time>2020-09-18T12:33:50Z</time><name>PT3479</name></trkpt>
<trkpt lat="53.082830" lon="-4.124009"><ele>577</ele><time>2020-09-18T12:33:55Z</time><name>PT3480</name></trkpt>
<trkpt lat="53.082851" lon="-4.123966"><ele>577</ele><time>2020-09-18T12:33:59Z</time><name>PT3481</name></trkpt>
<trkpt lat="53.082867" lon="-4.123930"><ele>577</ele><time>2020-09-18T12:34:02Z</time><name>PT3482</name></trkpt>
<trkpt lat="53.082888" lon="-4.123899"><ele>578</ele><time>2020-09-18T12:34:05Z</time><name>PT3483</name></trkpt>
<trkpt lat="53.082919" lon="-4.123853"><ele>578</ele><time>2020-09-18T12:34:08Z</time><name>PT3484</name></trkpt>
<trkpt lat="53.082937" lon="-4.123815"><ele>579</ele><time>2020-09-18T12:34:11Z</time><name>PT3485</name></trkpt>
<trkpt lat="53.082952" lon="-4.123778"><ele>579</ele><time>2020-09-18T12:34:14Z</time><name>PT3486</name></trkpt>
<trkpt lat="53.082971" lon="-4.123742"><ele>580</ele><time>2020-09-18T12:34:19Z</time><name>PT3487</name></trkpt>
<trkpt lat="53.082982" lon="-4.123719"><ele>581</ele><time>2020-09-18T12:34:22Z</time><name>PT3488</name></trkpt>
<trkpt lat="53.082997" lon="-4.123690"><ele>583</ele><time>2020-09-18T12:34:25Z</time><name>PT3489</name></trkpt>
<trkpt lat="53.083012" lon="-4.123652"><ele>583</ele><time>2020-09-18T12:34:29Z</time><name>PT3490</name></trkpt>
<trkpt lat="53.083023" lon="-4.123629"><ele>584</ele><time>2020-09-18T12:34:32Z</time><name>PT3491</name></trkpt>
<trkpt lat="53.083034" lon="-4.123599"><ele>584</ele><time>2020-09-18T12:34:35Z</time><name>PT3492</name></trkpt>
<trkpt lat="53.083047" lon="-4.123563"><ele>585</ele><time>2020-09-18T12:34:38Z</time><name>PT3493</name></trkpt>
<trkpt lat="53.083060" lon="-4.123524"><ele>586</ele><time>2020-09-18T12:34:43Z</time><name>PT3494</name></trkpt>
<trkpt lat="53.083075" lon="-4.123480"><ele>586</ele><time>2020-09-18T12:34:47Z</time><name>PT3495</name></trkpt>
<trkpt lat="53.083084" lon="-4.123444"><ele>586</ele><time>2020-09-18T12:34:50Z</time><name>PT3496</name></trkpt>
<trkpt lat="53.083090" lon="-4.123412"><ele>586</ele><time>2020-09-18T12:34:53Z</time><name>PT3497</name></trkpt>
<trkpt lat="53.083096" lon="-4.123382"><ele>587</ele><time>2020-09-18T12:34:56Z</time><name>PT3498</name></trkpt>
<trkpt lat="53.083111" lon="-4.123341"><ele>588</ele><time>2020-09-18T12:34:59Z</time><name>PT3499</name></trkpt>
<trkpt lat="53.083122" lon="-4.123299"><ele>588</ele><time>2020-09-18T12:35:04Z</time><name>PT3500</name></trkpt>
<trkpt lat="53.083134" lon="-4.123264"><ele>588</ele><time>2020-09-18T12:35:07Z</time><name>PT3501</name></trkpt>
<trkpt lat="53.083146" lon="-4.123228"><ele>588</ele><time>2020-09-18T12:35:10Z</time><name>PT3502</name></trkpt>
<trkpt lat="53.083157" lon="-4.123191"><ele>589</ele><time>2020-09-18T12:35:14Z</time><name>PT3503</name></trkpt>
<trkpt lat="53.083170" lon="-4.123157"><ele>590</ele><time>2020-09-18T12:35:17Z</time><name>PT3504</name></trkpt>
<trkpt lat="53.083185" lon="-4.123118"><ele>590</ele><time>2020-09-18T12:35:22Z</time><name>PT3505</name></trkpt>
<trkpt lat="53.083200" lon="-4.123085"><ele>591</ele><time>2020-09-18T12:35:25Z</time><name>PT3506</name></trkpt>
<trkpt lat="53.083214" lon="-4.123055"><ele>592</ele><time>2020-09-18T12:35:29Z</time><name>PT3507</name></trkpt>
<trkpt lat="53.083229" lon="-4.123030"><ele>593</ele><time>2020-09-18T12:35:32Z</time><name>PT3508</name></trkpt>
<trkpt lat="53.083243" lon="-4.123008"><ele>593</ele><time>2020-09-18T12:35:35Z</time><name>PT3509</name></trkpt>
<trkpt lat="53.083259" lon="-4.122985"><ele>594</ele><time>2020-09-18T12:35:38Z</time><name>PT3510</name></trkpt>
<trkpt lat="53.083280" lon="-4.122956"><ele>595</ele><time>2020-09-18T12:35:43Z</time><name>PT3511</name></trkpt>
<trkpt lat="53.083294" lon="-4.122924"><ele>595</ele><time>2020-09-18T12:35:46Z</time><name>PT3512</name></trkpt>
<trkpt lat="53.083308" lon="-4.122903"><ele>595</ele><time>2020-09-18T12:35:49Z</time><name>PT3513</name></trkpt>
<trkpt lat="53.083325" lon="-4.122872"><ele>596</ele><time>2020-09-18T12:35:53Z</time><name>PT3514</name></trkpt>
<trkpt lat="53.083338" lon="-4.122853"><ele>596</ele><time>2020-09-18T12:35:56Z</time><name>PT3515</name></trkpt>
<trkpt lat="53.083354" lon="-4.122811"><ele>597</ele><time>2020-09-18T12:35:59Z</time><name>PT3516</name></trkpt>
<trkpt lat="53.083364" lon="-4.122785"><ele>598</ele><time>2020-09-18T12:36:02Z</time><name>PT3517</name></trkpt>
<trkpt lat="53.083374" lon="-4.122746"><ele>600</ele><time>2020-09-18T12:36:07Z</time><name>PT3518</name></trkpt>
<trkpt lat="53.083374" lon="-4.122700"><ele>601</ele><time>2020-09-18T12:36:11Z</time><name>PT3519</name></trkpt>
<trkpt lat="53.083374" lon="-4.122662"><ele>601</ele><time>2020-09-18T12:36:14Z</time><name>PT3520</name></trkpt>
<trkpt lat="53.083369" lon="-4.122641"><ele>602</ele><time>2020-09-18T12:36:19Z</time><name>PT3521</name></trkpt>
<trkpt lat="53.083366" lon="-4.122619"><ele>601</ele><time>2020-09-18T12:36:22Z</time><name>PT3522</name></trkpt>
<trkpt lat="53.083365" lon="-4.122585"><ele>601</ele><time>2020-09-18T12:36:26Z</time><name>PT3523</name></trkpt>
<trkpt lat="53.083369" lon="-4.122563"><ele>601</ele><time>2020-09-18T12:36:29Z</time><name>PT3524</name></trkpt>
<trkpt lat="53.083371" lon="-4.122507"><ele>602</ele><time>2020-09-18T12:36:32Z</time><name>PT3525</name></trkpt>
<trkpt lat="53.083365" lon="-4.122446"><ele>602</ele><time>2020-09-18T12:36:37Z</time><name>PT3526</name></trkpt>
<trkpt lat="53.083365" lon="-4.122404"><ele>603</ele><time>2020-09-18T12:36:41Z</time><name>PT3527</name></trkpt>
<trkpt lat="53.083372" lon="-4.122367"><ele>604</ele><time>2020-09-18T12:36:44Z</time><name>PT3528</name></trkpt>
<trkpt lat="53.083384" lon="-4.122327"><ele>603</ele><time>2020-09-18T12:36:47Z</time><name>PT3529</name></trkpt>
<trkpt lat="53.083403" lon="-4.122273"><ele>603</ele><time>2020-09-18T12:36:52Z</time><name>PT3530</name></trkpt>
<trkpt lat="53.083416" lon="-4.122219"><ele>604</ele><time>2020-09-18T12:36:56Z</time><name>PT3531</name></trkpt>
<trkpt lat="53.083429" lon="-4.122172"><ele>605</ele><time>2020-09-18T12:36:59Z</time><name>PT3532</name></trkpt>
<trkpt lat="53.083442" lon="-4.122119"><ele>605</ele><time>2020-09-18T12:37:02Z</time><name>PT3533</name></trkpt>
<trkpt lat="53.083452" lon="-4.122085"><ele>606</ele><time>2020-09-18T12:37:05Z</time><name>PT3534</name></trkpt>
<trkpt lat="53.083466" lon="-4.122043"><ele>606</ele><time>2020-09-18T12:37:08Z</time><name>PT3535</name></trkpt>
<trkpt lat="53.083473" lon="-4.122004"><ele>607</ele><time>2020-09-18T12:37:11Z</time><name>PT3536</name></trkpt>
<trkpt lat="53.083480" lon="-4.121941"><ele>607</ele><time>2020-09-18T12:37:16Z</time><name>PT3537</name></trkpt>
<trkpt lat="53.083487" lon="-4.121884"><ele>607</ele><time>2020-09-18T12:37:20Z</time><name>PT3538</name></trkpt>
<trkpt lat="53.083492" lon="-4.121824"><ele>607</ele><time>2020-09-18T12:37:23Z</time><name>PT3539</name></trkpt>
<trkpt lat="53.083501" lon="-4.121786"><ele>607</ele><time>2020-09-18T12:37:26Z</time><name>PT3540</name></trkpt>
<trkpt lat="53.083508" lon="-4.121731"><ele>607</ele><time>2020-09-18T12:37:31Z</time><name>PT3541</name></trkpt>
<trkpt lat="53.083511" lon="-4.121698"><ele>608</ele><time>2020-09-18T12:37:34Z</time><name>PT3542</name></trkpt>
<trkpt lat="53.083523" lon="-4.121644"><ele>609</ele><time>2020-09-18T12:37:38Z</time><name>PT3543</name></trkpt>
<trkpt lat="53.083533" lon="-4.121606"><ele>609</ele><time>2020-09-18T12:37:41Z</time><name>PT3544</name></trkpt>
<trkpt lat="53.083542" lon="-4.121566"><ele>609</ele><time>2020-09-18T12:37:44Z</time><name>PT3545</name></trkpt>
<trkpt lat="53.083553" lon="-4.121504"><ele>610</ele><time>2020-09-18T12:37:47Z</time><name>PT3546</name></trkpt>
<trkpt lat="53.083559" lon="-4.121462"><ele>611</ele><time>2020-09-18T12:37:50Z</time><name>PT3547</name></trkpt>
<trkpt lat="53.083564" lon="-4.121409"><ele>611</ele><time>2020-09-18T12:37:55Z</time><name>PT3548</name></trkpt>
<trkpt lat="53.083570" lon="-4.121343"><ele>612</ele><time>2020-09-18T12:37:59Z</time><name>PT3549</name></trkpt>
<trkpt lat="53.083577" lon="-4.121301"><ele>613</ele><time>2020-09-18T12:38:02Z</time><name>PT3550</name></trkpt>
<trkpt lat="53.083581" lon="-4.121269"><ele>614</ele><time>2020-09-18T12:38:05Z</time><name>PT3551</name></trkpt>
<trkpt lat="53.083588" lon="-4.121207"><ele>615</ele><time>2020-09-18T12:38:08Z</time><name>PT3552</name></trkpt>
<trkpt lat="53.083594" lon="-4.121153"><ele>615</ele><time>2020-09-18T12:38:11Z</time><name>PT3553</name></trkpt>
<trkpt lat="53.083599" lon="-4.121094"><ele>616</ele><time>2020-09-18T12:38:16Z</time><name>PT3554</name></trkpt>
<trkpt lat="53.083605" lon="-4.121027"><ele>617</ele><time>2020-09-18T12:38:20Z</time><name>PT3555</name></trkpt>
<trkpt lat="53.083611" lon="-4.120962"><ele>618</ele><time>2020-09-18T12:38:23Z</time><name>PT3556</name></trkpt>
<trkpt lat="53.083616" lon="-4.120912"><ele>619</ele><time>2020-09-18T12:38:26Z</time><name>PT3557</name></trkpt>
<trkpt lat="53.083620" lon="-4.120856"><ele>619</ele><time>2020-09-18T12:38:31Z</time><name>PT3558</name></trkpt>
<trkpt lat="53.083623" lon="-4.120816"><ele>620</ele><time>2020-09-18T12:38:34Z</time><name>PT3559</name></trkpt>
<trkpt lat="53.083629" lon="-4.120763"><ele>621</ele><time>2020-09-18T12:38:38Z</time><name>PT3560</name></trkpt>
<trkpt lat="53.083636" lon="-4.120705"><ele>621</ele><time>2020-09-18T12:38:41Z</time><name>PT3561</name></trkpt>
<trkpt lat="53.083640" lon="-4.120657"><ele>621</ele><time>2020-09-18T12:38:46Z</time><name>PT3562</name></trkpt>
<trkpt lat="53.083645" lon="-4.120616"><ele>622</ele><time>2020-09-18T12:38:49Z</time><name>PT3563</name></trkpt>
<trkpt lat="53.083646" lon="-4.120558"><ele>622</ele><time>2020-09-18T12:38:53Z</time><name>PT3564</name></trkpt>
<trkpt lat="53.083649" lon="-4.120499"><ele>622</ele><time>2020-09-18T12:38:56Z</time><name>PT3565</name></trkpt>
<trkpt lat="53.083655" lon="-4.120439"><ele>624</ele><time>2020-09-18T12:39:01Z</time><name>PT3566</name></trkpt>
<trkpt lat="53.083660" lon="-4.120399"><ele>624</ele><time>2020-09-18T12:39:04Z</time><name>PT3567</name></trkpt>
<trkpt lat="53.083665" lon="-4.120354"><ele>624</ele><time>2020-09-18T12:39:07Z</time><name>PT3568</name></trkpt>
<trkpt lat="53.083672" lon="-4.120295"><ele>624</ele><time>2020-09-18T12:39:11Z</time><name>PT3569</name></trkpt>
<trkpt lat="53.083676" lon="-4.120256"><ele>625</ele><time>2020-09-18T12:39:14Z</time><name>PT3570</name></trkpt>
<trkpt lat="53.083680" lon="-4.120198"><ele>626</ele><time>2020-09-18T12:39:17Z</time><name>PT3571</name></trkpt>
<trkpt lat="53.083682" lon="-4.120154"><ele>626</ele><time>2020-09-18T12:39:20Z</time><name>PT3572</name></trkpt>
<trkpt lat="53.083689" lon="-4.120099"><ele>627</ele><time>2020-09-18T12:39:25Z</time><name>PT3573</name></trkpt>
<trkpt lat="53.083693" lon="-4.120048"><ele>628</ele><time>2020-09-18T12:39:28Z</time><name>PT3574</name></trkpt>
<trkpt lat="53.083700" lon="-4.119980"><ele>629</ele><time>2020-09-18T12:39:32Z</time><name>PT3575</name></trkpt>
<trkpt lat="53.083703" lon="-4.119929"><ele>629</ele><time>2020-09-18T12:39:35Z</time><name>PT3576</name></trkpt>
<trkpt lat="53.083703" lon="-4.119882"><ele>629</ele><time>2020-09-18T12:39:38Z</time><name>PT3577</name></trkpt>
<trkpt lat="53.083709" lon="-4.119814"><ele>630</ele><time>2020-09-18T12:39:43Z</time><name>PT3578</name></trkpt>
<trkpt lat="53.083716" lon="-4.119748"><ele>631</ele><time>2020-09-18T12:39:47Z</time><name>PT3579</name></trkpt>
<trkpt lat="53.083722" lon="-4.119699"><ele>631</ele><time>2020-09-18T12:39:50Z</time><name>PT3580</name></trkpt>
<trkpt lat="53.083726" lon="-4.119665"><ele>632</ele><time>2020-09-18T12:39:53Z</time><name>PT3581</name></trkpt>
<trkpt lat="53.083732" lon="-4.119598"><ele>633</ele><time>2020-09-18T12:39:56Z</time><name>PT3582</name></trkpt>
<trkpt lat="53.083729" lon="-4.119540"><ele>632</ele><time>2020-09-18T12:40:01Z</time><name>PT3583</name></trkpt>
<trkpt lat="53.083736" lon="-4.119477"><ele>632</ele><time>2020-09-18T12:40:05Z</time><name>PT3584</name></trkpt>
<trkpt lat="53.083746" lon="-4.119417"><ele>633</ele><time>2020-09-18T12:40:08Z</time><name>PT3585</name></trkpt>
<trkpt lat="53.083754" lon="-4.119341"><ele>633</ele><time>2020-09-18T12:40:13Z</time><name>PT3586</name></trkpt>
<trkpt lat="53.083761" lon="-4.119272"><ele>633</ele><time>2020-09-18T12:40:17Z</time><name>PT3587</name></trkpt>
<trkpt lat="53.083768" lon="-4.119197"><ele>634</ele><time>2020-09-18T12:40:20Z</time><name>PT3588</name></trkpt>
<trkpt lat="53.083777" lon="-4.119139"><ele>635</ele><time>2020-09-18T12:40:23Z</time><name>PT3589</name></trkpt>
<trkpt lat="53.083785" lon="-4.119082"><ele>635</ele><time>2020-09-18T12:40:26Z</time><name>PT3590</name></trkpt>
<trkpt lat="53.083789" lon="-4.119034"><ele>636</ele><time>2020-09-18T12:40:29Z</time><name>PT3591</name></trkpt>
<trkpt lat="53.083795" lon="-4.118983"><ele>635</ele><time>2020-09-18T12:40:34Z</time><name>PT3592</name></trkpt>
<trkpt lat="53.083804" lon="-4.118924"><ele>635</ele><time>2020-09-18T12:40:37Z</time><name>PT3593</name></trkpt>
<trkpt lat="53.083806" lon="-4.118905"><ele>635</ele><time>2020-09-18T12:40:38Z</time><name>PT3594</name></trkpt>
<trkpt lat="53.083808" lon="-4.118886"><ele>635</ele><time>2020-09-18T12:40:38Z</time><name>PT3595</name></trkpt>
<trkpt lat="53.083811" lon="-4.118871"><ele>635</ele><time>2020-09-18T12:40:40Z</time><name>PT3596</name></trkpt>
<trkpt lat="53.083814" lon="-4.118855"><ele>635</ele><time>2020-09-18T12:40:41Z</time><name>PT3597</name></trkpt>
<trkpt lat="53.083817" lon="-4.118839"><ele>635</ele><time>2020-09-18T12:40:41Z</time><name>PT3598</name></trkpt>
<trkpt lat="53.083820" lon="-4.118822"><ele>635</ele><time>2020-09-18T12:40:43Z</time><name>PT3599</name></trkpt>
<trkpt lat="53.083822" lon="-4.118806"><ele>635</ele><time>2020-09-18T12:40:44Z</time><name>PT3600</name></trkpt>
<trkpt lat="53.083826" lon="-4.118786"><ele>635</ele><time>2020-09-18T12:40:44Z</time><name>PT3601</name></trkpt>
<trkpt lat="53.083830" lon="-4.118772"><ele>635</ele><time>2020-09-18T12:40:46Z</time><name>PT3602</name></trkpt>
<trkpt lat="53.083834" lon="-4.118760"><ele>635</ele><time>2020-09-18T12:40:47Z</time><name>PT3603</name></trkpt>
<trkpt lat="53.083837" lon="-4.118743"><ele>636</ele><time>2020-09-18T12:40:47Z</time><name>PT3604</name></trkpt>
<trkpt lat="53.083837" lon="-4.118726"><ele>636</ele><time>2020-09-18T12:40:49Z</time><name>PT3605</name></trkpt>
<trkpt lat="53.083838" lon="-4.118710"><ele>636</ele><time>2020-09-18T12:40:50Z</time><name>PT3606</name></trkpt>
<trkpt lat="53.083838" lon="-4.118698"><ele>636</ele><time>2020-09-18T12:40:50Z</time><name>PT3607</name></trkpt>
<trkpt lat="53.083839" lon="-4.118685"><ele>636</ele><time>2020-09-18T12:40:52Z</time><name>PT3608</name></trkpt>
<trkpt lat="53.083841" lon="-4.118674"><ele>637</ele><time>2020-09-18T12:40:53Z</time><name>PT3609</name></trkpt>
<trkpt lat="53.083843" lon="-4.118659"><ele>637</ele><time>2020-09-18T12:40:53Z</time><name>PT3610</name></trkpt>
<trkpt lat="53.083843" lon="-4.118642"><ele>637</ele><time>2020-09-18T12:40:55Z</time><name>PT3611</name></trkpt>
<trkpt lat="53.083845" lon="-4.118632"><ele>637</ele><time>2020-09-18T12:40:56Z</time><name>PT3612</name></trkpt>
<trkpt lat="53.083848" lon="-4.118620"><ele>637</ele><time>2020-09-18T12:40:56Z</time><name>PT3613</name></trkpt>
<trkpt lat="53.083851" lon="-4.118606"><ele>637</ele><time>2020-09-18T12:40:58Z</time><name>PT3614</name></trkpt>
<trkpt lat="53.083854" lon="-4.118592"><ele>637</ele><time>2020-09-18T12:40:59Z</time><name>PT3615</name></trkpt>
<trkpt lat="53.083858" lon="-4.118579"><ele>637</ele><time>2020-09-18T12:41:00Z</time><name>PT3616</name></trkpt>
<trkpt lat="53.083860" lon="-4.118561"><ele>638</ele><time>2020-09-18T12:41:01Z</time><name>PT3617</name></trkpt>
<trkpt lat="53.083860" lon="-4.118548"><ele>638</ele><time>2020-09-18T12:41:02Z</time><name>PT3618</name></trkpt>
<trkpt lat="53.083863" lon="-4.118535"><ele>638</ele><time>2020-09-18T12:41:02Z</time><name>PT3619</name></trkpt>
<trkpt lat="53.083864" lon="-4.118519"><ele>638</ele><time>2020-09-18T12:41:04Z</time><name>PT3620</name></trkpt>
<trkpt lat="53.083865" lon="-4.118506"><ele>638</ele><time>2020-09-18T12:41:05Z</time><name>PT3621</name></trkpt>
<trkpt lat="53.083869" lon="-4.118495"><ele>638</ele><time>2020-09-18T12:41:05Z</time><name>PT3622</name></trkpt>
<trkpt lat="53.083874" lon="-4.118484"><ele>638</ele><time>2020-09-18T12:41:07Z</time><name>PT3623</name></trkpt>
<trkpt lat="53.083877" lon="-4.118471"><ele>637</ele><time>2020-09-18T12:41:08Z</time><name>PT3624</name></trkpt>
<trkpt lat="53.083879" lon="-4.118457"><ele>638</ele><time>2020-09-18T12:41:08Z</time><name>PT3625</name></trkpt>
<trkpt lat="53.083882" lon="-4.118437"><ele>638</ele><time>2020-09-18T12:41:10Z</time><name>PT3626</name></trkpt>
<trkpt lat="53.083885" lon="-4.118416"><ele>638</ele><time>2020-09-18T12:41:11Z</time><name>PT3627</name></trkpt>
<trkpt lat="53.083889" lon="-4.118395"><ele>638</ele><time>2020-09-18T12:41:11Z</time><name>PT3628</name></trkpt>
<trkpt lat="53.083892" lon="-4.118381"><ele>637</ele><time>2020-09-18T12:41:13Z</time><name>PT3629</name></trkpt>
<trkpt lat="53.083895" lon="-4.118362"><ele>637</ele><time>2020-09-18T12:41:14Z</time><name>PT3630</name></trkpt>
<trkpt lat="53.083897" lon="-4.118343"><ele>637</ele><time>2020-09-18T12:41:14Z</time><name>PT3631</name></trkpt>
<trkpt lat="53.083900" lon="-4.118325"><ele>637</ele><time>2020-09-18T12:41:16Z</time><name>PT3632</name></trkpt>
<trkpt lat="53.083903" lon="-4.118309"><ele>637</ele><time>2020-09-18T12:41:17Z</time><name>PT3633</name></trkpt>
<trkpt lat="53.083906" lon="-4.118289"><ele>637</ele><time>2020-09-18T12:41:17Z</time><name>PT3634</name></trkpt>
<trkpt lat="53.083908" lon="-4.118272"><ele>637</ele><time>2020-09-18T12:41:19Z</time><name>PT3635</name></trkpt>
<trkpt lat="53.083911" lon="-4.118260"><ele>638</ele><time>2020-09-18T12:41:20Z</time><name>PT3636</name></trkpt>
<trkpt lat="53.083913" lon="-4.118248"><ele>638</ele><time>2020-09-18T12:41:20Z</time><name>PT3637</name></trkpt>
<trkpt lat="53.083915" lon="-4.118232"><ele>638</ele><time>2020-09-18T12:41:22Z</time><name>PT3638</name></trkpt>
<trkpt lat="53.083916" lon="-4.118218"><ele>638</ele><time>2020-09-18T12:41:23Z</time><name>PT3639</name></trkpt>
<trkpt lat="53.083919" lon="-4.118199"><ele>639</ele><time>2020-09-18T12:41:24Z</time><name>PT3640</name></trkpt>
<trkpt lat="53.083921" lon="-4.118185"><ele>639</ele><time>2020-09-18T12:41:25Z</time><name>PT3641</name></trkpt>
<trkpt lat="53.083925" lon="-4.118170"><ele>639</ele><time>2020-09-18T12:41:26Z</time><name>PT3642</name></trkpt>
<trkpt lat="53.083928" lon="-4.118152"><ele>639</ele><time>2020-09-18T12:41:27Z</time><name>PT3643</name></trkpt>
<trkpt lat="53.083931" lon="-4.118137"><ele>640</ele><time>2020-09-18T12:41:28Z</time><name>PT3644</name></trkpt>
<trkpt lat="53.083934" lon="-4.118120"><ele>640</ele><time>2020-09-18T12:41:29Z</time><name>PT3645</name></trkpt>
<trkpt lat="53.083935" lon="-4.118108"><ele>640</ele><time>2020-09-18T12:41:30Z</time><name>PT3646</name></trkpt>
<trkpt lat="53.083940" lon="-4.118091"><ele>641</ele><time>2020-09-18T12:41:31Z</time><name>PT3647</name></trkpt>
<trkpt lat="53.083944" lon="-4.118075"><ele>641</ele><time>2020-09-18T12:41:32Z</time><name>PT3648</name></trkpt>
<trkpt lat="53.083946" lon="-4.118059"><ele>641</ele><time>2020-09-18T12:41:33Z</time><name>PT3649</name></trkpt>
<trkpt lat="53.083949" lon="-4.118046"><ele>641</ele><time>2020-09-18T12:41:34Z</time><name>PT3650</name></trkpt>
<trkpt lat="53.083953" lon="-4.118029"><ele>641</ele><time>2020-09-18T12:41:35Z</time><name>PT3651</name></trkpt>
<trkpt lat="53.083956" lon="-4.118015"><ele>641</ele><time>2020-09-18T12:41:36Z</time><name>PT3652</name></trkpt>
<trkpt lat="53.083956" lon="-4.117997"><ele>641</ele><time>2020-09-18T12:41:37Z</time><name>PT3653</name></trkpt>
<trkpt lat="53.083958" lon="-4.117979"><ele>641</ele><time>2020-09-18T12:41:38Z</time><name>PT3654</name></trkpt>
<trkpt lat="53.083959" lon="-4.117959"><ele>642</ele><time>2020-09-18T12:41:39Z</time><name>PT3655</name></trkpt>
<trkpt lat="53.083961" lon="-4.117942"><ele>642</ele><time>2020-09-18T12:41:40Z</time><name>PT3656</name></trkpt>
<trkpt lat="53.083960" lon="-4.117923"><ele>642</ele><time>2020-09-18T12:41:41Z</time><name>PT3657</name></trkpt>
<trkpt lat="53.083960" lon="-4.117904"><ele>642</ele><time>2020-09-18T12:41:42Z</time><name>PT3658</name></trkpt>
<trkpt lat="53.083959" lon="-4.117888"><ele>642</ele><time>2020-09-18T12:41:43Z</time><name>PT3659</name></trkpt>
<trkpt lat="53.083959" lon="-4.117872"><ele>642</ele><time>2020-09-18T12:41:44Z</time><name>PT3660</name></trkpt>
<trkpt lat="53.083959" lon="-4.117855"><ele>642</ele><time>2020-09-18T12:41:44Z</time><name>PT3661</name></trkpt>
<trkpt lat="53.083959" lon="-4.117836"><ele>642</ele><time>2020-09-18T12:41:46Z</time><name>PT3662</name></trkpt>
<trkpt lat="53.083960" lon="-4.117817"><ele>642</ele><time>2020-09-18T12:41:47Z</time><name>PT3663</name></trkpt>
<trkpt lat="53.083959" lon="-4.117802"><ele>643</ele><time>2020-09-18T12:41:47Z</time><name>PT3664</name></trkpt>
<trkpt lat="53.083958" lon="-4.117784"><ele>643</ele><time>2020-09-18T12:41:49Z</time><name>PT3665</name></trkpt>
<trkpt lat="53.083957" lon="-4.117769"><ele>644</ele><time>2020-09-18T12:41:50Z</time><name>PT3666</name></trkpt>
<trkpt lat="53.083958" lon="-4.117754"><ele>644</ele><time>2020-09-18T12:41:50Z</time><name>PT3667</name></trkpt>
<trkpt lat="53.083959" lon="-4.117739"><ele>644</ele><time>2020-09-18T12:41:52Z</time><name>PT3668</name></trkpt>
<trkpt lat="53.083959" lon="-4.117722"><ele>644</ele><time>2020-09-18T12:41:53Z</time><name>PT3669</name></trkpt>
<trkpt lat="53.083957" lon="-4.117705"><ele>644</ele><time>2020-09-18T12:41:53Z</time><name>PT3670</name></trkpt>
<trkpt lat="53.083956" lon="-4.117690"><ele>644</ele><time>2020-09-18T12:41:55Z</time><name>PT3671</name></trkpt>
<trkpt lat="53.083956" lon="-4.117673"><ele>645</ele><time>2020-09-18T12:41:56Z</time><name>PT3672</name></trkpt>
<trkpt lat="53.083957" lon="-4.117657"><ele>645</ele><time>2020-09-18T12:41:56Z</time><name>PT3673</name></trkpt>
<trkpt lat="53.083955" lon="-4.117640"><ele>645</ele><time>2020-09-18T12:41:58Z</time><name>PT3674</name></trkpt>
<trkpt lat="53.083954" lon="-4.117622"><ele>645</ele><time>2020-09-18T12:41:59Z</time><name>PT3675</name></trkpt>
<trkpt lat="53.083955" lon="-4.117606"><ele>646</ele><time>2020-09-18T12:41:59Z</time><name>PT3676</name></trkpt>
<trkpt lat="53.083956" lon="-4.117594"><ele>646</ele><time>2020-09-18T12:42:01Z</time><name>PT3677</name></trkpt>
<trkpt lat="53.083955" lon="-4.117575"><ele>646</ele><time>2020-09-18T12:42:02Z</time><name>PT3678</name></trkpt>
<trkpt lat="53.083954" lon="-4.117560"><ele>646</ele><time>2020-09-18T12:42:02Z</time><name>PT3679</name></trkpt>
<trkpt lat="53.083956" lon="-4.117539"><ele>646</ele><time>2020-09-18T12:42:04Z</time><name>PT3680</name></trkpt>
<trkpt lat="53.083956" lon="-4.117524"><ele>646</ele><time>2020-09-18T12:42:05Z</time><name>PT3681</name></trkpt>
<trkpt lat="53.083957" lon="-4.117508"><ele>646</ele><time>2020-09-18T12:42:05Z</time><name>PT3682</name></trkpt>
<trkpt lat="53.083958" lon="-4.117494"><ele>646</ele><time>2020-09-18T12:42:07Z</time><name>PT3683</name></trkpt>
<trkpt lat="53.083959" lon="-4.117478"><ele>646</ele><time>2020-09-18T12:42:08Z</time><name>PT3684</name></trkpt>
<trkpt lat="53.083957" lon="-4.117463"><ele>646</ele><time>2020-09-18T12:42:08Z</time><name>PT3685</name></trkpt>
<trkpt lat="53.083957" lon="-4.117447"><ele>646</ele><time>2020-09-18T12:42:10Z</time><name>PT3686</name></trkpt>
<trkpt lat="53.083958" lon="-4.117431"><ele>646</ele><time>2020-09-18T12:42:11Z</time><name>PT3687</name></trkpt>
<trkpt lat="53.083958" lon="-4.117418"><ele>645</ele><time>2020-09-18T12:42:11Z</time><name>PT3688</name></trkpt>
<trkpt lat="53.083959" lon="-4.117401"><ele>645</ele><time>2020-09-18T12:42:13Z</time><name>PT3689</name></trkpt>
<trkpt lat="53.083959" lon="-4.117386"><ele>645</ele><time>2020-09-18T12:42:14Z</time><name>PT3690</name></trkpt>
<trkpt lat="53.083961" lon="-4.117370"><ele>646</ele><time>2020-09-18T12:42:14Z</time><name>PT3691</name></trkpt>
<trkpt lat="53.083962" lon="-4.117354"><ele>646</ele><time>2020-09-18T12:42:16Z</time><name>PT3692</name></trkpt>
<trkpt lat="53.083963" lon="-4.117337"><ele>645</ele><time>2020-09-18T12:42:17Z</time><name>PT3693</name></trkpt>
<trkpt lat="53.083964" lon="-4.117318"><ele>646</ele><time>2020-09-18T12:42:18Z</time><name>PT3694</name></trkpt>
<trkpt lat="53.083967" lon="-4.117299"><ele>646</ele><time>2020-09-18T12:42:19Z</time><name>PT3695</name></trkpt>
<trkpt lat="53.083969" lon="-4.117279"><ele>646</ele><time>2020-09-18T12:42:20Z</time><name>PT3696</name></trkpt>
<trkpt lat="53.083970" lon="-4.117261"><ele>646</ele><time>2020-09-18T12:42:21Z</time><name>PT3697</name></trkpt>
<trkpt lat="53.083972" lon="-4.117248"><ele>646</ele><time>2020-09-18T12:42:22Z</time><name>PT3698</name></trkpt>
<trkpt lat="53.083976" lon="-4.117228"><ele>646</ele><time>2020-09-18T12:42:23Z</time><name>PT3699</name></trkpt>
<trkpt lat="53.083978" lon="-4.117212"><ele>646</ele><time>2020-09-18T12:42:24Z</time><name>PT3700</name></trkpt>
<trkpt lat="53.083980" lon="-4.117194"><ele>646</ele><time>2020-09-18T12:42:25Z</time><name>PT3701</name></trkpt>
<trkpt lat="53.083983" lon="-4.117175"><ele>646</ele><time>2020-09-18T12:42:26Z</time><name>PT3702</name></trkpt>
<trkpt lat="53.083988" lon="-4.117161"><ele>646</ele><time>2020-09-18T12:42:27Z</time><name>PT3703</name></trkpt>
<trkpt lat="53.083991" lon="-4.117145"><ele>646</ele><time>2020-09-18T12:42:28Z</time><name>PT3704</name></trkpt>
<trkpt lat="53.083997" lon="-4.117129"><ele>646</ele><time>2020-09-18T12:42:29Z</time><name>PT3705</name></trkpt>
<trkpt lat="53.084003" lon="-4.117114"><ele>646</ele><time>2020-09-18T12:42:29Z</time><name>PT3706</name></trkpt>
<trkpt lat="53.084009" lon="-4.117101"><ele>647</ele><time>2020-09-18T12:42:31Z</time><name>PT3707</name></trkpt>
<trkpt lat="53.084016" lon="-4.117086"><ele>647</ele><time>2020-09-18T12:42:32Z</time><name>PT3708</name></trkpt>
<trkpt lat="53.084020" lon="-4.117072"><ele>647</ele><time>2020-09-18T12:42:32Z</time><name>PT3709</name></trkpt>
<trkpt lat="53.084024" lon="-4.117056"><ele>647</ele><time>2020-09-18T12:42:34Z</time><name>PT3710</name></trkpt>
<trkpt lat="53.084028" lon="-4.117037"><ele>647</ele><time>2020-09-18T12:42:35Z</time><name>PT3711</name></trkpt>
<trkpt lat="53.084034" lon="-4.117024"><ele>647</ele><time>2020-09-18T12:42:35Z</time><name>PT3712</name></trkpt>
<trkpt lat="53.084040" lon="-4.117010"><ele>647</ele><time>2020-09-18T12:42:37Z</time><name>PT3713</name></trkpt>
<trkpt lat="53.084044" lon="-4.116997"><ele>647</ele><time>2020-09-18T12:42:38Z</time><name>PT3714</name></trkpt>
<trkpt lat="53.084049" lon="-4.116982"><ele>647</ele><time>2020-09-18T12:42:38Z</time><name>PT3715</name></trkpt>
<trkpt lat="53.084054" lon="-4.116972"><ele>647</ele><time>2020-09-18T12:42:40Z</time><name>PT3716</name></trkpt>
<trkpt lat="53.084060" lon="-4.116957"><ele>648</ele><time>2020-09-18T12:42:41Z</time><name>PT3717</name></trkpt>
<trkpt lat="53.084064" lon="-4.116944"><ele>648</ele><time>2020-09-18T12:42:41Z</time><name>PT3718</name></trkpt>
<trkpt lat="53.084067" lon="-4.116928"><ele>648</ele><time>2020-09-18T12:42:43Z</time><name>PT3719</name></trkpt>
<trkpt lat="53.084072" lon="-4.116917"><ele>648</ele><time>2020-09-18T12:42:44Z</time><name>PT3720</name></trkpt>
<trkpt lat="53.084078" lon="-4.116908"><ele>648</ele><time>2020-09-18T12:42:44Z</time><name>PT3721</name></trkpt>
<trkpt lat="53.084083" lon="-4.116896"><ele>648</ele><time>2020-09-18T12:42:46Z</time><name>PT3722</name></trkpt>
<trkpt lat="53.084089" lon="-4.116881"><ele>649</ele><time>2020-09-18T12:42:47Z</time><name>PT3723</name></trkpt>
<trkpt lat="53.084093" lon="-4.116870"><ele>649</ele><time>2020-09-18T12:42:47Z</time><name>PT3724</name></trkpt>
<trkpt lat="53.084098" lon="-4.116859"><ele>649</ele><time>2020-09-18T12:42:49Z</time><name>PT3725</name></trkpt>
<trkpt lat="53.084104" lon="-4.116844"><ele>649</ele><time>2020-09-18T12:42:50Z</time><name>PT3726</name></trkpt>
<trkpt lat="53.084110" lon="-4.116830"><ele>649</ele><time>2020-09-18T12:42:50Z</time><name>PT3727</name></trkpt>
<trkpt lat="53.084114" lon="-4.116812"><ele>650</ele><time>2020-09-18T12:42:52Z</time><name>PT3728</name></trkpt>
<trkpt lat="53.084116" lon="-4.116798"><ele>650</ele><time>2020-09-18T12:42:53Z</time><name>PT3729</name></trkpt>
<trkpt lat="53.084120" lon="-4.116781"><ele>650</ele><time>2020-09-18T12:42:54Z</time><name>PT3730</name></trkpt>
<trkpt lat="53.084128" lon="-4.116761"><ele>650</ele><time>2020-09-18T12:42:55Z</time><name>PT3731</name></trkpt>
<trkpt lat="53.084133" lon="-4.116746"><ele>650</ele><time>2020-09-18T12:42:56Z</time><name>PT3732</name></trkpt>
<trkpt lat="53.084138" lon="-4.116730"><ele>651</ele><time>2020-09-18T12:42:57Z</time><name>PT3733</name></trkpt>
<trkpt lat="53.084145" lon="-4.116714"><ele>651</ele><time>2020-09-18T12:42:58Z</time><name>PT3734</name></trkpt>
<trkpt lat="53.084150" lon="-4.116701"><ele>651</ele><time>2020-09-18T12:42:59Z</time><name>PT3735</name></trkpt>
<trkpt lat="53.084157" lon="-4.116683"><ele>650</ele><time>2020-09-18T12:43:00Z</time><name>PT3736</name></trkpt>
<trkpt lat="53.084163" lon="-4.116667"><ele>651</ele><time>2020-09-18T12:43:01Z</time><name>PT3737</name></trkpt>
<trkpt lat="53.084169" lon="-4.116651"><ele>651</ele><time>2020-09-18T12:43:02Z</time><name>PT3738</name></trkpt>
<trkpt lat="53.084174" lon="-4.116635"><ele>650</ele><time>2020-09-18T12:43:03Z</time><name>PT3739</name></trkpt>
<trkpt lat="53.084182" lon="-4.116625"><ele>651</ele><time>2020-09-18T12:43:04Z</time><name>PT3740</name></trkpt>
<trkpt lat="53.084189" lon="-4.116615"><ele>651</ele><time>2020-09-18T12:43:05Z</time><name>PT3741</name></trkpt>
<trkpt lat="53.084194" lon="-4.116603"><ele>651</ele><time>2020-09-18T12:43:05Z</time><name>PT3742</name></trkpt>
<trkpt lat="53.084199" lon="-4.116587"><ele>651</ele><time>2020-09-18T12:43:07Z</time><name>PT3743</name></trkpt>
<trkpt lat="53.084205" lon="-4.116572"><ele>651</ele><time>2020-09-18T12:43:08Z</time><name>PT3744</name></trkpt>
<trkpt lat="53.084213" lon="-4.116558"><ele>651</ele><time>2020-09-18T12:43:08Z</time><name>PT3745</name></trkpt>
<trkpt lat="53.084219" lon="-4.116544"><ele>651</ele><time>2020-09-18T12:43:10Z</time><name>PT3746</name></trkpt>
<trkpt lat="53.084224" lon="-4.116526"><ele>651</ele><time>2020-09-18T12:43:11Z</time><name>PT3747</name></trkpt>
<trkpt lat="53.084228" lon="-4.116506"><ele>651</ele><time>2020-09-18T12:43:11Z</time><name>PT3748</name></trkpt>
<trkpt lat="53.084233" lon="-4.116491"><ele>651</ele><time>2020-09-18T12:43:13Z</time><name>PT3749</name></trkpt>
<trkpt lat="53.084239" lon="-4.116474"><ele>652</ele><time>2020-09-18T12:43:14Z</time><name>PT3750</name></trkpt>
<trkpt lat="53.084243" lon="-4.116458"><ele>652</ele><time>2020-09-18T12:43:14Z</time><name>PT3751</name></trkpt>
<trkpt lat="53.084247" lon="-4.116443"><ele>652</ele><time>2020-09-18T12:43:16Z</time><name>PT3752</name></trkpt>
<trkpt lat="53.084252" lon="-4.116424"><ele>651</ele><time>2020-09-18T12:43:17Z</time><name>PT3753</name></trkpt>
<trkpt lat="53.084256" lon="-4.116416"><ele>652</ele><time>2020-09-18T12:43:17Z</time><name>PT3754</name></trkpt>
<trkpt lat="53.084258" lon="-4.116415"><ele>652</ele><time>2020-09-18T12:43:19Z</time><name>PT3755</name></trkpt>
<trkpt lat="53.084260" lon="-4.116418"><ele>652</ele><time>2020-09-18T12:43:20Z</time><name>PT3756</name></trkpt>
<trkpt lat="53.084261" lon="-4.116414"><ele>652</ele><time>2020-09-18T12:43:23Z</time><name>PT3757</name></trkpt>
<trkpt lat="53.084265" lon="-4.116401"><ele>652</ele><time>2020-09-18T12:43:24Z</time><name>PT3758</name></trkpt>
<trkpt lat="53.084268" lon="-4.116386"><ele>652</ele><time>2020-09-18T12:43:25Z</time><name>PT3759</name></trkpt>
<trkpt lat="53.084273" lon="-4.116368"><ele>651</ele><time>2020-09-18T12:43:26Z</time><name>PT3760</name></trkpt>
<trkpt lat="53.084278" lon="-4.116350"><ele>652</ele><time>2020-09-18T12:43:27Z</time><name>PT3761</name></trkpt>
<trkpt lat="53.084284" lon="-4.116331"><ele>652</ele><time>2020-09-18T12:43:28Z</time><name>PT3762</name></trkpt>
<trkpt lat="53.084289" lon="-4.116315"><ele>652</ele><time>2020-09-18T12:43:29Z</time><name>PT3763</name></trkpt>
<trkpt lat="53.084295" lon="-4.116296"><ele>652</ele><time>2020-09-18T12:43:30Z</time><name>PT3764</name></trkpt>
<trkpt lat="53.084301" lon="-4.116278"><ele>652</ele><time>2020-09-18T12:43:31Z</time><name>PT3765</name></trkpt>
<trkpt lat="53.084304" lon="-4.116266"><ele>652</ele><time>2020-09-18T12:43:32Z</time><name>PT3766</name></trkpt>
<trkpt lat="53.084310" lon="-4.116248"><ele>652</ele><time>2020-09-18T12:43:33Z</time><name>PT3767</name></trkpt>
<trkpt lat="53.084316" lon="-4.116234"><ele>652</ele><time>2020-09-18T12:43:34Z</time><name>PT3768</name></trkpt>
<trkpt lat="53.084321" lon="-4.116219"><ele>652</ele><time>2020-09-18T12:43:35Z</time><name>PT3769</name></trkpt>
<trkpt lat="53.084327" lon="-4.116201"><ele>652</ele><time>2020-09-18T12:43:36Z</time><name>PT3770</name></trkpt>
<trkpt lat="53.084332" lon="-4.116184"><ele>652</ele><time>2020-09-18T12:43:37Z</time><name>PT3771</name></trkpt>
<trkpt lat="53.084358" lon="-4.116123"><ele>652</ele><time>2020-09-18T12:43:41Z</time><name>PT3772</name></trkpt>
<trkpt lat="53.084376" lon="-4.116077"><ele>652</ele><time>2020-09-18T12:43:44Z</time><name>PT3773</name></trkpt>
<trkpt lat="53.084397" lon="-4.116017"><ele>651</ele><time>2020-09-18T12:43:47Z</time><name>PT3774</name></trkpt>
<trkpt lat="53.084409" lon="-4.115967"><ele>651</ele><time>2020-09-18T12:43:50Z</time><name>PT3775</name></trkpt>
<trkpt lat="53.084420" lon="-4.115922"><ele>651</ele><time>2020-09-18T12:43:53Z</time><name>PT3776</name></trkpt>
<trkpt lat="53.084424" lon="-4.115886"><ele>652</ele><time>2020-09-18T12:43:58Z</time><name>PT3777</name></trkpt>
<trkpt lat="53.084433" lon="-4.115885"><ele>652</ele><time>2020-09-18T12:44:02Z</time><name>PT3778</name></trkpt>
<trkpt lat="53.084458" lon="-4.115842"><ele>652</ele><time>2020-09-18T12:44:24Z</time><name>PT3779</name></trkpt>
<trkpt lat="53.084477" lon="-4.115792"><ele>652</ele><time>2020-09-18T12:44:27Z</time><name>PT3780</name></trkpt>
<trkpt lat="53.084497" lon="-4.115749"><ele>652</ele><time>2020-09-18T12:44:30Z</time><name>PT3781</name></trkpt>
<trkpt lat="53.084501" lon="-4.115728"><ele>653</ele><time>2020-09-18T12:44:33Z</time><name>PT3782</name></trkpt>
<trkpt lat="53.084519" lon="-4.115658"><ele>652</ele><time>2020-09-18T12:44:37Z</time><name>PT3783</name></trkpt>
<trkpt lat="53.084540" lon="-4.115609"><ele>652</ele><time>2020-09-18T12:44:40Z</time><name>PT3784</name></trkpt>
<trkpt lat="53.084566" lon="-4.115548"><ele>652</ele><time>2020-09-18T12:44:44Z</time><name>PT3785</name></trkpt>
<trkpt lat="53.084582" lon="-4.115502"><ele>651</ele><time>2020-09-18T12:44:47Z</time><name>PT3786</name></trkpt>
<trkpt lat="53.084611" lon="-4.115448"><ele>652</ele><time>2020-09-18T12:44:50Z</time><name>PT3787</name></trkpt>
<trkpt lat="53.084632" lon="-4.115402"><ele>652</ele><time>2020-09-18T12:44:53Z</time><name>PT3788</name></trkpt>
<trkpt lat="53.084658" lon="-4.115337"><ele>652</ele><time>2020-09-18T12:44:58Z</time><name>PT3789</name></trkpt>
<trkpt lat="53.084686" lon="-4.115281"><ele>653</ele><time>2020-09-18T12:45:02Z</time><name>PT3790</name></trkpt>
<trkpt lat="53.084704" lon="-4.115247"><ele>653</ele><time>2020-09-18T12:45:05Z</time><name>PT3791</name></trkpt>
<trkpt lat="53.084721" lon="-4.115211"><ele>653</ele><time>2020-09-18T12:45:08Z</time><name>PT3792</name></trkpt>
<trkpt lat="53.084750" lon="-4.115153"><ele>653</ele><time>2020-09-18T12:45:11Z</time><name>PT3793</name></trkpt>
<trkpt lat="53.084769" lon="-4.115110"><ele>653</ele><time>2020-09-18T12:45:14Z</time><name>PT3794</name></trkpt>
<trkpt lat="53.084799" lon="-4.115043"><ele>654</ele><time>2020-09-18T12:45:19Z</time><name>PT3795</name></trkpt>
<trkpt lat="53.084818" lon="-4.115004"><ele>654</ele><time>2020-09-18T12:45:22Z</time><name>PT3796</name></trkpt>
<trkpt lat="53.084837" lon="-4.114967"><ele>654</ele><time>2020-09-18T12:45:25Z</time><name>PT3797</name></trkpt>
<trkpt lat="53.084864" lon="-4.114917"><ele>654</ele><time>2020-09-18T12:45:29Z</time><name>PT3798</name></trkpt>
<trkpt lat="53.084888" lon="-4.114878"><ele>654</ele><time>2020-09-18T12:45:32Z</time><name>PT3799</name></trkpt>
<trkpt lat="53.084916" lon="-4.114822"><ele>654</ele><time>2020-09-18T12:45:35Z</time><name>PT3800</name></trkpt>
<trkpt lat="53.084940" lon="-4.114771"><ele>655</ele><time>2020-09-18T12:45:40Z</time><name>PT3801</name></trkpt>
<trkpt lat="53.084958" lon="-4.114729"><ele>655</ele><time>2020-09-18T12:45:43Z</time><name>PT3802</name></trkpt>
<trkpt lat="53.084986" lon="-4.114675"><ele>655</ele><time>2020-09-18T12:45:47Z</time><name>PT3803</name></trkpt>
<trkpt lat="53.085012" lon="-4.114616"><ele>655</ele><time>2020-09-18T12:45:50Z</time><name>PT3804</name></trkpt>
<trkpt lat="53.085030" lon="-4.114580"><ele>655</ele><time>2020-09-18T12:45:53Z</time><name>PT3805</name></trkpt>
<trkpt lat="53.085048" lon="-4.114540"><ele>656</ele><time>2020-09-18T12:45:56Z</time><name>PT3806</name></trkpt>
<trkpt lat="53.085067" lon="-4.114507"><ele>656</ele><time>2020-09-18T12:45:59Z</time><name>PT3807</name></trkpt>
<trkpt lat="53.085089" lon="-4.114469"><ele>657</ele><time>2020-09-18T12:46:02Z</time><name>PT3808</name></trkpt>
<trkpt lat="53.085109" lon="-4.114430"><ele>658</ele><time>2020-09-18T12:46:05Z</time><name>PT3809</name></trkpt>
<trkpt lat="53.085136" lon="-4.114380"><ele>658</ele><time>2020-09-18T12:46:10Z</time><name>PT3810</name></trkpt>
<trkpt lat="53.085158" lon="-4.114344"><ele>659</ele><time>2020-09-18T12:46:13Z</time><name>PT3811</name></trkpt>
<trkpt lat="53.085183" lon="-4.114301"><ele>660</ele><time>2020-09-18T12:46:16Z</time><name>PT3812</name></trkpt>
<trkpt lat="53.085209" lon="-4.114253"><ele>661</ele><time>2020-09-18T12:46:20Z</time><name>PT3813</name></trkpt>
<trkpt lat="53.085231" lon="-4.114214"><ele>662</ele><time>2020-09-18T12:46:23Z</time><name>PT3814</name></trkpt>
<trkpt lat="53.085251" lon="-4.114184"><ele>663</ele><time>2020-09-18T12:46:26Z</time><name>PT3815</name></trkpt>
<trkpt lat="53.085277" lon="-4.114148"><ele>664</ele><time>2020-09-18T12:46:29Z</time><name>PT3816</name></trkpt>
<trkpt lat="53.085295" lon="-4.114116"><ele>664</ele><time>2020-09-18T12:46:32Z</time><name>PT3817</name></trkpt>
<trkpt lat="53.085322" lon="-4.114071"><ele>665</ele><time>2020-09-18T12:46:37Z</time><name>PT3818</name></trkpt>
<trkpt lat="53.085350" lon="-4.114021"><ele>665</ele><time>2020-09-18T12:46:41Z</time><name>PT3819</name></trkpt>
<trkpt lat="53.085371" lon="-4.113979"><ele>666</ele><time>2020-09-18T12:46:44Z</time><name>PT3820</name></trkpt>
<trkpt lat="53.085387" lon="-4.113931"><ele>666</ele><time>2020-09-18T12:46:47Z</time><name>PT3821</name></trkpt>
<trkpt lat="53.085395" lon="-4.113911"><ele>667</ele><time>2020-09-18T12:46:50Z</time><name>PT3822</name></trkpt>
<trkpt lat="53.085399" lon="-4.113910"><ele>667</ele><time>2020-09-18T12:46:55Z</time><name>PT3823</name></trkpt>
<trkpt lat="53.085401" lon="-4.113904"><ele>667</ele><time>2020-09-18T12:47:02Z</time><name>PT3824</name></trkpt>
<trkpt lat="53.085423" lon="-4.113863"><ele>667</ele><time>2020-09-18T12:47:05Z</time><name>PT3825</name></trkpt>
<trkpt lat="53.085444" lon="-4.113800"><ele>667</ele><time>2020-09-18T12:47:08Z</time><name>PT3826</name></trkpt>
<trkpt lat="53.085459" lon="-4.113751"><ele>667</ele><time>2020-09-18T12:47:11Z</time><name>PT3827</name></trkpt>
<trkpt lat="53.085484" lon="-4.113689"><ele>667</ele><time>2020-09-18T12:47:16Z</time><name>PT3828</name></trkpt>
<trkpt lat="53.085504" lon="-4.113638"><ele>668</ele><time>2020-09-18T12:47:19Z</time><name>PT3829</name></trkpt>
<trkpt lat="53.085520" lon="-4.113594"><ele>668</ele><time>2020-09-18T12:47:22Z</time><name>PT3830</name></trkpt>
<trkpt lat="53.085539" lon="-4.113536"><ele>668</ele><time>2020-09-18T12:47:26Z</time><name>PT3831</name></trkpt>
<trkpt lat="53.085564" lon="-4.113475"><ele>669</ele><time>2020-09-18T12:47:29Z</time><name>PT3832</name></trkpt>
<trkpt lat="53.085589" lon="-4.113414"><ele>670</ele><time>2020-09-18T12:47:34Z</time><name>PT3833</name></trkpt>
<trkpt lat="53.085617" lon="-4.113352"><ele>670</ele><time>2020-09-18T12:47:38Z</time><name>PT3834</name></trkpt>
<trkpt lat="53.085623" lon="-4.113338"><ele>670</ele><time>2020-09-18T12:47:38Z</time><name>PT3835</name></trkpt>
<trkpt lat="53.085628" lon="-4.113324"><ele>670</ele><time>2020-09-18T12:47:40Z</time><name>PT3836</name></trkpt>
<trkpt lat="53.085632" lon="-4.113311"><ele>671</ele><time>2020-09-18T12:47:41Z</time><name>PT3837</name></trkpt>
<trkpt lat="53.085636" lon="-4.113297"><ele>671</ele><time>2020-09-18T12:47:42Z</time><name>PT3838</name></trkpt>
<trkpt lat="53.085641" lon="-4.113288"><ele>671</ele><time>2020-09-18T12:47:43Z</time><name>PT3839</name></trkpt>
<trkpt lat="53.085644" lon="-4.113277"><ele>671</ele><time>2020-09-18T12:47:44Z</time><name>PT3840</name></trkpt>
<trkpt lat="53.085647" lon="-4.113268"><ele>671</ele><time>2020-09-18T12:47:44Z</time><name>PT3841</name></trkpt>
<trkpt lat="53.085649" lon="-4.113260"><ele>671</ele><time>2020-09-18T12:47:46Z</time><name>PT3842</name></trkpt>
<trkpt lat="53.085650" lon="-4.113258"><ele>671</ele><time>2020-09-18T12:47:47Z</time><name>PT3843</name></trkpt>
<trkpt lat="53.085651" lon="-4.113254"><ele>671</ele><time>2020-09-18T12:47:47Z</time><name>PT3844</name></trkpt>
<trkpt lat="53.085655" lon="-4.113245"><ele>672</ele><time>2020-09-18T12:47:49Z</time><name>PT3845</name></trkpt>
<trkpt lat="53.085659" lon="-4.113234"><ele>672</ele><time>2020-09-18T12:47:50Z</time><name>PT3846</name></trkpt>
<trkpt lat="53.085662" lon="-4.113223"><ele>672</ele><time>2020-09-18T12:47:50Z</time><name>PT3847</name></trkpt>
<trkpt lat="53.085665" lon="-4.113212"><ele>672</ele><time>2020-09-18T12:47:52Z</time><name>PT3848</name></trkpt>
<trkpt lat="53.085671" lon="-4.113198"><ele>672</ele><time>2020-09-18T12:47:53Z</time><name>PT3849</name></trkpt>
<trkpt lat="53.085676" lon="-4.113186"><ele>672</ele><time>2020-09-18T12:47:53Z</time><name>PT3850</name></trkpt>
<trkpt lat="53.085684" lon="-4.113172"><ele>672</ele><time>2020-09-18T12:47:55Z</time><name>PT3851</name></trkpt>
<trkpt lat="53.085689" lon="-4.113158"><ele>672</ele><time>2020-09-18T12:47:56Z</time><name>PT3852</name></trkpt>
<trkpt lat="53.085694" lon="-4.113144"><ele>672</ele><time>2020-09-18T12:47:56Z</time><name>PT3853</name></trkpt>
<trkpt lat="53.085700" lon="-4.113130"><ele>672</ele><time>2020-09-18T12:47:58Z</time><name>PT3854</name></trkpt>
<trkpt lat="53.085706" lon="-4.113115"><ele>673</ele><time>2020-09-18T12:47:59Z</time><name>PT3855</name></trkpt>
<trkpt lat="53.085712" lon="-4.113101"><ele>673</ele><time>2020-09-18T12:47:59Z</time><name>PT3856</name></trkpt>
<trkpt lat="53.085718" lon="-4.113086"><ele>673</ele><time>2020-09-18T12:48:01Z</time><name>PT3857</name></trkpt>
<trkpt lat="53.085722" lon="-4.113073"><ele>673</ele><time>2020-09-18T12:48:02Z</time><name>PT3858</name></trkpt>
<trkpt lat="53.085729" lon="-4.113058"><ele>673</ele><time>2020-09-18T12:48:02Z</time><name>PT3859</name></trkpt>
<trkpt lat="53.085736" lon="-4.113044"><ele>673</ele><time>2020-09-18T12:48:04Z</time><name>PT3860</name></trkpt>
<trkpt lat="53.085743" lon="-4.113029"><ele>673</ele><time>2020-09-18T12:48:05Z</time><name>PT3861</name></trkpt>
<trkpt lat="53.085750" lon="-4.113016"><ele>673</ele><time>2020-09-18T12:48:05Z</time><name>PT3862</name></trkpt>
<trkpt lat="53.085757" lon="-4.113001"><ele>673</ele><time>2020-09-18T12:48:07Z</time><name>PT3863</name></trkpt>
<trkpt lat="53.085762" lon="-4.112986"><ele>673</ele><time>2020-09-18T12:48:08Z</time><name>PT3864</name></trkpt>
<trkpt lat="53.085769" lon="-4.112970"><ele>673</ele><time>2020-09-18T12:48:08Z</time><name>PT3865</name></trkpt>
<trkpt lat="53.085774" lon="-4.112955"><ele>674</ele><time>2020-09-18T12:48:10Z</time><name>PT3866</name></trkpt>
<trkpt lat="53.085778" lon="-4.112938"><ele>674</ele><time>2020-09-18T12:48:11Z</time><name>PT3867</name></trkpt>
<trkpt lat="53.085783" lon="-4.112924"><ele>674</ele><time>2020-09-18T12:48:11Z</time><name>PT3868</name></trkpt>
<trkpt lat="53.085791" lon="-4.112913"><ele>674</ele><time>2020-09-18T12:48:13Z</time><name>PT3869</name></trkpt>
<trkpt lat="53.085799" lon="-4.112900"><ele>674</ele><time>2020-09-18T12:48:14Z</time><name>PT3870</name></trkpt>
<trkpt lat="53.085807" lon="-4.112889"><ele>673</ele><time>2020-09-18T12:48:14Z</time><name>PT3871</name></trkpt>
<trkpt lat="53.085815" lon="-4.112875"><ele>673</ele><time>2020-09-18T12:48:16Z</time><name>PT3872</name></trkpt>
<trkpt lat="53.085824" lon="-4.112860"><ele>673</ele><time>2020-09-18T12:48:17Z</time><name>PT3873</name></trkpt>
<trkpt lat="53.085831" lon="-4.112848"><ele>673</ele><time>2020-09-18T12:48:17Z</time><name>PT3874</name></trkpt>
<trkpt lat="53.085838" lon="-4.112835"><ele>673</ele><time>2020-09-18T12:48:19Z</time><name>PT3875</name></trkpt>
<trkpt lat="53.085846" lon="-4.112820"><ele>673</ele><time>2020-09-18T12:48:20Z</time><name>PT3876</name></trkpt>
<trkpt lat="53.085853" lon="-4.112806"><ele>673</ele><time>2020-09-18T12:48:20Z</time><name>PT3877</name></trkpt>
<trkpt lat="53.085859" lon="-4.112790"><ele>673</ele><time>2020-09-18T12:48:22Z</time><name>PT3878</name></trkpt>
<trkpt lat="53.085865" lon="-4.112773"><ele>673</ele><time>2020-09-18T12:48:23Z</time><name>PT3879</name></trkpt>
<trkpt lat="53.085872" lon="-4.112757"><ele>674</ele><time>2020-09-18T12:48:24Z</time><name>PT3880</name></trkpt>
<trkpt lat="53.085879" lon="-4.112740"><ele>674</ele><time>2020-09-18T12:48:25Z</time><name>PT3881</name></trkpt>
<trkpt lat="53.085885" lon="-4.112725"><ele>674</ele><time>2020-09-18T12:48:26Z</time><name>PT3882</name></trkpt>
<trkpt lat="53.085890" lon="-4.112708"><ele>674</ele><time>2020-09-18T12:48:26Z</time><name>PT3883</name></trkpt>
<trkpt lat="53.085895" lon="-4.112691"><ele>674</ele><time>2020-09-18T12:48:28Z</time><name>PT3884</name></trkpt>
<trkpt lat="53.085901" lon="-4.112674"><ele>674</ele><time>2020-09-18T12:48:29Z</time><name>PT3885</name></trkpt>
<trkpt lat="53.085905" lon="-4.112658"><ele>674</ele><time>2020-09-18T12:48:30Z</time><name>PT3886</name></trkpt>
<trkpt lat="53.085912" lon="-4.112641"><ele>675</ele><time>2020-09-18T12:48:31Z</time><name>PT3887</name></trkpt>
<trkpt lat="53.085919" lon="-4.112624"><ele>675</ele><time>2020-09-18T12:48:32Z</time><name>PT3888</name></trkpt>
<trkpt lat="53.085925" lon="-4.112605"><ele>675</ele><time>2020-09-18T12:48:32Z</time><name>PT3889</name></trkpt>
<trkpt lat="53.085929" lon="-4.112586"><ele>675</ele><time>2020-09-18T12:48:34Z</time><name>PT3890</name></trkpt>
<trkpt lat="53.085933" lon="-4.112571"><ele>675</ele><time>2020-09-18T12:48:35Z</time><name>PT3891</name></trkpt>
<trkpt lat="53.085938" lon="-4.112555"><ele>676</ele><time>2020-09-18T12:48:35Z</time><name>PT3892</name></trkpt>
<trkpt lat="53.085946" lon="-4.112548"><ele>676</ele><time>2020-09-18T12:48:37Z</time><name>PT3893</name></trkpt>
<trkpt lat="53.085955" lon="-4.112544"><ele>676</ele><time>2020-09-18T12:48:38Z</time><name>PT3894</name></trkpt>
<trkpt lat="53.085964" lon="-4.112545"><ele>676</ele><time>2020-09-18T12:48:38Z</time><name>PT3895</name></trkpt>
<trkpt lat="53.085969" lon="-4.112545"><ele>676</ele><time>2020-09-18T12:48:40Z</time><name>PT3896</name></trkpt>
<trkpt lat="53.085971" lon="-4.112548"><ele>676</ele><time>2020-09-18T12:48:41Z</time><name>PT3897</name></trkpt>
<trkpt lat="53.085972" lon="-4.112548"><ele>676</ele><time>2020-09-18T12:48:41Z</time><name>PT3898</name></trkpt>
<trkpt lat="53.085971" lon="-4.112548"><ele>676</ele><time>2020-09-18T12:48:43Z</time><name>PT3899</name></trkpt>
<trkpt lat="53.085971" lon="-4.112548"><ele>676</ele><time>2020-09-18T12:48:44Z</time><name>PT3900</name></trkpt>
<trkpt lat="53.085972" lon="-4.112545"><ele>676</ele><time>2020-09-18T12:48:44Z</time><name>PT3901</name></trkpt>
<trkpt lat="53.085971" lon="-4.112544"><ele>676</ele><time>2020-09-18T12:48:46Z</time><name>PT3902</name></trkpt>
<trkpt lat="53.085970" lon="-4.112541"><ele>676</ele><time>2020-09-18T12:48:47Z</time><name>PT3903</name></trkpt>
<trkpt lat="53.085971" lon="-4.112539"><ele>676</ele><time>2020-09-18T12:48:47Z</time><name>PT3904</name></trkpt>
<trkpt lat="53.085973" lon="-4.112538"><ele>676</ele><time>2020-09-18T12:48:49Z</time><name>PT3905</name></trkpt>
<trkpt lat="53.085974" lon="-4.112529"><ele>676</ele><time>2020-09-18T12:48:50Z</time><name>PT3906</name></trkpt>
<trkpt lat="53.085972" lon="-4.112512"><ele>676</ele><time>2020-09-18T12:48:50Z</time><name>PT3907</name></trkpt>
<trkpt lat="53.085969" lon="-4.112495"><ele>676</ele><time>2020-09-18T12:48:52Z</time><name>PT3908</name></trkpt>
<trkpt lat="53.085966" lon="-4.112475"><ele>676</ele><time>2020-09-18T12:48:53Z</time><name>PT3909</name></trkpt>
<trkpt lat="53.085966" lon="-4.112455"><ele>676</ele><time>2020-09-18T12:48:53Z</time><name>PT3910</name></trkpt>
<trkpt lat="53.085966" lon="-4.112436"><ele>676</ele><time>2020-09-18T12:48:55Z</time><name>PT3911</name></trkpt>
<trkpt lat="53.085968" lon="-4.112415"><ele>676</ele><time>2020-09-18T12:48:56Z</time><name>PT3912</name></trkpt>
<trkpt lat="53.085969" lon="-4.112396"><ele>676</ele><time>2020-09-18T12:48:56Z</time><name>PT3913</name></trkpt>
<trkpt lat="53.085972" lon="-4.112375"><ele>676</ele><time>2020-09-18T12:48:58Z</time><name>PT3914</name></trkpt>
<trkpt lat="53.085974" lon="-4.112355"><ele>676</ele><time>2020-09-18T12:48:59Z</time><name>PT3915</name></trkpt>
<trkpt lat="53.085976" lon="-4.112335"><ele>676</ele><time>2020-09-18T12:48:59Z</time><name>PT3916</name></trkpt>
<trkpt lat="53.085977" lon="-4.112314"><ele>676</ele><time>2020-09-18T12:49:01Z</time><name>PT3917</name></trkpt>
<trkpt lat="53.085978" lon="-4.112295"><ele>676</ele><time>2020-09-18T12:49:02Z</time><name>PT3918</name></trkpt>
<trkpt lat="53.085981" lon="-4.112274"><ele>677</ele><time>2020-09-18T12:49:02Z</time><name>PT3919</name></trkpt>
<trkpt lat="53.085982" lon="-4.112255"><ele>677</ele><time>2020-09-18T12:49:04Z</time><name>PT3920</name></trkpt>
<trkpt lat="53.085985" lon="-4.112234"><ele>677</ele><time>2020-09-18T12:49:05Z</time><name>PT3921</name></trkpt>
<trkpt lat="53.085986" lon="-4.112212"><ele>677</ele><time>2020-09-18T12:49:05Z</time><name>PT3922</name></trkpt>
<trkpt lat="53.085988" lon="-4.112191"><ele>677</ele><time>2020-09-18T12:49:07Z</time><name>PT3923</name></trkpt>
<trkpt lat="53.085992" lon="-4.112171"><ele>677</ele><time>2020-09-18T12:49:08Z</time><name>PT3924</name></trkpt>
<trkpt lat="53.085995" lon="-4.112151"><ele>677</ele><time>2020-09-18T12:49:08Z</time><name>PT3925</name></trkpt>
<trkpt lat="53.085996" lon="-4.112130"><ele>678</ele><time>2020-09-18T12:49:10Z</time><name>PT3926</name></trkpt>
<trkpt lat="53.085995" lon="-4.112109"><ele>678</ele><time>2020-09-18T12:49:11Z</time><name>PT3927</name></trkpt>
<trkpt lat="53.085996" lon="-4.112088"><ele>678</ele><time>2020-09-18T12:49:11Z</time><name>PT3928</name></trkpt>
<trkpt lat="53.085998" lon="-4.112068"><ele>678</ele><time>2020-09-18T12:49:13Z</time><name>PT3929</name></trkpt>
<trkpt lat="53.086000" lon="-4.112051"><ele>678</ele><time>2020-09-18T12:49:14Z</time><name>PT3930</name></trkpt>
<trkpt lat="53.086001" lon="-4.112032"><ele>678</ele><time>2020-09-18T12:49:14Z</time><name>PT3931</name></trkpt>
<trkpt lat="53.086002" lon="-4.112012"><ele>678</ele><time>2020-09-18T12:49:16Z</time><name>PT3932</name></trkpt>
<trkpt lat="53.086003" lon="-4.111991"><ele>678</ele><time>2020-09-18T12:49:17Z</time><name>PT3933</name></trkpt>
<trkpt lat="53.086005" lon="-4.111971"><ele>678</ele><time>2020-09-18T12:49:17Z</time><name>PT3934</name></trkpt>
<trkpt lat="53.086007" lon="-4.111951"><ele>678</ele><time>2020-09-18T12:49:19Z</time><name>PT3935</name></trkpt>
<trkpt lat="53.086009" lon="-4.111926"><ele>677</ele><time>2020-09-18T12:49:20Z</time><name>PT3936</name></trkpt>
<trkpt lat="53.086011" lon="-4.111909"><ele>678</ele><time>2020-09-18T12:49:21Z</time><name>PT3937</name></trkpt>
<trkpt lat="53.086012" lon="-4.111889"><ele>678</ele><time>2020-09-18T12:49:22Z</time><name>PT3938</name></trkpt>
<trkpt lat="53.086014" lon="-4.111871"><ele>678</ele><time>2020-09-18T12:49:23Z</time><name>PT3939</name></trkpt>
<trkpt lat="53.086019" lon="-4.111852"><ele>678</ele><time>2020-09-18T12:49:23Z</time><name>PT3940</name></trkpt>
<trkpt lat="53.086023" lon="-4.111832"><ele>678</ele><time>2020-09-18T12:49:25Z</time><name>PT3941</name></trkpt>
<trkpt lat="53.086025" lon="-4.111812"><ele>678</ele><time>2020-09-18T12:49:26Z</time><name>PT3942</name></trkpt>
<trkpt lat="53.086026" lon="-4.111791"><ele>678</ele><time>2020-09-18T12:49:26Z</time><name>PT3943</name></trkpt>
<trkpt lat="53.086028" lon="-4.111772"><ele>678</ele><time>2020-09-18T12:49:28Z</time><name>PT3944</name></trkpt>
<trkpt lat="53.086032" lon="-4.111752"><ele>679</ele><time>2020-09-18T12:49:29Z</time><name>PT3945</name></trkpt>
<trkpt lat="53.086034" lon="-4.111731"><ele>678</ele><time>2020-09-18T12:49:29Z</time><name>PT3946</name></trkpt>
<trkpt lat="53.086035" lon="-4.111711"><ele>679</ele><time>2020-09-18T12:49:31Z</time><name>PT3947</name></trkpt>
<trkpt lat="53.086037" lon="-4.111690"><ele>678</ele><time>2020-09-18T12:49:32Z</time><name>PT3948</name></trkpt>
<trkpt lat="53.086039" lon="-4.111670"><ele>678</ele><time>2020-09-18T12:49:32Z</time><name>PT3949</name></trkpt>
<trkpt lat="53.086042" lon="-4.111651"><ele>678</ele><time>2020-09-18T12:49:34Z</time><name>PT3950</name></trkpt>
<trkpt lat="53.086044" lon="-4.111630"><ele>678</ele><time>2020-09-18T12:49:35Z</time><name>PT3951</name></trkpt>
<trkpt lat="53.086045" lon="-4.111610"><ele>678</ele><time>2020-09-18T12:49:35Z</time><name>PT3952</name></trkpt>
<trkpt lat="53.086046" lon="-4.111590"><ele>678</ele><time>2020-09-18T12:49:37Z</time><name>PT3953</name></trkpt>
<trkpt lat="53.086049" lon="-4.111571"><ele>678</ele><time>2020-09-18T12:49:38Z</time><name>PT3954</name></trkpt>
<trkpt lat="53.086052" lon="-4.111551"><ele>679</ele><time>2020-09-18T12:49:38Z</time><name>PT3955</name></trkpt>
<trkpt lat="53.086054" lon="-4.111532"><ele>679</ele><time>2020-09-18T12:49:40Z</time><name>PT3956</name></trkpt>
<trkpt lat="53.086054" lon="-4.111513"><ele>679</ele><time>2020-09-18T12:49:41Z</time><name>PT3957</name></trkpt>
<trkpt lat="53.086054" lon="-4.111493"><ele>679</ele><time>2020-09-18T12:49:41Z</time><name>PT3958</name></trkpt>
<trkpt lat="53.086054" lon="-4.111475"><ele>679</ele><time>2020-09-18T12:49:43Z</time><name>PT3959</name></trkpt>
<trkpt lat="53.086057" lon="-4.111457"><ele>679</ele><time>2020-09-18T12:49:44Z</time><name>PT3960</name></trkpt>
<trkpt lat="53.086060" lon="-4.111442"><ele>679</ele><time>2020-09-18T12:49:44Z</time><name>PT3961</name></trkpt>
<trkpt lat="53.086063" lon="-4.111427"><ele>679</ele><time>2020-09-18T12:49:46Z</time><name>PT3962</name></trkpt>
<trkpt lat="53.086065" lon="-4.111410"><ele>679</ele><time>2020-09-18T12:49:47Z</time><name>PT3963</name></trkpt>
<trkpt lat="53.086067" lon="-4.111392"><ele>679</ele><time>2020-09-18T12:49:47Z</time><name>PT3964</name></trkpt>
<trkpt lat="53.086072" lon="-4.111373"><ele>679</ele><time>2020-09-18T12:49:49Z</time><name>PT3965</name></trkpt>
<trkpt lat="53.086074" lon="-4.111356"><ele>678</ele><time>2020-09-18T12:49:50Z</time><name>PT3966</name></trkpt>
<trkpt lat="53.086075" lon="-4.111341"><ele>678</ele><time>2020-09-18T12:49:50Z</time><name>PT3967</name></trkpt>
<trkpt lat="53.086073" lon="-4.111325"><ele>678</ele><time>2020-09-18T12:49:52Z</time><name>PT3968</name></trkpt>
<trkpt lat="53.086076" lon="-4.111311"><ele>678</ele><time>2020-09-18T12:49:53Z</time><name>PT3969</name></trkpt>
<trkpt lat="53.086080" lon="-4.111294"><ele>677</ele><time>2020-09-18T12:49:53Z</time><name>PT3970</name></trkpt>
<trkpt lat="53.086080" lon="-4.111277"><ele>677</ele><time>2020-09-18T12:49:55Z</time><name>PT3971</name></trkpt>
<trkpt lat="53.086078" lon="-4.111259"><ele>676</ele><time>2020-09-18T12:49:56Z</time><name>PT3972</name></trkpt>
<trkpt lat="53.086076" lon="-4.111240"><ele>675</ele><time>2020-09-18T12:49:57Z</time><name>PT3973</name></trkpt>
<trkpt lat="53.086076" lon="-4.111225"><ele>675</ele><time>2020-09-18T12:49:58Z</time><name>PT3974</name></trkpt>
<trkpt lat="53.086076" lon="-4.111206"><ele>675</ele><time>2020-09-18T12:49:59Z</time><name>PT3975</name></trkpt>
<trkpt lat="53.086076" lon="-4.111192"><ele>675</ele><time>2020-09-18T12:49:59Z</time><name>PT3976</name></trkpt>
<trkpt lat="53.086075" lon="-4.111176"><ele>674</ele><time>2020-09-18T12:50:01Z</time><name>PT3977</name></trkpt>
<trkpt lat="53.086076" lon="-4.111157"><ele>674</ele><time>2020-09-18T12:50:02Z</time><name>PT3978</name></trkpt>
<trkpt lat="53.086078" lon="-4.111145"><ele>674</ele><time>2020-09-18T12:50:02Z</time><name>PT3979</name></trkpt>
<trkpt lat="53.086079" lon="-4.111131"><ele>674</ele><time>2020-09-18T12:50:04Z</time><name>PT3980</name></trkpt>
<trkpt lat="53.086082" lon="-4.111121"><ele>674</ele><time>2020-09-18T12:50:05Z</time><name>PT3981</name></trkpt>
<trkpt lat="53.086082" lon="-4.111104"><ele>673</ele><time>2020-09-18T12:50:05Z</time><name>PT3982</name></trkpt>
<trkpt lat="53.086082" lon="-4.111090"><ele>673</ele><time>2020-09-18T12:50:07Z</time><name>PT3983</name></trkpt>
<trkpt lat="53.086083" lon="-4.111083"><ele>673</ele><time>2020-09-18T12:50:08Z</time><name>PT3984</name></trkpt>
<trkpt lat="53.086083" lon="-4.111081"><ele>672</ele><time>2020-09-18T12:50:08Z</time><name>PT3985</name></trkpt>
<trkpt lat="53.086082" lon="-4.111078"><ele>672</ele><time>2020-09-18T12:50:10Z</time><name>PT3986</name></trkpt>
<trkpt lat="53.086083" lon="-4.111076"><ele>672</ele><time>2020-09-18T12:50:11Z</time><name>PT3987</name></trkpt>
<trkpt lat="53.086082" lon="-4.111073"><ele>672</ele><time>2020-09-18T12:50:37Z</time><name>PT3988</name></trkpt>
<trkpt lat="53.086076" lon="-4.111067"><ele>673</ele><time>2020-09-18T12:50:38Z</time><name>PT3989</name></trkpt>
<trkpt lat="53.086067" lon="-4.111063"><ele>673</ele><time>2020-09-18T12:50:38Z</time><name>PT3990</name></trkpt>
<trkpt lat="53.086060" lon="-4.111055"><ele>673</ele><time>2020-09-18T12:50:40Z</time><name>PT3991</name></trkpt>
<trkpt lat="53.086054" lon="-4.111047"><ele>672</ele><time>2020-09-18T12:50:41Z</time><name>PT3992</name></trkpt>
<trkpt lat="53.086049" lon="-4.111041"><ele>672</ele><time>2020-09-18T12:50:42Z</time><name>PT3993</name></trkpt>
<trkpt lat="53.086040" lon="-4.111032"><ele>672</ele><time>2020-09-18T12:50:43Z</time><name>PT3994</name></trkpt>
<trkpt lat="53.086014" lon="-4.111003"><ele>672</ele><time>2020-09-18T12:50:46Z</time><name>PT3995</name></trkpt>
<trkpt lat="53.085990" lon="-4.110977"><ele>672</ele><time>2020-09-18T12:50:49Z</time><name>PT3996</name></trkpt>
<trkpt lat="53.085960" lon="-4.110939"><ele>671</ele><time>2020-09-18T12:50:53Z</time><name>PT3997</name></trkpt>
<trkpt lat="53.085926" lon="-4.110910"><ele>670</ele><time>2020-09-18T12:50:56Z</time><name>PT3998</name></trkpt>
<trkpt lat="53.085892" lon="-4.110883"><ele>670</ele><time>2020-09-18T12:50:59Z</time><name>PT3999</name></trkpt>
<trkpt lat="53.085853" lon="-4.110847"><ele>669</ele><time>2020-09-18T12:51:04Z</time><name>PT4000</name></trkpt>
<trkpt lat="53.085842" lon="-4.110813"><ele>670</ele><time>2020-09-18T12:51:07Z</time><name>PT4001</name></trkpt>
<trkpt lat="53.085836" lon="-4.110801"><ele>670</ele><time>2020-09-18T12:51:10Z</time><name>PT4002</name></trkpt>
<trkpt lat="53.085838" lon="-4.110801"><ele>670</ele><time>2020-09-18T12:51:14Z</time><name>PT4003</name></trkpt>
<trkpt lat="53.085829" lon="-4.110796"><ele>670</ele><time>2020-09-18T12:51:26Z</time><name>PT4004</name></trkpt>
<trkpt lat="53.085794" lon="-4.110773"><ele>670</ele><time>2020-09-18T12:51:31Z</time><name>PT4005</name></trkpt>
<trkpt lat="53.085787" lon="-4.110767"><ele>670</ele><time>2020-09-18T12:51:32Z</time><name>PT4006</name></trkpt>
<trkpt lat="53.085780" lon="-4.110755"><ele>670</ele><time>2020-09-18T12:51:34Z</time><name>PT4007</name></trkpt>
<trkpt lat="53.085779" lon="-4.110752"><ele>670</ele><time>2020-09-18T12:51:35Z</time><name>PT4008</name></trkpt>
<trkpt lat="53.085777" lon="-4.110748"><ele>670</ele><time>2020-09-18T12:51:35Z</time><name>PT4009</name></trkpt>
<trkpt lat="53.085771" lon="-4.110740"><ele>670</ele><time>2020-09-18T12:51:37Z</time><name>PT4010</name></trkpt>
<trkpt lat="53.085761" lon="-4.110732"><ele>670</ele><time>2020-09-18T12:51:38Z</time><name>PT4011</name></trkpt>
<trkpt lat="53.085755" lon="-4.110732"><ele>670</ele><time>2020-09-18T12:51:39Z</time><name>PT4012</name></trkpt>
<trkpt lat="53.085752" lon="-4.110736"><ele>670</ele><time>2020-09-18T12:51:40Z</time><name>PT4013</name></trkpt>
<trkpt lat="53.085748" lon="-4.110737"><ele>670</ele><time>2020-09-18T12:51:41Z</time><name>PT4014</name></trkpt>
<trkpt lat="53.085744" lon="-4.110736"><ele>670</ele><time>2020-09-18T12:51:42Z</time><name>PT4015</name></trkpt>
<trkpt lat="53.085740" lon="-4.110729"><ele>670</ele><time>2020-09-18T12:51:43Z</time><name>PT4016</name></trkpt>
<trkpt lat="53.085742" lon="-4.110725"><ele>670</ele><time>2020-09-18T12:51:44Z</time><name>PT4017</name></trkpt>
<trkpt lat="53.085744" lon="-4.110726"><ele>670</ele><time>2020-09-18T12:51:44Z</time><name>PT4018</name></trkpt>
<trkpt lat="53.085746" lon="-4.110719"><ele>670</ele><time>2020-09-18T12:51:46Z</time><name>PT4019</name></trkpt>
<trkpt lat="53.085744" lon="-4.110714"><ele>670</ele><time>2020-09-18T12:51:47Z</time><name>PT4020</name></trkpt>
<trkpt lat="53.085744" lon="-4.110711"><ele>670</ele><time>2020-09-18T12:51:47Z</time><name>PT4021</name></trkpt>
<trkpt lat="53.085740" lon="-4.110710"><ele>670</ele><time>2020-09-18T12:52:05Z</time><name>PT4022</name></trkpt>
<trkpt lat="53.085740" lon="-4.110710"><ele>670</ele><time>2020-09-18T12:52:05Z</time><name>PT4023</name></trkpt>
<trkpt lat="53.085742" lon="-4.110714"><ele>670</ele><time>2020-09-18T12:54:17Z</time><name>PT4024</name></trkpt>
<trkpt lat="53.085739" lon="-4.110722"><ele>670</ele><time>2020-09-18T12:54:18Z</time><name>PT4025</name></trkpt>
<trkpt lat="53.085739" lon="-4.110722"><ele>670</ele><time>2020-09-18T12:54:19Z</time><name>PT4026</name></trkpt>
<trkpt lat="53.085740" lon="-4.110716"><ele>670</ele><time>2020-09-18T12:54:20Z</time><name>PT4027</name></trkpt>
<trkpt lat="53.085742" lon="-4.110707"><ele>670</ele><time>2020-09-18T12:54:21Z</time><name>PT4028</name></trkpt>
<trkpt lat="53.085744" lon="-4.110701"><ele>669</ele><time>2020-09-18T12:54:22Z</time><name>PT4029</name></trkpt>
<trkpt lat="53.085744" lon="-4.110696"><ele>669</ele><time>2020-09-18T12:54:23Z</time><name>PT4030</name></trkpt>
<trkpt lat="53.085746" lon="-4.110696"><ele>669</ele><time>2020-09-18T12:54:24Z</time><name>PT4031</name></trkpt>
<trkpt lat="53.085740" lon="-4.110694"><ele>669</ele><time>2020-09-18T12:54:27Z</time><name>PT4032</name></trkpt>
<trkpt lat="53.085739" lon="-4.110694"><ele>669</ele><time>2020-09-18T12:54:28Z</time><name>PT4033</name></trkpt>
<trkpt lat="53.085734" lon="-4.110697"><ele>669</ele><time>2020-09-18T12:54:29Z</time><name>PT4034</name></trkpt>
<trkpt lat="53.085736" lon="-4.110692"><ele>669</ele><time>2020-09-18T12:54:29Z</time><name>PT4035</name></trkpt>
<trkpt lat="53.085736" lon="-4.110689"><ele>668</ele><time>2020-09-18T12:54:31Z</time><name>PT4036</name></trkpt>
<trkpt lat="53.085739" lon="-4.110686"><ele>669</ele><time>2020-09-18T12:54:37Z</time><name>PT4037</name></trkpt>
<trkpt lat="53.085743" lon="-4.110701"><ele>669</ele><time>2020-09-18T12:54:50Z</time><name>PT4038</name></trkpt>
<trkpt lat="53.085776" lon="-4.110744"><ele>669</ele><time>2020-09-18T12:54:55Z</time><name>PT4039</name></trkpt>
<trkpt lat="53.085811" lon="-4.110774"><ele>669</ele><time>2020-09-18T12:54:59Z</time><name>PT4040</name></trkpt>
<trkpt lat="53.085836" lon="-4.110801"><ele>669</ele><time>2020-09-18T12:55:02Z</time><name>PT4041</name></trkpt>
<trkpt lat="53.085861" lon="-4.110822"><ele>668</ele><time>2020-09-18T12:55:05Z</time><name>PT4042</name></trkpt>
<trkpt lat="53.085889" lon="-4.110848"><ele>669</ele><time>2020-09-18T12:55:08Z</time><name>PT4043</name></trkpt>
<trkpt lat="53.085911" lon="-4.110874"><ele>669</ele><time>2020-09-18T12:55:11Z</time><name>PT4044</name></trkpt>
<trkpt lat="53.085931" lon="-4.110894"><ele>670</ele><time>2020-09-18T12:55:14Z</time><name>PT4045</name></trkpt>
<trkpt lat="53.085964" lon="-4.110929"><ele>672</ele><time>2020-09-18T12:55:19Z</time><name>PT4046</name></trkpt>
<trkpt lat="53.085988" lon="-4.110957"><ele>673</ele><time>2020-09-18T12:55:22Z</time><name>PT4047</name></trkpt>
<trkpt lat="53.086010" lon="-4.110992"><ele>674</ele><time>2020-09-18T12:55:25Z</time><name>PT4048</name></trkpt>
<trkpt lat="53.086022" lon="-4.111048"><ele>674</ele><time>2020-09-18T12:55:29Z</time><name>PT4049</name></trkpt>
<trkpt lat="53.086032" lon="-4.111088"><ele>674</ele><time>2020-09-18T12:55:32Z</time><name>PT4050</name></trkpt>
<trkpt lat="53.086043" lon="-4.111142"><ele>675</ele><time>2020-09-18T12:55:35Z</time><name>PT4051</name></trkpt>
<trkpt lat="53.086051" lon="-4.111187"><ele>675</ele><time>2020-09-18T12:55:38Z</time><name>PT4052</name></trkpt>
<trkpt lat="53.086056" lon="-4.111242"><ele>675</ele><time>2020-09-18T12:55:41Z</time><name>PT4053</name></trkpt>
<trkpt lat="53.086053" lon="-4.111297"><ele>675</ele><time>2020-09-18T12:55:44Z</time><name>PT4054</name></trkpt>
<trkpt lat="53.086051" lon="-4.111349"><ele>675</ele><time>2020-09-18T12:55:47Z</time><name>PT4055</name></trkpt>
<trkpt lat="53.086046" lon="-4.111391"><ele>675</ele><time>2020-09-18T12:55:51Z</time><name>PT4056</name></trkpt>
<trkpt lat="53.086039" lon="-4.111445"><ele>675</ele><time>2020-09-18T12:55:54Z</time><name>PT4057</name></trkpt>
<trkpt lat="53.086029" lon="-4.111490"><ele>675</ele><time>2020-09-18T12:55:57Z</time><name>PT4058</name></trkpt>
<trkpt lat="53.086022" lon="-4.111554"><ele>675</ele><time>2020-09-18T12:56:01Z</time><name>PT4059</name></trkpt>
<trkpt lat="53.086017" lon="-4.111610"><ele>675</ele><time>2020-09-18T12:56:04Z</time><name>PT4060</name></trkpt>
<trkpt lat="53.086013" lon="-4.111689"><ele>675</ele><time>2020-09-18T12:56:08Z</time><name>PT4061</name></trkpt>
<trkpt lat="53.086002" lon="-4.111764"><ele>675</ele><time>2020-09-18T12:56:11Z</time><name>PT4062</name></trkpt>
<trkpt lat="53.085992" lon="-4.111834"><ele>675</ele><time>2020-09-18T12:56:16Z</time><name>PT4063</name></trkpt>
<trkpt lat="53.085985" lon="-4.111900"><ele>675</ele><time>2020-09-18T12:56:20Z</time><name>PT4064</name></trkpt>
<trkpt lat="53.085982" lon="-4.111958"><ele>675</ele><time>2020-09-18T12:56:23Z</time><name>PT4065</name></trkpt>
<trkpt lat="53.085976" lon="-4.112027"><ele>675</ele><time>2020-09-18T12:56:28Z</time><name>PT4066</name></trkpt>
<trkpt lat="53.085972" lon="-4.112101"><ele>675</ele><time>2020-09-18T12:56:32Z</time><name>PT4067</name></trkpt>
<trkpt lat="53.085970" lon="-4.112163"><ele>675</ele><time>2020-09-18T12:56:35Z</time><name>PT4068</name></trkpt>
<trkpt lat="53.085967" lon="-4.112222"><ele>676</ele><time>2020-09-18T12:56:38Z</time><name>PT4069</name></trkpt>
<trkpt lat="53.085959" lon="-4.112295"><ele>676</ele><time>2020-09-18T12:56:41Z</time><name>PT4070</name></trkpt>
<trkpt lat="53.085948" lon="-4.112364"><ele>675</ele><time>2020-09-18T12:56:46Z</time><name>PT4071</name></trkpt>
<trkpt lat="53.085937" lon="-4.112441"><ele>675</ele><time>2020-09-18T12:56:50Z</time><name>PT4072</name></trkpt>
<trkpt lat="53.085937" lon="-4.112488"><ele>675</ele><time>2020-09-18T12:56:53Z</time><name>PT4073</name></trkpt>
<trkpt lat="53.085945" lon="-4.112498"><ele>675</ele><time>2020-09-18T12:56:56Z</time><name>PT4074</name></trkpt>
<trkpt lat="53.085955" lon="-4.112509"><ele>675</ele><time>2020-09-18T12:56:59Z</time><name>PT4075</name></trkpt>
<trkpt lat="53.085955" lon="-4.112511"><ele>675</ele><time>2020-09-18T12:57:04Z</time><name>PT4076</name></trkpt>
<trkpt lat="53.085959" lon="-4.112509"><ele>675</ele><time>2020-09-18T12:57:08Z</time><name>PT4077</name></trkpt>
<trkpt lat="53.085969" lon="-4.112516"><ele>675</ele><time>2020-09-18T12:57:11Z</time><name>PT4078</name></trkpt>
<trkpt lat="53.085975" lon="-4.112521"><ele>675</ele><time>2020-09-18T12:57:14Z</time><name>PT4079</name></trkpt>
<trkpt lat="53.085995" lon="-4.112542"><ele>674</ele><time>2020-09-18T12:57:17Z</time><name>PT4080</name></trkpt>
<trkpt lat="53.086035" lon="-4.112588"><ele>674</ele><time>2020-09-18T12:57:22Z</time><name>PT4081</name></trkpt>
<trkpt lat="53.086065" lon="-4.112612"><ele>673</ele><time>2020-09-18T12:57:25Z</time><name>PT4082</name></trkpt>
<trkpt lat="53.086102" lon="-4.112647"><ele>672</ele><time>2020-09-18T12:57:29Z</time><name>PT4083</name></trkpt>
<trkpt lat="53.086120" lon="-4.112658"><ele>672</ele><time>2020-09-18T12:57:32Z</time><name>PT4084</name></trkpt>
<trkpt lat="53.086146" lon="-4.112673"><ele>672</ele><time>2020-09-18T12:57:35Z</time><name>PT4085</name></trkpt>
<trkpt lat="53.086173" lon="-4.112693"><ele>671</ele><time>2020-09-18T12:57:38Z</time><name>PT4086</name></trkpt>
<trkpt lat="53.086213" lon="-4.112721"><ele>671</ele><time>2020-09-18T12:57:43Z</time><name>PT4087</name></trkpt>
<trkpt lat="53.086235" lon="-4.112748"><ele>670</ele><time>2020-09-18T12:57:46Z</time><name>PT4088</name></trkpt>
<trkpt lat="53.086261" lon="-4.112767"><ele>669</ele><time>2020-09-18T12:57:49Z</time><name>PT4089</name></trkpt>
<trkpt lat="53.086292" lon="-4.112797"><ele>669</ele><time>2020-09-18T12:57:53Z</time><name>PT4090</name></trkpt>
<trkpt lat="53.086326" lon="-4.112821"><ele>668</ele><time>2020-09-18T12:57:56Z</time><name>PT4091</name></trkpt>
<trkpt lat="53.086355" lon="-4.112846"><ele>667</ele><time>2020-09-18T12:58:01Z</time><name>PT4092</name></trkpt>
<trkpt lat="53.086381" lon="-4.112870"><ele>667</ele><time>2020-09-18T12:58:05Z</time><name>PT4093</name></trkpt>
<trkpt lat="53.086408" lon="-4.112895"><ele>665</ele><time>2020-09-18T12:58:08Z</time><name>PT4094</name></trkpt>
<trkpt lat="53.086421" lon="-4.112912"><ele>665</ele><time>2020-09-18T12:58:11Z</time><name>PT4095</name></trkpt>
<trkpt lat="53.086441" lon="-4.112938"><ele>663</ele><time>2020-09-18T12:58:16Z</time><name>PT4096</name></trkpt>
<trkpt lat="53.086468" lon="-4.112955"><ele>662</ele><time>2020-09-18T12:58:20Z</time><name>PT4097</name></trkpt>
<trkpt lat="53.086488" lon="-4.112967"><ele>662</ele><time>2020-09-18T12:58:23Z</time><name>PT4098</name></trkpt>
<trkpt lat="53.086511" lon="-4.112977"><ele>662</ele><time>2020-09-18T12:58:26Z</time><name>PT4099</name></trkpt>
<trkpt lat="53.086531" lon="-4.112989"><ele>661</ele><time>2020-09-18T12:58:29Z</time><name>PT4100</name></trkpt>
<trkpt lat="53.086557" lon="-4.113005"><ele>661</ele><time>2020-09-18T12:58:32Z</time><name>PT4101</name></trkpt>
<trkpt lat="53.086574" lon="-4.113022"><ele>659</ele><time>2020-09-18T12:58:35Z</time><name>PT4102</name></trkpt>
<trkpt lat="53.086594" lon="-4.113042"><ele>659</ele><time>2020-09-18T12:58:40Z</time><name>PT4103</name></trkpt>
<trkpt lat="53.086610" lon="-4.113054"><ele>658</ele><time>2020-09-18T12:58:43Z</time><name>PT4104</name></trkpt>
<trkpt lat="53.086629" lon="-4.113062"><ele>656</ele><time>2020-09-18T12:58:47Z</time><name>PT4105</name></trkpt>
<trkpt lat="53.086640" lon="-4.113075"><ele>656</ele><time>2020-09-18T12:58:50Z</time><name>PT4106</name></trkpt>
<trkpt lat="53.086644" lon="-4.113091"><ele>655</ele><time>2020-09-18T12:58:53Z</time><name>PT4107</name></trkpt>
<trkpt lat="53.086657" lon="-4.113117"><ele>655</ele><time>2020-09-18T12:58:56Z</time><name>PT4108</name></trkpt>
<trkpt lat="53.086666" lon="-4.113128"><ele>654</ele><time>2020-09-18T12:59:01Z</time><name>PT4109</name></trkpt>
<trkpt lat="53.086730" lon="-4.113212"><ele>650</ele><time>2020-09-18T12:59:31Z</time><name>PT4110</name></trkpt>
<trkpt lat="53.086774" lon="-4.113261"><ele>648</ele><time>2020-09-18T12:59:35Z</time><name>PT4111</name></trkpt>
<trkpt lat="53.086798" lon="-4.113288"><ele>647</ele><time>2020-09-18T12:59:38Z</time><name>PT4112</name></trkpt>
<trkpt lat="53.086825" lon="-4.113311"><ele>646</ele><time>2020-09-18T12:59:41Z</time><name>PT4113</name></trkpt>
<trkpt lat="53.086854" lon="-4.113340"><ele>644</ele><time>2020-09-18T12:59:44Z</time><name>PT4114</name></trkpt>
<trkpt lat="53.086878" lon="-4.113357"><ele>643</ele><time>2020-09-18T12:59:47Z</time><name>PT4115</name></trkpt>
<trkpt lat="53.086901" lon="-4.113378"><ele>643</ele><time>2020-09-18T12:59:50Z</time><name>PT4116</name></trkpt>
<trkpt lat="53.086918" lon="-4.113386"><ele>642</ele><time>2020-09-18T12:59:53Z</time><name>PT4117</name></trkpt>
<trkpt lat="53.086944" lon="-4.113397"><ele>641</ele><time>2020-09-18T12:59:58Z</time><name>PT4118</name></trkpt>
<trkpt lat="53.086961" lon="-4.113403"><ele>640</ele><time>2020-09-18T13:00:01Z</time><name>PT4119</name></trkpt>
<trkpt lat="53.086981" lon="-4.113419"><ele>639</ele><time>2020-09-18T13:00:05Z</time><name>PT4120</name></trkpt>
<trkpt lat="53.086991" lon="-4.113421"><ele>639</ele><time>2020-09-18T13:00:08Z</time><name>PT4121</name></trkpt>
<trkpt lat="53.086995" lon="-4.113420"><ele>639</ele><time>2020-09-18T13:00:11Z</time><name>PT4122</name></trkpt>
<trkpt lat="53.087019" lon="-4.113431"><ele>639</ele><time>2020-09-18T13:00:29Z</time><name>PT4123</name></trkpt>
<trkpt lat="53.087067" lon="-4.113464"><ele>637</ele><time>2020-09-18T13:00:32Z</time><name>PT4124</name></trkpt>
<trkpt lat="53.087100" lon="-4.113490"><ele>634</ele><time>2020-09-18T13:00:35Z</time><name>PT4125</name></trkpt>
<trkpt lat="53.087136" lon="-4.113532"><ele>634</ele><time>2020-09-18T13:00:40Z</time><name>PT4126</name></trkpt>
<trkpt lat="53.087160" lon="-4.113559"><ele>633</ele><time>2020-09-18T13:00:44Z</time><name>PT4127</name></trkpt>
<trkpt lat="53.087181" lon="-4.113561"><ele>630</ele><time>2020-09-18T13:00:47Z</time><name>PT4128</name></trkpt>
<trkpt lat="53.087204" lon="-4.113568"><ele>628</ele><time>2020-09-18T13:00:50Z</time><name>PT4129</name></trkpt>
<trkpt lat="53.087233" lon="-4.113584"><ele>627</ele><time>2020-09-18T13:00:53Z</time><name>PT4130</name></trkpt>
<trkpt lat="53.087254" lon="-4.113598"><ele>626</ele><time>2020-09-18T13:00:56Z</time><name>PT4131</name></trkpt>
<trkpt lat="53.087282" lon="-4.113601"><ele>624</ele><time>2020-09-18T13:01:01Z</time><name>PT4132</name></trkpt>
<trkpt lat="53.087303" lon="-4.113612"><ele>623</ele><time>2020-09-18T13:01:04Z</time><name>PT4133</name></trkpt>
<trkpt lat="53.087326" lon="-4.113619"><ele>622</ele><time>2020-09-18T13:01:07Z</time><name>PT4134</name></trkpt>
<trkpt lat="53.087346" lon="-4.113632"><ele>621</ele><time>2020-09-18T13:01:10Z</time><name>PT4135</name></trkpt>
<trkpt lat="53.087370" lon="-4.113646"><ele>620</ele><time>2020-09-18T13:01:14Z</time><name>PT4136</name></trkpt>
<trkpt lat="53.087396" lon="-4.113640"><ele>619</ele><time>2020-09-18T13:01:17Z</time><name>PT4137</name></trkpt>
<trkpt lat="53.087420" lon="-4.113645"><ele>618</ele><time>2020-09-18T13:01:20Z</time><name>PT4138</name></trkpt>
<trkpt lat="53.087439" lon="-4.113646"><ele>617</ele><time>2020-09-18T13:01:24Z</time><name>PT4139</name></trkpt>
<trkpt lat="53.087472" lon="-4.113661"><ele>617</ele><time>2020-09-18T13:01:28Z</time><name>PT4140</name></trkpt>
<trkpt lat="53.087499" lon="-4.113674"><ele>617</ele><time>2020-09-18T13:01:32Z</time><name>PT4141</name></trkpt>
<trkpt lat="53.087503" lon="-4.113675"><ele>617</ele><time>2020-09-18T13:01:35Z</time><name>PT4142</name></trkpt>
<trkpt lat="53.087505" lon="-4.113681"><ele>617</ele><time>2020-09-18T13:01:38Z</time><name>PT4143</name></trkpt>
<trkpt lat="53.087510" lon="-4.113689"><ele>617</ele><time>2020-09-18T13:01:53Z</time><name>PT4144</name></trkpt>
<trkpt lat="53.087516" lon="-4.113692"><ele>617</ele><time>2020-09-18T13:01:56Z</time><name>PT4145</name></trkpt>
<trkpt lat="53.087515" lon="-4.113690"><ele>617</ele><time>2020-09-18T13:01:59Z</time><name>PT4146</name></trkpt>
<trkpt lat="53.087539" lon="-4.113707"><ele>616</ele><time>2020-09-18T13:02:08Z</time><name>PT4147</name></trkpt>
<trkpt lat="53.087563" lon="-4.113727"><ele>614</ele><time>2020-09-18T13:02:11Z</time><name>PT4148</name></trkpt>
<trkpt lat="53.087587" lon="-4.113739"><ele>613</ele><time>2020-09-18T13:02:14Z</time><name>PT4149</name></trkpt>
<trkpt lat="53.087616" lon="-4.113732"><ele>611</ele><time>2020-09-18T13:02:19Z</time><name>PT4150</name></trkpt>
<trkpt lat="53.087637" lon="-4.113734"><ele>609</ele><time>2020-09-18T13:02:22Z</time><name>PT4151</name></trkpt>
<trkpt lat="53.087656" lon="-4.113724"><ele>607</ele><time>2020-09-18T13:02:25Z</time><name>PT4152</name></trkpt>
<trkpt lat="53.087687" lon="-4.113720"><ele>607</ele><time>2020-09-18T13:02:29Z</time><name>PT4153</name></trkpt>
<trkpt lat="53.087708" lon="-4.113732"><ele>605</ele><time>2020-09-18T13:02:32Z</time><name>PT4154</name></trkpt>
<trkpt lat="53.087732" lon="-4.113717"><ele>603</ele><time>2020-09-18T13:02:37Z</time><name>PT4155</name></trkpt>
<trkpt lat="53.087755" lon="-4.113712"><ele>602</ele><time>2020-09-18T13:02:40Z</time><name>PT4156</name></trkpt>
<trkpt lat="53.087778" lon="-4.113716"><ele>600</ele><time>2020-09-18T13:02:44Z</time><name>PT4157</name></trkpt>
<trkpt lat="53.087797" lon="-4.113710"><ele>600</ele><time>2020-09-18T13:02:47Z</time><name>PT4158</name></trkpt>
<trkpt lat="53.087825" lon="-4.113703"><ele>599</ele><time>2020-09-18T13:02:50Z</time><name>PT4159</name></trkpt>
<trkpt lat="53.087849" lon="-4.113702"><ele>598</ele><time>2020-09-18T13:02:55Z</time><name>PT4160</name></trkpt>
<trkpt lat="53.087866" lon="-4.113705"><ele>597</ele><time>2020-09-18T13:02:58Z</time><name>PT4161</name></trkpt>
<trkpt lat="53.087889" lon="-4.113704"><ele>595</ele><time>2020-09-18T13:03:02Z</time><name>PT4162</name></trkpt>
<trkpt lat="53.087907" lon="-4.113691"><ele>594</ele><time>2020-09-18T13:03:05Z</time><name>PT4163</name></trkpt>
<trkpt lat="53.087917" lon="-4.113679"><ele>593</ele><time>2020-09-18T13:03:08Z</time><name>PT4164</name></trkpt>
<trkpt lat="53.087942" lon="-4.113678"><ele>592</ele><time>2020-09-18T13:03:13Z</time><name>PT4165</name></trkpt>
<trkpt lat="53.087954" lon="-4.113685"><ele>590</ele><time>2020-09-18T13:03:16Z</time><name>PT4166</name></trkpt>
<trkpt lat="53.087979" lon="-4.113695"><ele>590</ele><time>2020-09-18T13:03:20Z</time><name>PT4167</name></trkpt>
<trkpt lat="53.087999" lon="-4.113691"><ele>588</ele><time>2020-09-18T13:03:23Z</time><name>PT4168</name></trkpt>
<trkpt lat="53.088021" lon="-4.113691"><ele>587</ele><time>2020-09-18T13:03:28Z</time><name>PT4169</name></trkpt>
<trkpt lat="53.088031" lon="-4.113673"><ele>587</ele><time>2020-09-18T13:03:31Z</time><name>PT4170</name></trkpt>
<trkpt lat="53.088051" lon="-4.113662"><ele>586</ele><time>2020-09-18T13:03:35Z</time><name>PT4171</name></trkpt>
<trkpt lat="53.088076" lon="-4.113658"><ele>585</ele><time>2020-09-18T13:03:38Z</time><name>PT4172</name></trkpt>
<trkpt lat="53.088095" lon="-4.113646"><ele>584</ele><time>2020-09-18T13:03:43Z</time><name>PT4173</name></trkpt>
<trkpt lat="53.088115" lon="-4.113630"><ele>582</ele><time>2020-09-18T13:03:47Z</time><name>PT4174</name></trkpt>
<trkpt lat="53.088132" lon="-4.113612"><ele>581</ele><time>2020-09-18T13:03:50Z</time><name>PT4175</name></trkpt>
<trkpt lat="53.088150" lon="-4.113584"><ele>580</ele><time>2020-09-18T13:03:55Z</time><name>PT4176</name></trkpt>
<trkpt lat="53.088165" lon="-4.113575"><ele>579</ele><time>2020-09-18T13:03:58Z</time><name>PT4177</name></trkpt>
<trkpt lat="53.088184" lon="-4.113573"><ele>578</ele><time>2020-09-18T13:04:02Z</time><name>PT4178</name></trkpt>
<trkpt lat="53.088190" lon="-4.113580"><ele>577</ele><time>2020-09-18T13:04:05Z</time><name>PT4179</name></trkpt>
<trkpt lat="53.088199" lon="-4.113571"><ele>577</ele><time>2020-09-18T13:04:20Z</time><name>PT4180</name></trkpt>
<trkpt lat="53.088202" lon="-4.113569"><ele>576</ele><time>2020-09-18T13:04:23Z</time><name>PT4181</name></trkpt>
<trkpt lat="53.088202" lon="-4.113562"><ele>576</ele><time>2020-09-18T13:04:29Z</time><name>PT4182</name></trkpt>
<trkpt lat="53.088216" lon="-4.113560"><ele>575</ele><time>2020-09-18T13:04:32Z</time><name>PT4183</name></trkpt>
<trkpt lat="53.088227" lon="-4.113562"><ele>575</ele><time>2020-09-18T13:04:37Z</time><name>PT4184</name></trkpt>
<trkpt lat="53.088259" lon="-4.113559"><ele>573</ele><time>2020-09-18T13:04:41Z</time><name>PT4185</name></trkpt>
<trkpt lat="53.088285" lon="-4.113558"><ele>572</ele><time>2020-09-18T13:04:44Z</time><name>PT4186</name></trkpt>
<trkpt lat="53.088310" lon="-4.113556"><ele>571</ele><time>2020-09-18T13:04:47Z</time><name>PT4187</name></trkpt>
<trkpt lat="53.088331" lon="-4.113553"><ele>569</ele><time>2020-09-18T13:04:50Z</time><name>PT4188</name></trkpt>
<trkpt lat="53.088364" lon="-4.113547"><ele>569</ele><time>2020-09-18T13:04:55Z</time><name>PT4189</name></trkpt>
<trkpt lat="53.088396" lon="-4.113539"><ele>568</ele><time>2020-09-18T13:04:59Z</time><name>PT4190</name></trkpt>
<trkpt lat="53.088417" lon="-4.113540"><ele>567</ele><time>2020-09-18T13:05:02Z</time><name>PT4191</name></trkpt>
<trkpt lat="53.088447" lon="-4.113531"><ele>565</ele><time>2020-09-18T13:05:05Z</time><name>PT4192</name></trkpt>
<trkpt lat="53.088472" lon="-4.113520"><ele>564</ele><time>2020-09-18T13:05:08Z</time><name>PT4193</name></trkpt>
<trkpt lat="53.088508" lon="-4.113510"><ele>563</ele><time>2020-09-18T13:05:13Z</time><name>PT4194</name></trkpt>
<trkpt lat="53.088534" lon="-4.113481"><ele>562</ele><time>2020-09-18T13:05:17Z</time><name>PT4195</name></trkpt>
<trkpt lat="53.088570" lon="-4.113458"><ele>560</ele><time>2020-09-18T13:05:20Z</time><name>PT4196</name></trkpt>
<trkpt lat="53.088604" lon="-4.113449"><ele>559</ele><time>2020-09-18T13:05:25Z</time><name>PT4197</name></trkpt>
<trkpt lat="53.088632" lon="-4.113445"><ele>558</ele><time>2020-09-18T13:05:28Z</time><name>PT4198</name></trkpt>
<trkpt lat="53.088664" lon="-4.113423"><ele>557</ele><time>2020-09-18T13:05:32Z</time><name>PT4199</name></trkpt>
<trkpt lat="53.088682" lon="-4.113408"><ele>556</ele><time>2020-09-18T13:05:35Z</time><name>PT4200</name></trkpt>
<trkpt lat="53.088702" lon="-4.113396"><ele>555</ele><time>2020-09-18T13:05:38Z</time><name>PT4201</name></trkpt>
<trkpt lat="53.088734" lon="-4.113367"><ele>554</ele><time>2020-09-18T13:05:41Z</time><name>PT4202</name></trkpt>
<trkpt lat="53.088757" lon="-4.113353"><ele>553</ele><time>2020-09-18T13:05:44Z</time><name>PT4203</name></trkpt>
<trkpt lat="53.088784" lon="-4.113315"><ele>553</ele><time>2020-09-18T13:05:49Z</time><name>PT4204</name></trkpt>
<trkpt lat="53.088806" lon="-4.113278"><ele>552</ele><time>2020-09-18T13:05:53Z</time><name>PT4205</name></trkpt>
<trkpt lat="53.088840" lon="-4.113244"><ele>551</ele><time>2020-09-18T13:05:56Z</time><name>PT4206</name></trkpt>
<trkpt lat="53.088862" lon="-4.113231"><ele>550</ele><time>2020-09-18T13:05:59Z</time><name>PT4207</name></trkpt>
<trkpt lat="53.088889" lon="-4.113220"><ele>550</ele><time>2020-09-18T13:06:02Z</time><name>PT4208</name></trkpt>
<trkpt lat="53.088923" lon="-4.113199"><ele>548</ele><time>2020-09-18T13:06:07Z</time><name>PT4209</name></trkpt>
<trkpt lat="53.088947" lon="-4.113185"><ele>548</ele><time>2020-09-18T13:06:10Z</time><name>PT4210</name></trkpt>
<trkpt lat="53.088967" lon="-4.113175"><ele>548</ele><time>2020-09-18T13:06:13Z</time><name>PT4211</name></trkpt>
<trkpt lat="53.088971" lon="-4.113176"><ele>548</ele><time>2020-09-18T13:06:17Z</time><name>PT4212</name></trkpt>
<trkpt lat="53.088975" lon="-4.113169"><ele>548</ele><time>2020-09-18T13:06:23Z</time><name>PT4213</name></trkpt>
<trkpt lat="53.088998" lon="-4.113154"><ele>548</ele><time>2020-09-18T13:06:26Z</time><name>PT4214</name></trkpt>
<trkpt lat="53.089009" lon="-4.113166"><ele>547</ele><time>2020-09-18T13:06:29Z</time><name>PT4215</name></trkpt>
<trkpt lat="53.089032" lon="-4.113191"><ele>545</ele><time>2020-09-18T13:06:34Z</time><name>PT4216</name></trkpt>
<trkpt lat="53.089054" lon="-4.113220"><ele>544</ele><time>2020-09-18T13:06:38Z</time><name>PT4217</name></trkpt>
<trkpt lat="53.089065" lon="-4.113257"><ele>543</ele><time>2020-09-18T13:06:41Z</time><name>PT4218</name></trkpt>
<trkpt lat="53.089079" lon="-4.113307"><ele>542</ele><time>2020-09-18T13:06:44Z</time><name>PT4219</name></trkpt>
<trkpt lat="53.089089" lon="-4.113348"><ele>541</ele><time>2020-09-18T13:06:49Z</time><name>PT4220</name></trkpt>
<trkpt lat="53.089093" lon="-4.113386"><ele>540</ele><time>2020-09-18T13:06:52Z</time><name>PT4221</name></trkpt>
<trkpt lat="53.089106" lon="-4.113414"><ele>539</ele><time>2020-09-18T13:06:56Z</time><name>PT4222</name></trkpt>
<trkpt lat="53.089122" lon="-4.113424"><ele>538</ele><time>2020-09-18T13:06:59Z</time><name>PT4223</name></trkpt>
<trkpt lat="53.089118" lon="-4.113452"><ele>537</ele><time>2020-09-18T13:07:02Z</time><name>PT4224</name></trkpt>
<trkpt lat="53.089136" lon="-4.113466"><ele>534</ele><time>2020-09-18T13:07:05Z</time><name>PT4225</name></trkpt>
<trkpt lat="53.089146" lon="-4.113499"><ele>534</ele><time>2020-09-18T13:07:08Z</time><name>PT4226</name></trkpt>
<trkpt lat="53.089162" lon="-4.113530"><ele>533</ele><time>2020-09-18T13:07:13Z</time><name>PT4227</name></trkpt>
<trkpt lat="53.089179" lon="-4.113545"><ele>532</ele><time>2020-09-18T13:07:16Z</time><name>PT4228</name></trkpt>
<trkpt lat="53.089200" lon="-4.113547"><ele>530</ele><time>2020-09-18T13:07:20Z</time><name>PT4229</name></trkpt>
<trkpt lat="53.089228" lon="-4.113553"><ele>529</ele><time>2020-09-18T13:07:23Z</time><name>PT4230</name></trkpt>
<trkpt lat="53.089251" lon="-4.113561"><ele>528</ele><time>2020-09-18T13:07:26Z</time><name>PT4231</name></trkpt>
<trkpt lat="53.089267" lon="-4.113564"><ele>527</ele><time>2020-09-18T13:07:29Z</time><name>PT4232</name></trkpt>
<trkpt lat="53.089299" lon="-4.113573"><ele>526</ele><time>2020-09-18T13:07:34Z</time><name>PT4233</name></trkpt>
<trkpt lat="53.089332" lon="-4.113574"><ele>524</ele><time>2020-09-18T13:07:38Z</time><name>PT4234</name></trkpt>
<trkpt lat="53.089358" lon="-4.113588"><ele>524</ele><time>2020-09-18T13:07:41Z</time><name>PT4235</name></trkpt>
<trkpt lat="53.089393" lon="-4.113604"><ele>523</ele><time>2020-09-18T13:07:44Z</time><name>PT4236</name></trkpt>
<trkpt lat="53.089429" lon="-4.113612"><ele>522</ele><time>2020-09-18T13:07:49Z</time><name>PT4237</name></trkpt>
<trkpt lat="53.089459" lon="-4.113620"><ele>522</ele><time>2020-09-18T13:07:52Z</time><name>PT4238</name></trkpt>
<trkpt lat="53.089486" lon="-4.113616"><ele>521</ele><time>2020-09-18T13:07:55Z</time><name>PT4239</name></trkpt>
<trkpt lat="53.089513" lon="-4.113622"><ele>519</ele><time>2020-09-18T13:07:58Z</time><name>PT4240</name></trkpt>
<trkpt lat="53.089534" lon="-4.113639"><ele>518</ele><time>2020-09-18T13:08:01Z</time><name>PT4241</name></trkpt>
<trkpt lat="53.089558" lon="-4.113657"><ele>517</ele><time>2020-09-18T13:08:04Z</time><name>PT4242</name></trkpt>
<trkpt lat="53.089593" lon="-4.113658"><ele>516</ele><time>2020-09-18T13:08:08Z</time><name>PT4243</name></trkpt>
<trkpt lat="53.089625" lon="-4.113656"><ele>516</ele><time>2020-09-18T13:08:11Z</time><name>PT4244</name></trkpt>
<trkpt lat="53.089668" lon="-4.113657"><ele>516</ele><time>2020-09-18T13:08:14Z</time><name>PT4245</name></trkpt>
<trkpt lat="53.089710" lon="-4.113659"><ele>515</ele><time>2020-09-18T13:08:19Z</time><name>PT4246</name></trkpt>
<trkpt lat="53.089734" lon="-4.113661"><ele>514</ele><time>2020-09-18T13:08:23Z</time><name>PT4247</name></trkpt>
<trkpt lat="53.089753" lon="-4.113674"><ele>513</ele><time>2020-09-18T13:08:26Z</time><name>PT4248</name></trkpt>
<trkpt lat="53.089774" lon="-4.113702"><ele>511</ele><time>2020-09-18T13:08:29Z</time><name>PT4249</name></trkpt>
<trkpt lat="53.089792" lon="-4.113727"><ele>510</ele><time>2020-09-18T13:08:32Z</time><name>PT4250</name></trkpt>
<trkpt lat="53.089819" lon="-4.113762"><ele>509</ele><time>2020-09-18T13:08:37Z</time><name>PT4251</name></trkpt>
<trkpt lat="53.089839" lon="-4.113788"><ele>508</ele><time>2020-09-18T13:08:40Z</time><name>PT4252</name></trkpt>
<trkpt lat="53.089870" lon="-4.113818"><ele>507</ele><time>2020-09-18T13:08:44Z</time><name>PT4253</name></trkpt>
<trkpt lat="53.089904" lon="-4.113843"><ele>505</ele><time>2020-09-18T13:08:47Z</time><name>PT4254</name></trkpt>
<trkpt lat="53.089929" lon="-4.113873"><ele>504</ele><time>2020-09-18T13:08:52Z</time><name>PT4255</name></trkpt>
<trkpt lat="53.089955" lon="-4.113901"><ele>504</ele><time>2020-09-18T13:08:56Z</time><name>PT4256</name></trkpt>
<trkpt lat="53.089982" lon="-4.113925"><ele>502</ele><time>2020-09-18T13:08:59Z</time><name>PT4257</name></trkpt>
<trkpt lat="53.090012" lon="-4.113949"><ele>501</ele><time>2020-09-18T13:09:04Z</time><name>PT4258</name></trkpt>
<trkpt lat="53.090039" lon="-4.113972"><ele>500</ele><time>2020-09-18T13:09:08Z</time><name>PT4259</name></trkpt>
<trkpt lat="53.090069" lon="-4.113989"><ele>499</ele><time>2020-09-18T13:09:11Z</time><name>PT4260</name></trkpt>
<trkpt lat="53.090089" lon="-4.113999"><ele>498</ele><time>2020-09-18T13:09:14Z</time><name>PT4261</name></trkpt>
<trkpt lat="53.090109" lon="-4.114012"><ele>497</ele><time>2020-09-18T13:09:17Z</time><name>PT4262</name></trkpt>
<trkpt lat="53.090133" lon="-4.114026"><ele>497</ele><time>2020-09-18T13:09:20Z</time><name>PT4263</name></trkpt>
<trkpt lat="53.090160" lon="-4.114044"><ele>496</ele><time>2020-09-18T13:09:25Z</time><name>PT4264</name></trkpt>
<trkpt lat="53.090179" lon="-4.114055"><ele>494</ele><time>2020-09-18T13:09:28Z</time><name>PT4265</name></trkpt>
<trkpt lat="53.090201" lon="-4.114064"><ele>493</ele><time>2020-09-18T13:09:32Z</time><name>PT4266</name></trkpt>
<trkpt lat="53.090220" lon="-4.114079"><ele>492</ele><time>2020-09-18T13:09:35Z</time><name>PT4267</name></trkpt>
<trkpt lat="53.090240" lon="-4.114090"><ele>492</ele><time>2020-09-18T13:09:38Z</time><name>PT4268</name></trkpt>
<trkpt lat="53.090261" lon="-4.114123"><ele>491</ele><time>2020-09-18T13:09:42Z</time><name>PT4269</name></trkpt>
<trkpt lat="53.090280" lon="-4.114140"><ele>490</ele><time>2020-09-18T13:09:45Z</time><name>PT4270</name></trkpt>
<trkpt lat="53.090310" lon="-4.114166"><ele>489</ele><time>2020-09-18T13:09:49Z</time><name>PT4271</name></trkpt>
<trkpt lat="53.090327" lon="-4.114182"><ele>488</ele><time>2020-09-18T13:09:52Z</time><name>PT4272</name></trkpt>
<trkpt lat="53.090349" lon="-4.114216"><ele>487</ele><time>2020-09-18T13:09:56Z</time><name>PT4273</name></trkpt>
<trkpt lat="53.090371" lon="-4.114236"><ele>486</ele><time>2020-09-18T13:09:59Z</time><name>PT4274</name></trkpt>
<trkpt lat="53.090391" lon="-4.114270"><ele>484</ele><time>2020-09-18T13:10:02Z</time><name>PT4275</name></trkpt>
<trkpt lat="53.090407" lon="-4.114292"><ele>483</ele><time>2020-09-18T13:10:05Z</time><name>PT4276</name></trkpt>
<trkpt lat="53.090432" lon="-4.114315"><ele>482</ele><time>2020-09-18T13:10:10Z</time><name>PT4277</name></trkpt>
<trkpt lat="53.090461" lon="-4.114338"><ele>481</ele><time>2020-09-18T13:10:14Z</time><name>PT4278</name></trkpt>
<trkpt lat="53.090485" lon="-4.114355"><ele>482</ele><time>2020-09-18T13:10:17Z</time><name>PT4279</name></trkpt>
<trkpt lat="53.090494" lon="-4.114357"><ele>482</ele><time>2020-09-18T13:10:17Z</time><name>PT4280</name></trkpt>
<trkpt lat="53.090499" lon="-4.114362"><ele>481</ele><time>2020-09-18T13:10:19Z</time><name>PT4281</name></trkpt>
<trkpt lat="53.090507" lon="-4.114365"><ele>481</ele><time>2020-09-18T13:10:20Z</time><name>PT4282</name></trkpt>
<trkpt lat="53.090517" lon="-4.114370"><ele>481</ele><time>2020-09-18T13:10:20Z</time><name>PT4283</name></trkpt>
<trkpt lat="53.090524" lon="-4.114374"><ele>481</ele><time>2020-09-18T13:10:22Z</time><name>PT4284</name></trkpt>
<trkpt lat="53.090531" lon="-4.114378"><ele>481</ele><time>2020-09-18T13:10:23Z</time><name>PT4285</name></trkpt>
<trkpt lat="53.090538" lon="-4.114381"><ele>481</ele><time>2020-09-18T13:10:23Z</time><name>PT4286</name></trkpt>
<trkpt lat="53.090546" lon="-4.114384"><ele>480</ele><time>2020-09-18T13:10:25Z</time><name>PT4287</name></trkpt>
<trkpt lat="53.090554" lon="-4.114385"><ele>480</ele><time>2020-09-18T13:10:26Z</time><name>PT4288</name></trkpt>
<trkpt lat="53.090562" lon="-4.114382"><ele>480</ele><time>2020-09-18T13:10:26Z</time><name>PT4289</name></trkpt>
<trkpt lat="53.090569" lon="-4.114384"><ele>480</ele><time>2020-09-18T13:10:28Z</time><name>PT4290</name></trkpt>
<trkpt lat="53.090575" lon="-4.114388"><ele>480</ele><time>2020-09-18T13:10:29Z</time><name>PT4291</name></trkpt>
<trkpt lat="53.090583" lon="-4.114391"><ele>479</ele><time>2020-09-18T13:10:29Z</time><name>PT4292</name></trkpt>
<trkpt lat="53.090592" lon="-4.114396"><ele>479</ele><time>2020-09-18T13:10:31Z</time><name>PT4293</name></trkpt>
<trkpt lat="53.090599" lon="-4.114403"><ele>479</ele><time>2020-09-18T13:10:32Z</time><name>PT4294</name></trkpt>
<trkpt lat="53.090605" lon="-4.114411"><ele>479</ele><time>2020-09-18T13:10:32Z</time><name>PT4295</name></trkpt>
<trkpt lat="53.090612" lon="-4.114420"><ele>479</ele><time>2020-09-18T13:10:34Z</time><name>PT4296</name></trkpt>
<trkpt lat="53.090618" lon="-4.114425"><ele>478</ele><time>2020-09-18T13:10:35Z</time><name>PT4297</name></trkpt>
<trkpt lat="53.090624" lon="-4.114431"><ele>478</ele><time>2020-09-18T13:10:35Z</time><name>PT4298</name></trkpt>
<trkpt lat="53.090631" lon="-4.114439"><ele>478</ele><time>2020-09-18T13:10:37Z</time><name>PT4299</name></trkpt>
<trkpt lat="53.090636" lon="-4.114448"><ele>478</ele><time>2020-09-18T13:10:38Z</time><name>PT4300</name></trkpt>
<trkpt lat="53.090641" lon="-4.114456"><ele>477</ele><time>2020-09-18T13:10:38Z</time><name>PT4301</name></trkpt>
<trkpt lat="53.090647" lon="-4.114464"><ele>477</ele><time>2020-09-18T13:10:40Z</time><name>PT4302</name></trkpt>
<trkpt lat="53.090653" lon="-4.114473"><ele>477</ele><time>2020-09-18T13:10:41Z</time><name>PT4303</name></trkpt>
<trkpt lat="53.090658" lon="-4.114479"><ele>477</ele><time>2020-09-18T13:10:41Z</time><name>PT4304</name></trkpt>
<trkpt lat="53.090667" lon="-4.114482"><ele>476</ele><time>2020-09-18T13:10:43Z</time><name>PT4305</name></trkpt>
<trkpt lat="53.090674" lon="-4.114491"><ele>476</ele><time>2020-09-18T13:10:44Z</time><name>PT4306</name></trkpt>
<trkpt lat="53.090679" lon="-4.114498"><ele>476</ele><time>2020-09-18T13:10:44Z</time><name>PT4307</name></trkpt>
<trkpt lat="53.090683" lon="-4.114506"><ele>476</ele><time>2020-09-18T13:10:46Z</time><name>PT4308</name></trkpt>
<trkpt lat="53.090687" lon="-4.114514"><ele>475</ele><time>2020-09-18T13:10:47Z</time><name>PT4309</name></trkpt>
<trkpt lat="53.090696" lon="-4.114523"><ele>475</ele><time>2020-09-18T13:10:47Z</time><name>PT4310</name></trkpt>
<trkpt lat="53.090703" lon="-4.114526"><ele>475</ele><time>2020-09-18T13:10:49Z</time><name>PT4311</name></trkpt>
<trkpt lat="53.090710" lon="-4.114531"><ele>474</ele><time>2020-09-18T13:10:50Z</time><name>PT4312</name></trkpt>
<trkpt lat="53.090719" lon="-4.114537"><ele>474</ele><time>2020-09-18T13:10:50Z</time><name>PT4313</name></trkpt>
<trkpt lat="53.090726" lon="-4.114542"><ele>473</ele><time>2020-09-18T13:10:52Z</time><name>PT4314</name></trkpt>
<trkpt lat="53.090732" lon="-4.114548"><ele>473</ele><time>2020-09-18T13:10:53Z</time><name>PT4315</name></trkpt>
<trkpt lat="53.090740" lon="-4.114557"><ele>473</ele><time>2020-09-18T13:10:53Z</time><name>PT4316</name></trkpt>
<trkpt lat="53.090746" lon="-4.114563"><ele>472</ele><time>2020-09-18T13:10:55Z</time><name>PT4317</name></trkpt>
<trkpt lat="53.090751" lon="-4.114565"><ele>472</ele><time>2020-09-18T13:10:56Z</time><name>PT4318</name></trkpt>
<trkpt lat="53.090759" lon="-4.114566"><ele>471</ele><time>2020-09-18T13:10:56Z</time><name>PT4319</name></trkpt>
<trkpt lat="53.090768" lon="-4.114567"><ele>471</ele><time>2020-09-18T13:10:58Z</time><name>PT4320</name></trkpt>
<trkpt lat="53.090776" lon="-4.114572"><ele>470</ele><time>2020-09-18T13:10:59Z</time><name>PT4321</name></trkpt>
<trkpt lat="53.090783" lon="-4.114576"><ele>470</ele><time>2020-09-18T13:10:59Z</time><name>PT4322</name></trkpt>
<trkpt lat="53.090789" lon="-4.114578"><ele>469</ele><time>2020-09-18T13:11:01Z</time><name>PT4323</name></trkpt>
<trkpt lat="53.090796" lon="-4.114579"><ele>469</ele><time>2020-09-18T13:11:02Z</time><name>PT4324</name></trkpt>
<trkpt lat="53.090802" lon="-4.114579"><ele>469</ele><time>2020-09-18T13:11:02Z</time><name>PT4325</name></trkpt>
<trkpt lat="53.090810" lon="-4.114582"><ele>468</ele><time>2020-09-18T13:11:04Z</time><name>PT4326</name></trkpt>
<trkpt lat="53.090819" lon="-4.114585"><ele>468</ele><time>2020-09-18T13:11:05Z</time><name>PT4327</name></trkpt>
<trkpt lat="53.090826" lon="-4.114589"><ele>467</ele><time>2020-09-18T13:11:05Z</time><name>PT4328</name></trkpt>
<trkpt lat="53.090834" lon="-4.114592"><ele>467</ele><time>2020-09-18T13:11:07Z</time><name>PT4329</name></trkpt>
<trkpt lat="53.090841" lon="-4.114594"><ele>467</ele><time>2020-09-18T13:11:08Z</time><name>PT4330</name></trkpt>
<trkpt lat="53.090849" lon="-4.114596"><ele>466</ele><time>2020-09-18T13:11:08Z</time><name>PT4331</name></trkpt>
<trkpt lat="53.090858" lon="-4.114600"><ele>466</ele><time>2020-09-18T13:11:10Z</time><name>PT4332</name></trkpt>
<trkpt lat="53.090864" lon="-4.114606"><ele>466</ele><time>2020-09-18T13:11:11Z</time><name>PT4333</name></trkpt>
<trkpt lat="53.090869" lon="-4.114613"><ele>465</ele><time>2020-09-18T13:11:11Z</time><name>PT4334</name></trkpt>
<trkpt lat="53.090875" lon="-4.114616"><ele>465</ele><time>2020-09-18T13:11:13Z</time><name>PT4335</name></trkpt>
<trkpt lat="53.090881" lon="-4.114619"><ele>465</ele><time>2020-09-18T13:11:14Z</time><name>PT4336</name></trkpt>
<trkpt lat="53.090886" lon="-4.114622"><ele>465</ele><time>2020-09-18T13:11:14Z</time><name>PT4337</name></trkpt>
<trkpt lat="53.090890" lon="-4.114627"><ele>464</ele><time>2020-09-18T13:11:16Z</time><name>PT4338</name></trkpt>
<trkpt lat="53.090895" lon="-4.114632"><ele>464</ele><time>2020-09-18T13:11:17Z</time><name>PT4339</name></trkpt>
<trkpt lat="53.090902" lon="-4.114636"><ele>464</ele><time>2020-09-18T13:11:17Z</time><name>PT4340</name></trkpt>
<trkpt lat="53.090908" lon="-4.114643"><ele>464</ele><time>2020-09-18T13:11:19Z</time><name>PT4341</name></trkpt>
<trkpt lat="53.090911" lon="-4.114650"><ele>464</ele><time>2020-09-18T13:11:20Z</time><name>PT4342</name></trkpt>
<trkpt lat="53.090913" lon="-4.114657"><ele>464</ele><time>2020-09-18T13:11:20Z</time><name>PT4343</name></trkpt>
<trkpt lat="53.090915" lon="-4.114665"><ele>464</ele><time>2020-09-18T13:11:22Z</time><name>PT4344</name></trkpt>
<trkpt lat="53.090919" lon="-4.114669"><ele>464</ele><time>2020-09-18T13:11:23Z</time><name>PT4345</name></trkpt>
<trkpt lat="53.090921" lon="-4.114672"><ele>464</ele><time>2020-09-18T13:11:23Z</time><name>PT4346</name></trkpt>
<trkpt lat="53.090921" lon="-4.114675"><ele>463</ele><time>2020-09-18T13:11:25Z</time><name>PT4347</name></trkpt>
<trkpt lat="53.090922" lon="-4.114677"><ele>463</ele><time>2020-09-18T13:11:26Z</time><name>PT4348</name></trkpt>
<trkpt lat="53.090933" lon="-4.114678"><ele>463</ele><time>2020-09-18T13:11:39Z</time><name>PT4349</name></trkpt>
<trkpt lat="53.090936" lon="-4.114685"><ele>463</ele><time>2020-09-18T13:11:40Z</time><name>PT4350</name></trkpt>
<trkpt lat="53.090938" lon="-4.114693"><ele>463</ele><time>2020-09-18T13:11:41Z</time><name>PT4351</name></trkpt>
<trkpt lat="53.090942" lon="-4.114704"><ele>463</ele><time>2020-09-18T13:11:41Z</time><name>PT4352</name></trkpt>
<trkpt lat="53.090945" lon="-4.114714"><ele>462</ele><time>2020-09-18T13:11:43Z</time><name>PT4353</name></trkpt>
<trkpt lat="53.090947" lon="-4.114722"><ele>462</ele><time>2020-09-18T13:11:44Z</time><name>PT4354</name></trkpt>
<trkpt lat="53.090949" lon="-4.114727"><ele>462</ele><time>2020-09-18T13:11:45Z</time><name>PT4355</name></trkpt>
<trkpt lat="53.090951" lon="-4.114725"><ele>462</ele><time>2020-09-18T13:11:46Z</time><name>PT4356</name></trkpt>
<trkpt lat="53.090950" lon="-4.114724"><ele>462</ele><time>2020-09-18T13:11:47Z</time><name>PT4357</name></trkpt>
<trkpt lat="53.090952" lon="-4.114730"><ele>462</ele><time>2020-09-18T13:11:47Z</time><name>PT4358</name></trkpt>
<trkpt lat="53.090957" lon="-4.114738"><ele>462</ele><time>2020-09-18T13:11:49Z</time><name>PT4359</name></trkpt>
<trkpt lat="53.090960" lon="-4.114747"><ele>462</ele><time>2020-09-18T13:11:50Z</time><name>PT4360</name></trkpt>
<trkpt lat="53.090964" lon="-4.114758"><ele>462</ele><time>2020-09-18T13:11:50Z</time><name>PT4361</name></trkpt>
<trkpt lat="53.090968" lon="-4.114762"><ele>462</ele><time>2020-09-18T13:11:52Z</time><name>PT4362</name></trkpt>
<trkpt lat="53.090972" lon="-4.114767"><ele>462</ele><time>2020-09-18T13:11:53Z</time><name>PT4363</name></trkpt>
<trkpt lat="53.090974" lon="-4.114774"><ele>461</ele><time>2020-09-18T13:11:53Z</time><name>PT4364</name></trkpt>
<trkpt lat="53.090979" lon="-4.114789"><ele>461</ele><time>2020-09-18T13:11:55Z</time><name>PT4365</name></trkpt>
<trkpt lat="53.090982" lon="-4.114796"><ele>461</ele><time>2020-09-18T13:11:56Z</time><name>PT4366</name></trkpt>
<trkpt lat="53.090985" lon="-4.114805"><ele>461</ele><time>2020-09-18T13:11:56Z</time><name>PT4367</name></trkpt>
<trkpt lat="53.090986" lon="-4.114815"><ele>461</ele><time>2020-09-18T13:11:58Z</time><name>PT4368</name></trkpt>
<trkpt lat="53.090989" lon="-4.114827"><ele>461</ele><time>2020-09-18T13:11:59Z</time><name>PT4369</name></trkpt>
<trkpt lat="53.090991" lon="-4.114843"><ele>460</ele><time>2020-09-18T13:11:59Z</time><name>PT4370</name></trkpt>
<trkpt lat="53.090993" lon="-4.114856"><ele>460</ele><time>2020-09-18T13:12:01Z</time><name>PT4371</name></trkpt>
<trkpt lat="53.090995" lon="-4.114870"><ele>460</ele><time>2020-09-18T13:12:02Z</time><name>PT4372</name></trkpt>
<trkpt lat="53.090997" lon="-4.114883"><ele>459</ele><time>2020-09-18T13:12:02Z</time><name>PT4373</name></trkpt>
<trkpt lat="53.090997" lon="-4.114897"><ele>459</ele><time>2020-09-18T13:12:04Z</time><name>PT4374</name></trkpt>
<trkpt lat="53.090999" lon="-4.114912"><ele>459</ele><time>2020-09-18T13:12:05Z</time><name>PT4375</name></trkpt>
<trkpt lat="53.091000" lon="-4.114927"><ele>459</ele><time>2020-09-18T13:12:05Z</time><name>PT4376</name></trkpt>
<trkpt lat="53.091001" lon="-4.114938"><ele>459</ele><time>2020-09-18T13:12:07Z</time><name>PT4377</name></trkpt>
<trkpt lat="53.091003" lon="-4.114950"><ele>459</ele><time>2020-09-18T13:12:08Z</time><name>PT4378</name></trkpt>
<trkpt lat="53.091006" lon="-4.114964"><ele>458</ele><time>2020-09-18T13:12:08Z</time><name>PT4379</name></trkpt>
<trkpt lat="53.091007" lon="-4.114976"><ele>458</ele><time>2020-09-18T13:12:10Z</time><name>PT4380</name></trkpt>
<trkpt lat="53.091008" lon="-4.114988"><ele>458</ele><time>2020-09-18T13:12:11Z</time><name>PT4381</name></trkpt>
<trkpt lat="53.091009" lon="-4.115001"><ele>458</ele><time>2020-09-18T13:12:11Z</time><name>PT4382</name></trkpt>
<trkpt lat="53.091012" lon="-4.115014"><ele>457</ele><time>2020-09-18T13:12:13Z</time><name>PT4383</name></trkpt>
<trkpt lat="53.091014" lon="-4.115025"><ele>457</ele><time>2020-09-18T13:12:14Z</time><name>PT4384</name></trkpt>
<trkpt lat="53.091016" lon="-4.115037"><ele>457</ele><time>2020-09-18T13:12:14Z</time><name>PT4385</name></trkpt>
<trkpt lat="53.091019" lon="-4.115050"><ele>456</ele><time>2020-09-18T13:12:16Z</time><name>PT4386</name></trkpt>
<trkpt lat="53.091022" lon="-4.115059"><ele>456</ele><time>2020-09-18T13:12:17Z</time><name>PT4387</name></trkpt>
<trkpt lat="53.091026" lon="-4.115067"><ele>456</ele><time>2020-09-18T13:12:17Z</time><name>PT4388</name></trkpt>
<trkpt lat="53.091030" lon="-4.115075"><ele>456</ele><time>2020-09-18T13:12:19Z</time><name>PT4389</name></trkpt>
<trkpt lat="53.091034" lon="-4.115088"><ele>455</ele><time>2020-09-18T13:12:20Z</time><name>PT4390</name></trkpt>
<trkpt lat="53.091037" lon="-4.115100"><ele>455</ele><time>2020-09-18T13:12:20Z</time><name>PT4391</name></trkpt>
<trkpt lat="53.091038" lon="-4.115111"><ele>454</ele><time>2020-09-18T13:12:22Z</time><name>PT4392</name></trkpt>
<trkpt lat="53.091044" lon="-4.115122"><ele>455</ele><time>2020-09-18T13:12:23Z</time><name>PT4393</name></trkpt>
<trkpt lat="53.091048" lon="-4.115133"><ele>454</ele><time>2020-09-18T13:12:23Z</time><name>PT4394</name></trkpt>
<trkpt lat="53.091050" lon="-4.115146"><ele>454</ele><time>2020-09-18T13:12:25Z</time><name>PT4395</name></trkpt>
<trkpt lat="53.091052" lon="-4.115160"><ele>454</ele><time>2020-09-18T13:12:26Z</time><name>PT4396</name></trkpt>
<trkpt lat="53.091051" lon="-4.115175"><ele>453</ele><time>2020-09-18T13:12:26Z</time><name>PT4397</name></trkpt>
<trkpt lat="53.091053" lon="-4.115183"><ele>453</ele><time>2020-09-18T13:12:28Z</time><name>PT4398</name></trkpt>
<trkpt lat="53.091057" lon="-4.115190"><ele>453</ele><time>2020-09-18T13:12:29Z</time><name>PT4399</name></trkpt>
<trkpt lat="53.091058" lon="-4.115195"><ele>453</ele><time>2020-09-18T13:12:29Z</time><name>PT4400</name></trkpt>
<trkpt lat="53.091059" lon="-4.115199"><ele>452</ele><time>2020-09-18T13:12:31Z</time><name>PT4401</name></trkpt>
<trkpt lat="53.091061" lon="-4.115205"><ele>452</ele><time>2020-09-18T13:12:32Z</time><name>PT4402</name></trkpt>
<trkpt lat="53.091063" lon="-4.115202"><ele>452</ele><time>2020-09-18T13:12:32Z</time><name>PT4403</name></trkpt>
<trkpt lat="53.091065" lon="-4.115205"><ele>452</ele><time>2020-09-18T13:12:34Z</time><name>PT4404</name></trkpt>
<trkpt lat="53.091068" lon="-4.115213"><ele>452</ele><time>2020-09-18T13:12:35Z</time><name>PT4405</name></trkpt>
<trkpt lat="53.091072" lon="-4.115224"><ele>452</ele><time>2020-09-18T13:12:35Z</time><name>PT4406</name></trkpt>
<trkpt lat="53.091074" lon="-4.115234"><ele>452</ele><time>2020-09-18T13:12:37Z</time><name>PT4407</name></trkpt>
<trkpt lat="53.091075" lon="-4.115245"><ele>451</ele><time>2020-09-18T13:12:38Z</time><name>PT4408</name></trkpt>
<trkpt lat="53.091078" lon="-4.115260"><ele>451</ele><time>2020-09-18T13:12:38Z</time><name>PT4409</name></trkpt>
<trkpt lat="53.091082" lon="-4.115274"><ele>450</ele><time>2020-09-18T13:12:40Z</time><name>PT4410</name></trkpt>
<trkpt lat="53.091085" lon="-4.115288"><ele>450</ele><time>2020-09-18T13:12:41Z</time><name>PT4411</name></trkpt>
<trkpt lat="53.091088" lon="-4.115297"><ele>450</ele><time>2020-09-18T13:12:41Z</time><name>PT4412</name></trkpt>
<trkpt lat="53.091092" lon="-4.115308"><ele>449</ele><time>2020-09-18T13:12:43Z</time><name>PT4413</name></trkpt>
<trkpt lat="53.091095" lon="-4.115319"><ele>449</ele><time>2020-09-18T13:12:44Z</time><name>PT4414</name></trkpt>
<trkpt lat="53.091096" lon="-4.115333"><ele>449</ele><time>2020-09-18T13:12:44Z</time><name>PT4415</name></trkpt>
<trkpt lat="53.091098" lon="-4.115343"><ele>448</ele><time>2020-09-18T13:12:46Z</time><name>PT4416</name></trkpt>
<trkpt lat="53.091103" lon="-4.115351"><ele>448</ele><time>2020-09-18T13:12:47Z</time><name>PT4417</name></trkpt>
<trkpt lat="53.091105" lon="-4.115355"><ele>448</ele><time>2020-09-18T13:12:47Z</time><name>PT4418</name></trkpt>
<trkpt lat="53.091107" lon="-4.115359"><ele>448</ele><time>2020-09-18T13:12:49Z</time><name>PT4419</name></trkpt>
<trkpt lat="53.091110" lon="-4.115366"><ele>447</ele><time>2020-09-18T13:12:50Z</time><name>PT4420</name></trkpt>
<trkpt lat="53.091112" lon="-4.115376"><ele>447</ele><time>2020-09-18T13:12:50Z</time><name>PT4421</name></trkpt>
<trkpt lat="53.091115" lon="-4.115385"><ele>447</ele><time>2020-09-18T13:12:52Z</time><name>PT4422</name></trkpt>
<trkpt lat="53.091117" lon="-4.115394"><ele>446</ele><time>2020-09-18T13:12:53Z</time><name>PT4423</name></trkpt>
<trkpt lat="53.091122" lon="-4.115399"><ele>446</ele><time>2020-09-18T13:12:53Z</time><name>PT4424</name></trkpt>
<trkpt lat="53.091128" lon="-4.115405"><ele>445</ele><time>2020-09-18T13:12:55Z</time><name>PT4425</name></trkpt>
<trkpt lat="53.091134" lon="-4.115408"><ele>445</ele><time>2020-09-18T13:12:56Z</time><name>PT4426</name></trkpt>
<trkpt lat="53.091141" lon="-4.115411"><ele>445</ele><time>2020-09-18T13:12:57Z</time><name>PT4427</name></trkpt>
<trkpt lat="53.091145" lon="-4.115414"><ele>445</ele><time>2020-09-18T13:12:58Z</time><name>PT4428</name></trkpt>
<trkpt lat="53.091146" lon="-4.115413"><ele>444</ele><time>2020-09-18T13:12:59Z</time><name>PT4429</name></trkpt>
<trkpt lat="53.091145" lon="-4.115414"><ele>444</ele><time>2020-09-18T13:13:00Z</time><name>PT4430</name></trkpt>
<trkpt lat="53.091144" lon="-4.115414"><ele>444</ele><time>2020-09-18T13:13:01Z</time><name>PT4431</name></trkpt>
<trkpt lat="53.091144" lon="-4.115415"><ele>444</ele><time>2020-09-18T13:13:02Z</time><name>PT4432</name></trkpt>
<trkpt lat="53.091142" lon="-4.115416"><ele>443</ele><time>2020-09-18T13:13:06Z</time><name>PT4433</name></trkpt>
<trkpt lat="53.091148" lon="-4.115415"><ele>443</ele><time>2020-09-18T13:13:07Z</time><name>PT4434</name></trkpt>
<trkpt lat="53.091155" lon="-4.115413"><ele>443</ele><time>2020-09-18T13:13:08Z</time><name>PT4435</name></trkpt>
<trkpt lat="53.091162" lon="-4.115407"><ele>442</ele><time>2020-09-18T13:13:09Z</time><name>PT4436</name></trkpt>
<trkpt lat="53.091170" lon="-4.115405"><ele>442</ele><time>2020-09-18T13:13:10Z</time><name>PT4437</name></trkpt>
<trkpt lat="53.091180" lon="-4.115403"><ele>441</ele><time>2020-09-18T13:13:11Z</time><name>PT4438</name></trkpt>
<trkpt lat="53.091189" lon="-4.115401"><ele>441</ele><time>2020-09-18T13:13:12Z</time><name>PT4439</name></trkpt>
<trkpt lat="53.091198" lon="-4.115398"><ele>440</ele><time>2020-09-18T13:13:13Z</time><name>PT4440</name></trkpt>
<trkpt lat="53.091206" lon="-4.115397"><ele>439</ele><time>2020-09-18T13:13:14Z</time><name>PT4441</name></trkpt>
<trkpt lat="53.091214" lon="-4.115400"><ele>439</ele><time>2020-09-18T13:13:14Z</time><name>PT4442</name></trkpt>
<trkpt lat="53.091222" lon="-4.115403"><ele>439</ele><time>2020-09-18T13:13:16Z</time><name>PT4443</name></trkpt>
<trkpt lat="53.091227" lon="-4.115407"><ele>439</ele><time>2020-09-18T13:13:17Z</time><name>PT4444</name></trkpt>
<trkpt lat="53.091233" lon="-4.115414"><ele>438</ele><time>2020-09-18T13:13:17Z</time><name>PT4445</name></trkpt>
<trkpt lat="53.091258" lon="-4.115430"><ele>436</ele><time>2020-09-18T13:13:22Z</time><name>PT4446</name></trkpt>
<trkpt lat="53.091280" lon="-4.115439"><ele>435</ele><time>2020-09-18T13:13:25Z</time><name>PT4447</name></trkpt>
<trkpt lat="53.091302" lon="-4.115444"><ele>434</ele><time>2020-09-18T13:13:28Z</time><name>PT4448</name></trkpt>
<trkpt lat="53.091332" lon="-4.115444"><ele>432</ele><time>2020-09-18T13:13:32Z</time><name>PT4449</name></trkpt>
<trkpt lat="53.091353" lon="-4.115443"><ele>431</ele><time>2020-09-18T13:13:35Z</time><name>PT4450</name></trkpt>
<trkpt lat="53.091381" lon="-4.115450"><ele>430</ele><time>2020-09-18T13:13:38Z</time><name>PT4451</name></trkpt>
<trkpt lat="53.091413" lon="-4.115443"><ele>429</ele><time>2020-09-18T13:13:41Z</time><name>PT4452</name></trkpt>
<trkpt lat="53.091440" lon="-4.115449"><ele>427</ele><time>2020-09-18T13:13:46Z</time><name>PT4453</name></trkpt>
<trkpt lat="53.091466" lon="-4.115470"><ele>426</ele><time>2020-09-18T13:13:50Z</time><name>PT4454</name></trkpt>
<trkpt lat="53.091489" lon="-4.115489"><ele>425</ele><time>2020-09-18T13:13:53Z</time><name>PT4455</name></trkpt>
<trkpt lat="53.091510" lon="-4.115512"><ele>424</ele><time>2020-09-18T13:13:56Z</time><name>PT4456</name></trkpt>
<trkpt lat="53.091527" lon="-4.115519"><ele>423</ele><time>2020-09-18T13:13:59Z</time><name>PT4457</name></trkpt>
<trkpt lat="53.091542" lon="-4.115523"><ele>422</ele><time>2020-09-18T13:14:02Z</time><name>PT4458</name></trkpt>
<trkpt lat="53.091559" lon="-4.115513"><ele>421</ele><time>2020-09-18T13:14:07Z</time><name>PT4459</name></trkpt>
<trkpt lat="53.091589" lon="-4.115495"><ele>420</ele><time>2020-09-18T13:14:11Z</time><name>PT4460</name></trkpt>
<trkpt lat="53.091616" lon="-4.115477"><ele>418</ele><time>2020-09-18T13:14:15Z</time><name>PT4461</name></trkpt>
<trkpt lat="53.091641" lon="-4.115462"><ele>418</ele><time>2020-09-18T13:14:18Z</time><name>PT4462</name></trkpt>
<trkpt lat="53.091661" lon="-4.115458"><ele>418</ele><time>2020-09-18T13:14:21Z</time><name>PT4463</name></trkpt>
<trkpt lat="53.091682" lon="-4.115447"><ele>418</ele><time>2020-09-18T13:14:25Z</time><name>PT4464</name></trkpt>
<trkpt lat="53.091694" lon="-4.115439"><ele>417</ele><time>2020-09-18T13:14:29Z</time><name>PT4465</name></trkpt>
<trkpt lat="53.091693" lon="-4.115442"><ele>417</ele><time>2020-09-18T13:14:32Z</time><name>PT4466</name></trkpt>
<trkpt lat="53.091709" lon="-4.115430"><ele>417</ele><time>2020-09-18T13:14:44Z</time><name>PT4467</name></trkpt>
<trkpt lat="53.091711" lon="-4.115428"><ele>418</ele><time>2020-09-18T13:14:47Z</time><name>PT4468</name></trkpt>
<trkpt lat="53.091715" lon="-4.115427"><ele>418</ele><time>2020-09-18T13:14:55Z</time><name>PT4469</name></trkpt>
<trkpt lat="53.091719" lon="-4.115419"><ele>418</ele><time>2020-09-18T13:15:17Z</time><name>PT4470</name></trkpt>
<trkpt lat="53.091738" lon="-4.115434"><ele>419</ele><time>2020-09-18T13:15:22Z</time><name>PT4471</name></trkpt>
<trkpt lat="53.091744" lon="-4.115424"><ele>420</ele><time>2020-09-18T13:16:20Z</time><name>PT4472</name></trkpt>
<trkpt lat="53.091782" lon="-4.115392"><ele>421</ele><time>2020-09-18T13:16:25Z</time><name>PT4473</name></trkpt>
<trkpt lat="53.091816" lon="-4.115362"><ele>420</ele><time>2020-09-18T13:16:29Z</time><name>PT4474</name></trkpt>
<trkpt lat="53.091832" lon="-4.115343"><ele>419</ele><time>2020-09-18T13:16:32Z</time><name>PT4475</name></trkpt>
<trkpt lat="53.091853" lon="-4.115312"><ele>418</ele><time>2020-09-18T13:16:35Z</time><name>PT4476</name></trkpt>
<trkpt lat="53.091873" lon="-4.115294"><ele>417</ele><time>2020-09-18T13:16:38Z</time><name>PT4477</name></trkpt>
<trkpt lat="53.091898" lon="-4.115280"><ele>417</ele><time>2020-09-18T13:16:43Z</time><name>PT4478</name></trkpt>
<trkpt lat="53.091914" lon="-4.115253"><ele>417</ele><time>2020-09-18T13:16:47Z</time><name>PT4479</name></trkpt>
<trkpt lat="53.091923" lon="-4.115253"><ele>418</ele><time>2020-09-18T13:16:50Z</time><name>PT4480</name></trkpt>
<trkpt lat="53.091909" lon="-4.115298"><ele>419</ele><time>2020-09-18T13:17:04Z</time><name>PT4481</name></trkpt>
<trkpt lat="53.091878" lon="-4.115345"><ele>419</ele><time>2020-09-18T13:17:08Z</time><name>PT4482</name></trkpt>
<trkpt lat="53.091847" lon="-4.115394"><ele>420</ele><time>2020-09-18T13:17:11Z</time><name>PT4483</name></trkpt>
<trkpt lat="53.091827" lon="-4.115422"><ele>421</ele><time>2020-09-18T13:17:14Z</time><name>PT4484</name></trkpt>
<trkpt lat="53.091803" lon="-4.115469"><ele>422</ele><time>2020-09-18T13:17:19Z</time><name>PT4485</name></trkpt>
<trkpt lat="53.091798" lon="-4.115520"><ele>422</ele><time>2020-09-18T13:17:22Z</time><name>PT4486</name></trkpt>
<trkpt lat="53.091797" lon="-4.115585"><ele>421</ele><time>2020-09-18T13:17:26Z</time><name>PT4487</name></trkpt>
<trkpt lat="53.091805" lon="-4.115642"><ele>420</ele><time>2020-09-18T13:17:29Z</time><name>PT4488</name></trkpt>
<trkpt lat="53.091816" lon="-4.115682"><ele>420</ele><time>2020-09-18T13:17:32Z</time><name>PT4489</name></trkpt>
<trkpt lat="53.091827" lon="-4.115720"><ele>419</ele><time>2020-09-18T13:17:35Z</time><name>PT4490</name></trkpt>
<trkpt lat="53.091841" lon="-4.115746"><ele>418</ele><time>2020-09-18T13:17:38Z</time><name>PT4491</name></trkpt>
<trkpt lat="53.091862" lon="-4.115763"><ele>416</ele><time>2020-09-18T13:17:42Z</time><name>PT4492</name></trkpt>
<trkpt lat="53.091884" lon="-4.115777"><ele>414</ele><time>2020-09-18T13:17:45Z</time><name>PT4493</name></trkpt>
<trkpt lat="53.091906" lon="-4.115793"><ele>413</ele><time>2020-09-18T13:17:48Z</time><name>PT4494</name></trkpt>
<trkpt lat="53.091927" lon="-4.115816"><ele>412</ele><time>2020-09-18T13:17:51Z</time><name>PT4495</name></trkpt>
<trkpt lat="53.091947" lon="-4.115848"><ele>410</ele><time>2020-09-18T13:17:55Z</time><name>PT4496</name></trkpt>
<trkpt lat="53.091957" lon="-4.115869"><ele>409</ele><time>2020-09-18T13:17:58Z</time><name>PT4497</name></trkpt>
<trkpt lat="53.091978" lon="-4.115893"><ele>408</ele><time>2020-09-18T13:18:01Z</time><name>PT4498</name></trkpt>
<trkpt lat="53.091997" lon="-4.115940"><ele>408</ele><time>2020-09-18T13:18:05Z</time><name>PT4499</name></trkpt>
<trkpt lat="53.092015" lon="-4.115966"><ele>407</ele><time>2020-09-18T13:18:08Z</time><name>PT4500</name></trkpt>
<trkpt lat="53.092031" lon="-4.115997"><ele>405</ele><time>2020-09-18T13:18:11Z</time><name>PT4501</name></trkpt>
<trkpt lat="53.092050" lon="-4.116032"><ele>404</ele><time>2020-09-18T13:18:14Z</time><name>PT4502</name></trkpt>
<trkpt lat="53.092070" lon="-4.116070"><ele>402</ele><time>2020-09-18T13:18:19Z</time><name>PT4503</name></trkpt>
<trkpt lat="53.092084" lon="-4.116095"><ele>402</ele><time>2020-09-18T13:18:22Z</time><name>PT4504</name></trkpt>
<trkpt lat="53.092104" lon="-4.116127"><ele>401</ele><time>2020-09-18T13:18:25Z</time><name>PT4505</name></trkpt>
<trkpt lat="53.092127" lon="-4.116173"><ele>400</ele><time>2020-09-18T13:18:29Z</time><name>PT4506</name></trkpt>
<trkpt lat="53.092157" lon="-4.116212"><ele>399</ele><time>2020-09-18T13:18:32Z</time><name>PT4507</name></trkpt>
<trkpt lat="53.092188" lon="-4.116248"><ele>398</ele><time>2020-09-18T13:18:37Z</time><name>PT4508</name></trkpt>
<trkpt lat="53.092211" lon="-4.116272"><ele>397</ele><time>2020-09-18T13:18:41Z</time><name>PT4509</name></trkpt>
<trkpt lat="53.092228" lon="-4.116291"><ele>396</ele><time>2020-09-18T13:18:44Z</time><name>PT4510</name></trkpt>
<trkpt lat="53.092248" lon="-4.116313"><ele>395</ele><time>2020-09-18T13:18:47Z</time><name>PT4511</name></trkpt>
<trkpt lat="53.092270" lon="-4.116341"><ele>393</ele><time>2020-09-18T13:18:52Z</time><name>PT4512</name></trkpt>
<trkpt lat="53.092288" lon="-4.116363"><ele>392</ele><time>2020-09-18T13:18:55Z</time><name>PT4513</name></trkpt>
<trkpt lat="53.092321" lon="-4.116378"><ele>390</ele><time>2020-09-18T13:18:59Z</time><name>PT4514</name></trkpt>
<trkpt lat="53.092342" lon="-4.116393"><ele>390</ele><time>2020-09-18T13:19:02Z</time><name>PT4515</name></trkpt>
<trkpt lat="53.092362" lon="-4.116426"><ele>388</ele><time>2020-09-18T13:19:05Z</time><name>PT4516</name></trkpt>
<trkpt lat="53.092386" lon="-4.116428"><ele>387</ele><time>2020-09-18T13:19:08Z</time><name>PT4517</name></trkpt>
<trkpt lat="53.092407" lon="-4.116446"><ele>385</ele><time>2020-09-18T13:19:11Z</time><name>PT4518</name></trkpt>
<trkpt lat="53.092428" lon="-4.116457"><ele>385</ele><time>2020-09-18T13:19:14Z</time><name>PT4519</name></trkpt>
<trkpt lat="53.092462" lon="-4.116470"><ele>383</ele><time>2020-09-18T13:19:19Z</time><name>PT4520</name></trkpt>
<trkpt lat="53.092487" lon="-4.116490"><ele>383</ele><time>2020-09-18T13:19:23Z</time><name>PT4521</name></trkpt>
<trkpt lat="53.092502" lon="-4.116508"><ele>381</ele><time>2020-09-18T13:19:26Z</time><name>PT4522</name></trkpt>
<trkpt lat="53.092519" lon="-4.116542"><ele>380</ele><time>2020-09-18T13:19:29Z</time><name>PT4523</name></trkpt>
<trkpt lat="53.092539" lon="-4.116574"><ele>380</ele><time>2020-09-18T13:19:32Z</time><name>PT4524</name></trkpt>
<trkpt lat="53.092559" lon="-4.116588"><ele>380</ele><time>2020-09-18T13:19:35Z</time><name>PT4525</name></trkpt>
<trkpt lat="53.092579" lon="-4.116623"><ele>379</ele><time>2020-09-18T13:19:40Z</time><name>PT4526</name></trkpt>
<trkpt lat="53.092601" lon="-4.116653"><ele>378</ele><time>2020-09-18T13:19:44Z</time><name>PT4527</name></trkpt>
<trkpt lat="53.092614" lon="-4.116681"><ele>378</ele><time>2020-09-18T13:19:47Z</time><name>PT4528</name></trkpt>
<trkpt lat="53.092624" lon="-4.116713"><ele>376</ele><time>2020-09-18T13:19:50Z</time><name>PT4529</name></trkpt>
<trkpt lat="53.092632" lon="-4.116742"><ele>376</ele><time>2020-09-18T13:19:53Z</time><name>PT4530</name></trkpt>
<trkpt lat="53.092645" lon="-4.116767"><ele>376</ele><time>2020-09-18T13:19:56Z</time><name>PT4531</name></trkpt>
<trkpt lat="53.092656" lon="-4.116797"><ele>375</ele><time>2020-09-18T13:19:59Z</time><name>PT4532</name></trkpt>
<trkpt lat="53.092677" lon="-4.116825"><ele>373</ele><time>2020-09-18T13:20:04Z</time><name>PT4533</name></trkpt>
<trkpt lat="53.092693" lon="-4.116852"><ele>371</ele><time>2020-09-18T13:20:08Z</time><name>PT4534</name></trkpt>
<trkpt lat="53.092705" lon="-4.116874"><ele>370</ele><time>2020-09-18T13:20:11Z</time><name>PT4535</name></trkpt>
<trkpt lat="53.092717" lon="-4.116911"><ele>369</ele><time>2020-09-18T13:20:14Z</time><name>PT4536</name></trkpt>
<trkpt lat="53.092733" lon="-4.116920"><ele>368</ele><time>2020-09-18T13:20:17Z</time><name>PT4537</name></trkpt>
<trkpt lat="53.092759" lon="-4.116917"><ele>367</ele><time>2020-09-18T13:20:22Z</time><name>PT4538</name></trkpt>
<trkpt lat="53.092777" lon="-4.116924"><ele>366</ele><time>2020-09-18T13:20:25Z</time><name>PT4539</name></trkpt>
<trkpt lat="53.092794" lon="-4.116934"><ele>365</ele><time>2020-09-18T13:20:29Z</time><name>PT4540</name></trkpt>
<trkpt lat="53.092820" lon="-4.116934"><ele>364</ele><time>2020-09-18T13:20:32Z</time><name>PT4541</name></trkpt>
<trkpt lat="53.092838" lon="-4.116932"><ele>364</ele><time>2020-09-18T13:20:35Z</time><name>PT4542</name></trkpt>
<trkpt lat="53.092856" lon="-4.116930"><ele>363</ele><time>2020-09-18T13:20:38Z</time><name>PT4543</name></trkpt>
<trkpt lat="53.092877" lon="-4.116948"><ele>362</ele><time>2020-09-18T13:20:43Z</time><name>PT4544</name></trkpt>
<trkpt lat="53.092897" lon="-4.116970"><ele>361</ele><time>2020-09-18T13:20:47Z</time><name>PT4545</name></trkpt>
<trkpt lat="53.092912" lon="-4.116984"><ele>360</ele><time>2020-09-18T13:20:50Z</time><name>PT4546</name></trkpt>
<trkpt lat="53.092936" lon="-4.117016"><ele>359</ele><time>2020-09-18T13:20:53Z</time><name>PT4547</name></trkpt>
<trkpt lat="53.092954" lon="-4.117027"><ele>358</ele><time>2020-09-18T13:20:56Z</time><name>PT4548</name></trkpt>
<trkpt lat="53.092977" lon="-4.117053"><ele>357</ele><time>2020-09-18T13:21:01Z</time><name>PT4549</name></trkpt>
<trkpt lat="53.092998" lon="-4.117070"><ele>356</ele><time>2020-09-18T13:21:05Z</time><name>PT4550</name></trkpt>
<trkpt lat="53.093016" lon="-4.117083"><ele>355</ele><time>2020-09-18T13:21:08Z</time><name>PT4551</name></trkpt>
<trkpt lat="53.093031" lon="-4.117095"><ele>354</ele><time>2020-09-18T13:21:11Z</time><name>PT4552</name></trkpt>
<trkpt lat="53.093046" lon="-4.117115"><ele>354</ele><time>2020-09-18T13:21:14Z</time><name>PT4553</name></trkpt>
<trkpt lat="53.093061" lon="-4.117129"><ele>353</ele><time>2020-09-18T13:21:18Z</time><name>PT4554</name></trkpt>
<trkpt lat="53.093078" lon="-4.117143"><ele>353</ele><time>2020-09-18T13:21:21Z</time><name>PT4555</name></trkpt>
<trkpt lat="53.093091" lon="-4.117156"><ele>352</ele><time>2020-09-18T13:21:25Z</time><name>PT4556</name></trkpt>
<trkpt lat="53.093101" lon="-4.117166"><ele>352</ele><time>2020-09-18T13:21:28Z</time><name>PT4557</name></trkpt>
<trkpt lat="53.093115" lon="-4.117180"><ele>352</ele><time>2020-09-18T13:21:31Z</time><name>PT4558</name></trkpt>
<trkpt lat="53.093129" lon="-4.117207"><ele>351</ele><time>2020-09-18T13:21:35Z</time><name>PT4559</name></trkpt>
<trkpt lat="53.093141" lon="-4.117230"><ele>351</ele><time>2020-09-18T13:21:38Z</time><name>PT4560</name></trkpt>
<trkpt lat="53.093150" lon="-4.117250"><ele>351</ele><time>2020-09-18T13:21:41Z</time><name>PT4561</name></trkpt>
<trkpt lat="53.093164" lon="-4.117258"><ele>349</ele><time>2020-09-18T13:21:44Z</time><name>PT4562</name></trkpt>
<trkpt lat="53.093182" lon="-4.117252"><ele>348</ele><time>2020-09-18T13:21:49Z</time><name>PT4563</name></trkpt>
<trkpt lat="53.093186" lon="-4.117251"><ele>348</ele><time>2020-09-18T13:21:53Z</time><name>PT4564</name></trkpt>
<trkpt lat="53.093193" lon="-4.117246"><ele>348</ele><time>2020-09-18T13:21:59Z</time><name>PT4565</name></trkpt>
<trkpt lat="53.093229" lon="-4.117251"><ele>346</ele><time>2020-09-18T13:22:04Z</time><name>PT4566</name></trkpt>
<trkpt lat="53.093261" lon="-4.117242"><ele>344</ele><time>2020-09-18T13:22:08Z</time><name>PT4567</name></trkpt>
<trkpt lat="53.093278" lon="-4.117245"><ele>342</ele><time>2020-09-18T13:22:11Z</time><name>PT4568</name></trkpt>
<trkpt lat="53.093294" lon="-4.117258"><ele>341</ele><time>2020-09-18T13:22:14Z</time><name>PT4569</name></trkpt>
<trkpt lat="53.093311" lon="-4.117275"><ele>339</ele><time>2020-09-18T13:22:19Z</time><name>PT4570</name></trkpt>
<trkpt lat="53.093331" lon="-4.117278"><ele>339</ele><time>2020-09-18T13:22:22Z</time><name>PT4571</name></trkpt>
<trkpt lat="53.093355" lon="-4.117282"><ele>337</ele><time>2020-09-18T13:22:26Z</time><name>PT4572</name></trkpt>
<trkpt lat="53.093372" lon="-4.117290"><ele>336</ele><time>2020-09-18T13:22:29Z</time><name>PT4573</name></trkpt>
<trkpt lat="53.093397" lon="-4.117307"><ele>336</ele><time>2020-09-18T13:22:32Z</time><name>PT4574</name></trkpt>
<trkpt lat="53.093413" lon="-4.117316"><ele>335</ele><time>2020-09-18T13:22:35Z</time><name>PT4575</name></trkpt>
<trkpt lat="53.093442" lon="-4.117324"><ele>334</ele><time>2020-09-18T13:22:40Z</time><name>PT4576</name></trkpt>
<trkpt lat="53.093454" lon="-4.117352"><ele>334</ele><time>2020-09-18T13:22:44Z</time><name>PT4577</name></trkpt>
<trkpt lat="53.093460" lon="-4.117373"><ele>334</ele><time>2020-09-18T13:22:47Z</time><name>PT4578</name></trkpt>
<trkpt lat="53.093472" lon="-4.117401"><ele>333</ele><time>2020-09-18T13:22:50Z</time><name>PT4579</name></trkpt>
<trkpt lat="53.093485" lon="-4.117423"><ele>332</ele><time>2020-09-18T13:22:53Z</time><name>PT4580</name></trkpt>
<trkpt lat="53.093507" lon="-4.117430"><ele>331</ele><time>2020-09-18T13:22:56Z</time><name>PT4581</name></trkpt>
<trkpt lat="53.093515" lon="-4.117428"><ele>331</ele><time>2020-09-18T13:23:01Z</time><name>PT4582</name></trkpt>
<trkpt lat="53.093520" lon="-4.117430"><ele>331</ele><time>2020-09-18T13:23:04Z</time><name>PT4583</name></trkpt>
<trkpt lat="53.093531" lon="-4.117443"><ele>330</ele><time>2020-09-18T13:23:07Z</time><name>PT4584</name></trkpt>
<trkpt lat="53.093550" lon="-4.117472"><ele>329</ele><time>2020-09-18T13:23:11Z</time><name>PT4585</name></trkpt>
<trkpt lat="53.093560" lon="-4.117497"><ele>328</ele><time>2020-09-18T13:23:14Z</time><name>PT4586</name></trkpt>
<trkpt lat="53.093579" lon="-4.117504"><ele>327</ele><time>2020-09-18T13:23:17Z</time><name>PT4587</name></trkpt>
<trkpt lat="53.093610" lon="-4.117491"><ele>326</ele><time>2020-09-18T13:23:20Z</time><name>PT4588</name></trkpt>
<trkpt lat="53.093640" lon="-4.117485"><ele>325</ele><time>2020-09-18T13:23:25Z</time><name>PT4589</name></trkpt>
<trkpt lat="53.093660" lon="-4.117486"><ele>324</ele><time>2020-09-18T13:23:28Z</time><name>PT4590</name></trkpt>
<trkpt lat="53.093681" lon="-4.117496"><ele>323</ele><time>2020-09-18T13:23:31Z</time><name>PT4591</name></trkpt>
<trkpt lat="53.093701" lon="-4.117530"><ele>323</ele><time>2020-09-18T13:23:35Z</time><name>PT4592</name></trkpt>
<trkpt lat="53.093711" lon="-4.117567"><ele>322</ele><time>2020-09-18T13:23:38Z</time><name>PT4593</name></trkpt>
<trkpt lat="53.093722" lon="-4.117611"><ele>321</ele><time>2020-09-18T13:23:41Z</time><name>PT4594</name></trkpt>
<trkpt lat="53.093726" lon="-4.117643"><ele>320</ele><time>2020-09-18T13:23:44Z</time><name>PT4595</name></trkpt>
<trkpt lat="53.093740" lon="-4.117684"><ele>319</ele><time>2020-09-18T13:23:49Z</time><name>PT4596</name></trkpt>
<trkpt lat="53.093753" lon="-4.117712"><ele>318</ele><time>2020-09-18T13:23:52Z</time><name>PT4597</name></trkpt>
<trkpt lat="53.093767" lon="-4.117728"><ele>318</ele><time>2020-09-18T13:23:55Z</time><name>PT4598</name></trkpt>
<trkpt lat="53.093788" lon="-4.117730"><ele>316</ele><time>2020-09-18T13:23:58Z</time><name>PT4599</name></trkpt>
<trkpt lat="53.093792" lon="-4.117772"><ele>317</ele><time>2020-09-18T13:24:02Z</time><name>PT4600</name></trkpt>
<trkpt lat="53.093800" lon="-4.117792"><ele>316</ele><time>2020-09-18T13:24:05Z</time><name>PT4601</name></trkpt>
<trkpt lat="53.093805" lon="-4.117801"><ele>314</ele><time>2020-09-18T13:24:08Z</time><name>PT4602</name></trkpt>
<trkpt lat="53.093803" lon="-4.117812"><ele>315</ele><time>2020-09-18T13:24:11Z</time><name>PT4603</name></trkpt>
<trkpt lat="53.093826" lon="-4.117785"><ele>313</ele><time>2020-09-18T13:24:32Z</time><name>PT4604</name></trkpt>
<trkpt lat="53.093841" lon="-4.117779"><ele>312</ele><time>2020-09-18T13:24:35Z</time><name>PT4605</name></trkpt>
<trkpt lat="53.093862" lon="-4.117786"><ele>311</ele><time>2020-09-18T13:24:38Z</time><name>PT4606</name></trkpt>
<trkpt lat="53.093874" lon="-4.117799"><ele>310</ele><time>2020-09-18T13:24:41Z</time><name>PT4607</name></trkpt>
<trkpt lat="53.093888" lon="-4.117828"><ele>309</ele><time>2020-09-18T13:24:44Z</time><name>PT4608</name></trkpt>
<trkpt lat="53.093895" lon="-4.117857"><ele>308</ele><time>2020-09-18T13:24:47Z</time><name>PT4609</name></trkpt>
<trkpt lat="53.093906" lon="-4.117887"><ele>307</ele><time>2020-09-18T13:24:52Z</time><name>PT4610</name></trkpt>
<trkpt lat="53.093912" lon="-4.117927"><ele>306</ele><time>2020-09-18T13:24:56Z</time><name>PT4611</name></trkpt>
<trkpt lat="53.093918" lon="-4.117960"><ele>305</ele><time>2020-09-18T13:24:59Z</time><name>PT4612</name></trkpt>
<trkpt lat="53.093938" lon="-4.117997"><ele>304</ele><time>2020-09-18T13:25:02Z</time><name>PT4613</name></trkpt>
<trkpt lat="53.093946" lon="-4.118026"><ele>303</ele><time>2020-09-18T13:25:05Z</time><name>PT4614</name></trkpt>
<trkpt lat="53.093954" lon="-4.118048"><ele>303</ele><time>2020-09-18T13:25:08Z</time><name>PT4615</name></trkpt>
<trkpt lat="53.093957" lon="-4.118050"><ele>303</ele><time>2020-09-18T13:25:11Z</time><name>PT4616</name></trkpt>
<trkpt lat="53.093960" lon="-4.118050"><ele>303</ele><time>2020-09-18T13:25:14Z</time><name>PT4617</name></trkpt>
<trkpt lat="53.093987" lon="-4.118065"><ele>300</ele><time>2020-09-18T13:25:19Z</time><name>PT4618</name></trkpt>
<trkpt lat="53.094012" lon="-4.118099"><ele>299</ele><time>2020-09-18T13:25:23Z</time><name>PT4619</name></trkpt>
<trkpt lat="53.094026" lon="-4.118120"><ele>298</ele><time>2020-09-18T13:25:26Z</time><name>PT4620</name></trkpt>
<trkpt lat="53.094043" lon="-4.118165"><ele>297</ele><time>2020-09-18T13:25:29Z</time><name>PT4621</name></trkpt>
<trkpt lat="53.094057" lon="-4.118195"><ele>297</ele><time>2020-09-18T13:25:32Z</time><name>PT4622</name></trkpt>
<trkpt lat="53.094074" lon="-4.118237"><ele>296</ele><time>2020-09-18T13:25:35Z</time><name>PT4623</name></trkpt>
<trkpt lat="53.094094" lon="-4.118286"><ele>295</ele><time>2020-09-18T13:25:40Z</time><name>PT4624</name></trkpt>
<trkpt lat="53.094114" lon="-4.118316"><ele>295</ele><time>2020-09-18T13:25:43Z</time><name>PT4625</name></trkpt>
<trkpt lat="53.094137" lon="-4.118329"><ele>294</ele><time>2020-09-18T13:25:47Z</time><name>PT4626</name></trkpt>
<trkpt lat="53.094161" lon="-4.118337"><ele>293</ele><time>2020-09-18T13:25:50Z</time><name>PT4627</name></trkpt>
<trkpt lat="53.094170" lon="-4.118370"><ele>292</ele><time>2020-09-18T13:25:55Z</time><name>PT4628</name></trkpt>
<trkpt lat="53.094180" lon="-4.118389"><ele>290</ele><time>2020-09-18T13:25:58Z</time><name>PT4629</name></trkpt>
<trkpt lat="53.094182" lon="-4.118443"><ele>289</ele><time>2020-09-18T13:26:02Z</time><name>PT4630</name></trkpt>
<trkpt lat="53.094186" lon="-4.118478"><ele>289</ele><time>2020-09-18T13:26:05Z</time><name>PT4631</name></trkpt>
<trkpt lat="53.094202" lon="-4.118509"><ele>289</ele><time>2020-09-18T13:26:08Z</time><name>PT4632</name></trkpt>
<trkpt lat="53.094205" lon="-4.118557"><ele>288</ele><time>2020-09-18T13:26:13Z</time><name>PT4633</name></trkpt>
<trkpt lat="53.094202" lon="-4.118585"><ele>288</ele><time>2020-09-18T13:26:16Z</time><name>PT4634</name></trkpt>
<trkpt lat="53.094199" lon="-4.118626"><ele>287</ele><time>2020-09-18T13:26:19Z</time><name>PT4635</name></trkpt>
<trkpt lat="53.094191" lon="-4.118645"><ele>287</ele><time>2020-09-18T13:26:22Z</time><name>PT4636</name></trkpt>
<trkpt lat="53.094185" lon="-4.118657"><ele>288</ele><time>2020-09-18T13:26:26Z</time><name>PT4637</name></trkpt>
<trkpt lat="53.094177" lon="-4.118675"><ele>287</ele><time>2020-09-18T13:26:29Z</time><name>PT4638</name></trkpt>
<trkpt lat="53.094171" lon="-4.118706"><ele>289</ele><time>2020-09-18T13:26:32Z</time><name>PT4639</name></trkpt>
<trkpt lat="53.094172" lon="-4.118731"><ele>288</ele><time>2020-09-18T13:26:35Z</time><name>PT4640</name></trkpt>
<trkpt lat="53.094185" lon="-4.118785"><ele>288</ele><time>2020-09-18T13:26:38Z</time><name>PT4641</name></trkpt>
<trkpt lat="53.094196" lon="-4.118818"><ele>288</ele><time>2020-09-18T13:26:41Z</time><name>PT4642</name></trkpt>
<trkpt lat="53.094212" lon="-4.118834"><ele>288</ele><time>2020-09-18T13:26:46Z</time><name>PT4643</name></trkpt>
<trkpt lat="53.094224" lon="-4.118835"><ele>287</ele><time>2020-09-18T13:26:50Z</time><name>PT4644</name></trkpt>
<trkpt lat="53.094224" lon="-4.118838"><ele>287</ele><time>2020-09-18T13:26:53Z</time><name>PT4645</name></trkpt>
<trkpt lat="53.094257" lon="-4.118796"><ele>285</ele><time>2020-09-18T13:26:58Z</time><name>PT4646</name></trkpt>
<trkpt lat="53.094281" lon="-4.118792"><ele>284</ele><time>2020-09-18T13:27:02Z</time><name>PT4647</name></trkpt>
<trkpt lat="53.094285" lon="-4.118785"><ele>283</ele><time>2020-09-18T13:27:05Z</time><name>PT4648</name></trkpt>
<trkpt lat="53.094285" lon="-4.118773"><ele>283</ele><time>2020-09-18T13:27:08Z</time><name>PT4649</name></trkpt>
<trkpt lat="53.094298" lon="-4.118767"><ele>282</ele><time>2020-09-18T13:27:13Z</time><name>PT4650</name></trkpt>
<trkpt lat="53.094318" lon="-4.118786"><ele>282</ele><time>2020-09-18T13:27:17Z</time><name>PT4651</name></trkpt>
<trkpt lat="53.094339" lon="-4.118809"><ele>282</ele><time>2020-09-18T13:27:20Z</time><name>PT4652</name></trkpt>
<trkpt lat="53.094353" lon="-4.118821"><ele>281</ele><time>2020-09-18T13:27:25Z</time><name>PT4653</name></trkpt>
<trkpt lat="53.094367" lon="-4.118838"><ele>280</ele><time>2020-09-18T13:27:29Z</time><name>PT4654</name></trkpt>
<trkpt lat="53.094378" lon="-4.118847"><ele>280</ele><time>2020-09-18T13:27:32Z</time><name>PT4655</name></trkpt>
<trkpt lat="53.094391" lon="-4.118896"><ele>280</ele><time>2020-09-18T13:27:37Z</time><name>PT4656</name></trkpt>
<trkpt lat="53.094397" lon="-4.118903"><ele>281</ele><time>2020-09-18T13:27:40Z</time><name>PT4657</name></trkpt>
<trkpt lat="53.094396" lon="-4.118903"><ele>282</ele><time>2020-09-18T13:27:44Z</time><name>PT4658</name></trkpt>
<trkpt lat="53.094400" lon="-4.118905"><ele>282</ele><time>2020-09-18T13:27:50Z</time><name>PT4659</name></trkpt>
<trkpt lat="53.094404" lon="-4.118970"><ele>282</ele><time>2020-09-18T13:27:53Z</time><name>PT4660</name></trkpt>
<trkpt lat="53.094409" lon="-4.119013"><ele>281</ele><time>2020-09-18T13:27:58Z</time><name>PT4661</name></trkpt>
<trkpt lat="53.094413" lon="-4.119028"><ele>281</ele><time>2020-09-18T13:28:01Z</time><name>PT4662</name></trkpt>
<trkpt lat="53.094404" lon="-4.119034"><ele>281</ele><time>2020-09-18T13:28:05Z</time><name>PT4663</name></trkpt>
<trkpt lat="53.094403" lon="-4.119081"><ele>281</ele><time>2020-09-18T13:28:08Z</time><name>PT4664</name></trkpt>
<trkpt lat="53.094401" lon="-4.119119"><ele>281</ele><time>2020-09-18T13:28:13Z</time><name>PT4665</name></trkpt>
<trkpt lat="53.094402" lon="-4.119154"><ele>282</ele><time>2020-09-18T13:28:16Z</time><name>PT4666</name></trkpt>
<trkpt lat="53.094426" lon="-4.119209"><ele>280</ele><time>2020-09-18T13:28:20Z</time><name>PT4667</name></trkpt>
<trkpt lat="53.094445" lon="-4.119228"><ele>280</ele><time>2020-09-18T13:28:23Z</time><name>PT4668</name></trkpt>
<trkpt lat="53.094460" lon="-4.119227"><ele>279</ele><time>2020-09-18T13:28:26Z</time><name>PT4669</name></trkpt>
<trkpt lat="53.094473" lon="-4.119246"><ele>278</ele><time>2020-09-18T13:28:29Z</time><name>PT4670</name></trkpt>
<trkpt lat="53.094482" lon="-4.119282"><ele>278</ele><time>2020-09-18T13:28:32Z</time><name>PT4671</name></trkpt>
<trkpt lat="53.094491" lon="-4.119305"><ele>277</ele><time>2020-09-18T13:28:36Z</time><name>PT4672</name></trkpt>
<trkpt lat="53.094498" lon="-4.119310"><ele>276</ele><time>2020-09-18T13:28:40Z</time><name>PT4673</name></trkpt>
<trkpt lat="53.094495" lon="-4.119312"><ele>276</ele><time>2020-09-18T13:28:44Z</time><name>PT4674</name></trkpt>
<trkpt lat="53.094499" lon="-4.119315"><ele>277</ele><time>2020-09-18T13:28:47Z</time><name>PT4675</name></trkpt>
<trkpt lat="53.094507" lon="-4.119351"><ele>277</ele><time>2020-09-18T13:28:50Z</time><name>PT4676</name></trkpt>
<trkpt lat="53.094523" lon="-4.119383"><ele>276</ele><time>2020-09-18T13:28:53Z</time><name>PT4677</name></trkpt>
<trkpt lat="53.094544" lon="-4.119400"><ele>275</ele><time>2020-09-18T13:28:56Z</time><name>PT4678</name></trkpt>
<trkpt lat="53.094554" lon="-4.119403"><ele>274</ele><time>2020-09-18T13:28:59Z</time><name>PT4679</name></trkpt>
<trkpt lat="53.094572" lon="-4.119402"><ele>273</ele><time>2020-09-18T13:29:04Z</time><name>PT4680</name></trkpt>
<trkpt lat="53.094574" lon="-4.119402"><ele>274</ele><time>2020-09-18T13:29:07Z</time><name>PT4681</name></trkpt>
<trkpt lat="53.094581" lon="-4.119390"><ele>273</ele><time>2020-09-18T13:29:23Z</time><name>PT4682</name></trkpt>
<trkpt lat="53.094581" lon="-4.119369"><ele>271</ele><time>2020-09-18T13:29:28Z</time><name>PT4683</name></trkpt>
<trkpt lat="53.094598" lon="-4.119338"><ele>271</ele><time>2020-09-18T13:29:31Z</time><name>PT4684</name></trkpt>
<trkpt lat="53.094606" lon="-4.119299"><ele>271</ele><time>2020-09-18T13:29:35Z</time><name>PT4685</name></trkpt>
<trkpt lat="53.094610" lon="-4.119280"><ele>270</ele><time>2020-09-18T13:29:38Z</time><name>PT4686</name></trkpt>
<trkpt lat="53.094613" lon="-4.119273"><ele>270</ele><time>2020-09-18T13:29:43Z</time><name>PT4687</name></trkpt>
<trkpt lat="53.094621" lon="-4.119239"><ele>270</ele><time>2020-09-18T13:29:46Z</time><name>PT4688</name></trkpt>
<trkpt lat="53.094638" lon="-4.119200"><ele>271</ele><time>2020-09-18T13:29:49Z</time><name>PT4689</name></trkpt>
<trkpt lat="53.094654" lon="-4.119152"><ele>271</ele><time>2020-09-18T13:29:52Z</time><name>PT4690</name></trkpt>
<trkpt lat="53.094667" lon="-4.119082"><ele>271</ele><time>2020-09-18T13:29:56Z</time><name>PT4691</name></trkpt>
<trkpt lat="53.094674" lon="-4.119044"><ele>271</ele><time>2020-09-18T13:29:59Z</time><name>PT4692</name></trkpt>
<trkpt lat="53.094687" lon="-4.119017"><ele>270</ele><time>2020-09-18T13:30:04Z</time><name>PT4693</name></trkpt>
<trkpt lat="53.094693" lon="-4.118998"><ele>271</ele><time>2020-09-18T13:30:07Z</time><name>PT4694</name></trkpt>
<trkpt lat="53.094692" lon="-4.118962"><ele>270</ele><time>2020-09-18T13:30:11Z</time><name>PT4695</name></trkpt>
<trkpt lat="53.094693" lon="-4.118921"><ele>270</ele><time>2020-09-18T13:30:14Z</time><name>PT4696</name></trkpt>
<trkpt lat="53.094695" lon="-4.118871"><ele>270</ele><time>2020-09-18T13:30:17Z</time><name>PT4697</name></trkpt>
<trkpt lat="53.094693" lon="-4.118854"><ele>270</ele><time>2020-09-18T13:30:22Z</time><name>PT4698</name></trkpt>
<trkpt lat="53.094692" lon="-4.118854"><ele>270</ele><time>2020-09-18T13:30:26Z</time><name>PT4699</name></trkpt>
<trkpt lat="53.094693" lon="-4.118843"><ele>269</ele><time>2020-09-18T13:30:35Z</time><name>PT4700</name></trkpt>
<trkpt lat="53.094698" lon="-4.118846"><ele>270</ele><time>2020-09-18T13:30:40Z</time><name>PT4701</name></trkpt>
<trkpt lat="53.094704" lon="-4.118833"><ele>270</ele><time>2020-09-18T13:30:44Z</time><name>PT4702</name></trkpt>
<trkpt lat="53.094725" lon="-4.118805"><ele>271</ele><time>2020-09-18T13:30:47Z</time><name>PT4703</name></trkpt>
<trkpt lat="53.094726" lon="-4.118795"><ele>271</ele><time>2020-09-18T13:30:50Z</time><name>PT4704</name></trkpt>
<trkpt lat="53.094725" lon="-4.118797"><ele>271</ele><time>2020-09-18T13:30:55Z</time><name>PT4705</name></trkpt>
<trkpt lat="53.094723" lon="-4.118802"><ele>270</ele><time>2020-09-18T13:30:58Z</time><name>PT4706</name></trkpt>
<trkpt lat="53.094746" lon="-4.118763"><ele>271</ele><time>2020-09-18T13:31:02Z</time><name>PT4707</name></trkpt>
<trkpt lat="53.094770" lon="-4.118700"><ele>271</ele><time>2020-09-18T13:31:05Z</time><name>PT4708</name></trkpt>
<trkpt lat="53.094789" lon="-4.118655"><ele>271</ele><time>2020-09-18T13:31:08Z</time><name>PT4709</name></trkpt>
<trkpt lat="53.094821" lon="-4.118598"><ele>271</ele><time>2020-09-18T13:31:13Z</time><name>PT4710</name></trkpt>
<trkpt lat="53.094846" lon="-4.118556"><ele>271</ele><time>2020-09-18T13:31:17Z</time><name>PT4711</name></trkpt>
<trkpt lat="53.094874" lon="-4.118524"><ele>271</ele><time>2020-09-18T13:31:20Z</time><name>PT4712</name></trkpt>
<trkpt lat="53.094910" lon="-4.118488"><ele>270</ele><time>2020-09-18T13:31:23Z</time><name>PT4713</name></trkpt>
<trkpt lat="53.094936" lon="-4.118436"><ele>270</ele><time>2020-09-18T13:31:26Z</time><name>PT4714</name></trkpt>
<trkpt lat="53.094971" lon="-4.118401"><ele>269</ele><time>2020-09-18T13:31:31Z</time><name>PT4715</name></trkpt>
<trkpt lat="53.095002" lon="-4.118367"><ele>269</ele><time>2020-09-18T13:31:34Z</time><name>PT4716</name></trkpt>
<trkpt lat="53.095034" lon="-4.118340"><ele>269</ele><time>2020-09-18T13:31:37Z</time><name>PT4717</name></trkpt>
<trkpt lat="53.095068" lon="-4.118287"><ele>268</ele><time>2020-09-18T13:31:41Z</time><name>PT4718</name></trkpt>
<trkpt lat="53.095093" lon="-4.118261"><ele>267</ele><time>2020-09-18T13:31:44Z</time><name>PT4719</name></trkpt>
<trkpt lat="53.095117" lon="-4.118229"><ele>267</ele><time>2020-09-18T13:31:47Z</time><name>PT4720</name></trkpt>
<trkpt lat="53.095149" lon="-4.118193"><ele>267</ele><time>2020-09-18T13:31:50Z</time><name>PT4721</name></trkpt>
<trkpt lat="53.095190" lon="-4.118163"><ele>266</ele><time>2020-09-18T13:31:55Z</time><name>PT4722</name></trkpt>
<trkpt lat="53.095231" lon="-4.118117"><ele>265</ele><time>2020-09-18T13:31:59Z</time><name>PT4723</name></trkpt>
<trkpt lat="53.095257" lon="-4.118088"><ele>264</ele><time>2020-09-18T13:32:02Z</time><name>PT4724</name></trkpt>
<trkpt lat="53.095299" lon="-4.118032"><ele>264</ele><time>2020-09-18T13:32:05Z</time><name>PT4725</name></trkpt>
<trkpt lat="53.095343" lon="-4.117992"><ele>263</ele><time>2020-09-18T13:32:10Z</time><name>PT4726</name></trkpt>
<trkpt lat="53.095382" lon="-4.117945"><ele>262</ele><time>2020-09-18T13:32:14Z</time><name>PT4727</name></trkpt>
<trkpt lat="53.095418" lon="-4.117894"><ele>261</ele><time>2020-09-18T13:32:17Z</time><name>PT4728</name></trkpt>
<trkpt lat="53.095463" lon="-4.117850"><ele>262</ele><time>2020-09-18T13:32:22Z</time><name>PT4729</name></trkpt>
<trkpt lat="53.095507" lon="-4.117793"><ele>261</ele><time>2020-09-18T13:32:26Z</time><name>PT4730</name></trkpt>
<trkpt lat="53.095546" lon="-4.117741"><ele>261</ele><time>2020-09-18T13:32:29Z</time><name>PT4731</name></trkpt>
<trkpt lat="53.095581" lon="-4.117693"><ele>261</ele><time>2020-09-18T13:32:34Z</time><name>PT4732</name></trkpt>
<trkpt lat="53.095630" lon="-4.117652"><ele>261</ele><time>2020-09-18T13:32:38Z</time><name>PT4733</name></trkpt>
<trkpt lat="53.095663" lon="-4.117604"><ele>260</ele><time>2020-09-18T13:32:41Z</time><name>PT4734</name></trkpt>
<trkpt lat="53.095688" lon="-4.117570"><ele>260</ele><time>2020-09-18T13:32:44Z</time><name>PT4735</name></trkpt>
<trkpt lat="53.095703" lon="-4.117544"><ele>259</ele><time>2020-09-18T13:32:49Z</time><name>PT4736</name></trkpt>
<trkpt lat="53.095736" lon="-4.117501"><ele>259</ele><time>2020-09-18T13:32:53Z</time><name>PT4737</name></trkpt>
<trkpt lat="53.095763" lon="-4.117434"><ele>258</ele><time>2020-09-18T13:32:56Z</time><name>PT4738</name></trkpt>
<trkpt lat="53.095799" lon="-4.117389"><ele>258</ele><time>2020-09-18T13:33:01Z</time><name>PT4739</name></trkpt>
<trkpt lat="53.095820" lon="-4.117363"><ele>258</ele><time>2020-09-18T13:33:04Z</time><name>PT4740</name></trkpt>
<trkpt lat="53.095838" lon="-4.117341"><ele>259</ele><time>2020-09-18T13:33:08Z</time><name>PT4741</name></trkpt>
<trkpt lat="53.095860" lon="-4.117310"><ele>259</ele><time>2020-09-18T13:33:11Z</time><name>PT4742</name></trkpt>
<trkpt lat="53.095893" lon="-4.117250"><ele>259</ele><time>2020-09-18T13:33:14Z</time><name>PT4743</name></trkpt>
<trkpt lat="53.095916" lon="-4.117227"><ele>259</ele><time>2020-09-18T13:33:17Z</time><name>PT4744</name></trkpt>
<trkpt lat="53.095936" lon="-4.117196"><ele>259</ele><time>2020-09-18T13:33:20Z</time><name>PT4745</name></trkpt>
<trkpt lat="53.095975" lon="-4.117154"><ele>260</ele><time>2020-09-18T13:33:25Z</time><name>PT4746</name></trkpt>
<trkpt lat="53.096002" lon="-4.117104"><ele>259</ele><time>2020-09-18T13:33:29Z</time><name>PT4747</name></trkpt>
<trkpt lat="53.096019" lon="-4.117060"><ele>258</ele><time>2020-09-18T13:33:32Z</time><name>PT4748</name></trkpt>
<trkpt lat="53.096027" lon="-4.117049"><ele>259</ele><time>2020-09-18T13:33:35Z</time><name>PT4749</name></trkpt>
<trkpt lat="53.096025" lon="-4.117051"><ele>258</ele><time>2020-09-18T13:33:38Z</time><name>PT4750</name></trkpt>
<trkpt lat="53.096046" lon="-4.117026"><ele>257</ele><time>2020-09-18T13:33:43Z</time><name>PT4751</name></trkpt>
<trkpt lat="53.096067" lon="-4.117012"><ele>256</ele><time>2020-09-18T13:33:47Z</time><name>PT4752</name></trkpt>
<trkpt lat="53.096066" lon="-4.117007"><ele>256</ele><time>2020-09-18T13:33:50Z</time><name>PT4753</name></trkpt>
<trkpt lat="53.096085" lon="-4.117018"><ele>255</ele><time>2020-09-18T13:33:59Z</time><name>PT4754</name></trkpt>
<trkpt lat="53.096120" lon="-4.117053"><ele>255</ele><time>2020-09-18T13:34:02Z</time><name>PT4755</name></trkpt>
<trkpt lat="53.096149" lon="-4.117086"><ele>254</ele><time>2020-09-18T13:34:05Z</time><name>PT4756</name></trkpt>
<trkpt lat="53.096176" lon="-4.117127"><ele>253</ele><time>2020-09-18T13:34:08Z</time><name>PT4757</name></trkpt>
<trkpt lat="53.096202" lon="-4.117198"><ele>253</ele><time>2020-09-18T13:34:11Z</time><name>PT4758</name></trkpt>
<trkpt lat="53.096204" lon="-4.117248"><ele>251</ele><time>2020-09-18T13:34:14Z</time><name>PT4759</name></trkpt>
<trkpt lat="53.096201" lon="-4.117311"><ele>251</ele><time>2020-09-18T13:34:18Z</time><name>PT4760</name></trkpt>
<trkpt lat="53.096199" lon="-4.117383"><ele>252</ele><time>2020-09-18T13:34:22Z</time><name>PT4761</name></trkpt>
<trkpt lat="53.096198" lon="-4.117429"><ele>252</ele><time>2020-09-18T13:34:25Z</time><name>PT4762</name></trkpt>
<trkpt lat="53.096196" lon="-4.117497"><ele>253</ele><time>2020-09-18T13:34:29Z</time><name>PT4763</name></trkpt>
<trkpt lat="53.096201" lon="-4.117562"><ele>253</ele><time>2020-09-18T13:34:33Z</time><name>PT4764</name></trkpt>
<trkpt lat="53.096205" lon="-4.117599"><ele>253</ele><time>2020-09-18T13:34:36Z</time><name>PT4765</name></trkpt>
<trkpt lat="53.096212" lon="-4.117617"><ele>252</ele><time>2020-09-18T13:34:40Z</time><name>PT4766</name></trkpt>
<trkpt lat="53.096221" lon="-4.117649"><ele>253</ele><time>2020-09-18T13:34:43Z</time><name>PT4767</name></trkpt>
<trkpt lat="53.096236" lon="-4.117687"><ele>253</ele><time>2020-09-18T13:34:46Z</time><name>PT4768</name></trkpt>
<trkpt lat="53.096262" lon="-4.117748"><ele>253</ele><time>2020-09-18T13:34:50Z</time><name>PT4769</name></trkpt>
<trkpt lat="53.096290" lon="-4.117813"><ele>252</ele><time>2020-09-18T13:34:53Z</time><name>PT4770</name></trkpt>
<trkpt lat="53.096320" lon="-4.117869"><ele>252</ele><time>2020-09-18T13:34:58Z</time><name>PT4771</name></trkpt>
<trkpt lat="53.096363" lon="-4.117921"><ele>252</ele><time>2020-09-18T13:35:02Z</time><name>PT4772</name></trkpt>
<trkpt lat="53.096393" lon="-4.117954"><ele>252</ele><time>2020-09-18T13:35:05Z</time><name>PT4773</name></trkpt>
<trkpt lat="53.096433" lon="-4.118005"><ele>252</ele><time>2020-09-18T13:35:08Z</time><name>PT4774</name></trkpt>
<trkpt lat="53.096458" lon="-4.118042"><ele>251</ele><time>2020-09-18T13:35:11Z</time><name>PT4775</name></trkpt>
<trkpt lat="53.096491" lon="-4.118076"><ele>250</ele><time>2020-09-18T13:35:16Z</time><name>PT4776</name></trkpt>
<trkpt lat="53.096521" lon="-4.118105"><ele>249</ele><time>2020-09-18T13:35:19Z</time><name>PT4777</name></trkpt>
<trkpt lat="53.096555" lon="-4.118115"><ele>250</ele><time>2020-09-18T13:35:22Z</time><name>PT4778</name></trkpt>
<trkpt lat="53.096594" lon="-4.118122"><ele>249</ele><time>2020-09-18T13:35:26Z</time><name>PT4779</name></trkpt>
<trkpt lat="53.096640" lon="-4.118126"><ele>248</ele><time>2020-09-18T13:35:29Z</time><name>PT4780</name></trkpt>
<trkpt lat="53.096694" lon="-4.118123"><ele>249</ele><time>2020-09-18T13:35:34Z</time><name>PT4781</name></trkpt>
<trkpt lat="53.096725" lon="-4.118125"><ele>249</ele><time>2020-09-18T13:35:37Z</time><name>PT4782</name></trkpt>
<trkpt lat="53.096783" lon="-4.118112"><ele>250</ele><time>2020-09-18T13:35:41Z</time><name>PT4783</name></trkpt>
<trkpt lat="53.096814" lon="-4.118106"><ele>249</ele><time>2020-09-18T13:35:44Z</time><name>PT4784</name></trkpt>
<trkpt lat="53.096855" lon="-4.118095"><ele>250</ele><time>2020-09-18T13:35:47Z</time><name>PT4785</name></trkpt>
<trkpt lat="53.096905" lon="-4.118072"><ele>250</ele><time>2020-09-18T13:35:50Z</time><name>PT4786</name></trkpt>
<trkpt lat="53.096949" lon="-4.118034"><ele>250</ele><time>2020-09-18T13:35:53Z</time><name>PT4787</name></trkpt>
<trkpt lat="53.096954" lon="-4.118029"><ele>250</ele><time>2020-09-18T13:35:58Z</time><name>PT4788</name></trkpt>
<trkpt lat="53.096979" lon="-4.118009"><ele>250</ele><time>2020-09-18T13:36:02Z</time><name>PT4789</name></trkpt>
<trkpt lat="53.097012" lon="-4.117968"><ele>249</ele><time>2020-09-18T13:36:05Z</time><name>PT4790</name></trkpt>
<trkpt lat="53.097046" lon="-4.117914"><ele>250</ele><time>2020-09-18T13:36:10Z</time><name>PT4791</name></trkpt>
<trkpt lat="53.097068" lon="-4.117878"><ele>249</ele><time>2020-09-18T13:36:13Z</time><name>PT4792</name></trkpt>
<trkpt lat="53.097106" lon="-4.117831"><ele>248</ele><time>2020-09-18T13:36:17Z</time><name>PT4793</name></trkpt>
<trkpt lat="53.097126" lon="-4.117783"><ele>248</ele><time>2020-09-18T13:36:20Z</time><name>PT4794</name></trkpt>
<trkpt lat="53.097157" lon="-4.117729"><ele>247</ele><time>2020-09-18T13:36:23Z</time><name>PT4795</name></trkpt>
<trkpt lat="53.097195" lon="-4.117685"><ele>247</ele><time>2020-09-18T13:36:28Z</time><name>PT4796</name></trkpt>
<trkpt lat="53.097235" lon="-4.117652"><ele>247</ele><time>2020-09-18T13:36:32Z</time><name>PT4797</name></trkpt>
<trkpt lat="53.097278" lon="-4.117632"><ele>247</ele><time>2020-09-18T13:36:35Z</time><name>PT4798</name></trkpt>
<trkpt lat="53.097322" lon="-4.117619"><ele>245</ele><time>2020-09-18T13:36:40Z</time><name>PT4799</name></trkpt>
<trkpt lat="53.097369" lon="-4.117619"><ele>245</ele><time>2020-09-18T13:36:44Z</time><name>PT4800</name></trkpt>
<trkpt lat="53.097400" lon="-4.117621"><ele>244</ele><time>2020-09-18T13:36:47Z</time><name>PT4801</name></trkpt>
<trkpt lat="53.097437" lon="-4.117618"><ele>245</ele><time>2020-09-18T13:36:50Z</time><name>PT4802</name></trkpt>
<trkpt lat="53.097490" lon="-4.117622"><ele>245</ele><time>2020-09-18T13:36:53Z</time><name>PT4803</name></trkpt>
<trkpt lat="53.097541" lon="-4.117617"><ele>245</ele><time>2020-09-18T13:36:58Z</time><name>PT4804</name></trkpt>
<trkpt lat="53.097583" lon="-4.117616"><ele>244</ele><time>2020-09-18T13:37:02Z</time><name>PT4805</name></trkpt>
<trkpt lat="53.097610" lon="-4.117628"><ele>245</ele><time>2020-09-18T13:37:05Z</time><name>PT4806</name></trkpt>
<trkpt lat="53.097649" lon="-4.117637"><ele>244</ele><time>2020-09-18T13:37:08Z</time><name>PT4807</name></trkpt>
<trkpt lat="53.097670" lon="-4.117646"><ele>244</ele><time>2020-09-18T13:37:11Z</time><name>PT4808</name></trkpt>
<trkpt lat="53.097700" lon="-4.117682"><ele>245</ele><time>2020-09-18T13:37:16Z</time><name>PT4809</name></trkpt>
<trkpt lat="53.097717" lon="-4.117705"><ele>244</ele><time>2020-09-18T13:37:19Z</time><name>PT4810</name></trkpt>
<trkpt lat="53.097750" lon="-4.117746"><ele>245</ele><time>2020-09-18T13:37:23Z</time><name>PT4811</name></trkpt>
<trkpt lat="53.097778" lon="-4.117783"><ele>246</ele><time>2020-09-18T13:37:26Z</time><name>PT4812</name></trkpt>
<trkpt lat="53.097817" lon="-4.117816"><ele>247</ele><time>2020-09-18T13:37:31Z</time><name>PT4813</name></trkpt>
<trkpt lat="53.097858" lon="-4.117837"><ele>248</ele><time>2020-09-18T13:37:35Z</time><name>PT4814</name></trkpt>
<trkpt lat="53.097888" lon="-4.117846"><ele>248</ele><time>2020-09-18T13:37:38Z</time><name>PT4815</name></trkpt>
<trkpt lat="53.097930" lon="-4.117843"><ele>249</ele><time>2020-09-18T13:37:41Z</time><name>PT4816</name></trkpt>
<trkpt lat="53.097953" lon="-4.117835"><ele>248</ele><time>2020-09-18T13:37:44Z</time><name>PT4817</name></trkpt>
<trkpt lat="53.097982" lon="-4.117824"><ele>248</ele><time>2020-09-18T13:37:47Z</time><name>PT4818</name></trkpt>
<trkpt lat="53.098021" lon="-4.117807"><ele>248</ele><time>2020-09-18T13:37:52Z</time><name>PT4819</name></trkpt>
<trkpt lat="53.098048" lon="-4.117792"><ele>248</ele><time>2020-09-18T13:37:55Z</time><name>PT4820</name></trkpt>
<trkpt lat="53.098093" lon="-4.117778"><ele>248</ele><time>2020-09-18T13:37:59Z</time><name>PT4821</name></trkpt>
<trkpt lat="53.098144" lon="-4.117779"><ele>249</ele><time>2020-09-18T13:38:02Z</time><name>PT4822</name></trkpt>
<trkpt lat="53.098174" lon="-4.117784"><ele>249</ele><time>2020-09-18T13:38:05Z</time><name>PT4823</name></trkpt>
<trkpt lat="53.098206" lon="-4.117790"><ele>249</ele><time>2020-09-18T13:38:08Z</time><name>PT4824</name></trkpt>
<trkpt lat="53.098253" lon="-4.117806"><ele>250</ele><time>2020-09-18T13:38:13Z</time><name>PT4825</name></trkpt>
<trkpt lat="53.098281" lon="-4.117815"><ele>250</ele><time>2020-09-18T13:38:16Z</time><name>PT4826</name></trkpt>
<trkpt lat="53.098325" lon="-4.117825"><ele>250</ele><time>2020-09-18T13:38:20Z</time><name>PT4827</name></trkpt>
<trkpt lat="53.098360" lon="-4.117837"><ele>250</ele><time>2020-09-18T13:38:23Z</time><name>PT4828</name></trkpt>
<trkpt lat="53.098407" lon="-4.117851"><ele>251</ele><time>2020-09-18T13:38:26Z</time><name>PT4829</name></trkpt>
<trkpt lat="53.098440" lon="-4.117862"><ele>250</ele><time>2020-09-18T13:38:31Z</time><name>PT4830</name></trkpt>
<trkpt lat="53.098475" lon="-4.117861"><ele>250</ele><time>2020-09-18T13:38:34Z</time><name>PT4831</name></trkpt>
<trkpt lat="53.098512" lon="-4.117859"><ele>251</ele><time>2020-09-18T13:38:37Z</time><name>PT4832</name></trkpt>
<trkpt lat="53.098553" lon="-4.117854"><ele>251</ele><time>2020-09-18T13:38:41Z</time><name>PT4833</name></trkpt>
<trkpt lat="53.098587" lon="-4.117849"><ele>251</ele><time>2020-09-18T13:38:44Z</time><name>PT4834</name></trkpt>
<trkpt lat="53.098615" lon="-4.117840"><ele>250</ele><time>2020-09-18T13:38:47Z</time><name>PT4835</name></trkpt>
<trkpt lat="53.098663" lon="-4.117834"><ele>251</ele><time>2020-09-18T13:38:52Z</time><name>PT4836</name></trkpt>
<trkpt lat="53.098696" lon="-4.117839"><ele>251</ele><time>2020-09-18T13:38:55Z</time><name>PT4837</name></trkpt>
<trkpt lat="53.098718" lon="-4.117844"><ele>251</ele><time>2020-09-18T13:38:58Z</time><name>PT4838</name></trkpt>
<trkpt lat="53.098765" lon="-4.117851"><ele>253</ele><time>2020-09-18T13:39:02Z</time><name>PT4839</name></trkpt>
<trkpt lat="53.098796" lon="-4.117851"><ele>253</ele><time>2020-09-18T13:39:05Z</time><name>PT4840</name></trkpt>
<trkpt lat="53.098840" lon="-4.117848"><ele>255</ele><time>2020-09-18T13:39:08Z</time><name>PT4841</name></trkpt>
<trkpt lat="53.098878" lon="-4.117855"><ele>255</ele><time>2020-09-18T13:39:13Z</time><name>PT4842</name></trkpt>
<trkpt lat="53.098898" lon="-4.117862"><ele>255</ele><time>2020-09-18T13:39:16Z</time><name>PT4843</name></trkpt>
<trkpt lat="53.098943" lon="-4.117856"><ele>257</ele><time>2020-09-18T13:39:20Z</time><name>PT4844</name></trkpt>
<trkpt lat="53.098967" lon="-4.117856"><ele>257</ele><time>2020-09-18T13:39:23Z</time><name>PT4845</name></trkpt>
<trkpt lat="53.098985" lon="-4.117866"><ele>258</ele><time>2020-09-18T13:39:26Z</time><name>PT4846</name></trkpt>
<trkpt lat="53.098989" lon="-4.117867"><ele>259</ele><time>2020-09-18T13:39:29Z</time><name>PT4847</name></trkpt>
<trkpt lat="53.098998" lon="-4.117867"><ele>260</ele><time>2020-09-18T13:39:44Z</time><name>PT4848</name></trkpt>
<trkpt lat="53.099016" lon="-4.117870"><ele>260</ele><time>2020-09-18T13:39:47Z</time><name>PT4849</name></trkpt>
<trkpt lat="53.099024" lon="-4.117868"><ele>260</ele><time>2020-09-18T13:39:50Z</time><name>PT4850</name></trkpt>
<trkpt lat="53.099033" lon="-4.117866"><ele>261</ele><time>2020-09-18T13:39:55Z</time><name>PT4851</name></trkpt>
<trkpt lat="53.099053" lon="-4.117885"><ele>261</ele><time>2020-09-18T13:39:58Z</time><name>PT4852</name></trkpt>
<trkpt lat="53.099057" lon="-4.117903"><ele>261</ele><time>2020-09-18T13:40:01Z</time><name>PT4853</name></trkpt>
<trkpt lat="53.099057" lon="-4.117907"><ele>261</ele><time>2020-09-18T13:40:05Z</time><name>PT4854</name></trkpt>
<trkpt lat="53.099063" lon="-4.117938"><ele>262</ele><time>2020-09-18T13:40:17Z</time><name>PT4855</name></trkpt>
<trkpt lat="53.099064" lon="-4.117966"><ele>261</ele><time>2020-09-18T13:40:22Z</time><name>PT4856</name></trkpt>
<trkpt lat="53.099066" lon="-4.117969"><ele>261</ele><time>2020-09-18T13:40:26Z</time><name>PT4857</name></trkpt>
<trkpt lat="53.099079" lon="-4.117949"><ele>260</ele><time>2020-09-18T13:40:44Z</time><name>PT4858</name></trkpt>
<trkpt lat="53.099095" lon="-4.117913"><ele>260</ele><time>2020-09-18T13:40:47Z</time><name>PT4859</name></trkpt>
<trkpt lat="53.099126" lon="-4.117884"><ele>260</ele><time>2020-09-18T13:40:50Z</time><name>PT4860</name></trkpt>
<trkpt lat="53.099175" lon="-4.117860"><ele>260</ele><time>2020-09-18T13:40:53Z</time><name>PT4861</name></trkpt>
<trkpt lat="53.099231" lon="-4.117839"><ele>261</ele><time>2020-09-18T13:40:58Z</time><name>PT4862</name></trkpt>
<trkpt lat="53.099268" lon="-4.117824"><ele>262</ele><time>2020-09-18T13:41:01Z</time><name>PT4863</name></trkpt>
<trkpt lat="53.099301" lon="-4.117810"><ele>262</ele><time>2020-09-18T13:41:04Z</time><name>PT4864</name></trkpt>
<trkpt lat="53.099347" lon="-4.117790"><ele>263</ele><time>2020-09-18T13:41:08Z</time><name>PT4865</name></trkpt>
<trkpt lat="53.099393" lon="-4.117777"><ele>262</ele><time>2020-09-18T13:41:11Z</time><name>PT4866</name></trkpt>
<trkpt lat="53.099440" lon="-4.117767"><ele>262</ele><time>2020-09-18T13:41:16Z</time><name>PT4867</name></trkpt>
<trkpt lat="53.099471" lon="-4.117757"><ele>263</ele><time>2020-09-18T13:41:19Z</time><name>PT4868</name></trkpt>
<trkpt lat="53.099516" lon="-4.117754"><ele>264</ele><time>2020-09-18T13:41:23Z</time><name>PT4869</name></trkpt>
<trkpt lat="53.099553" lon="-4.117754"><ele>265</ele><time>2020-09-18T13:41:26Z</time><name>PT4870</name></trkpt>
<trkpt lat="53.099588" lon="-4.117754"><ele>266</ele><time>2020-09-18T13:41:29Z</time><name>PT4871</name></trkpt>
<trkpt lat="53.099609" lon="-4.117759"><ele>267</ele><time>2020-09-18T13:41:32Z</time><name>PT4872</name></trkpt>
<trkpt lat="53.099604" lon="-4.117758"><ele>266</ele><time>2020-09-18T13:41:37Z</time><name>PT4873</name></trkpt>
<trkpt lat="53.099626" lon="-4.117760"><ele>266</ele><time>2020-09-18T13:42:01Z</time><name>PT4874</name></trkpt>
<trkpt lat="53.099630" lon="-4.117755"><ele>265</ele><time>2020-09-18T13:42:04Z</time><name>PT4875</name></trkpt>
<trkpt lat="53.099645" lon="-4.117754"><ele>265</ele><time>2020-09-18T13:42:07Z</time><name>PT4876</name></trkpt>
<trkpt lat="53.099687" lon="-4.117750"><ele>265</ele><time>2020-09-18T13:42:11Z</time><name>PT4877</name></trkpt>
<trkpt lat="53.099732" lon="-4.117747"><ele>266</ele><time>2020-09-18T13:42:14Z</time><name>PT4878</name></trkpt>
<trkpt lat="53.099780" lon="-4.117747"><ele>266</ele><time>2020-09-18T13:42:19Z</time><name>PT4879</name></trkpt>
<trkpt lat="53.099832" lon="-4.117747"><ele>267</ele><time>2020-09-18T13:42:23Z</time><name>PT4880</name></trkpt>
<trkpt lat="53.099869" lon="-4.117749"><ele>268</ele><time>2020-09-18T13:42:26Z</time><name>PT4881</name></trkpt>
<trkpt lat="53.099911" lon="-4.117749"><ele>269</ele><time>2020-09-18T13:42:29Z</time><name>PT4882</name></trkpt>
<trkpt lat="53.099966" lon="-4.117747"><ele>271</ele><time>2020-09-18T13:42:34Z</time><name>PT4883</name></trkpt>
<trkpt lat="53.100017" lon="-4.117749"><ele>272</ele><time>2020-09-18T13:42:38Z</time><name>PT4884</name></trkpt>
<trkpt lat="53.100066" lon="-4.117748"><ele>272</ele><time>2020-09-18T13:42:41Z</time><name>PT4885</name></trkpt>
<trkpt lat="53.100096" lon="-4.117753"><ele>272</ele><time>2020-09-18T13:42:44Z</time><name>PT4886</name></trkpt>
<trkpt lat="53.100134" lon="-4.117757"><ele>272</ele><time>2020-09-18T13:42:47Z</time><name>PT4887</name></trkpt>
<trkpt lat="53.100178" lon="-4.117766"><ele>271</ele><time>2020-09-18T13:42:52Z</time><name>PT4888</name></trkpt>
<trkpt lat="53.100215" lon="-4.117778"><ele>271</ele><time>2020-09-18T13:42:55Z</time><name>PT4889</name></trkpt>
<trkpt lat="53.100248" lon="-4.117789"><ele>271</ele><time>2020-09-18T13:42:58Z</time><name>PT4890</name></trkpt>
<trkpt lat="53.100291" lon="-4.117810"><ele>270</ele><time>2020-09-18T13:43:02Z</time><name>PT4891</name></trkpt>
<trkpt lat="53.100322" lon="-4.117825"><ele>270</ele><time>2020-09-18T13:43:05Z</time><name>PT4892</name></trkpt>
<trkpt lat="53.100361" lon="-4.117842"><ele>269</ele><time>2020-09-18T13:43:08Z</time><name>PT4893</name></trkpt>
<trkpt lat="53.100391" lon="-4.117851"><ele>269</ele><time>2020-09-18T13:43:11Z</time><name>PT4894</name></trkpt>
<trkpt lat="53.100434" lon="-4.117871"><ele>269</ele><time>2020-09-18T13:43:16Z</time><name>PT4895</name></trkpt>
<trkpt lat="53.100468" lon="-4.117886"><ele>269</ele><time>2020-09-18T13:43:19Z</time><name>PT4896</name></trkpt>
<trkpt lat="53.100516" lon="-4.117898"><ele>270</ele><time>2020-09-18T13:43:23Z</time><name>PT4897</name></trkpt>
<trkpt lat="53.100564" lon="-4.117913"><ele>271</ele><time>2020-09-18T13:43:26Z</time><name>PT4898</name></trkpt>
<trkpt lat="53.100613" lon="-4.117926"><ele>272</ele><time>2020-09-18T13:43:31Z</time><name>PT4899</name></trkpt>
<trkpt lat="53.100657" lon="-4.117940"><ele>271</ele><time>2020-09-18T13:43:35Z</time><name>PT4900</name></trkpt>
<trkpt lat="53.100693" lon="-4.117954"><ele>272</ele><time>2020-09-18T13:43:38Z</time><name>PT4901</name></trkpt>
<trkpt lat="53.100737" lon="-4.117965"><ele>272</ele><time>2020-09-18T13:43:43Z</time><name>PT4902</name></trkpt>
<trkpt lat="53.100767" lon="-4.117969"><ele>273</ele><time>2020-09-18T13:43:46Z</time><name>PT4903</name></trkpt>
<trkpt lat="53.100792" lon="-4.117984"><ele>272</ele><time>2020-09-18T13:43:50Z</time><name>PT4904</name></trkpt>
<trkpt lat="53.100807" lon="-4.117991"><ele>272</ele><time>2020-09-18T13:43:53Z</time><name>PT4905</name></trkpt>
<trkpt lat="53.100821" lon="-4.117994"><ele>274</ele><time>2020-09-18T13:43:56Z</time><name>PT4906</name></trkpt>
<trkpt lat="53.100817" lon="-4.117990"><ele>274</ele><time>2020-09-18T13:43:59Z</time><name>PT4907</name></trkpt>
<trkpt lat="53.100835" lon="-4.118002"><ele>273</ele><time>2020-09-18T13:44:02Z</time><name>PT4908</name></trkpt>
<trkpt lat="53.100870" lon="-4.118026"><ele>273</ele><time>2020-09-18T13:44:05Z</time><name>PT4909</name></trkpt>
<trkpt lat="53.100897" lon="-4.118034"><ele>273</ele><time>2020-09-18T13:44:08Z</time><name>PT4910</name></trkpt>
<trkpt lat="53.100941" lon="-4.118045"><ele>274</ele><time>2020-09-18T13:44:13Z</time><name>PT4911</name></trkpt>
<trkpt lat="53.100984" lon="-4.118055"><ele>274</ele><time>2020-09-18T13:44:17Z</time><name>PT4912</name></trkpt>
<trkpt lat="53.101031" lon="-4.118069"><ele>273</ele><time>2020-09-18T13:44:20Z</time><name>PT4913</name></trkpt>
<trkpt lat="53.101066" lon="-4.118077"><ele>274</ele><time>2020-09-18T13:44:23Z</time><name>PT4914</name></trkpt>
<trkpt lat="53.101116" lon="-4.118088"><ele>274</ele><time>2020-09-18T13:44:28Z</time><name>PT4915</name></trkpt>
<trkpt lat="53.101155" lon="-4.118092"><ele>274</ele><time>2020-09-18T13:44:31Z</time><name>PT4916</name></trkpt>
<trkpt lat="53.101187" lon="-4.118108"><ele>274</ele><time>2020-09-18T13:44:34Z</time><name>PT4917</name></trkpt>
<trkpt lat="53.101215" lon="-4.118116"><ele>274</ele><time>2020-09-18T13:44:37Z</time><name>PT4918</name></trkpt>
<trkpt lat="53.101262" lon="-4.118133"><ele>275</ele><time>2020-09-18T13:44:41Z</time><name>PT4919</name></trkpt>
<trkpt lat="53.101302" lon="-4.118149"><ele>276</ele><time>2020-09-18T13:44:44Z</time><name>PT4920</name></trkpt>
<trkpt lat="53.101352" lon="-4.118166"><ele>276</ele><time>2020-09-18T13:44:47Z</time><name>PT4921</name></trkpt>
<trkpt lat="53.101388" lon="-4.118172"><ele>276</ele><time>2020-09-18T13:44:50Z</time><name>PT4922</name></trkpt>
<trkpt lat="53.101429" lon="-4.118195"><ele>276</ele><time>2020-09-18T13:44:55Z</time><name>PT4923</name></trkpt>
<trkpt lat="53.101474" lon="-4.118219"><ele>276</ele><time>2020-09-18T13:44:59Z</time><name>PT4924</name></trkpt>
<trkpt lat="53.101510" lon="-4.118231"><ele>276</ele><time>2020-09-18T13:45:02Z</time><name>PT4925</name></trkpt>
<trkpt lat="53.101548" lon="-4.118247"><ele>277</ele><time>2020-09-18T13:45:05Z</time><name>PT4926</name></trkpt>
<trkpt lat="53.101602" lon="-4.118270"><ele>277</ele><time>2020-09-18T13:45:08Z</time><name>PT4927</name></trkpt>
<trkpt lat="53.101641" lon="-4.118289"><ele>276</ele><time>2020-09-18T13:45:13Z</time><name>PT4928</name></trkpt>
<trkpt lat="53.101675" lon="-4.118302"><ele>276</ele><time>2020-09-18T13:45:16Z</time><name>PT4929</name></trkpt>
<trkpt lat="53.101721" lon="-4.118324"><ele>276</ele><time>2020-09-18T13:45:20Z</time><name>PT4930</name></trkpt>
<trkpt lat="53.101753" lon="-4.118340"><ele>276</ele><time>2020-09-18T13:45:23Z</time><name>PT4931</name></trkpt>
<trkpt lat="53.101804" lon="-4.118357"><ele>277</ele><time>2020-09-18T13:45:26Z</time><name>PT4932</name></trkpt>
<trkpt lat="53.101866" lon="-4.118381"><ele>280</ele><time>2020-09-18T13:45:31Z</time><name>PT4933</name></trkpt>
<trkpt lat="53.101889" lon="-4.118410"><ele>279</ele><time>2020-09-18T13:45:34Z</time><name>PT4934</name></trkpt>
<trkpt lat="53.101901" lon="-4.118424"><ele>279</ele><time>2020-09-18T13:45:38Z</time><name>PT4935</name></trkpt>
<trkpt lat="53.101913" lon="-4.118433"><ele>280</ele><time>2020-09-18T13:45:41Z</time><name>PT4936</name></trkpt>
<trkpt lat="53.101911" lon="-4.118424"><ele>280</ele><time>2020-09-18T13:45:44Z</time><name>PT4937</name></trkpt>
<trkpt lat="53.101916" lon="-4.118431"><ele>280</ele><time>2020-09-18T13:45:52Z</time><name>PT4938</name></trkpt>
<trkpt lat="53.101929" lon="-4.118443"><ele>279</ele><time>2020-09-18T13:45:55Z</time><name>PT4939</name></trkpt>
<trkpt lat="53.101939" lon="-4.118466"><ele>279</ele><time>2020-09-18T13:45:59Z</time><name>PT4940</name></trkpt>
<trkpt lat="53.101948" lon="-4.118481"><ele>279</ele><time>2020-09-18T13:46:02Z</time><name>PT4941</name></trkpt>
<trkpt lat="53.101961" lon="-4.118500"><ele>278</ele><time>2020-09-18T13:46:05Z</time><name>PT4942</name></trkpt>
<trkpt lat="53.101961" lon="-4.118503"><ele>278</ele><time>2020-09-18T13:46:08Z</time><name>PT4943</name></trkpt>
<trkpt lat="53.101964" lon="-4.118505"><ele>278</ele><time>2020-09-18T13:46:17Z</time><name>PT4944</name></trkpt>
<trkpt lat="53.101975" lon="-4.118513"><ele>278</ele><time>2020-09-18T13:46:20Z</time><name>PT4945</name></trkpt>
<trkpt lat="53.102004" lon="-4.118522"><ele>278</ele><time>2020-09-18T13:46:23Z</time><name>PT4946</name></trkpt>
<trkpt lat="53.102049" lon="-4.118536"><ele>278</ele><time>2020-09-18T13:46:26Z</time><name>PT4947</name></trkpt>
<trkpt lat="53.102093" lon="-4.118555"><ele>278</ele><time>2020-09-18T13:46:31Z</time><name>PT4948</name></trkpt>
<trkpt lat="53.102140" lon="-4.118565"><ele>278</ele><time>2020-09-18T13:46:35Z</time><name>PT4949</name></trkpt>
<trkpt lat="53.102171" lon="-4.118575"><ele>278</ele><time>2020-09-18T13:46:38Z</time><name>PT4950</name></trkpt>
<trkpt lat="53.102217" lon="-4.118597"><ele>278</ele><time>2020-09-18T13:46:41Z</time><name>PT4951</name></trkpt>
<trkpt lat="53.102245" lon="-4.118609"><ele>277</ele><time>2020-09-18T13:46:44Z</time><name>PT4952</name></trkpt>
<trkpt lat="53.102280" lon="-4.118626"><ele>276</ele><time>2020-09-18T13:46:49Z</time><name>PT4953</name></trkpt>
<trkpt lat="53.102329" lon="-4.118644"><ele>276</ele><time>2020-09-18T13:46:53Z</time><name>PT4954</name></trkpt>
<trkpt lat="53.102372" lon="-4.118663"><ele>278</ele><time>2020-09-18T13:46:56Z</time><name>PT4955</name></trkpt>
<trkpt lat="53.102424" lon="-4.118686"><ele>278</ele><time>2020-09-18T13:46:59Z</time><name>PT4956</name></trkpt>
<trkpt lat="53.102472" lon="-4.118707"><ele>279</ele><time>2020-09-18T13:47:04Z</time><name>PT4957</name></trkpt>
<trkpt lat="53.102476" lon="-4.118710"><ele>279</ele><time>2020-09-18T13:47:08Z</time><name>PT4958</name></trkpt>
<trkpt lat="53.102503" lon="-4.118721"><ele>279</ele><time>2020-09-18T13:47:14Z</time><name>PT4959</name></trkpt>
<trkpt lat="53.102539" lon="-4.118734"><ele>279</ele><time>2020-09-18T13:47:17Z</time><name>PT4960</name></trkpt>
<trkpt lat="53.102593" lon="-4.118745"><ele>279</ele><time>2020-09-18T13:47:22Z</time><name>PT4961</name></trkpt>
<trkpt lat="53.102646" lon="-4.118759"><ele>279</ele><time>2020-09-18T13:47:26Z</time><name>PT4962</name></trkpt>
<trkpt lat="53.102686" lon="-4.118770"><ele>280</ele><time>2020-09-18T13:47:29Z</time><name>PT4963</name></trkpt>
<trkpt lat="53.102736" lon="-4.118775"><ele>280</ele><time>2020-09-18T13:47:32Z</time><name>PT4964</name></trkpt>
<trkpt lat="53.102781" lon="-4.118776"><ele>280</ele><time>2020-09-18T13:47:37Z</time><name>PT4965</name></trkpt>
<trkpt lat="53.102827" lon="-4.118780"><ele>280</ele><time>2020-09-18T13:47:41Z</time><name>PT4966</name></trkpt>
<trkpt lat="53.102873" lon="-4.118781"><ele>280</ele><time>2020-09-18T13:47:44Z</time><name>PT4967</name></trkpt>
<trkpt lat="53.102907" lon="-4.118780"><ele>279</ele><time>2020-09-18T13:47:47Z</time><name>PT4968</name></trkpt>
<trkpt lat="53.102948" lon="-4.118781"><ele>279</ele><time>2020-09-18T13:47:52Z</time><name>PT4969</name></trkpt>
<trkpt lat="53.102993" lon="-4.118780"><ele>279</ele><time>2020-09-18T13:47:56Z</time><name>PT4970</name></trkpt>
<trkpt lat="53.103030" lon="-4.118777"><ele>278</ele><time>2020-09-18T13:47:59Z</time><name>PT4971</name></trkpt>
<trkpt lat="53.103066" lon="-4.118774"><ele>278</ele><time>2020-09-18T13:48:02Z</time><name>PT4972</name></trkpt>
<trkpt lat="53.103115" lon="-4.118776"><ele>277</ele><time>2020-09-18T13:48:07Z</time><name>PT4973</name></trkpt>
<trkpt lat="53.103162" lon="-4.118779"><ele>276</ele><time>2020-09-18T13:48:11Z</time><name>PT4974</name></trkpt>
<trkpt lat="53.103205" lon="-4.118791"><ele>277</ele><time>2020-09-18T13:48:14Z</time><name>PT4975</name></trkpt>
<trkpt lat="53.103259" lon="-4.118799"><ele>278</ele><time>2020-09-18T13:48:17Z</time><name>PT4976</name></trkpt>
<trkpt lat="53.103293" lon="-4.118808"><ele>278</ele><time>2020-09-18T13:48:20Z</time><name>PT4977</name></trkpt>
<trkpt lat="53.103339" lon="-4.118815"><ele>278</ele><time>2020-09-18T13:48:25Z</time><name>PT4978</name></trkpt>
<trkpt lat="53.103382" lon="-4.118826"><ele>276</ele><time>2020-09-18T13:48:29Z</time><name>PT4979</name></trkpt>
<trkpt lat="53.103434" lon="-4.118836"><ele>277</ele><time>2020-09-18T13:48:32Z</time><name>PT4980</name></trkpt>
<trkpt lat="53.103480" lon="-4.118835"><ele>277</ele><time>2020-09-18T13:48:37Z</time><name>PT4981</name></trkpt>
<trkpt lat="53.103518" lon="-4.118823"><ele>277</ele><time>2020-09-18T13:48:41Z</time><name>PT4982</name></trkpt>
<trkpt lat="53.103550" lon="-4.118820"><ele>278</ele><time>2020-09-18T13:48:44Z</time><name>PT4983</name></trkpt>
<trkpt lat="53.103602" lon="-4.118825"><ele>278</ele><time>2020-09-18T13:48:47Z</time><name>PT4984</name></trkpt>
<trkpt lat="53.103650" lon="-4.118833"><ele>278</ele><time>2020-09-18T13:48:52Z</time><name>PT4985</name></trkpt>
<trkpt lat="53.103685" lon="-4.118833"><ele>278</ele><time>2020-09-18T13:48:55Z</time><name>PT4986</name></trkpt>
<trkpt lat="53.103736" lon="-4.118831"><ele>278</ele><time>2020-09-18T13:48:59Z</time><name>PT4987</name></trkpt>
<trkpt lat="53.103784" lon="-4.118835"><ele>277</ele><time>2020-09-18T13:49:02Z</time><name>PT4988</name></trkpt>
<trkpt lat="53.103827" lon="-4.118838"><ele>277</ele><time>2020-09-18T13:49:07Z</time><name>PT4989</name></trkpt>
<trkpt lat="53.103864" lon="-4.118842"><ele>277</ele><time>2020-09-18T13:49:10Z</time><name>PT4990</name></trkpt>
<trkpt lat="53.103906" lon="-4.118845"><ele>278</ele><time>2020-09-18T13:49:13Z</time><name>PT4991</name></trkpt>
<trkpt lat="53.103922" lon="-4.118846"><ele>277</ele><time>2020-09-18T13:49:16Z</time><name>PT4992</name></trkpt>
<trkpt lat="53.103966" lon="-4.118849"><ele>277</ele><time>2020-09-18T13:49:20Z</time><name>PT4993</name></trkpt>
<trkpt lat="53.103979" lon="-4.118854"><ele>277</ele><time>2020-09-18T13:49:22Z</time><name>PT4994</name></trkpt>
<trkpt lat="53.103993" lon="-4.118857"><ele>277</ele><time>2020-09-18T13:49:23Z</time><name>PT4995</name></trkpt>
<trkpt lat="53.104006" lon="-4.118854"><ele>277</ele><time>2020-09-18T13:49:23Z</time><name>PT4996</name></trkpt>
<trkpt lat="53.104016" lon="-4.118854"><ele>277</ele><time>2020-09-18T13:49:25Z</time><name>PT4997</name></trkpt>
<trkpt lat="53.104026" lon="-4.118852"><ele>277</ele><time>2020-09-18T13:49:26Z</time><name>PT4998</name></trkpt>
<trkpt lat="53.104037" lon="-4.118852"><ele>277</ele><time>2020-09-18T13:49:26Z</time><name>PT4999</name></trkpt>
<trkpt lat="53.104050" lon="-4.118854"><ele>277</ele><time>2020-09-18T13:49:28Z</time><name>PT5000</name></trkpt>
<trkpt lat="53.104061" lon="-4.118855"><ele>277</ele><time>2020-09-18T13:49:29Z</time><name>PT5001</name></trkpt>
<trkpt lat="53.104072" lon="-4.118857"><ele>277</ele><time>2020-09-18T13:49:29Z</time><name>PT5002</name></trkpt>
<trkpt lat="53.104082" lon="-4.118858"><ele>277</ele><time>2020-09-18T13:49:31Z</time><name>PT5003</name></trkpt>
<trkpt lat="53.104094" lon="-4.118859"><ele>277</ele><time>2020-09-18T13:49:32Z</time><name>PT5004</name></trkpt>
<trkpt lat="53.104104" lon="-4.118862"><ele>277</ele><time>2020-09-18T13:49:32Z</time><name>PT5005</name></trkpt>
<trkpt lat="53.104114" lon="-4.118864"><ele>277</ele><time>2020-09-18T13:49:34Z</time><name>PT5006</name></trkpt>
<trkpt lat="53.104123" lon="-4.118866"><ele>277</ele><time>2020-09-18T13:49:35Z</time><name>PT5007</name></trkpt>
<trkpt lat="53.104135" lon="-4.118871"><ele>278</ele><time>2020-09-18T13:49:35Z</time><name>PT5008</name></trkpt>
<trkpt lat="53.104143" lon="-4.118872"><ele>277</ele><time>2020-09-18T13:49:37Z</time><name>PT5009</name></trkpt>
<trkpt lat="53.104151" lon="-4.118875"><ele>277</ele><time>2020-09-18T13:49:38Z</time><name>PT5010</name></trkpt>
<trkpt lat="53.104157" lon="-4.118880"><ele>277</ele><time>2020-09-18T13:49:38Z</time><name>PT5011</name></trkpt>
<trkpt lat="53.104165" lon="-4.118886"><ele>277</ele><time>2020-09-18T13:49:40Z</time><name>PT5012</name></trkpt>
<trkpt lat="53.104172" lon="-4.118896"><ele>277</ele><time>2020-09-18T13:49:41Z</time><name>PT5013</name></trkpt>
<trkpt lat="53.104177" lon="-4.118910"><ele>277</ele><time>2020-09-18T13:49:41Z</time><name>PT5014</name></trkpt>
<trkpt lat="53.104183" lon="-4.118920"><ele>277</ele><time>2020-09-18T13:49:43Z</time><name>PT5015</name></trkpt>
<trkpt lat="53.104189" lon="-4.118933"><ele>277</ele><time>2020-09-18T13:49:44Z</time><name>PT5016</name></trkpt>
<trkpt lat="53.104193" lon="-4.118944"><ele>277</ele><time>2020-09-18T13:49:44Z</time><name>PT5017</name></trkpt>
<trkpt lat="53.104201" lon="-4.118955"><ele>276</ele><time>2020-09-18T13:49:46Z</time><name>PT5018</name></trkpt>
<trkpt lat="53.104208" lon="-4.118964"><ele>276</ele><time>2020-09-18T13:49:47Z</time><name>PT5019</name></trkpt>
<trkpt lat="53.104217" lon="-4.118973"><ele>276</ele><time>2020-09-18T13:49:47Z</time><name>PT5020</name></trkpt>
<trkpt lat="53.104226" lon="-4.118977"><ele>276</ele><time>2020-09-18T13:49:49Z</time><name>PT5021</name></trkpt>
<trkpt lat="53.104237" lon="-4.118980"><ele>276</ele><time>2020-09-18T13:49:50Z</time><name>PT5022</name></trkpt>
<trkpt lat="53.104245" lon="-4.118981"><ele>276</ele><time>2020-09-18T13:49:50Z</time><name>PT5023</name></trkpt>
<trkpt lat="53.104253" lon="-4.118981"><ele>276</ele><time>2020-09-18T13:49:52Z</time><name>PT5024</name></trkpt>
<trkpt lat="53.104264" lon="-4.118984"><ele>276</ele><time>2020-09-18T13:49:53Z</time><name>PT5025</name></trkpt>
<trkpt lat="53.104274" lon="-4.118987"><ele>276</ele><time>2020-09-18T13:49:53Z</time><name>PT5026</name></trkpt>
<trkpt lat="53.104282" lon="-4.118989"><ele>276</ele><time>2020-09-18T13:49:55Z</time><name>PT5027</name></trkpt>
<trkpt lat="53.104292" lon="-4.118992"><ele>276</ele><time>2020-09-18T13:49:56Z</time><name>PT5028</name></trkpt>
<trkpt lat="53.104302" lon="-4.118997"><ele>276</ele><time>2020-09-18T13:49:56Z</time><name>PT5029</name></trkpt>
<trkpt lat="53.104312" lon="-4.118999"><ele>276</ele><time>2020-09-18T13:49:58Z</time><name>PT5030</name></trkpt>
<trkpt lat="53.104324" lon="-4.118997"><ele>276</ele><time>2020-09-18T13:49:59Z</time><name>PT5031</name></trkpt>
<trkpt lat="53.104333" lon="-4.118995"><ele>276</ele><time>2020-09-18T13:49:59Z</time><name>PT5032</name></trkpt>
<trkpt lat="53.104343" lon="-4.118995"><ele>276</ele><time>2020-09-18T13:50:01Z</time><name>PT5033</name></trkpt>
<trkpt lat="53.104352" lon="-4.118996"><ele>276</ele><time>2020-09-18T13:50:02Z</time><name>PT5034</name></trkpt>
<trkpt lat="53.104357" lon="-4.118993"><ele>275</ele><time>2020-09-18T13:50:02Z</time><name>PT5035</name></trkpt>
<trkpt lat="53.104362" lon="-4.118989"><ele>276</ele><time>2020-09-18T13:50:04Z</time><name>PT5036</name></trkpt>
<trkpt lat="53.104367" lon="-4.118985"><ele>275</ele><time>2020-09-18T13:50:05Z</time><name>PT5037</name></trkpt>
<trkpt lat="53.104371" lon="-4.118982"><ele>275</ele><time>2020-09-18T13:50:05Z</time><name>PT5038</name></trkpt>
<trkpt lat="53.104377" lon="-4.118977"><ele>275</ele><time>2020-09-18T13:50:07Z</time><name>PT5039</name></trkpt>
<trkpt lat="53.104387" lon="-4.118972"><ele>276</ele><time>2020-09-18T13:50:08Z</time><name>PT5040</name></trkpt>
<trkpt lat="53.104392" lon="-4.118967"><ele>276</ele><time>2020-09-18T13:50:08Z</time><name>PT5041</name></trkpt>
<trkpt lat="53.104390" lon="-4.118965"><ele>275</ele><time>2020-09-18T13:50:10Z</time><name>PT5042</name></trkpt>
<trkpt lat="53.104390" lon="-4.118966"><ele>275</ele><time>2020-09-18T13:50:11Z</time><name>PT5043</name></trkpt>
<trkpt lat="53.104391" lon="-4.118967"><ele>275</ele><time>2020-09-18T13:50:11Z</time><name>PT5044</name></trkpt>
<trkpt lat="53.104390" lon="-4.118968"><ele>274</ele><time>2020-09-18T13:50:13Z</time><name>PT5045</name></trkpt>
<trkpt lat="53.104389" lon="-4.118969"><ele>274</ele><time>2020-09-18T13:50:14Z</time><name>PT5046</name></trkpt>
<trkpt lat="53.104396" lon="-4.118968"><ele>274</ele><time>2020-09-18T13:50:22Z</time><name>PT5047</name></trkpt>
<trkpt lat="53.104404" lon="-4.118973"><ele>274</ele><time>2020-09-18T13:50:23Z</time><name>PT5048</name></trkpt>
<trkpt lat="53.104411" lon="-4.118973"><ele>274</ele><time>2020-09-18T13:50:23Z</time><name>PT5049</name></trkpt>
<trkpt lat="53.104411" lon="-4.118978"><ele>274</ele><time>2020-09-18T13:50:25Z</time><name>PT5050</name></trkpt>
<trkpt lat="53.104410" lon="-4.118980"><ele>274</ele><time>2020-09-18T13:50:26Z</time><name>PT5051</name></trkpt>
<trkpt lat="53.104411" lon="-4.118981"><ele>274</ele><time>2020-09-18T13:50:26Z</time><name>PT5052</name></trkpt>
<trkpt lat="53.104424" lon="-4.118994"><ele>275</ele><time>2020-09-18T13:51:05Z</time><name>PT5053</name></trkpt>
<trkpt lat="53.104438" lon="-4.118985"><ele>274</ele><time>2020-09-18T13:51:07Z</time><name>PT5054</name></trkpt>
<trkpt lat="53.104447" lon="-4.118980"><ele>274</ele><time>2020-09-18T13:51:08Z</time><name>PT5055</name></trkpt>
<trkpt lat="53.104456" lon="-4.118967"><ele>274</ele><time>2020-09-18T13:51:08Z</time><name>PT5056</name></trkpt>
<trkpt lat="53.104465" lon="-4.118960"><ele>275</ele><time>2020-09-18T13:51:10Z</time><name>PT5057</name></trkpt>
<trkpt lat="53.104470" lon="-4.118953"><ele>274</ele><time>2020-09-18T13:51:11Z</time><name>PT5058</name></trkpt>
<trkpt lat="53.104476" lon="-4.118943"><ele>274</ele><time>2020-09-18T13:51:11Z</time><name>PT5059</name></trkpt>
<trkpt lat="53.104483" lon="-4.118940"><ele>274</ele><time>2020-09-18T13:51:13Z</time><name>PT5060</name></trkpt>
<trkpt lat="53.104490" lon="-4.118934"><ele>274</ele><time>2020-09-18T13:51:14Z</time><name>PT5061</name></trkpt>
<trkpt lat="53.104498" lon="-4.118928"><ele>274</ele><time>2020-09-18T13:51:14Z</time><name>PT5062</name></trkpt>
<trkpt lat="53.104510" lon="-4.118928"><ele>275</ele><time>2020-09-18T13:51:16Z</time><name>PT5063</name></trkpt>
<trkpt lat="53.104522" lon="-4.118934"><ele>274</ele><time>2020-09-18T13:51:17Z</time><name>PT5064</name></trkpt>
<trkpt lat="53.104533" lon="-4.118941"><ele>274</ele><time>2020-09-18T13:51:17Z</time><name>PT5065</name></trkpt>
<trkpt lat="53.104544" lon="-4.118950"><ele>274</ele><time>2020-09-18T13:51:19Z</time><name>PT5066</name></trkpt>
<trkpt lat="53.104557" lon="-4.118965"><ele>274</ele><time>2020-09-18T13:51:20Z</time><name>PT5067</name></trkpt>
<trkpt lat="53.104568" lon="-4.118976"><ele>274</ele><time>2020-09-18T13:51:20Z</time><name>PT5068</name></trkpt>
<trkpt lat="53.104579" lon="-4.118986"><ele>274</ele><time>2020-09-18T13:51:22Z</time><name>PT5069</name></trkpt>
<trkpt lat="53.104592" lon="-4.118998"><ele>274</ele><time>2020-09-18T13:51:23Z</time><name>PT5070</name></trkpt>
<trkpt lat="53.104603" lon="-4.119008"><ele>273</ele><time>2020-09-18T13:51:23Z</time><name>PT5071</name></trkpt>
<trkpt lat="53.104612" lon="-4.119017"><ele>273</ele><time>2020-09-18T13:51:25Z</time><name>PT5072</name></trkpt>
<trkpt lat="53.104625" lon="-4.119027"><ele>273</ele><time>2020-09-18T13:51:26Z</time><name>PT5073</name></trkpt>
<trkpt lat="53.104637" lon="-4.119035"><ele>273</ele><time>2020-09-18T13:51:26Z</time><name>PT5074</name></trkpt>
<trkpt lat="53.104646" lon="-4.119045"><ele>273</ele><time>2020-09-18T13:51:28Z</time><name>PT5075</name></trkpt>
<trkpt lat="53.104656" lon="-4.119053"><ele>273</ele><time>2020-09-18T13:51:29Z</time><name>PT5076</name></trkpt>
<trkpt lat="53.104666" lon="-4.119065"><ele>273</ele><time>2020-09-18T13:51:30Z</time><name>PT5077</name></trkpt>
<trkpt lat="53.104677" lon="-4.119076"><ele>273</ele><time>2020-09-18T13:51:31Z</time><name>PT5078</name></trkpt>
<trkpt lat="53.104687" lon="-4.119086"><ele>272</ele><time>2020-09-18T13:51:32Z</time><name>PT5079</name></trkpt>
<trkpt lat="53.104696" lon="-4.119097"><ele>272</ele><time>2020-09-18T13:51:32Z</time><name>PT5080</name></trkpt>
<trkpt lat="53.104707" lon="-4.119107"><ele>272</ele><time>2020-09-18T13:51:34Z</time><name>PT5081</name></trkpt>
<trkpt lat="53.104718" lon="-4.119116"><ele>272</ele><time>2020-09-18T13:51:35Z</time><name>PT5082</name></trkpt>
<trkpt lat="53.104727" lon="-4.119121"><ele>272</ele><time>2020-09-18T13:51:36Z</time><name>PT5083</name></trkpt>
<trkpt lat="53.104739" lon="-4.119129"><ele>272</ele><time>2020-09-18T13:51:37Z</time><name>PT5084</name></trkpt>
<trkpt lat="53.104750" lon="-4.119138"><ele>272</ele><time>2020-09-18T13:51:38Z</time><name>PT5085</name></trkpt>
<trkpt lat="53.104758" lon="-4.119147"><ele>271</ele><time>2020-09-18T13:51:38Z</time><name>PT5086</name></trkpt>
<trkpt lat="53.104768" lon="-4.119157"><ele>272</ele><time>2020-09-18T13:51:40Z</time><name>PT5087</name></trkpt>
<trkpt lat="53.104780" lon="-4.119169"><ele>271</ele><time>2020-09-18T13:51:41Z</time><name>PT5088</name></trkpt>
<trkpt lat="53.104790" lon="-4.119180"><ele>271</ele><time>2020-09-18T13:51:42Z</time><name>PT5089</name></trkpt>
<trkpt lat="53.104801" lon="-4.119190"><ele>272</ele><time>2020-09-18T13:51:43Z</time><name>PT5090</name></trkpt>
<trkpt lat="53.104813" lon="-4.119201"><ele>272</ele><time>2020-09-18T13:51:44Z</time><name>PT5091</name></trkpt>
<trkpt lat="53.104824" lon="-4.119211"><ele>272</ele><time>2020-09-18T13:51:44Z</time><name>PT5092</name></trkpt>
<trkpt lat="53.104833" lon="-4.119220"><ele>272</ele><time>2020-09-18T13:51:46Z</time><name>PT5093</name></trkpt>
<trkpt lat="53.104844" lon="-4.119230"><ele>272</ele><time>2020-09-18T13:51:47Z</time><name>PT5094</name></trkpt>
<trkpt lat="53.104855" lon="-4.119238"><ele>272</ele><time>2020-09-18T13:51:47Z</time><name>PT5095</name></trkpt>
<trkpt lat="53.104864" lon="-4.119249"><ele>272</ele><time>2020-09-18T13:51:49Z</time><name>PT5096</name></trkpt>
<trkpt lat="53.104871" lon="-4.119259"><ele>272</ele><time>2020-09-18T13:51:50Z</time><name>PT5097</name></trkpt>
<trkpt lat="53.104880" lon="-4.119264"><ele>272</ele><time>2020-09-18T13:51:50Z</time><name>PT5098</name></trkpt>
<trkpt lat="53.104885" lon="-4.119267"><ele>272</ele><time>2020-09-18T13:51:52Z</time><name>PT5099</name></trkpt>
<trkpt lat="53.104888" lon="-4.119271"><ele>271</ele><time>2020-09-18T13:51:53Z</time><name>PT5100</name></trkpt>
<trkpt lat="53.104891" lon="-4.119275"><ele>271</ele><time>2020-09-18T13:51:53Z</time><name>PT5101</name></trkpt>
<trkpt lat="53.104892" lon="-4.119277"><ele>271</ele><time>2020-09-18T13:51:55Z</time><name>PT5102</name></trkpt>
<trkpt lat="53.104892" lon="-4.119278"><ele>271</ele><time>2020-09-18T13:51:56Z</time><name>PT5103</name></trkpt>
<trkpt lat="53.104899" lon="-4.119281"><ele>271</ele><time>2020-09-18T13:52:10Z</time><name>PT5104</name></trkpt>
<trkpt lat="53.104908" lon="-4.119289"><ele>271</ele><time>2020-09-18T13:52:11Z</time><name>PT5105</name></trkpt>
<trkpt lat="53.104919" lon="-4.119297"><ele>271</ele><time>2020-09-18T13:52:11Z</time><name>PT5106</name></trkpt>
<trkpt lat="53.104928" lon="-4.119312"><ele>271</ele><time>2020-09-18T13:52:13Z</time><name>PT5107</name></trkpt>
<trkpt lat="53.104938" lon="-4.119326"><ele>270</ele><time>2020-09-18T13:52:14Z</time><name>PT5108</name></trkpt>
<trkpt lat="53.104949" lon="-4.119337"><ele>270</ele><time>2020-09-18T13:52:14Z</time><name>PT5109</name></trkpt>
<trkpt lat="53.104961" lon="-4.119348"><ele>270</ele><time>2020-09-18T13:52:16Z</time><name>PT5110</name></trkpt>
<trkpt lat="53.104974" lon="-4.119355"><ele>270</ele><time>2020-09-18T13:52:17Z</time><name>PT5111</name></trkpt>
<trkpt lat="53.104990" lon="-4.119367"><ele>269</ele><time>2020-09-18T13:52:17Z</time><name>PT5112</name></trkpt>
<trkpt lat="53.105001" lon="-4.119379"><ele>269</ele><time>2020-09-18T13:52:19Z</time><name>PT5113</name></trkpt>
<trkpt lat="53.105014" lon="-4.119388"><ele>269</ele><time>2020-09-18T13:52:20Z</time><name>PT5114</name></trkpt>
<trkpt lat="53.105026" lon="-4.119396"><ele>269</ele><time>2020-09-18T13:52:20Z</time><name>PT5115</name></trkpt>
<trkpt lat="53.105040" lon="-4.119407"><ele>269</ele><time>2020-09-18T13:52:22Z</time><name>PT5116</name></trkpt>
<trkpt lat="53.105078" lon="-4.119445"><ele>269</ele><time>2020-09-18T13:52:25Z</time><name>PT5117</name></trkpt>
<trkpt lat="53.105126" lon="-4.119481"><ele>268</ele><time>2020-09-18T13:52:29Z</time><name>PT5118</name></trkpt>
<trkpt lat="53.105178" lon="-4.119518"><ele>267</ele><time>2020-09-18T13:52:32Z</time><name>PT5119</name></trkpt>
<trkpt lat="53.105229" lon="-4.119557"><ele>266</ele><time>2020-09-18T13:52:37Z</time><name>PT5120</name></trkpt>
<trkpt lat="53.105279" lon="-4.119597"><ele>266</ele><time>2020-09-18T13:52:41Z</time><name>PT5121</name></trkpt>
<trkpt lat="53.105322" lon="-4.119623"><ele>266</ele><time>2020-09-18T13:52:44Z</time><name>PT5122</name></trkpt>
<trkpt lat="53.105360" lon="-4.119647"><ele>265</ele><time>2020-09-18T13:52:47Z</time><name>PT5123</name></trkpt>
<trkpt lat="53.105396" lon="-4.119681"><ele>264</ele><time>2020-09-18T13:52:50Z</time><name>PT5124</name></trkpt>
<trkpt lat="53.105444" lon="-4.119715"><ele>264</ele><time>2020-09-18T13:52:53Z</time><name>PT5125</name></trkpt>
<trkpt lat="53.105489" lon="-4.119746"><ele>263</ele><time>2020-09-18T13:52:58Z</time><name>PT5126</name></trkpt>
<trkpt lat="53.105530" lon="-4.119778"><ele>263</ele><time>2020-09-18T13:53:02Z</time><name>PT5127</name></trkpt>
<trkpt lat="53.105581" lon="-4.119808"><ele>262</ele><time>2020-09-18T13:53:05Z</time><name>PT5128</name></trkpt>
<trkpt lat="53.105624" lon="-4.119841"><ele>261</ele><time>2020-09-18T13:53:10Z</time><name>PT5129</name></trkpt>
<trkpt lat="53.105658" lon="-4.119871"><ele>261</ele><time>2020-09-18T13:53:13Z</time><name>PT5130</name></trkpt>
<trkpt lat="53.105689" lon="-4.119897"><ele>260</ele><time>2020-09-18T13:53:16Z</time><name>PT5131</name></trkpt>
<trkpt lat="53.105718" lon="-4.119921"><ele>259</ele><time>2020-09-18T13:53:19Z</time><name>PT5132</name></trkpt>
<trkpt lat="53.105761" lon="-4.119964"><ele>258</ele><time>2020-09-18T13:53:23Z</time><name>PT5133</name></trkpt>
<trkpt lat="53.105805" lon="-4.119994"><ele>257</ele><time>2020-09-18T13:53:26Z</time><name>PT5134</name></trkpt>
<trkpt lat="53.105839" lon="-4.120012"><ele>257</ele><time>2020-09-18T13:53:29Z</time><name>PT5135</name></trkpt>
<trkpt lat="53.105873" lon="-4.120033"><ele>256</ele><time>2020-09-18T13:53:32Z</time><name>PT5136</name></trkpt>
<trkpt lat="53.105913" lon="-4.120047"><ele>256</ele><time>2020-09-18T13:53:35Z</time><name>PT5137</name></trkpt>
<trkpt lat="53.105969" lon="-4.120059"><ele>257</ele><time>2020-09-18T13:53:40Z</time><name>PT5138</name></trkpt>
<trkpt lat="53.106020" lon="-4.120060"><ele>256</ele><time>2020-09-18T13:53:44Z</time><name>PT5139</name></trkpt>
<trkpt lat="53.106060" lon="-4.120056"><ele>256</ele><time>2020-09-18T13:53:47Z</time><name>PT5140</name></trkpt>
<trkpt lat="53.106112" lon="-4.120047"><ele>256</ele><time>2020-09-18T13:53:50Z</time><name>PT5141</name></trkpt>
<trkpt lat="53.106143" lon="-4.120034"><ele>256</ele><time>2020-09-18T13:53:53Z</time><name>PT5142</name></trkpt>
<trkpt lat="53.106194" lon="-4.120032"><ele>255</ele><time>2020-09-18T13:53:58Z</time><name>PT5143</name></trkpt>
<trkpt lat="53.106205" lon="-4.120029"><ele>254</ele><time>2020-09-18T13:53:59Z</time><name>PT5144</name></trkpt>
<trkpt lat="53.106215" lon="-4.120022"><ele>254</ele><time>2020-09-18T13:53:59Z</time><name>PT5145</name></trkpt>
<trkpt lat="53.106225" lon="-4.120017"><ele>253</ele><time>2020-09-18T13:54:01Z</time><name>PT5146</name></trkpt>
<trkpt lat="53.106235" lon="-4.120010"><ele>253</ele><time>2020-09-18T13:54:02Z</time><name>PT5147</name></trkpt>
<trkpt lat="53.106244" lon="-4.120004"><ele>252</ele><time>2020-09-18T13:54:02Z</time><name>PT5148</name></trkpt>
<trkpt lat="53.106254" lon="-4.120000"><ele>252</ele><time>2020-09-18T13:54:04Z</time><name>PT5149</name></trkpt>
<trkpt lat="53.106265" lon="-4.119995"><ele>252</ele><time>2020-09-18T13:54:05Z</time><name>PT5150</name></trkpt>
<trkpt lat="53.106276" lon="-4.119988"><ele>251</ele><time>2020-09-18T13:54:05Z</time><name>PT5151</name></trkpt>
<trkpt lat="53.106286" lon="-4.119979"><ele>251</ele><time>2020-09-18T13:54:07Z</time><name>PT5152</name></trkpt>
<trkpt lat="53.106296" lon="-4.119968"><ele>251</ele><time>2020-09-18T13:54:08Z</time><name>PT5153</name></trkpt>
<trkpt lat="53.106306" lon="-4.119964"><ele>251</ele><time>2020-09-18T13:54:08Z</time><name>PT5154</name></trkpt>
<trkpt lat="53.106309" lon="-4.119965"><ele>251</ele><time>2020-09-18T13:54:10Z</time><name>PT5155</name></trkpt>
<trkpt lat="53.106318" lon="-4.119957"><ele>250</ele><time>2020-09-18T13:54:11Z</time><name>PT5156</name></trkpt>
<trkpt lat="53.106330" lon="-4.119944"><ele>250</ele><time>2020-09-18T13:54:11Z</time><name>PT5157</name></trkpt>
<trkpt lat="53.106341" lon="-4.119935"><ele>249</ele><time>2020-09-18T13:54:13Z</time><name>PT5158</name></trkpt>
<trkpt lat="53.106351" lon="-4.119927"><ele>249</ele><time>2020-09-18T13:54:14Z</time><name>PT5159</name></trkpt>
<trkpt lat="53.106362" lon="-4.119921"><ele>249</ele><time>2020-09-18T13:54:14Z</time><name>PT5160</name></trkpt>
<trkpt lat="53.106376" lon="-4.119915"><ele>249</ele><time>2020-09-18T13:54:16Z</time><name>PT5161</name></trkpt>
<trkpt lat="53.106387" lon="-4.119907"><ele>249</ele><time>2020-09-18T13:54:17Z</time><name>PT5162</name></trkpt>
<trkpt lat="53.106397" lon="-4.119900"><ele>249</ele><time>2020-09-18T13:54:17Z</time><name>PT5163</name></trkpt>
<trkpt lat="53.106410" lon="-4.119890"><ele>249</ele><time>2020-09-18T13:54:19Z</time><name>PT5164</name></trkpt>
<trkpt lat="53.106423" lon="-4.119883"><ele>249</ele><time>2020-09-18T13:54:20Z</time><name>PT5165</name></trkpt>
<trkpt lat="53.106435" lon="-4.119877"><ele>249</ele><time>2020-09-18T13:54:20Z</time><name>PT5166</name></trkpt>
<trkpt lat="53.106443" lon="-4.119874"><ele>249</ele><time>2020-09-18T13:54:22Z</time><name>PT5167</name></trkpt>
<trkpt lat="53.106453" lon="-4.119875"><ele>249</ele><time>2020-09-18T13:54:23Z</time><name>PT5168</name></trkpt>
<trkpt lat="53.106461" lon="-4.119877"><ele>249</ele><time>2020-09-18T13:54:23Z</time><name>PT5169</name></trkpt>
<trkpt lat="53.106465" lon="-4.119877"><ele>249</ele><time>2020-09-18T13:54:25Z</time><name>PT5170</name></trkpt>
<trkpt lat="53.106468" lon="-4.119875"><ele>248</ele><time>2020-09-18T13:54:26Z</time><name>PT5171</name></trkpt>
<trkpt lat="53.106468" lon="-4.119868"><ele>247</ele><time>2020-09-18T13:54:26Z</time><name>PT5172</name></trkpt>
<trkpt lat="53.106469" lon="-4.119861"><ele>246</ele><time>2020-09-18T13:54:28Z</time><name>PT5173</name></trkpt>
<trkpt lat="53.106468" lon="-4.119861"><ele>246</ele><time>2020-09-18T13:54:29Z</time><name>PT5174</name></trkpt>
<trkpt lat="53.106474" lon="-4.119858"><ele>246</ele><time>2020-09-18T13:54:29Z</time><name>PT5175</name></trkpt>
<trkpt lat="53.106484" lon="-4.119853"><ele>245</ele><time>2020-09-18T13:54:31Z</time><name>PT5176</name></trkpt>
<trkpt lat="53.106502" lon="-4.119845"><ele>246</ele><time>2020-09-18T13:54:32Z</time><name>PT5177</name></trkpt>
<trkpt lat="53.106516" lon="-4.119841"><ele>247</ele><time>2020-09-18T13:54:32Z</time><name>PT5178</name></trkpt>
<trkpt lat="53.106519" lon="-4.119839"><ele>247</ele><time>2020-09-18T13:54:34Z</time><name>PT5179</name></trkpt>
<trkpt lat="53.106522" lon="-4.119843"><ele>247</ele><time>2020-09-18T13:54:35Z</time><name>PT5180</name></trkpt>
<trkpt lat="53.106518" lon="-4.119845"><ele>248</ele><time>2020-09-18T13:54:35Z</time><name>PT5181</name></trkpt>
<trkpt lat="53.106513" lon="-4.119843"><ele>248</ele><time>2020-09-18T13:54:37Z</time><name>PT5182</name></trkpt>
<trkpt lat="53.106510" lon="-4.119841"><ele>248</ele><time>2020-09-18T13:54:38Z</time><name>PT5183</name></trkpt>
<trkpt lat="53.106510" lon="-4.119839"><ele>248</ele><time>2020-09-18T13:54:38Z</time><name>PT5184</name></trkpt>
<trkpt lat="53.106512" lon="-4.119836"><ele>248</ele><time>2020-09-18T13:54:40Z</time><name>PT5185</name></trkpt>
<trkpt lat="53.106520" lon="-4.119826"><ele>248</ele><time>2020-09-18T13:54:41Z</time><name>PT5186</name></trkpt>
<trkpt lat="53.106533" lon="-4.119820"><ele>247</ele><time>2020-09-18T13:54:41Z</time><name>PT5187</name></trkpt>
<trkpt lat="53.106543" lon="-4.119819"><ele>248</ele><time>2020-09-18T13:54:43Z</time><name>PT5188</name></trkpt>
<trkpt lat="53.106554" lon="-4.119822"><ele>246</ele><time>2020-09-18T13:54:44Z</time><name>PT5189</name></trkpt>
<trkpt lat="53.106568" lon="-4.119806"><ele>246</ele><time>2020-09-18T13:54:44Z</time><name>PT5190</name></trkpt>
<trkpt lat="53.106579" lon="-4.119799"><ele>245</ele><time>2020-09-18T13:54:46Z</time><name>PT5191</name></trkpt>
<trkpt lat="53.106590" lon="-4.119792"><ele>245</ele><time>2020-09-18T13:54:47Z</time><name>PT5192</name></trkpt>
<trkpt lat="53.106605" lon="-4.119789"><ele>245</ele><time>2020-09-18T13:54:47Z</time><name>PT5193</name></trkpt>
<trkpt lat="53.106619" lon="-4.119783"><ele>245</ele><time>2020-09-18T13:54:49Z</time><name>PT5194</name></trkpt>
<trkpt lat="53.106632" lon="-4.119779"><ele>244</ele><time>2020-09-18T13:54:50Z</time><name>PT5195</name></trkpt>
<trkpt lat="53.106645" lon="-4.119772"><ele>244</ele><time>2020-09-18T13:54:50Z</time><name>PT5196</name></trkpt>
<trkpt lat="53.106657" lon="-4.119763"><ele>243</ele><time>2020-09-18T13:54:52Z</time><name>PT5197</name></trkpt>
<trkpt lat="53.106673" lon="-4.119754"><ele>244</ele><time>2020-09-18T13:54:53Z</time><name>PT5198</name></trkpt>
<trkpt lat="53.106688" lon="-4.119747"><ele>244</ele><time>2020-09-18T13:54:53Z</time><name>PT5199</name></trkpt>
<trkpt lat="53.106704" lon="-4.119738"><ele>244</ele><time>2020-09-18T13:54:55Z</time><name>PT5200</name></trkpt>
<trkpt lat="53.106719" lon="-4.119731"><ele>244</ele><time>2020-09-18T13:54:56Z</time><name>PT5201</name></trkpt>
<trkpt lat="53.106731" lon="-4.119726"><ele>244</ele><time>2020-09-18T13:54:56Z</time><name>PT5202</name></trkpt>
<trkpt lat="53.106747" lon="-4.119718"><ele>245</ele><time>2020-09-18T13:54:58Z</time><name>PT5203</name></trkpt>
<trkpt lat="53.106763" lon="-4.119709"><ele>245</ele><time>2020-09-18T13:54:59Z</time><name>PT5204</name></trkpt>
<trkpt lat="53.106776" lon="-4.119702"><ele>244</ele><time>2020-09-18T13:54:59Z</time><name>PT5205</name></trkpt>
<trkpt lat="53.106790" lon="-4.119696"><ele>244</ele><time>2020-09-18T13:55:01Z</time><name>PT5206</name></trkpt>
<trkpt lat="53.106804" lon="-4.119686"><ele>244</ele><time>2020-09-18T13:55:02Z</time><name>PT5207</name></trkpt>
<trkpt lat="53.106816" lon="-4.119676"><ele>244</ele><time>2020-09-18T13:55:02Z</time><name>PT5208</name></trkpt>
<trkpt lat="53.106831" lon="-4.119667"><ele>244</ele><time>2020-09-18T13:55:04Z</time><name>PT5209</name></trkpt>
<trkpt lat="53.106845" lon="-4.119657"><ele>244</ele><time>2020-09-18T13:55:05Z</time><name>PT5210</name></trkpt>
<trkpt lat="53.106858" lon="-4.119652"><ele>244</ele><time>2020-09-18T13:55:05Z</time><name>PT5211</name></trkpt>
<trkpt lat="53.106874" lon="-4.119646"><ele>244</ele><time>2020-09-18T13:55:07Z</time><name>PT5212</name></trkpt>
<trkpt lat="53.106888" lon="-4.119640"><ele>245</ele><time>2020-09-18T13:55:08Z</time><name>PT5213</name></trkpt>
<trkpt lat="53.106901" lon="-4.119633"><ele>244</ele><time>2020-09-18T13:55:08Z</time><name>PT5214</name></trkpt>
<trkpt lat="53.106914" lon="-4.119626"><ele>244</ele><time>2020-09-18T13:55:10Z</time><name>PT5215</name></trkpt>
<trkpt lat="53.106925" lon="-4.119620"><ele>244</ele><time>2020-09-18T13:55:11Z</time><name>PT5216</name></trkpt>
<trkpt lat="53.106941" lon="-4.119613"><ele>244</ele><time>2020-09-18T13:55:11Z</time><name>PT5217</name></trkpt>
<trkpt lat="53.106953" lon="-4.119607"><ele>244</ele><time>2020-09-18T13:55:13Z</time><name>PT5218</name></trkpt>
<trkpt lat="53.106965" lon="-4.119600"><ele>244</ele><time>2020-09-18T13:55:14Z</time><name>PT5219</name></trkpt>
<trkpt lat="53.106975" lon="-4.119593"><ele>244</ele><time>2020-09-18T13:55:14Z</time><name>PT5220</name></trkpt>
<trkpt lat="53.106986" lon="-4.119587"><ele>244</ele><time>2020-09-18T13:55:16Z</time><name>PT5221</name></trkpt>
<trkpt lat="53.107000" lon="-4.119582"><ele>244</ele><time>2020-09-18T13:55:17Z</time><name>PT5222</name></trkpt>
<trkpt lat="53.107015" lon="-4.119578"><ele>244</ele><time>2020-09-18T13:55:17Z</time><name>PT5223</name></trkpt>
<trkpt lat="53.107026" lon="-4.119573"><ele>244</ele><time>2020-09-18T13:55:19Z</time><name>PT5224</name></trkpt>
<trkpt lat="53.107035" lon="-4.119568"><ele>244</ele><time>2020-09-18T13:55:20Z</time><name>PT5225</name></trkpt>
<trkpt lat="53.107046" lon="-4.119561"><ele>244</ele><time>2020-09-18T13:55:20Z</time><name>PT5226</name></trkpt>
<trkpt lat="53.107062" lon="-4.119556"><ele>244</ele><time>2020-09-18T13:55:22Z</time><name>PT5227</name></trkpt>
<trkpt lat="53.107076" lon="-4.119552"><ele>244</ele><time>2020-09-18T13:55:23Z</time><name>PT5228</name></trkpt>
<trkpt lat="53.107090" lon="-4.119546"><ele>244</ele><time>2020-09-18T13:55:23Z</time><name>PT5229</name></trkpt>
<trkpt lat="53.107106" lon="-4.119540"><ele>245</ele><time>2020-09-18T13:55:25Z</time><name>PT5230</name></trkpt>
<trkpt lat="53.107120" lon="-4.119534"><ele>245</ele><time>2020-09-18T13:55:26Z</time><name>PT5231</name></trkpt>
<trkpt lat="53.107131" lon="-4.119527"><ele>245</ele><time>2020-09-18T13:55:26Z</time><name>PT5232</name></trkpt>
<trkpt lat="53.107145" lon="-4.119519"><ele>245</ele><time>2020-09-18T13:55:28Z</time><name>PT5233</name></trkpt>
<trkpt lat="53.107160" lon="-4.119514"><ele>246</ele><time>2020-09-18T13:55:29Z</time><name>PT5234</name></trkpt>
<trkpt lat="53.107173" lon="-4.119509"><ele>246</ele><time>2020-09-18T13:55:29Z</time><name>PT5235</name></trkpt>
<trkpt lat="53.107186" lon="-4.119503"><ele>246</ele><time>2020-09-18T13:55:31Z</time><name>PT5236</name></trkpt>
<trkpt lat="53.107203" lon="-4.119498"><ele>246</ele><time>2020-09-18T13:55:32Z</time><name>PT5237</name></trkpt>
<trkpt lat="53.107217" lon="-4.119495"><ele>247</ele><time>2020-09-18T13:55:32Z</time><name>PT5238</name></trkpt>
<trkpt lat="53.107231" lon="-4.119492"><ele>247</ele><time>2020-09-18T13:55:34Z</time><name>PT5239</name></trkpt>
<trkpt lat="53.107243" lon="-4.119490"><ele>247</ele><time>2020-09-18T13:55:35Z</time><name>PT5240</name></trkpt>
<trkpt lat="53.107256" lon="-4.119488"><ele>247</ele><time>2020-09-18T13:55:35Z</time><name>PT5241</name></trkpt>
<trkpt lat="53.107270" lon="-4.119490"><ele>246</ele><time>2020-09-18T13:55:37Z</time><name>PT5242</name></trkpt>
<trkpt lat="53.107283" lon="-4.119493"><ele>246</ele><time>2020-09-18T13:55:38Z</time><name>PT5243</name></trkpt>
<trkpt lat="53.107296" lon="-4.119496"><ele>246</ele><time>2020-09-18T13:55:38Z</time><name>PT5244</name></trkpt>
<trkpt lat="53.107311" lon="-4.119505"><ele>246</ele><time>2020-09-18T13:55:40Z</time><name>PT5245</name></trkpt>
<trkpt lat="53.107325" lon="-4.119515"><ele>246</ele><time>2020-09-18T13:55:41Z</time><name>PT5246</name></trkpt>
<trkpt lat="53.107337" lon="-4.119520"><ele>247</ele><time>2020-09-18T13:55:41Z</time><name>PT5247</name></trkpt>
<trkpt lat="53.107347" lon="-4.119528"><ele>247</ele><time>2020-09-18T13:55:43Z</time><name>PT5248</name></trkpt>
<trkpt lat="53.107360" lon="-4.119543"><ele>247</ele><time>2020-09-18T13:55:44Z</time><name>PT5249</name></trkpt>
<trkpt lat="53.107369" lon="-4.119557"><ele>247</ele><time>2020-09-18T13:55:44Z</time><name>PT5250</name></trkpt>
<trkpt lat="53.107377" lon="-4.119571"><ele>247</ele><time>2020-09-18T13:55:46Z</time><name>PT5251</name></trkpt>
<trkpt lat="53.107382" lon="-4.119588"><ele>247</ele><time>2020-09-18T13:55:47Z</time><name>PT5252</name></trkpt>
<trkpt lat="53.107386" lon="-4.119607"><ele>246</ele><time>2020-09-18T13:55:47Z</time><name>PT5253</name></trkpt>
<trkpt lat="53.107388" lon="-4.119629"><ele>246</ele><time>2020-09-18T13:55:49Z</time><name>PT5254</name></trkpt>
<trkpt lat="53.107392" lon="-4.119648"><ele>246</ele><time>2020-09-18T13:55:50Z</time><name>PT5255</name></trkpt>
<trkpt lat="53.107395" lon="-4.119671"><ele>246</ele><time>2020-09-18T13:55:50Z</time><name>PT5256</name></trkpt>
<trkpt lat="53.107397" lon="-4.119693"><ele>246</ele><time>2020-09-18T13:55:52Z</time><name>PT5257</name></trkpt>
<trkpt lat="53.107399" lon="-4.119714"><ele>246</ele><time>2020-09-18T13:55:53Z</time><name>PT5258</name></trkpt>
<trkpt lat="53.107404" lon="-4.119731"><ele>246</ele><time>2020-09-18T13:55:53Z</time><name>PT5259</name></trkpt>
<trkpt lat="53.107403" lon="-4.119751"><ele>246</ele><time>2020-09-18T13:55:55Z</time><name>PT5260</name></trkpt>
<trkpt lat="53.107403" lon="-4.119775"><ele>246</ele><time>2020-09-18T13:55:56Z</time><name>PT5261</name></trkpt>
<trkpt lat="53.107404" lon="-4.119798"><ele>246</ele><time>2020-09-18T13:55:56Z</time><name>PT5262</name></trkpt>
<trkpt lat="53.107404" lon="-4.119817"><ele>245</ele><time>2020-09-18T13:55:58Z</time><name>PT5263</name></trkpt>
<trkpt lat="53.107405" lon="-4.119839"><ele>246</ele><time>2020-09-18T13:55:59Z</time><name>PT5264</name></trkpt>
<trkpt lat="53.107405" lon="-4.119868"><ele>246</ele><time>2020-09-18T13:55:59Z</time><name>PT5265</name></trkpt>
<trkpt lat="53.107405" lon="-4.119892"><ele>246</ele><time>2020-09-18T13:56:01Z</time><name>PT5266</name></trkpt>
<trkpt lat="53.107405" lon="-4.119912"><ele>246</ele><time>2020-09-18T13:56:02Z</time><name>PT5267</name></trkpt>
<trkpt lat="53.107406" lon="-4.119933"><ele>246</ele><time>2020-09-18T13:56:02Z</time><name>PT5268</name></trkpt>
<trkpt lat="53.107406" lon="-4.119957"><ele>246</ele><time>2020-09-18T13:56:04Z</time><name>PT5269</name></trkpt>
<trkpt lat="53.107406" lon="-4.119978"><ele>246</ele><time>2020-09-18T13:56:05Z</time><name>PT5270</name></trkpt>
<trkpt lat="53.107407" lon="-4.119998"><ele>246</ele><time>2020-09-18T13:56:05Z</time><name>PT5271</name></trkpt>
<trkpt lat="53.107408" lon="-4.120022"><ele>246</ele><time>2020-09-18T13:56:07Z</time><name>PT5272</name></trkpt>
<trkpt lat="53.107408" lon="-4.120049"><ele>246</ele><time>2020-09-18T13:56:08Z</time><name>PT5273</name></trkpt>
<trkpt lat="53.107408" lon="-4.120069"><ele>246</ele><time>2020-09-18T13:56:08Z</time><name>PT5274</name></trkpt>
<trkpt lat="53.107409" lon="-4.120087"><ele>246</ele><time>2020-09-18T13:56:10Z</time><name>PT5275</name></trkpt>
<trkpt lat="53.107409" lon="-4.120108"><ele>246</ele><time>2020-09-18T13:56:11Z</time><name>PT5276</name></trkpt>
<trkpt lat="53.107411" lon="-4.120128"><ele>246</ele><time>2020-09-18T13:56:11Z</time><name>PT5277</name></trkpt>
<trkpt lat="53.107414" lon="-4.120147"><ele>246</ele><time>2020-09-18T13:56:13Z</time><name>PT5278</name></trkpt>
<trkpt lat="53.107419" lon="-4.120166"><ele>247</ele><time>2020-09-18T13:56:14Z</time><name>PT5279</name></trkpt>
<trkpt lat="53.107425" lon="-4.120185"><ele>247</ele><time>2020-09-18T13:56:14Z</time><name>PT5280</name></trkpt>
<trkpt lat="53.107428" lon="-4.120202"><ele>247</ele><time>2020-09-18T13:56:16Z</time><name>PT5281</name></trkpt>
<trkpt lat="53.107432" lon="-4.120223"><ele>248</ele><time>2020-09-18T13:56:17Z</time><name>PT5282</name></trkpt>
<trkpt lat="53.107438" lon="-4.120247"><ele>248</ele><time>2020-09-18T13:56:17Z</time><name>PT5283</name></trkpt>
<trkpt lat="53.107445" lon="-4.120268"><ele>248</ele><time>2020-09-18T13:56:19Z</time><name>PT5284</name></trkpt>
<trkpt lat="53.107453" lon="-4.120286"><ele>248</ele><time>2020-09-18T13:56:20Z</time><name>PT5285</name></trkpt>
<trkpt lat="53.107461" lon="-4.120304"><ele>248</ele><time>2020-09-18T13:56:20Z</time><name>PT5286</name></trkpt>
<trkpt lat="53.107470" lon="-4.120320"><ele>247</ele><time>2020-09-18T13:56:22Z</time><name>PT5287</name></trkpt>
<trkpt lat="53.107480" lon="-4.120331"><ele>248</ele><time>2020-09-18T13:56:23Z</time><name>PT5288</name></trkpt>
<trkpt lat="53.107489" lon="-4.120344"><ele>247</ele><time>2020-09-18T13:56:24Z</time><name>PT5289</name></trkpt>
<trkpt lat="53.107499" lon="-4.120356"><ele>247</ele><time>2020-09-18T13:56:25Z</time><name>PT5290</name></trkpt>
<trkpt lat="53.107512" lon="-4.120361"><ele>247</ele><time>2020-09-18T13:56:26Z</time><name>PT5291</name></trkpt>
<trkpt lat="53.107522" lon="-4.120364"><ele>247</ele><time>2020-09-18T13:56:26Z</time><name>PT5292</name></trkpt>
<trkpt lat="53.107533" lon="-4.120369"><ele>247</ele><time>2020-09-18T13:56:28Z</time><name>PT5293</name></trkpt>
<trkpt lat="53.107544" lon="-4.120374"><ele>247</ele><time>2020-09-18T13:56:29Z</time><name>PT5294</name></trkpt>
<trkpt lat="53.107553" lon="-4.120377"><ele>246</ele><time>2020-09-18T13:56:29Z</time><name>PT5295</name></trkpt>
<trkpt lat="53.107565" lon="-4.120377"><ele>246</ele><time>2020-09-18T13:56:31Z</time><name>PT5296</name></trkpt>
<trkpt lat="53.107576" lon="-4.120374"><ele>246</ele><time>2020-09-18T13:56:32Z</time><name>PT5297</name></trkpt>
<trkpt lat="53.107589" lon="-4.120371"><ele>247</ele><time>2020-09-18T13:56:32Z</time><name>PT5298</name></trkpt>
<trkpt lat="53.107599" lon="-4.120371"><ele>247</ele><time>2020-09-18T13:56:34Z</time><name>PT5299</name></trkpt>
<trkpt lat="53.107610" lon="-4.120372"><ele>246</ele><time>2020-09-18T13:56:35Z</time><name>PT5300</name></trkpt>
<trkpt lat="53.107623" lon="-4.120372"><ele>247</ele><time>2020-09-18T13:56:35Z</time><name>PT5301</name></trkpt>
<trkpt lat="53.107633" lon="-4.120373"><ele>247</ele><time>2020-09-18T13:56:37Z</time><name>PT5302</name></trkpt>
<trkpt lat="53.107644" lon="-4.120373"><ele>246</ele><time>2020-09-18T13:56:38Z</time><name>PT5303</name></trkpt>
<trkpt lat="53.107656" lon="-4.120371"><ele>246</ele><time>2020-09-18T13:56:38Z</time><name>PT5304</name></trkpt>
<trkpt lat="53.107668" lon="-4.120369"><ele>246</ele><time>2020-09-18T13:56:40Z</time><name>PT5305</name></trkpt>
<trkpt lat="53.107679" lon="-4.120371"><ele>246</ele><time>2020-09-18T13:56:41Z</time><name>PT5306</name></trkpt>
<trkpt lat="53.107693" lon="-4.120371"><ele>246</ele><time>2020-09-18T13:56:41Z</time><name>PT5307</name></trkpt>
<trkpt lat="53.107705" lon="-4.120368"><ele>246</ele><time>2020-09-18T13:56:43Z</time><name>PT5308</name></trkpt>
<trkpt lat="53.107716" lon="-4.120365"><ele>246</ele><time>2020-09-18T13:56:44Z</time><name>PT5309</name></trkpt>
<trkpt lat="53.107726" lon="-4.120365"><ele>245</ele><time>2020-09-18T13:56:44Z</time><name>PT5310</name></trkpt>
<trkpt lat="53.107738" lon="-4.120365"><ele>246</ele><time>2020-09-18T13:56:46Z</time><name>PT5311</name></trkpt>
<trkpt lat="53.107754" lon="-4.120365"><ele>246</ele><time>2020-09-18T13:56:47Z</time><name>PT5312</name></trkpt>
<trkpt lat="53.107769" lon="-4.120365"><ele>247</ele><time>2020-09-18T13:56:47Z</time><name>PT5313</name></trkpt>
<trkpt lat="53.107783" lon="-4.120363"><ele>247</ele><time>2020-09-18T13:56:49Z</time><name>PT5314</name></trkpt>
<trkpt lat="53.107795" lon="-4.120363"><ele>247</ele><time>2020-09-18T13:56:50Z</time><name>PT5315</name></trkpt>
<trkpt lat="53.107806" lon="-4.120364"><ele>247</ele><time>2020-09-18T13:56:51Z</time><name>PT5316</name></trkpt>
<trkpt lat="53.107820" lon="-4.120365"><ele>247</ele><time>2020-09-18T13:56:52Z</time><name>PT5317</name></trkpt>
<trkpt lat="53.107832" lon="-4.120365"><ele>247</ele><time>2020-09-18T13:56:53Z</time><name>PT5318</name></trkpt>
<trkpt lat="53.107841" lon="-4.120365"><ele>248</ele><time>2020-09-18T13:56:54Z</time><name>PT5319</name></trkpt>
<trkpt lat="53.107852" lon="-4.120363"><ele>247</ele><time>2020-09-18T13:56:55Z</time><name>PT5320</name></trkpt>
<trkpt lat="53.107863" lon="-4.120364"><ele>247</ele><time>2020-09-18T13:56:56Z</time><name>PT5321</name></trkpt>
<trkpt lat="53.107874" lon="-4.120368"><ele>247</ele><time>2020-09-18T13:56:56Z</time><name>PT5322</name></trkpt>
<trkpt lat="53.107916" lon="-4.120369"><ele>247</ele><time>2020-09-18T13:57:01Z</time><name>PT5323</name></trkpt>
<trkpt lat="53.107947" lon="-4.120376"><ele>247</ele><time>2020-09-18T13:57:04Z</time><name>PT5324</name></trkpt>
<trkpt lat="53.107996" lon="-4.120379"><ele>247</ele><time>2020-09-18T13:57:08Z</time><name>PT5325</name></trkpt>
<trkpt lat="53.108049" lon="-4.120382"><ele>248</ele><time>2020-09-18T13:57:11Z</time><name>PT5326</name></trkpt>
<trkpt lat="53.108097" lon="-4.120386"><ele>247</ele><time>2020-09-18T13:57:16Z</time><name>PT5327</name></trkpt>
<trkpt lat="53.108130" lon="-4.120396"><ele>247</ele><time>2020-09-18T13:57:19Z</time><name>PT5328</name></trkpt>
<trkpt lat="53.108168" lon="-4.120395"><ele>247</ele><time>2020-09-18T13:57:22Z</time><name>PT5329</name></trkpt>
<trkpt lat="53.108213" lon="-4.120402"><ele>248</ele><time>2020-09-18T13:57:25Z</time><name>PT5330</name></trkpt>
<trkpt lat="53.108251" lon="-4.120405"><ele>248</ele><time>2020-09-18T13:57:28Z</time><name>PT5331</name></trkpt>
<trkpt lat="53.108287" lon="-4.120413"><ele>248</ele><time>2020-09-18T13:57:31Z</time><name>PT5332</name></trkpt>
<trkpt lat="53.108338" lon="-4.120422"><ele>248</ele><time>2020-09-18T13:57:35Z</time><name>PT5333</name></trkpt>
<trkpt lat="53.108376" lon="-4.120435"><ele>248</ele><time>2020-09-18T13:57:38Z</time><name>PT5334</name></trkpt>
<trkpt lat="53.108424" lon="-4.120444"><ele>247</ele><time>2020-09-18T13:57:41Z</time><name>PT5335</name></trkpt>
<trkpt lat="53.108463" lon="-4.120457"><ele>246</ele><time>2020-09-18T13:57:44Z</time><name>PT5336</name></trkpt>
<trkpt lat="53.108509" lon="-4.120467"><ele>245</ele><time>2020-09-18T13:57:49Z</time><name>PT5337</name></trkpt>
<trkpt lat="53.108541" lon="-4.120472"><ele>245</ele><time>2020-09-18T13:57:52Z</time><name>PT5338</name></trkpt>
<trkpt lat="53.108583" lon="-4.120482"><ele>243</ele><time>2020-09-18T13:57:56Z</time><name>PT5339</name></trkpt>
<trkpt lat="53.108623" lon="-4.120489"><ele>243</ele><time>2020-09-18T13:57:59Z</time><name>PT5340</name></trkpt>
<trkpt lat="53.108665" lon="-4.120495"><ele>241</ele><time>2020-09-18T13:58:02Z</time><name>PT5341</name></trkpt>
<trkpt lat="53.108717" lon="-4.120507"><ele>241</ele><time>2020-09-18T13:58:07Z</time><name>PT5342</name></trkpt>
<trkpt lat="53.108751" lon="-4.120516"><ele>240</ele><time>2020-09-18T13:58:10Z</time><name>PT5343</name></trkpt>
<trkpt lat="53.108798" lon="-4.120528"><ele>238</ele><time>2020-09-18T13:58:14Z</time><name>PT5344</name></trkpt>
<trkpt lat="53.108835" lon="-4.120539"><ele>236</ele><time>2020-09-18T13:58:17Z</time><name>PT5345</name></trkpt>
<trkpt lat="53.108879" lon="-4.120572"><ele>236</ele><time>2020-09-18T13:58:20Z</time><name>PT5346</name></trkpt>
<trkpt lat="53.108913" lon="-4.120597"><ele>235</ele><time>2020-09-18T13:58:23Z</time><name>PT5347</name></trkpt>
<trkpt lat="53.108955" lon="-4.120636"><ele>234</ele><time>2020-09-18T13:58:28Z</time><name>PT5348</name></trkpt>
<trkpt lat="53.108983" lon="-4.120664"><ele>233</ele><time>2020-09-18T13:58:31Z</time><name>PT5349</name></trkpt>
<trkpt lat="53.109022" lon="-4.120706"><ele>232</ele><time>2020-09-18T13:58:35Z</time><name>PT5350</name></trkpt>
<trkpt lat="53.109052" lon="-4.120736"><ele>231</ele><time>2020-09-18T13:58:38Z</time><name>PT5351</name></trkpt>
<trkpt lat="53.109091" lon="-4.120775"><ele>230</ele><time>2020-09-18T13:58:41Z</time><name>PT5352</name></trkpt>
<trkpt lat="53.109126" lon="-4.120811"><ele>229</ele><time>2020-09-18T13:58:46Z</time><name>PT5353</name></trkpt>
<trkpt lat="53.109154" lon="-4.120855"><ele>227</ele><time>2020-09-18T13:58:50Z</time><name>PT5354</name></trkpt>
<trkpt lat="53.109184" lon="-4.120898"><ele>226</ele><time>2020-09-18T13:58:53Z</time><name>PT5355</name></trkpt>
<trkpt lat="53.109208" lon="-4.120929"><ele>225</ele><time>2020-09-18T13:58:56Z</time><name>PT5356</name></trkpt>
<trkpt lat="53.109244" lon="-4.120982"><ele>226</ele><time>2020-09-18T13:59:01Z</time><name>PT5357</name></trkpt>
<trkpt lat="53.109270" lon="-4.121018"><ele>225</ele><time>2020-09-18T13:59:04Z</time><name>PT5358</name></trkpt>
<trkpt lat="53.109303" lon="-4.121068"><ele>225</ele><time>2020-09-18T13:59:08Z</time><name>PT5359</name></trkpt>
<trkpt lat="53.109335" lon="-4.121105"><ele>224</ele><time>2020-09-18T13:59:11Z</time><name>PT5360</name></trkpt>
<trkpt lat="53.109360" lon="-4.121134"><ele>224</ele><time>2020-09-18T13:59:14Z</time><name>PT5361</name></trkpt>
<trkpt lat="53.109390" lon="-4.121171"><ele>222</ele><time>2020-09-18T13:59:19Z</time><name>PT5362</name></trkpt>
<trkpt lat="53.109417" lon="-4.121198"><ele>221</ele><time>2020-09-18T13:59:22Z</time><name>PT5363</name></trkpt>
<trkpt lat="53.109453" lon="-4.121229"><ele>219</ele><time>2020-09-18T13:59:26Z</time><name>PT5364</name></trkpt>
<trkpt lat="53.109492" lon="-4.121257"><ele>217</ele><time>2020-09-18T13:59:29Z</time><name>PT5365</name></trkpt>
<trkpt lat="53.109532" lon="-4.121272"><ele>217</ele><time>2020-09-18T13:59:32Z</time><name>PT5366</name></trkpt>
<trkpt lat="53.109582" lon="-4.121289"><ele>216</ele><time>2020-09-18T13:59:37Z</time><name>PT5367</name></trkpt>
<trkpt lat="53.109638" lon="-4.121300"><ele>216</ele><time>2020-09-18T13:59:41Z</time><name>PT5368</name></trkpt>
<trkpt lat="53.109672" lon="-4.121295"><ele>215</ele><time>2020-09-18T13:59:44Z</time><name>PT5369</name></trkpt>
<trkpt lat="53.109725" lon="-4.121303"><ele>215</ele><time>2020-09-18T13:59:47Z</time><name>PT5370</name></trkpt>
<trkpt lat="53.109772" lon="-4.121303"><ele>215</ele><time>2020-09-18T13:59:50Z</time><name>PT5371</name></trkpt>
<trkpt lat="53.109827" lon="-4.121311"><ele>215</ele><time>2020-09-18T13:59:55Z</time><name>PT5372</name></trkpt>
<trkpt lat="53.109882" lon="-4.121312"><ele>215</ele><time>2020-09-18T13:59:59Z</time><name>PT5373</name></trkpt>
<trkpt lat="53.109935" lon="-4.121319"><ele>215</ele><time>2020-09-18T14:00:02Z</time><name>PT5374</name></trkpt>
<trkpt lat="53.109986" lon="-4.121329"><ele>214</ele><time>2020-09-18T14:00:07Z</time><name>PT5375</name></trkpt>
<trkpt lat="53.110021" lon="-4.121341"><ele>214</ele><time>2020-09-18T14:00:10Z</time><name>PT5376</name></trkpt>
<trkpt lat="53.110070" lon="-4.121351"><ele>212</ele><time>2020-09-18T14:00:14Z</time><name>PT5377</name></trkpt>
<trkpt lat="53.110124" lon="-4.121364"><ele>211</ele><time>2020-09-18T14:00:17Z</time><name>PT5378</name></trkpt>
<trkpt lat="53.110160" lon="-4.121384"><ele>209</ele><time>2020-09-18T14:00:20Z</time><name>PT5379</name></trkpt>
<trkpt lat="53.110212" lon="-4.121405"><ele>209</ele><time>2020-09-18T14:00:25Z</time><name>PT5380</name></trkpt>
<trkpt lat="53.110254" lon="-4.121427"><ele>209</ele><time>2020-09-18T14:00:28Z</time><name>PT5381</name></trkpt>
<trkpt lat="53.110288" lon="-4.121439"><ele>209</ele><time>2020-09-18T14:00:31Z</time><name>PT5382</name></trkpt>
<trkpt lat="53.110334" lon="-4.121474"><ele>208</ele><time>2020-09-18T14:00:35Z</time><name>PT5383</name></trkpt>
<trkpt lat="53.110365" lon="-4.121491"><ele>206</ele><time>2020-09-18T14:00:38Z</time><name>PT5384</name></trkpt>
<trkpt lat="53.110402" lon="-4.121517"><ele>206</ele><time>2020-09-18T14:00:41Z</time><name>PT5385</name></trkpt>
<trkpt lat="53.110426" lon="-4.121555"><ele>207</ele><time>2020-09-18T14:00:44Z</time><name>PT5386</name></trkpt>
<trkpt lat="53.110443" lon="-4.121611"><ele>208</ele><time>2020-09-18T14:00:47Z</time><name>PT5387</name></trkpt>
<trkpt lat="53.110451" lon="-4.121680"><ele>209</ele><time>2020-09-18T14:00:50Z</time><name>PT5388</name></trkpt>
<trkpt lat="53.110459" lon="-4.121754"><ele>210</ele><time>2020-09-18T14:00:55Z</time><name>PT5389</name></trkpt>
<trkpt lat="53.110458" lon="-4.121807"><ele>211</ele><time>2020-09-18T14:00:58Z</time><name>PT5390</name></trkpt>
<trkpt lat="53.110463" lon="-4.121853"><ele>211</ele><time>2020-09-18T14:01:01Z</time><name>PT5391</name></trkpt>
<trkpt lat="53.110462" lon="-4.121929"><ele>210</ele><time>2020-09-18T14:01:05Z</time><name>PT5392</name></trkpt>
<trkpt lat="53.110474" lon="-4.122013"><ele>211</ele><time>2020-09-18T14:01:08Z</time><name>PT5393</name></trkpt>
<trkpt lat="53.110478" lon="-4.122086"><ele>211</ele><time>2020-09-18T14:01:13Z</time><name>PT5394</name></trkpt>
<trkpt lat="53.110484" lon="-4.122165"><ele>211</ele><time>2020-09-18T14:01:17Z</time><name>PT5395</name></trkpt>
<trkpt lat="53.110487" lon="-4.122245"><ele>210</ele><time>2020-09-18T14:01:20Z</time><name>PT5396</name></trkpt>
<trkpt lat="53.110484" lon="-4.122315"><ele>210</ele><time>2020-09-18T14:01:23Z</time><name>PT5397</name></trkpt>
<trkpt lat="53.110479" lon="-4.122404"><ele>209</ele><time>2020-09-18T14:01:28Z</time><name>PT5398</name></trkpt>
<trkpt lat="53.110463" lon="-4.122493"><ele>207</ele><time>2020-09-18T14:01:32Z</time><name>PT5399</name></trkpt>
<trkpt lat="53.110450" lon="-4.122559"><ele>207</ele><time>2020-09-18T14:01:35Z</time><name>PT5400</name></trkpt>
<trkpt lat="53.110430" lon="-4.122626"><ele>206</ele><time>2020-09-18T14:01:38Z</time><name>PT5401</name></trkpt>
<trkpt lat="53.110419" lon="-4.122691"><ele>207</ele><time>2020-09-18T14:01:43Z</time><name>PT5402</name></trkpt>
<trkpt lat="53.110400" lon="-4.122756"><ele>206</ele><time>2020-09-18T14:01:46Z</time><name>PT5403</name></trkpt>
<trkpt lat="53.110385" lon="-4.122833"><ele>205</ele><time>2020-09-18T14:01:50Z</time><name>PT5404</name></trkpt>
<trkpt lat="53.110372" lon="-4.122916"><ele>205</ele><time>2020-09-18T14:01:53Z</time><name>PT5405</name></trkpt>
<trkpt lat="53.110361" lon="-4.122994"><ele>204</ele><time>2020-09-18T14:01:58Z</time><name>PT5406</name></trkpt>
<trkpt lat="53.110354" lon="-4.123081"><ele>204</ele><time>2020-09-18T14:02:02Z</time><name>PT5407</name></trkpt>
<trkpt lat="53.110346" lon="-4.123164"><ele>203</ele><time>2020-09-18T14:02:05Z</time><name>PT5408</name></trkpt>
<trkpt lat="53.110341" lon="-4.123220"><ele>202</ele><time>2020-09-18T14:02:08Z</time><name>PT5409</name></trkpt>
<trkpt lat="53.110340" lon="-4.123293"><ele>201</ele><time>2020-09-18T14:02:13Z</time><name>PT5410</name></trkpt>
<trkpt lat="53.110334" lon="-4.123373"><ele>201</ele><time>2020-09-18T14:02:17Z</time><name>PT5411</name></trkpt>
<trkpt lat="53.110335" lon="-4.123454"><ele>200</ele><time>2020-09-18T14:02:20Z</time><name>PT5412</name></trkpt>
<trkpt lat="53.110351" lon="-4.123527"><ele>200</ele><time>2020-09-18T14:02:25Z</time><name>PT5413</name></trkpt>
<trkpt lat="53.110369" lon="-4.123603"><ele>199</ele><time>2020-09-18T14:02:29Z</time><name>PT5414</name></trkpt>
<trkpt lat="53.110394" lon="-4.123676"><ele>198</ele><time>2020-09-18T14:02:32Z</time><name>PT5415</name></trkpt>
<trkpt lat="53.110418" lon="-4.123727"><ele>197</ele><time>2020-09-18T14:02:35Z</time><name>PT5416</name></trkpt>
<trkpt lat="53.110441" lon="-4.123761"><ele>196</ele><time>2020-09-18T14:02:38Z</time><name>PT5417</name></trkpt>
<trkpt lat="53.110475" lon="-4.123798"><ele>194</ele><time>2020-09-18T14:02:43Z</time><name>PT5418</name></trkpt>
<trkpt lat="53.110501" lon="-4.123830"><ele>193</ele><time>2020-09-18T14:02:46Z</time><name>PT5419</name></trkpt>
<trkpt lat="53.110527" lon="-4.123853"><ele>191</ele><time>2020-09-18T14:02:49Z</time><name>PT5420</name></trkpt>
<trkpt lat="53.110558" lon="-4.123873"><ele>189</ele><time>2020-09-18T14:02:52Z</time><name>PT5421</name></trkpt>
<trkpt lat="53.110590" lon="-4.123891"><ele>187</ele><time>2020-09-18T14:02:55Z</time><name>PT5422</name></trkpt>
<trkpt lat="53.110637" lon="-4.123905"><ele>187</ele><time>2020-09-18T14:02:59Z</time><name>PT5423</name></trkpt>
<trkpt lat="53.110671" lon="-4.123917"><ele>187</ele><time>2020-09-18T14:03:02Z</time><name>PT5424</name></trkpt>
<trkpt lat="53.110717" lon="-4.123932"><ele>186</ele><time>2020-09-18T14:03:05Z</time><name>PT5425</name></trkpt>
<trkpt lat="53.110769" lon="-4.123951"><ele>186</ele><time>2020-09-18T14:03:10Z</time><name>PT5426</name></trkpt>
<trkpt lat="53.110808" lon="-4.123969"><ele>185</ele><time>2020-09-18T14:03:14Z</time><name>PT5427</name></trkpt>
<trkpt lat="53.110838" lon="-4.123986"><ele>185</ele><time>2020-09-18T14:03:17Z</time><name>PT5428</name></trkpt>
<trkpt lat="53.110879" lon="-4.124001"><ele>187</ele><time>2020-09-18T14:03:20Z</time><name>PT5429</name></trkpt>
<trkpt lat="53.110917" lon="-4.124023"><ele>185</ele><time>2020-09-18T14:03:23Z</time><name>PT5430</name></trkpt>
<trkpt lat="53.110949" lon="-4.124050"><ele>183</ele><time>2020-09-18T14:03:28Z</time><name>PT5431</name></trkpt>
<trkpt lat="53.110992" lon="-4.124072"><ele>182</ele><time>2020-09-18T14:03:32Z</time><name>PT5432</name></trkpt>
<trkpt lat="53.111035" lon="-4.124104"><ele>182</ele><time>2020-09-18T14:03:35Z</time><name>PT5433</name></trkpt>
<trkpt lat="53.111063" lon="-4.124130"><ele>181</ele><time>2020-09-18T14:03:38Z</time><name>PT5434</name></trkpt>
<trkpt lat="53.111111" lon="-4.124154"><ele>180</ele><time>2020-09-18T14:03:43Z</time><name>PT5435</name></trkpt>
<trkpt lat="53.111137" lon="-4.124175"><ele>178</ele><time>2020-09-18T14:03:46Z</time><name>PT5436</name></trkpt>
<trkpt lat="53.111169" lon="-4.124197"><ele>177</ele><time>2020-09-18T14:03:49Z</time><name>PT5437</name></trkpt>
<trkpt lat="53.111199" lon="-4.124219"><ele>175</ele><time>2020-09-18T14:03:52Z</time><name>PT5438</name></trkpt>
<trkpt lat="53.111233" lon="-4.124235"><ele>175</ele><time>2020-09-18T14:03:55Z</time><name>PT5439</name></trkpt>
<trkpt lat="53.111277" lon="-4.124285"><ele>175</ele><time>2020-09-18T14:03:59Z</time><name>PT5440</name></trkpt>
<trkpt lat="53.111312" lon="-4.124322"><ele>176</ele><time>2020-09-18T14:04:02Z</time><name>PT5441</name></trkpt>
<trkpt lat="53.111331" lon="-4.124361"><ele>172</ele><time>2020-09-18T14:04:05Z</time><name>PT5442</name></trkpt>
<trkpt lat="53.111358" lon="-4.124391"><ele>171</ele><time>2020-09-18T14:04:10Z</time><name>PT5443</name></trkpt>
<trkpt lat="53.111399" lon="-4.124432"><ele>172</ele><time>2020-09-18T14:04:14Z</time><name>PT5444</name></trkpt>
<trkpt lat="53.111426" lon="-4.124457"><ele>171</ele><time>2020-09-18T14:04:17Z</time><name>PT5445</name></trkpt>
<trkpt lat="53.111457" lon="-4.124468"><ele>169</ele><time>2020-09-18T14:04:20Z</time><name>PT5446</name></trkpt>
<trkpt lat="53.111501" lon="-4.124479"><ele>170</ele><time>2020-09-18T14:04:25Z</time><name>PT5447</name></trkpt>
<trkpt lat="53.111539" lon="-4.124476"><ele>169</ele><time>2020-09-18T14:04:28Z</time><name>PT5448</name></trkpt>
<trkpt lat="53.111577" lon="-4.124478"><ele>167</ele><time>2020-09-18T14:04:32Z</time><name>PT5449</name></trkpt>
<trkpt lat="53.111603" lon="-4.124473"><ele>165</ele><time>2020-09-18T14:04:35Z</time><name>PT5450</name></trkpt>
<trkpt lat="53.111639" lon="-4.124460"><ele>164</ele><time>2020-09-18T14:04:38Z</time><name>PT5451</name></trkpt>
<trkpt lat="53.111678" lon="-4.124432"><ele>162</ele><time>2020-09-18T14:04:43Z</time><name>PT5452</name></trkpt>
<trkpt lat="53.111707" lon="-4.124411"><ele>161</ele><time>2020-09-18T14:04:46Z</time><name>PT5453</name></trkpt>
<trkpt lat="53.111747" lon="-4.124387"><ele>160</ele><time>2020-09-18T14:04:50Z</time><name>PT5454</name></trkpt>
<trkpt lat="53.111782" lon="-4.124375"><ele>159</ele><time>2020-09-18T14:04:53Z</time><name>PT5455</name></trkpt>
<trkpt lat="53.111828" lon="-4.124353"><ele>158</ele><time>2020-09-18T14:04:56Z</time><name>PT5456</name></trkpt>
<trkpt lat="53.111869" lon="-4.124347"><ele>159</ele><time>2020-09-18T14:05:01Z</time><name>PT5457</name></trkpt>
<trkpt lat="53.111905" lon="-4.124341"><ele>159</ele><time>2020-09-18T14:05:05Z</time><name>PT5458</name></trkpt>
<trkpt lat="53.111939" lon="-4.124325"><ele>159</ele><time>2020-09-18T14:05:08Z</time><name>PT5459</name></trkpt>
<trkpt lat="53.111965" lon="-4.124310"><ele>158</ele><time>2020-09-18T14:05:11Z</time><name>PT5460</name></trkpt>
<trkpt lat="53.111991" lon="-4.124294"><ele>157</ele><time>2020-09-18T14:05:14Z</time><name>PT5461</name></trkpt>
<trkpt lat="53.112028" lon="-4.124278"><ele>155</ele><time>2020-09-18T14:05:17Z</time><name>PT5462</name></trkpt>
<trkpt lat="53.112051" lon="-4.124265"><ele>155</ele><time>2020-09-18T14:05:20Z</time><name>PT5463</name></trkpt>
<trkpt lat="53.112080" lon="-4.124256"><ele>153</ele><time>2020-09-18T14:05:25Z</time><name>PT5464</name></trkpt>
<trkpt lat="53.112114" lon="-4.124251"><ele>152</ele><time>2020-09-18T14:05:29Z</time><name>PT5465</name></trkpt>
<trkpt lat="53.112144" lon="-4.124234"><ele>150</ele><time>2020-09-18T14:05:32Z</time><name>PT5466</name></trkpt>
<trkpt lat="53.112157" lon="-4.124226"><ele>149</ele><time>2020-09-18T14:05:35Z</time><name>PT5467</name></trkpt>
<trkpt lat="53.112179" lon="-4.124210"><ele>147</ele><time>2020-09-18T14:05:38Z</time><name>PT5468</name></trkpt>
<trkpt lat="53.112230" lon="-4.124193"><ele>146</ele><time>2020-09-18T14:05:43Z</time><name>PT5469</name></trkpt>
<trkpt lat="53.112273" lon="-4.124182"><ele>145</ele><time>2020-09-18T14:05:47Z</time><name>PT5470</name></trkpt>
<trkpt lat="53.112306" lon="-4.124175"><ele>143</ele><time>2020-09-18T14:05:50Z</time><name>PT5471</name></trkpt>
<trkpt lat="53.112343" lon="-4.124171"><ele>142</ele><time>2020-09-18T14:05:53Z</time><name>PT5472</name></trkpt>
<trkpt lat="53.112378" lon="-4.124181"><ele>141</ele><time>2020-09-18T14:05:56Z</time><name>PT5473</name></trkpt>
<trkpt lat="53.112419" lon="-4.124187"><ele>140</ele><time>2020-09-18T14:06:01Z</time><name>PT5474</name></trkpt>
<trkpt lat="53.112447" lon="-4.124198"><ele>139</ele><time>2020-09-18T14:06:04Z</time><name>PT5475</name></trkpt>
<trkpt lat="53.112475" lon="-4.124218"><ele>135</ele><time>2020-09-18T14:06:08Z</time><name>PT5476</name></trkpt>
<trkpt lat="53.112496" lon="-4.124241"><ele>135</ele><time>2020-09-18T14:06:11Z</time><name>PT5477</name></trkpt>
<trkpt lat="53.112518" lon="-4.124247"><ele>133</ele><time>2020-09-18T14:06:14Z</time><name>PT5478</name></trkpt>
<trkpt lat="53.112549" lon="-4.124255"><ele>132</ele><time>2020-09-18T14:06:17Z</time><name>PT5479</name></trkpt>
<trkpt lat="53.112582" lon="-4.124240"><ele>133</ele><time>2020-09-18T14:06:22Z</time><name>PT5480</name></trkpt>
<trkpt lat="53.112599" lon="-4.124216"><ele>131</ele><time>2020-09-18T14:06:25Z</time><name>PT5481</name></trkpt>
<trkpt lat="53.112654" lon="-4.124179"><ele>133</ele><time>2020-09-18T14:06:29Z</time><name>PT5482</name></trkpt>
<trkpt lat="53.112700" lon="-4.124156"><ele>135</ele><time>2020-09-18T14:06:32Z</time><name>PT5483</name></trkpt>
<trkpt lat="53.112743" lon="-4.124133"><ele>135</ele><time>2020-09-18T14:06:37Z</time><name>PT5484</name></trkpt>
<trkpt lat="53.112784" lon="-4.124104"><ele>134</ele><time>2020-09-18T14:06:41Z</time><name>PT5485</name></trkpt>
<trkpt lat="53.112805" lon="-4.124050"><ele>135</ele><time>2020-09-18T14:06:44Z</time><name>PT5486</name></trkpt>
<trkpt lat="53.112845" lon="-4.123991"><ele>136</ele><time>2020-09-18T14:06:49Z</time><name>PT5487</name></trkpt>
<trkpt lat="53.112862" lon="-4.123928"><ele>137</ele><time>2020-09-18T14:06:53Z</time><name>PT5488</name></trkpt>
<trkpt lat="53.112869" lon="-4.123890"><ele>138</ele><time>2020-09-18T14:06:56Z</time><name>PT5489</name></trkpt>
<trkpt lat="53.112862" lon="-4.123839"><ele>137</ele><time>2020-09-18T14:06:59Z</time><name>PT5490</name></trkpt>
<trkpt lat="53.112855" lon="-4.123792"><ele>136</ele><time>2020-09-18T14:07:04Z</time><name>PT5491</name></trkpt>
<trkpt lat="53.112851" lon="-4.123759"><ele>136</ele><time>2020-09-18T14:07:07Z</time><name>PT5492</name></trkpt>
<trkpt lat="53.112851" lon="-4.123713"><ele>135</ele><time>2020-09-18T14:07:11Z</time><name>PT5493</name></trkpt>
<trkpt lat="53.112852" lon="-4.123678"><ele>137</ele><time>2020-09-18T14:07:14Z</time><name>PT5494</name></trkpt>
<trkpt lat="53.112857" lon="-4.123618"><ele>138</ele><time>2020-09-18T14:07:17Z</time><name>PT5495</name></trkpt>
<trkpt lat="53.112860" lon="-4.123572"><ele>137</ele><time>2020-09-18T14:07:20Z</time><name>PT5496</name></trkpt>
<trkpt lat="53.112863" lon="-4.123516"><ele>136</ele><time>2020-09-18T14:07:23Z</time><name>PT5497</name></trkpt>
<trkpt lat="53.112866" lon="-4.123457"><ele>133</ele><time>2020-09-18T14:07:26Z</time><name>PT5498</name></trkpt>
<trkpt lat="53.112860" lon="-4.123406"><ele>129</ele><time>2020-09-18T14:07:31Z</time><name>PT5499</name></trkpt>
<trkpt lat="53.112881" lon="-4.123329"><ele>129</ele><time>2020-09-18T14:07:35Z</time><name>PT5500</name></trkpt>
<trkpt lat="53.112900" lon="-4.123268"><ele>127</ele><time>2020-09-18T14:07:38Z</time><name>PT5501</name></trkpt>
<trkpt lat="53.112918" lon="-4.123217"><ele>127</ele><time>2020-09-18T14:07:41Z</time><name>PT5502</name></trkpt>
<trkpt lat="53.112950" lon="-4.123157"><ele>126</ele><time>2020-09-18T14:07:44Z</time><name>PT5503</name></trkpt>
<trkpt lat="53.112978" lon="-4.123084"><ele>126</ele><time>2020-09-18T14:07:47Z</time><name>PT5504</name></trkpt>
<trkpt lat="53.113005" lon="-4.123025"><ele>127</ele><time>2020-09-18T14:07:50Z</time><name>PT5505</name></trkpt>
<trkpt lat="53.113017" lon="-4.122962"><ele>126</ele><time>2020-09-18T14:07:55Z</time><name>PT5506</name></trkpt>
<trkpt lat="53.113027" lon="-4.122910"><ele>125</ele><time>2020-09-18T14:07:59Z</time><name>PT5507</name></trkpt>
<trkpt lat="53.113044" lon="-4.122853"><ele>125</ele><time>2020-09-18T14:08:02Z</time><name>PT5508</name></trkpt>
<trkpt lat="53.113052" lon="-4.122803"><ele>125</ele><time>2020-09-18T14:08:05Z</time><name>PT5509</name></trkpt>
<trkpt lat="53.113071" lon="-4.122768"><ele>126</ele><time>2020-09-18T14:08:08Z</time><name>PT5510</name></trkpt>
<trkpt lat="53.113090" lon="-4.122703"><ele>127</ele><time>2020-09-18T14:08:11Z</time><name>PT5511</name></trkpt>
<trkpt lat="53.113103" lon="-4.122636"><ele>127</ele><time>2020-09-18T14:08:14Z</time><name>PT5512</name></trkpt>
<trkpt lat="53.113119" lon="-4.122547"><ele>129</ele><time>2020-09-18T14:08:19Z</time><name>PT5513</name></trkpt>
<trkpt lat="53.113127" lon="-4.122477"><ele>128</ele><time>2020-09-18T14:08:22Z</time><name>PT5514</name></trkpt>
<trkpt lat="53.113130" lon="-4.122395"><ele>126</ele><time>2020-09-18T14:08:26Z</time><name>PT5515</name></trkpt>
<trkpt lat="53.113142" lon="-4.122307"><ele>127</ele><time>2020-09-18T14:08:29Z</time><name>PT5516</name></trkpt>
<trkpt lat="53.113157" lon="-4.122260"><ele>123</ele><time>2020-09-18T14:08:34Z</time><name>PT5517</name></trkpt>
<trkpt lat="53.113174" lon="-4.122217"><ele>122</ele><time>2020-09-18T14:08:37Z</time><name>PT5518</name></trkpt>
<trkpt lat="53.113188" lon="-4.122174"><ele>119</ele><time>2020-09-18T14:08:40Z</time><name>PT5519</name></trkpt>
<trkpt lat="53.113207" lon="-4.122123"><ele>118</ele><time>2020-09-18T14:08:43Z</time><name>PT5520</name></trkpt>
<trkpt lat="53.113217" lon="-4.122101"><ele>118</ele><time>2020-09-18T14:08:47Z</time><name>PT5521</name></trkpt>
<trkpt lat="53.113263" lon="-4.122012"><ele>117</ele><time>2020-09-18T14:08:50Z</time><name>PT5522</name></trkpt>
<trkpt lat="53.113297" lon="-4.121937"><ele>114</ele><time>2020-09-18T14:08:55Z</time><name>PT5523</name></trkpt>
<trkpt lat="53.113336" lon="-4.121889"><ele>114</ele><time>2020-09-18T14:08:58Z</time><name>PT5524</name></trkpt>
<trkpt lat="53.113376" lon="-4.121841"><ele>114</ele><time>2020-09-18T14:09:01Z</time><name>PT5525</name></trkpt>
<trkpt lat="53.113434" lon="-4.121800"><ele>114</ele><time>2020-09-18T14:09:05Z</time><name>PT5526</name></trkpt>
<trkpt lat="53.113472" lon="-4.121752"><ele>115</ele><time>2020-09-18T14:09:08Z</time><name>PT5527</name></trkpt>
<trkpt lat="53.113523" lon="-4.121697"><ele>116</ele><time>2020-09-18T14:09:11Z</time><name>PT5528</name></trkpt>
<trkpt lat="53.113565" lon="-4.121655"><ele>116</ele><time>2020-09-18T14:09:16Z</time><name>PT5529</name></trkpt>
<trkpt lat="53.113596" lon="-4.121622"><ele>116</ele><time>2020-09-18T14:09:19Z</time><name>PT5530</name></trkpt>
<trkpt lat="53.113619" lon="-4.121566"><ele>114</ele><time>2020-09-18T14:09:23Z</time><name>PT5531</name></trkpt>
<trkpt lat="53.113648" lon="-4.121526"><ele>113</ele><time>2020-09-18T14:09:26Z</time><name>PT5532</name></trkpt>
<trkpt lat="53.113696" lon="-4.121473"><ele>114</ele><time>2020-09-18T14:09:29Z</time><name>PT5533</name></trkpt>
<trkpt lat="53.113719" lon="-4.121434"><ele>113</ele><time>2020-09-18T14:09:32Z</time><name>PT5534</name></trkpt>
<trkpt lat="53.113774" lon="-4.121367"><ele>114</ele><time>2020-09-18T14:09:37Z</time><name>PT5535</name></trkpt>
<trkpt lat="53.113811" lon="-4.121311"><ele>115</ele><time>2020-09-18T14:09:41Z</time><name>PT5536</name></trkpt>
<trkpt lat="53.113846" lon="-4.121256"><ele>114</ele><time>2020-09-18T14:09:44Z</time><name>PT5537</name></trkpt>
<trkpt lat="53.113877" lon="-4.121200"><ele>114</ele><time>2020-09-18T14:09:49Z</time><name>PT5538</name></trkpt>
<trkpt lat="53.113915" lon="-4.121137"><ele>113</ele><time>2020-09-18T14:09:53Z</time><name>PT5539</name></trkpt>
<trkpt lat="53.113943" lon="-4.121107"><ele>113</ele><time>2020-09-18T14:09:56Z</time><name>PT5540</name></trkpt>
<trkpt lat="53.113990" lon="-4.121060"><ele>113</ele><time>2020-09-18T14:09:59Z</time><name>PT5541</name></trkpt>
<trkpt lat="53.114018" lon="-4.121019"><ele>113</ele><time>2020-09-18T14:10:02Z</time><name>PT5542</name></trkpt>
<trkpt lat="53.114047" lon="-4.120984"><ele>112</ele><time>2020-09-18T14:10:05Z</time><name>PT5543</name></trkpt>
<trkpt lat="53.114076" lon="-4.120941"><ele>112</ele><time>2020-09-18T14:10:08Z</time><name>PT5544</name></trkpt>
<trkpt lat="53.114112" lon="-4.120884"><ele>111</ele><time>2020-09-18T14:10:13Z</time><name>PT5545</name></trkpt>
<trkpt lat="53.114138" lon="-4.120835"><ele>111</ele><time>2020-09-18T14:10:16Z</time><name>PT5546</name></trkpt>
<trkpt lat="53.114173" lon="-4.120788"><ele>110</ele><time>2020-09-18T14:10:20Z</time><name>PT5547</name></trkpt>
<trkpt lat="53.114210" lon="-4.120739"><ele>110</ele><time>2020-09-18T14:10:23Z</time><name>PT5548</name></trkpt>
<trkpt lat="53.114239" lon="-4.120687"><ele>110</ele><time>2020-09-18T14:10:26Z</time><name>PT5549</name></trkpt>
<trkpt lat="53.114268" lon="-4.120647"><ele>110</ele><time>2020-09-18T14:10:29Z</time><name>PT5550</name></trkpt>
<trkpt lat="53.114302" lon="-4.120582"><ele>109</ele><time>2020-09-18T14:10:34Z</time><name>PT5551</name></trkpt>
<trkpt lat="53.114349" lon="-4.120529"><ele>110</ele><time>2020-09-18T14:10:38Z</time><name>PT5552</name></trkpt>
<trkpt lat="53.114379" lon="-4.120483"><ele>110</ele><time>2020-09-18T14:10:41Z</time><name>PT5553</name></trkpt>
<trkpt lat="53.114420" lon="-4.120431"><ele>111</ele><time>2020-09-18T14:10:44Z</time><name>PT5554</name></trkpt>
<trkpt lat="53.114451" lon="-4.120375"><ele>109</ele><time>2020-09-18T14:10:49Z</time><name>PT5555</name></trkpt>
<trkpt lat="53.114489" lon="-4.120319"><ele>110</ele><time>2020-09-18T14:10:53Z</time><name>PT5556</name></trkpt>
<trkpt lat="53.114527" lon="-4.120258"><ele>111</ele><time>2020-09-18T14:10:56Z</time><name>PT5557</name></trkpt>
<trkpt lat="53.114557" lon="-4.120215"><ele>111</ele><time>2020-09-18T14:10:59Z</time><name>PT5558</name></trkpt>
<trkpt lat="53.114603" lon="-4.120152"><ele>111</ele><time>2020-09-18T14:11:04Z</time><name>PT5559</name></trkpt>
<trkpt lat="53.114634" lon="-4.120110"><ele>111</ele><time>2020-09-18T14:11:07Z</time><name>PT5560</name></trkpt>
<trkpt lat="53.114669" lon="-4.120056"><ele>111</ele><time>2020-09-18T14:11:11Z</time><name>PT5561</name></trkpt>
<trkpt lat="53.114694" lon="-4.120019"><ele>110</ele><time>2020-09-18T14:11:14Z</time><name>PT5562</name></trkpt>
<trkpt lat="53.114738" lon="-4.119965"><ele>111</ele><time>2020-09-18T14:11:17Z</time><name>PT5563</name></trkpt>
<trkpt lat="53.114773" lon="-4.119926"><ele>112</ele><time>2020-09-18T14:11:20Z</time><name>PT5564</name></trkpt>
<trkpt lat="53.114805" lon="-4.119879"><ele>112</ele><time>2020-09-18T14:11:25Z</time><name>PT5565</name></trkpt>
<trkpt lat="53.114831" lon="-4.119863"><ele>112</ele><time>2020-09-18T14:11:28Z</time><name>PT5566</name></trkpt>
<trkpt lat="53.114859" lon="-4.119813"><ele>111</ele><time>2020-09-18T14:11:31Z</time><name>PT5567</name></trkpt>
<trkpt lat="53.114890" lon="-4.119758"><ele>111</ele><time>2020-09-18T14:11:35Z</time><name>PT5568</name></trkpt>
<trkpt lat="53.114913" lon="-4.119709"><ele>112</ele><time>2020-09-18T14:11:38Z</time><name>PT5569</name></trkpt>
<trkpt lat="53.114940" lon="-4.119637"><ele>112</ele><time>2020-09-18T14:11:41Z</time><name>PT5570</name></trkpt>
<trkpt lat="53.114974" lon="-4.119573"><ele>113</ele><time>2020-09-18T14:11:46Z</time><name>PT5571</name></trkpt>
<trkpt lat="53.115015" lon="-4.119491"><ele>115</ele><time>2020-09-18T14:11:50Z</time><name>PT5572</name></trkpt>
<trkpt lat="53.115037" lon="-4.119437"><ele>115</ele><time>2020-09-18T14:11:53Z</time><name>PT5573</name></trkpt>
<trkpt lat="53.115058" lon="-4.119384"><ele>116</ele><time>2020-09-18T14:11:56Z</time><name>PT5574</name></trkpt>
<trkpt lat="53.115088" lon="-4.119324"><ele>116</ele><time>2020-09-18T14:11:59Z</time><name>PT5575</name></trkpt>
<trkpt lat="53.115107" lon="-4.119278"><ele>116</ele><time>2020-09-18T14:12:02Z</time><name>PT5576</name></trkpt>
<trkpt lat="53.115132" lon="-4.119212"><ele>117</ele><time>2020-09-18T14:12:07Z</time><name>PT5577</name></trkpt>
<trkpt lat="53.115162" lon="-4.119143"><ele>118</ele><time>2020-09-18T14:12:11Z</time><name>PT5578</name></trkpt>
<trkpt lat="53.115195" lon="-4.119099"><ele>117</ele><time>2020-09-18T14:12:14Z</time><name>PT5579</name></trkpt>
<trkpt lat="53.115235" lon="-4.119049"><ele>116</ele><time>2020-09-18T14:12:19Z</time><name>PT5580</name></trkpt>
<trkpt lat="53.115263" lon="-4.119017"><ele>116</ele><time>2020-09-18T14:12:22Z</time><name>PT5581</name></trkpt>
<trkpt lat="53.115316" lon="-4.118975"><ele>118</ele><time>2020-09-18T14:12:26Z</time><name>PT5582</name></trkpt>
<trkpt lat="53.115346" lon="-4.118950"><ele>118</ele><time>2020-09-18T14:12:29Z</time><name>PT5583</name></trkpt>
<trkpt lat="53.115385" lon="-4.118903"><ele>119</ele><time>2020-09-18T14:12:32Z</time><name>PT5584</name></trkpt>
<trkpt lat="53.115414" lon="-4.118900"><ele>118</ele><time>2020-09-18T14:12:35Z</time><name>PT5585</name></trkpt>
<trkpt lat="53.115447" lon="-4.118915"><ele>118</ele><time>2020-09-18T14:12:38Z</time><name>PT5586</name></trkpt>
<trkpt lat="53.115492" lon="-4.118919"><ele>116</ele><time>2020-09-18T14:12:43Z</time><name>PT5587</name></trkpt>
<trkpt lat="53.115521" lon="-4.118919"><ele>114</ele><time>2020-09-18T14:12:46Z</time><name>PT5588</name></trkpt>
<trkpt lat="53.115560" lon="-4.118926"><ele>113</ele><time>2020-09-18T14:12:49Z</time><name>PT5589</name></trkpt>
<trkpt lat="53.115609" lon="-4.118927"><ele>112</ele><time>2020-09-18T14:12:53Z</time><name>PT5590</name></trkpt>
<trkpt lat="53.115635" lon="-4.118933"><ele>110</ele><time>2020-09-18T14:12:56Z</time><name>PT5591</name></trkpt>
<trkpt lat="53.115664" lon="-4.118928"><ele>107</ele><time>2020-09-18T14:12:59Z</time><name>PT5592</name></trkpt>
<trkpt lat="53.115707" lon="-4.118940"><ele>106</ele><time>2020-09-18T14:13:02Z</time><name>PT5593</name></trkpt>
<trkpt lat="53.115746" lon="-4.118959"><ele>104</ele><time>2020-09-18T14:13:05Z</time><name>PT5594</name></trkpt>
<trkpt lat="53.115783" lon="-4.118965"><ele>105</ele><time>2020-09-18T14:13:08Z</time><name>PT5595</name></trkpt>
<trkpt lat="53.115842" lon="-4.118991"><ele>104</ele><time>2020-09-18T14:13:13Z</time><name>PT5596</name></trkpt>
<trkpt lat="53.115899" lon="-4.119007"><ele>104</ele><time>2020-09-18T14:13:17Z</time><name>PT5597</name></trkpt>
<trkpt lat="53.115956" lon="-4.119022"><ele>105</ele><time>2020-09-18T14:13:20Z</time><name>PT5598</name></trkpt>
<trkpt lat="53.116017" lon="-4.119042"><ele>105</ele><time>2020-09-18T14:13:25Z</time><name>PT5599</name></trkpt>
<trkpt lat="53.116070" lon="-4.119068"><ele>105</ele><time>2020-09-18T14:13:29Z</time><name>PT5600</name></trkpt>
<trkpt lat="53.116109" lon="-4.119095"><ele>106</ele><time>2020-09-18T14:13:32Z</time><name>PT5601</name></trkpt>
<trkpt lat="53.116155" lon="-4.119116"><ele>106</ele><time>2020-09-18T14:13:35Z</time><name>PT5602</name></trkpt>
<trkpt lat="53.116194" lon="-4.119136"><ele>107</ele><time>2020-09-18T14:13:38Z</time><name>PT5603</name></trkpt>
<trkpt lat="53.116240" lon="-4.119148"><ele>108</ele><time>2020-09-18T14:13:41Z</time><name>PT5604</name></trkpt>
<trkpt lat="53.116293" lon="-4.119183"><ele>109</ele><time>2020-09-18T14:13:46Z</time><name>PT5605</name></trkpt>
<trkpt lat="53.116338" lon="-4.119206"><ele>109</ele><time>2020-09-18T14:13:50Z</time><name>PT5606</name></trkpt>
<trkpt lat="53.116383" lon="-4.119234"><ele>109</ele><time>2020-09-18T14:13:53Z</time><name>PT5607</name></trkpt>
<trkpt lat="53.116414" lon="-4.119266"><ele>109</ele><time>2020-09-18T14:13:56Z</time><name>PT5608</name></trkpt>
<trkpt lat="53.116456" lon="-4.119300"><ele>109</ele><time>2020-09-18T14:14:01Z</time><name>PT5609</name></trkpt>
<trkpt lat="53.116483" lon="-4.119335"><ele>108</ele><time>2020-09-18T14:14:04Z</time><name>PT5610</name></trkpt>
<trkpt lat="53.116531" lon="-4.119370"><ele>108</ele><time>2020-09-18T14:14:08Z</time><name>PT5611</name></trkpt>
<trkpt lat="53.116561" lon="-4.119409"><ele>108</ele><time>2020-09-18T14:14:11Z</time><name>PT5612</name></trkpt>
<trkpt lat="53.116597" lon="-4.119443"><ele>107</ele><time>2020-09-18T14:14:14Z</time><name>PT5613</name></trkpt>
<trkpt lat="53.116627" lon="-4.119484"><ele>108</ele><time>2020-09-18T14:14:17Z</time><name>PT5614</name></trkpt>
<trkpt lat="53.116664" lon="-4.119549"><ele>108</ele><time>2020-09-18T14:14:22Z</time><name>PT5615</name></trkpt>
<trkpt lat="53.116685" lon="-4.119588"><ele>106</ele><time>2020-09-18T14:14:25Z</time><name>PT5616</name></trkpt>
<trkpt lat="53.116707" lon="-4.119637"><ele>106</ele><time>2020-09-18T14:14:28Z</time><name>PT5617</name></trkpt>
<trkpt lat="53.116743" lon="-4.119703"><ele>105</ele><time>2020-09-18T14:14:32Z</time><name>PT5618</name></trkpt>
<trkpt lat="53.116781" lon="-4.119767"><ele>107</ele><time>2020-09-18T14:14:35Z</time><name>PT5619</name></trkpt>
<trkpt lat="53.116815" lon="-4.119844"><ele>107</ele><time>2020-09-18T14:14:40Z</time><name>PT5620</name></trkpt>
<trkpt lat="53.116856" lon="-4.119903"><ele>107</ele><time>2020-09-18T14:14:44Z</time><name>PT5621</name></trkpt>
<trkpt lat="53.116894" lon="-4.119966"><ele>108</ele><time>2020-09-18T14:14:47Z</time><name>PT5622</name></trkpt>
<trkpt lat="53.116931" lon="-4.120038"><ele>108</ele><time>2020-09-18T14:14:52Z</time><name>PT5623</name></trkpt>
<trkpt lat="53.116962" lon="-4.120091"><ele>109</ele><time>2020-09-18T14:14:56Z</time><name>PT5624</name></trkpt>
<trkpt lat="53.116989" lon="-4.120140"><ele>109</ele><time>2020-09-18T14:14:59Z</time><name>PT5625</name></trkpt>
<trkpt lat="53.117010" lon="-4.120196"><ele>108</ele><time>2020-09-18T14:15:02Z</time><name>PT5626</name></trkpt>
<trkpt lat="53.117038" lon="-4.120235"><ele>108</ele><time>2020-09-18T14:15:05Z</time><name>PT5627</name></trkpt>
<trkpt lat="53.117066" lon="-4.120303"><ele>109</ele><time>2020-09-18T14:15:10Z</time><name>PT5628</name></trkpt>
<trkpt lat="53.117101" lon="-4.120352"><ele>108</ele><time>2020-09-18T14:15:14Z</time><name>PT5629</name></trkpt>
<trkpt lat="53.117126" lon="-4.120395"><ele>108</ele><time>2020-09-18T14:15:17Z</time><name>PT5630</name></trkpt>
<trkpt lat="53.117151" lon="-4.120441"><ele>107</ele><time>2020-09-18T14:15:20Z</time><name>PT5631</name></trkpt>
<trkpt lat="53.117176" lon="-4.120501"><ele>106</ele><time>2020-09-18T14:15:23Z</time><name>PT5632</name></trkpt>
<trkpt lat="53.117199" lon="-4.120538"><ele>107</ele><time>2020-09-18T14:15:26Z</time><name>PT5633</name></trkpt>
<trkpt lat="53.117253" lon="-4.120539"><ele>107</ele><time>2020-09-18T14:15:31Z</time><name>PT5634</name></trkpt>
<trkpt lat="53.117303" lon="-4.120548"><ele>108</ele><time>2020-09-18T14:15:35Z</time><name>PT5635</name></trkpt>
<trkpt lat="53.117343" lon="-4.120571"><ele>107</ele><time>2020-09-18T14:15:38Z</time><name>PT5636</name></trkpt>
<trkpt lat="53.117367" lon="-4.120614"><ele>106</ele><time>2020-09-18T14:15:41Z</time><name>PT5637</name></trkpt>
<trkpt lat="53.117397" lon="-4.120676"><ele>105</ele><time>2020-09-18T14:15:44Z</time><name>PT5638</name></trkpt>
<trkpt lat="53.117433" lon="-4.120723"><ele>104</ele><time>2020-09-18T14:15:49Z</time><name>PT5639</name></trkpt>
<trkpt lat="53.117462" lon="-4.120773"><ele>104</ele><time>2020-09-18T14:15:52Z</time><name>PT5640</name></trkpt>
<trkpt lat="53.117491" lon="-4.120814"><ele>105</ele><time>2020-09-18T14:15:55Z</time><name>PT5641</name></trkpt>
<trkpt lat="53.117507" lon="-4.120858"><ele>104</ele><time>2020-09-18T14:15:58Z</time><name>PT5642</name></trkpt>
<trkpt lat="53.117531" lon="-4.120889"><ele>103</ele><time>2020-09-18T14:16:01Z</time><name>PT5643</name></trkpt>
<trkpt lat="53.117576" lon="-4.120931"><ele>104</ele><time>2020-09-18T14:16:05Z</time><name>PT5644</name></trkpt>
<trkpt lat="53.117606" lon="-4.120980"><ele>104</ele><time>2020-09-18T14:16:08Z</time><name>PT5645</name></trkpt>
<trkpt lat="53.117650" lon="-4.121021"><ele>104</ele><time>2020-09-18T14:16:11Z</time><name>PT5646</name></trkpt>
<trkpt lat="53.117689" lon="-4.121072"><ele>104</ele><time>2020-09-18T14:16:16Z</time><name>PT5647</name></trkpt>
<trkpt lat="53.117726" lon="-4.121105"><ele>104</ele><time>2020-09-18T14:16:19Z</time><name>PT5648</name></trkpt>
<trkpt lat="53.117756" lon="-4.121144"><ele>105</ele><time>2020-09-18T14:16:22Z</time><name>PT5649</name></trkpt>
<trkpt lat="53.117788" lon="-4.121168"><ele>105</ele><time>2020-09-18T14:16:25Z</time><name>PT5650</name></trkpt>
<trkpt lat="53.117838" lon="-4.121211"><ele>106</ele><time>2020-09-18T14:16:29Z</time><name>PT5651</name></trkpt>
<trkpt lat="53.117881" lon="-4.121262"><ele>106</ele><time>2020-09-18T14:16:32Z</time><name>PT5652</name></trkpt>
<trkpt lat="53.117917" lon="-4.121287"><ele>105</ele><time>2020-09-18T14:16:35Z</time><name>PT5653</name></trkpt>
<trkpt lat="53.117948" lon="-4.121331"><ele>106</ele><time>2020-09-18T14:16:38Z</time><name>PT5654</name></trkpt>
<trkpt lat="53.117979" lon="-4.121357"><ele>105</ele><time>2020-09-18T14:16:41Z</time><name>PT5655</name></trkpt>
<trkpt lat="53.118007" lon="-4.121395"><ele>104</ele><time>2020-09-18T14:16:44Z</time><name>PT5656</name></trkpt>
<trkpt lat="53.118043" lon="-4.121420"><ele>104</ele><time>2020-09-18T14:16:48Z</time><name>PT5657</name></trkpt>
<trkpt lat="53.118084" lon="-4.121462"><ele>105</ele><time>2020-09-18T14:16:52Z</time><name>PT5658</name></trkpt>
<trkpt lat="53.118122" lon="-4.121498"><ele>105</ele><time>2020-09-18T14:16:55Z</time><name>PT5659</name></trkpt>
<trkpt lat="53.118170" lon="-4.121520"><ele>106</ele><time>2020-09-18T14:16:59Z</time><name>PT5660</name></trkpt>
<trkpt lat="53.118218" lon="-4.121550"><ele>106</ele><time>2020-09-18T14:17:02Z</time><name>PT5661</name></trkpt>
<trkpt lat="53.118252" lon="-4.121581"><ele>106</ele><time>2020-09-18T14:17:05Z</time><name>PT5662</name></trkpt>
<trkpt lat="53.118283" lon="-4.121615"><ele>106</ele><time>2020-09-18T14:17:08Z</time><name>PT5663</name></trkpt>
<trkpt lat="53.118322" lon="-4.121663"><ele>106</ele><time>2020-09-18T14:17:13Z</time><name>PT5664</name></trkpt>
<trkpt lat="53.118358" lon="-4.121698"><ele>106</ele><time>2020-09-18T14:17:16Z</time><name>PT5665</name></trkpt>
<trkpt lat="53.118401" lon="-4.121749"><ele>106</ele><time>2020-09-18T14:17:20Z</time><name>PT5666</name></trkpt>
<trkpt lat="53.118451" lon="-4.121789"><ele>107</ele><time>2020-09-18T14:17:23Z</time><name>PT5667</name></trkpt>
<trkpt lat="53.118488" lon="-4.121823"><ele>107</ele><time>2020-09-18T14:17:26Z</time><name>PT5668</name></trkpt>
<trkpt lat="53.118529" lon="-4.121859"><ele>106</ele><time>2020-09-18T14:17:31Z</time><name>PT5669</name></trkpt>
<trkpt lat="53.118554" lon="-4.121891"><ele>106</ele><time>2020-09-18T14:17:34Z</time><name>PT5670</name></trkpt>
<trkpt lat="53.118582" lon="-4.121927"><ele>104</ele><time>2020-09-18T14:17:37Z</time><name>PT5671</name></trkpt>
<trkpt lat="53.118629" lon="-4.121988"><ele>106</ele><time>2020-09-18T14:17:41Z</time><name>PT5672</name></trkpt>
<trkpt lat="53.118639" lon="-4.122000"><ele>106</ele><time>2020-09-18T14:17:41Z</time><name>PT5673</name></trkpt>
<trkpt lat="53.118651" lon="-4.122012"><ele>107</ele><time>2020-09-18T14:17:43Z</time><name>PT5674</name></trkpt>
<trkpt lat="53.118662" lon="-4.122023"><ele>107</ele><time>2020-09-18T14:17:44Z</time><name>PT5675</name></trkpt>
<trkpt lat="53.118672" lon="-4.122032"><ele>107</ele><time>2020-09-18T14:17:44Z</time><name>PT5676</name></trkpt>
<trkpt lat="53.118684" lon="-4.122043"><ele>107</ele><time>2020-09-18T14:17:46Z</time><name>PT5677</name></trkpt>
<trkpt lat="53.118696" lon="-4.122053"><ele>107</ele><time>2020-09-18T14:17:47Z</time><name>PT5678</name></trkpt>
<trkpt lat="53.118709" lon="-4.122063"><ele>107</ele><time>2020-09-18T14:17:47Z</time><name>PT5679</name></trkpt>
<trkpt lat="53.118720" lon="-4.122074"><ele>107</ele><time>2020-09-18T14:17:49Z</time><name>PT5680</name></trkpt>
<trkpt lat="53.118730" lon="-4.122085"><ele>107</ele><time>2020-09-18T14:17:50Z</time><name>PT5681</name></trkpt>
<trkpt lat="53.118741" lon="-4.122095"><ele>107</ele><time>2020-09-18T14:17:50Z</time><name>PT5682</name></trkpt>
<trkpt lat="53.118752" lon="-4.122104"><ele>107</ele><time>2020-09-18T14:17:52Z</time><name>PT5683</name></trkpt>
<trkpt lat="53.118761" lon="-4.122115"><ele>107</ele><time>2020-09-18T14:17:53Z</time><name>PT5684</name></trkpt>
<trkpt lat="53.118769" lon="-4.122127"><ele>107</ele><time>2020-09-18T14:17:53Z</time><name>PT5685</name></trkpt>
<trkpt lat="53.118771" lon="-4.122128"><ele>107</ele><time>2020-09-18T14:17:55Z</time><name>PT5686</name></trkpt>
<trkpt lat="53.118772" lon="-4.122129"><ele>108</ele><time>2020-09-18T14:17:56Z</time><name>PT5687</name></trkpt>
<trkpt lat="53.118772" lon="-4.122129"><ele>108</ele><time>2020-09-18T14:17:56Z</time><name>PT5688</name></trkpt>
<trkpt lat="53.118772" lon="-4.122131"><ele>108</ele><time>2020-09-18T14:17:58Z</time><name>PT5689</name></trkpt>
<trkpt lat="53.118779" lon="-4.122133"><ele>108</ele><time>2020-09-18T14:17:59Z</time><name>PT5690</name></trkpt>
<trkpt lat="53.118789" lon="-4.122138"><ele>108</ele><time>2020-09-18T14:17:59Z</time><name>PT5691</name></trkpt>
<trkpt lat="53.118800" lon="-4.122142"><ele>107</ele><time>2020-09-18T14:18:01Z</time><name>PT5692</name></trkpt>
<trkpt lat="53.118813" lon="-4.122148"><ele>108</ele><time>2020-09-18T14:18:02Z</time><name>PT5693</name></trkpt>
<trkpt lat="53.118825" lon="-4.122152"><ele>107</ele><time>2020-09-18T14:18:02Z</time><name>PT5694</name></trkpt>
<trkpt lat="53.118834" lon="-4.122155"><ele>107</ele><time>2020-09-18T14:18:04Z</time><name>PT5695</name></trkpt>
<trkpt lat="53.118843" lon="-4.122154"><ele>107</ele><time>2020-09-18T14:18:05Z</time><name>PT5696</name></trkpt>
<trkpt lat="53.118851" lon="-4.122152"><ele>107</ele><time>2020-09-18T14:18:05Z</time><name>PT5697</name></trkpt>
<trkpt lat="53.118858" lon="-4.122155"><ele>107</ele><time>2020-09-18T14:18:07Z</time><name>PT5698</name></trkpt>
<trkpt lat="53.118860" lon="-4.122156"><ele>107</ele><time>2020-09-18T14:18:08Z</time><name>PT5699</name></trkpt>
<trkpt lat="53.118860" lon="-4.122151"><ele>107</ele><time>2020-09-18T14:18:08Z</time><name>PT5700</name></trkpt>
<trkpt lat="53.118865" lon="-4.122148"><ele>107</ele><time>2020-09-18T14:18:10Z</time><name>PT5701</name></trkpt>
<trkpt lat="53.118869" lon="-4.122147"><ele>107</ele><time>2020-09-18T14:18:11Z</time><name>PT5702</name></trkpt>
<trkpt lat="53.118877" lon="-4.122145"><ele>107</ele><time>2020-09-18T14:18:11Z</time><name>PT5703</name></trkpt>
<trkpt lat="53.118890" lon="-4.122146"><ele>107</ele><time>2020-09-18T14:18:13Z</time><name>PT5704</name></trkpt>
<trkpt lat="53.118900" lon="-4.122151"><ele>107</ele><time>2020-09-18T14:18:14Z</time><name>PT5705</name></trkpt>
<trkpt lat="53.118909" lon="-4.122151"><ele>107</ele><time>2020-09-18T14:18:14Z</time><name>PT5706</name></trkpt>
<trkpt lat="53.118917" lon="-4.122151"><ele>107</ele><time>2020-09-18T14:18:16Z</time><name>PT5707</name></trkpt>
<trkpt lat="53.118927" lon="-4.122156"><ele>107</ele><time>2020-09-18T14:18:17Z</time><name>PT5708</name></trkpt>
<trkpt lat="53.118937" lon="-4.122158"><ele>106</ele><time>2020-09-18T14:18:17Z</time><name>PT5709</name></trkpt>
<trkpt lat="53.118947" lon="-4.122162"><ele>106</ele><time>2020-09-18T14:18:19Z</time><name>PT5710</name></trkpt>
<trkpt lat="53.118958" lon="-4.122171"><ele>106</ele><time>2020-09-18T14:18:20Z</time><name>PT5711</name></trkpt>
<trkpt lat="53.118967" lon="-4.122181"><ele>106</ele><time>2020-09-18T14:18:20Z</time><name>PT5712</name></trkpt></trkseg></trk></gpx>